<?xml version="1.0" encoding="UTF-8"?>
<TrainingCenterDatabase xmlns="http://www.garmin.com/xmlschemas/TrainingCenterDatabase/v2" xmlns:xsi="http://www.w3.org/2001/XMLSchema-instance" xsi:schemaLocation="http://www.garmin.com/xmlschemas/TrainingCenterDatabase/v2 http://www.garmin.com/xmlschemas/TrainingCenterDatabasev2.xsd">
  <Activities>
    <Activity Sport="Other">
      <Id>2021-03-13T08:13:42.000Z</Id>
      <Lap StartTime="2021-03-13T08:13:42.000Z">
        <TotalTimeSeconds>13953</TotalTimeSeconds>
        <DistanceMeters>108930</DistanceMeters>
        <Track>
          <Trackpoint>
            <Time>2021-03-13T08:13:42.000Z</Time>
            <Position>
              <LatitudeDegrees>36.700504012405872344970703125</LatitudeDegrees>
              <LongitudeDegrees>-4.43551448173820972442626953125</LongitudeDegrees>
            </Position>
            <AltitudeMeters>2.599999904632568359375</AltitudeMeters>
            <DistanceMeters>0</DistanceMeters>
          </Trackpoint>
          <Trackpoint>
            <Time>2021-03-13T08:13:43.000Z</Time>
            <Position>
              <LatitudeDegrees>36.70052982866764068603515625</LatitudeDegrees>
              <LongitudeDegrees>-4.43548346869647502899169921875</LongitudeDegrees>
            </Position>
            <AltitudeMeters>2.599999904632568359375</AltitudeMeters>
            <DistanceMeters>3.9888588210474</DistanceMeters>
          </Trackpoint>
          <Trackpoint>
            <Time>2021-03-13T08:13:44.000Z</Time>
            <Position>
              <LatitudeDegrees>36.7005631886422634124755859375</LatitudeDegrees>
              <LongitudeDegrees>-4.4354451633989810943603515625</LongitudeDegrees>
            </Position>
            <AltitudeMeters>2.599999904632568359375</AltitudeMeters>
            <DistanceMeters>9.0369154495769</DistanceMeters>
          </Trackpoint>
          <Trackpoint>
            <Time>2021-03-13T08:13:46.000Z</Time>
            <Position>
              <LatitudeDegrees>36.70062102377414703369140625</LatitudeDegrees>
              <LongitudeDegrees>-4.435378946363925933837890625</LongitudeDegrees>
            </Position>
            <AltitudeMeters>2.7999999523162841796875</AltitudeMeters>
            <DistanceMeters>17.775240598602</DistanceMeters>
          </Trackpoint>
          <Trackpoint>
            <Time>2021-03-13T08:13:48.000Z</Time>
            <Position>
              <LatitudeDegrees>36.70068464241921901702880859375</LatitudeDegrees>
              <LongitudeDegrees>-4.43530241958796977996826171875</LongitudeDegrees>
            </Position>
            <AltitudeMeters>2.400000095367431640625</AltitudeMeters>
            <DistanceMeters>27.612685858927</DistanceMeters>
          </Trackpoint>
          <Trackpoint>
            <Time>2021-03-13T08:13:49.000Z</Time>
            <Position>
              <LatitudeDegrees>36.7007204331457614898681640625</LatitudeDegrees>
              <LongitudeDegrees>-4.43526394665241241455078125</LongitudeDegrees>
            </Position>
            <AltitudeMeters>2.2000000476837158203125</AltitudeMeters>
            <DistanceMeters>32.871880107843</DistanceMeters>
          </Trackpoint>
          <Trackpoint>
            <Time>2021-03-13T08:13:51.000Z</Time>
            <Position>
              <LatitudeDegrees>36.700788326561450958251953125</LatitudeDegrees>
              <LongitudeDegrees>-4.435178451240062713623046875</LongitudeDegrees>
            </Position>
            <AltitudeMeters>2</AltitudeMeters>
            <DistanceMeters>43.610319295608</DistanceMeters>
          </Trackpoint>
          <Trackpoint>
            <Time>2021-03-13T08:13:53.000Z</Time>
            <Position>
              <LatitudeDegrees>36.70085630379617214202880859375</LatitudeDegrees>
              <LongitudeDegrees>-4.43509555421769618988037109375</LongitudeDegrees>
            </Position>
            <AltitudeMeters>2</AltitudeMeters>
            <DistanceMeters>54.192046371329</DistanceMeters>
          </Trackpoint>
          <Trackpoint>
            <Time>2021-03-13T08:13:57.000Z</Time>
            <Position>
              <LatitudeDegrees>36.7010057531297206878662109375</LatitudeDegrees>
              <LongitudeDegrees>-4.43492657504975795745849609375</LongitudeDegrees>
            </Position>
            <AltitudeMeters>1.7999999523162841796875</AltitudeMeters>
            <DistanceMeters>76.643703932742</DistanceMeters>
          </Trackpoint>
          <Trackpoint>
            <Time>2021-03-13T08:14:03.000Z</Time>
            <Position>
              <LatitudeDegrees>36.70120717026293277740478515625</LatitudeDegrees>
              <LongitudeDegrees>-4.43466891534626483917236328125</LongitudeDegrees>
            </Position>
            <AltitudeMeters>1.7999999523162841796875</AltitudeMeters>
            <DistanceMeters>108.75682882047</DistanceMeters>
          </Trackpoint>
          <Trackpoint>
            <Time>2021-03-13T08:14:05.000Z</Time>
            <Position>
              <LatitudeDegrees>36.70127288438379764556884765625</LatitudeDegrees>
              <LongitudeDegrees>-4.43458668887615203857421875</LongitudeDegrees>
            </Position>
            <AltitudeMeters>1.7999999523162841796875</AltitudeMeters>
            <DistanceMeters>119.11735577084</DistanceMeters>
          </Trackpoint>
          <Trackpoint>
            <Time>2021-03-13T08:14:08.000Z</Time>
            <Position>
              <LatitudeDegrees>36.70137313194572925567626953125</LatitudeDegrees>
              <LongitudeDegrees>-4.43446255289018154144287109375</LongitudeDegrees>
            </Position>
            <AltitudeMeters>1.7999999523162841796875</AltitudeMeters>
            <DistanceMeters>134.84018543759</DistanceMeters>
          </Trackpoint>
          <Trackpoint>
            <Time>2021-03-13T08:14:12.000Z</Time>
            <Position>
              <LatitudeDegrees>36.7015014588832855224609375</LatitudeDegrees>
              <LongitudeDegrees>-4.4343018718063831329345703125</LongitudeDegrees>
            </Position>
            <AltitudeMeters>1.60000002384185791015625</AltitudeMeters>
            <DistanceMeters>155.07931406634</DistanceMeters>
          </Trackpoint>
          <Trackpoint>
            <Time>2021-03-13T08:14:13.000Z</Time>
            <Position>
              <LatitudeDegrees>36.7015321366488933563232421875</LatitudeDegrees>
              <LongitudeDegrees>-4.43426205776631832122802734375</LongitudeDegrees>
            </Position>
            <AltitudeMeters>1.60000002384185791015625</AltitudeMeters>
            <DistanceMeters>160.0078945551</DistanceMeters>
          </Trackpoint>
          <Trackpoint>
            <Time>2021-03-13T08:14:14.000Z</Time>
            <Position>
              <LatitudeDegrees>36.70156306587159633636474609375</LatitudeDegrees>
              <LongitudeDegrees>-4.434224925935268402099609375</LongitudeDegrees>
            </Position>
            <AltitudeMeters>1.60000002384185791015625</AltitudeMeters>
            <DistanceMeters>164.7876532732</DistanceMeters>
          </Trackpoint>
          <Trackpoint>
            <Time>2021-03-13T08:14:17.000Z</Time>
            <Position>
              <LatitudeDegrees>36.7016662470996379852294921875</LatitudeDegrees>
              <LongitudeDegrees>-4.43411822430789470672607421875</LongitudeDegrees>
            </Position>
            <AltitudeMeters>1.60000002384185791015625</AltitudeMeters>
            <DistanceMeters>179.70593950312</DistanceMeters>
          </Trackpoint>
          <Trackpoint>
            <Time>2021-03-13T08:14:19.000Z</Time>
            <Position>
              <LatitudeDegrees>36.70174210332334041595458984375</LatitudeDegrees>
              <LongitudeDegrees>-4.434034489095211029052734375</LongitudeDegrees>
            </Position>
            <AltitudeMeters>1.60000002384185791015625</AltitudeMeters>
            <DistanceMeters>190.98012931991</DistanceMeters>
          </Trackpoint>
          <Trackpoint>
            <Time>2021-03-13T08:14:21.000Z</Time>
            <Position>
              <LatitudeDegrees>36.70180714689195156097412109375</LatitudeDegrees>
              <LongitudeDegrees>-4.4339605607092380523681640625</LongitudeDegrees>
            </Position>
            <AltitudeMeters>1.60000002384185791015625</AltitudeMeters>
            <DistanceMeters>200.77479787687</DistanceMeters>
          </Trackpoint>
          <Trackpoint>
            <Time>2021-03-13T08:14:24.000Z</Time>
            <Position>
              <LatitudeDegrees>36.70192264951765537261962890625</LatitudeDegrees>
              <LongitudeDegrees>-4.43384262733161449432373046875</LongitudeDegrees>
            </Position>
            <AltitudeMeters>1.7999999523162841796875</AltitudeMeters>
            <DistanceMeters>217.38898990474</DistanceMeters>
          </Trackpoint>
          <Trackpoint>
            <Time>2021-03-13T08:14:26.000Z</Time>
            <Position>
              <LatitudeDegrees>36.702010743319988250732421875</LatitudeDegrees>
              <LongitudeDegrees>-4.4337657652795314788818359375</LongitudeDegrees>
            </Position>
            <AltitudeMeters>1.60000002384185791015625</AltitudeMeters>
            <DistanceMeters>229.35481173591</DistanceMeters>
          </Trackpoint>
          <Trackpoint>
            <Time>2021-03-13T08:14:28.000Z</Time>
            <Position>
              <LatitudeDegrees>36.70209489762783050537109375</LatitudeDegrees>
              <LongitudeDegrees>-4.43368957377970218658447265625</LongitudeDegrees>
            </Position>
            <AltitudeMeters>1.60000002384185791015625</AltitudeMeters>
            <DistanceMeters>240.92858182045</DistanceMeters>
          </Trackpoint>
          <Trackpoint>
            <Time>2021-03-13T08:14:31.000Z</Time>
            <Position>
              <LatitudeDegrees>36.7022264935076236724853515625</LatitudeDegrees>
              <LongitudeDegrees>-4.43358513526618480682373046875</LongitudeDegrees>
            </Position>
            <AltitudeMeters>1.60000002384185791015625</AltitudeMeters>
            <DistanceMeters>258.28910691025</DistanceMeters>
          </Trackpoint>
          <Trackpoint>
            <Time>2021-03-13T08:14:32.000Z</Time>
            <Position>
              <LatitudeDegrees>36.70227301307022571563720703125</LatitudeDegrees>
              <LongitudeDegrees>-4.43355043418705463409423828125</LongitudeDegrees>
            </Position>
            <AltitudeMeters>1.39999997615814208984375</AltitudeMeters>
            <DistanceMeters>264.32161949367</DistanceMeters>
          </Trackpoint>
          <Trackpoint>
            <Time>2021-03-13T08:14:36.000Z</Time>
            <Position>
              <LatitudeDegrees>36.70245758257806301116943359375</LatitudeDegrees>
              <LongitudeDegrees>-4.433414228260517120361328125</LongitudeDegrees>
            </Position>
            <AltitudeMeters>1.39999997615814208984375</AltitudeMeters>
            <DistanceMeters>288.19092285919</DistanceMeters>
          </Trackpoint>
          <Trackpoint>
            <Time>2021-03-13T08:14:39.000Z</Time>
            <Position>
              <LatitudeDegrees>36.7025946266949176788330078125</LatitudeDegrees>
              <LongitudeDegrees>-4.4333091191947460174560546875</LongitudeDegrees>
            </Position>
            <AltitudeMeters>1.39999997615814208984375</AltitudeMeters>
            <DistanceMeters>306.09734501361</DistanceMeters>
          </Trackpoint>
          <Trackpoint>
            <Time>2021-03-13T08:14:43.000Z</Time>
            <Position>
              <LatitudeDegrees>36.702786572277545928955078125</LatitudeDegrees>
              <LongitudeDegrees>-4.43316084332764148712158203125</LongitudeDegrees>
            </Position>
            <AltitudeMeters>1.7999999523162841796875</AltitudeMeters>
            <DistanceMeters>331.22683577406</DistanceMeters>
          </Trackpoint>
          <Trackpoint>
            <Time>2021-03-13T08:14:45.000Z</Time>
            <Position>
              <LatitudeDegrees>36.702888496220111846923828125</LatitudeDegrees>
              <LongitudeDegrees>-4.4330915249884128570556640625</LongitudeDegrees>
            </Position>
            <AltitudeMeters>1.60000002384185791015625</AltitudeMeters>
            <DistanceMeters>344.14802315651</DistanceMeters>
          </Trackpoint>
          <Trackpoint>
            <Time>2021-03-13T08:14:48.000Z</Time>
            <Position>
              <LatitudeDegrees>36.7030395381152629852294921875</LatitudeDegrees>
              <LongitudeDegrees>-4.43298113532364368438720703125</LongitudeDegrees>
            </Position>
            <AltitudeMeters>1.2000000476837158203125</AltitudeMeters>
            <DistanceMeters>363.63290278174</DistanceMeters>
          </Trackpoint>
          <Trackpoint>
            <Time>2021-03-13T08:14:57.000Z</Time>
            <Position>
              <LatitudeDegrees>36.7035163007676601409912109375</LatitudeDegrees>
              <LongitudeDegrees>-4.43261652253568172454833984375</LongitudeDegrees>
            </Position>
            <AltitudeMeters>1.39999997615814208984375</AltitudeMeters>
            <DistanceMeters>425.87822966963</DistanceMeters>
          </Trackpoint>
          <Trackpoint>
            <Time>2021-03-13T08:15:03.000Z</Time>
            <Position>
              <LatitudeDegrees>36.7038215696811676025390625</LatitudeDegrees>
              <LongitudeDegrees>-4.432385601103305816650390625</LongitudeDegrees>
            </Position>
            <AltitudeMeters>1.39999997615814208984375</AltitudeMeters>
            <DistanceMeters>465.61576114311</DistanceMeters>
          </Trackpoint>
          <Trackpoint>
            <Time>2021-03-13T08:15:05.000Z</Time>
            <Position>
              <LatitudeDegrees>36.70392910949885845184326171875</LatitudeDegrees>
              <LongitudeDegrees>-4.43230438046157360076904296875</LongitudeDegrees>
            </Position>
            <AltitudeMeters>1.39999997615814208984375</AltitudeMeters>
            <DistanceMeters>479.60826333028</DistanceMeters>
          </Trackpoint>
          <Trackpoint>
            <Time>2021-03-13T08:15:11.000Z</Time>
            <Position>
              <LatitudeDegrees>36.7042505554854869842529296875</LatitudeDegrees>
              <LongitudeDegrees>-4.43205493502318859100341796875</LongitudeDegrees>
            </Position>
            <AltitudeMeters>1.39999997615814208984375</AltitudeMeters>
            <DistanceMeters>521.74497725642</DistanceMeters>
          </Trackpoint>
          <Trackpoint>
            <Time>2021-03-13T08:15:13.000Z</Time>
            <Position>
              <LatitudeDegrees>36.70436295680701732635498046875</LatitudeDegrees>
              <LongitudeDegrees>-4.43197212181985378265380859375</LongitudeDegrees>
            </Position>
            <AltitudeMeters>1.39999997615814208984375</AltitudeMeters>
            <DistanceMeters>536.27443447639</DistanceMeters>
          </Trackpoint>
          <Trackpoint>
            <Time>2021-03-13T08:15:22.000Z</Time>
            <Position>
              <LatitudeDegrees>36.70487475581467151641845703125</LatitudeDegrees>
              <LongitudeDegrees>-4.431559480726718902587890625</LongitudeDegrees>
            </Position>
            <AltitudeMeters>1.60000002384185791015625</AltitudeMeters>
            <DistanceMeters>604.10327574341</DistanceMeters>
          </Trackpoint>
          <Trackpoint>
            <Time>2021-03-13T08:15:24.000Z</Time>
            <Position>
              <LatitudeDegrees>36.70499562285840511322021484375</LatitudeDegrees>
              <LongitudeDegrees>-4.431467950344085693359375</LongitudeDegrees>
            </Position>
            <AltitudeMeters>1.60000002384185791015625</AltitudeMeters>
            <DistanceMeters>619.8410308789</DistanceMeters>
          </Trackpoint>
          <Trackpoint>
            <Time>2021-03-13T08:15:29.000Z</Time>
            <Position>
              <LatitudeDegrees>36.7052982933819293975830078125</LatitudeDegrees>
              <LongitudeDegrees>-4.4312280602753162384033203125</LongitudeDegrees>
            </Position>
            <AltitudeMeters>1.7999999523162841796875</AltitudeMeters>
            <DistanceMeters>659.75462651152</DistanceMeters>
          </Trackpoint>
          <Trackpoint>
            <Time>2021-03-13T08:15:34.000Z</Time>
            <Position>
              <LatitudeDegrees>36.7056033946573734283447265625</LatitudeDegrees>
              <LongitudeDegrees>-4.43098154850304126739501953125</LongitudeDegrees>
            </Position>
            <AltitudeMeters>1.39999997615814208984375</AltitudeMeters>
            <DistanceMeters>700.21503306382</DistanceMeters>
          </Trackpoint>
          <Trackpoint>
            <Time>2021-03-13T08:15:40.000Z</Time>
            <Position>
              <LatitudeDegrees>36.7059554345905780792236328125</LatitudeDegrees>
              <LongitudeDegrees>-4.4306914508342742919921875</LongitudeDegrees>
            </Position>
            <AltitudeMeters>1.39999997615814208984375</AltitudeMeters>
            <DistanceMeters>747.17650077524</DistanceMeters>
          </Trackpoint>
          <Trackpoint>
            <Time>2021-03-13T08:15:42.000Z</Time>
            <Position>
              <LatitudeDegrees>36.70609130524098873138427734375</LatitudeDegrees>
              <LongitudeDegrees>-4.43057619966566562652587890625</LongitudeDegrees>
            </Position>
            <AltitudeMeters>1.2000000476837158203125</AltitudeMeters>
            <DistanceMeters>765.46463822364</DistanceMeters>
          </Trackpoint>
          <Trackpoint>
            <Time>2021-03-13T08:15:47.000Z</Time>
            <Position>
              <LatitudeDegrees>36.70639104209840297698974609375</LatitudeDegrees>
              <LongitudeDegrees>-4.43031636066734790802001953125</LongitudeDegrees>
            </Position>
            <AltitudeMeters>1.2000000476837158203125</AltitudeMeters>
            <DistanceMeters>806.09164270018</DistanceMeters>
          </Trackpoint>
          <Trackpoint>
            <Time>2021-03-13T08:15:52.000Z</Time>
            <Position>
              <LatitudeDegrees>36.70668289996683597564697265625</LatitudeDegrees>
              <LongitudeDegrees>-4.4300676696002483367919921875</LongitudeDegrees>
            </Position>
            <AltitudeMeters>1</AltitudeMeters>
            <DistanceMeters>845.43224338049</DistanceMeters>
          </Trackpoint>
          <Trackpoint>
            <Time>2021-03-13T08:16:00.000Z</Time>
            <Position>
              <LatitudeDegrees>36.7071423120796680450439453125</LatitudeDegrees>
              <LongitudeDegrees>-4.429660141468048095703125</LongitudeDegrees>
            </Position>
            <AltitudeMeters>1.60000002384185791015625</AltitudeMeters>
            <DistanceMeters>908.17765682662</DistanceMeters>
          </Trackpoint>
          <Trackpoint>
            <Time>2021-03-13T08:16:01.000Z</Time>
            <Position>
              <LatitudeDegrees>36.70719989575445652008056640625</LatitudeDegrees>
              <LongitudeDegrees>-4.42960850894451141357421875</LongitudeDegrees>
            </Position>
            <AltitudeMeters>1.60000002384185791015625</AltitudeMeters>
            <DistanceMeters>916.07116855862</DistanceMeters>
          </Trackpoint>
          <Trackpoint>
            <Time>2021-03-13T08:16:10.000Z</Time>
            <Position>
              <LatitudeDegrees>36.7077045701444149017333984375</LatitudeDegrees>
              <LongitudeDegrees>-4.42917558364570140838623046875</LongitudeDegrees>
            </Position>
            <AltitudeMeters>2</AltitudeMeters>
            <DistanceMeters>984.24381295103</DistanceMeters>
          </Trackpoint>
          <Trackpoint>
            <Time>2021-03-13T08:16:13.000Z</Time>
            <Position>
              <LatitudeDegrees>36.7078649997711181640625</LatitudeDegrees>
              <LongitudeDegrees>-4.42903895862400531768798828125</LongitudeDegrees>
            </Position>
            <AltitudeMeters>2.2000000476837158203125</AltitudeMeters>
            <DistanceMeters>1005.8648443175</DistanceMeters>
          </Trackpoint>
          <Trackpoint>
            <Time>2021-03-13T08:16:16.000Z</Time>
            <Position>
              <LatitudeDegrees>36.708012521266937255859375</LatitudeDegrees>
              <LongitudeDegrees>-4.42889965139329433441162109375</LongitudeDegrees>
            </Position>
            <AltitudeMeters>2.2000000476837158203125</AltitudeMeters>
            <DistanceMeters>1026.4589114327</DistanceMeters>
          </Trackpoint>
          <Trackpoint>
            <Time>2021-03-13T08:16:18.000Z</Time>
            <Position>
              <LatitudeDegrees>36.7080911435186862945556640625</LatitudeDegrees>
              <LongitudeDegrees>-4.4288254715502262115478515625</LongitudeDegrees>
            </Position>
            <AltitudeMeters>2.599999904632568359375</AltitudeMeters>
            <DistanceMeters>1037.4311026063</DistanceMeters>
          </Trackpoint>
          <Trackpoint>
            <Time>2021-03-13T08:16:23.000Z</Time>
            <Position>
              <LatitudeDegrees>36.708273030817508697509765625</LatitudeDegrees>
              <LongitudeDegrees>-4.4286678917706012725830078125</LongitudeDegrees>
            </Position>
            <AltitudeMeters>2.400000095367431640625</AltitudeMeters>
            <DistanceMeters>1062.0795009955</DistanceMeters>
          </Trackpoint>
          <Trackpoint>
            <Time>2021-03-13T08:16:26.000Z</Time>
            <Position>
              <LatitudeDegrees>36.70834469608962535858154296875</LatitudeDegrees>
              <LongitudeDegrees>-4.42860796116292476654052734375</LongitudeDegrees>
            </Position>
            <AltitudeMeters>2.400000095367431640625</AltitudeMeters>
            <DistanceMeters>1071.6823724747</DistanceMeters>
          </Trackpoint>
          <Trackpoint>
            <Time>2021-03-13T08:16:28.000Z</Time>
            <Position>
              <LatitudeDegrees>36.708371937274932861328125</LatitudeDegrees>
              <LongitudeDegrees>-4.4285834021866321563720703125</LongitudeDegrees>
            </Position>
            <AltitudeMeters>2.2000000476837158203125</AltitudeMeters>
            <DistanceMeters>1075.4247846065</DistanceMeters>
          </Trackpoint>
          <Trackpoint>
            <Time>2021-03-13T08:16:32.000Z</Time>
            <Position>
              <LatitudeDegrees>36.70838895253837108612060546875</LatitudeDegrees>
              <LongitudeDegrees>-4.42857476882636547088623046875</LongitudeDegrees>
            </Position>
            <AltitudeMeters>2.400000095367431640625</AltitudeMeters>
            <DistanceMeters>1077.4717226783</DistanceMeters>
          </Trackpoint>
          <Trackpoint>
            <Time>2021-03-13T08:16:34.000Z</Time>
            <Position>
              <LatitudeDegrees>36.70838895253837108612060546875</LatitudeDegrees>
              <LongitudeDegrees>-4.42857476882636547088623046875</LongitudeDegrees>
            </Position>
            <AltitudeMeters>2.400000095367431640625</AltitudeMeters>
            <DistanceMeters>1077.4717226783</DistanceMeters>
          </Trackpoint>
          <Trackpoint>
            <Time>2021-03-13T08:16:36.000Z</Time>
            <Position>
              <LatitudeDegrees>36.70838895253837108612060546875</LatitudeDegrees>
              <LongitudeDegrees>-4.42857476882636547088623046875</LongitudeDegrees>
            </Position>
            <AltitudeMeters>2.400000095367431640625</AltitudeMeters>
            <DistanceMeters>1077.4717226783</DistanceMeters>
          </Trackpoint>
          <Trackpoint>
            <Time>2021-03-13T08:16:38.000Z</Time>
            <Position>
              <LatitudeDegrees>36.70838895253837108612060546875</LatitudeDegrees>
              <LongitudeDegrees>-4.42857476882636547088623046875</LongitudeDegrees>
            </Position>
            <AltitudeMeters>2.400000095367431640625</AltitudeMeters>
            <DistanceMeters>1077.4717226783</DistanceMeters>
          </Trackpoint>
          <Trackpoint>
            <Time>2021-03-13T08:16:45.000Z</Time>
            <Position>
              <LatitudeDegrees>36.70838895253837108612060546875</LatitudeDegrees>
              <LongitudeDegrees>-4.42857476882636547088623046875</LongitudeDegrees>
            </Position>
            <AltitudeMeters>2.7999999523162841796875</AltitudeMeters>
            <DistanceMeters>1077.4717226783</DistanceMeters>
          </Trackpoint>
          <Trackpoint>
            <Time>2021-03-13T08:16:53.000Z</Time>
            <Position>
              <LatitudeDegrees>36.708447039127349853515625</LatitudeDegrees>
              <LongitudeDegrees>-4.42852430976927280426025390625</LongitudeDegrees>
            </Position>
            <AltitudeMeters>2.7999999523162841796875</AltitudeMeters>
            <DistanceMeters>1085.3497754453</DistanceMeters>
          </Trackpoint>
          <Trackpoint>
            <Time>2021-03-13T08:16:58.000Z</Time>
            <Position>
              <LatitudeDegrees>36.7085933871567249298095703125</LatitudeDegrees>
              <LongitudeDegrees>-4.428385756909847259521484375</LongitudeDegrees>
            </Position>
            <AltitudeMeters>2.7999999523162841796875</AltitudeMeters>
            <DistanceMeters>1105.7988531743</DistanceMeters>
          </Trackpoint>
          <Trackpoint>
            <Time>2021-03-13T08:17:00.000Z</Time>
            <Position>
              <LatitudeDegrees>36.70867695473134517669677734375</LatitudeDegrees>
              <LongitudeDegrees>-4.4283123314380645751953125</LongitudeDegrees>
            </Position>
            <AltitudeMeters>2.599999904632568359375</AltitudeMeters>
            <DistanceMeters>1117.1758965401</DistanceMeters>
          </Trackpoint>
          <Trackpoint>
            <Time>2021-03-13T08:17:02.000Z</Time>
            <Position>
              <LatitudeDegrees>36.70877158641815185546875</LatitudeDegrees>
              <LongitudeDegrees>-4.42823194898664951324462890625</LongitudeDegrees>
            </Position>
            <AltitudeMeters>2.599999904632568359375</AltitudeMeters>
            <DistanceMeters>1129.9186919405</DistanceMeters>
          </Trackpoint>
          <Trackpoint>
            <Time>2021-03-13T08:17:11.000Z</Time>
            <Position>
              <LatitudeDegrees>36.7092109657824039459228515625</LatitudeDegrees>
              <LongitudeDegrees>-4.427813105285167694091796875</LongitudeDegrees>
            </Position>
            <AltitudeMeters>2</AltitudeMeters>
            <DistanceMeters>1191.467987062</DistanceMeters>
          </Trackpoint>
          <Trackpoint>
            <Time>2021-03-13T08:17:19.000Z</Time>
            <Position>
              <LatitudeDegrees>36.70963433571159839630126953125</LatitudeDegrees>
              <LongitudeDegrees>-4.427437596023082733154296875</LongitudeDegrees>
            </Position>
            <AltitudeMeters>2</AltitudeMeters>
            <DistanceMeters>1249.2877408766</DistanceMeters>
          </Trackpoint>
          <Trackpoint>
            <Time>2021-03-13T08:17:27.000Z</Time>
            <Position>
              <LatitudeDegrees>36.71008394099771976470947265625</LatitudeDegrees>
              <LongitudeDegrees>-4.42704758606851100921630859375</LongitudeDegrees>
            </Position>
            <AltitudeMeters>2</AltitudeMeters>
            <DistanceMeters>1310.2403970222</DistanceMeters>
          </Trackpoint>
          <Trackpoint>
            <Time>2021-03-13T08:17:28.000Z</Time>
            <Position>
              <LatitudeDegrees>36.71013758517801761627197265625</LatitudeDegrees>
              <LongitudeDegrees>-4.42699947394430637359619140625</LongitudeDegrees>
            </Position>
            <AltitudeMeters>2</AltitudeMeters>
            <DistanceMeters>1317.5937702445</DistanceMeters>
          </Trackpoint>
          <Trackpoint>
            <Time>2021-03-13T08:17:35.000Z</Time>
            <Position>
              <LatitudeDegrees>36.71046582050621509552001953125</LatitudeDegrees>
              <LongitudeDegrees>-4.42667492665350437164306640625</LongitudeDegrees>
            </Position>
            <AltitudeMeters>2.2000000476837158203125</AltitudeMeters>
            <DistanceMeters>1364.2120981615</DistanceMeters>
          </Trackpoint>
          <Trackpoint>
            <Time>2021-03-13T08:17:44.000Z</Time>
            <Position>
              <LatitudeDegrees>36.7108565010130405426025390625</LatitudeDegrees>
              <LongitudeDegrees>-4.4262736849486827850341796875</LongitudeDegrees>
            </Position>
            <AltitudeMeters>3.2000000476837158203125</AltitudeMeters>
            <DistanceMeters>1420.5376150016</DistanceMeters>
          </Trackpoint>
          <Trackpoint>
            <Time>2021-03-13T08:17:46.000Z</Time>
            <Position>
              <LatitudeDegrees>36.7109500430524349212646484375</LatitudeDegrees>
              <LongitudeDegrees>-4.42618592642247676849365234375</LongitudeDegrees>
            </Position>
            <AltitudeMeters>4.599999904632568359375</AltitudeMeters>
            <DistanceMeters>1433.5649423057</DistanceMeters>
          </Trackpoint>
          <Trackpoint>
            <Time>2021-03-13T08:17:49.000Z</Time>
            <Position>
              <LatitudeDegrees>36.7110844887793064117431640625</LatitudeDegrees>
              <LongitudeDegrees>-4.4260517321527004241943359375</LongitudeDegrees>
            </Position>
            <AltitudeMeters>5.80000019073486328125</AltitudeMeters>
            <DistanceMeters>1452.7297363114</DistanceMeters>
          </Trackpoint>
          <Trackpoint>
            <Time>2021-03-13T08:17:50.000Z</Time>
            <Position>
              <LatitudeDegrees>36.71113184653222560882568359375</LatitudeDegrees>
              <LongitudeDegrees>-4.426001943647861480712890625</LongitudeDegrees>
            </Position>
            <AltitudeMeters>6</AltitudeMeters>
            <DistanceMeters>1459.6235953414</DistanceMeters>
          </Trackpoint>
          <Trackpoint>
            <Time>2021-03-13T08:17:53.000Z</Time>
            <Position>
              <LatitudeDegrees>36.7112789489328861236572265625</LatitudeDegrees>
              <LongitudeDegrees>-4.4258465431630611419677734375</LongitudeDegrees>
            </Position>
            <AltitudeMeters>6.19999980926513671875</AltitudeMeters>
            <DistanceMeters>1481.0788093203</DistanceMeters>
          </Trackpoint>
          <Trackpoint>
            <Time>2021-03-13T08:18:00.000Z</Time>
            <Position>
              <LatitudeDegrees>36.71165554784238338470458984375</LatitudeDegrees>
              <LongitudeDegrees>-4.42546290345489978790283203125</LongitudeDegrees>
            </Position>
            <AltitudeMeters>4.599999904632568359375</AltitudeMeters>
            <DistanceMeters>1535.1963354365</DistanceMeters>
          </Trackpoint>
          <Trackpoint>
            <Time>2021-03-13T08:18:01.000Z</Time>
            <Position>
              <LatitudeDegrees>36.711711622774600982666015625</LatitudeDegrees>
              <LongitudeDegrees>-4.42540280520915985107421875</LongitudeDegrees>
            </Position>
            <AltitudeMeters>4.599999904632568359375</AltitudeMeters>
            <DistanceMeters>1543.4242442291</DistanceMeters>
          </Trackpoint>
          <Trackpoint>
            <Time>2021-03-13T08:18:07.000Z</Time>
            <Position>
              <LatitudeDegrees>36.71206005848944187164306640625</LatitudeDegrees>
              <LongitudeDegrees>-4.42503777332603931427001953125</LongitudeDegrees>
            </Position>
            <AltitudeMeters>3.400000095367431640625</AltitudeMeters>
            <DistanceMeters>1594.0684015678</DistanceMeters>
          </Trackpoint>
          <Trackpoint>
            <Time>2021-03-13T08:18:09.000Z</Time>
            <Position>
              <LatitudeDegrees>36.7121590487658977508544921875</LatitudeDegrees>
              <LongitudeDegrees>-4.4249322451651096343994140625</LongitudeDegrees>
            </Position>
            <AltitudeMeters>3.400000095367431640625</AltitudeMeters>
            <DistanceMeters>1608.5611438234</DistanceMeters>
          </Trackpoint>
          <Trackpoint>
            <Time>2021-03-13T08:18:11.000Z</Time>
            <Position>
              <LatitudeDegrees>36.7122732102870941162109375</LatitudeDegrees>
              <LongitudeDegrees>-4.4248155690729618072509765625</LongitudeDegrees>
            </Position>
            <AltitudeMeters>3.400000095367431640625</AltitudeMeters>
            <DistanceMeters>1624.9875772227</DistanceMeters>
          </Trackpoint>
          <Trackpoint>
            <Time>2021-03-13T08:18:14.000Z</Time>
            <Position>
              <LatitudeDegrees>36.712449900805950164794921875</LatitudeDegrees>
              <LongitudeDegrees>-4.424637369811534881591796875</LongitudeDegrees>
            </Position>
            <AltitudeMeters>3.2000000476837158203125</AltitudeMeters>
            <DistanceMeters>1650.2768266</DistanceMeters>
          </Trackpoint>
          <Trackpoint>
            <Time>2021-03-13T08:18:15.000Z</Time>
            <Position>
              <LatitudeDegrees>36.71250178478658199310302734375</LatitudeDegrees>
              <LongitudeDegrees>-4.42458607256412506103515625</LongitudeDegrees>
            </Position>
            <AltitudeMeters>3</AltitudeMeters>
            <DistanceMeters>1657.6449213049</DistanceMeters>
          </Trackpoint>
          <Trackpoint>
            <Time>2021-03-13T08:18:20.000Z</Time>
            <Position>
              <LatitudeDegrees>36.71271988190710544586181640625</LatitudeDegrees>
              <LongitudeDegrees>-4.4243706576526165008544921875</LongitudeDegrees>
            </Position>
            <AltitudeMeters>2.7999999523162841796875</AltitudeMeters>
            <DistanceMeters>1688.6075939246</DistanceMeters>
          </Trackpoint>
          <Trackpoint>
            <Time>2021-03-13T08:18:21.000Z</Time>
            <Position>
              <LatitudeDegrees>36.71275131404399871826171875</LatitudeDegrees>
              <LongitudeDegrees>-4.42433905787765979766845703125</LongitudeDegrees>
            </Position>
            <AltitudeMeters>2.7999999523162841796875</AltitudeMeters>
            <DistanceMeters>1693.1010615086</DistanceMeters>
          </Trackpoint>
          <Trackpoint>
            <Time>2021-03-13T08:18:25.000Z</Time>
            <Position>
              <LatitudeDegrees>36.71284921467304229736328125</LatitudeDegrees>
              <LongitudeDegrees>-4.42424434237182140350341796875</LongitudeDegrees>
            </Position>
            <AltitudeMeters>2.7999999523162841796875</AltitudeMeters>
            <DistanceMeters>1706.8907442372</DistanceMeters>
          </Trackpoint>
          <Trackpoint>
            <Time>2021-03-13T08:18:26.000Z</Time>
            <Position>
              <LatitudeDegrees>36.71286723576486110687255859375</LatitudeDegrees>
              <LongitudeDegrees>-4.42422472871840000152587890625</LongitudeDegrees>
            </Position>
            <AltitudeMeters>2.7999999523162841796875</AltitudeMeters>
            <DistanceMeters>1709.5514922396</DistanceMeters>
          </Trackpoint>
          <Trackpoint>
            <Time>2021-03-13T08:18:30.000Z</Time>
            <Position>
              <LatitudeDegrees>36.71290109865367412567138671875</LatitudeDegrees>
              <LongitudeDegrees>-4.42417594604194164276123046875</LongitudeDegrees>
            </Position>
            <AltitudeMeters>2.2000000476837158203125</AltitudeMeters>
            <DistanceMeters>1715.3090447253</DistanceMeters>
          </Trackpoint>
          <Trackpoint>
            <Time>2021-03-13T08:18:31.000Z</Time>
            <Position>
              <LatitudeDegrees>36.71290017664432525634765625</LatitudeDegrees>
              <LongitudeDegrees>-4.4241738505661487579345703125</LongitudeDegrees>
            </Position>
            <AltitudeMeters>2</AltitudeMeters>
            <DistanceMeters>1715.5215309183</DistanceMeters>
          </Trackpoint>
          <Trackpoint>
            <Time>2021-03-13T08:18:39.000Z</Time>
            <Position>
              <LatitudeDegrees>36.71289824880659580230712890625</LatitudeDegrees>
              <LongitudeDegrees>-4.424170665442943572998046875</LongitudeDegrees>
            </Position>
            <AltitudeMeters>2</AltitudeMeters>
            <DistanceMeters>1715.8770883261</DistanceMeters>
          </Trackpoint>
          <Trackpoint>
            <Time>2021-03-13T08:18:53.000Z</Time>
            <Position>
              <LatitudeDegrees>36.71289824880659580230712890625</LatitudeDegrees>
              <LongitudeDegrees>-4.424170665442943572998046875</LongitudeDegrees>
            </Position>
            <AltitudeMeters>2.2000000476837158203125</AltitudeMeters>
            <DistanceMeters>1715.8770883261</DistanceMeters>
          </Trackpoint>
          <Trackpoint>
            <Time>2021-03-13T08:18:57.000Z</Time>
            <Position>
              <LatitudeDegrees>36.71289824880659580230712890625</LatitudeDegrees>
              <LongitudeDegrees>-4.424170665442943572998046875</LongitudeDegrees>
            </Position>
            <AltitudeMeters>2</AltitudeMeters>
            <DistanceMeters>1715.8770883261</DistanceMeters>
          </Trackpoint>
          <Trackpoint>
            <Time>2021-03-13T08:19:03.000Z</Time>
            <Position>
              <LatitudeDegrees>36.71289824880659580230712890625</LatitudeDegrees>
              <LongitudeDegrees>-4.424170665442943572998046875</LongitudeDegrees>
            </Position>
            <AltitudeMeters>2</AltitudeMeters>
            <DistanceMeters>1715.8770883261</DistanceMeters>
          </Trackpoint>
          <Trackpoint>
            <Time>2021-03-13T08:19:09.000Z</Time>
            <Position>
              <LatitudeDegrees>36.71289875172078609466552734375</LatitudeDegrees>
              <LongitudeDegrees>-4.424169994890689849853515625</LongitudeDegrees>
            </Position>
            <AltitudeMeters>2</AltitudeMeters>
            <DistanceMeters>1716.0114763943</DistanceMeters>
          </Trackpoint>
          <Trackpoint>
            <Time>2021-03-13T08:19:13.000Z</Time>
            <Position>
              <LatitudeDegrees>36.71289875172078609466552734375</LatitudeDegrees>
              <LongitudeDegrees>-4.424169994890689849853515625</LongitudeDegrees>
            </Position>
            <AltitudeMeters>2</AltitudeMeters>
            <DistanceMeters>1716.0114763943</DistanceMeters>
          </Trackpoint>
          <Trackpoint>
            <Time>2021-03-13T08:19:24.000Z</Time>
            <Position>
              <LatitudeDegrees>36.71292607672512531280517578125</LatitudeDegrees>
              <LongitudeDegrees>-4.42414443008601665496826171875</LongitudeDegrees>
            </Position>
            <AltitudeMeters>2</AltitudeMeters>
            <DistanceMeters>1719.8125449691</DistanceMeters>
          </Trackpoint>
          <Trackpoint>
            <Time>2021-03-13T08:19:26.000Z</Time>
            <Position>
              <LatitudeDegrees>36.7129844985902309417724609375</LatitudeDegrees>
              <LongitudeDegrees>-4.42409531213343143463134765625</LongitudeDegrees>
            </Position>
            <AltitudeMeters>2</AltitudeMeters>
            <DistanceMeters>1727.6544083053</DistanceMeters>
          </Trackpoint>
          <Trackpoint>
            <Time>2021-03-13T08:19:28.000Z</Time>
            <Position>
              <LatitudeDegrees>36.71307678334414958953857421875</LatitudeDegrees>
              <LongitudeDegrees>-4.4239961542189121246337890625</LongitudeDegrees>
            </Position>
            <AltitudeMeters>2</AltitudeMeters>
            <DistanceMeters>1741.2109608091</DistanceMeters>
          </Trackpoint>
          <Trackpoint>
            <Time>2021-03-13T08:19:29.000Z</Time>
            <Position>
              <LatitudeDegrees>36.7131253145635128021240234375</LatitudeDegrees>
              <LongitudeDegrees>-4.42394795827567577362060546875</LongitudeDegrees>
            </Position>
            <AltitudeMeters>2</AltitudeMeters>
            <DistanceMeters>1748.1152908669</DistanceMeters>
          </Trackpoint>
          <Trackpoint>
            <Time>2021-03-13T08:19:34.000Z</Time>
            <Position>
              <LatitudeDegrees>36.71337668783962726593017578125</LatitudeDegrees>
              <LongitudeDegrees>-4.4237289391458034515380859375</LongitudeDegrees>
            </Position>
            <AltitudeMeters>1.60000002384185791015625</AltitudeMeters>
            <DistanceMeters>1782.2424521822</DistanceMeters>
          </Trackpoint>
          <Trackpoint>
            <Time>2021-03-13T08:19:35.000Z</Time>
            <Position>
              <LatitudeDegrees>36.71343100257217884063720703125</LatitudeDegrees>
              <LongitudeDegrees>-4.42368761636316776275634765625</LongitudeDegrees>
            </Position>
            <AltitudeMeters>1.60000002384185791015625</AltitudeMeters>
            <DistanceMeters>1789.3243336109</DistanceMeters>
          </Trackpoint>
          <Trackpoint>
            <Time>2021-03-13T08:19:42.000Z</Time>
            <Position>
              <LatitudeDegrees>36.71381657011806964874267578125</LatitudeDegrees>
              <LongitudeDegrees>-4.42332736216485500335693359375</LongitudeDegrees>
            </Position>
            <AltitudeMeters>1.39999997615814208984375</AltitudeMeters>
            <DistanceMeters>1842.9418046149</DistanceMeters>
          </Trackpoint>
          <Trackpoint>
            <Time>2021-03-13T08:19:48.000Z</Time>
            <Position>
              <LatitudeDegrees>36.71414698474109172821044921875</LatitudeDegrees>
              <LongitudeDegrees>-4.42300130613148212432861328125</LongitudeDegrees>
            </Position>
            <AltitudeMeters>1.2000000476837158203125</AltitudeMeters>
            <DistanceMeters>1889.8330350723</DistanceMeters>
          </Trackpoint>
          <Trackpoint>
            <Time>2021-03-13T08:19:50.000Z</Time>
            <Position>
              <LatitudeDegrees>36.714262403547763824462890625</LatitudeDegrees>
              <LongitudeDegrees>-4.42288597114384174346923828125</LongitudeDegrees>
            </Position>
            <AltitudeMeters>1.2000000476837158203125</AltitudeMeters>
            <DistanceMeters>1906.2926934366</DistanceMeters>
          </Trackpoint>
          <Trackpoint>
            <Time>2021-03-13T08:19:54.000Z</Time>
            <Position>
              <LatitudeDegrees>36.714502461254596710205078125</LatitudeDegrees>
              <LongitudeDegrees>-4.4226515293121337890625</LongitudeDegrees>
            </Position>
            <AltitudeMeters>1.2000000476837158203125</AltitudeMeters>
            <DistanceMeters>1940.2256141409</DistanceMeters>
          </Trackpoint>
          <Trackpoint>
            <Time>2021-03-13T08:19:58.000Z</Time>
            <Position>
              <LatitudeDegrees>36.714745201170444488525390625</LatitudeDegrees>
              <LongitudeDegrees>-4.4224186800420284271240234375</LongitudeDegrees>
            </Position>
            <AltitudeMeters>1.2000000476837158203125</AltitudeMeters>
            <DistanceMeters>1974.3072337201</DistanceMeters>
          </Trackpoint>
          <Trackpoint>
            <Time>2021-03-13T08:20:05.000Z</Time>
            <Position>
              <LatitudeDegrees>36.7151540704071521759033203125</LatitudeDegrees>
              <LongitudeDegrees>-4.4220099784433841705322265625</LongitudeDegrees>
            </Position>
            <AltitudeMeters>1.39999997615814208984375</AltitudeMeters>
            <DistanceMeters>2032.622597377</DistanceMeters>
          </Trackpoint>
          <Trackpoint>
            <Time>2021-03-13T08:20:06.000Z</Time>
            <Position>
              <LatitudeDegrees>36.71521165408194065093994140625</LatitudeDegrees>
              <LongitudeDegrees>-4.421946108341217041015625</LongitudeDegrees>
            </Position>
            <AltitudeMeters>1.2000000476837158203125</AltitudeMeters>
            <DistanceMeters>2041.1981989629</DistanceMeters>
          </Trackpoint>
          <Trackpoint>
            <Time>2021-03-13T08:20:07.000Z</Time>
            <Position>
              <LatitudeDegrees>36.71528558246791362762451171875</LatitudeDegrees>
              <LongitudeDegrees>-4.421872682869434356689453125</LongitudeDegrees>
            </Position>
            <AltitudeMeters>1.2000000476837158203125</AltitudeMeters>
            <DistanceMeters>2051.7157289219</DistanceMeters>
          </Trackpoint>
          <Trackpoint>
            <Time>2021-03-13T08:20:11.000Z</Time>
            <Position>
              <LatitudeDegrees>36.71553117223083972930908203125</LatitudeDegrees>
              <LongitudeDegrees>-4.42165517248213291168212890625</LongitudeDegrees>
            </Position>
            <AltitudeMeters>1.2000000476837158203125</AltitudeMeters>
            <DistanceMeters>2085.2387510627</DistanceMeters>
          </Trackpoint>
          <Trackpoint>
            <Time>2021-03-13T08:20:17.000Z</Time>
            <Position>
              <LatitudeDegrees>36.71587751246988773345947265625</LatitudeDegrees>
              <LongitudeDegrees>-4.4213075749576091766357421875</LongitudeDegrees>
            </Position>
            <AltitudeMeters>1.2000000476837158203125</AltitudeMeters>
            <DistanceMeters>2134.7138237931</DistanceMeters>
          </Trackpoint>
          <Trackpoint>
            <Time>2021-03-13T08:20:21.000Z</Time>
            <Position>
              <LatitudeDegrees>36.7160435579717159271240234375</LatitudeDegrees>
              <LongitudeDegrees>-4.421141445636749267578125</LongitudeDegrees>
            </Position>
            <AltitudeMeters>1.39999997615814208984375</AltitudeMeters>
            <DistanceMeters>2158.4046526367</DistanceMeters>
          </Trackpoint>
          <Trackpoint>
            <Time>2021-03-13T08:20:25.000Z</Time>
            <Position>
              <LatitudeDegrees>36.71612846665084362030029296875</LatitudeDegrees>
              <LongitudeDegrees>-4.4210591353476047515869140625</LongitudeDegrees>
            </Position>
            <AltitudeMeters>1.7999999523162841796875</AltitudeMeters>
            <DistanceMeters>2170.372738221</DistanceMeters>
          </Trackpoint>
          <Trackpoint>
            <Time>2021-03-13T08:20:30.000Z</Time>
            <Position>
              <LatitudeDegrees>36.7161870561540126800537109375</LatitudeDegrees>
              <LongitudeDegrees>-4.421013705432415008544921875</LongitudeDegrees>
            </Position>
            <AltitudeMeters>2</AltitudeMeters>
            <DistanceMeters>2178.0505203895</DistanceMeters>
          </Trackpoint>
          <Trackpoint>
            <Time>2021-03-13T08:20:36.000Z</Time>
            <Position>
              <LatitudeDegrees>36.71618982218205928802490234375</LatitudeDegrees>
              <LongitudeDegrees>-4.42100976593792438507080078125</LongitudeDegrees>
            </Position>
            <AltitudeMeters>1.7999999523162841796875</AltitudeMeters>
            <DistanceMeters>2178.5160543138</DistanceMeters>
          </Trackpoint>
          <Trackpoint>
            <Time>2021-03-13T08:20:38.000Z</Time>
            <Position>
              <LatitudeDegrees>36.71618982218205928802490234375</LatitudeDegrees>
              <LongitudeDegrees>-4.42100976593792438507080078125</LongitudeDegrees>
            </Position>
            <AltitudeMeters>1.7999999523162841796875</AltitudeMeters>
            <DistanceMeters>2178.650442382</DistanceMeters>
          </Trackpoint>
          <Trackpoint>
            <Time>2021-03-13T08:20:43.000Z</Time>
            <Position>
              <LatitudeDegrees>36.71618982218205928802490234375</LatitudeDegrees>
              <LongitudeDegrees>-4.42100976593792438507080078125</LongitudeDegrees>
            </Position>
            <AltitudeMeters>1.60000002384185791015625</AltitudeMeters>
            <DistanceMeters>2178.7848304503</DistanceMeters>
          </Trackpoint>
          <Trackpoint>
            <Time>2021-03-13T08:20:52.000Z</Time>
            <Position>
              <LatitudeDegrees>36.716224439442157745361328125</LatitudeDegrees>
              <LongitudeDegrees>-4.4209800101816654205322265625</LongitudeDegrees>
            </Position>
            <AltitudeMeters>1.60000002384185791015625</AltitudeMeters>
            <DistanceMeters>2183.4653181869</DistanceMeters>
          </Trackpoint>
          <Trackpoint>
            <Time>2021-03-13T08:20:53.000Z</Time>
            <Position>
              <LatitudeDegrees>36.7162484116852283477783203125</LatitudeDegrees>
              <LongitudeDegrees>-4.4209592230618000030517578125</LongitudeDegrees>
            </Position>
            <AltitudeMeters>1.60000002384185791015625</AltitudeMeters>
            <DistanceMeters>2186.7143425579</DistanceMeters>
          </Trackpoint>
          <Trackpoint>
            <Time>2021-03-13T08:20:55.000Z</Time>
            <Position>
              <LatitudeDegrees>36.7162987031042575836181640625</LatitudeDegrees>
              <LongitudeDegrees>-4.42090733908116817474365234375</LongitudeDegrees>
            </Position>
            <AltitudeMeters>1.60000002384185791015625</AltitudeMeters>
            <DistanceMeters>2193.9775172484</DistanceMeters>
          </Trackpoint>
          <Trackpoint>
            <Time>2021-03-13T08:20:58.000Z</Time>
            <Position>
              <LatitudeDegrees>36.716402471065521240234375</LatitudeDegrees>
              <LongitudeDegrees>-4.42080792970955371856689453125</LongitudeDegrees>
            </Position>
            <AltitudeMeters>1.60000002384185791015625</AltitudeMeters>
            <DistanceMeters>2208.5392566726</DistanceMeters>
          </Trackpoint>
          <Trackpoint>
            <Time>2021-03-13T08:21:01.000Z</Time>
            <Position>
              <LatitudeDegrees>36.716526187956333160400390625</LatitudeDegrees>
              <LongitudeDegrees>-4.42068069241940975189208984375</LongitudeDegrees>
            </Position>
            <AltitudeMeters>1.60000002384185791015625</AltitudeMeters>
            <DistanceMeters>2226.3850611102</DistanceMeters>
          </Trackpoint>
          <Trackpoint>
            <Time>2021-03-13T08:21:04.000Z</Time>
            <Position>
              <LatitudeDegrees>36.7166666686534881591796875</LatitudeDegrees>
              <LongitudeDegrees>-4.42055295221507549285888671875</LongitudeDegrees>
            </Position>
            <AltitudeMeters>1.60000002384185791015625</AltitudeMeters>
            <DistanceMeters>2245.7336762858</DistanceMeters>
          </Trackpoint>
          <Trackpoint>
            <Time>2021-03-13T08:21:08.000Z</Time>
            <Position>
              <LatitudeDegrees>36.71687663532793521881103515625</LatitudeDegrees>
              <LongitudeDegrees>-4.42035815678536891937255859375</LongitudeDegrees>
            </Position>
            <AltitudeMeters>1.39999997615814208984375</AltitudeMeters>
            <DistanceMeters>2274.8573101646</DistanceMeters>
          </Trackpoint>
          <Trackpoint>
            <Time>2021-03-13T08:21:10.000Z</Time>
            <Position>
              <LatitudeDegrees>36.71698258258402347564697265625</LatitudeDegrees>
              <LongitudeDegrees>-4.42025941796600818634033203125</LongitudeDegrees>
            </Position>
            <AltitudeMeters>1.39999997615814208984375</AltitudeMeters>
            <DistanceMeters>2289.5769451531</DistanceMeters>
          </Trackpoint>
          <Trackpoint>
            <Time>2021-03-13T08:21:15.000Z</Time>
            <Position>
              <LatitudeDegrees>36.7172508873045444488525390625</LatitudeDegrees>
              <LongitudeDegrees>-4.42000217735767364501953125</LongitudeDegrees>
            </Position>
            <AltitudeMeters>1.60000002384185791015625</AltitudeMeters>
            <DistanceMeters>2327.2402652207</DistanceMeters>
          </Trackpoint>
          <Trackpoint>
            <Time>2021-03-13T08:21:19.000Z</Time>
            <Position>
              <LatitudeDegrees>36.71746990643441677093505859375</LatitudeDegrees>
              <LongitudeDegrees>-4.41977611742913722991943359375</LongitudeDegrees>
            </Position>
            <AltitudeMeters>1.39999997615814208984375</AltitudeMeters>
            <DistanceMeters>2358.8793095203</DistanceMeters>
          </Trackpoint>
          <Trackpoint>
            <Time>2021-03-13T08:21:20.000Z</Time>
            <Position>
              <LatitudeDegrees>36.717523299157619476318359375</LatitudeDegrees>
              <LongitudeDegrees>-4.4197113253176212310791015625</LongitudeDegrees>
            </Position>
            <AltitudeMeters>1.39999997615814208984375</AltitudeMeters>
            <DistanceMeters>2367.1689947821</DistanceMeters>
          </Trackpoint>
          <Trackpoint>
            <Time>2021-03-13T08:21:22.000Z</Time>
            <Position>
              <LatitudeDegrees>36.717607118189334869384765625</LatitudeDegrees>
              <LongitudeDegrees>-4.41955785267055034637451171875</LongitudeDegrees>
            </Position>
            <AltitudeMeters>1.39999997615814208984375</AltitudeMeters>
            <DistanceMeters>2383.7380135837</DistanceMeters>
          </Trackpoint>
          <Trackpoint>
            <Time>2021-03-13T08:21:23.000Z</Time>
            <Position>
              <LatitudeDegrees>36.71763871796429157257080078125</LatitudeDegrees>
              <LongitudeDegrees>-4.4194736145436763763427734375</LongitudeDegrees>
            </Position>
            <AltitudeMeters>1.39999997615814208984375</AltitudeMeters>
            <DistanceMeters>2392.0364087877</DistanceMeters>
          </Trackpoint>
          <Trackpoint>
            <Time>2021-03-13T08:21:27.000Z</Time>
            <Position>
              <LatitudeDegrees>36.7177346907556056976318359375</LatitudeDegrees>
              <LongitudeDegrees>-4.41912199370563030242919921875</LongitudeDegrees>
            </Position>
            <AltitudeMeters>1.39999997615814208984375</AltitudeMeters>
            <DistanceMeters>2425.1763538279</DistanceMeters>
          </Trackpoint>
          <Trackpoint>
            <Time>2021-03-13T08:21:30.000Z</Time>
            <Position>
              <LatitudeDegrees>36.7178047634661197662353515625</LatitudeDegrees>
              <LongitudeDegrees>-4.41884740255773067474365234375</LongitudeDegrees>
            </Position>
            <AltitudeMeters>1.39999997615814208984375</AltitudeMeters>
            <DistanceMeters>2450.8864807388</DistanceMeters>
          </Trackpoint>
          <Trackpoint>
            <Time>2021-03-13T08:21:38.000Z</Time>
            <Position>
              <LatitudeDegrees>36.7179898358881473541259765625</LatitudeDegrees>
              <LongitudeDegrees>-4.41816444508731365203857421875</LongitudeDegrees>
            </Position>
            <AltitudeMeters>1.2000000476837158203125</AltitudeMeters>
            <DistanceMeters>2515.206581348</DistanceMeters>
          </Trackpoint>
          <Trackpoint>
            <Time>2021-03-13T08:21:45.000Z</Time>
            <Position>
              <LatitudeDegrees>36.7181467451155185699462890625</LatitudeDegrees>
              <LongitudeDegrees>-4.41757335327565670013427734375</LongitudeDegrees>
            </Position>
            <AltitudeMeters>1.2000000476837158203125</AltitudeMeters>
            <DistanceMeters>2570.7593481146</DistanceMeters>
          </Trackpoint>
          <Trackpoint>
            <Time>2021-03-13T08:21:47.000Z</Time>
            <Position>
              <LatitudeDegrees>36.71819527633488178253173828125</LatitudeDegrees>
              <LongitudeDegrees>-4.41739833913743495941162109375</LongitudeDegrees>
            </Position>
            <AltitudeMeters>1.39999997615814208984375</AltitudeMeters>
            <DistanceMeters>2587.2817039085</DistanceMeters>
          </Trackpoint>
          <Trackpoint>
            <Time>2021-03-13T08:21:55.000Z</Time>
            <Position>
              <LatitudeDegrees>36.71836911700665950775146484375</LatitudeDegrees>
              <LongitudeDegrees>-4.416709430515766143798828125</LongitudeDegrees>
            </Position>
            <AltitudeMeters>1.7999999523162841796875</AltitudeMeters>
            <DistanceMeters>2651.7183652855</DistanceMeters>
          </Trackpoint>
          <Trackpoint>
            <Time>2021-03-13T08:21:58.000Z</Time>
            <Position>
              <LatitudeDegrees>36.71844304539263248443603515625</LatitudeDegrees>
              <LongitudeDegrees>-4.41644414328038692474365234375</LongitudeDegrees>
            </Position>
            <AltitudeMeters>1.60000002384185791015625</AltitudeMeters>
            <DistanceMeters>2676.7762449934</DistanceMeters>
          </Trackpoint>
          <Trackpoint>
            <Time>2021-03-13T08:22:00.000Z</Time>
            <Position>
              <LatitudeDegrees>36.71848545782268047332763671875</LatitudeDegrees>
              <LongitudeDegrees>-4.41626946441829204559326171875</LongitudeDegrees>
            </Position>
            <AltitudeMeters>1.39999997615814208984375</AltitudeMeters>
            <DistanceMeters>2693.0602308316</DistanceMeters>
          </Trackpoint>
          <Trackpoint>
            <Time>2021-03-13T08:22:07.000Z</Time>
            <Position>
              <LatitudeDegrees>36.71864504925906658172607421875</LatitudeDegrees>
              <LongitudeDegrees>-4.415663368999958038330078125</LongitudeDegrees>
            </Position>
            <AltitudeMeters>1.39999997615814208984375</AltitudeMeters>
            <DistanceMeters>2749.9773458713</DistanceMeters>
          </Trackpoint>
          <Trackpoint>
            <Time>2021-03-13T08:22:14.000Z</Time>
            <Position>
              <LatitudeDegrees>36.71882442198693752288818359375</LatitudeDegrees>
              <LongitudeDegrees>-4.41505626775324344635009765625</LongitudeDegrees>
            </Position>
            <AltitudeMeters>1.39999997615814208984375</AltitudeMeters>
            <DistanceMeters>2807.7035524821</DistanceMeters>
          </Trackpoint>
          <Trackpoint>
            <Time>2021-03-13T08:22:19.000Z</Time>
            <Position>
              <LatitudeDegrees>36.71895450912415981292724609375</LatitudeDegrees>
              <LongitudeDegrees>-4.4145953468978404998779296875</LongitudeDegrees>
            </Position>
            <AltitudeMeters>1.60000002384185791015625</AltitudeMeters>
            <DistanceMeters>2851.3002100384</DistanceMeters>
          </Trackpoint>
          <Trackpoint>
            <Time>2021-03-13T08:22:21.000Z</Time>
            <Position>
              <LatitudeDegrees>36.7190100811421871185302734375</LatitudeDegrees>
              <LongitudeDegrees>-4.41440843045711517333984375</LongitudeDegrees>
            </Position>
            <AltitudeMeters>1.60000002384185791015625</AltitudeMeters>
            <DistanceMeters>2869.0862055963</DistanceMeters>
          </Trackpoint>
          <Trackpoint>
            <Time>2021-03-13T08:22:27.000Z</Time>
            <Position>
              <LatitudeDegrees>36.71916455961763858795166015625</LatitudeDegrees>
              <LongitudeDegrees>-4.41388363949954509735107421875</LongitudeDegrees>
            </Position>
            <AltitudeMeters>1.39999997615814208984375</AltitudeMeters>
            <DistanceMeters>2918.963735609</DistanceMeters>
          </Trackpoint>
          <Trackpoint>
            <Time>2021-03-13T08:22:29.000Z</Time>
            <Position>
              <LatitudeDegrees>36.71921585686504840850830078125</LatitudeDegrees>
              <LongitudeDegrees>-4.4136984832584857940673828125</LongitudeDegrees>
            </Position>
            <AltitudeMeters>1.2000000476837158203125</AltitudeMeters>
            <DistanceMeters>2936.4419359197</DistanceMeters>
          </Trackpoint>
          <Trackpoint>
            <Time>2021-03-13T08:22:34.000Z</Time>
            <Position>
              <LatitudeDegrees>36.71934594400227069854736328125</LatitudeDegrees>
              <LongitudeDegrees>-4.41324946470558643341064453125</LongitudeDegrees>
            </Position>
            <AltitudeMeters>1</AltitudeMeters>
            <DistanceMeters>2979.0382899913</DistanceMeters>
          </Trackpoint>
          <Trackpoint>
            <Time>2021-03-13T08:22:35.000Z</Time>
            <Position>
              <LatitudeDegrees>36.7193698324263095855712890625</LatitudeDegrees>
              <LongitudeDegrees>-4.41315826959908008575439453125</LongitudeDegrees>
            </Position>
            <AltitudeMeters>1</AltitudeMeters>
            <DistanceMeters>2987.5975545736</DistanceMeters>
          </Trackpoint>
          <Trackpoint>
            <Time>2021-03-13T08:22:42.000Z</Time>
            <Position>
              <LatitudeDegrees>36.71951978467404842376708984375</LatitudeDegrees>
              <LongitudeDegrees>-4.4126061536371707916259765625</LongitudeDegrees>
            </Position>
            <AltitudeMeters>1.39999997615814208984375</AltitudeMeters>
            <DistanceMeters>3039.6060842412</DistanceMeters>
          </Trackpoint>
          <Trackpoint>
            <Time>2021-03-13T08:22:44.000Z</Time>
            <Position>
              <LatitudeDegrees>36.7195461876690387725830078125</LatitudeDegrees>
              <LongitudeDegrees>-4.41252493299543857574462890625</LongitudeDegrees>
            </Position>
            <AltitudeMeters>2</AltitudeMeters>
            <DistanceMeters>3047.4248832235</DistanceMeters>
          </Trackpoint>
          <Trackpoint>
            <Time>2021-03-13T08:22:46.000Z</Time>
            <Position>
              <LatitudeDegrees>36.7195636220276355743408203125</LatitudeDegrees>
              <LongitudeDegrees>-4.41247145645320415496826171875</LongitudeDegrees>
            </Position>
            <AltitudeMeters>2.599999904632568359375</AltitudeMeters>
            <DistanceMeters>3052.5756467196</DistanceMeters>
          </Trackpoint>
          <Trackpoint>
            <Time>2021-03-13T08:22:49.000Z</Time>
            <Position>
              <LatitudeDegrees>36.7195763625204563140869140625</LatitudeDegrees>
              <LongitudeDegrees>-4.41242200322449207305908203125</LongitudeDegrees>
            </Position>
            <AltitudeMeters>3.599999904632568359375</AltitudeMeters>
            <DistanceMeters>3057.2105741042</DistanceMeters>
          </Trackpoint>
          <Trackpoint>
            <Time>2021-03-13T08:22:52.000Z</Time>
            <Position>
              <LatitudeDegrees>36.71958298422396183013916015625</LatitudeDegrees>
              <LongitudeDegrees>-4.4123956002295017242431640625</LongitudeDegrees>
            </Position>
            <AltitudeMeters>4.19999980926513671875</AltitudeMeters>
            <DistanceMeters>3059.6776110968</DistanceMeters>
          </Trackpoint>
          <Trackpoint>
            <Time>2021-03-13T08:22:59.000Z</Time>
            <Position>
              <LatitudeDegrees>36.71958298422396183013916015625</LatitudeDegrees>
              <LongitudeDegrees>-4.4123956002295017242431640625</LongitudeDegrees>
            </Position>
            <AltitudeMeters>4.599999904632568359375</AltitudeMeters>
            <DistanceMeters>3059.6776110968</DistanceMeters>
          </Trackpoint>
          <Trackpoint>
            <Time>2021-03-13T08:23:10.000Z</Time>
            <Position>
              <LatitudeDegrees>36.71958298422396183013916015625</LatitudeDegrees>
              <LongitudeDegrees>-4.4123956002295017242431640625</LongitudeDegrees>
            </Position>
            <AltitudeMeters>5</AltitudeMeters>
            <DistanceMeters>3059.6776110968</DistanceMeters>
          </Trackpoint>
          <Trackpoint>
            <Time>2021-03-13T08:23:12.000Z</Time>
            <Position>
              <LatitudeDegrees>36.71958298422396183013916015625</LatitudeDegrees>
              <LongitudeDegrees>-4.4123956002295017242431640625</LongitudeDegrees>
            </Position>
            <AltitudeMeters>5.19999980926513671875</AltitudeMeters>
            <DistanceMeters>3059.6776110968</DistanceMeters>
          </Trackpoint>
          <Trackpoint>
            <Time>2021-03-13T08:23:14.000Z</Time>
            <Position>
              <LatitudeDegrees>36.71958298422396183013916015625</LatitudeDegrees>
              <LongitudeDegrees>-4.4123956002295017242431640625</LongitudeDegrees>
            </Position>
            <AltitudeMeters>5.400000095367431640625</AltitudeMeters>
            <DistanceMeters>3059.6776110968</DistanceMeters>
          </Trackpoint>
          <Trackpoint>
            <Time>2021-03-13T08:23:30.000Z</Time>
            <Position>
              <LatitudeDegrees>36.7196082137525081634521484375</LatitudeDegrees>
              <LongitudeDegrees>-4.41231429576873779296875</LongitudeDegrees>
            </Position>
            <AltitudeMeters>5</AltitudeMeters>
            <DistanceMeters>3067.4558828955</DistanceMeters>
          </Trackpoint>
          <Trackpoint>
            <Time>2021-03-13T08:23:33.000Z</Time>
            <Position>
              <LatitudeDegrees>36.71962589956820011138916015625</LatitudeDegrees>
              <LongitudeDegrees>-4.4122029840946197509765625</LongitudeDegrees>
            </Position>
            <AltitudeMeters>5.19999980926513671875</AltitudeMeters>
            <DistanceMeters>3077.5796849303</DistanceMeters>
          </Trackpoint>
          <Trackpoint>
            <Time>2021-03-13T08:23:34.000Z</Time>
            <Position>
              <LatitudeDegrees>36.71964232809841632843017578125</LatitudeDegrees>
              <LongitudeDegrees>-4.41215269267559051513671875</LongitudeDegrees>
            </Position>
            <AltitudeMeters>5.19999980926513671875</AltitudeMeters>
            <DistanceMeters>3082.4251156391</DistanceMeters>
          </Trackpoint>
          <Trackpoint>
            <Time>2021-03-13T08:23:35.000Z</Time>
            <Position>
              <LatitudeDegrees>36.71965272165834903717041015625</LatitudeDegrees>
              <LongitudeDegrees>-4.4121082685887813568115234375</LongitudeDegrees>
            </Position>
            <AltitudeMeters>5.400000095367431640625</AltitudeMeters>
            <DistanceMeters>3086.5519454361</DistanceMeters>
          </Trackpoint>
          <Trackpoint>
            <Time>2021-03-13T08:23:37.000Z</Time>
            <Position>
              <LatitudeDegrees>36.71966076828539371490478515625</LatitudeDegrees>
              <LongitudeDegrees>-4.4119937717914581298828125</LongitudeDegrees>
            </Position>
            <AltitudeMeters>5.599999904632568359375</AltitudeMeters>
            <DistanceMeters>3096.8060280432</DistanceMeters>
          </Trackpoint>
          <Trackpoint>
            <Time>2021-03-13T08:23:38.000Z</Time>
            <Position>
              <LatitudeDegrees>36.719656325876712799072265625</LatitudeDegrees>
              <LongitudeDegrees>-4.4119262136518955230712890625</LongitudeDegrees>
            </Position>
            <AltitudeMeters>5.80000019073486328125</AltitudeMeters>
            <DistanceMeters>3102.8542376688</DistanceMeters>
          </Trackpoint>
          <Trackpoint>
            <Time>2021-03-13T08:23:39.000Z</Time>
            <Position>
              <LatitudeDegrees>36.7196439206600189208984375</LatitudeDegrees>
              <LongitudeDegrees>-4.4118561409413814544677734375</LongitudeDegrees>
            </Position>
            <AltitudeMeters>5.80000019073486328125</AltitudeMeters>
            <DistanceMeters>3109.2570922709</DistanceMeters>
          </Trackpoint>
          <Trackpoint>
            <Time>2021-03-13T08:23:41.000Z</Time>
            <Position>
              <LatitudeDegrees>36.71959119848906993865966796875</LatitudeDegrees>
              <LongitudeDegrees>-4.41172831691801548004150390625</LongitudeDegrees>
            </Position>
            <AltitudeMeters>5.80000019073486328125</AltitudeMeters>
            <DistanceMeters>3122.0818266677</DistanceMeters>
          </Trackpoint>
          <Trackpoint>
            <Time>2021-03-13T08:23:43.000Z</Time>
            <Position>
              <LatitudeDegrees>36.7195297591388225555419921875</LatitudeDegrees>
              <LongitudeDegrees>-4.4116204418241977691650390625</LongitudeDegrees>
            </Position>
            <AltitudeMeters>5.80000019073486328125</AltitudeMeters>
            <DistanceMeters>3133.8881071993</DistanceMeters>
          </Trackpoint>
          <Trackpoint>
            <Time>2021-03-13T08:23:45.000Z</Time>
            <Position>
              <LatitudeDegrees>36.71943663619458675384521484375</LatitudeDegrees>
              <LongitudeDegrees>-4.41152228973805904388427734375</LongitudeDegrees>
            </Position>
            <AltitudeMeters>5.400000095367431640625</AltitudeMeters>
            <DistanceMeters>3147.4573097806</DistanceMeters>
          </Trackpoint>
          <Trackpoint>
            <Time>2021-03-13T08:23:46.000Z</Time>
            <Position>
              <LatitudeDegrees>36.71939154155552387237548828125</LatitudeDegrees>
              <LongitudeDegrees>-4.4114658795297145843505859375</LongitudeDegrees>
            </Position>
            <AltitudeMeters>5.400000095367431640625</AltitudeMeters>
            <DistanceMeters>3154.5646473712</DistanceMeters>
          </Trackpoint>
          <Trackpoint>
            <Time>2021-03-13T08:23:49.000Z</Time>
            <Position>
              <LatitudeDegrees>36.71924133785068988800048828125</LatitudeDegrees>
              <LongitudeDegrees>-4.41129564307630062103271484375</LongitudeDegrees>
            </Position>
            <AltitudeMeters>5.19999980926513671875</AltitudeMeters>
            <DistanceMeters>3177.1516398415</DistanceMeters>
          </Trackpoint>
          <Trackpoint>
            <Time>2021-03-13T08:23:55.000Z</Time>
            <Position>
              <LatitudeDegrees>36.71885870397090911865234375</LatitudeDegrees>
              <LongitudeDegrees>-4.410901777446269989013671875</LongitudeDegrees>
            </Position>
            <AltitudeMeters>4.400000095367431640625</AltitudeMeters>
            <DistanceMeters>3232.3650230669</DistanceMeters>
          </Trackpoint>
          <Trackpoint>
            <Time>2021-03-13T08:23:56.000Z</Time>
            <Position>
              <LatitudeDegrees>36.71880346722900867462158203125</LatitudeDegrees>
              <LongitudeDegrees>-4.41084318794310092926025390625</LongitudeDegrees>
            </Position>
            <AltitudeMeters>4.19999980926513671875</AltitudeMeters>
            <DistanceMeters>3240.4350237679</DistanceMeters>
          </Trackpoint>
          <Trackpoint>
            <Time>2021-03-13T08:23:58.000Z</Time>
            <Position>
              <LatitudeDegrees>36.71869819052517414093017578125</LatitudeDegrees>
              <LongitudeDegrees>-4.41070924513041973114013671875</LongitudeDegrees>
            </Position>
            <AltitudeMeters>4</AltitudeMeters>
            <DistanceMeters>3257.1713298482</DistanceMeters>
          </Trackpoint>
          <Trackpoint>
            <Time>2021-03-13T08:24:00.000Z</Time>
            <Position>
              <LatitudeDegrees>36.7186568677425384521484375</LatitudeDegrees>
              <LongitudeDegrees>-4.41057245247066020965576171875</LongitudeDegrees>
            </Position>
            <AltitudeMeters>3.400000095367431640625</AltitudeMeters>
            <DistanceMeters>3270.2135516672</DistanceMeters>
          </Trackpoint>
          <Trackpoint>
            <Time>2021-03-13T08:24:01.000Z</Time>
            <Position>
              <LatitudeDegrees>36.71861353330314159393310546875</LatitudeDegrees>
              <LongitudeDegrees>-4.410502128303050994873046875</LongitudeDegrees>
            </Position>
            <AltitudeMeters>3.400000095367431640625</AltitudeMeters>
            <DistanceMeters>3278.1276283799</DistanceMeters>
          </Trackpoint>
          <Trackpoint>
            <Time>2021-03-13T08:24:03.000Z</Time>
            <Position>
              <LatitudeDegrees>36.71852133236825466156005859375</LatitudeDegrees>
              <LongitudeDegrees>-4.41035603173077106475830078125</LongitudeDegrees>
            </Position>
            <AltitudeMeters>3.400000095367431640625</AltitudeMeters>
            <DistanceMeters>3294.7170720048</DistanceMeters>
          </Trackpoint>
          <Trackpoint>
            <Time>2021-03-13T08:24:05.000Z</Time>
            <Position>
              <LatitudeDegrees>36.718432903289794921875</LatitudeDegrees>
              <LongitudeDegrees>-4.4102002121508121490478515625</LongitudeDegrees>
            </Position>
            <AltitudeMeters>3.2000000476837158203125</AltitudeMeters>
            <DistanceMeters>3311.7504614545</DistanceMeters>
          </Trackpoint>
          <Trackpoint>
            <Time>2021-03-13T08:24:06.000Z</Time>
            <Position>
              <LatitudeDegrees>36.7183462344110012054443359375</LatitudeDegrees>
              <LongitudeDegrees>-4.4101328216493129730224609375</LongitudeDegrees>
            </Position>
            <AltitudeMeters>3.2000000476837158203125</AltitudeMeters>
            <DistanceMeters>3323.1171819032</DistanceMeters>
          </Trackpoint>
          <Trackpoint>
            <Time>2021-03-13T08:24:07.000Z</Time>
            <Position>
              <LatitudeDegrees>36.7182630859315395355224609375</LatitudeDegrees>
              <LongitudeDegrees>-4.410070963203907012939453125</LongitudeDegrees>
            </Position>
            <AltitudeMeters>3.2000000476837158203125</AltitudeMeters>
            <DistanceMeters>3333.8925576701</DistanceMeters>
          </Trackpoint>
          <Trackpoint>
            <Time>2021-03-13T08:24:09.000Z</Time>
            <Position>
              <LatitudeDegrees>36.71820399351418018341064453125</LatitudeDegrees>
              <LongitudeDegrees>-4.40990961156785488128662109375</LongitudeDegrees>
            </Position>
            <AltitudeMeters>3.2000000476837158203125</AltitudeMeters>
            <DistanceMeters>3349.7195700399</DistanceMeters>
          </Trackpoint>
          <Trackpoint>
            <Time>2021-03-13T08:24:10.000Z</Time>
            <Position>
              <LatitudeDegrees>36.71818437986075878143310546875</LatitudeDegrees>
              <LongitudeDegrees>-4.40982243977487087249755859375</LongitudeDegrees>
            </Position>
            <AltitudeMeters>3.2000000476837158203125</AltitudeMeters>
            <DistanceMeters>3357.7973997227</DistanceMeters>
          </Trackpoint>
          <Trackpoint>
            <Time>2021-03-13T08:24:13.000Z</Time>
            <Position>
              <LatitudeDegrees>36.7181443981826305389404296875</LatitudeDegrees>
              <LongitudeDegrees>-4.4095484353601932525634765625</LongitudeDegrees>
            </Position>
            <AltitudeMeters>3.2000000476837158203125</AltitudeMeters>
            <DistanceMeters>3382.6453864979</DistanceMeters>
          </Trackpoint>
          <Trackpoint>
            <Time>2021-03-13T08:24:15.000Z</Time>
            <Position>
              <LatitudeDegrees>36.718136854469776153564453125</LatitudeDegrees>
              <LongitudeDegrees>-4.4093797914683818817138671875</LongitudeDegrees>
            </Position>
            <AltitudeMeters>3.2000000476837158203125</AltitudeMeters>
            <DistanceMeters>3397.7148377956</DistanceMeters>
          </Trackpoint>
          <Trackpoint>
            <Time>2021-03-13T08:24:16.000Z</Time>
            <Position>
              <LatitudeDegrees>36.71812620945274829864501953125</LatitudeDegrees>
              <LongitudeDegrees>-4.4093224592506885528564453125</LongitudeDegrees>
            </Position>
            <AltitudeMeters>3</AltitudeMeters>
            <DistanceMeters>3402.9645800089</DistanceMeters>
          </Trackpoint>
          <Trackpoint>
            <Time>2021-03-13T08:24:18.000Z</Time>
            <Position>
              <LatitudeDegrees>36.7181537859141826629638671875</LatitudeDegrees>
              <LongitudeDegrees>-4.40914752893149852752685546875</LongitudeDegrees>
            </Position>
            <AltitudeMeters>2.7999999523162841796875</AltitudeMeters>
            <DistanceMeters>3418.8704170423</DistanceMeters>
          </Trackpoint>
          <Trackpoint>
            <Time>2021-03-13T08:24:19.000Z</Time>
            <Position>
              <LatitudeDegrees>36.71817381866276264190673828125</LatitudeDegrees>
              <LongitudeDegrees>-4.4090647995471954345703125</LongitudeDegrees>
            </Position>
            <AltitudeMeters>2.7999999523162841796875</AltitudeMeters>
            <DistanceMeters>3426.5810605502</DistanceMeters>
          </Trackpoint>
          <Trackpoint>
            <Time>2021-03-13T08:24:20.000Z</Time>
            <Position>
              <LatitudeDegrees>36.7181977070868015289306640625</LatitudeDegrees>
              <LongitudeDegrees>-4.40898500382900238037109375</LongitudeDegrees>
            </Position>
            <AltitudeMeters>2.7999999523162841796875</AltitudeMeters>
            <DistanceMeters>3434.1808216607</DistanceMeters>
          </Trackpoint>
          <Trackpoint>
            <Time>2021-03-13T08:24:23.000Z</Time>
            <Position>
              <LatitudeDegrees>36.7183081805706024169921875</LatitudeDegrees>
              <LongitudeDegrees>-4.4087491370737552642822265625</LongitudeDegrees>
            </Position>
            <AltitudeMeters>2.599999904632568359375</AltitudeMeters>
            <DistanceMeters>3458.5534603917</DistanceMeters>
          </Trackpoint>
          <Trackpoint>
            <Time>2021-03-13T08:24:24.000Z</Time>
            <Position>
              <LatitudeDegrees>36.7183515988290309906005859375</LatitudeDegrees>
              <LongitudeDegrees>-4.40867311321198940277099609375</LongitudeDegrees>
            </Position>
            <AltitudeMeters>2.599999904632568359375</AltitudeMeters>
            <DistanceMeters>3466.8822686643</DistanceMeters>
          </Trackpoint>
          <Trackpoint>
            <Time>2021-03-13T08:24:28.000Z</Time>
            <Position>
              <LatitudeDegrees>36.71855435706675052642822265625</LatitudeDegrees>
              <LongitudeDegrees>-4.408385865390300750732421875</LongitudeDegrees>
            </Position>
            <AltitudeMeters>2.599999904632568359375</AltitudeMeters>
            <DistanceMeters>3501.0297981681</DistanceMeters>
          </Trackpoint>
          <Trackpoint>
            <Time>2021-03-13T08:24:32.000Z</Time>
            <Position>
              <LatitudeDegrees>36.7187418602406978607177734375</LatitudeDegrees>
              <LongitudeDegrees>-4.408138096332550048828125</LongitudeDegrees>
            </Position>
            <AltitudeMeters>2.599999904632568359375</AltitudeMeters>
            <DistanceMeters>3531.4300307919</DistanceMeters>
          </Trackpoint>
          <Trackpoint>
            <Time>2021-03-13T08:24:39.000Z</Time>
            <Position>
              <LatitudeDegrees>36.7190684191882610321044921875</LatitudeDegrees>
              <LongitudeDegrees>-4.4076780974864959716796875</LongitudeDegrees>
            </Position>
            <AltitudeMeters>2.400000095367431640625</AltitudeMeters>
            <DistanceMeters>3586.2511391516</DistanceMeters>
          </Trackpoint>
          <Trackpoint>
            <Time>2021-03-13T08:24:45.000Z</Time>
            <Position>
              <LatitudeDegrees>36.71930789016187191009521484375</LatitudeDegrees>
              <LongitudeDegrees>-4.40728339366614818572998046875</LongitudeDegrees>
            </Position>
            <AltitudeMeters>2.2000000476837158203125</AltitudeMeters>
            <DistanceMeters>3630.4151560839</DistanceMeters>
          </Trackpoint>
          <Trackpoint>
            <Time>2021-03-13T08:24:47.000Z</Time>
            <Position>
              <LatitudeDegrees>36.71936857514083385467529296875</LatitudeDegrees>
              <LongitudeDegrees>-4.4071709923446178436279296875</LongitudeDegrees>
            </Position>
            <AltitudeMeters>2.2000000476837158203125</AltitudeMeters>
            <DistanceMeters>3642.505975227</DistanceMeters>
          </Trackpoint>
          <Trackpoint>
            <Time>2021-03-13T08:24:52.000Z</Time>
            <Position>
              <LatitudeDegrees>36.71947821043431758880615234375</LatitudeDegrees>
              <LongitudeDegrees>-4.40695666708052158355712890625</LongitudeDegrees>
            </Position>
            <AltitudeMeters>2.599999904632568359375</AltitudeMeters>
            <DistanceMeters>3665.1891127018</DistanceMeters>
          </Trackpoint>
          <Trackpoint>
            <Time>2021-03-13T08:24:56.000Z</Time>
            <Position>
              <LatitudeDegrees>36.7195230536162853240966796875</LatitudeDegrees>
              <LongitudeDegrees>-4.40684552304446697235107421875</LongitudeDegrees>
            </Position>
            <AltitudeMeters>2.7999999523162841796875</AltitudeMeters>
            <DistanceMeters>3676.2897623745</DistanceMeters>
          </Trackpoint>
          <Trackpoint>
            <Time>2021-03-13T08:24:57.000Z</Time>
            <Position>
              <LatitudeDegrees>36.71953034587204456329345703125</LatitudeDegrees>
              <LongitudeDegrees>-4.406826160848140716552734375</LongitudeDegrees>
            </Position>
            <AltitudeMeters>2.7999999523162841796875</AltitudeMeters>
            <DistanceMeters>3678.1974103522</DistanceMeters>
          </Trackpoint>
          <Trackpoint>
            <Time>2021-03-13T08:25:01.000Z</Time>
            <Position>
              <LatitudeDegrees>36.7195478640496730804443359375</LatitudeDegrees>
              <LongitudeDegrees>-4.40677830018103122711181640625</LongitudeDegrees>
            </Position>
            <AltitudeMeters>2.599999904632568359375</AltitudeMeters>
            <DistanceMeters>3682.8923455594</DistanceMeters>
          </Trackpoint>
          <Trackpoint>
            <Time>2021-03-13T08:25:02.000Z</Time>
            <Position>
              <LatitudeDegrees>36.719549037516117095947265625</LatitudeDegrees>
              <LongitudeDegrees>-4.40677477978169918060302734375</LongitudeDegrees>
            </Position>
            <AltitudeMeters>2.599999904632568359375</AltitudeMeters>
            <DistanceMeters>3683.2215277541</DistanceMeters>
          </Trackpoint>
          <Trackpoint>
            <Time>2021-03-13T08:25:05.000Z</Time>
            <Position>
              <LatitudeDegrees>36.71954962424933910369873046875</LatitudeDegrees>
              <LongitudeDegrees>-4.40676941536366939544677734375</LongitudeDegrees>
            </Position>
            <AltitudeMeters>2.400000095367431640625</AltitudeMeters>
            <DistanceMeters>3683.706070825</DistanceMeters>
          </Trackpoint>
          <Trackpoint>
            <Time>2021-03-13T08:25:08.000Z</Time>
            <Position>
              <LatitudeDegrees>36.7195634543895721435546875</LatitudeDegrees>
              <LongitudeDegrees>-4.406743012368679046630859375</LongitudeDegrees>
            </Position>
            <AltitudeMeters>2.400000095367431640625</AltitudeMeters>
            <DistanceMeters>3686.5186047296</DistanceMeters>
          </Trackpoint>
          <Trackpoint>
            <Time>2021-03-13T08:25:13.000Z</Time>
            <Position>
              <LatitudeDegrees>36.719626486301422119140625</LatitudeDegrees>
              <LongitudeDegrees>-4.40658199600875377655029296875</LongitudeDegrees>
            </Position>
            <AltitudeMeters>2.2000000476837158203125</AltitudeMeters>
            <DistanceMeters>3702.5057021419</DistanceMeters>
          </Trackpoint>
          <Trackpoint>
            <Time>2021-03-13T08:25:15.000Z</Time>
            <Position>
              <LatitudeDegrees>36.71967082656919956207275390625</LatitudeDegrees>
              <LongitudeDegrees>-4.4064920581877231597900390625</LongitudeDegrees>
            </Position>
            <AltitudeMeters>2.2000000476837158203125</AltitudeMeters>
            <DistanceMeters>3711.9262961408</DistanceMeters>
          </Trackpoint>
          <Trackpoint>
            <Time>2021-03-13T08:25:16.000Z</Time>
            <Position>
              <LatitudeDegrees>36.71969295479357242584228515625</LatitudeDegrees>
              <LongitudeDegrees>-4.4064377434551715850830078125</LongitudeDegrees>
            </Position>
            <AltitudeMeters>2.2000000476837158203125</AltitudeMeters>
            <DistanceMeters>3717.3611264094</DistanceMeters>
          </Trackpoint>
          <Trackpoint>
            <Time>2021-03-13T08:25:17.000Z</Time>
            <Position>
              <LatitudeDegrees>36.7197168432176113128662109375</LatitudeDegrees>
              <LongitudeDegrees>-4.4063767232000827789306640625</LongitudeDegrees>
            </Position>
            <AltitudeMeters>2.2000000476837158203125</AltitudeMeters>
            <DistanceMeters>3723.419778136</DistanceMeters>
          </Trackpoint>
          <Trackpoint>
            <Time>2021-03-13T08:25:18.000Z</Time>
            <Position>
              <LatitudeDegrees>36.71974240802228450775146484375</LatitudeDegrees>
              <LongitudeDegrees>-4.40631595440208911895751953125</LongitudeDegrees>
            </Position>
            <AltitudeMeters>2.2000000476837158203125</AltitudeMeters>
            <DistanceMeters>3729.5429209071</DistanceMeters>
          </Trackpoint>
          <Trackpoint>
            <Time>2021-03-13T08:25:24.000Z</Time>
            <Position>
              <LatitudeDegrees>36.71990401111543178558349609375</LatitudeDegrees>
              <LongitudeDegrees>-4.4059145450592041015625</LongitudeDegrees>
            </Position>
            <AltitudeMeters>2.400000095367431640625</AltitudeMeters>
            <DistanceMeters>3769.618290099</DistanceMeters>
          </Trackpoint>
          <Trackpoint>
            <Time>2021-03-13T08:25:29.000Z</Time>
            <Position>
              <LatitudeDegrees>36.7200517840683460235595703125</LatitudeDegrees>
              <LongitudeDegrees>-4.40554901026189327239990234375</LongitudeDegrees>
            </Position>
            <AltitudeMeters>2.400000095367431640625</AltitudeMeters>
            <DistanceMeters>3806.1426826774</DistanceMeters>
          </Trackpoint>
          <Trackpoint>
            <Time>2021-03-13T08:25:30.000Z</Time>
            <Position>
              <LatitudeDegrees>36.7200779356062412261962890625</LatitudeDegrees>
              <LongitudeDegrees>-4.40547239966690540313720703125</LongitudeDegrees>
            </Position>
            <AltitudeMeters>2.400000095367431640625</AltitudeMeters>
            <DistanceMeters>3813.5718028962</DistanceMeters>
          </Trackpoint>
          <Trackpoint>
            <Time>2021-03-13T08:25:31.000Z</Time>
            <Position>
              <LatitudeDegrees>36.720102913677692413330078125</LatitudeDegrees>
              <LongitudeDegrees>-4.40539277158677577972412109375</LongitudeDegrees>
            </Position>
            <AltitudeMeters>2</AltitudeMeters>
            <DistanceMeters>3821.2006194939</DistanceMeters>
          </Trackpoint>
          <Trackpoint>
            <Time>2021-03-13T08:25:34.000Z</Time>
            <Position>
              <LatitudeDegrees>36.72017633914947509765625</LatitudeDegrees>
              <LongitudeDegrees>-4.40514164976775646209716796875</LongitudeDegrees>
            </Position>
            <AltitudeMeters>2.400000095367431640625</AltitudeMeters>
            <DistanceMeters>3845.048727901</DistanceMeters>
          </Trackpoint>
          <Trackpoint>
            <Time>2021-03-13T08:25:36.000Z</Time>
            <Position>
              <LatitudeDegrees>36.7202197574079036712646484375</LatitudeDegrees>
              <LongitudeDegrees>-4.4049517996609210968017578125</LongitudeDegrees>
            </Position>
            <AltitudeMeters>2.400000095367431640625</AltitudeMeters>
            <DistanceMeters>3862.6622825197</DistanceMeters>
          </Trackpoint>
          <Trackpoint>
            <Time>2021-03-13T08:25:38.000Z</Time>
            <Position>
              <LatitudeDegrees>36.72026225365698337554931640625</LatitudeDegrees>
              <LongitudeDegrees>-4.40477837808430194854736328125</LongitudeDegrees>
            </Position>
            <AltitudeMeters>2.2000000476837158203125</AltitudeMeters>
            <DistanceMeters>3878.8408422765</DistanceMeters>
          </Trackpoint>
          <Trackpoint>
            <Time>2021-03-13T08:25:46.000Z</Time>
            <Position>
              <LatitudeDegrees>36.7203773371875286102294921875</LatitudeDegrees>
              <LongitudeDegrees>-4.4040629826486110687255859375</LongitudeDegrees>
            </Position>
            <AltitudeMeters>2.599999904632568359375</AltitudeMeters>
            <DistanceMeters>3943.9379564496</DistanceMeters>
          </Trackpoint>
          <Trackpoint>
            <Time>2021-03-13T08:25:54.000Z</Time>
            <Position>
              <LatitudeDegrees>36.72041815705597400665283203125</LatitudeDegrees>
              <LongitudeDegrees>-4.40335244871675968170166015625</LongitudeDegrees>
            </Position>
            <AltitudeMeters>2.599999904632568359375</AltitudeMeters>
            <DistanceMeters>4007.4912944606</DistanceMeters>
          </Trackpoint>
          <Trackpoint>
            <Time>2021-03-13T08:25:56.000Z</Time>
            <Position>
              <LatitudeDegrees>36.72043492086231708526611328125</LatitudeDegrees>
              <LongitudeDegrees>-4.40317726694047451019287109375</LongitudeDegrees>
            </Position>
            <AltitudeMeters>2.7999999523162841796875</AltitudeMeters>
            <DistanceMeters>4023.2313445659</DistanceMeters>
          </Trackpoint>
          <Trackpoint>
            <Time>2021-03-13T08:26:01.000Z</Time>
            <Position>
              <LatitudeDegrees>36.7205201648175716400146484375</LatitudeDegrees>
              <LongitudeDegrees>-4.40275314263999462127685546875</LongitudeDegrees>
            </Position>
            <AltitudeMeters>2.7999999523162841796875</AltitudeMeters>
            <DistanceMeters>4062.2411707958</DistanceMeters>
          </Trackpoint>
          <Trackpoint>
            <Time>2021-03-13T08:26:09.000Z</Time>
            <Position>
              <LatitudeDegrees>36.72074488364160060882568359375</LatitudeDegrees>
              <LongitudeDegrees>-4.402120895683765411376953125</LongitudeDegrees>
            </Position>
            <AltitudeMeters>2.7999999523162841796875</AltitudeMeters>
            <DistanceMeters>4123.9439563091</DistanceMeters>
          </Trackpoint>
          <Trackpoint>
            <Time>2021-03-13T08:26:17.000Z</Time>
            <Position>
              <LatitudeDegrees>36.72095619142055511474609375</LatitudeDegrees>
              <LongitudeDegrees>-4.401505328714847564697265625</LongitudeDegrees>
            </Position>
            <AltitudeMeters>2.400000095367431640625</AltitudeMeters>
            <DistanceMeters>4183.6859902908</DistanceMeters>
          </Trackpoint>
          <Trackpoint>
            <Time>2021-03-13T08:26:18.000Z</Time>
            <Position>
              <LatitudeDegrees>36.72098561190068721771240234375</LatitudeDegrees>
              <LongitudeDegrees>-4.4014263711869716644287109375</LongitudeDegrees>
            </Position>
            <AltitudeMeters>2.400000095367431640625</AltitudeMeters>
            <DistanceMeters>4191.4538066377</DistanceMeters>
          </Trackpoint>
          <Trackpoint>
            <Time>2021-03-13T08:26:26.000Z</Time>
            <Position>
              <LatitudeDegrees>36.721203960478305816650390625</LatitudeDegrees>
              <LongitudeDegrees>-4.40080150030553340911865234375</LongitudeDegrees>
            </Position>
            <AltitudeMeters>2.400000095367431640625</AltitudeMeters>
            <DistanceMeters>4252.2683796352</DistanceMeters>
          </Trackpoint>
          <Trackpoint>
            <Time>2021-03-13T08:26:27.000Z</Time>
            <Position>
              <LatitudeDegrees>36.721230112016201019287109375</LatitudeDegrees>
              <LongitudeDegrees>-4.40072514116764068603515625</LongitudeDegrees>
            </Position>
            <AltitudeMeters>2.400000095367431640625</AltitudeMeters>
            <DistanceMeters>4259.6755885882</DistanceMeters>
          </Trackpoint>
          <Trackpoint>
            <Time>2021-03-13T08:26:34.000Z</Time>
            <Position>
              <LatitudeDegrees>36.72139297239482402801513671875</LatitudeDegrees>
              <LongitudeDegrees>-4.4001640565693378448486328125</LongitudeDegrees>
            </Position>
            <AltitudeMeters>2.599999904632568359375</AltitudeMeters>
            <DistanceMeters>4312.9134519327</DistanceMeters>
          </Trackpoint>
          <Trackpoint>
            <Time>2021-03-13T08:26:42.000Z</Time>
            <Position>
              <LatitudeDegrees>36.72157955355942249298095703125</LatitudeDegrees>
              <LongitudeDegrees>-4.39951303415000438690185546875</LongitudeDegrees>
            </Position>
            <AltitudeMeters>2.599999904632568359375</AltitudeMeters>
            <DistanceMeters>4374.5950133423</DistanceMeters>
          </Trackpoint>
          <Trackpoint>
            <Time>2021-03-13T08:26:43.000Z</Time>
            <Position>
              <LatitudeDegrees>36.72160117886960506439208984375</LatitudeDegrees>
              <LongitudeDegrees>-4.399429298937320709228515625</LongitudeDegrees>
            </Position>
            <AltitudeMeters>2.599999904632568359375</AltitudeMeters>
            <DistanceMeters>4382.4437827682</DistanceMeters>
          </Trackpoint>
          <Trackpoint>
            <Time>2021-03-13T08:26:44.000Z</Time>
            <Position>
              <LatitudeDegrees>36.7216228879988193511962890625</LatitudeDegrees>
              <LongitudeDegrees>-4.39934539608657360076904296875</LongitudeDegrees>
            </Position>
            <AltitudeMeters>2.599999904632568359375</AltitudeMeters>
            <DistanceMeters>4390.3097908914</DistanceMeters>
          </Trackpoint>
          <Trackpoint>
            <Time>2021-03-13T08:26:51.000Z</Time>
            <Position>
              <LatitudeDegrees>36.721774600446224212646484375</LatitudeDegrees>
              <LongitudeDegrees>-4.39876310527324676513671875</LongitudeDegrees>
            </Position>
            <AltitudeMeters>2.599999904632568359375</AltitudeMeters>
            <DistanceMeters>4444.9337880828</DistanceMeters>
          </Trackpoint>
          <Trackpoint>
            <Time>2021-03-13T08:26:59.000Z</Time>
            <Position>
              <LatitudeDegrees>36.721957661211490631103515625</LatitudeDegrees>
              <LongitudeDegrees>-4.3980843387544155120849609375</LongitudeDegrees>
            </Position>
            <AltitudeMeters>2.599999904632568359375</AltitudeMeters>
            <DistanceMeters>4508.825103901</DistanceMeters>
          </Trackpoint>
          <Trackpoint>
            <Time>2021-03-13T08:27:07.000Z</Time>
            <Position>
              <LatitudeDegrees>36.7221356928348541259765625</LatitudeDegrees>
              <LongitudeDegrees>-4.39742200076580047607421875</LongitudeDegrees>
            </Position>
            <AltitudeMeters>2.400000095367431640625</AltitudeMeters>
            <DistanceMeters>4571.1486481829</DistanceMeters>
          </Trackpoint>
          <Trackpoint>
            <Time>2021-03-13T08:27:14.000Z</Time>
            <Position>
              <LatitudeDegrees>36.72231364063918590545654296875</LatitudeDegrees>
              <LongitudeDegrees>-4.39685781486332416534423828125</LongitudeDegrees>
            </Position>
            <AltitudeMeters>2.400000095367431640625</AltitudeMeters>
            <DistanceMeters>4625.2382179475</DistanceMeters>
          </Trackpoint>
          <Trackpoint>
            <Time>2021-03-13T08:27:19.000Z</Time>
            <Position>
              <LatitudeDegrees>36.7224057577550411224365234375</LatitudeDegrees>
              <LongitudeDegrees>-4.3965779431164264678955078125</LongitudeDegrees>
            </Position>
            <AltitudeMeters>2.599999904632568359375</AltitudeMeters>
            <DistanceMeters>4652.2294851899</DistanceMeters>
          </Trackpoint>
          <Trackpoint>
            <Time>2021-03-13T08:27:20.000Z</Time>
            <Position>
              <LatitudeDegrees>36.72241589985787868499755859375</LatitudeDegrees>
              <LongitudeDegrees>-4.3965415656566619873046875</LongitudeDegrees>
            </Position>
            <AltitudeMeters>2.599999904632568359375</AltitudeMeters>
            <DistanceMeters>4655.6636197003</DistanceMeters>
          </Trackpoint>
          <Trackpoint>
            <Time>2021-03-13T08:27:22.000Z</Time>
            <Position>
              <LatitudeDegrees>36.72243274748325347900390625</LatitudeDegrees>
              <LongitudeDegrees>-4.39648590981960296630859375</LongitudeDegrees>
            </Position>
            <AltitudeMeters>2.599999904632568359375</AltitudeMeters>
            <DistanceMeters>4660.9698215766</DistanceMeters>
          </Trackpoint>
          <Trackpoint>
            <Time>2021-03-13T08:27:24.000Z</Time>
            <Position>
              <LatitudeDegrees>36.7224495112895965576171875</LatitudeDegrees>
              <LongitudeDegrees>-4.39644743688404560089111328125</LongitudeDegrees>
            </Position>
            <AltitudeMeters>2.599999904632568359375</AltitudeMeters>
            <DistanceMeters>4664.8763327043</DistanceMeters>
          </Trackpoint>
          <Trackpoint>
            <Time>2021-03-13T08:27:27.000Z</Time>
            <Position>
              <LatitudeDegrees>36.72245194204151630401611328125</LatitudeDegrees>
              <LongitudeDegrees>-4.39644106663763523101806640625</LongitudeDegrees>
            </Position>
            <AltitudeMeters>2.599999904632568359375</AltitudeMeters>
            <DistanceMeters>4665.5066686175</DistanceMeters>
          </Trackpoint>
          <Trackpoint>
            <Time>2021-03-13T08:27:28.000Z</Time>
            <Position>
              <LatitudeDegrees>36.72245194204151630401611328125</LatitudeDegrees>
              <LongitudeDegrees>-4.39644106663763523101806640625</LongitudeDegrees>
            </Position>
            <AltitudeMeters>2.599999904632568359375</AltitudeMeters>
            <DistanceMeters>4665.5066686175</DistanceMeters>
          </Trackpoint>
          <Trackpoint>
            <Time>2021-03-13T08:27:31.000Z</Time>
            <Position>
              <LatitudeDegrees>36.72245194204151630401611328125</LatitudeDegrees>
              <LongitudeDegrees>-4.39644106663763523101806640625</LongitudeDegrees>
            </Position>
            <AltitudeMeters>2.599999904632568359375</AltitudeMeters>
            <DistanceMeters>4665.5066686175</DistanceMeters>
          </Trackpoint>
          <Trackpoint>
            <Time>2021-03-13T08:27:34.000Z</Time>
            <Position>
              <LatitudeDegrees>36.72245194204151630401611328125</LatitudeDegrees>
              <LongitudeDegrees>-4.39644106663763523101806640625</LongitudeDegrees>
            </Position>
            <AltitudeMeters>2.7999999523162841796875</AltitudeMeters>
            <DistanceMeters>4665.5066686175</DistanceMeters>
          </Trackpoint>
          <Trackpoint>
            <Time>2021-03-13T08:27:37.000Z</Time>
            <Position>
              <LatitudeDegrees>36.72245194204151630401611328125</LatitudeDegrees>
              <LongitudeDegrees>-4.39644106663763523101806640625</LongitudeDegrees>
            </Position>
            <AltitudeMeters>2.7999999523162841796875</AltitudeMeters>
            <DistanceMeters>4665.5066686175</DistanceMeters>
          </Trackpoint>
          <Trackpoint>
            <Time>2021-03-13T08:27:42.000Z</Time>
            <Position>
              <LatitudeDegrees>36.72246233560144901275634765625</LatitudeDegrees>
              <LongitudeDegrees>-4.39641575329005718231201171875</LongitudeDegrees>
            </Position>
            <AltitudeMeters>2.7999999523162841796875</AltitudeMeters>
            <DistanceMeters>4668.0440776315</DistanceMeters>
          </Trackpoint>
          <Trackpoint>
            <Time>2021-03-13T08:27:44.000Z</Time>
            <Position>
              <LatitudeDegrees>36.72249100171029567718505859375</LatitudeDegrees>
              <LongitudeDegrees>-4.3963526375591754913330078125</LongitudeDegrees>
            </Position>
            <AltitudeMeters>2.599999904632568359375</AltitudeMeters>
            <DistanceMeters>4674.5156689774</DistanceMeters>
          </Trackpoint>
          <Trackpoint>
            <Time>2021-03-13T08:27:49.000Z</Time>
            <Position>
              <LatitudeDegrees>36.72258186154067516326904296875</LatitudeDegrees>
              <LongitudeDegrees>-4.39612925983965396881103515625</LongitudeDegrees>
            </Position>
            <AltitudeMeters>2.2000000476837158203125</AltitudeMeters>
            <DistanceMeters>4696.863317798</DistanceMeters>
          </Trackpoint>
          <Trackpoint>
            <Time>2021-03-13T08:27:53.000Z</Time>
            <Position>
              <LatitudeDegrees>36.72267037443816661834716796875</LatitudeDegrees>
              <LongitudeDegrees>-4.39588333480060100555419921875</LongitudeDegrees>
            </Position>
            <AltitudeMeters>2</AltitudeMeters>
            <DistanceMeters>4720.9133383066</DistanceMeters>
          </Trackpoint>
          <Trackpoint>
            <Time>2021-03-13T08:27:54.000Z</Time>
            <Position>
              <LatitudeDegrees>36.72269761562347412109375</LatitudeDegrees>
              <LongitudeDegrees>-4.39581963233649730682373046875</LongitudeDegrees>
            </Position>
            <AltitudeMeters>2</AltitudeMeters>
            <DistanceMeters>4727.3548599638</DistanceMeters>
          </Trackpoint>
          <Trackpoint>
            <Time>2021-03-13T08:27:55.000Z</Time>
            <Position>
              <LatitudeDegrees>36.72272049821913242340087890625</LatitudeDegrees>
              <LongitudeDegrees>-4.39574897289276123046875</LongitudeDegrees>
            </Position>
            <AltitudeMeters>1.7999999523162841796875</AltitudeMeters>
            <DistanceMeters>4734.1537540883</DistanceMeters>
          </Trackpoint>
          <Trackpoint>
            <Time>2021-03-13T08:27:59.000Z</Time>
            <Position>
              <LatitudeDegrees>36.72282611019909381866455078125</LatitudeDegrees>
              <LongitudeDegrees>-4.395454935729503631591796875</LongitudeDegrees>
            </Position>
            <AltitudeMeters>1.7999999523162841796875</AltitudeMeters>
            <DistanceMeters>4762.898981778</DistanceMeters>
          </Trackpoint>
          <Trackpoint>
            <Time>2021-03-13T08:28:04.000Z</Time>
            <Position>
              <LatitudeDegrees>36.72293624840676784515380859375</LatitudeDegrees>
              <LongitudeDegrees>-4.3950852937996387481689453125</LongitudeDegrees>
            </Position>
            <AltitudeMeters>1.7999999523162841796875</AltitudeMeters>
            <DistanceMeters>4798.0804331128</DistanceMeters>
          </Trackpoint>
          <Trackpoint>
            <Time>2021-03-13T08:28:06.000Z</Time>
            <Position>
              <LatitudeDegrees>36.7229696922004222869873046875</LatitudeDegrees>
              <LongitudeDegrees>-4.3949322402477264404296875</LongitudeDegrees>
            </Position>
            <AltitudeMeters>1.7999999523162841796875</AltitudeMeters>
            <DistanceMeters>4812.2333535068</DistanceMeters>
          </Trackpoint>
          <Trackpoint>
            <Time>2021-03-13T08:28:10.000Z</Time>
            <Position>
              <LatitudeDegrees>36.7230082489550113677978515625</LatitudeDegrees>
              <LongitudeDegrees>-4.3945971317589282989501953125</LongitudeDegrees>
            </Position>
            <AltitudeMeters>1.7999999523162841796875</AltitudeMeters>
            <DistanceMeters>4842.4357077538</DistanceMeters>
          </Trackpoint>
          <Trackpoint>
            <Time>2021-03-13T08:28:13.000Z</Time>
            <Position>
              <LatitudeDegrees>36.72301621176302433013916015625</LatitudeDegrees>
              <LongitudeDegrees>-4.39435430802404880523681640625</LongitudeDegrees>
            </Position>
            <AltitudeMeters>2</AltitudeMeters>
            <DistanceMeters>4864.1167976565</DistanceMeters>
          </Trackpoint>
          <Trackpoint>
            <Time>2021-03-13T08:28:21.000Z</Time>
            <Position>
              <LatitudeDegrees>36.72302124090492725372314453125</LatitudeDegrees>
              <LongitudeDegrees>-4.39367587678134441375732421875</LongitudeDegrees>
            </Position>
            <AltitudeMeters>2.400000095367431640625</AltitudeMeters>
            <DistanceMeters>4924.6439662145</DistanceMeters>
          </Trackpoint>
          <Trackpoint>
            <Time>2021-03-13T08:28:23.000Z</Time>
            <Position>
              <LatitudeDegrees>36.72301906161010265350341796875</LatitudeDegrees>
              <LongitudeDegrees>-4.393513686954975128173828125</LongitudeDegrees>
            </Position>
            <AltitudeMeters>2.599999904632568359375</AltitudeMeters>
            <DistanceMeters>4939.1155083883</DistanceMeters>
          </Trackpoint>
          <Trackpoint>
            <Time>2021-03-13T08:28:27.000Z</Time>
            <Position>
              <LatitudeDegrees>36.72299911268055438995361328125</LatitudeDegrees>
              <LongitudeDegrees>-4.39321218989789485931396484375</LongitudeDegrees>
            </Position>
            <AltitudeMeters>3</AltitudeMeters>
            <DistanceMeters>4966.1042663478</DistanceMeters>
          </Trackpoint>
          <Trackpoint>
            <Time>2021-03-13T08:28:32.000Z</Time>
            <Position>
              <LatitudeDegrees>36.72292417846620082855224609375</LatitudeDegrees>
              <LongitudeDegrees>-4.39283408224582672119140625</LongitudeDegrees>
            </Position>
            <AltitudeMeters>3.400000095367431640625</AltitudeMeters>
            <DistanceMeters>5000.8520939249</DistanceMeters>
          </Trackpoint>
          <Trackpoint>
            <Time>2021-03-13T08:28:33.000Z</Time>
            <Position>
              <LatitudeDegrees>36.7228996194899082183837890625</LatitudeDegrees>
              <LongitudeDegrees>-4.39275805838406085968017578125</LongitudeDegrees>
            </Position>
            <AltitudeMeters>3.400000095367431640625</AltitudeMeters>
            <DistanceMeters>5008.1648302596</DistanceMeters>
          </Trackpoint>
          <Trackpoint>
            <Time>2021-03-13T08:28:34.000Z</Time>
            <Position>
              <LatitudeDegrees>36.72287237830460071563720703125</LatitudeDegrees>
              <LongitudeDegrees>-4.39268178306519985198974609375</LongitudeDegrees>
            </Position>
            <AltitudeMeters>3.599999904632568359375</AltitudeMeters>
            <DistanceMeters>5015.6145852774</DistanceMeters>
          </Trackpoint>
          <Trackpoint>
            <Time>2021-03-13T08:28:42.000Z</Time>
            <Position>
              <LatitudeDegrees>36.7226277105510234832763671875</LatitudeDegrees>
              <LongitudeDegrees>-4.39207811839878559112548828125</LongitudeDegrees>
            </Position>
            <AltitudeMeters>4.19999980926513671875</AltitudeMeters>
            <DistanceMeters>5075.9627589903</DistanceMeters>
          </Trackpoint>
          <Trackpoint>
            <Time>2021-03-13T08:28:45.000Z</Time>
            <Position>
              <LatitudeDegrees>36.722539030015468597412109375</LatitudeDegrees>
              <LongitudeDegrees>-4.39183487556874752044677734375</LongitudeDegrees>
            </Position>
            <AltitudeMeters>4.19999980926513671875</AltitudeMeters>
            <DistanceMeters>5099.8025356509</DistanceMeters>
          </Trackpoint>
          <Trackpoint>
            <Time>2021-03-13T08:28:46.000Z</Time>
            <Position>
              <LatitudeDegrees>36.7225163988769054412841796875</LatitudeDegrees>
              <LongitudeDegrees>-4.3917519785463809967041015625</LongitudeDegrees>
            </Position>
            <AltitudeMeters>4.400000095367431640625</AltitudeMeters>
            <DistanceMeters>5107.6155579062</DistanceMeters>
          </Trackpoint>
          <Trackpoint>
            <Time>2021-03-13T08:28:48.000Z</Time>
            <Position>
              <LatitudeDegrees>36.7224818654358386993408203125</LatitudeDegrees>
              <LongitudeDegrees>-4.3915794789791107177734375</LongitudeDegrees>
            </Position>
            <AltitudeMeters>4.400000095367431640625</AltitudeMeters>
            <DistanceMeters>5123.4779048333</DistanceMeters>
          </Trackpoint>
          <Trackpoint>
            <Time>2021-03-13T08:28:49.000Z</Time>
            <Position>
              <LatitudeDegrees>36.72247038222849369049072265625</LatitudeDegrees>
              <LongitudeDegrees>-4.3914918042719364166259765625</LongitudeDegrees>
            </Position>
            <AltitudeMeters>4.599999904632568359375</AltitudeMeters>
            <DistanceMeters>5131.4033834777</DistanceMeters>
          </Trackpoint>
          <Trackpoint>
            <Time>2021-03-13T08:28:54.000Z</Time>
            <Position>
              <LatitudeDegrees>36.722437106072902679443359375</LatitudeDegrees>
              <LongitudeDegrees>-4.3910509161651134490966796875</LongitudeDegrees>
            </Position>
            <AltitudeMeters>4.599999904632568359375</AltitudeMeters>
            <DistanceMeters>5170.9103899824</DistanceMeters>
          </Trackpoint>
          <Trackpoint>
            <Time>2021-03-13T08:29:02.000Z</Time>
            <Position>
              <LatitudeDegrees>36.72238203696906566619873046875</LatitudeDegrees>
              <LongitudeDegrees>-4.39034407027065753936767578125</LongitudeDegrees>
            </Position>
            <AltitudeMeters>5</AltitudeMeters>
            <DistanceMeters>5234.2674876236</DistanceMeters>
          </Trackpoint>
          <Trackpoint>
            <Time>2021-03-13T08:29:05.000Z</Time>
            <Position>
              <LatitudeDegrees>36.72235923819243907928466796875</LatitudeDegrees>
              <LongitudeDegrees>-4.3900745920836925506591796875</LongitudeDegrees>
            </Position>
            <AltitudeMeters>4.80000019073486328125</AltitudeMeters>
            <DistanceMeters>5258.4420297557</DistanceMeters>
          </Trackpoint>
          <Trackpoint>
            <Time>2021-03-13T08:29:13.000Z</Time>
            <Position>
              <LatitudeDegrees>36.7223058454692363739013671875</LatitudeDegrees>
              <LongitudeDegrees>-4.38935332931578159332275390625</LongitudeDegrees>
            </Position>
            <AltitudeMeters>4.599999904632568359375</AltitudeMeters>
            <DistanceMeters>5323.0621519304</DistanceMeters>
          </Trackpoint>
          <Trackpoint>
            <Time>2021-03-13T08:29:16.000Z</Time>
            <Position>
              <LatitudeDegrees>36.72228346578776836395263671875</LatitudeDegrees>
              <LongitudeDegrees>-4.389085359871387481689453125</LongitudeDegrees>
            </Position>
            <AltitudeMeters>4.599999904632568359375</AltitudeMeters>
            <DistanceMeters>5347.0979003201</DistanceMeters>
          </Trackpoint>
          <Trackpoint>
            <Time>2021-03-13T08:29:24.000Z</Time>
            <Position>
              <LatitudeDegrees>36.72222764231264591217041015625</LatitudeDegrees>
              <LongitudeDegrees>-4.3883609957993030548095703125</LongitudeDegrees>
            </Position>
            <AltitudeMeters>4.599999904632568359375</AltitudeMeters>
            <DistanceMeters>5412.0188830591</DistanceMeters>
          </Trackpoint>
          <Trackpoint>
            <Time>2021-03-13T08:29:25.000Z</Time>
            <Position>
              <LatitudeDegrees>36.72221942804753780364990234375</LatitudeDegrees>
              <LongitudeDegrees>-4.38827097415924072265625</LongitudeDegrees>
            </Position>
            <AltitudeMeters>4.599999904632568359375</AltitudeMeters>
            <DistanceMeters>5420.1023002293</DistanceMeters>
          </Trackpoint>
          <Trackpoint>
            <Time>2021-03-13T08:29:32.000Z</Time>
            <Position>
              <LatitudeDegrees>36.722119264304637908935546875</LatitudeDegrees>
              <LongitudeDegrees>-4.387686587870121002197265625</LongitudeDegrees>
            </Position>
            <AltitudeMeters>4.599999904632568359375</AltitudeMeters>
            <DistanceMeters>5473.4160133986</DistanceMeters>
          </Trackpoint>
          <Trackpoint>
            <Time>2021-03-13T08:29:33.000Z</Time>
            <Position>
              <LatitudeDegrees>36.72208540141582489013671875</LatitudeDegrees>
              <LongitudeDegrees>-4.3875942192971706390380859375</LongitudeDegrees>
            </Position>
            <AltitudeMeters>4.599999904632568359375</AltitudeMeters>
            <DistanceMeters>5482.4769987219</DistanceMeters>
          </Trackpoint>
          <Trackpoint>
            <Time>2021-03-13T08:29:37.000Z</Time>
            <Position>
              <LatitudeDegrees>36.72195489518344402313232421875</LatitudeDegrees>
              <LongitudeDegrees>-4.3872944824397563934326171875</LongitudeDegrees>
            </Position>
            <AltitudeMeters>4.19999980926513671875</AltitudeMeters>
            <DistanceMeters>5512.9079594265</DistanceMeters>
          </Trackpoint>
          <Trackpoint>
            <Time>2021-03-13T08:29:42.000Z</Time>
            <Position>
              <LatitudeDegrees>36.72177451662719249725341796875</LatitudeDegrees>
              <LongitudeDegrees>-4.38691503368318080902099609375</LongitudeDegrees>
            </Position>
            <AltitudeMeters>4.400000095367431640625</AltitudeMeters>
            <DistanceMeters>5552.2656568093</DistanceMeters>
          </Trackpoint>
          <Trackpoint>
            <Time>2021-03-13T08:29:45.000Z</Time>
            <Position>
              <LatitudeDegrees>36.72165867872536182403564453125</LatitudeDegrees>
              <LongitudeDegrees>-4.386669695377349853515625</LongitudeDegrees>
            </Position>
            <AltitudeMeters>4.400000095367431640625</AltitudeMeters>
            <DistanceMeters>5577.6682012229</DistanceMeters>
          </Trackpoint>
          <Trackpoint>
            <Time>2021-03-13T08:29:51.000Z</Time>
            <Position>
              <LatitudeDegrees>36.7214478738605976104736328125</LatitudeDegrees>
              <LongitudeDegrees>-4.38616476953029632568359375</LongitudeDegrees>
            </Position>
            <AltitudeMeters>4.400000095367431640625</AltitudeMeters>
            <DistanceMeters>5628.4590688915</DistanceMeters>
          </Trackpoint>
          <Trackpoint>
            <Time>2021-03-13T08:29:52.000Z</Time>
            <Position>
              <LatitudeDegrees>36.7214247398078441619873046875</LatitudeDegrees>
              <LongitudeDegrees>-4.3860782682895660400390625</LongitudeDegrees>
            </Position>
            <AltitudeMeters>4.400000095367431640625</AltitudeMeters>
            <DistanceMeters>5636.5948208748</DistanceMeters>
          </Trackpoint>
          <Trackpoint>
            <Time>2021-03-13T08:29:57.000Z</Time>
            <Position>
              <LatitudeDegrees>36.72135273925960063934326171875</LatitudeDegrees>
              <LongitudeDegrees>-4.38561483286321163177490234375</LongitudeDegrees>
            </Position>
            <AltitudeMeters>4.19999980926513671875</AltitudeMeters>
            <DistanceMeters>5678.7093484712</DistanceMeters>
          </Trackpoint>
          <Trackpoint>
            <Time>2021-03-13T08:29:58.000Z</Time>
            <Position>
              <LatitudeDegrees>36.72135340981185436248779296875</LatitudeDegrees>
              <LongitudeDegrees>-4.38552162609994411468505859375</LongitudeDegrees>
            </Position>
            <AltitudeMeters>4.19999980926513671875</AltitudeMeters>
            <DistanceMeters>5687.024593226</DistanceMeters>
          </Trackpoint>
          <Trackpoint>
            <Time>2021-03-13T08:30:06.000Z</Time>
            <Position>
              <LatitudeDegrees>36.72140001319348812103271484375</LatitudeDegrees>
              <LongitudeDegrees>-4.3847705237567424774169921875</LongitudeDegrees>
            </Position>
            <AltitudeMeters>4.19999980926513671875</AltitudeMeters>
            <DistanceMeters>5754.2340802021</DistanceMeters>
          </Trackpoint>
          <Trackpoint>
            <Time>2021-03-13T08:30:07.000Z</Time>
            <Position>
              <LatitudeDegrees>36.7214069701731204986572265625</LatitudeDegrees>
              <LongitudeDegrees>-4.3846769817173480987548828125</LongitudeDegrees>
            </Position>
            <AltitudeMeters>4.19999980926513671875</AltitudeMeters>
            <DistanceMeters>5762.6147683947</DistanceMeters>
          </Trackpoint>
          <Trackpoint>
            <Time>2021-03-13T08:30:14.000Z</Time>
            <Position>
              <LatitudeDegrees>36.721456088125705718994140625</LatitudeDegrees>
              <LongitudeDegrees>-4.38400902785360813140869140625</LongitudeDegrees>
            </Position>
            <AltitudeMeters>3.7999999523162841796875</AltitudeMeters>
            <DistanceMeters>5822.4561017254</DistanceMeters>
          </Trackpoint>
          <Trackpoint>
            <Time>2021-03-13T08:30:18.000Z</Time>
            <Position>
              <LatitudeDegrees>36.7214827425777912139892578125</LatitudeDegrees>
              <LongitudeDegrees>-4.38361910171806812286376953125</LongitudeDegrees>
            </Position>
            <AltitudeMeters>3.599999904632568359375</AltitudeMeters>
            <DistanceMeters>5857.3693355897</DistanceMeters>
          </Trackpoint>
          <Trackpoint>
            <Time>2021-03-13T08:30:25.000Z</Time>
            <Position>
              <LatitudeDegrees>36.721485592424869537353515625</LatitudeDegrees>
              <LongitudeDegrees>-4.38294486142694950103759765625</LongitudeDegrees>
            </Position>
            <AltitudeMeters>3.599999904632568359375</AltitudeMeters>
            <DistanceMeters>5917.5219963874</DistanceMeters>
          </Trackpoint>
          <Trackpoint>
            <Time>2021-03-13T08:30:27.000Z</Time>
            <Position>
              <LatitudeDegrees>36.72148165293037891387939453125</LatitudeDegrees>
              <LongitudeDegrees>-4.38274872489273548126220703125</LongitudeDegrees>
            </Position>
            <AltitudeMeters>3.599999904632568359375</AltitudeMeters>
            <DistanceMeters>5935.0254941405</DistanceMeters>
          </Trackpoint>
          <Trackpoint>
            <Time>2021-03-13T08:30:34.000Z</Time>
            <Position>
              <LatitudeDegrees>36.7214710079133510589599609375</LatitudeDegrees>
              <LongitudeDegrees>-4.38207984901964664459228515625</LongitudeDegrees>
            </Position>
            <AltitudeMeters>3.599999904632568359375</AltitudeMeters>
            <DistanceMeters>5994.7105169404</DistanceMeters>
          </Trackpoint>
          <Trackpoint>
            <Time>2021-03-13T08:30:37.000Z</Time>
            <Position>
              <LatitudeDegrees>36.72145063988864421844482421875</LatitudeDegrees>
              <LongitudeDegrees>-4.38178480602800846099853515625</LongitudeDegrees>
            </Position>
            <AltitudeMeters>3.599999904632568359375</AltitudeMeters>
            <DistanceMeters>6021.129994392</DistanceMeters>
          </Trackpoint>
          <Trackpoint>
            <Time>2021-03-13T08:30:44.000Z</Time>
            <Position>
              <LatitudeDegrees>36.72142230905592441558837890625</LatitudeDegrees>
              <LongitudeDegrees>-4.3810801394283771514892578125</LongitudeDegrees>
            </Position>
            <AltitudeMeters>3.599999904632568359375</AltitudeMeters>
            <DistanceMeters>6084.0753485595</DistanceMeters>
          </Trackpoint>
          <Trackpoint>
            <Time>2021-03-13T08:30:46.000Z</Time>
            <Position>
              <LatitudeDegrees>36.72140940092504024505615234375</LatitudeDegrees>
              <LongitudeDegrees>-4.3808840028941631317138671875</LongitudeDegrees>
            </Position>
            <AltitudeMeters>3.400000095367431640625</AltitudeMeters>
            <DistanceMeters>6101.6324180613</DistanceMeters>
          </Trackpoint>
          <Trackpoint>
            <Time>2021-03-13T08:30:52.000Z</Time>
            <Position>
              <LatitudeDegrees>36.7213962413370609283447265625</LatitudeDegrees>
              <LongitudeDegrees>-4.3802748061716556549072265625</LongitudeDegrees>
            </Position>
            <AltitudeMeters>3</AltitudeMeters>
            <DistanceMeters>6156.0013196852</DistanceMeters>
          </Trackpoint>
          <Trackpoint>
            <Time>2021-03-13T08:30:58.000Z</Time>
            <Position>
              <LatitudeDegrees>36.72141887247562408447265625</LatitudeDegrees>
              <LongitudeDegrees>-4.37967122532427310943603515625</LongitudeDegrees>
            </Position>
            <AltitudeMeters>2.599999904632568359375</AltitudeMeters>
            <DistanceMeters>6209.9082753623</DistanceMeters>
          </Trackpoint>
          <Trackpoint>
            <Time>2021-03-13T08:31:05.000Z</Time>
            <Position>
              <LatitudeDegrees>36.7214814014732837677001953125</LatitudeDegrees>
              <LongitudeDegrees>-4.378974102437496185302734375</LongitudeDegrees>
            </Position>
            <AltitudeMeters>2.599999904632568359375</AltitudeMeters>
            <DistanceMeters>6272.4898422545</DistanceMeters>
          </Trackpoint>
          <Trackpoint>
            <Time>2021-03-13T08:31:06.000Z</Time>
            <Position>
              <LatitudeDegrees>36.72148936428129673004150390625</LatitudeDegrees>
              <LongitudeDegrees>-4.3788723461329936981201171875</LongitudeDegrees>
            </Position>
            <AltitudeMeters>2.599999904632568359375</AltitudeMeters>
            <DistanceMeters>6281.610426896</DistanceMeters>
          </Trackpoint>
          <Trackpoint>
            <Time>2021-03-13T08:31:14.000Z</Time>
            <Position>
              <LatitudeDegrees>36.72154334373772144317626953125</LatitudeDegrees>
              <LongitudeDegrees>-4.37809861265122890472412109375</LongitudeDegrees>
            </Position>
            <AltitudeMeters>2</AltitudeMeters>
            <DistanceMeters>6350.8994344119</DistanceMeters>
          </Trackpoint>
          <Trackpoint>
            <Time>2021-03-13T08:31:16.000Z</Time>
            <Position>
              <LatitudeDegrees>36.72155692242085933685302734375</LatitudeDegrees>
              <LongitudeDegrees>-4.3779218383133411407470703125</LongitudeDegrees>
            </Position>
            <AltitudeMeters>2</AltitudeMeters>
            <DistanceMeters>6366.7424140823</DistanceMeters>
          </Trackpoint>
          <Trackpoint>
            <Time>2021-03-13T08:31:23.000Z</Time>
            <Position>
              <LatitudeDegrees>36.72157519496977329254150390625</LatitudeDegrees>
              <LongitudeDegrees>-4.3772710673511028289794921875</LongitudeDegrees>
            </Position>
            <AltitudeMeters>1.7999999523162841796875</AltitudeMeters>
            <DistanceMeters>6424.8359993554</DistanceMeters>
          </Trackpoint>
          <Trackpoint>
            <Time>2021-03-13T08:31:24.000Z</Time>
            <Position>
              <LatitudeDegrees>36.72157921828329563140869140625</LatitudeDegrees>
              <LongitudeDegrees>-4.377176351845264434814453125</LongitudeDegrees>
            </Position>
            <AltitudeMeters>1.60000002384185791015625</AltitudeMeters>
            <DistanceMeters>6433.2971131147</DistanceMeters>
          </Trackpoint>
          <Trackpoint>
            <Time>2021-03-13T08:31:31.000Z</Time>
            <Position>
              <LatitudeDegrees>36.7215885221958160400390625</LatitudeDegrees>
              <LongitudeDegrees>-4.37646212987601757049560546875</LongitudeDegrees>
            </Position>
            <AltitudeMeters>1.39999997615814208984375</AltitudeMeters>
            <DistanceMeters>6497.0241986401</DistanceMeters>
          </Trackpoint>
          <Trackpoint>
            <Time>2021-03-13T08:31:38.000Z</Time>
            <Position>
              <LatitudeDegrees>36.72156832180917263031005859375</LatitudeDegrees>
              <LongitudeDegrees>-4.37574832700192928314208984375</LongitudeDegrees>
            </Position>
            <AltitudeMeters>1.39999997615814208984375</AltitudeMeters>
            <DistanceMeters>6560.7451908089</DistanceMeters>
          </Trackpoint>
          <Trackpoint>
            <Time>2021-03-13T08:31:42.000Z</Time>
            <Position>
              <LatitudeDegrees>36.72155373729765415191650390625</LatitudeDegrees>
              <LongitudeDegrees>-4.37534607946872711181640625</LongitudeDegrees>
            </Position>
            <AltitudeMeters>1.39999997615814208984375</AltitudeMeters>
            <DistanceMeters>6596.6681797488</DistanceMeters>
          </Trackpoint>
          <Trackpoint>
            <Time>2021-03-13T08:31:49.000Z</Time>
            <Position>
              <LatitudeDegrees>36.72150528989732265472412109375</LatitudeDegrees>
              <LongitudeDegrees>-4.37463738955557346343994140625</LongitudeDegrees>
            </Position>
            <AltitudeMeters>1.39999997615814208984375</AltitudeMeters>
            <DistanceMeters>6660.1229753627</DistanceMeters>
          </Trackpoint>
          <Trackpoint>
            <Time>2021-03-13T08:31:53.000Z</Time>
            <Position>
              <LatitudeDegrees>36.7214763723313808441162109375</LatitudeDegrees>
              <LongitudeDegrees>-4.3742311187088489532470703125</LongitudeDegrees>
            </Position>
            <AltitudeMeters>1.60000002384185791015625</AltitudeMeters>
            <DistanceMeters>6696.5108869403</DistanceMeters>
          </Trackpoint>
          <Trackpoint>
            <Time>2021-03-13T08:32:00.000Z</Time>
            <Position>
              <LatitudeDegrees>36.7214361391961574554443359375</LatitudeDegrees>
              <LongitudeDegrees>-4.3735149689018726348876953125</LongitudeDegrees>
            </Position>
            <AltitudeMeters>1.39999997615814208984375</AltitudeMeters>
            <DistanceMeters>6760.5583989619</DistanceMeters>
          </Trackpoint>
          <Trackpoint>
            <Time>2021-03-13T08:32:01.000Z</Time>
            <Position>
              <LatitudeDegrees>36.7214314453303813934326171875</LatitudeDegrees>
              <LongitudeDegrees>-4.37341430224478244781494140625</LongitudeDegrees>
            </Position>
            <AltitudeMeters>1.39999997615814208984375</AltitudeMeters>
            <DistanceMeters>6769.5543727886</DistanceMeters>
          </Trackpoint>
          <Trackpoint>
            <Time>2021-03-13T08:32:07.000Z</Time>
            <Position>
              <LatitudeDegrees>36.72134083695709705352783203125</LatitudeDegrees>
              <LongitudeDegrees>-4.37281164340674877166748046875</LongitudeDegrees>
            </Position>
            <AltitudeMeters>1.2000000476837158203125</AltitudeMeters>
            <DistanceMeters>6824.257910451</DistanceMeters>
          </Trackpoint>
          <Trackpoint>
            <Time>2021-03-13T08:32:14.000Z</Time>
            <Position>
              <LatitudeDegrees>36.72116649337112903594970703125</LatitudeDegrees>
              <LongitudeDegrees>-4.3721334636211395263671875</LongitudeDegrees>
            </Position>
            <AltitudeMeters>1</AltitudeMeters>
            <DistanceMeters>6887.7970382153</DistanceMeters>
          </Trackpoint>
          <Trackpoint>
            <Time>2021-03-13T08:32:21.000Z</Time>
            <Position>
              <LatitudeDegrees>36.72099483199417591094970703125</LatitudeDegrees>
              <LongitudeDegrees>-4.37150674872100353240966796875</LongitudeDegrees>
            </Position>
            <AltitudeMeters>0.800000011920928955078125</AltitudeMeters>
            <DistanceMeters>6946.8836374992</DistanceMeters>
          </Trackpoint>
          <Trackpoint>
            <Time>2021-03-13T08:32:26.000Z</Time>
            <Position>
              <LatitudeDegrees>36.7208576202392578125</LatitudeDegrees>
              <LongitudeDegrees>-4.3710413016378879547119140625</LongitudeDegrees>
            </Position>
            <AltitudeMeters>0.60000002384185791015625</AltitudeMeters>
            <DistanceMeters>6991.127936925</DistanceMeters>
          </Trackpoint>
          <Trackpoint>
            <Time>2021-03-13T08:32:29.000Z</Time>
            <Position>
              <LatitudeDegrees>36.720769107341766357421875</LatitudeDegrees>
              <LongitudeDegrees>-4.3707616813480854034423828125</LongitudeDegrees>
            </Position>
            <AltitudeMeters>0.60000002384185791015625</AltitudeMeters>
            <DistanceMeters>7017.9490481964</DistanceMeters>
          </Trackpoint>
          <Trackpoint>
            <Time>2021-03-13T08:32:36.000Z</Time>
            <Position>
              <LatitudeDegrees>36.72054019756615161895751953125</LatitudeDegrees>
              <LongitudeDegrees>-4.37010772526264190673828125</LongitudeDegrees>
            </Position>
            <AltitudeMeters>0.4000000059604644775390625</AltitudeMeters>
            <DistanceMeters>7081.6123371529</DistanceMeters>
          </Trackpoint>
          <Trackpoint>
            <Time>2021-03-13T08:32:39.000Z</Time>
            <Position>
              <LatitudeDegrees>36.7204514332115650177001953125</LatitudeDegrees>
              <LongitudeDegrees>-4.3698245845735073089599609375</LongitudeDegrees>
            </Position>
            <AltitudeMeters>0.4000000059604644775390625</AltitudeMeters>
            <DistanceMeters>7108.7359312725</DistanceMeters>
          </Trackpoint>
          <Trackpoint>
            <Time>2021-03-13T08:32:46.000Z</Time>
            <Position>
              <LatitudeDegrees>36.72024616040289402008056640625</LatitudeDegrees>
              <LongitudeDegrees>-4.36918714083731174468994140625</LongitudeDegrees>
            </Position>
            <AltitudeMeters>0.4000000059604644775390625</AltitudeMeters>
            <DistanceMeters>7170.0235946958</DistanceMeters>
          </Trackpoint>
          <Trackpoint>
            <Time>2021-03-13T08:32:54.000Z</Time>
            <Position>
              <LatitudeDegrees>36.72006444074213504791259765625</LatitudeDegrees>
              <LongitudeDegrees>-4.36846964992582798004150390625</LongitudeDegrees>
            </Position>
            <AltitudeMeters>1</AltitudeMeters>
            <DistanceMeters>7237.1545712291</DistanceMeters>
          </Trackpoint>
          <Trackpoint>
            <Time>2021-03-13T08:33:01.000Z</Time>
            <Position>
              <LatitudeDegrees>36.7200088687241077423095703125</LatitudeDegrees>
              <LongitudeDegrees>-4.36783983372151851654052734375</LongitudeDegrees>
            </Position>
            <AltitudeMeters>1.7999999523162841796875</AltitudeMeters>
            <DistanceMeters>7293.6837264665</DistanceMeters>
          </Trackpoint>
          <Trackpoint>
            <Time>2021-03-13T08:33:09.000Z</Time>
            <Position>
              <LatitudeDegrees>36.719958074390888214111328125</LatitudeDegrees>
              <LongitudeDegrees>-4.36710943467915058135986328125</LongitudeDegrees>
            </Position>
            <AltitudeMeters>2.599999904632568359375</AltitudeMeters>
            <DistanceMeters>7359.0917950605</DistanceMeters>
          </Trackpoint>
          <Trackpoint>
            <Time>2021-03-13T08:33:11.000Z</Time>
            <Position>
              <LatitudeDegrees>36.71994633972644805908203125</LatitudeDegrees>
              <LongitudeDegrees>-4.3669267930090427398681640625</LongitudeDegrees>
            </Position>
            <AltitudeMeters>2.7999999523162841796875</AltitudeMeters>
            <DistanceMeters>7375.4385997064</DistanceMeters>
          </Trackpoint>
          <Trackpoint>
            <Time>2021-03-13T08:33:13.000Z</Time>
            <Position>
              <LatitudeDegrees>36.71993963420391082763671875</LatitudeDegrees>
              <LongitudeDegrees>-4.36674289405345916748046875</LongitudeDegrees>
            </Position>
            <AltitudeMeters>2.7999999523162841796875</AltitudeMeters>
            <DistanceMeters>7391.8622842338</DistanceMeters>
          </Trackpoint>
          <Trackpoint>
            <Time>2021-03-13T08:33:19.000Z</Time>
            <Position>
              <LatitudeDegrees>36.719900071620941162109375</LatitudeDegrees>
              <LongitudeDegrees>-4.366192035377025604248046875</LongitudeDegrees>
            </Position>
            <AltitudeMeters>3</AltitudeMeters>
            <DistanceMeters>7441.2046711915</DistanceMeters>
          </Trackpoint>
          <Trackpoint>
            <Time>2021-03-13T08:33:27.000Z</Time>
            <Position>
              <LatitudeDegrees>36.71984835527837276458740234375</LatitudeDegrees>
              <LongitudeDegrees>-4.36542467214167118072509765625</LongitudeDegrees>
            </Position>
            <AltitudeMeters>3.7999999523162841796875</AltitudeMeters>
            <DistanceMeters>7509.9074084563</DistanceMeters>
          </Trackpoint>
          <Trackpoint>
            <Time>2021-03-13T08:33:28.000Z</Time>
            <Position>
              <LatitudeDegrees>36.7198424041271209716796875</LatitudeDegrees>
              <LongitudeDegrees>-4.36533079482614994049072265625</LongitudeDegrees>
            </Position>
            <AltitudeMeters>4</AltitudeMeters>
            <DistanceMeters>7518.3090813589</DistanceMeters>
          </Trackpoint>
          <Trackpoint>
            <Time>2021-03-13T08:33:35.000Z</Time>
            <Position>
              <LatitudeDegrees>36.71978029422461986541748046875</LatitudeDegrees>
              <LongitudeDegrees>-4.3646630086004734039306640625</LongitudeDegrees>
            </Position>
            <AltitudeMeters>3.2000000476837158203125</AltitudeMeters>
            <DistanceMeters>7578.2862217755</DistanceMeters>
          </Trackpoint>
          <Trackpoint>
            <Time>2021-03-13T08:33:37.000Z</Time>
            <Position>
              <LatitudeDegrees>36.71975791454315185546875</LatitudeDegrees>
              <LongitudeDegrees>-4.36448070220649242401123046875</LongitudeDegrees>
            </Position>
            <AltitudeMeters>3.2000000476837158203125</AltitudeMeters>
            <DistanceMeters>7594.7403930382</DistanceMeters>
          </Trackpoint>
          <Trackpoint>
            <Time>2021-03-13T08:33:40.000Z</Time>
            <Position>
              <LatitudeDegrees>36.71973637305200099945068359375</LatitudeDegrees>
              <LongitudeDegrees>-4.36420954763889312744140625</LongitudeDegrees>
            </Position>
            <AltitudeMeters>3</AltitudeMeters>
            <DistanceMeters>7619.0501508074</DistanceMeters>
          </Trackpoint>
          <Trackpoint>
            <Time>2021-03-13T08:33:44.000Z</Time>
            <Position>
              <LatitudeDegrees>36.71970636583864688873291015625</LatitudeDegrees>
              <LongitudeDegrees>-4.3638776242733001708984375</LongitudeDegrees>
            </Position>
            <AltitudeMeters>2.7999999523162841796875</AltitudeMeters>
            <DistanceMeters>7648.8506860033</DistanceMeters>
          </Trackpoint>
          <Trackpoint>
            <Time>2021-03-13T08:33:45.000Z</Time>
            <Position>
              <LatitudeDegrees>36.71970091760158538818359375</LatitudeDegrees>
              <LongitudeDegrees>-4.36380294151604175567626953125</LongitudeDegrees>
            </Position>
            <AltitudeMeters>2.7999999523162841796875</AltitudeMeters>
            <DistanceMeters>7655.5418084061</DistanceMeters>
          </Trackpoint>
          <Trackpoint>
            <Time>2021-03-13T08:33:46.000Z</Time>
            <Position>
              <LatitudeDegrees>36.71969781629741191864013671875</LatitudeDegrees>
              <LongitudeDegrees>-4.3637453578412532806396484375</LongitudeDegrees>
            </Position>
            <AltitudeMeters>2.599999904632568359375</AltitudeMeters>
            <DistanceMeters>7660.6908184507</DistanceMeters>
          </Trackpoint>
          <Trackpoint>
            <Time>2021-03-13T08:33:50.000Z</Time>
            <Position>
              <LatitudeDegrees>36.71968256123363971710205078125</LatitudeDegrees>
              <LongitudeDegrees>-4.36347487382590770721435546875</LongitudeDegrees>
            </Position>
            <AltitudeMeters>2.599999904632568359375</AltitudeMeters>
            <DistanceMeters>7684.8821638903</DistanceMeters>
          </Trackpoint>
          <Trackpoint>
            <Time>2021-03-13T08:33:52.000Z</Time>
            <Position>
              <LatitudeDegrees>36.7196839861571788787841796875</LatitudeDegrees>
              <LongitudeDegrees>-4.36339013278484344482421875</LongitudeDegrees>
            </Position>
            <AltitudeMeters>2.599999904632568359375</AltitudeMeters>
            <DistanceMeters>7692.4444039103</DistanceMeters>
          </Trackpoint>
          <Trackpoint>
            <Time>2021-03-13T08:33:56.000Z</Time>
            <Position>
              <LatitudeDegrees>36.71968155540525913238525390625</LatitudeDegrees>
              <LongitudeDegrees>-4.36334663070738315582275390625</LongitudeDegrees>
            </Position>
            <AltitudeMeters>2.599999904632568359375</AltitudeMeters>
            <DistanceMeters>7696.3347005725</DistanceMeters>
          </Trackpoint>
          <Trackpoint>
            <Time>2021-03-13T08:34:05.000Z</Time>
            <Position>
              <LatitudeDegrees>36.719677448272705078125</LatitudeDegrees>
              <LongitudeDegrees>-4.3633269332349300384521484375</LongitudeDegrees>
            </Position>
            <AltitudeMeters>2.7999999523162841796875</AltitudeMeters>
            <DistanceMeters>7698.1476947329</DistanceMeters>
          </Trackpoint>
          <Trackpoint>
            <Time>2021-03-13T08:34:06.000Z</Time>
            <Position>
              <LatitudeDegrees>36.7196799628436565399169921875</LatitudeDegrees>
              <LongitudeDegrees>-4.3633024580776691436767578125</LongitudeDegrees>
            </Position>
            <AltitudeMeters>2.7999999523162841796875</AltitudeMeters>
            <DistanceMeters>7700.3477222268</DistanceMeters>
          </Trackpoint>
          <Trackpoint>
            <Time>2021-03-13T08:34:09.000Z</Time>
            <Position>
              <LatitudeDegrees>36.7196766100823879241943359375</LatitudeDegrees>
              <LongitudeDegrees>-4.36319894157350063323974609375</LongitudeDegrees>
            </Position>
            <AltitudeMeters>2.7999999523162841796875</AltitudeMeters>
            <DistanceMeters>7709.591237971</DistanceMeters>
          </Trackpoint>
          <Trackpoint>
            <Time>2021-03-13T08:34:11.000Z</Time>
            <Position>
              <LatitudeDegrees>36.71967753209173679351806640625</LatitudeDegrees>
              <LongitudeDegrees>-4.3630939163267612457275390625</LongitudeDegrees>
            </Position>
            <AltitudeMeters>2.599999904632568359375</AltitudeMeters>
            <DistanceMeters>7718.9618549913</DistanceMeters>
          </Trackpoint>
          <Trackpoint>
            <Time>2021-03-13T08:34:15.000Z</Time>
            <Position>
              <LatitudeDegrees>36.7196707427501678466796875</LatitudeDegrees>
              <LongitudeDegrees>-4.3628223426640033721923828125</LongitudeDegrees>
            </Position>
            <AltitudeMeters>2.400000095367431640625</AltitudeMeters>
            <DistanceMeters>7743.2024229376</DistanceMeters>
          </Trackpoint>
          <Trackpoint>
            <Time>2021-03-13T08:34:21.000Z</Time>
            <Position>
              <LatitudeDegrees>36.7196278274059295654296875</LatitudeDegrees>
              <LongitudeDegrees>-4.3622978031635284423828125</LongitudeDegrees>
            </Position>
            <AltitudeMeters>2.2000000476837158203125</AltitudeMeters>
            <DistanceMeters>7790.2430461542</DistanceMeters>
          </Trackpoint>
          <Trackpoint>
            <Time>2021-03-13T08:34:24.000Z</Time>
            <Position>
              <LatitudeDegrees>36.71960963867604732513427734375</LatitudeDegrees>
              <LongitudeDegrees>-4.3620163388550281524658203125</LongitudeDegrees>
            </Position>
            <AltitudeMeters>1.60000002384185791015625</AltitudeMeters>
            <DistanceMeters>7815.4357016868</DistanceMeters>
          </Trackpoint>
          <Trackpoint>
            <Time>2021-03-13T08:34:27.000Z</Time>
            <Position>
              <LatitudeDegrees>36.71957560814917087554931640625</LatitudeDegrees>
              <LongitudeDegrees>-4.3617179431021213531494140625</LongitudeDegrees>
            </Position>
            <AltitudeMeters>1.39999997615814208984375</AltitudeMeters>
            <DistanceMeters>7842.3257433598</DistanceMeters>
          </Trackpoint>
          <Trackpoint>
            <Time>2021-03-13T08:34:33.000Z</Time>
            <Position>
              <LatitudeDegrees>36.71949866227805614471435546875</LatitudeDegrees>
              <LongitudeDegrees>-4.361132048070430755615234375</LongitudeDegrees>
            </Position>
            <AltitudeMeters>1.39999997615814208984375</AltitudeMeters>
            <DistanceMeters>7895.2942510913</DistanceMeters>
          </Trackpoint>
          <Trackpoint>
            <Time>2021-03-13T08:34:39.000Z</Time>
            <Position>
              <LatitudeDegrees>36.71942221932113170623779296875</LatitudeDegrees>
              <LongitudeDegrees>-4.3605340830981731414794921875</LongitudeDegrees>
            </Position>
            <AltitudeMeters>1.39999997615814208984375</AltitudeMeters>
            <DistanceMeters>7949.3169173167</DistanceMeters>
          </Trackpoint>
          <Trackpoint>
            <Time>2021-03-13T08:34:45.000Z</Time>
            <Position>
              <LatitudeDegrees>36.7193661443889141082763671875</LatitudeDegrees>
              <LongitudeDegrees>-4.35993184335529804229736328125</LongitudeDegrees>
            </Position>
            <AltitudeMeters>0.60000002384185791015625</AltitudeMeters>
            <DistanceMeters>8003.4080730519</DistanceMeters>
          </Trackpoint>
          <Trackpoint>
            <Time>2021-03-13T08:34:47.000Z</Time>
            <Position>
              <LatitudeDegrees>36.719341166317462921142578125</LatitudeDegrees>
              <LongitudeDegrees>-4.35973285697400569915771484375</LongitudeDegrees>
            </Position>
            <AltitudeMeters>0.4000000059604644775390625</AltitudeMeters>
            <DistanceMeters>8021.3774212171</DistanceMeters>
          </Trackpoint>
          <Trackpoint>
            <Time>2021-03-13T08:34:49.000Z</Time>
            <Position>
              <LatitudeDegrees>36.719323731958866119384765625</LatitudeDegrees>
              <LongitudeDegrees>-4.35953571461141109466552734375</LongitudeDegrees>
            </Position>
            <AltitudeMeters>0.4000000059604644775390625</AltitudeMeters>
            <DistanceMeters>8039.072558987</DistanceMeters>
          </Trackpoint>
          <Trackpoint>
            <Time>2021-03-13T08:34:50.000Z</Time>
            <Position>
              <LatitudeDegrees>36.71931342221796512603759765625</LatitudeDegrees>
              <LongitudeDegrees>-4.35943848453462123870849609375</LongitudeDegrees>
            </Position>
            <AltitudeMeters>0.4000000059604644775390625</AltitudeMeters>
            <DistanceMeters>8047.8227600229</DistanceMeters>
          </Trackpoint>
          <Trackpoint>
            <Time>2021-03-13T08:34:56.000Z</Time>
            <Position>
              <LatitudeDegrees>36.71922080218791961669921875</LatitudeDegrees>
              <LongitudeDegrees>-4.35883104801177978515625</LongitudeDegrees>
            </Position>
            <AltitudeMeters>0</AltitudeMeters>
            <DistanceMeters>8102.9880389784</DistanceMeters>
          </Trackpoint>
          <Trackpoint>
            <Time>2021-03-13T08:35:02.000Z</Time>
            <Position>
              <LatitudeDegrees>36.71913220547139644622802734375</LatitudeDegrees>
              <LongitudeDegrees>-4.35825864784419536590576171875</LongitudeDegrees>
            </Position>
            <AltitudeMeters>0</AltitudeMeters>
            <DistanceMeters>8154.9991729834</DistanceMeters>
          </Trackpoint>
          <Trackpoint>
            <Time>2021-03-13T08:35:08.000Z</Time>
            <Position>
              <LatitudeDegrees>36.71905986964702606201171875</LatitudeDegrees>
              <LongitudeDegrees>-4.357703514397144317626953125</LongitudeDegrees>
            </Position>
            <AltitudeMeters>0.20000000298023223876953125</AltitudeMeters>
            <DistanceMeters>8205.1766075949</DistanceMeters>
          </Trackpoint>
          <Trackpoint>
            <Time>2021-03-13T08:35:14.000Z</Time>
            <Position>
              <LatitudeDegrees>36.71899281442165374755859375</LatitudeDegrees>
              <LongitudeDegrees>-4.35715734958648681640625</LongitudeDegrees>
            </Position>
            <AltitudeMeters>0.4000000059604644775390625</AltitudeMeters>
            <DistanceMeters>8254.4721221123</DistanceMeters>
          </Trackpoint>
          <Trackpoint>
            <Time>2021-03-13T08:35:21.000Z</Time>
            <Position>
              <LatitudeDegrees>36.718894578516483306884765625</LatitudeDegrees>
              <LongitudeDegrees>-4.3565533496439456939697265625</LongitudeDegrees>
            </Position>
            <AltitudeMeters>0.4000000059604644775390625</AltitudeMeters>
            <DistanceMeters>8309.4573742657</DistanceMeters>
          </Trackpoint>
          <Trackpoint>
            <Time>2021-03-13T08:35:28.000Z</Time>
            <Position>
              <LatitudeDegrees>36.71875049360096454620361328125</LatitudeDegrees>
              <LongitudeDegrees>-4.355919845402240753173828125</LongitudeDegrees>
            </Position>
            <AltitudeMeters>0.60000002384185791015625</AltitudeMeters>
            <DistanceMeters>8368.2080967284</DistanceMeters>
          </Trackpoint>
          <Trackpoint>
            <Time>2021-03-13T08:35:35.000Z</Time>
            <Position>
              <LatitudeDegrees>36.718563325703144073486328125</LatitudeDegrees>
              <LongitudeDegrees>-4.35529530979692935943603515625</LongitudeDegrees>
            </Position>
            <AltitudeMeters>0.4000000059604644775390625</AltitudeMeters>
            <DistanceMeters>8427.6946681242</DistanceMeters>
          </Trackpoint>
          <Trackpoint>
            <Time>2021-03-13T08:35:36.000Z</Time>
            <Position>
              <LatitudeDegrees>36.718534491956233978271484375</LatitudeDegrees>
              <LongitudeDegrees>-4.355207718908786773681640625</LongitudeDegrees>
            </Position>
            <AltitudeMeters>0.4000000059604644775390625</AltitudeMeters>
            <DistanceMeters>8436.1429652433</DistanceMeters>
          </Trackpoint>
          <Trackpoint>
            <Time>2021-03-13T08:35:43.000Z</Time>
            <Position>
              <LatitudeDegrees>36.71835872344672679901123046875</LatitudeDegrees>
              <LongitudeDegrees>-4.35459441505372524261474609375</LongitudeDegrees>
            </Position>
            <AltitudeMeters>0.60000002384185791015625</AltitudeMeters>
            <DistanceMeters>8494.2527140449</DistanceMeters>
          </Trackpoint>
          <Trackpoint>
            <Time>2021-03-13T08:35:51.000Z</Time>
            <Position>
              <LatitudeDegrees>36.71818437986075878143310546875</LatitudeDegrees>
              <LongitudeDegrees>-4.353883378207683563232421875</LongitudeDegrees>
            </Position>
            <AltitudeMeters>0.800000011920928955078125</AltitudeMeters>
            <DistanceMeters>8560.5914343759</DistanceMeters>
          </Trackpoint>
          <Trackpoint>
            <Time>2021-03-13T08:35:53.000Z</Time>
            <Position>
              <LatitudeDegrees>36.71814682893455028533935546875</LatitudeDegrees>
              <LongitudeDegrees>-4.3537085317075252532958984375</LongitudeDegrees>
            </Position>
            <AltitudeMeters>0.800000011920928955078125</AltitudeMeters>
            <DistanceMeters>8576.7409442091</DistanceMeters>
          </Trackpoint>
          <Trackpoint>
            <Time>2021-03-13T08:35:59.000Z</Time>
            <Position>
              <LatitudeDegrees>36.71805940568447113037109375</LatitudeDegrees>
              <LongitudeDegrees>-4.35324174351990222930908203125</LongitudeDegrees>
            </Position>
            <AltitudeMeters>1</AltitudeMeters>
            <DistanceMeters>8619.5085613272</DistanceMeters>
          </Trackpoint>
          <Trackpoint>
            <Time>2021-03-13T08:36:01.000Z</Time>
            <Position>
              <LatitudeDegrees>36.718033254146575927734375</LatitudeDegrees>
              <LongitudeDegrees>-4.353131689131259918212890625</LongitudeDegrees>
            </Position>
            <AltitudeMeters>1.2000000476837158203125</AltitudeMeters>
            <DistanceMeters>8629.7494259304</DistanceMeters>
          </Trackpoint>
          <Trackpoint>
            <Time>2021-03-13T08:36:03.000Z</Time>
            <Position>
              <LatitudeDegrees>36.71801640652120113372802734375</LatitudeDegrees>
              <LongitudeDegrees>-4.35305650345981121063232421875</LongitudeDegrees>
            </Position>
            <AltitudeMeters>1.39999997615814208984375</AltitudeMeters>
            <DistanceMeters>8636.7143071682</DistanceMeters>
          </Trackpoint>
          <Trackpoint>
            <Time>2021-03-13T08:36:06.000Z</Time>
            <Position>
              <LatitudeDegrees>36.718012131750583648681640625</LatitudeDegrees>
              <LongitudeDegrees>-4.35302498750388622283935546875</LongitudeDegrees>
            </Position>
            <AltitudeMeters>1.39999997615814208984375</AltitudeMeters>
            <DistanceMeters>8639.5666919381</DistanceMeters>
          </Trackpoint>
          <Trackpoint>
            <Time>2021-03-13T08:36:14.000Z</Time>
            <Position>
              <LatitudeDegrees>36.718012131750583648681640625</LatitudeDegrees>
              <LongitudeDegrees>-4.35302498750388622283935546875</LongitudeDegrees>
            </Position>
            <AltitudeMeters>1.60000002384185791015625</AltitudeMeters>
            <DistanceMeters>8639.5666919381</DistanceMeters>
          </Trackpoint>
          <Trackpoint>
            <Time>2021-03-13T08:36:22.000Z</Time>
            <Position>
              <LatitudeDegrees>36.718012131750583648681640625</LatitudeDegrees>
              <LongitudeDegrees>-4.35302498750388622283935546875</LongitudeDegrees>
            </Position>
            <AltitudeMeters>1.39999997615814208984375</AltitudeMeters>
            <DistanceMeters>8639.5666919381</DistanceMeters>
          </Trackpoint>
          <Trackpoint>
            <Time>2021-03-13T08:36:31.000Z</Time>
            <Position>
              <LatitudeDegrees>36.717989332973957061767578125</LatitudeDegrees>
              <LongitudeDegrees>-4.3529618717730045318603515625</LongitudeDegrees>
            </Position>
            <AltitudeMeters>1.39999997615814208984375</AltitudeMeters>
            <DistanceMeters>8645.7426973542</DistanceMeters>
          </Trackpoint>
          <Trackpoint>
            <Time>2021-03-13T08:36:34.000Z</Time>
            <Position>
              <LatitudeDegrees>36.717967875301837921142578125</LatitudeDegrees>
              <LongitudeDegrees>-4.35284745879471302032470703125</LongitudeDegrees>
            </Position>
            <AltitudeMeters>1.39999997615814208984375</AltitudeMeters>
            <DistanceMeters>8656.226258791</DistanceMeters>
          </Trackpoint>
          <Trackpoint>
            <Time>2021-03-13T08:36:36.000Z</Time>
            <Position>
              <LatitudeDegrees>36.71795882284641265869140625</LatitudeDegrees>
              <LongitudeDegrees>-4.35272558592259883880615234375</LongitudeDegrees>
            </Position>
            <AltitudeMeters>1.2000000476837158203125</AltitudeMeters>
            <DistanceMeters>8667.1456511444</DistanceMeters>
          </Trackpoint>
          <Trackpoint>
            <Time>2021-03-13T08:36:40.000Z</Time>
            <Position>
              <LatitudeDegrees>36.71790325082838535308837890625</LatitudeDegrees>
              <LongitudeDegrees>-4.352428950369358062744140625</LongitudeDegrees>
            </Position>
            <AltitudeMeters>1</AltitudeMeters>
            <DistanceMeters>8694.3241220946</DistanceMeters>
          </Trackpoint>
          <Trackpoint>
            <Time>2021-03-13T08:36:45.000Z</Time>
            <Position>
              <LatitudeDegrees>36.71783720143139362335205078125</LatitudeDegrees>
              <LongitudeDegrees>-4.35193886049091815948486328125</LongitudeDegrees>
            </Position>
            <AltitudeMeters>1</AltitudeMeters>
            <DistanceMeters>8738.6628171867</DistanceMeters>
          </Trackpoint>
          <Trackpoint>
            <Time>2021-03-13T08:36:51.000Z</Time>
            <Position>
              <LatitudeDegrees>36.71776209957897663116455078125</LatitudeDegrees>
              <LongitudeDegrees>-4.35136981308460235595703125</LongitudeDegrees>
            </Position>
            <AltitudeMeters>0.20000000298023223876953125</AltitudeMeters>
            <DistanceMeters>8790.1158124505</DistanceMeters>
          </Trackpoint>
          <Trackpoint>
            <Time>2021-03-13T08:36:52.000Z</Time>
            <Position>
              <LatitudeDegrees>36.7177494429051876068115234375</LatitudeDegrees>
              <LongitudeDegrees>-4.3512833118438720703125</LongitudeDegrees>
            </Position>
            <AltitudeMeters>0</AltitudeMeters>
            <DistanceMeters>8797.9611295915</DistanceMeters>
          </Trackpoint>
          <Trackpoint>
            <Time>2021-03-13T08:36:56.000Z</Time>
            <Position>
              <LatitudeDegrees>36.71768448315560817718505859375</LatitudeDegrees>
              <LongitudeDegrees>-4.3509156815707683563232421875</LongitudeDegrees>
            </Position>
            <AltitudeMeters>-0.20000000298023223876953125</AltitudeMeters>
            <DistanceMeters>8831.5479316079</DistanceMeters>
          </Trackpoint>
          <Trackpoint>
            <Time>2021-03-13T08:37:03.000Z</Time>
            <Position>
              <LatitudeDegrees>36.7175744287669658660888671875</LatitudeDegrees>
              <LongitudeDegrees>-4.3502699397504329681396484375</LongitudeDegrees>
            </Position>
            <AltitudeMeters>-0.60000002384185791015625</AltitudeMeters>
            <DistanceMeters>8890.4479391509</DistanceMeters>
          </Trackpoint>
          <Trackpoint>
            <Time>2021-03-13T08:37:06.000Z</Time>
            <Position>
              <LatitudeDegrees>36.71753235161304473876953125</LatitudeDegrees>
              <LongitudeDegrees>-4.34998956508934497833251953125</LongitudeDegrees>
            </Position>
            <AltitudeMeters>-1</AltitudeMeters>
            <DistanceMeters>8915.8973635622</DistanceMeters>
          </Trackpoint>
          <Trackpoint>
            <Time>2021-03-13T08:37:11.000Z</Time>
            <Position>
              <LatitudeDegrees>36.71745582483708858489990234375</LatitudeDegrees>
              <LongitudeDegrees>-4.34953811578452587127685546875</LongitudeDegrees>
            </Position>
            <AltitudeMeters>-0.60000002384185791015625</AltitudeMeters>
            <DistanceMeters>8957.0659808304</DistanceMeters>
          </Trackpoint>
          <Trackpoint>
            <Time>2021-03-13T08:37:17.000Z</Time>
            <Position>
              <LatitudeDegrees>36.7173739336431026458740234375</LatitudeDegrees>
              <LongitudeDegrees>-4.34899765066802501678466796875</LongitudeDegrees>
            </Position>
            <AltitudeMeters>0.20000000298023223876953125</AltitudeMeters>
            <DistanceMeters>9006.1397119586</DistanceMeters>
          </Trackpoint>
          <Trackpoint>
            <Time>2021-03-13T08:37:19.000Z</Time>
            <Position>
              <LatitudeDegrees>36.71734635718166828155517578125</LatitudeDegrees>
              <LongitudeDegrees>-4.34881777502596378326416015625</LongitudeDegrees>
            </Position>
            <AltitudeMeters>0.20000000298023223876953125</AltitudeMeters>
            <DistanceMeters>9022.4793337456</DistanceMeters>
          </Trackpoint>
          <Trackpoint>
            <Time>2021-03-13T08:37:27.000Z</Time>
            <Position>
              <LatitudeDegrees>36.71722398139536380767822265625</LatitudeDegrees>
              <LongitudeDegrees>-4.34812123887240886688232421875</LongitudeDegrees>
            </Position>
            <AltitudeMeters>1</AltitudeMeters>
            <DistanceMeters>9086.0988496475</DistanceMeters>
          </Trackpoint>
          <Trackpoint>
            <Time>2021-03-13T08:37:30.000Z</Time>
            <Position>
              <LatitudeDegrees>36.7171496339142322540283203125</LatitudeDegrees>
              <LongitudeDegrees>-4.34789023362100124359130859375</LongitudeDegrees>
            </Position>
            <AltitudeMeters>1.2000000476837158203125</AltitudeMeters>
            <DistanceMeters>9108.3080789362</DistanceMeters>
          </Trackpoint>
          <Trackpoint>
            <Time>2021-03-13T08:37:34.000Z</Time>
            <Position>
              <LatitudeDegrees>36.7170363105833530426025390625</LatitudeDegrees>
              <LongitudeDegrees>-4.34760441072285175323486328125</LongitudeDegrees>
            </Position>
            <AltitudeMeters>2.2000000476837158203125</AltitudeMeters>
            <DistanceMeters>9136.7577504954</DistanceMeters>
          </Trackpoint>
          <Trackpoint>
            <Time>2021-03-13T08:37:35.000Z</Time>
            <Position>
              <LatitudeDegrees>36.71700722537934780120849609375</LatitudeDegrees>
              <LongitudeDegrees>-4.3475508503615856170654296875</LongitudeDegrees>
            </Position>
            <AltitudeMeters>2.400000095367431640625</AltitudeMeters>
            <DistanceMeters>9142.5301834381</DistanceMeters>
          </Trackpoint>
          <Trackpoint>
            <Time>2021-03-13T08:37:39.000Z</Time>
            <Position>
              <LatitudeDegrees>36.71683472581207752227783203125</LatitudeDegrees>
              <LongitudeDegrees>-4.347276426851749420166015625</LongitudeDegrees>
            </Position>
            <AltitudeMeters>3.400000095367431640625</AltitudeMeters>
            <DistanceMeters>9173.6442864355</DistanceMeters>
          </Trackpoint>
          <Trackpoint>
            <Time>2021-03-13T08:37:40.000Z</Time>
            <Position>
              <LatitudeDegrees>36.71679633669555187225341796875</LatitudeDegrees>
              <LongitudeDegrees>-4.34722688980400562286376953125</LongitudeDegrees>
            </Position>
            <AltitudeMeters>3.7999999523162841796875</AltitudeMeters>
            <DistanceMeters>9179.7909798426</DistanceMeters>
          </Trackpoint>
          <Trackpoint>
            <Time>2021-03-13T08:37:43.000Z</Time>
            <Position>
              <LatitudeDegrees>36.71663121320307254791259765625</LatitudeDegrees>
              <LongitudeDegrees>-4.34704609215259552001953125</LongitudeDegrees>
            </Position>
            <AltitudeMeters>4.599999904632568359375</AltitudeMeters>
            <DistanceMeters>9204.244438946</DistanceMeters>
          </Trackpoint>
          <Trackpoint>
            <Time>2021-03-13T08:37:46.000Z</Time>
            <Position>
              <LatitudeDegrees>36.71645552851259708404541015625</LatitudeDegrees>
              <LongitudeDegrees>-4.34688381850719451904296875</LongitudeDegrees>
            </Position>
            <AltitudeMeters>5</AltitudeMeters>
            <DistanceMeters>9228.5749895226</DistanceMeters>
          </Trackpoint>
          <Trackpoint>
            <Time>2021-03-13T08:37:47.000Z</Time>
            <Position>
              <LatitudeDegrees>36.7163912393152713775634765625</LatitudeDegrees>
              <LongitudeDegrees>-4.34683394618332386016845703125</LongitudeDegrees>
            </Position>
            <AltitudeMeters>5</AltitudeMeters>
            <DistanceMeters>9237.0008106103</DistanceMeters>
          </Trackpoint>
          <Trackpoint>
            <Time>2021-03-13T08:37:52.000Z</Time>
            <Position>
              <LatitudeDegrees>36.71603743918240070343017578125</LatitudeDegrees>
              <LongitudeDegrees>-4.34663034975528717041015625</LongitudeDegrees>
            </Position>
            <AltitudeMeters>4.80000019073486328125</AltitudeMeters>
            <DistanceMeters>9280.3673633979</DistanceMeters>
          </Trackpoint>
          <Trackpoint>
            <Time>2021-03-13T08:37:57.000Z</Time>
            <Position>
              <LatitudeDegrees>36.7155942879617214202880859375</LatitudeDegrees>
              <LongitudeDegrees>-4.3463324569165706634521484375</LongitudeDegrees>
            </Position>
            <AltitudeMeters>4.19999980926513671875</AltitudeMeters>
            <DistanceMeters>9336.3961489021</DistanceMeters>
          </Trackpoint>
          <Trackpoint>
            <Time>2021-03-13T08:37:58.000Z</Time>
            <Position>
              <LatitudeDegrees>36.7155942879617214202880859375</LatitudeDegrees>
              <LongitudeDegrees>-4.3463324569165706634521484375</LongitudeDegrees>
            </Position>
            <AltitudeMeters>4.19999980926513671875</AltitudeMeters>
            <DistanceMeters>9336.4911756165</DistanceMeters>
          </Trackpoint>
          <Trackpoint>
            <Time>2021-03-13T08:37:59.000Z</Time>
            <Position>
              <LatitudeDegrees>36.7154591716825962066650390625</LatitudeDegrees>
              <LongitudeDegrees>-4.3461825884878635406494140625</LongitudeDegrees>
            </Position>
            <AltitudeMeters>4.19999980926513671875</AltitudeMeters>
            <DistanceMeters>9356.6148633552</DistanceMeters>
          </Trackpoint>
          <Trackpoint>
            <Time>2021-03-13T08:38:01.000Z</Time>
            <Position>
              <LatitudeDegrees>36.71540678478777408599853515625</LatitudeDegrees>
              <LongitudeDegrees>-4.3461041338741779327392578125</LongitudeDegrees>
            </Position>
            <AltitudeMeters>4</AltitudeMeters>
            <DistanceMeters>9365.7255418521</DistanceMeters>
          </Trackpoint>
          <Trackpoint>
            <Time>2021-03-13T08:38:02.000Z</Time>
            <Position>
              <LatitudeDegrees>36.715362109243869781494140625</LatitudeDegrees>
              <LongitudeDegrees>-4.346020482480525970458984375</LongitudeDegrees>
            </Position>
            <AltitudeMeters>4</AltitudeMeters>
            <DistanceMeters>9374.6943723758</DistanceMeters>
          </Trackpoint>
          <Trackpoint>
            <Time>2021-03-13T08:38:07.000Z</Time>
            <Position>
              <LatitudeDegrees>36.71520779840648174285888671875</LatitudeDegrees>
              <LongitudeDegrees>-4.34557481668889522552490234375</LongitudeDegrees>
            </Position>
            <AltitudeMeters>3.599999904632568359375</AltitudeMeters>
            <DistanceMeters>9418.0081075175</DistanceMeters>
          </Trackpoint>
          <Trackpoint>
            <Time>2021-03-13T08:38:13.000Z</Time>
            <Position>
              <LatitudeDegrees>36.71518080867826938629150390625</LatitudeDegrees>
              <LongitudeDegrees>-4.3448964692652225494384765625</LongitudeDegrees>
            </Position>
            <AltitudeMeters>3.400000095367431640625</AltitudeMeters>
            <DistanceMeters>9478.6058020773</DistanceMeters>
          </Trackpoint>
          <Trackpoint>
            <Time>2021-03-13T08:38:14.000Z</Time>
            <Position>
              <LatitudeDegrees>36.71518080867826938629150390625</LatitudeDegrees>
              <LongitudeDegrees>-4.3448964692652225494384765625</LongitudeDegrees>
            </Position>
            <AltitudeMeters>3.2000000476837158203125</AltitudeMeters>
            <DistanceMeters>9478.6058020773</DistanceMeters>
          </Trackpoint>
          <Trackpoint>
            <Time>2021-03-13T08:38:18.000Z</Time>
            <Position>
              <LatitudeDegrees>36.7150890268385410308837890625</LatitudeDegrees>
              <LongitudeDegrees>-4.34437201358377933502197265625</LongitudeDegrees>
            </Position>
            <AltitudeMeters>2.599999904632568359375</AltitudeMeters>
            <DistanceMeters>9526.5007744566</DistanceMeters>
          </Trackpoint>
          <Trackpoint>
            <Time>2021-03-13T08:38:19.000Z</Time>
            <Position>
              <LatitudeDegrees>36.71506480313837528228759765625</LatitudeDegrees>
              <LongitudeDegrees>-4.3442959897220134735107421875</LongitudeDegrees>
            </Position>
            <AltitudeMeters>2.599999904632568359375</AltitudeMeters>
            <DistanceMeters>9533.7999148868</DistanceMeters>
          </Trackpoint>
          <Trackpoint>
            <Time>2021-03-13T08:38:23.000Z</Time>
            <Position>
              <LatitudeDegrees>36.7149126715958118438720703125</LatitudeDegrees>
              <LongitudeDegrees>-4.34392877854406833648681640625</LongitudeDegrees>
            </Position>
            <AltitudeMeters>2.2000000476837158203125</AltitudeMeters>
            <DistanceMeters>9570.6800753298</DistanceMeters>
          </Trackpoint>
          <Trackpoint>
            <Time>2021-03-13T08:38:25.000Z</Time>
            <Position>
              <LatitudeDegrees>36.71481929719448089599609375</LatitudeDegrees>
              <LongitudeDegrees>-4.343765079975128173828125</LongitudeDegrees>
            </Position>
            <AltitudeMeters>2</AltitudeMeters>
            <DistanceMeters>9588.6056503605</DistanceMeters>
          </Trackpoint>
          <Trackpoint>
            <Time>2021-03-13T08:38:27.000Z</Time>
            <Position>
              <LatitudeDegrees>36.7147105000913143157958984375</LatitudeDegrees>
              <LongitudeDegrees>-4.3436187319457530975341796875</LongitudeDegrees>
            </Position>
            <AltitudeMeters>2</AltitudeMeters>
            <DistanceMeters>9606.41397102</DistanceMeters>
          </Trackpoint>
          <Trackpoint>
            <Time>2021-03-13T08:38:30.000Z</Time>
            <Position>
              <LatitudeDegrees>36.71453339047729969024658203125</LatitudeDegrees>
              <LongitudeDegrees>-4.34341999702155590057373046875</LongitudeDegrees>
            </Position>
            <AltitudeMeters>2</AltitudeMeters>
            <DistanceMeters>9632.9281272623</DistanceMeters>
          </Trackpoint>
          <Trackpoint>
            <Time>2021-03-13T08:38:31.000Z</Time>
            <Position>
              <LatitudeDegrees>36.71447136439383029937744140625</LatitudeDegrees>
              <LongitudeDegrees>-4.3433615751564502716064453125</LongitudeDegrees>
            </Position>
            <AltitudeMeters>2</AltitudeMeters>
            <DistanceMeters>9641.5792123715</DistanceMeters>
          </Trackpoint>
          <Trackpoint>
            <Time>2021-03-13T08:38:33.000Z</Time>
            <Position>
              <LatitudeDegrees>36.71435351483523845672607421875</LatitudeDegrees>
              <LongitudeDegrees>-4.343241043388843536376953125</LongitudeDegrees>
            </Position>
            <AltitudeMeters>2</AltitudeMeters>
            <DistanceMeters>9658.5408819681</DistanceMeters>
          </Trackpoint>
          <Trackpoint>
            <Time>2021-03-13T08:38:37.000Z</Time>
            <Position>
              <LatitudeDegrees>36.7141888104379177093505859375</LatitudeDegrees>
              <LongitudeDegrees>-4.343045912683010101318359375</LongitudeDegrees>
            </Position>
            <AltitudeMeters>2.2000000476837158203125</AltitudeMeters>
            <DistanceMeters>9683.8228103149</DistanceMeters>
          </Trackpoint>
          <Trackpoint>
            <Time>2021-03-13T08:38:40.000Z</Time>
            <Position>
              <LatitudeDegrees>36.7139809392392635345458984375</LatitudeDegrees>
              <LongitudeDegrees>-4.34272748418152332305908203125</LongitudeDegrees>
            </Position>
            <AltitudeMeters>2.7999999523162841796875</AltitudeMeters>
            <DistanceMeters>9720.4628490001</DistanceMeters>
          </Trackpoint>
          <Trackpoint>
            <Time>2021-03-13T08:38:43.000Z</Time>
            <Position>
              <LatitudeDegrees>36.71385462395846843719482421875</LatitudeDegrees>
              <LongitudeDegrees>-4.34247158467769622802734375</LongitudeDegrees>
            </Position>
            <AltitudeMeters>2.7999999523162841796875</AltitudeMeters>
            <DistanceMeters>9747.2765523338</DistanceMeters>
          </Trackpoint>
          <Trackpoint>
            <Time>2021-03-13T08:38:50.000Z</Time>
            <Position>
              <LatitudeDegrees>36.71361171640455722808837890625</LatitudeDegrees>
              <LongitudeDegrees>-4.34185274876654148101806640625</LongitudeDegrees>
            </Position>
            <AltitudeMeters>3</AltitudeMeters>
            <DistanceMeters>9808.7550911604</DistanceMeters>
          </Trackpoint>
          <Trackpoint>
            <Time>2021-03-13T08:38:53.000Z</Time>
            <Position>
              <LatitudeDegrees>36.713543236255645751953125</LatitudeDegrees>
              <LongitudeDegrees>-4.34158419258892536163330078125</LongitudeDegrees>
            </Position>
            <AltitudeMeters>3.2000000476837158203125</AltitudeMeters>
            <DistanceMeters>9833.8996697471</DistanceMeters>
          </Trackpoint>
          <Trackpoint>
            <Time>2021-03-13T08:38:58.000Z</Time>
            <Position>
              <LatitudeDegrees>36.71345380134880542755126953125</LatitudeDegrees>
              <LongitudeDegrees>-4.3411380238831043243408203125</LongitudeDegrees>
            </Position>
            <AltitudeMeters>3.7999999523162841796875</AltitudeMeters>
            <DistanceMeters>9874.9341591972</DistanceMeters>
          </Trackpoint>
          <Trackpoint>
            <Time>2021-03-13T08:38:59.000Z</Time>
            <Position>
              <LatitudeDegrees>36.71345380134880542755126953125</LatitudeDegrees>
              <LongitudeDegrees>-4.3411380238831043243408203125</LongitudeDegrees>
            </Position>
            <AltitudeMeters>3.7999999523162841796875</AltitudeMeters>
            <DistanceMeters>9875.0291859116</DistanceMeters>
          </Trackpoint>
          <Trackpoint>
            <Time>2021-03-13T08:39:03.000Z</Time>
            <Position>
              <LatitudeDegrees>36.71340166591107845306396484375</LatitudeDegrees>
              <LongitudeDegrees>-4.34071415103971958160400390625</LongitudeDegrees>
            </Position>
            <AltitudeMeters>4.400000095367431640625</AltitudeMeters>
            <DistanceMeters>9913.2913357911</DistanceMeters>
          </Trackpoint>
          <Trackpoint>
            <Time>2021-03-13T08:39:05.000Z</Time>
            <Position>
              <LatitudeDegrees>36.71339428983628749847412109375</LatitudeDegrees>
              <LongitudeDegrees>-4.34062982909381389617919921875</LongitudeDegrees>
            </Position>
            <AltitudeMeters>4.80000019073486328125</AltitudeMeters>
            <DistanceMeters>9920.8601405158</DistanceMeters>
          </Trackpoint>
          <Trackpoint>
            <Time>2021-03-13T08:39:10.000Z</Time>
            <Position>
              <LatitudeDegrees>36.7133787833154201507568359375</LatitudeDegrees>
              <LongitudeDegrees>-4.34021794237196445465087890625</LongitudeDegrees>
            </Position>
            <AltitudeMeters>5.400000095367431640625</AltitudeMeters>
            <DistanceMeters>9957.6506997453</DistanceMeters>
          </Trackpoint>
          <Trackpoint>
            <Time>2021-03-13T08:39:13.000Z</Time>
            <Position>
              <LatitudeDegrees>36.71339730732142925262451171875</LatitudeDegrees>
              <LongitudeDegrees>-4.33989691548049449920654296875</LongitudeDegrees>
            </Position>
            <AltitudeMeters>5.80000019073486328125</AltitudeMeters>
            <DistanceMeters>9986.3681124317</DistanceMeters>
          </Trackpoint>
          <Trackpoint>
            <Time>2021-03-13T08:39:16.000Z</Time>
            <Position>
              <LatitudeDegrees>36.713418848812580108642578125</LatitudeDegrees>
              <LongitudeDegrees>-4.3396500684320926666259765625</LongitudeDegrees>
            </Position>
            <AltitudeMeters>6.599999904632568359375</AltitudeMeters>
            <DistanceMeters>10008.522995306</DistanceMeters>
          </Trackpoint>
          <Trackpoint>
            <Time>2021-03-13T08:39:20.000Z</Time>
            <Position>
              <LatitudeDegrees>36.71346754767000675201416015625</LatitudeDegrees>
              <LongitudeDegrees>-4.33932694606482982635498046875</LongitudeDegrees>
            </Position>
            <AltitudeMeters>7.80000019073486328125</AltitudeMeters>
            <DistanceMeters>10037.858405396</DistanceMeters>
          </Trackpoint>
          <Trackpoint>
            <Time>2021-03-13T08:39:22.000Z</Time>
            <Position>
              <LatitudeDegrees>36.7134978063404560089111328125</LatitudeDegrees>
              <LongitudeDegrees>-4.339167773723602294921875</LongitudeDegrees>
            </Position>
            <AltitudeMeters>8.19999980926513671875</AltitudeMeters>
            <DistanceMeters>10052.454211761</DistanceMeters>
          </Trackpoint>
          <Trackpoint>
            <Time>2021-03-13T08:39:24.000Z</Time>
            <Position>
              <LatitudeDegrees>36.713533513247966766357421875</LatitudeDegrees>
              <LongitudeDegrees>-4.33900675736367702484130859375</LongitudeDegrees>
            </Position>
            <AltitudeMeters>8.80000019073486328125</AltitudeMeters>
            <DistanceMeters>10067.360689919</DistanceMeters>
          </Trackpoint>
          <Trackpoint>
            <Time>2021-03-13T08:39:32.000Z</Time>
            <Position>
              <LatitudeDegrees>36.7136832140386104583740234375</LatitudeDegrees>
              <LongitudeDegrees>-4.3384605087339878082275390625</LongitudeDegrees>
            </Position>
            <AltitudeMeters>10</AltitudeMeters>
            <DistanceMeters>10118.868324879</DistanceMeters>
          </Trackpoint>
          <Trackpoint>
            <Time>2021-03-13T08:39:38.000Z</Time>
            <Position>
              <LatitudeDegrees>36.71383635140955448150634765625</LatitudeDegrees>
              <LongitudeDegrees>-4.33801031671464443206787109375</LongitudeDegrees>
            </Position>
            <AltitudeMeters>11.19999980926513671875</AltitudeMeters>
            <DistanceMeters>10162.502663398</DistanceMeters>
          </Trackpoint>
          <Trackpoint>
            <Time>2021-03-13T08:39:41.000Z</Time>
            <Position>
              <LatitudeDegrees>36.71393953263759613037109375</LatitudeDegrees>
              <LongitudeDegrees>-4.33771334588527679443359375</LongitudeDegrees>
            </Position>
            <AltitudeMeters>11.6000003814697265625</AltitudeMeters>
            <DistanceMeters>10191.381092716</DistanceMeters>
          </Trackpoint>
          <Trackpoint>
            <Time>2021-03-13T08:39:50.000Z</Time>
            <Position>
              <LatitudeDegrees>36.71416006051003932952880859375</LatitudeDegrees>
              <LongitudeDegrees>-4.3370261974632740020751953125</LongitudeDegrees>
            </Position>
            <AltitudeMeters>11.6000003814697265625</AltitudeMeters>
            <DistanceMeters>10257.421240888</DistanceMeters>
          </Trackpoint>
          <Trackpoint>
            <Time>2021-03-13T08:39:51.000Z</Time>
            <Position>
              <LatitudeDegrees>36.71418135054409503936767578125</LatitudeDegrees>
              <LongitudeDegrees>-4.336929805576801300048828125</LongitudeDegrees>
            </Position>
            <AltitudeMeters>11.6000003814697265625</AltitudeMeters>
            <DistanceMeters>10266.34161272</DistanceMeters>
          </Trackpoint>
          <Trackpoint>
            <Time>2021-03-13T08:39:59.000Z</Time>
            <Position>
              <LatitudeDegrees>36.7142877168953418731689453125</LatitudeDegrees>
              <LongitudeDegrees>-4.33625732548534870147705078125</LongitudeDegrees>
            </Position>
            <AltitudeMeters>11.80000019073486328125</AltitudeMeters>
            <DistanceMeters>10327.498815752</DistanceMeters>
          </Trackpoint>
          <Trackpoint>
            <Time>2021-03-13T08:40:00.000Z</Time>
            <Position>
              <LatitudeDegrees>36.7142982780933380126953125</LatitudeDegrees>
              <LongitudeDegrees>-4.336145929992198944091796875</LongitudeDegrees>
            </Position>
            <AltitudeMeters>11.80000019073486328125</AltitudeMeters>
            <DistanceMeters>10337.506892886</DistanceMeters>
          </Trackpoint>
          <Trackpoint>
            <Time>2021-03-13T08:40:07.000Z</Time>
            <Position>
              <LatitudeDegrees>36.71431328170001506805419921875</LatitudeDegrees>
              <LongitudeDegrees>-4.33547713793814182281494140625</LongitudeDegrees>
            </Position>
            <AltitudeMeters>11.3999996185302734375</AltitudeMeters>
            <DistanceMeters>10397.201673449</DistanceMeters>
          </Trackpoint>
          <Trackpoint>
            <Time>2021-03-13T08:40:08.000Z</Time>
            <Position>
              <LatitudeDegrees>36.71430992893874645233154296875</LatitudeDegrees>
              <LongitudeDegrees>-4.335372783243656158447265625</LongitudeDegrees>
            </Position>
            <AltitudeMeters>11.3999996185302734375</AltitudeMeters>
            <DistanceMeters>10406.520107603</DistanceMeters>
          </Trackpoint>
          <Trackpoint>
            <Time>2021-03-13T08:40:15.000Z</Time>
            <Position>
              <LatitudeDegrees>36.71422577463090419769287109375</LatitudeDegrees>
              <LongitudeDegrees>-4.33461531065404415130615234375</LongitudeDegrees>
            </Position>
            <AltitudeMeters>10.80000019073486328125</AltitudeMeters>
            <DistanceMeters>10474.749751741</DistanceMeters>
          </Trackpoint>
          <Trackpoint>
            <Time>2021-03-13T08:40:21.000Z</Time>
            <Position>
              <LatitudeDegrees>36.71405796892940998077392578125</LatitudeDegrees>
              <LongitudeDegrees>-4.333966635167598724365234375</LongitudeDegrees>
            </Position>
            <AltitudeMeters>10</AltitudeMeters>
            <DistanceMeters>10535.565364128</DistanceMeters>
          </Trackpoint>
          <Trackpoint>
            <Time>2021-03-13T08:40:22.000Z</Time>
            <Position>
              <LatitudeDegrees>36.71405796892940998077392578125</LatitudeDegrees>
              <LongitudeDegrees>-4.333966635167598724365234375</LongitudeDegrees>
            </Position>
            <AltitudeMeters>9.80000019073486328125</AltitudeMeters>
            <DistanceMeters>10535.565364128</DistanceMeters>
          </Trackpoint>
          <Trackpoint>
            <Time>2021-03-13T08:40:27.000Z</Time>
            <Position>
              <LatitudeDegrees>36.71389871276915073394775390625</LatitudeDegrees>
              <LongitudeDegrees>-4.333380572497844696044921875</LongitudeDegrees>
            </Position>
            <AltitudeMeters>8.80000019073486328125</AltitudeMeters>
            <DistanceMeters>10590.77833848</DistanceMeters>
          </Trackpoint>
          <Trackpoint>
            <Time>2021-03-13T08:40:31.000Z</Time>
            <Position>
              <LatitudeDegrees>36.71374515630304813385009765625</LatitudeDegrees>
              <LongitudeDegrees>-4.3327470682561397552490234375</LongitudeDegrees>
            </Position>
            <AltitudeMeters>7.400000095367431640625</AltitudeMeters>
            <DistanceMeters>10649.829012304</DistanceMeters>
          </Trackpoint>
          <Trackpoint>
            <Time>2021-03-13T08:40:34.000Z</Time>
            <Position>
              <LatitudeDegrees>36.7136698029935359954833984375</LatitudeDegrees>
              <LongitudeDegrees>-4.33232051320374011993408203125</LongitudeDegrees>
            </Position>
            <AltitudeMeters>6.400000095367431640625</AltitudeMeters>
            <DistanceMeters>10688.800856979</DistanceMeters>
          </Trackpoint>
          <Trackpoint>
            <Time>2021-03-13T08:40:39.000Z</Time>
            <Position>
              <LatitudeDegrees>36.71360702253878116607666015625</LatitudeDegrees>
              <LongitudeDegrees>-4.3316589295864105224609375</LongitudeDegrees>
            </Position>
            <AltitudeMeters>5.599999904632568359375</AltitudeMeters>
            <DistanceMeters>10748.241718938</DistanceMeters>
          </Trackpoint>
          <Trackpoint>
            <Time>2021-03-13T08:40:40.000Z</Time>
            <Position>
              <LatitudeDegrees>36.713598556816577911376953125</LatitudeDegrees>
              <LongitudeDegrees>-4.33152037672698497772216796875</LongitudeDegrees>
            </Position>
            <AltitudeMeters>5</AltitudeMeters>
            <DistanceMeters>10760.640065251</DistanceMeters>
          </Trackpoint>
          <Trackpoint>
            <Time>2021-03-13T08:40:43.000Z</Time>
            <Position>
              <LatitudeDegrees>36.7135712318122386932373046875</LatitudeDegrees>
              <LongitudeDegrees>-4.33110832236707210540771484375</LongitudeDegrees>
            </Position>
            <AltitudeMeters>3.599999904632568359375</AltitudeMeters>
            <DistanceMeters>10797.530507926</DistanceMeters>
          </Trackpoint>
          <Trackpoint>
            <Time>2021-03-13T08:40:48.000Z</Time>
            <Position>
              <LatitudeDegrees>36.713531501591205596923828125</LatitudeDegrees>
              <LongitudeDegrees>-4.33041262440383434295654296875</LongitudeDegrees>
            </Position>
            <AltitudeMeters>2.400000095367431640625</AltitudeMeters>
            <DistanceMeters>10859.760455244</DistanceMeters>
          </Trackpoint>
          <Trackpoint>
            <Time>2021-03-13T08:40:51.000Z</Time>
            <Position>
              <LatitudeDegrees>36.713496632874011993408203125</LatitudeDegrees>
              <LongitudeDegrees>-4.33002269826829433441162109375</LongitudeDegrees>
            </Position>
            <AltitudeMeters>2</AltitudeMeters>
            <DistanceMeters>10894.766676889</DistanceMeters>
          </Trackpoint>
          <Trackpoint>
            <Time>2021-03-13T08:40:57.000Z</Time>
            <Position>
              <LatitudeDegrees>36.7134522087872028350830078125</LatitudeDegrees>
              <LongitudeDegrees>-4.32925365865230560302734375</LongitudeDegrees>
            </Position>
            <AltitudeMeters>1.60000002384185791015625</AltitudeMeters>
            <DistanceMeters>10963.561030323</DistanceMeters>
          </Trackpoint>
          <Trackpoint>
            <Time>2021-03-13T08:40:58.000Z</Time>
            <Position>
              <LatitudeDegrees>36.71344273723661899566650390625</LatitudeDegrees>
              <LongitudeDegrees>-4.32914092205464839935302734375</LongitudeDegrees>
            </Position>
            <AltitudeMeters>1.60000002384185791015625</AltitudeMeters>
            <DistanceMeters>10973.675015984</DistanceMeters>
          </Trackpoint>
          <Trackpoint>
            <Time>2021-03-13T08:41:04.000Z</Time>
            <Position>
              <LatitudeDegrees>36.71339680440723896026611328125</LatitudeDegrees>
              <LongitudeDegrees>-4.32849199511110782623291015625</LongitudeDegrees>
            </Position>
            <AltitudeMeters>2.2000000476837158203125</AltitudeMeters>
            <DistanceMeters>11031.799914011</DistanceMeters>
          </Trackpoint>
          <Trackpoint>
            <Time>2021-03-13T08:41:11.000Z</Time>
            <Position>
              <LatitudeDegrees>36.71335036866366863250732421875</LatitudeDegrees>
              <LongitudeDegrees>-4.32774215005338191986083984375</LongitudeDegrees>
            </Position>
            <AltitudeMeters>2.400000095367431640625</AltitudeMeters>
            <DistanceMeters>11098.903174877</DistanceMeters>
          </Trackpoint>
          <Trackpoint>
            <Time>2021-03-13T08:41:13.000Z</Time>
            <Position>
              <LatitudeDegrees>36.7133380472660064697265625</LatitudeDegrees>
              <LongitudeDegrees>-4.3274973146617412567138671875</LongitudeDegrees>
            </Position>
            <AltitudeMeters>2.599999904632568359375</AltitudeMeters>
            <DistanceMeters>11120.79152191</DistanceMeters>
          </Trackpoint>
          <Trackpoint>
            <Time>2021-03-13T08:41:20.000Z</Time>
            <Position>
              <LatitudeDegrees>36.713288761675357818603515625</LatitudeDegrees>
              <LongitudeDegrees>-4.3267335556447505950927734375</LongitudeDegrees>
            </Position>
            <AltitudeMeters>2.599999904632568359375</AltitudeMeters>
            <DistanceMeters>11189.157414918</DistanceMeters>
          </Trackpoint>
          <Trackpoint>
            <Time>2021-03-13T08:41:22.000Z</Time>
            <Position>
              <LatitudeDegrees>36.7132825590670108795166015625</LatitudeDegrees>
              <LongitudeDegrees>-4.32662383653223514556884765625</LongitudeDegrees>
            </Position>
            <AltitudeMeters>2.599999904632568359375</AltitudeMeters>
            <DistanceMeters>11198.971425074</DistanceMeters>
          </Trackpoint>
          <Trackpoint>
            <Time>2021-03-13T08:41:29.000Z</Time>
            <Position>
              <LatitudeDegrees>36.71323017217218875885009765625</LatitudeDegrees>
              <LongitudeDegrees>-4.325745999813079833984375</LongitudeDegrees>
            </Position>
            <AltitudeMeters>2.2000000476837158203125</AltitudeMeters>
            <DistanceMeters>11277.51213987</DistanceMeters>
          </Trackpoint>
          <Trackpoint>
            <Time>2021-03-13T08:41:30.000Z</Time>
            <Position>
              <LatitudeDegrees>36.71322665177285671234130859375</LatitudeDegrees>
              <LongitudeDegrees>-4.32566092349588871002197265625</LongitudeDegrees>
            </Position>
            <AltitudeMeters>2.2000000476837158203125</AltitudeMeters>
            <DistanceMeters>11285.113089093</DistanceMeters>
          </Trackpoint>
          <Trackpoint>
            <Time>2021-03-13T08:41:37.000Z</Time>
            <Position>
              <LatitudeDegrees>36.71318625099956989288330078125</LatitudeDegrees>
              <LongitudeDegrees>-4.324891380965709686279296875</LongitudeDegrees>
            </Position>
            <AltitudeMeters>2.2000000476837158203125</AltitudeMeters>
            <DistanceMeters>11353.921814201</DistanceMeters>
          </Trackpoint>
          <Trackpoint>
            <Time>2021-03-13T08:41:40.000Z</Time>
            <Position>
              <LatitudeDegrees>36.71315959654748439788818359375</LatitudeDegrees>
              <LongitudeDegrees>-4.324552081525325775146484375</LongitudeDegrees>
            </Position>
            <AltitudeMeters>2.2000000476837158203125</AltitudeMeters>
            <DistanceMeters>11384.340457713</DistanceMeters>
          </Trackpoint>
          <Trackpoint>
            <Time>2021-03-13T08:41:46.000Z</Time>
            <Position>
              <LatitudeDegrees>36.713094972074031829833984375</LatitudeDegrees>
              <LongitudeDegrees>-4.32398789562284946441650390625</LongitudeDegrees>
            </Position>
            <AltitudeMeters>1.60000002384185791015625</AltitudeMeters>
            <DistanceMeters>11435.190672359</DistanceMeters>
          </Trackpoint>
          <Trackpoint>
            <Time>2021-03-13T08:41:47.000Z</Time>
            <Position>
              <LatitudeDegrees>36.71304794959723949432373046875</LatitudeDegrees>
              <LongitudeDegrees>-4.32377583347260951995849609375</LongitudeDegrees>
            </Position>
            <AltitudeMeters>1.60000002384185791015625</AltitudeMeters>
            <DistanceMeters>11454.822142822</DistanceMeters>
          </Trackpoint>
          <Trackpoint>
            <Time>2021-03-13T08:41:52.000Z</Time>
            <Position>
              <LatitudeDegrees>36.71290713362395763397216796875</LatitudeDegrees>
              <LongitudeDegrees>-4.32329655624926090240478515625</LongitudeDegrees>
            </Position>
            <AltitudeMeters>1.39999997615814208984375</AltitudeMeters>
            <DistanceMeters>11500.367010593</DistanceMeters>
          </Trackpoint>
          <Trackpoint>
            <Time>2021-03-13T08:41:53.000Z</Time>
            <Position>
              <LatitudeDegrees>36.71290713362395763397216796875</LatitudeDegrees>
              <LongitudeDegrees>-4.32329655624926090240478515625</LongitudeDegrees>
            </Position>
            <AltitudeMeters>1.60000002384185791015625</AltitudeMeters>
            <DistanceMeters>11500.367010593</DistanceMeters>
          </Trackpoint>
          <Trackpoint>
            <Time>2021-03-13T08:42:00.000Z</Time>
            <Position>
              <LatitudeDegrees>36.71263195574283599853515625</LatitudeDegrees>
              <LongitudeDegrees>-4.3225694261491298675537109375</LongitudeDegrees>
            </Position>
            <AltitudeMeters>2.400000095367431640625</AltitudeMeters>
            <DistanceMeters>11572.110858367</DistanceMeters>
          </Trackpoint>
          <Trackpoint>
            <Time>2021-03-13T08:42:04.000Z</Time>
            <Position>
              <LatitudeDegrees>36.71253514476120471954345703125</LatitudeDegrees>
              <LongitudeDegrees>-4.3221724592149257659912109375</LongitudeDegrees>
            </Position>
            <AltitudeMeters>2.7999999523162841796875</AltitudeMeters>
            <DistanceMeters>11609.132880908</DistanceMeters>
          </Trackpoint>
          <Trackpoint>
            <Time>2021-03-13T08:42:06.000Z</Time>
            <Position>
              <LatitudeDegrees>36.7125131003558635711669921875</LatitudeDegrees>
              <LongitudeDegrees>-4.32196349836885929107666015625</LongitudeDegrees>
            </Position>
            <AltitudeMeters>3</AltitudeMeters>
            <DistanceMeters>11627.938089062</DistanceMeters>
          </Trackpoint>
          <Trackpoint>
            <Time>2021-03-13T08:42:09.000Z</Time>
            <Position>
              <LatitudeDegrees>36.71251301653683185577392578125</LatitudeDegrees>
              <LongitudeDegrees>-4.32163744233548641204833984375</LongitudeDegrees>
            </Position>
            <AltitudeMeters>3.400000095367431640625</AltitudeMeters>
            <DistanceMeters>11657.03023482</DistanceMeters>
          </Trackpoint>
          <Trackpoint>
            <Time>2021-03-13T08:42:12.000Z</Time>
            <Position>
              <LatitudeDegrees>36.71253497712314128875732421875</LatitudeDegrees>
              <LongitudeDegrees>-4.32129546068608760833740234375</LongitudeDegrees>
            </Position>
            <AltitudeMeters>3.400000095367431640625</AltitudeMeters>
            <DistanceMeters>11687.641229126</DistanceMeters>
          </Trackpoint>
          <Trackpoint>
            <Time>2021-03-13T08:42:19.000Z</Time>
            <Position>
              <LatitudeDegrees>36.71258904039859771728515625</LatitudeDegrees>
              <LongitudeDegrees>-4.32050689123570919036865234375</LongitudeDegrees>
            </Position>
            <AltitudeMeters>2.599999904632568359375</AltitudeMeters>
            <DistanceMeters>11758.257907291</DistanceMeters>
          </Trackpoint>
          <Trackpoint>
            <Time>2021-03-13T08:42:21.000Z</Time>
            <Position>
              <LatitudeDegrees>36.71260287053883075714111328125</LatitudeDegrees>
              <LongitudeDegrees>-4.3202845193445682525634765625</LongitudeDegrees>
            </Position>
            <AltitudeMeters>2.2000000476837158203125</AltitudeMeters>
            <DistanceMeters>11778.158688499</DistanceMeters>
          </Trackpoint>
          <Trackpoint>
            <Time>2021-03-13T08:42:28.000Z</Time>
            <Position>
              <LatitudeDegrees>36.71265617944300174713134765625</LatitudeDegrees>
              <LongitudeDegrees>-4.3195046670734882354736328125</LongitudeDegrees>
            </Position>
            <AltitudeMeters>1.60000002384185791015625</AltitudeMeters>
            <DistanceMeters>11847.993173712</DistanceMeters>
          </Trackpoint>
          <Trackpoint>
            <Time>2021-03-13T08:42:29.000Z</Time>
            <Position>
              <LatitudeDegrees>36.7126636393368244171142578125</LatitudeDegrees>
              <LongitudeDegrees>-4.31939545087516307830810546875</LongitudeDegrees>
            </Position>
            <AltitudeMeters>1.60000002384185791015625</AltitudeMeters>
            <DistanceMeters>11857.773541791</DistanceMeters>
          </Trackpoint>
          <Trackpoint>
            <Time>2021-03-13T08:42:36.000Z</Time>
            <Position>
              <LatitudeDegrees>36.712717115879058837890625</LatitudeDegrees>
              <LongitudeDegrees>-4.31877401657402515411376953125</LongitudeDegrees>
            </Position>
            <AltitudeMeters>1.7999999523162841796875</AltitudeMeters>
            <DistanceMeters>11913.539246719</DistanceMeters>
          </Trackpoint>
          <Trackpoint>
            <Time>2021-03-13T08:42:37.000Z</Time>
            <Position>
              <LatitudeDegrees>36.71276363544166088104248046875</LatitudeDegrees>
              <LongitudeDegrees>-4.31857310235500335693359375</LongitudeDegrees>
            </Position>
            <AltitudeMeters>2</AltitudeMeters>
            <DistanceMeters>11932.198389984</DistanceMeters>
          </Trackpoint>
          <Trackpoint>
            <Time>2021-03-13T08:42:41.000Z</Time>
            <Position>
              <LatitudeDegrees>36.71291702426970005035400390625</LatitudeDegrees>
              <LongitudeDegrees>-4.3181877024471759796142578125</LongitudeDegrees>
            </Position>
            <AltitudeMeters>2.2000000476837158203125</AltitudeMeters>
            <DistanceMeters>11970.590241041</DistanceMeters>
          </Trackpoint>
          <Trackpoint>
            <Time>2021-03-13T08:42:47.000Z</Time>
            <Position>
              <LatitudeDegrees>36.71325984410941600799560546875</LatitudeDegrees>
              <LongitudeDegrees>-4.3176904879510402679443359375</LongitudeDegrees>
            </Position>
            <AltitudeMeters>1.60000002384185791015625</AltitudeMeters>
            <DistanceMeters>12029.105559088</DistanceMeters>
          </Trackpoint>
          <Trackpoint>
            <Time>2021-03-13T08:42:51.000Z</Time>
            <Position>
              <LatitudeDegrees>36.7135457508265972137451171875</LatitudeDegrees>
              <LongitudeDegrees>-4.317463338375091552734375</LongitudeDegrees>
            </Position>
            <AltitudeMeters>1.2000000476837158203125</AltitudeMeters>
            <DistanceMeters>12066.833438563</DistanceMeters>
          </Trackpoint>
          <Trackpoint>
            <Time>2021-03-13T08:42:52.000Z</Time>
            <Position>
              <LatitudeDegrees>36.71362303197383880615234375</LatitudeDegrees>
              <LongitudeDegrees>-4.31741430424153804779052734375</LongitudeDegrees>
            </Position>
            <AltitudeMeters>1.2000000476837158203125</AltitudeMeters>
            <DistanceMeters>12076.483213084</DistanceMeters>
          </Trackpoint>
          <Trackpoint>
            <Time>2021-03-13T08:42:59.000Z</Time>
            <Position>
              <LatitudeDegrees>36.71412703581154346466064453125</LatitudeDegrees>
              <LongitudeDegrees>-4.31704692542552947998046875</LongitudeDegrees>
            </Position>
            <AltitudeMeters>1.60000002384185791015625</AltitudeMeters>
            <DistanceMeters>12141.454528101</DistanceMeters>
          </Trackpoint>
          <Trackpoint>
            <Time>2021-03-13T08:43:03.000Z</Time>
            <Position>
              <LatitudeDegrees>36.714290566742420196533203125</LatitudeDegrees>
              <LongitudeDegrees>-4.31684953160583972930908203125</LongitudeDegrees>
            </Position>
            <AltitudeMeters>2.400000095367431640625</AltitudeMeters>
            <DistanceMeters>12166.781598802</DistanceMeters>
          </Trackpoint>
          <Trackpoint>
            <Time>2021-03-13T08:43:06.000Z</Time>
            <Position>
              <LatitudeDegrees>36.71446683816611766815185546875</LatitudeDegrees>
              <LongitudeDegrees>-4.3165827356278896331787109375</LongitudeDegrees>
            </Position>
            <AltitudeMeters>3.400000095367431640625</AltitudeMeters>
            <DistanceMeters>12197.628856952</DistanceMeters>
          </Trackpoint>
          <Trackpoint>
            <Time>2021-03-13T08:43:08.000Z</Time>
            <Position>
              <LatitudeDegrees>36.71455652453005313873291015625</LatitudeDegrees>
              <LongitudeDegrees>-4.31644066236913204193115234375</LongitudeDegrees>
            </Position>
            <AltitudeMeters>4</AltitudeMeters>
            <DistanceMeters>12213.763542378</DistanceMeters>
          </Trackpoint>
          <Trackpoint>
            <Time>2021-03-13T08:43:10.000Z</Time>
            <Position>
              <LatitudeDegrees>36.714652664959430694580078125</LatitudeDegrees>
              <LongitudeDegrees>-4.316288195550441741943359375</LongitudeDegrees>
            </Position>
            <AltitudeMeters>4.400000095367431640625</AltitudeMeters>
            <DistanceMeters>12231.071452591</DistanceMeters>
          </Trackpoint>
          <Trackpoint>
            <Time>2021-03-13T08:43:13.000Z</Time>
            <Position>
              <LatitudeDegrees>36.71479540877044200897216796875</LatitudeDegrees>
              <LongitudeDegrees>-4.31605023331940174102783203125</LongitudeDegrees>
            </Position>
            <AltitudeMeters>5.80000019073486328125</AltitudeMeters>
            <DistanceMeters>12257.589354901</DistanceMeters>
          </Trackpoint>
          <Trackpoint>
            <Time>2021-03-13T08:43:15.000Z</Time>
            <Position>
              <LatitudeDegrees>36.71488526277244091033935546875</LatitudeDegrees>
              <LongitudeDegrees>-4.3158813379704952239990234375</LongitudeDegrees>
            </Position>
            <AltitudeMeters>6.19999980926513671875</AltitudeMeters>
            <DistanceMeters>12275.675163123</DistanceMeters>
          </Trackpoint>
          <Trackpoint>
            <Time>2021-03-13T08:43:21.000Z</Time>
            <Position>
              <LatitudeDegrees>36.71510553918778896331787109375</LatitudeDegrees>
              <LongitudeDegrees>-4.31536677293479442596435546875</LongitudeDegrees>
            </Position>
            <AltitudeMeters>6.599999904632568359375</AltitudeMeters>
            <DistanceMeters>12327.721789928</DistanceMeters>
          </Trackpoint>
          <Trackpoint>
            <Time>2021-03-13T08:43:22.000Z</Time>
            <Position>
              <LatitudeDegrees>36.71512372791767120361328125</LatitudeDegrees>
              <LongitudeDegrees>-4.31527993641793727874755859375</LongitudeDegrees>
            </Position>
            <AltitudeMeters>6.80000019073486328125</AltitudeMeters>
            <DistanceMeters>12335.730010885</DistanceMeters>
          </Trackpoint>
          <Trackpoint>
            <Time>2021-03-13T08:43:24.000Z</Time>
            <Position>
              <LatitudeDegrees>36.71513621695339679718017578125</LatitudeDegrees>
              <LongitudeDegrees>-4.31510307826101779937744140625</LongitudeDegrees>
            </Position>
            <AltitudeMeters>7</AltitudeMeters>
            <DistanceMeters>12351.570710498</DistanceMeters>
          </Trackpoint>
          <Trackpoint>
            <Time>2021-03-13T08:43:25.000Z</Time>
            <Position>
              <LatitudeDegrees>36.71513169072568416595458984375</LatitudeDegrees>
              <LongitudeDegrees>-4.31501355953514575958251953125</LongitudeDegrees>
            </Position>
            <AltitudeMeters>7.19999980926513671875</AltitudeMeters>
            <DistanceMeters>12359.573291465</DistanceMeters>
          </Trackpoint>
          <Trackpoint>
            <Time>2021-03-13T08:43:31.000Z</Time>
            <Position>
              <LatitudeDegrees>36.71506983228027820587158203125</LatitudeDegrees>
              <LongitudeDegrees>-4.31437435559928417205810546875</LongitudeDegrees>
            </Position>
            <AltitudeMeters>6.599999904632568359375</AltitudeMeters>
            <DistanceMeters>12417.01817823</DistanceMeters>
          </Trackpoint>
          <Trackpoint>
            <Time>2021-03-13T08:43:33.000Z</Time>
            <Position>
              <LatitudeDegrees>36.7150739394128322601318359375</LatitudeDegrees>
              <LongitudeDegrees>-4.3141060508787631988525390625</LongitudeDegrees>
            </Position>
            <AltitudeMeters>5.599999904632568359375</AltitudeMeters>
            <DistanceMeters>12440.961139053</DistanceMeters>
          </Trackpoint>
          <Trackpoint>
            <Time>2021-03-13T08:43:36.000Z</Time>
            <Position>
              <LatitudeDegrees>36.715089865028858184814453125</LatitudeDegrees>
              <LongitudeDegrees>-4.313765577971935272216796875</LongitudeDegrees>
            </Position>
            <AltitudeMeters>4</AltitudeMeters>
            <DistanceMeters>12471.390319267</DistanceMeters>
          </Trackpoint>
          <Trackpoint>
            <Time>2021-03-13T08:43:37.000Z</Time>
            <Position>
              <LatitudeDegrees>36.715097241103649139404296875</LatitudeDegrees>
              <LongitudeDegrees>-4.31364898569881916046142578125</LongitudeDegrees>
            </Position>
            <AltitudeMeters>3.599999904632568359375</AltitudeMeters>
            <DistanceMeters>12481.825533296</DistanceMeters>
          </Trackpoint>
          <Trackpoint>
            <Time>2021-03-13T08:43:39.000Z</Time>
            <Position>
              <LatitudeDegrees>36.715112663805484771728515625</LatitudeDegrees>
              <LongitudeDegrees>-4.31342250667512416839599609375</LongitudeDegrees>
            </Position>
            <AltitudeMeters>3</AltitudeMeters>
            <DistanceMeters>12502.105000042</DistanceMeters>
          </Trackpoint>
          <Trackpoint>
            <Time>2021-03-13T08:43:42.000Z</Time>
            <Position>
              <LatitudeDegrees>36.7151342891156673431396484375</LatitudeDegrees>
              <LongitudeDegrees>-4.3131096102297306060791015625</LongitudeDegrees>
            </Position>
            <AltitudeMeters>2</AltitudeMeters>
            <DistanceMeters>12530.12579851</DistanceMeters>
          </Trackpoint>
          <Trackpoint>
            <Time>2021-03-13T08:43:43.000Z</Time>
            <Position>
              <LatitudeDegrees>36.71514116227626800537109375</LatitudeDegrees>
              <LongitudeDegrees>-4.31300642900168895721435546875</LongitudeDegrees>
            </Position>
            <AltitudeMeters>1.7999999523162841796875</AltitudeMeters>
            <DistanceMeters>12539.363450939</DistanceMeters>
          </Trackpoint>
          <Trackpoint>
            <Time>2021-03-13T08:43:47.000Z</Time>
            <Position>
              <LatitudeDegrees>36.7151673138141632080078125</LatitudeDegrees>
              <LongitudeDegrees>-4.3126150779426097869873046875</LongitudeDegrees>
            </Position>
            <AltitudeMeters>1.39999997615814208984375</AltitudeMeters>
            <DistanceMeters>12574.401515708</DistanceMeters>
          </Trackpoint>
          <Trackpoint>
            <Time>2021-03-13T08:43:49.000Z</Time>
            <Position>
              <LatitudeDegrees>36.71517494134604930877685546875</LatitudeDegrees>
              <LongitudeDegrees>-4.31243260391056537628173828125</LongitudeDegrees>
            </Position>
            <AltitudeMeters>1.2000000476837158203125</AltitudeMeters>
            <DistanceMeters>12590.704621856</DistanceMeters>
          </Trackpoint>
          <Trackpoint>
            <Time>2021-03-13T08:43:53.000Z</Time>
            <Position>
              <LatitudeDegrees>36.715197153389453887939453125</LatitudeDegrees>
              <LongitudeDegrees>-4.31205793283879756927490234375</LongitudeDegrees>
            </Position>
            <AltitudeMeters>1</AltitudeMeters>
            <DistanceMeters>12624.224680802</DistanceMeters>
          </Trackpoint>
          <Trackpoint>
            <Time>2021-03-13T08:43:55.000Z</Time>
            <Position>
              <LatitudeDegrees>36.7152057029306888580322265625</LatitudeDegrees>
              <LongitudeDegrees>-4.31187319569289684295654296875</LongitudeDegrees>
            </Position>
            <AltitudeMeters>1</AltitudeMeters>
            <DistanceMeters>12640.734461463</DistanceMeters>
          </Trackpoint>
          <Trackpoint>
            <Time>2021-03-13T08:44:02.000Z</Time>
            <Position>
              <LatitudeDegrees>36.71522623859345912933349609375</LatitudeDegrees>
              <LongitudeDegrees>-4.3112622387707233428955078125</LongitudeDegrees>
            </Position>
            <AltitudeMeters>1.39999997615814208984375</AltitudeMeters>
            <DistanceMeters>12695.292872533</DistanceMeters>
          </Trackpoint>
          <Trackpoint>
            <Time>2021-03-13T08:44:05.000Z</Time>
            <Position>
              <LatitudeDegrees>36.715241409838199615478515625</LatitudeDegrees>
              <LongitudeDegrees>-4.3110191635787487030029296875</LongitudeDegrees>
            </Position>
            <AltitudeMeters>1.39999997615814208984375</AltitudeMeters>
            <DistanceMeters>12717.045896825</DistanceMeters>
          </Trackpoint>
          <Trackpoint>
            <Time>2021-03-13T08:44:11.000Z</Time>
            <Position>
              <LatitudeDegrees>36.7152585089206695556640625</LatitudeDegrees>
              <LongitudeDegrees>-4.3105150759220123291015625</LongitudeDegrees>
            </Position>
            <AltitudeMeters>1.60000002384185791015625</AltitudeMeters>
            <DistanceMeters>12762.06148673</DistanceMeters>
          </Trackpoint>
          <Trackpoint>
            <Time>2021-03-13T08:44:15.000Z</Time>
            <Position>
              <LatitudeDegrees>36.7152720876038074493408203125</LatitudeDegrees>
              <LongitudeDegrees>-4.31014962494373321533203125</LongitudeDegrees>
            </Position>
            <AltitudeMeters>1.60000002384185791015625</AltitudeMeters>
            <DistanceMeters>12794.702575245</DistanceMeters>
          </Trackpoint>
          <Trackpoint>
            <Time>2021-03-13T08:44:17.000Z</Time>
            <Position>
              <LatitudeDegrees>36.71528206206858158111572265625</LatitudeDegrees>
              <LongitudeDegrees>-4.30995591916143894195556640625</LongitudeDegrees>
            </Position>
            <AltitudeMeters>1.60000002384185791015625</AltitudeMeters>
            <DistanceMeters>12812.020656228</DistanceMeters>
          </Trackpoint>
          <Trackpoint>
            <Time>2021-03-13T08:44:25.000Z</Time>
            <Position>
              <LatitudeDegrees>36.7153310962021350860595703125</LatitudeDegrees>
              <LongitudeDegrees>-4.3092891387641429901123046875</LongitudeDegrees>
            </Position>
            <AltitudeMeters>1.7999999523162841796875</AltitudeMeters>
            <DistanceMeters>12871.761556565</DistanceMeters>
          </Trackpoint>
          <Trackpoint>
            <Time>2021-03-13T08:44:32.000Z</Time>
            <Position>
              <LatitudeDegrees>36.71536780893802642822265625</LatitudeDegrees>
              <LongitudeDegrees>-4.3086551316082477569580078125</LongitudeDegrees>
            </Position>
            <AltitudeMeters>2.599999904632568359375</AltitudeMeters>
            <DistanceMeters>12928.476028171</DistanceMeters>
          </Trackpoint>
          <Trackpoint>
            <Time>2021-03-13T08:44:35.000Z</Time>
            <Position>
              <LatitudeDegrees>36.71536705456674098968505859375</LatitudeDegrees>
              <LongitudeDegrees>-4.3085716478526592254638671875</LongitudeDegrees>
            </Position>
            <AltitudeMeters>2.7999999523162841796875</AltitudeMeters>
            <DistanceMeters>12935.925783189</DistanceMeters>
          </Trackpoint>
          <Trackpoint>
            <Time>2021-03-13T08:44:36.000Z</Time>
            <Position>
              <LatitudeDegrees>36.71535615809261798858642578125</LatitudeDegrees>
              <LongitudeDegrees>-4.3084864877164363861083984375</LongitudeDegrees>
            </Position>
            <AltitudeMeters>2.7999999523162841796875</AltitudeMeters>
            <DistanceMeters>12943.620600356</DistanceMeters>
          </Trackpoint>
          <Trackpoint>
            <Time>2021-03-13T08:44:38.000Z</Time>
            <Position>
              <LatitudeDegrees>36.71534811146557331085205078125</LatitudeDegrees>
              <LongitudeDegrees>-4.30836419574916362762451171875</LongitudeDegrees>
            </Position>
            <AltitudeMeters>2.7999999523162841796875</AltitudeMeters>
            <DistanceMeters>12954.568486209</DistanceMeters>
          </Trackpoint>
          <Trackpoint>
            <Time>2021-03-13T08:44:39.000Z</Time>
            <Position>
              <LatitudeDegrees>36.71535842120647430419921875</LatitudeDegrees>
              <LongitudeDegrees>-4.308297224342823028564453125</LongitudeDegrees>
            </Position>
            <AltitudeMeters>2.599999904632568359375</AltitudeMeters>
            <DistanceMeters>12960.653164789</DistanceMeters>
          </Trackpoint>
          <Trackpoint>
            <Time>2021-03-13T08:44:41.000Z</Time>
            <Position>
              <LatitudeDegrees>36.71538884751498699188232421875</LatitudeDegrees>
              <LongitudeDegrees>-4.308140315115451812744140625</LongitudeDegrees>
            </Position>
            <AltitudeMeters>2.400000095367431640625</AltitudeMeters>
            <DistanceMeters>12975.056531625</DistanceMeters>
          </Trackpoint>
          <Trackpoint>
            <Time>2021-03-13T08:44:43.000Z</Time>
            <Position>
              <LatitudeDegrees>36.71541298739612102508544921875</LatitudeDegrees>
              <LongitudeDegrees>-4.307959936559200286865234375</LongitudeDegrees>
            </Position>
            <AltitudeMeters>2.2000000476837158203125</AltitudeMeters>
            <DistanceMeters>12991.373202358</DistanceMeters>
          </Trackpoint>
          <Trackpoint>
            <Time>2021-03-13T08:44:48.000Z</Time>
            <Position>
              <LatitudeDegrees>36.71542807482182979583740234375</LatitudeDegrees>
              <LongitudeDegrees>-4.30746146477758884429931640625</LongitudeDegrees>
            </Position>
            <AltitudeMeters>1</AltitudeMeters>
            <DistanceMeters>13035.879195081</DistanceMeters>
          </Trackpoint>
          <Trackpoint>
            <Time>2021-03-13T08:44:49.000Z</Time>
            <Position>
              <LatitudeDegrees>36.71542815864086151123046875</LatitudeDegrees>
              <LongitudeDegrees>-4.3073569424450397491455078125</LongitudeDegrees>
            </Position>
            <AltitudeMeters>0.800000011920928955078125</AltitudeMeters>
            <DistanceMeters>13045.204894317</DistanceMeters>
          </Trackpoint>
          <Trackpoint>
            <Time>2021-03-13T08:44:52.000Z</Time>
            <Position>
              <LatitudeDegrees>36.71544115059077739715576171875</LatitudeDegrees>
              <LongitudeDegrees>-4.3070461414754390716552734375</LongitudeDegrees>
            </Position>
            <AltitudeMeters>0.4000000059604644775390625</AltitudeMeters>
            <DistanceMeters>13072.972701888</DistanceMeters>
          </Trackpoint>
          <Trackpoint>
            <Time>2021-03-13T08:44:54.000Z</Time>
            <Position>
              <LatitudeDegrees>36.71546679921448230743408203125</LatitudeDegrees>
              <LongitudeDegrees>-4.306816644966602325439453125</LongitudeDegrees>
            </Position>
            <AltitudeMeters>0.20000000298023223876953125</AltitudeMeters>
            <DistanceMeters>13093.646636643</DistanceMeters>
          </Trackpoint>
          <Trackpoint>
            <Time>2021-03-13T08:45:01.000Z</Time>
            <Position>
              <LatitudeDegrees>36.71555631794035434722900390625</LatitudeDegrees>
              <LongitudeDegrees>-4.3062253855168819427490234375</LongitudeDegrees>
            </Position>
            <AltitudeMeters>0</AltitudeMeters>
            <DistanceMeters>13147.332273072</DistanceMeters>
          </Trackpoint>
          <Trackpoint>
            <Time>2021-03-13T08:45:03.000Z</Time>
            <Position>
              <LatitudeDegrees>36.71561616472899913787841796875</LatitudeDegrees>
              <LongitudeDegrees>-4.305925481021404266357421875</LongitudeDegrees>
            </Position>
            <AltitudeMeters>0</AltitudeMeters>
            <DistanceMeters>13174.90672677</DistanceMeters>
          </Trackpoint>
          <Trackpoint>
            <Time>2021-03-13T08:45:10.000Z</Time>
            <Position>
              <LatitudeDegrees>36.7157693020999431610107421875</LatitudeDegrees>
              <LongitudeDegrees>-4.305251576006412506103515625</LongitudeDegrees>
            </Position>
            <AltitudeMeters>0.20000000298023223876953125</AltitudeMeters>
            <DistanceMeters>13237.402380408</DistanceMeters>
          </Trackpoint>
          <Trackpoint>
            <Time>2021-03-13T08:45:13.000Z</Time>
            <Position>
              <LatitudeDegrees>36.71583275310695171356201171875</LatitudeDegrees>
              <LongitudeDegrees>-4.30497002787888050079345703125</LongitudeDegrees>
            </Position>
            <AltitudeMeters>0.20000000298023223876953125</AltitudeMeters>
            <DistanceMeters>13263.496169402</DistanceMeters>
          </Trackpoint>
          <Trackpoint>
            <Time>2021-03-13T08:45:19.000Z</Time>
            <Position>
              <LatitudeDegrees>36.71595814637839794158935546875</LatitudeDegrees>
              <LongitudeDegrees>-4.30443174205720424652099609375</LongitudeDegrees>
            </Position>
            <AltitudeMeters>0.800000011920928955078125</AltitudeMeters>
            <DistanceMeters>13313.509208549</DistanceMeters>
          </Trackpoint>
          <Trackpoint>
            <Time>2021-03-13T08:45:20.000Z</Time>
            <Position>
              <LatitudeDegrees>36.7159773409366607666015625</LatitudeDegrees>
              <LongitudeDegrees>-4.30434339679777622222900390625</LongitudeDegrees>
            </Position>
            <AltitudeMeters>0.800000011920928955078125</AltitudeMeters>
            <DistanceMeters>13321.675979307</DistanceMeters>
          </Trackpoint>
          <Trackpoint>
            <Time>2021-03-13T08:45:22.000Z</Time>
            <Position>
              <LatitudeDegrees>36.71600860543549060821533203125</LatitudeDegrees>
              <LongitudeDegrees>-4.30416687391698360443115234375</LongitudeDegrees>
            </Position>
            <AltitudeMeters>1</AltitudeMeters>
            <DistanceMeters>13337.805347006</DistanceMeters>
          </Trackpoint>
          <Trackpoint>
            <Time>2021-03-13T08:45:25.000Z</Time>
            <Position>
              <LatitudeDegrees>36.716075241565704345703125</LatitudeDegrees>
              <LongitudeDegrees>-4.303911142051219940185546875</LongitudeDegrees>
            </Position>
            <AltitudeMeters>1.39999997615814208984375</AltitudeMeters>
            <DistanceMeters>13361.796910787</DistanceMeters>
          </Trackpoint>
          <Trackpoint>
            <Time>2021-03-13T08:45:31.000Z</Time>
            <Position>
              <LatitudeDegrees>36.7162053287029266357421875</LatitudeDegrees>
              <LongitudeDegrees>-4.30345944128930568695068359375</LongitudeDegrees>
            </Position>
            <AltitudeMeters>1.60000002384185791015625</AltitudeMeters>
            <DistanceMeters>13404.619917035</DistanceMeters>
          </Trackpoint>
          <Trackpoint>
            <Time>2021-03-13T08:45:34.000Z</Time>
            <Position>
              <LatitudeDegrees>36.71626157127320766448974609375</LatitudeDegrees>
              <LongitudeDegrees>-4.30329792201519012451171875</LongitudeDegrees>
            </Position>
            <AltitudeMeters>1.7999999523162841796875</AltitudeMeters>
            <DistanceMeters>13420.331830662</DistanceMeters>
          </Trackpoint>
          <Trackpoint>
            <Time>2021-03-13T08:45:35.000Z</Time>
            <Position>
              <LatitudeDegrees>36.716273725032806396484375</LatitudeDegrees>
              <LongitudeDegrees>-4.30326280184090137481689453125</LongitudeDegrees>
            </Position>
            <AltitudeMeters>2</AltitudeMeters>
            <DistanceMeters>13423.743541162</DistanceMeters>
          </Trackpoint>
          <Trackpoint>
            <Time>2021-03-13T08:45:38.000Z</Time>
            <Position>
              <LatitudeDegrees>36.71630498953163623809814453125</LatitudeDegrees>
              <LongitudeDegrees>-4.30317596532404422760009765625</LongitudeDegrees>
            </Position>
            <AltitudeMeters>2.400000095367431640625</AltitudeMeters>
            <DistanceMeters>13432.236611905</DistanceMeters>
          </Trackpoint>
          <Trackpoint>
            <Time>2021-03-13T08:45:40.000Z</Time>
            <Position>
              <LatitudeDegrees>36.7163193225860595703125</LatitudeDegrees>
              <LongitudeDegrees>-4.30313187651336193084716796875</LongitudeDegrees>
            </Position>
            <AltitudeMeters>2.7999999523162841796875</AltitudeMeters>
            <DistanceMeters>13436.482083914</DistanceMeters>
          </Trackpoint>
          <Trackpoint>
            <Time>2021-03-13T08:45:41.000Z</Time>
            <Position>
              <LatitudeDegrees>36.71632359735667705535888671875</LatitudeDegrees>
              <LongitudeDegrees>-4.30311460979282855987548828125</LongitudeDegrees>
            </Position>
            <AltitudeMeters>2.7999999523162841796875</AltitudeMeters>
            <DistanceMeters>13438.094740733</DistanceMeters>
          </Trackpoint>
          <Trackpoint>
            <Time>2021-03-13T08:45:45.000Z</Time>
            <Position>
              <LatitudeDegrees>36.71633097343146800994873046875</LatitudeDegrees>
              <LongitudeDegrees>-4.30309264920651912689208984375</LongitudeDegrees>
            </Position>
            <AltitudeMeters>3.2000000476837158203125</AltitudeMeters>
            <DistanceMeters>13440.217476738</DistanceMeters>
          </Trackpoint>
          <Trackpoint>
            <Time>2021-03-13T08:46:00.000Z</Time>
            <Position>
              <LatitudeDegrees>36.71633097343146800994873046875</LatitudeDegrees>
              <LongitudeDegrees>-4.30309264920651912689208984375</LongitudeDegrees>
            </Position>
            <AltitudeMeters>3.599999904632568359375</AltitudeMeters>
            <DistanceMeters>13440.217476738</DistanceMeters>
          </Trackpoint>
          <Trackpoint>
            <Time>2021-03-13T08:46:06.000Z</Time>
            <Position>
              <LatitudeDegrees>36.71633097343146800994873046875</LatitudeDegrees>
              <LongitudeDegrees>-4.30309264920651912689208984375</LongitudeDegrees>
            </Position>
            <AltitudeMeters>3.400000095367431640625</AltitudeMeters>
            <DistanceMeters>13440.217476738</DistanceMeters>
          </Trackpoint>
          <Trackpoint>
            <Time>2021-03-13T08:46:10.000Z</Time>
            <Position>
              <LatitudeDegrees>36.71633097343146800994873046875</LatitudeDegrees>
              <LongitudeDegrees>-4.30309264920651912689208984375</LongitudeDegrees>
            </Position>
            <AltitudeMeters>3.400000095367431640625</AltitudeMeters>
            <DistanceMeters>13440.217476738</DistanceMeters>
          </Trackpoint>
          <Trackpoint>
            <Time>2021-03-13T08:46:13.000Z</Time>
            <Position>
              <LatitudeDegrees>36.71633097343146800994873046875</LatitudeDegrees>
              <LongitudeDegrees>-4.30309264920651912689208984375</LongitudeDegrees>
            </Position>
            <AltitudeMeters>3.400000095367431640625</AltitudeMeters>
            <DistanceMeters>13440.217476738</DistanceMeters>
          </Trackpoint>
          <Trackpoint>
            <Time>2021-03-13T08:46:20.000Z</Time>
            <Position>
              <LatitudeDegrees>36.716353185474872589111328125</LatitudeDegrees>
              <LongitudeDegrees>-4.3030523322522640228271484375</LongitudeDegrees>
            </Position>
            <AltitudeMeters>3.2000000476837158203125</AltitudeMeters>
            <DistanceMeters>13444.582503805</DistanceMeters>
          </Trackpoint>
          <Trackpoint>
            <Time>2021-03-13T08:46:24.000Z</Time>
            <Position>
              <LatitudeDegrees>36.716423928737640380859375</LatitudeDegrees>
              <LongitudeDegrees>-4.30286164395511150360107421875</LongitudeDegrees>
            </Position>
            <AltitudeMeters>3.400000095367431640625</AltitudeMeters>
            <DistanceMeters>13463.329518906</DistanceMeters>
          </Trackpoint>
          <Trackpoint>
            <Time>2021-03-13T08:46:28.000Z</Time>
            <Position>
              <LatitudeDegrees>36.7164914868772029876708984375</LatitudeDegrees>
              <LongitudeDegrees>-4.30263466201722621917724609375</LongitudeDegrees>
            </Position>
            <AltitudeMeters>3.599999904632568359375</AltitudeMeters>
            <DistanceMeters>13484.931747737</DistanceMeters>
          </Trackpoint>
          <Trackpoint>
            <Time>2021-03-13T08:46:30.000Z</Time>
            <Position>
              <LatitudeDegrees>36.71653783880174160003662109375</LatitudeDegrees>
              <LongitudeDegrees>-4.3025225959718227386474609375</LongitudeDegrees>
            </Position>
            <AltitudeMeters>3.7999999523162841796875</AltitudeMeters>
            <DistanceMeters>13496.183488569</DistanceMeters>
          </Trackpoint>
          <Trackpoint>
            <Time>2021-03-13T08:46:34.000Z</Time>
            <Position>
              <LatitudeDegrees>36.716605313122272491455078125</LatitudeDegrees>
              <LongitudeDegrees>-4.3023609928786754608154296875</LongitudeDegrees>
            </Position>
            <AltitudeMeters>4.80000019073486328125</AltitudeMeters>
            <DistanceMeters>13512.440279374</DistanceMeters>
          </Trackpoint>
          <Trackpoint>
            <Time>2021-03-13T08:46:35.000Z</Time>
            <Position>
              <LatitudeDegrees>36.7166339792311191558837890625</LatitudeDegrees>
              <LongitudeDegrees>-4.30222495459020137786865234375</LongitudeDegrees>
            </Position>
            <AltitudeMeters>5</AltitudeMeters>
            <DistanceMeters>13524.989563544</DistanceMeters>
          </Trackpoint>
          <Trackpoint>
            <Time>2021-03-13T08:46:36.000Z</Time>
            <Position>
              <LatitudeDegrees>36.71663959510624408721923828125</LatitudeDegrees>
              <LongitudeDegrees>-4.30216133594512939453125</LongitudeDegrees>
            </Position>
            <AltitudeMeters>5.400000095367431640625</AltitudeMeters>
            <DistanceMeters>13530.699079807</DistanceMeters>
          </Trackpoint>
          <Trackpoint>
            <Time>2021-03-13T08:46:38.000Z</Time>
            <Position>
              <LatitudeDegrees>36.71664596535265445709228515625</LatitudeDegrees>
              <LongitudeDegrees>-4.30203535594046115875244140625</LongitudeDegrees>
            </Position>
            <AltitudeMeters>6.19999980926513671875</AltitudeMeters>
            <DistanceMeters>13541.961248947</DistanceMeters>
          </Trackpoint>
          <Trackpoint>
            <Time>2021-03-13T08:46:39.000Z</Time>
            <Position>
              <LatitudeDegrees>36.71663959510624408721923828125</LatitudeDegrees>
              <LongitudeDegrees>-4.30197064764797687530517578125</LongitudeDegrees>
            </Position>
            <AltitudeMeters>6.599999904632568359375</AltitudeMeters>
            <DistanceMeters>13547.777318613</DistanceMeters>
          </Trackpoint>
          <Trackpoint>
            <Time>2021-03-13T08:46:41.000Z</Time>
            <Position>
              <LatitudeDegrees>36.71660254709422588348388671875</LatitudeDegrees>
              <LongitudeDegrees>-4.30184743367135524749755859375</LongitudeDegrees>
            </Position>
            <AltitudeMeters>7.19999980926513671875</AltitudeMeters>
            <DistanceMeters>13559.518406595</DistanceMeters>
          </Trackpoint>
          <Trackpoint>
            <Time>2021-03-13T08:46:42.000Z</Time>
            <Position>
              <LatitudeDegrees>36.71658108942210674285888671875</LatitudeDegrees>
              <LongitudeDegrees>-4.301788844168186187744140625</LongitudeDegrees>
            </Position>
            <AltitudeMeters>7.400000095367431640625</AltitudeMeters>
            <DistanceMeters>13565.265755517</DistanceMeters>
          </Trackpoint>
          <Trackpoint>
            <Time>2021-03-13T08:46:45.000Z</Time>
            <Position>
              <LatitudeDegrees>36.71650883741676807403564453125</LatitudeDegrees>
              <LongitudeDegrees>-4.301615841686725616455078125</LongitudeDegrees>
            </Position>
            <AltitudeMeters>8</AltitudeMeters>
            <DistanceMeters>13582.67017778</DistanceMeters>
          </Trackpoint>
          <Trackpoint>
            <Time>2021-03-13T08:46:46.000Z</Time>
            <Position>
              <LatitudeDegrees>36.71647824347019195556640625</LatitudeDegrees>
              <LongitudeDegrees>-4.30155959911644458770751953125</LongitudeDegrees>
            </Position>
            <AltitudeMeters>8.3999996185302734375</AltitudeMeters>
            <DistanceMeters>13588.734788349</DistanceMeters>
          </Trackpoint>
          <Trackpoint>
            <Time>2021-03-13T08:46:48.000Z</Time>
            <Position>
              <LatitudeDegrees>36.71642468310892581939697265625</LatitudeDegrees>
              <LongitudeDegrees>-4.30146454833447933197021484375</LongitudeDegrees>
            </Position>
            <AltitudeMeters>8.80000019073486328125</AltitudeMeters>
            <DistanceMeters>13599.100979052</DistanceMeters>
          </Trackpoint>
          <Trackpoint>
            <Time>2021-03-13T08:46:50.000Z</Time>
            <Position>
              <LatitudeDegrees>36.71638034284114837646484375</LatitudeDegrees>
              <LongitudeDegrees>-4.301364719867706298828125</LongitudeDegrees>
            </Position>
            <AltitudeMeters>9.6000003814697265625</AltitudeMeters>
            <DistanceMeters>13609.283480598</DistanceMeters>
          </Trackpoint>
          <Trackpoint>
            <Time>2021-03-13T08:46:52.000Z</Time>
            <Position>
              <LatitudeDegrees>36.716338433325290679931640625</LatitudeDegrees>
              <LongitudeDegrees>-4.30128232575953006744384765625</LongitudeDegrees>
            </Position>
            <AltitudeMeters>10.6000003814697265625</AltitudeMeters>
            <DistanceMeters>13617.989711795</DistanceMeters>
          </Trackpoint>
          <Trackpoint>
            <Time>2021-03-13T08:46:53.000Z</Time>
            <Position>
              <LatitudeDegrees>36.71631454490125179290771484375</LatitudeDegrees>
              <LongitudeDegrees>-4.3012418411672115325927734375</LongitudeDegrees>
            </Position>
            <AltitudeMeters>11.19999980926513671875</AltitudeMeters>
            <DistanceMeters>13622.475133773</DistanceMeters>
          </Trackpoint>
          <Trackpoint>
            <Time>2021-03-13T08:46:55.000Z</Time>
            <Position>
              <LatitudeDegrees>36.71627028845250606536865234375</LatitudeDegrees>
              <LongitudeDegrees>-4.30115944705903530120849609375</LongitudeDegrees>
            </Position>
            <AltitudeMeters>11.80000019073486328125</AltitudeMeters>
            <DistanceMeters>13631.324361023</DistanceMeters>
          </Trackpoint>
          <Trackpoint>
            <Time>2021-03-13T08:46:59.000Z</Time>
            <Position>
              <LatitudeDegrees>36.716182194650173187255859375</LatitudeDegrees>
              <LongitudeDegrees>-4.3009984306991100311279296875</LongitudeDegrees>
            </Position>
            <AltitudeMeters>12.80000019073486328125</AltitudeMeters>
            <DistanceMeters>13648.717365104</DistanceMeters>
          </Trackpoint>
          <Trackpoint>
            <Time>2021-03-13T08:47:00.000Z</Time>
            <Position>
              <LatitudeDegrees>36.7161592282354831695556640625</LatitudeDegrees>
              <LongitudeDegrees>-4.30096079595386981964111328125</LongitudeDegrees>
            </Position>
            <AltitudeMeters>13.19999980926513671875</AltitudeMeters>
            <DistanceMeters>13652.937236043</DistanceMeters>
          </Trackpoint>
          <Trackpoint>
            <Time>2021-03-13T08:47:04.000Z</Time>
            <Position>
              <LatitudeDegrees>36.71605805866420269012451171875</LatitudeDegrees>
              <LongitudeDegrees>-4.30079852230846881866455078125</LongitudeDegrees>
            </Position>
            <AltitudeMeters>14.19999980926513671875</AltitudeMeters>
            <DistanceMeters>13671.279115118</DistanceMeters>
          </Trackpoint>
          <Trackpoint>
            <Time>2021-03-13T08:47:07.000Z</Time>
            <Position>
              <LatitudeDegrees>36.715991757810115814208984375</LatitudeDegrees>
              <LongitudeDegrees>-4.3006708659231662750244140625</LongitudeDegrees>
            </Position>
            <AltitudeMeters>15.19999980926513671875</AltitudeMeters>
            <DistanceMeters>13684.850314002</DistanceMeters>
          </Trackpoint>
          <Trackpoint>
            <Time>2021-03-13T08:47:08.000Z</Time>
            <Position>
              <LatitudeDegrees>36.71596451662480831146240234375</LatitudeDegrees>
              <LongitudeDegrees>-4.300632812082767486572265625</LongitudeDegrees>
            </Position>
            <AltitudeMeters>15.3999996185302734375</AltitudeMeters>
            <DistanceMeters>13689.403670513</DistanceMeters>
          </Trackpoint>
          <Trackpoint>
            <Time>2021-03-13T08:47:11.000Z</Time>
            <Position>
              <LatitudeDegrees>36.71587466262280941009521484375</LatitudeDegrees>
              <LongitudeDegrees>-4.30053181014955043792724609375</LongitudeDegrees>
            </Position>
            <AltitudeMeters>16</AltitudeMeters>
            <DistanceMeters>13702.865974708</DistanceMeters>
          </Trackpoint>
          <Trackpoint>
            <Time>2021-03-13T08:47:12.000Z</Time>
            <Position>
              <LatitudeDegrees>36.71584566123783588409423828125</LatitudeDegrees>
              <LongitudeDegrees>-4.300509430468082427978515625</LongitudeDegrees>
            </Position>
            <AltitudeMeters>16</AltitudeMeters>
            <DistanceMeters>13706.662288974</DistanceMeters>
          </Trackpoint>
          <Trackpoint>
            <Time>2021-03-13T08:47:14.000Z</Time>
            <Position>
              <LatitudeDegrees>36.7157649435102939605712890625</LatitudeDegrees>
              <LongitudeDegrees>-4.30044732056558132171630859375</LongitudeDegrees>
            </Position>
            <AltitudeMeters>16.799999237060546875</AltitudeMeters>
            <DistanceMeters>13717.217528581</DistanceMeters>
          </Trackpoint>
          <Trackpoint>
            <Time>2021-03-13T08:47:16.000Z</Time>
            <Position>
              <LatitudeDegrees>36.71569327823817729949951171875</LatitudeDegrees>
              <LongitudeDegrees>-4.3003977835178375244140625</LongitudeDegrees>
            </Position>
            <AltitudeMeters>17.3999996185302734375</AltitudeMeters>
            <DistanceMeters>13726.336627987</DistanceMeters>
          </Trackpoint>
          <Trackpoint>
            <Time>2021-03-13T08:47:19.000Z</Time>
            <Position>
              <LatitudeDegrees>36.71557408757507801055908203125</LatitudeDegrees>
              <LongitudeDegrees>-4.3003158085048198699951171875</LongitudeDegrees>
            </Position>
            <AltitudeMeters>17.799999237060546875</AltitudeMeters>
            <DistanceMeters>13741.485567314</DistanceMeters>
          </Trackpoint>
          <Trackpoint>
            <Time>2021-03-13T08:47:23.000Z</Time>
            <Position>
              <LatitudeDegrees>36.715410389006137847900390625</LatitudeDegrees>
              <LongitudeDegrees>-4.30020877160131931304931640625</LongitudeDegrees>
            </Position>
            <AltitudeMeters>18.799999237060546875</AltitudeMeters>
            <DistanceMeters>13762.056820859</DistanceMeters>
          </Trackpoint>
          <Trackpoint>
            <Time>2021-03-13T08:47:27.000Z</Time>
            <Position>
              <LatitudeDegrees>36.71524308621883392333984375</LatitudeDegrees>
              <LongitudeDegrees>-4.30009628646075725555419921875</LongitudeDegrees>
            </Position>
            <AltitudeMeters>20</AltitudeMeters>
            <DistanceMeters>13783.210245594</DistanceMeters>
          </Trackpoint>
          <Trackpoint>
            <Time>2021-03-13T08:47:28.000Z</Time>
            <Position>
              <LatitudeDegrees>36.71520193107426166534423828125</LatitudeDegrees>
              <LongitudeDegrees>-4.30006443522870540618896484375</LongitudeDegrees>
            </Position>
            <AltitudeMeters>20.6000003814697265625</AltitudeMeters>
            <DistanceMeters>13788.60086578</DistanceMeters>
          </Trackpoint>
          <Trackpoint>
            <Time>2021-03-13T08:47:31.000Z</Time>
            <Position>
              <LatitudeDegrees>36.71507603488862514495849609375</LatitudeDegrees>
              <LongitudeDegrees>-4.29997709579765796661376953125</LongitudeDegrees>
            </Position>
            <AltitudeMeters>21.200000762939453125</AltitudeMeters>
            <DistanceMeters>13804.634775982</DistanceMeters>
          </Trackpoint>
          <Trackpoint>
            <Time>2021-03-13T08:47:35.000Z</Time>
            <Position>
              <LatitudeDegrees>36.71490387059748172760009765625</LatitudeDegrees>
              <LongitudeDegrees>-4.2998685501515865325927734375</LongitudeDegrees>
            </Position>
            <AltitudeMeters>22.200000762939453125</AltitudeMeters>
            <DistanceMeters>13826.105346596</DistanceMeters>
          </Trackpoint>
          <Trackpoint>
            <Time>2021-03-13T08:47:38.000Z</Time>
            <Position>
              <LatitudeDegrees>36.71477596275508403778076171875</LatitudeDegrees>
              <LongitudeDegrees>-4.29977173916995525360107421875</LongitudeDegrees>
            </Position>
            <AltitudeMeters>23.200000762939453125</AltitudeMeters>
            <DistanceMeters>13842.756998985</DistanceMeters>
          </Trackpoint>
          <Trackpoint>
            <Time>2021-03-13T08:47:39.000Z</Time>
            <Position>
              <LatitudeDegrees>36.7147349752485752105712890625</LatitudeDegrees>
              <LongitudeDegrees>-4.29973728954792022705078125</LongitudeDegrees>
            </Position>
            <AltitudeMeters>23.6000003814697265625</AltitudeMeters>
            <DistanceMeters>13848.257067719</DistanceMeters>
          </Trackpoint>
          <Trackpoint>
            <Time>2021-03-13T08:47:42.000Z</Time>
            <Position>
              <LatitudeDegrees>36.71462508849799633026123046875</LatitudeDegrees>
              <LongitudeDegrees>-4.2996070347726345062255859375</LongitudeDegrees>
            </Position>
            <AltitudeMeters>24.3999996185302734375</AltitudeMeters>
            <DistanceMeters>13865.129060187</DistanceMeters>
          </Trackpoint>
          <Trackpoint>
            <Time>2021-03-13T08:47:44.000Z</Time>
            <Position>
              <LatitudeDegrees>36.71456239186227321624755859375</LatitudeDegrees>
              <LongitudeDegrees>-4.29950259625911712646484375</LongitudeDegrees>
            </Position>
            <AltitudeMeters>24.6000003814697265625</AltitudeMeters>
            <DistanceMeters>13876.770899275</DistanceMeters>
          </Trackpoint>
          <Trackpoint>
            <Time>2021-03-13T08:47:45.000Z</Time>
            <Position>
              <LatitudeDegrees>36.71453632414340972900390625</LatitudeDegrees>
              <LongitudeDegrees>-4.29944626986980438232421875</LongitudeDegrees>
            </Position>
            <AltitudeMeters>24.6000003814697265625</AltitudeMeters>
            <DistanceMeters>13882.574534785</DistanceMeters>
          </Trackpoint>
          <Trackpoint>
            <Time>2021-03-13T08:47:48.000Z</Time>
            <Position>
              <LatitudeDegrees>36.7144758068025112152099609375</LatitudeDegrees>
              <LongitudeDegrees>-4.2992627061903476715087890625</LongitudeDegrees>
            </Position>
            <AltitudeMeters>24.799999237060546875</AltitudeMeters>
            <DistanceMeters>13900.283700629</DistanceMeters>
          </Trackpoint>
          <Trackpoint>
            <Time>2021-03-13T08:47:49.000Z</Time>
            <Position>
              <LatitudeDegrees>36.71445988118648529052734375</LatitudeDegrees>
              <LongitudeDegrees>-4.29919791407883167266845703125</LongitudeDegrees>
            </Position>
            <AltitudeMeters>24.799999237060546875</AltitudeMeters>
            <DistanceMeters>13906.3311637</DistanceMeters>
          </Trackpoint>
          <Trackpoint>
            <Time>2021-03-13T08:47:52.000Z</Time>
            <Position>
              <LatitudeDegrees>36.7144365794956684112548828125</LatitudeDegrees>
              <LongitudeDegrees>-4.29899373091757297515869140625</LongitudeDegrees>
            </Position>
            <AltitudeMeters>25.200000762939453125</AltitudeMeters>
            <DistanceMeters>13924.732762451</DistanceMeters>
          </Trackpoint>
          <Trackpoint>
            <Time>2021-03-13T08:47:55.000Z</Time>
            <Position>
              <LatitudeDegrees>36.7144466377794742584228515625</LatitudeDegrees>
              <LongitudeDegrees>-4.29877513088285923004150390625</LongitudeDegrees>
            </Position>
            <AltitudeMeters>25.3999996185302734375</AltitudeMeters>
            <DistanceMeters>13944.268785099</DistanceMeters>
          </Trackpoint>
          <Trackpoint>
            <Time>2021-03-13T08:47:58.000Z</Time>
            <Position>
              <LatitudeDegrees>36.71447019092738628387451171875</LatitudeDegrees>
              <LongitudeDegrees>-4.2985509149730205535888671875</LongitudeDegrees>
            </Position>
            <AltitudeMeters>25.3999996185302734375</AltitudeMeters>
            <DistanceMeters>13964.444905789</DistanceMeters>
          </Trackpoint>
          <Trackpoint>
            <Time>2021-03-13T08:48:02.000Z</Time>
            <Position>
              <LatitudeDegrees>36.71450153924524784088134765625</LatitudeDegrees>
              <LongitudeDegrees>-4.29825159721076488494873046875</LongitudeDegrees>
            </Position>
            <AltitudeMeters>25.3999996185302734375</AltitudeMeters>
            <DistanceMeters>13991.377897467</DistanceMeters>
          </Trackpoint>
          <Trackpoint>
            <Time>2021-03-13T08:48:07.000Z</Time>
            <Position>
              <LatitudeDegrees>36.714538671076297760009765625</LatitudeDegrees>
              <LongitudeDegrees>-4.2979242838919162750244140625</LongitudeDegrees>
            </Position>
            <AltitudeMeters>25.6000003814697265625</AltitudeMeters>
            <DistanceMeters>14020.872634361</DistanceMeters>
          </Trackpoint>
          <Trackpoint>
            <Time>2021-03-13T08:48:09.000Z</Time>
            <Position>
              <LatitudeDegrees>36.7145499028265476226806640625</LatitudeDegrees>
              <LongitudeDegrees>-4.29783937521278858184814453125</LongitudeDegrees>
            </Position>
            <AltitudeMeters>25.6000003814697265625</AltitudeMeters>
            <DistanceMeters>14028.551592571</DistanceMeters>
          </Trackpoint>
          <Trackpoint>
            <Time>2021-03-13T08:48:13.000Z</Time>
            <Position>
              <LatitudeDegrees>36.71455870382487773895263671875</LatitudeDegrees>
              <LongitudeDegrees>-4.29773275740444660186767578125</LongitudeDegrees>
            </Position>
            <AltitudeMeters>25.799999237060546875</AltitudeMeters>
            <DistanceMeters>14038.113943436</DistanceMeters>
          </Trackpoint>
          <Trackpoint>
            <Time>2021-03-13T08:48:14.000Z</Time>
            <Position>
              <LatitudeDegrees>36.71455912292003631591796875</LatitudeDegrees>
              <LongitudeDegrees>-4.29771213792264461517333984375</LongitudeDegrees>
            </Position>
            <AltitudeMeters>25.799999237060546875</AltitudeMeters>
            <DistanceMeters>14039.956579793</DistanceMeters>
          </Trackpoint>
          <Trackpoint>
            <Time>2021-03-13T08:48:17.000Z</Time>
            <Position>
              <LatitudeDegrees>36.71456088311970233917236328125</LatitudeDegrees>
              <LongitudeDegrees>-4.2976657859981060028076171875</LongitudeDegrees>
            </Position>
            <AltitudeMeters>25.6000003814697265625</AltitudeMeters>
            <DistanceMeters>14044.096517605</DistanceMeters>
          </Trackpoint>
          <Trackpoint>
            <Time>2021-03-13T08:48:20.000Z</Time>
            <Position>
              <LatitudeDegrees>36.7145639844238758087158203125</LatitudeDegrees>
              <LongitudeDegrees>-4.29763711988925933837890625</LongitudeDegrees>
            </Position>
            <AltitudeMeters>25.6000003814697265625</AltitudeMeters>
            <DistanceMeters>14046.676278512</DistanceMeters>
          </Trackpoint>
          <Trackpoint>
            <Time>2021-03-13T08:48:25.000Z</Time>
            <Position>
              <LatitudeDegrees>36.71456708572804927825927734375</LatitudeDegrees>
              <LongitudeDegrees>-4.297609962522983551025390625</LongitudeDegrees>
            </Position>
            <AltitudeMeters>25.3999996185302734375</AltitudeMeters>
            <DistanceMeters>14049.124945652</DistanceMeters>
          </Trackpoint>
          <Trackpoint>
            <Time>2021-03-13T08:48:26.000Z</Time>
            <Position>
              <LatitudeDegrees>36.71456708572804927825927734375</LatitudeDegrees>
              <LongitudeDegrees>-4.297609962522983551025390625</LongitudeDegrees>
            </Position>
            <AltitudeMeters>25.3999996185302734375</AltitudeMeters>
            <DistanceMeters>14049.124945652</DistanceMeters>
          </Trackpoint>
          <Trackpoint>
            <Time>2021-03-13T08:48:34.000Z</Time>
            <Position>
              <LatitudeDegrees>36.71456708572804927825927734375</LatitudeDegrees>
              <LongitudeDegrees>-4.297609962522983551025390625</LongitudeDegrees>
            </Position>
            <AltitudeMeters>25.3999996185302734375</AltitudeMeters>
            <DistanceMeters>14049.124945652</DistanceMeters>
          </Trackpoint>
          <Trackpoint>
            <Time>2021-03-13T08:48:37.000Z</Time>
            <Position>
              <LatitudeDegrees>36.71456708572804927825927734375</LatitudeDegrees>
              <LongitudeDegrees>-4.297609962522983551025390625</LongitudeDegrees>
            </Position>
            <AltitudeMeters>25.6000003814697265625</AltitudeMeters>
            <DistanceMeters>14049.124945652</DistanceMeters>
          </Trackpoint>
          <Trackpoint>
            <Time>2021-03-13T08:48:41.000Z</Time>
            <Position>
              <LatitudeDegrees>36.71456708572804927825927734375</LatitudeDegrees>
              <LongitudeDegrees>-4.297609962522983551025390625</LongitudeDegrees>
            </Position>
            <AltitudeMeters>25.799999237060546875</AltitudeMeters>
            <DistanceMeters>14049.124945652</DistanceMeters>
          </Trackpoint>
          <Trackpoint>
            <Time>2021-03-13T08:48:49.000Z</Time>
            <Position>
              <LatitudeDegrees>36.71457043848931789398193359375</LatitudeDegrees>
              <LongitudeDegrees>-4.297559000551700592041015625</LongitudeDegrees>
            </Position>
            <AltitudeMeters>25.799999237060546875</AltitudeMeters>
            <DistanceMeters>14053.688207235</DistanceMeters>
          </Trackpoint>
          <Trackpoint>
            <Time>2021-03-13T08:48:55.000Z</Time>
            <Position>
              <LatitudeDegrees>36.714570522308349609375</LatitudeDegrees>
              <LongitudeDegrees>-4.29754952900111675262451171875</LongitudeDegrees>
            </Position>
            <AltitudeMeters>25.6000003814697265625</AltitudeMeters>
            <DistanceMeters>14054.538152007</DistanceMeters>
          </Trackpoint>
          <Trackpoint>
            <Time>2021-03-13T08:48:59.000Z</Time>
            <Position>
              <LatitudeDegrees>36.7145767249166965484619140625</LatitudeDegrees>
              <LongitudeDegrees>-4.29751583375036716461181640625</LongitudeDegrees>
            </Position>
            <AltitudeMeters>25.3999996185302734375</AltitudeMeters>
            <DistanceMeters>14057.623229084</DistanceMeters>
          </Trackpoint>
          <Trackpoint>
            <Time>2021-03-13T08:49:00.000Z</Time>
            <Position>
              <LatitudeDegrees>36.7145767249166965484619140625</LatitudeDegrees>
              <LongitudeDegrees>-4.29751583375036716461181640625</LongitudeDegrees>
            </Position>
            <AltitudeMeters>25.3999996185302734375</AltitudeMeters>
            <DistanceMeters>14057.623229084</DistanceMeters>
          </Trackpoint>
          <Trackpoint>
            <Time>2021-03-13T08:49:04.000Z</Time>
            <Position>
              <LatitudeDegrees>36.7146179638803005218505859375</LatitudeDegrees>
              <LongitudeDegrees>-4.29727560840547084808349609375</LongitudeDegrees>
            </Position>
            <AltitudeMeters>25.3999996185302734375</AltitudeMeters>
            <DistanceMeters>14079.542495661</DistanceMeters>
          </Trackpoint>
          <Trackpoint>
            <Time>2021-03-13T08:49:09.000Z</Time>
            <Position>
              <LatitudeDegrees>36.7146659083664417266845703125</LatitudeDegrees>
              <LongitudeDegrees>-4.296911247074604034423828125</LongitudeDegrees>
            </Position>
            <AltitudeMeters>25.200000762939453125</AltitudeMeters>
            <DistanceMeters>14112.486765084</DistanceMeters>
          </Trackpoint>
          <Trackpoint>
            <Time>2021-03-13T08:49:10.000Z</Time>
            <Position>
              <LatitudeDegrees>36.714674122631549835205078125</LatitudeDegrees>
              <LongitudeDegrees>-4.29683790542185306549072265625</LongitudeDegrees>
            </Position>
            <AltitudeMeters>25.200000762939453125</AltitudeMeters>
            <DistanceMeters>14119.094368251</DistanceMeters>
          </Trackpoint>
          <Trackpoint>
            <Time>2021-03-13T08:49:14.000Z</Time>
            <Position>
              <LatitudeDegrees>36.71470823697745800018310546875</LatitudeDegrees>
              <LongitudeDegrees>-4.2965268529951572418212890625</LongitudeDegrees>
            </Position>
            <AltitudeMeters>25.200000762939453125</AltitudeMeters>
            <DistanceMeters>14147.105819523</DistanceMeters>
          </Trackpoint>
          <Trackpoint>
            <Time>2021-03-13T08:49:20.000Z</Time>
            <Position>
              <LatitudeDegrees>36.71477629803121089935302734375</LatitudeDegrees>
              <LongitudeDegrees>-4.29602167569100856781005859375</LongitudeDegrees>
            </Position>
            <AltitudeMeters>25.799999237060546875</AltitudeMeters>
            <DistanceMeters>14192.811001987</DistanceMeters>
          </Trackpoint>
          <Trackpoint>
            <Time>2021-03-13T08:49:27.000Z</Time>
            <Position>
              <LatitudeDegrees>36.714930944144725799560546875</LatitudeDegrees>
              <LongitudeDegrees>-4.29544600658118724822998046875</LongitudeDegrees>
            </Position>
            <AltitudeMeters>25.799999237060546875</AltitudeMeters>
            <DistanceMeters>14246.980813606</DistanceMeters>
          </Trackpoint>
          <Trackpoint>
            <Time>2021-03-13T08:49:33.000Z</Time>
            <Position>
              <LatitudeDegrees>36.71510637737810611724853515625</LatitudeDegrees>
              <LongitudeDegrees>-4.2949078045785427093505859375</LongitudeDegrees>
            </Position>
            <AltitudeMeters>25</AltitudeMeters>
            <DistanceMeters>14298.818387121</DistanceMeters>
          </Trackpoint>
          <Trackpoint>
            <Time>2021-03-13T08:49:34.000Z</Time>
            <Position>
              <LatitudeDegrees>36.7151386477053165435791015625</LatitudeDegrees>
              <LongitudeDegrees>-4.294814765453338623046875</LongitudeDegrees>
            </Position>
            <AltitudeMeters>24.799999237060546875</AltitudeMeters>
            <DistanceMeters>14307.863412969</DistanceMeters>
          </Trackpoint>
          <Trackpoint>
            <Time>2021-03-13T08:49:37.000Z</Time>
            <Position>
              <LatitudeDegrees>36.7152553237974643707275390625</LatitudeDegrees>
              <LongitudeDegrees>-4.29453606717288494110107421875</LongitudeDegrees>
            </Position>
            <AltitudeMeters>24.200000762939453125</AltitudeMeters>
            <DistanceMeters>14335.916097367</DistanceMeters>
          </Trackpoint>
          <Trackpoint>
            <Time>2021-03-13T08:49:39.000Z</Time>
            <Position>
              <LatitudeDegrees>36.71536822803318500518798828125</LatitudeDegrees>
              <LongitudeDegrees>-4.29436457343399524688720703125</LongitudeDegrees>
            </Position>
            <AltitudeMeters>23.799999237060546875</AltitudeMeters>
            <DistanceMeters>14355.715888748</DistanceMeters>
          </Trackpoint>
          <Trackpoint>
            <Time>2021-03-13T08:49:41.000Z</Time>
            <Position>
              <LatitudeDegrees>36.7155044339597225189208984375</LatitudeDegrees>
              <LongitudeDegrees>-4.2942087538540363311767578125</LongitudeDegrees>
            </Position>
            <AltitudeMeters>23</AltitudeMeters>
            <DistanceMeters>14376.285605855</DistanceMeters>
          </Trackpoint>
          <Trackpoint>
            <Time>2021-03-13T08:49:45.000Z</Time>
            <Position>
              <LatitudeDegrees>36.71580509282648563385009765625</LatitudeDegrees>
              <LongitudeDegrees>-4.29388009943068027496337890625</LongitudeDegrees>
            </Position>
            <AltitudeMeters>20.799999237060546875</AltitudeMeters>
            <DistanceMeters>14420.779220217</DistanceMeters>
          </Trackpoint>
          <Trackpoint>
            <Time>2021-03-13T08:49:46.000Z</Time>
            <Position>
              <LatitudeDegrees>36.7158834636211395263671875</LatitudeDegrees>
              <LongitudeDegrees>-4.293793179094791412353515625</LongitudeDegrees>
            </Position>
            <AltitudeMeters>19.799999237060546875</AltitudeMeters>
            <DistanceMeters>14432.450883904</DistanceMeters>
          </Trackpoint>
          <Trackpoint>
            <Time>2021-03-13T08:49:48.000Z</Time>
            <Position>
              <LatitudeDegrees>36.71604129485785961151123046875</LatitudeDegrees>
              <LongitudeDegrees>-4.29360668174922466278076171875</LongitudeDegrees>
            </Position>
            <AltitudeMeters>17.799999237060546875</AltitudeMeters>
            <DistanceMeters>14456.64708146</DistanceMeters>
          </Trackpoint>
          <Trackpoint>
            <Time>2021-03-13T08:49:49.000Z</Time>
            <Position>
              <LatitudeDegrees>36.71611203812062740325927734375</LatitudeDegrees>
              <LongitudeDegrees>-4.2935009859502315521240234375</LongitudeDegrees>
            </Position>
            <AltitudeMeters>17.3999996185302734375</AltitudeMeters>
            <DistanceMeters>14468.932018074</DistanceMeters>
          </Trackpoint>
          <Trackpoint>
            <Time>2021-03-13T08:49:50.000Z</Time>
            <Position>
              <LatitudeDegrees>36.71616953797638416290283203125</LatitudeDegrees>
              <LongitudeDegrees>-4.29338171146810054779052734375</LongitudeDegrees>
            </Position>
            <AltitudeMeters>16.6000003814697265625</AltitudeMeters>
            <DistanceMeters>14481.349650109</DistanceMeters>
          </Trackpoint>
          <Trackpoint>
            <Time>2021-03-13T08:49:51.000Z</Time>
            <Position>
              <LatitudeDegrees>36.71621136367321014404296875</LatitudeDegrees>
              <LongitudeDegrees>-4.2932508699595928192138671875</LongitudeDegrees>
            </Position>
            <AltitudeMeters>16.3999996185302734375</AltitudeMeters>
            <DistanceMeters>14493.91691063</DistanceMeters>
          </Trackpoint>
          <Trackpoint>
            <Time>2021-03-13T08:49:52.000Z</Time>
            <Position>
              <LatitudeDegrees>36.71623709611594676971435546875</LatitudeDegrees>
              <LongitudeDegrees>-4.29311223328113555908203125</LongitudeDegrees>
            </Position>
            <AltitudeMeters>15</AltitudeMeters>
            <DistanceMeters>14506.613560766</DistanceMeters>
          </Trackpoint>
          <Trackpoint>
            <Time>2021-03-13T08:49:53.000Z</Time>
            <Position>
              <LatitudeDegrees>36.71625486575067043304443359375</LatitudeDegrees>
              <LongitudeDegrees>-4.2929678969085216522216796875</LongitudeDegrees>
            </Position>
            <AltitudeMeters>13.3999996185302734375</AltitudeMeters>
            <DistanceMeters>14519.642274325</DistanceMeters>
          </Trackpoint>
          <Trackpoint>
            <Time>2021-03-13T08:49:55.000Z</Time>
            <Position>
              <LatitudeDegrees>36.71626559458673000335693359375</LatitudeDegrees>
              <LongitudeDegrees>-4.2926725186407566070556640625</LongitudeDegrees>
            </Position>
            <AltitudeMeters>12</AltitudeMeters>
            <DistanceMeters>14546.023100535</DistanceMeters>
          </Trackpoint>
          <Trackpoint>
            <Time>2021-03-13T08:49:57.000Z</Time>
            <Position>
              <LatitudeDegrees>36.7162604816257953643798828125</LatitudeDegrees>
              <LongitudeDegrees>-4.29237538017332553863525390625</LongitudeDegrees>
            </Position>
            <AltitudeMeters>10.80000019073486328125</AltitudeMeters>
            <DistanceMeters>14572.540151512</DistanceMeters>
          </Trackpoint>
          <Trackpoint>
            <Time>2021-03-13T08:50:00.000Z</Time>
            <Position>
              <LatitudeDegrees>36.71624514274299144744873046875</LatitudeDegrees>
              <LongitudeDegrees>-4.29192158393561840057373046875</LongitudeDegrees>
            </Position>
            <AltitudeMeters>9</AltitudeMeters>
            <DistanceMeters>14613.063892477</DistanceMeters>
          </Trackpoint>
          <Trackpoint>
            <Time>2021-03-13T08:50:02.000Z</Time>
            <Position>
              <LatitudeDegrees>36.7162339948117733001708984375</LatitudeDegrees>
              <LongitudeDegrees>-4.291579015552997589111328125</LongitudeDegrees>
            </Position>
            <AltitudeMeters>7.599999904632568359375</AltitudeMeters>
            <DistanceMeters>14643.653049398</DistanceMeters>
          </Trackpoint>
          <Trackpoint>
            <Time>2021-03-13T08:50:03.000Z</Time>
            <Position>
              <LatitudeDegrees>36.71622804366052150726318359375</LatitudeDegrees>
              <LongitudeDegrees>-4.29145588539540767669677734375</LongitudeDegrees>
            </Position>
            <AltitudeMeters>7.400000095367431640625</AltitudeMeters>
            <DistanceMeters>14654.658931708</DistanceMeters>
          </Trackpoint>
          <Trackpoint>
            <Time>2021-03-13T08:50:04.000Z</Time>
            <Position>
              <LatitudeDegrees>36.71621815301477909088134765625</LatitudeDegrees>
              <LongitudeDegrees>-4.2913050949573516845703125</LongitudeDegrees>
            </Position>
            <AltitudeMeters>6</AltitudeMeters>
            <DistanceMeters>14668.157408751</DistanceMeters>
          </Trackpoint>
          <Trackpoint>
            <Time>2021-03-13T08:50:06.000Z</Time>
            <Position>
              <LatitudeDegrees>36.7161857150495052337646484375</LatitudeDegrees>
              <LongitudeDegrees>-4.291013069450855255126953125</LongitudeDegrees>
            </Position>
            <AltitudeMeters>4.599999904632568359375</AltitudeMeters>
            <DistanceMeters>14694.460933744</DistanceMeters>
          </Trackpoint>
          <Trackpoint>
            <Time>2021-03-13T08:50:08.000Z</Time>
            <Position>
              <LatitudeDegrees>36.71614439226686954498291015625</LatitudeDegrees>
              <LongitudeDegrees>-4.2907356284558773040771484375</LongitudeDegrees>
            </Position>
            <AltitudeMeters>3.400000095367431640625</AltitudeMeters>
            <DistanceMeters>14719.638171603</DistanceMeters>
          </Trackpoint>
          <Trackpoint>
            <Time>2021-03-13T08:50:12.000Z</Time>
            <Position>
              <LatitudeDegrees>36.71602704562246799468994140625</LatitudeDegrees>
              <LongitudeDegrees>-4.290212094783782958984375</LongitudeDegrees>
            </Position>
            <AltitudeMeters>2.400000095367431640625</AltitudeMeters>
            <DistanceMeters>14768.139884814</DistanceMeters>
          </Trackpoint>
          <Trackpoint>
            <Time>2021-03-13T08:50:13.000Z</Time>
            <Position>
              <LatitudeDegrees>36.71599620021879673004150390625</LatitudeDegrees>
              <LongitudeDegrees>-4.29007890634238719940185546875</LongitudeDegrees>
            </Position>
            <AltitudeMeters>2.2000000476837158203125</AltitudeMeters>
            <DistanceMeters>14780.509428672</DistanceMeters>
          </Trackpoint>
          <Trackpoint>
            <Time>2021-03-13T08:50:17.000Z</Time>
            <Position>
              <LatitudeDegrees>36.71587030403316020965576171875</LatitudeDegrees>
              <LongitudeDegrees>-4.28953550755977630615234375</LongitudeDegrees>
            </Position>
            <AltitudeMeters>1.60000002384185791015625</AltitudeMeters>
            <DistanceMeters>14830.976219146</DistanceMeters>
          </Trackpoint>
          <Trackpoint>
            <Time>2021-03-13T08:50:19.000Z</Time>
            <Position>
              <LatitudeDegrees>36.715806685388088226318359375</LatitudeDegrees>
              <LongitudeDegrees>-4.28927172906696796417236328125</LongitudeDegrees>
            </Position>
            <AltitudeMeters>1</AltitudeMeters>
            <DistanceMeters>14855.553074383</DistanceMeters>
          </Trackpoint>
          <Trackpoint>
            <Time>2021-03-13T08:50:22.000Z</Time>
            <Position>
              <LatitudeDegrees>36.71571356244385242462158203125</LatitudeDegrees>
              <LongitudeDegrees>-4.28889588452875614166259765625</LongitudeDegrees>
            </Position>
            <AltitudeMeters>-0.20000000298023223876953125</AltitudeMeters>
            <DistanceMeters>14890.651780182</DistanceMeters>
          </Trackpoint>
          <Trackpoint>
            <Time>2021-03-13T08:50:26.000Z</Time>
            <Position>
              <LatitudeDegrees>36.71559579670429229736328125</LatitudeDegrees>
              <LongitudeDegrees>-4.28840973414480686187744140625</LongitudeDegrees>
            </Position>
            <AltitudeMeters>-1.39999997615814208984375</AltitudeMeters>
            <DistanceMeters>14935.96388167</DistanceMeters>
          </Trackpoint>
          <Trackpoint>
            <Time>2021-03-13T08:50:28.000Z</Time>
            <Position>
              <LatitudeDegrees>36.71555422246456146240234375</LatitudeDegrees>
              <LongitudeDegrees>-4.28819817490875720977783203125</LongitudeDegrees>
            </Position>
            <AltitudeMeters>-2</AltitudeMeters>
            <DistanceMeters>14955.398180663</DistanceMeters>
          </Trackpoint>
          <Trackpoint>
            <Time>2021-03-13T08:50:32.000Z</Time>
            <Position>
              <LatitudeDegrees>36.7154967226088047027587890625</LatitudeDegrees>
              <LongitudeDegrees>-4.2878582887351512908935546875</LongitudeDegrees>
            </Position>
            <AltitudeMeters>-2.2000000476837158203125</AltitudeMeters>
            <DistanceMeters>14986.391315092</DistanceMeters>
          </Trackpoint>
          <Trackpoint>
            <Time>2021-03-13T08:50:34.000Z</Time>
            <Position>
              <LatitudeDegrees>36.71548741869628429412841796875</LatitudeDegrees>
              <LongitudeDegrees>-4.28778469562530517578125</LongitudeDegrees>
            </Position>
            <AltitudeMeters>-2.2000000476837158203125</AltitudeMeters>
            <DistanceMeters>14993.039111277</DistanceMeters>
          </Trackpoint>
          <Trackpoint>
            <Time>2021-03-13T08:50:38.000Z</Time>
            <Position>
              <LatitudeDegrees>36.71543645672500133514404296875</LatitudeDegrees>
              <LongitudeDegrees>-4.2874204181134700775146484375</LongitudeDegrees>
            </Position>
            <AltitudeMeters>-2.2000000476837158203125</AltitudeMeters>
            <DistanceMeters>15026.031724159</DistanceMeters>
          </Trackpoint>
          <Trackpoint>
            <Time>2021-03-13T08:50:41.000Z</Time>
            <Position>
              <LatitudeDegrees>36.71540946699678897857666015625</LatitudeDegrees>
              <LongitudeDegrees>-4.2871857248246669769287109375</LongitudeDegrees>
            </Position>
            <AltitudeMeters>-2.2000000476837158203125</AltitudeMeters>
            <DistanceMeters>15047.185789212</DistanceMeters>
          </Trackpoint>
          <Trackpoint>
            <Time>2021-03-13T08:50:43.000Z</Time>
            <Position>
              <LatitudeDegrees>36.715387590229511260986328125</LatitudeDegrees>
              <LongitudeDegrees>-4.2870576493442058563232421875</LongitudeDegrees>
            </Position>
            <AltitudeMeters>-2</AltitudeMeters>
            <DistanceMeters>15058.869052263</DistanceMeters>
          </Trackpoint>
          <Trackpoint>
            <Time>2021-03-13T08:50:45.000Z</Time>
            <Position>
              <LatitudeDegrees>36.71536621637642383575439453125</LatitudeDegrees>
              <LongitudeDegrees>-4.28692437708377838134765625</LongitudeDegrees>
            </Position>
            <AltitudeMeters>-2</AltitudeMeters>
            <DistanceMeters>15070.995295078</DistanceMeters>
          </Trackpoint>
          <Trackpoint>
            <Time>2021-03-13T08:50:47.000Z</Time>
            <Position>
              <LatitudeDegrees>36.71534903347492218017578125</LatitudeDegrees>
              <LongitudeDegrees>-4.286759756505489349365234375</LongitudeDegrees>
            </Position>
            <AltitudeMeters>-2</AltitudeMeters>
            <DistanceMeters>15085.806969771</DistanceMeters>
          </Trackpoint>
          <Trackpoint>
            <Time>2021-03-13T08:50:49.000Z</Time>
            <Position>
              <LatitudeDegrees>36.715323887765407562255859375</LatitudeDegrees>
              <LongitudeDegrees>-4.28657577373087406158447265625</LongitudeDegrees>
            </Position>
            <AltitudeMeters>-2</AltitudeMeters>
            <DistanceMeters>15102.459164444</DistanceMeters>
          </Trackpoint>
          <Trackpoint>
            <Time>2021-03-13T08:50:51.000Z</Time>
            <Position>
              <LatitudeDegrees>36.7152982391417026519775390625</LatitudeDegrees>
              <LongitudeDegrees>-4.286387600004673004150390625</LongitudeDegrees>
            </Position>
            <AltitudeMeters>-2</AltitudeMeters>
            <DistanceMeters>15119.489372759</DistanceMeters>
          </Trackpoint>
          <Trackpoint>
            <Time>2021-03-13T08:50:53.000Z</Time>
            <Position>
              <LatitudeDegrees>36.715272925794124603271484375</LatitudeDegrees>
              <LongitudeDegrees>-4.286197163164615631103515625</LongitudeDegrees>
            </Position>
            <AltitudeMeters>-2</AltitudeMeters>
            <DistanceMeters>15136.712555135</DistanceMeters>
          </Trackpoint>
          <Trackpoint>
            <Time>2021-03-13T08:51:00.000Z</Time>
            <Position>
              <LatitudeDegrees>36.71517871320247650146484375</LatitudeDegrees>
              <LongitudeDegrees>-4.28552652709186077117919921875</LongitudeDegrees>
            </Position>
            <AltitudeMeters>-2.2000000476837158203125</AltitudeMeters>
            <DistanceMeters>15197.459678355</DistanceMeters>
          </Trackpoint>
          <Trackpoint>
            <Time>2021-03-13T08:51:02.000Z</Time>
            <Position>
              <LatitudeDegrees>36.715147197246551513671875</LatitudeDegrees>
              <LongitudeDegrees>-4.285340867936611175537109375</LongitudeDegrees>
            </Position>
            <AltitudeMeters>-2</AltitudeMeters>
            <DistanceMeters>15214.392308309</DistanceMeters>
          </Trackpoint>
          <Trackpoint>
            <Time>2021-03-13T08:51:09.000Z</Time>
            <Position>
              <LatitudeDegrees>36.71504996716976165771484375</LatitudeDegrees>
              <LongitudeDegrees>-4.284679032862186431884765625</LongitudeDegrees>
            </Position>
            <AltitudeMeters>-2.2000000476837158203125</AltitudeMeters>
            <DistanceMeters>15274.425881665</DistanceMeters>
          </Trackpoint>
          <Trackpoint>
            <Time>2021-03-13T08:51:16.000Z</Time>
            <Position>
              <LatitudeDegrees>36.71495785005390644073486328125</LatitudeDegrees>
              <LongitudeDegrees>-4.2840069718658924102783203125</LongitudeDegrees>
            </Position>
            <AltitudeMeters>-2</AltitudeMeters>
            <DistanceMeters>15335.258567185</DistanceMeters>
          </Trackpoint>
          <Trackpoint>
            <Time>2021-03-13T08:51:17.000Z</Time>
            <Position>
              <LatitudeDegrees>36.714948713779449462890625</LatitudeDegrees>
              <LongitudeDegrees>-4.28390764631330966949462890625</LongitudeDegrees>
            </Position>
            <AltitudeMeters>-2</AltitudeMeters>
            <DistanceMeters>15344.178939017</DistanceMeters>
          </Trackpoint>
          <Trackpoint>
            <Time>2021-03-13T08:51:24.000Z</Time>
            <Position>
              <LatitudeDegrees>36.71485994942486286163330078125</LatitudeDegrees>
              <LongitudeDegrees>-4.28320348262786865234375</LongitudeDegrees>
            </Position>
            <AltitudeMeters>-2.2000000476837158203125</AltitudeMeters>
            <DistanceMeters>15407.777799473</DistanceMeters>
          </Trackpoint>
          <Trackpoint>
            <Time>2021-03-13T08:51:32.000Z</Time>
            <Position>
              <LatitudeDegrees>36.71476054005324840545654296875</LatitudeDegrees>
              <LongitudeDegrees>-4.28247031755745410919189453125</LongitudeDegrees>
            </Position>
            <AltitudeMeters>-2.400000095367431640625</AltitudeMeters>
            <DistanceMeters>15474.121488026</DistanceMeters>
          </Trackpoint>
          <Trackpoint>
            <Time>2021-03-13T08:51:35.000Z</Time>
            <Position>
              <LatitudeDegrees>36.71472114510834217071533203125</LatitudeDegrees>
              <LongitudeDegrees>-4.2822070419788360595703125</LongitudeDegrees>
            </Position>
            <AltitudeMeters>-2.400000095367431640625</AltitudeMeters>
            <DistanceMeters>15498.017258653</DistanceMeters>
          </Trackpoint>
          <Trackpoint>
            <Time>2021-03-13T08:51:37.000Z</Time>
            <Position>
              <LatitudeDegrees>36.7147041298449039459228515625</LatitudeDegrees>
              <LongitudeDegrees>-4.2820831574499607086181640625</LongitudeDegrees>
            </Position>
            <AltitudeMeters>-2.400000095367431640625</AltitudeMeters>
            <DistanceMeters>15509.232021455</DistanceMeters>
          </Trackpoint>
          <Trackpoint>
            <Time>2021-03-13T08:51:41.000Z</Time>
            <Position>
              <LatitudeDegrees>36.7146736197173595428466796875</LatitudeDegrees>
              <LongitudeDegrees>-4.281878806650638580322265625</LongitudeDegrees>
            </Position>
            <AltitudeMeters>-2.599999904632568359375</AltitudeMeters>
            <DistanceMeters>15527.77806178</DistanceMeters>
          </Trackpoint>
          <Trackpoint>
            <Time>2021-03-13T08:51:44.000Z</Time>
            <Position>
              <LatitudeDegrees>36.71466347761452198028564453125</LatitudeDegrees>
              <LongitudeDegrees>-4.2818260006606578826904296875</LongitudeDegrees>
            </Position>
            <AltitudeMeters>-2.599999904632568359375</AltitudeMeters>
            <DistanceMeters>15532.621628504</DistanceMeters>
          </Trackpoint>
          <Trackpoint>
            <Time>2021-03-13T08:52:01.000Z</Time>
            <Position>
              <LatitudeDegrees>36.71466247178614139556884765625</LatitudeDegrees>
              <LongitudeDegrees>-4.28179599344730377197265625</LongitudeDegrees>
            </Position>
            <AltitudeMeters>-2.400000095367431640625</AltitudeMeters>
            <DistanceMeters>15535.302662045</DistanceMeters>
          </Trackpoint>
          <Trackpoint>
            <Time>2021-03-13T08:52:02.000Z</Time>
            <Position>
              <LatitudeDegrees>36.7146615497767925262451171875</LatitudeDegrees>
              <LongitudeDegrees>-4.28176112473011016845703125</LongitudeDegrees>
            </Position>
            <AltitudeMeters>-2.400000095367431640625</AltitudeMeters>
            <DistanceMeters>15538.413970764</DistanceMeters>
          </Trackpoint>
          <Trackpoint>
            <Time>2021-03-13T08:52:07.000Z</Time>
            <Position>
              <LatitudeDegrees>36.7146320454776287078857421875</LatitudeDegrees>
              <LongitudeDegrees>-4.2815151996910572052001953125</LongitudeDegrees>
            </Position>
            <AltitudeMeters>-2.400000095367431640625</AltitudeMeters>
            <DistanceMeters>15560.600215759</DistanceMeters>
          </Trackpoint>
          <Trackpoint>
            <Time>2021-03-13T08:52:12.000Z</Time>
            <Position>
              <LatitudeDegrees>36.7145941592752933502197265625</LatitudeDegrees>
              <LongitudeDegrees>-4.2811661772429943084716796875</LongitudeDegrees>
            </Position>
            <AltitudeMeters>-2.2000000476837158203125</AltitudeMeters>
            <DistanceMeters>15592.024905093</DistanceMeters>
          </Trackpoint>
          <Trackpoint>
            <Time>2021-03-13T08:52:17.000Z</Time>
            <Position>
              <LatitudeDegrees>36.71455107629299163818359375</LatitudeDegrees>
              <LongitudeDegrees>-4.28076778538525104522705078125</LongitudeDegrees>
            </Position>
            <AltitudeMeters>-2.2000000476837158203125</AltitudeMeters>
            <DistanceMeters>15627.892423417</DistanceMeters>
          </Trackpoint>
          <Trackpoint>
            <Time>2021-03-13T08:52:18.000Z</Time>
            <Position>
              <LatitudeDegrees>36.71454210765659809112548828125</LatitudeDegrees>
              <LongitudeDegrees>-4.28068824112415313720703125</LongitudeDegrees>
            </Position>
            <AltitudeMeters>-2.2000000476837158203125</AltitudeMeters>
            <DistanceMeters>15635.059227084</DistanceMeters>
          </Trackpoint>
          <Trackpoint>
            <Time>2021-03-13T08:52:26.000Z</Time>
            <Position>
              <LatitudeDegrees>36.714466251432895660400390625</LatitudeDegrees>
              <LongitudeDegrees>-4.28002330474555492401123046875</LongitudeDegrees>
            </Position>
            <AltitudeMeters>-2.599999904632568359375</AltitudeMeters>
            <DistanceMeters>15694.98425157</DistanceMeters>
          </Trackpoint>
          <Trackpoint>
            <Time>2021-03-13T08:52:28.000Z</Time>
            <Position>
              <LatitudeDegrees>36.7144479788839817047119140625</LatitudeDegrees>
              <LongitudeDegrees>-4.27985365502536296844482421875</LongitudeDegrees>
            </Position>
            <AltitudeMeters>-2.599999904632568359375</AltitudeMeters>
            <DistanceMeters>15710.257264852</DistanceMeters>
          </Trackpoint>
          <Trackpoint>
            <Time>2021-03-13T08:52:29.000Z</Time>
            <Position>
              <LatitudeDegrees>36.71443347819149494171142578125</LatitudeDegrees>
              <LongitudeDegrees>-4.2797700874507427215576171875</LongitudeDegrees>
            </Position>
            <AltitudeMeters>-2.599999904632568359375</AltitudeMeters>
            <DistanceMeters>15717.88608145</DistanceMeters>
          </Trackpoint>
          <Trackpoint>
            <Time>2021-03-13T08:52:33.000Z</Time>
            <Position>
              <LatitudeDegrees>36.714406572282314300537109375</LatitudeDegrees>
              <LongitudeDegrees>-4.27943942137062549591064453125</LongitudeDegrees>
            </Position>
            <AltitudeMeters>-2.400000095367431640625</AltitudeMeters>
            <DistanceMeters>15747.540659418</DistanceMeters>
          </Trackpoint>
          <Trackpoint>
            <Time>2021-03-13T08:52:40.000Z</Time>
            <Position>
              <LatitudeDegrees>36.71433784067630767822265625</LatitudeDegrees>
              <LongitudeDegrees>-4.27880725823342800140380859375</LongitudeDegrees>
            </Position>
            <AltitudeMeters>-2.400000095367431640625</AltitudeMeters>
            <DistanceMeters>15804.460312851</DistanceMeters>
          </Trackpoint>
          <Trackpoint>
            <Time>2021-03-13T08:52:42.000Z</Time>
            <Position>
              <LatitudeDegrees>36.71431495808064937591552734375</LatitudeDegrees>
              <LongitudeDegrees>-4.27862788550555706024169921875</LongitudeDegrees>
            </Position>
            <AltitudeMeters>-2.400000095367431640625</AltitudeMeters>
            <DistanceMeters>15820.665641701</DistanceMeters>
          </Trackpoint>
          <Trackpoint>
            <Time>2021-03-13T08:52:49.000Z</Time>
            <Position>
              <LatitudeDegrees>36.71423784457147121429443359375</LatitudeDegrees>
              <LongitudeDegrees>-4.27796772681176662445068359375</LongitudeDegrees>
            </Position>
            <AltitudeMeters>-2.400000095367431640625</AltitudeMeters>
            <DistanceMeters>15880.188785715</DistanceMeters>
          </Trackpoint>
          <Trackpoint>
            <Time>2021-03-13T08:52:56.000Z</Time>
            <Position>
              <LatitudeDegrees>36.7141469009220600128173828125</LatitudeDegrees>
              <LongitudeDegrees>-4.27733371965587139129638671875</LongitudeDegrees>
            </Position>
            <AltitudeMeters>-2.400000095367431640625</AltitudeMeters>
            <DistanceMeters>15937.655204225</DistanceMeters>
          </Trackpoint>
          <Trackpoint>
            <Time>2021-03-13T08:53:02.000Z</Time>
            <Position>
              <LatitudeDegrees>36.71408177353441715240478515625</LatitudeDegrees>
              <LongitudeDegrees>-4.276783950626850128173828125</LongitudeDegrees>
            </Position>
            <AltitudeMeters>-2.599999904632568359375</AltitudeMeters>
            <DistanceMeters>15987.240030873</DistanceMeters>
          </Trackpoint>
          <Trackpoint>
            <Time>2021-03-13T08:53:09.000Z</Time>
            <Position>
              <LatitudeDegrees>36.7140005528926849365234375</LatitudeDegrees>
              <LongitudeDegrees>-4.2760911025106906890869140625</LongitudeDegrees>
            </Position>
            <AltitudeMeters>-2.400000095367431640625</AltitudeMeters>
            <DistanceMeters>16049.715452458</DistanceMeters>
          </Trackpoint>
          <Trackpoint>
            <Time>2021-03-13T08:53:16.000Z</Time>
            <Position>
              <LatitudeDegrees>36.713935844600200653076171875</LatitudeDegrees>
              <LongitudeDegrees>-4.2754103243350982666015625</LongitudeDegrees>
            </Position>
            <AltitudeMeters>-2.400000095367431640625</AltitudeMeters>
            <DistanceMeters>16110.881956955</DistanceMeters>
          </Trackpoint>
          <Trackpoint>
            <Time>2021-03-13T08:53:17.000Z</Time>
            <Position>
              <LatitudeDegrees>36.71392335556447505950927734375</LatitudeDegrees>
              <LongitudeDegrees>-4.27531016059219837188720703125</LongitudeDegrees>
            </Position>
            <AltitudeMeters>-2.400000095367431640625</AltitudeMeters>
            <DistanceMeters>16119.926483615</DistanceMeters>
          </Trackpoint>
          <Trackpoint>
            <Time>2021-03-13T08:53:19.000Z</Time>
            <Position>
              <LatitudeDegrees>36.71389401890337467193603515625</LatitudeDegrees>
              <LongitudeDegrees>-4.27510832436382770538330078125</LongitudeDegrees>
            </Position>
            <AltitudeMeters>-2.400000095367431640625</AltitudeMeters>
            <DistanceMeters>16138.228688009</DistanceMeters>
          </Trackpoint>
          <Trackpoint>
            <Time>2021-03-13T08:53:26.000Z</Time>
            <Position>
              <LatitudeDegrees>36.7137968726456165313720703125</LatitudeDegrees>
              <LongitudeDegrees>-4.27439686842262744903564453125</LongitudeDegrees>
            </Position>
            <AltitudeMeters>-2.7999999523162841796875</AltitudeMeters>
            <DistanceMeters>16202.621330767</DistanceMeters>
          </Trackpoint>
          <Trackpoint>
            <Time>2021-03-13T08:53:33.000Z</Time>
            <Position>
              <LatitudeDegrees>36.71371514908969402313232421875</LatitudeDegrees>
              <LongitudeDegrees>-4.2737015895545482635498046875</LongitudeDegrees>
            </Position>
            <AltitudeMeters>-3</AltitudeMeters>
            <DistanceMeters>16265.319665981</DistanceMeters>
          </Trackpoint>
          <Trackpoint>
            <Time>2021-03-13T08:53:34.000Z</Time>
            <Position>
              <LatitudeDegrees>36.7137023247778415679931640625</LatitudeDegrees>
              <LongitudeDegrees>-4.27360209636390209197998046875</LongitudeDegrees>
            </Position>
            <AltitudeMeters>-3</AltitudeMeters>
            <DistanceMeters>16274.310619452</DistanceMeters>
          </Trackpoint>
          <Trackpoint>
            <Time>2021-03-13T08:53:41.000Z</Time>
            <Position>
              <LatitudeDegrees>36.713608615100383758544921875</LatitudeDegrees>
              <LongitudeDegrees>-4.272926934063434600830078125</LongitudeDegrees>
            </Position>
            <AltitudeMeters>-3</AltitudeMeters>
            <DistanceMeters>16335.447147496</DistanceMeters>
          </Trackpoint>
          <Trackpoint>
            <Time>2021-03-13T08:53:42.000Z</Time>
            <Position>
              <LatitudeDegrees>36.71360081993043422698974609375</LatitudeDegrees>
              <LongitudeDegrees>-4.2728292010724544525146484375</LongitudeDegrees>
            </Position>
            <AltitudeMeters>-3</AltitudeMeters>
            <DistanceMeters>16344.210754068</DistanceMeters>
          </Trackpoint>
          <Trackpoint>
            <Time>2021-03-13T08:53:48.000Z</Time>
            <Position>
              <LatitudeDegrees>36.7135444097220897674560546875</LatitudeDegrees>
              <LongitudeDegrees>-4.27236006595194339752197265625</LongitudeDegrees>
            </Position>
            <AltitudeMeters>-2.2000000476837158203125</AltitudeMeters>
            <DistanceMeters>16386.536808998</DistanceMeters>
          </Trackpoint>
          <Trackpoint>
            <Time>2021-03-13T08:53:52.000Z</Time>
            <Position>
              <LatitudeDegrees>36.7134937830269336700439453125</LatitudeDegrees>
              <LongitudeDegrees>-4.2718791961669921875</LongitudeDegrees>
            </Position>
            <AltitudeMeters>-1.39999997615814208984375</AltitudeMeters>
            <DistanceMeters>16429.810184326</DistanceMeters>
          </Trackpoint>
          <Trackpoint>
            <Time>2021-03-13T08:53:55.000Z</Time>
            <Position>
              <LatitudeDegrees>36.713467128574848175048828125</LatitudeDegrees>
              <LongitudeDegrees>-4.27159312181174755096435546875</LongitudeDegrees>
            </Position>
            <AltitudeMeters>-1</AltitudeMeters>
            <DistanceMeters>16455.506434048</DistanceMeters>
          </Trackpoint>
          <Trackpoint>
            <Time>2021-03-13T08:54:01.000Z</Time>
            <Position>
              <LatitudeDegrees>36.71339730732142925262451171875</LatitudeDegrees>
              <LongitudeDegrees>-4.27102885209023952484130859375</LongitudeDegrees>
            </Position>
            <AltitudeMeters>0</AltitudeMeters>
            <DistanceMeters>16506.448907575</DistanceMeters>
          </Trackpoint>
          <Trackpoint>
            <Time>2021-03-13T08:54:02.000Z</Time>
            <Position>
              <LatitudeDegrees>36.7133871652185916900634765625</LatitudeDegrees>
              <LongitudeDegrees>-4.27093765698373317718505859375</LongitudeDegrees>
            </Position>
            <AltitudeMeters>0.20000000298023223876953125</AltitudeMeters>
            <DistanceMeters>16514.664185497</DistanceMeters>
          </Trackpoint>
          <Trackpoint>
            <Time>2021-03-13T08:54:04.000Z</Time>
            <Position>
              <LatitudeDegrees>36.7133707366883754730224609375</LatitudeDegrees>
              <LongitudeDegrees>-4.2707565240561962127685546875</LongitudeDegrees>
            </Position>
            <AltitudeMeters>0.60000002384185791015625</AltitudeMeters>
            <DistanceMeters>16530.92847335</DistanceMeters>
          </Trackpoint>
          <Trackpoint>
            <Time>2021-03-13T08:54:09.000Z</Time>
            <Position>
              <LatitudeDegrees>36.71331332065165042877197265625</LatitudeDegrees>
              <LongitudeDegrees>-4.27030415274202823638916015625</LongitudeDegrees>
            </Position>
            <AltitudeMeters>1.2000000476837158203125</AltitudeMeters>
            <DistanceMeters>16571.793496254</DistanceMeters>
          </Trackpoint>
          <Trackpoint>
            <Time>2021-03-13T08:54:11.000Z</Time>
            <Position>
              <LatitudeDegrees>36.71329236589372158050537109375</LatitudeDegrees>
              <LongitudeDegrees>-4.2701241932809352874755859375</LongitudeDegrees>
            </Position>
            <AltitudeMeters>1.2000000476837158203125</AltitudeMeters>
            <DistanceMeters>16588.018872941</DistanceMeters>
          </Trackpoint>
          <Trackpoint>
            <Time>2021-03-13T08:54:17.000Z</Time>
            <Position>
              <LatitudeDegrees>36.713232435286045074462890625</LatitudeDegrees>
              <LongitudeDegrees>-4.26952513866126537322998046875</LongitudeDegrees>
            </Position>
            <AltitudeMeters>1.2000000476837158203125</AltitudeMeters>
            <DistanceMeters>16641.88334752</DistanceMeters>
          </Trackpoint>
          <Trackpoint>
            <Time>2021-03-13T08:54:19.000Z</Time>
            <Position>
              <LatitudeDegrees>36.71321332454681396484375</LatitudeDegrees>
              <LongitudeDegrees>-4.2693473584949970245361328125</LongitudeDegrees>
            </Position>
            <AltitudeMeters>0.60000002384185791015625</AltitudeMeters>
            <DistanceMeters>16657.887381019</DistanceMeters>
          </Trackpoint>
          <Trackpoint>
            <Time>2021-03-13T08:54:23.000Z</Time>
            <Position>
              <LatitudeDegrees>36.71316437423229217529296875</LatitudeDegrees>
              <LongitudeDegrees>-4.2689493857324123382568359375</LongitudeDegrees>
            </Position>
            <AltitudeMeters>0</AltitudeMeters>
            <DistanceMeters>16693.811626803</DistanceMeters>
          </Trackpoint>
          <Trackpoint>
            <Time>2021-03-13T08:54:29.000Z</Time>
            <Position>
              <LatitudeDegrees>36.7130988277494907379150390625</LatitudeDegrees>
              <LongitudeDegrees>-4.2683720402419567108154296875</LongitudeDegrees>
            </Position>
            <AltitudeMeters>-0.800000011920928955078125</AltitudeMeters>
            <DistanceMeters>16745.838731225</DistanceMeters>
          </Trackpoint>
          <Trackpoint>
            <Time>2021-03-13T08:54:31.000Z</Time>
            <Position>
              <LatitudeDegrees>36.713070832192897796630859375</LatitudeDegrees>
              <LongitudeDegrees>-4.26817397587001323699951171875</LongitudeDegrees>
            </Position>
            <AltitudeMeters>-1</AltitudeMeters>
            <DistanceMeters>16763.78343869</DistanceMeters>
          </Trackpoint>
          <Trackpoint>
            <Time>2021-03-13T08:54:36.000Z</Time>
            <Position>
              <LatitudeDegrees>36.7130136676132678985595703125</LatitudeDegrees>
              <LongitudeDegrees>-4.2676860652863979339599609375</LongitudeDegrees>
            </Position>
            <AltitudeMeters>-1.39999997615814208984375</AltitudeMeters>
            <DistanceMeters>16807.779268107</DistanceMeters>
          </Trackpoint>
          <Trackpoint>
            <Time>2021-03-13T08:54:43.000Z</Time>
            <Position>
              <LatitudeDegrees>36.712926328182220458984375</LatitudeDegrees>
              <LongitudeDegrees>-4.2669913731515407562255859375</LongitudeDegrees>
            </Position>
            <AltitudeMeters>-1.39999997615814208984375</AltitudeMeters>
            <DistanceMeters>16870.520363921</DistanceMeters>
          </Trackpoint>
          <Trackpoint>
            <Time>2021-03-13T08:54:44.000Z</Time>
            <Position>
              <LatitudeDegrees>36.7129174433648586273193359375</LatitudeDegrees>
              <LongitudeDegrees>-4.2669115774333477020263671875</LongitudeDegrees>
            </Position>
            <AltitudeMeters>-1.39999997615814208984375</AltitudeMeters>
            <DistanceMeters>16877.708555447</DistanceMeters>
          </Trackpoint>
          <Trackpoint>
            <Time>2021-03-13T08:54:51.000Z</Time>
            <Position>
              <LatitudeDegrees>36.7128306068480014801025390625</LatitudeDegrees>
              <LongitudeDegrees>-4.26621411927044391632080078125</LongitudeDegrees>
            </Position>
            <AltitudeMeters>-1.60000002384185791015625</AltitudeMeters>
            <DistanceMeters>16940.684817437</DistanceMeters>
          </Trackpoint>
          <Trackpoint>
            <Time>2021-03-13T08:54:54.000Z</Time>
            <Position>
              <LatitudeDegrees>36.712793223559856414794921875</LatitudeDegrees>
              <LongitudeDegrees>-4.2659275420010089874267578125</LongitudeDegrees>
            </Position>
            <AltitudeMeters>-1.60000002384185791015625</AltitudeMeters>
            <DistanceMeters>16966.590710228</DistanceMeters>
          </Trackpoint>
          <Trackpoint>
            <Time>2021-03-13T08:55:01.000Z</Time>
            <Position>
              <LatitudeDegrees>36.71271803788840770721435546875</LatitudeDegrees>
              <LongitudeDegrees>-4.26524433307349681854248046875</LongitudeDegrees>
            </Position>
            <AltitudeMeters>-1.60000002384185791015625</AltitudeMeters>
            <DistanceMeters>17028.121369988</DistanceMeters>
          </Trackpoint>
          <Trackpoint>
            <Time>2021-03-13T08:55:02.000Z</Time>
            <Position>
              <LatitudeDegrees>36.71270831488072872161865234375</LatitudeDegrees>
              <LongitudeDegrees>-4.2651470191776752471923828125</LongitudeDegrees>
            </Position>
            <AltitudeMeters>-1.60000002384185791015625</AltitudeMeters>
            <DistanceMeters>17036.871055016</DistanceMeters>
          </Trackpoint>
          <Trackpoint>
            <Time>2021-03-13T08:55:08.000Z</Time>
            <Position>
              <LatitudeDegrees>36.71264109201729297637939453125</LatitudeDegrees>
              <LongitudeDegrees>-4.26456355489790439605712890625</LongitudeDegrees>
            </Position>
            <AltitudeMeters>-1.7999999523162841796875</AltitudeMeters>
            <DistanceMeters>17089.465315415</DistanceMeters>
          </Trackpoint>
          <Trackpoint>
            <Time>2021-03-13T08:55:12.000Z</Time>
            <Position>
              <LatitudeDegrees>36.7125939019024372100830078125</LatitudeDegrees>
              <LongitudeDegrees>-4.26417496986687183380126953125</LongitudeDegrees>
            </Position>
            <AltitudeMeters>-1.7999999523162841796875</AltitudeMeters>
            <DistanceMeters>17124.532361911</DistanceMeters>
          </Trackpoint>
          <Trackpoint>
            <Time>2021-03-13T08:55:19.000Z</Time>
            <Position>
              <LatitudeDegrees>36.71251385472714900970458984375</LatitudeDegrees>
              <LongitudeDegrees>-4.26347139291465282440185546875</LongitudeDegrees>
            </Position>
            <AltitudeMeters>-1.7999999523162841796875</AltitudeMeters>
            <DistanceMeters>17187.937757686</DistanceMeters>
          </Trackpoint>
          <Trackpoint>
            <Time>2021-03-13T08:55:21.000Z</Time>
            <Position>
              <LatitudeDegrees>36.71249340288341045379638671875</LatitudeDegrees>
              <LongitudeDegrees>-4.26327927969396114349365234375</LongitudeDegrees>
            </Position>
            <AltitudeMeters>-1.7999999523162841796875</AltitudeMeters>
            <DistanceMeters>17205.229486669</DistanceMeters>
          </Trackpoint>
          <Trackpoint>
            <Time>2021-03-13T08:55:27.000Z</Time>
            <Position>
              <LatitudeDegrees>36.712422408163547515869140625</LatitudeDegrees>
              <LongitudeDegrees>-4.2627025209367275238037109375</LongitudeDegrees>
            </Position>
            <AltitudeMeters>-2</AltitudeMeters>
            <DistanceMeters>17257.293720719</DistanceMeters>
          </Trackpoint>
          <Trackpoint>
            <Time>2021-03-13T08:55:32.000Z</Time>
            <Position>
              <LatitudeDegrees>36.7123649083077907562255859375</LatitudeDegrees>
              <LongitudeDegrees>-4.26221360452473163604736328125</LongitudeDegrees>
            </Position>
            <AltitudeMeters>-2.400000095367431640625</AltitudeMeters>
            <DistanceMeters>17301.384170554</DistanceMeters>
          </Trackpoint>
          <Trackpoint>
            <Time>2021-03-13T08:55:39.000Z</Time>
            <Position>
              <LatitudeDegrees>36.71227790415287017822265625</LatitudeDegrees>
              <LongitudeDegrees>-4.26152796484529972076416015625</LongitudeDegrees>
            </Position>
            <AltitudeMeters>-2.2000000476837158203125</AltitudeMeters>
            <DistanceMeters>17363.322055214</DistanceMeters>
          </Trackpoint>
          <Trackpoint>
            <Time>2021-03-13T08:55:40.000Z</Time>
            <Position>
              <LatitudeDegrees>36.7122660018503665924072265625</LatitudeDegrees>
              <LongitudeDegrees>-4.2614264599978923797607421875</LongitudeDegrees>
            </Position>
            <AltitudeMeters>-2.2000000476837158203125</AltitudeMeters>
            <DistanceMeters>17372.475254067</DistanceMeters>
          </Trackpoint>
          <Trackpoint>
            <Time>2021-03-13T08:55:47.000Z</Time>
            <Position>
              <LatitudeDegrees>36.7121784947812557220458984375</LatitudeDegrees>
              <LongitudeDegrees>-4.26072380505502223968505859375</LongitudeDegrees>
            </Position>
            <AltitudeMeters>-2.400000095367431640625</AltitudeMeters>
            <DistanceMeters>17435.921652999</DistanceMeters>
          </Trackpoint>
          <Trackpoint>
            <Time>2021-03-13T08:55:50.000Z</Time>
            <Position>
              <LatitudeDegrees>36.71214169822633266448974609375</LatitudeDegrees>
              <LongitudeDegrees>-4.26041685976088047027587890625</LongitudeDegrees>
            </Position>
            <AltitudeMeters>-2.400000095367431640625</AltitudeMeters>
            <DistanceMeters>17463.613422383</DistanceMeters>
          </Trackpoint>
          <Trackpoint>
            <Time>2021-03-13T08:55:57.000Z</Time>
            <Position>
              <LatitudeDegrees>36.71205972321331501007080078125</LatitudeDegrees>
              <LongitudeDegrees>-4.25970263779163360595703125</LongitudeDegrees>
            </Position>
            <AltitudeMeters>-2.400000095367431640625</AltitudeMeters>
            <DistanceMeters>17527.989795873</DistanceMeters>
          </Trackpoint>
          <Trackpoint>
            <Time>2021-03-13T08:55:58.000Z</Time>
            <Position>
              <LatitudeDegrees>36.71204849146306514739990234375</LatitudeDegrees>
              <LongitudeDegrees>-4.2596012167632579803466796875</LongitudeDegrees>
            </Position>
            <AltitudeMeters>-2.400000095367431640625</AltitudeMeters>
            <DistanceMeters>17537.124231068</DistanceMeters>
          </Trackpoint>
          <Trackpoint>
            <Time>2021-03-13T08:56:05.000Z</Time>
            <Position>
              <LatitudeDegrees>36.71197439543902873992919921875</LatitudeDegrees>
              <LongitudeDegrees>-4.25890577025711536407470703125</LongitudeDegrees>
            </Position>
            <AltitudeMeters>-2.400000095367431640625</AltitudeMeters>
            <DistanceMeters>17599.721307527</DistanceMeters>
          </Trackpoint>
          <Trackpoint>
            <Time>2021-03-13T08:56:06.000Z</Time>
            <Position>
              <LatitudeDegrees>36.71196031384170055389404296875</LatitudeDegrees>
              <LongitudeDegrees>-4.258807785809040069580078125</LongitudeDegrees>
            </Position>
            <AltitudeMeters>-2.400000095367431640625</AltitudeMeters>
            <DistanceMeters>17608.603128726</DistanceMeters>
          </Trackpoint>
          <Trackpoint>
            <Time>2021-03-13T08:56:13.000Z</Time>
            <Position>
              <LatitudeDegrees>36.7118767462670803070068359375</LatitudeDegrees>
              <LongitudeDegrees>-4.258095659315586090087890625</LongitudeDegrees>
            </Position>
            <AltitudeMeters>-2.400000095367431640625</AltitudeMeters>
            <DistanceMeters>17672.81995775</DistanceMeters>
          </Trackpoint>
          <Trackpoint>
            <Time>2021-03-13T08:56:14.000Z</Time>
            <Position>
              <LatitudeDegrees>36.71186593361198902130126953125</LatitudeDegrees>
              <LongitudeDegrees>-4.2580187134444713592529296875</LongitudeDegrees>
            </Position>
            <AltitudeMeters>-2.400000095367431640625</AltitudeMeters>
            <DistanceMeters>17679.790023121</DistanceMeters>
          </Trackpoint>
          <Trackpoint>
            <Time>2021-03-13T08:56:21.000Z</Time>
            <Position>
              <LatitudeDegrees>36.71179368160665035247802734375</LatitudeDegrees>
              <LongitudeDegrees>-4.257335923612117767333984375</LongitudeDegrees>
            </Position>
            <AltitudeMeters>-2</AltitudeMeters>
            <DistanceMeters>17741.240795023</DistanceMeters>
          </Trackpoint>
          <Trackpoint>
            <Time>2021-03-13T08:56:24.000Z</Time>
            <Position>
              <LatitudeDegrees>36.71177306212484836578369140625</LatitudeDegrees>
              <LongitudeDegrees>-4.257053621113300323486328125</LongitudeDegrees>
            </Position>
            <AltitudeMeters>-1.7999999523162841796875</AltitudeMeters>
            <DistanceMeters>17766.533614866</DistanceMeters>
          </Trackpoint>
          <Trackpoint>
            <Time>2021-03-13T08:56:31.000Z</Time>
            <Position>
              <LatitudeDegrees>36.71176032163202762603759765625</LatitudeDegrees>
              <LongitudeDegrees>-4.25638181157410144805908203125</LongitudeDegrees>
            </Position>
            <AltitudeMeters>-1.60000002384185791015625</AltitudeMeters>
            <DistanceMeters>17826.49291143</DistanceMeters>
          </Trackpoint>
          <Trackpoint>
            <Time>2021-03-13T08:56:34.000Z</Time>
            <Position>
              <LatitudeDegrees>36.711763925850391387939453125</LatitudeDegrees>
              <LongitudeDegrees>-4.25608391873538494110107421875</LongitudeDegrees>
            </Position>
            <AltitudeMeters>-1.39999997615814208984375</AltitudeMeters>
            <DistanceMeters>17853.075435237</DistanceMeters>
          </Trackpoint>
          <Trackpoint>
            <Time>2021-03-13T08:56:41.000Z</Time>
            <Position>
              <LatitudeDegrees>36.7117731459438800811767578125</LatitudeDegrees>
              <LongitudeDegrees>-4.2553841136395931243896484375</LongitudeDegrees>
            </Position>
            <AltitudeMeters>-1.2000000476837158203125</AltitudeMeters>
            <DistanceMeters>17915.524328456</DistanceMeters>
          </Trackpoint>
          <Trackpoint>
            <Time>2021-03-13T08:56:44.000Z</Time>
            <Position>
              <LatitudeDegrees>36.711769290268421173095703125</LatitudeDegrees>
              <LongitudeDegrees>-4.2550830356776714324951171875</LongitudeDegrees>
            </Position>
            <AltitudeMeters>-1.2000000476837158203125</AltitudeMeters>
            <DistanceMeters>17942.391525012</DistanceMeters>
          </Trackpoint>
          <Trackpoint>
            <Time>2021-03-13T08:56:45.000Z</Time>
            <Position>
              <LatitudeDegrees>36.71176870353519916534423828125</LatitudeDegrees>
              <LongitudeDegrees>-4.25498119555413722991943359375</LongitudeDegrees>
            </Position>
            <AltitudeMeters>-1.2000000476837158203125</AltitudeMeters>
            <DistanceMeters>17951.478384701</DistanceMeters>
          </Trackpoint>
          <Trackpoint>
            <Time>2021-03-13T08:56:52.000Z</Time>
            <Position>
              <LatitudeDegrees>36.711801476776599884033203125</LatitudeDegrees>
              <LongitudeDegrees>-4.2542798817157745361328125</LongitudeDegrees>
            </Position>
            <AltitudeMeters>-0.800000011920928955078125</AltitudeMeters>
            <DistanceMeters>18014.159722757</DistanceMeters>
          </Trackpoint>
          <Trackpoint>
            <Time>2021-03-13T08:56:59.000Z</Time>
            <Position>
              <LatitudeDegrees>36.7118395306169986724853515625</LatitudeDegrees>
              <LongitudeDegrees>-4.2535585351288318634033203125</LongitudeDegrees>
            </Position>
            <AltitudeMeters>-0.60000002384185791015625</AltitudeMeters>
            <DistanceMeters>18078.661375762</DistanceMeters>
          </Trackpoint>
          <Trackpoint>
            <Time>2021-03-13T08:57:01.000Z</Time>
            <Position>
              <LatitudeDegrees>36.71185185201466083526611328125</LatitudeDegrees>
              <LongitudeDegrees>-4.2533486522734165191650390625</LongitudeDegrees>
            </Position>
            <AltitudeMeters>-0.60000002384185791015625</AltitudeMeters>
            <DistanceMeters>18097.43823132</DistanceMeters>
          </Trackpoint>
          <Trackpoint>
            <Time>2021-03-13T08:57:07.000Z</Time>
            <Position>
              <LatitudeDegrees>36.711881272494792938232421875</LatitudeDegrees>
              <LongitudeDegrees>-4.25274339504539966583251953125</LongitudeDegrees>
            </Position>
            <AltitudeMeters>-1</AltitudeMeters>
            <DistanceMeters>18151.541739341</DistanceMeters>
          </Trackpoint>
          <Trackpoint>
            <Time>2021-03-13T08:57:09.000Z</Time>
            <Position>
              <LatitudeDegrees>36.7118914984166622161865234375</LatitudeDegrees>
              <LongitudeDegrees>-4.25253309309482574462890625</LongitudeDegrees>
            </Position>
            <AltitudeMeters>-1</AltitudeMeters>
            <DistanceMeters>18170.340703985</DistanceMeters>
          </Trackpoint>
          <Trackpoint>
            <Time>2021-03-13T08:57:16.000Z</Time>
            <Position>
              <LatitudeDegrees>36.71193148009479045867919921875</LatitudeDegrees>
              <LongitudeDegrees>-4.2518003471195697784423828125</LongitudeDegrees>
            </Position>
            <AltitudeMeters>-1</AltitudeMeters>
            <DistanceMeters>18235.871528589</DistanceMeters>
          </Trackpoint>
          <Trackpoint>
            <Time>2021-03-13T08:57:17.000Z</Time>
            <Position>
              <LatitudeDegrees>36.711937598884105682373046875</LatitudeDegrees>
              <LongitudeDegrees>-4.25169448368251323699951171875</LongitudeDegrees>
            </Position>
            <AltitudeMeters>-1</AltitudeMeters>
            <DistanceMeters>18245.342312576</DistanceMeters>
          </Trackpoint>
          <Trackpoint>
            <Time>2021-03-13T08:57:24.000Z</Time>
            <Position>
              <LatitudeDegrees>36.71198110096156597137451171875</LatitudeDegrees>
              <LongitudeDegrees>-4.2509963549673557281494140625</LongitudeDegrees>
            </Position>
            <AltitudeMeters>-0.60000002384185791015625</AltitudeMeters>
            <DistanceMeters>18307.820913918</DistanceMeters>
          </Trackpoint>
          <Trackpoint>
            <Time>2021-03-13T08:57:26.000Z</Time>
            <Position>
              <LatitudeDegrees>36.71199132688343524932861328125</LatitudeDegrees>
              <LongitudeDegrees>-4.25080751068890094757080078125</LongitudeDegrees>
            </Position>
            <AltitudeMeters>-0.4000000059604644775390625</AltitudeMeters>
            <DistanceMeters>18324.708955083</DistanceMeters>
          </Trackpoint>
          <Trackpoint>
            <Time>2021-03-13T08:57:28.000Z</Time>
            <Position>
              <LatitudeDegrees>36.71199820004403591156005859375</LatitudeDegrees>
              <LongitudeDegrees>-4.2506208457052707672119140625</LongitudeDegrees>
            </Position>
            <AltitudeMeters>-0.20000000298023223876953125</AltitudeMeters>
            <DistanceMeters>18341.38174349</DistanceMeters>
          </Trackpoint>
          <Trackpoint>
            <Time>2021-03-13T08:57:31.000Z</Time>
            <Position>
              <LatitudeDegrees>36.71201177872717380523681640625</LatitudeDegrees>
              <LongitudeDegrees>-4.2503452487289905548095703125</LongitudeDegrees>
            </Position>
            <AltitudeMeters>0</AltitudeMeters>
            <DistanceMeters>18366.018598978</DistanceMeters>
          </Trackpoint>
          <Trackpoint>
            <Time>2021-03-13T08:57:38.000Z</Time>
            <Position>
              <LatitudeDegrees>36.7120497487485408782958984375</LatitudeDegrees>
              <LongitudeDegrees>-4.24974066205322742462158203125</LongitudeDegrees>
            </Position>
            <AltitudeMeters>1</AltitudeMeters>
            <DistanceMeters>18420.128365525</DistanceMeters>
          </Trackpoint>
          <Trackpoint>
            <Time>2021-03-13T08:57:40.000Z</Time>
            <Position>
              <LatitudeDegrees>36.71206072904169559478759765625</LatitudeDegrees>
              <LongitudeDegrees>-4.2495565116405487060546875</LongitudeDegrees>
            </Position>
            <AltitudeMeters>1.39999997615814208984375</AltitudeMeters>
            <DistanceMeters>18436.604748263</DistanceMeters>
          </Trackpoint>
          <Trackpoint>
            <Time>2021-03-13T08:57:45.000Z</Time>
            <Position>
              <LatitudeDegrees>36.7120936699211597442626953125</LatitudeDegrees>
              <LongitudeDegrees>-4.24913473427295684814453125</LongitudeDegrees>
            </Position>
            <AltitudeMeters>2</AltitudeMeters>
            <DistanceMeters>18474.416067773</DistanceMeters>
          </Trackpoint>
          <Trackpoint>
            <Time>2021-03-13T08:57:46.000Z</Time>
            <Position>
              <LatitudeDegrees>36.712101884186267852783203125</LatitudeDegrees>
              <LongitudeDegrees>-4.249043203890323638916015625</LongitudeDegrees>
            </Position>
            <AltitudeMeters>2</AltitudeMeters>
            <DistanceMeters>18482.634093188</DistanceMeters>
          </Trackpoint>
          <Trackpoint>
            <Time>2021-03-13T08:57:50.000Z</Time>
            <Position>
              <LatitudeDegrees>36.71213574707508087158203125</LatitudeDegrees>
              <LongitudeDegrees>-4.248666353523731231689453125</LongitudeDegrees>
            </Position>
            <AltitudeMeters>2.400000095367431640625</AltitudeMeters>
            <DistanceMeters>18516.469208548</DistanceMeters>
          </Trackpoint>
          <Trackpoint>
            <Time>2021-03-13T08:57:51.000Z</Time>
            <Position>
              <LatitudeDegrees>36.7121390998363494873046875</LatitudeDegrees>
              <LongitudeDegrees>-4.248569793999195098876953125</LongitudeDegrees>
            </Position>
            <AltitudeMeters>2.400000095367431640625</AltitudeMeters>
            <DistanceMeters>18525.092588368</DistanceMeters>
          </Trackpoint>
          <Trackpoint>
            <Time>2021-03-13T08:57:57.000Z</Time>
            <Position>
              <LatitudeDegrees>36.71216013841331005096435546875</LatitudeDegrees>
              <LongitudeDegrees>-4.2479745112359523773193359375</LongitudeDegrees>
            </Position>
            <AltitudeMeters>2.7999999523162841796875</AltitudeMeters>
            <DistanceMeters>18578.258400302</DistanceMeters>
          </Trackpoint>
          <Trackpoint>
            <Time>2021-03-13T08:58:04.000Z</Time>
            <Position>
              <LatitudeDegrees>36.71220506541430950164794921875</LatitudeDegrees>
              <LongitudeDegrees>-4.247265569865703582763671875</LongitudeDegrees>
            </Position>
            <AltitudeMeters>2.7999999523162841796875</AltitudeMeters>
            <DistanceMeters>18641.711061271</DistanceMeters>
          </Trackpoint>
          <Trackpoint>
            <Time>2021-03-13T08:58:07.000Z</Time>
            <Position>
              <LatitudeDegrees>36.71221814118325710296630859375</LatitudeDegrees>
              <LongitudeDegrees>-4.24696625210344791412353515625</LongitudeDegrees>
            </Position>
            <AltitudeMeters>2.599999904632568359375</AltitudeMeters>
            <DistanceMeters>18668.457325606</DistanceMeters>
          </Trackpoint>
          <Trackpoint>
            <Time>2021-03-13T08:58:08.000Z</Time>
            <Position>
              <LatitudeDegrees>36.7122250981628894805908203125</LatitudeDegrees>
              <LongitudeDegrees>-4.2468647472560405731201171875</LongitudeDegrees>
            </Position>
            <AltitudeMeters>2.400000095367431640625</AltitudeMeters>
            <DistanceMeters>18677.547662759</DistanceMeters>
          </Trackpoint>
          <Trackpoint>
            <Time>2021-03-13T08:58:14.000Z</Time>
            <Position>
              <LatitudeDegrees>36.71226985752582550048828125</LatitudeDegrees>
              <LongitudeDegrees>-4.24622856080532073974609375</LongitudeDegrees>
            </Position>
            <AltitudeMeters>1.7999999523162841796875</AltitudeMeters>
            <DistanceMeters>18734.529629967</DistanceMeters>
          </Trackpoint>
          <Trackpoint>
            <Time>2021-03-13T08:58:18.000Z</Time>
            <Position>
              <LatitudeDegrees>36.7122866213321685791015625</LatitudeDegrees>
              <LongitudeDegrees>-4.24579295329749584197998046875</LongitudeDegrees>
            </Position>
            <AltitudeMeters>1</AltitudeMeters>
            <DistanceMeters>18773.441648136</DistanceMeters>
          </Trackpoint>
          <Trackpoint>
            <Time>2021-03-13T08:58:25.000Z</Time>
            <Position>
              <LatitudeDegrees>36.7123176343739032745361328125</LatitudeDegrees>
              <LongitudeDegrees>-4.24503506161272525787353515625</LongitudeDegrees>
            </Position>
            <AltitudeMeters>0</AltitudeMeters>
            <DistanceMeters>18841.152566549</DistanceMeters>
          </Trackpoint>
          <Trackpoint>
            <Time>2021-03-13T08:58:26.000Z</Time>
            <Position>
              <LatitudeDegrees>36.71231872402131557464599609375</LatitudeDegrees>
              <LongitudeDegrees>-4.24494805745780467987060546875</LongitudeDegrees>
            </Position>
            <AltitudeMeters>-0.20000000298023223876953125</AltitudeMeters>
            <DistanceMeters>18848.916894616</DistanceMeters>
          </Trackpoint>
          <Trackpoint>
            <Time>2021-03-13T08:58:32.000Z</Time>
            <Position>
              <LatitudeDegrees>36.7123588733375072479248046875</LatitudeDegrees>
              <LongitudeDegrees>-4.24428571946918964385986328125</LongitudeDegrees>
            </Position>
            <AltitudeMeters>-1.39999997615814208984375</AltitudeMeters>
            <DistanceMeters>18908.182642181</DistanceMeters>
          </Trackpoint>
          <Trackpoint>
            <Time>2021-03-13T08:58:34.000Z</Time>
            <Position>
              <LatitudeDegrees>36.712388880550861358642578125</LatitudeDegrees>
              <LongitudeDegrees>-4.24405856989324092864990234375</LongitudeDegrees>
            </Position>
            <AltitudeMeters>-1.60000002384185791015625</AltitudeMeters>
            <DistanceMeters>18928.723364948</DistanceMeters>
          </Trackpoint>
          <Trackpoint>
            <Time>2021-03-13T08:58:36.000Z</Time>
            <Position>
              <LatitudeDegrees>36.7124128527939319610595703125</LatitudeDegrees>
              <LongitudeDegrees>-4.2438284866511821746826171875</LongitudeDegrees>
            </Position>
            <AltitudeMeters>-2</AltitudeMeters>
            <DistanceMeters>18949.425235106</DistanceMeters>
          </Trackpoint>
          <Trackpoint>
            <Time>2021-03-13T08:58:38.000Z</Time>
            <Position>
              <LatitudeDegrees>36.71242953278124332427978515625</LatitudeDegrees>
              <LongitudeDegrees>-4.2435679771006107330322265625</LongitudeDegrees>
            </Position>
            <AltitudeMeters>-2</AltitudeMeters>
            <DistanceMeters>18972.743404481</DistanceMeters>
          </Trackpoint>
          <Trackpoint>
            <Time>2021-03-13T08:58:41.000Z</Time>
            <Position>
              <LatitudeDegrees>36.71245249919593334197998046875</LatitudeDegrees>
              <LongitudeDegrees>-4.24323278479278087615966796875</LongitudeDegrees>
            </Position>
            <AltitudeMeters>-1.7999999523162841796875</AltitudeMeters>
            <DistanceMeters>19002.759965532</DistanceMeters>
          </Trackpoint>
          <Trackpoint>
            <Time>2021-03-13T08:58:48.000Z</Time>
            <Position>
              <LatitudeDegrees>36.712502203881740570068359375</LatitudeDegrees>
              <LongitudeDegrees>-4.242434240877628326416015625</LongitudeDegrees>
            </Position>
            <AltitudeMeters>-1.39999997615814208984375</AltitudeMeters>
            <DistanceMeters>19074.224224672</DistanceMeters>
          </Trackpoint>
          <Trackpoint>
            <Time>2021-03-13T08:58:55.000Z</Time>
            <Position>
              <LatitudeDegrees>36.71253346838057041168212890625</LatitudeDegrees>
              <LongitudeDegrees>-4.241706691682338714599609375</LongitudeDegrees>
            </Position>
            <AltitudeMeters>-1</AltitudeMeters>
            <DistanceMeters>19139.232777157</DistanceMeters>
          </Trackpoint>
          <Trackpoint>
            <Time>2021-03-13T08:59:01.000Z</Time>
            <Position>
              <LatitudeDegrees>36.71257185749709606170654296875</LatitudeDegrees>
              <LongitudeDegrees>-4.24103974364697933197021484375</LongitudeDegrees>
            </Position>
            <AltitudeMeters>-0.60000002384185791015625</AltitudeMeters>
            <DistanceMeters>19198.894268865</DistanceMeters>
          </Trackpoint>
          <Trackpoint>
            <Time>2021-03-13T08:59:05.000Z</Time>
            <Position>
              <LatitudeDegrees>36.71259784139692783355712890625</LatitudeDegrees>
              <LongitudeDegrees>-4.240586869418621063232421875</LongitudeDegrees>
            </Position>
            <AltitudeMeters>-0.4000000059604644775390625</AltitudeMeters>
            <DistanceMeters>19239.405306288</DistanceMeters>
          </Trackpoint>
          <Trackpoint>
            <Time>2021-03-13T08:59:06.000Z</Time>
            <Position>
              <LatitudeDegrees>36.712605468928813934326171875</LatitudeDegrees>
              <LongitudeDegrees>-4.2404747195541858673095703125</LongitudeDegrees>
            </Position>
            <AltitudeMeters>-0.4000000059604644775390625</AltitudeMeters>
            <DistanceMeters>19249.448061079</DistanceMeters>
          </Trackpoint>
          <Trackpoint>
            <Time>2021-03-13T08:59:13.000Z</Time>
            <Position>
              <LatitudeDegrees>36.71265207231044769287109375</LatitudeDegrees>
              <LongitudeDegrees>-4.23968288116157054901123046875</LongitudeDegrees>
            </Position>
            <AltitudeMeters>-0.20000000298023223876953125</AltitudeMeters>
            <DistanceMeters>19320.289695902</DistanceMeters>
          </Trackpoint>
          <Trackpoint>
            <Time>2021-03-13T08:59:14.000Z</Time>
            <Position>
              <LatitudeDegrees>36.7126572690904140472412109375</LatitudeDegrees>
              <LongitudeDegrees>-4.23957341350615024566650390625</LongitudeDegrees>
            </Position>
            <AltitudeMeters>-0.20000000298023223876953125</AltitudeMeters>
            <DistanceMeters>19330.074217886</DistanceMeters>
          </Trackpoint>
          <Trackpoint>
            <Time>2021-03-13T08:59:21.000Z</Time>
            <Position>
              <LatitudeDegrees>36.71269523911178112030029296875</LatitudeDegrees>
              <LongitudeDegrees>-4.2389146797358989715576171875</LongitudeDegrees>
            </Position>
            <AltitudeMeters>-1.2000000476837158203125</AltitudeMeters>
            <DistanceMeters>19389.001202159</DistanceMeters>
          </Trackpoint>
          <Trackpoint>
            <Time>2021-03-13T08:59:23.000Z</Time>
            <Position>
              <LatitudeDegrees>36.7127157747745513916015625</LatitudeDegrees>
              <LongitudeDegrees>-4.23858828842639923095703125</LongitudeDegrees>
            </Position>
            <AltitudeMeters>-1.2000000476837158203125</AltitudeMeters>
            <DistanceMeters>19418.212914944</DistanceMeters>
          </Trackpoint>
          <Trackpoint>
            <Time>2021-03-13T08:59:28.000Z</Time>
            <Position>
              <LatitudeDegrees>36.7127471230924129486083984375</LatitudeDegrees>
              <LongitudeDegrees>-4.2380228452384471893310546875</LongitudeDegrees>
            </Position>
            <AltitudeMeters>-1.39999997615814208984375</AltitudeMeters>
            <DistanceMeters>19468.78480744</DistanceMeters>
          </Trackpoint>
          <Trackpoint>
            <Time>2021-03-13T08:59:31.000Z</Time>
            <Position>
              <LatitudeDegrees>36.7127655632793903350830078125</LatitudeDegrees>
              <LongitudeDegrees>-4.237723611295223236083984375</LongitudeDegrees>
            </Position>
            <AltitudeMeters>-1.60000002384185791015625</AltitudeMeters>
            <DistanceMeters>19495.562452036</DistanceMeters>
          </Trackpoint>
          <Trackpoint>
            <Time>2021-03-13T08:59:38.000Z</Time>
            <Position>
              <LatitudeDegrees>36.71281476505100727081298828125</LatitudeDegrees>
              <LongitudeDegrees>-4.23699329607188701629638671875</LongitudeDegrees>
            </Position>
            <AltitudeMeters>-1.7999999523162841796875</AltitudeMeters>
            <DistanceMeters>19560.954020673</DistanceMeters>
          </Trackpoint>
          <Trackpoint>
            <Time>2021-03-13T08:59:40.000Z</Time>
            <Position>
              <LatitudeDegrees>36.71282641589641571044921875</LatitudeDegrees>
              <LongitudeDegrees>-4.23678559251129627227783203125</LongitudeDegrees>
            </Position>
            <AltitudeMeters>-1.60000002384185791015625</AltitudeMeters>
            <DistanceMeters>19579.531439536</DistanceMeters>
          </Trackpoint>
          <Trackpoint>
            <Time>2021-03-13T08:59:45.000Z</Time>
            <Position>
              <LatitudeDegrees>36.71286136843264102935791015625</LatitudeDegrees>
              <LongitudeDegrees>-4.23623330891132354736328125</LongitudeDegrees>
            </Position>
            <AltitudeMeters>-1.60000002384185791015625</AltitudeMeters>
            <DistanceMeters>19628.961957887</DistanceMeters>
          </Trackpoint>
          <Trackpoint>
            <Time>2021-03-13T08:59:48.000Z</Time>
            <Position>
              <LatitudeDegrees>36.7128852568566799163818359375</LatitudeDegrees>
              <LongitudeDegrees>-4.23590146936476230621337890625</LongitudeDegrees>
            </Position>
            <AltitudeMeters>-1.60000002384185791015625</AltitudeMeters>
            <DistanceMeters>19658.689376226</DistanceMeters>
          </Trackpoint>
          <Trackpoint>
            <Time>2021-03-13T08:59:55.000Z</Time>
            <Position>
              <LatitudeDegrees>36.71293010003864765167236328125</LatitudeDegrees>
              <LongitudeDegrees>-4.23516252078115940093994140625</LongitudeDegrees>
            </Position>
            <AltitudeMeters>-1.7999999523162841796875</AltitudeMeters>
            <DistanceMeters>19724.810149518</DistanceMeters>
          </Trackpoint>
          <Trackpoint>
            <Time>2021-03-13T08:59:57.000Z</Time>
            <Position>
              <LatitudeDegrees>36.71293881721794605255126953125</LatitudeDegrees>
              <LongitudeDegrees>-4.2349543981254100799560546875</LongitudeDegrees>
            </Position>
            <AltitudeMeters>-1.7999999523162841796875</AltitudeMeters>
            <DistanceMeters>19743.405058959</DistanceMeters>
          </Trackpoint>
          <Trackpoint>
            <Time>2021-03-13T09:00:04.000Z</Time>
            <Position>
              <LatitudeDegrees>36.71297402121126651763916015625</LatitudeDegrees>
              <LongitudeDegrees>-4.234234727919101715087890625</LongitudeDegrees>
            </Position>
            <AltitudeMeters>-1.7999999523162841796875</AltitudeMeters>
            <DistanceMeters>19807.736530377</DistanceMeters>
          </Trackpoint>
          <Trackpoint>
            <Time>2021-03-13T09:00:07.000Z</Time>
            <Position>
              <LatitudeDegrees>36.71298491768538951873779296875</LatitudeDegrees>
              <LongitudeDegrees>-4.23393473960459232330322265625</LongitudeDegrees>
            </Position>
            <AltitudeMeters>-1.7999999523162841796875</AltitudeMeters>
            <DistanceMeters>19834.530188346</DistanceMeters>
          </Trackpoint>
          <Trackpoint>
            <Time>2021-03-13T09:00:14.000Z</Time>
            <Position>
              <LatitudeDegrees>36.7130203731358051300048828125</LatitudeDegrees>
              <LongitudeDegrees>-4.2332451604306697845458984375</LongitudeDegrees>
            </Position>
            <AltitudeMeters>-1.39999997615814208984375</AltitudeMeters>
            <DistanceMeters>19896.183781337</DistanceMeters>
          </Trackpoint>
          <Trackpoint>
            <Time>2021-03-13T09:00:17.000Z</Time>
            <Position>
              <LatitudeDegrees>36.71303940005600452423095703125</LatitudeDegrees>
              <LongitudeDegrees>-4.232962019741535186767578125</LongitudeDegrees>
            </Position>
            <AltitudeMeters>-0.60000002384185791015625</AltitudeMeters>
            <DistanceMeters>19921.53544126</DistanceMeters>
          </Trackpoint>
          <Trackpoint>
            <Time>2021-03-13T09:00:20.000Z</Time>
            <Position>
              <LatitudeDegrees>36.7130555771291255950927734375</LatitudeDegrees>
              <LongitudeDegrees>-4.2326854169368743896484375</LongitudeDegrees>
            </Position>
            <AltitudeMeters>-0.4000000059604644775390625</AltitudeMeters>
            <DistanceMeters>19946.280733411</DistanceMeters>
          </Trackpoint>
          <Trackpoint>
            <Time>2021-03-13T09:00:24.000Z</Time>
            <Position>
              <LatitudeDegrees>36.71307845972478389739990234375</LatitudeDegrees>
              <LongitudeDegrees>-4.232317619025707244873046875</LongitudeDegrees>
            </Position>
            <AltitudeMeters>0</AltitudeMeters>
            <DistanceMeters>19979.19579807</DistanceMeters>
          </Trackpoint>
          <Trackpoint>
            <Time>2021-03-13T09:00:25.000Z</Time>
            <Position>
              <LatitudeDegrees>36.71308281831443309783935546875</LatitudeDegrees>
              <LongitudeDegrees>-4.2322225682437419891357421875</LongitudeDegrees>
            </Position>
            <AltitudeMeters>0</AltitudeMeters>
            <DistanceMeters>19987.689931975</DistanceMeters>
          </Trackpoint>
          <Trackpoint>
            <Time>2021-03-13T09:00:32.000Z</Time>
            <Position>
              <LatitudeDegrees>36.71311651356518268585205078125</LatitudeDegrees>
              <LongitudeDegrees>-4.23151119612157344818115234375</LongitudeDegrees>
            </Position>
            <AltitudeMeters>0.20000000298023223876953125</AltitudeMeters>
            <DistanceMeters>20051.272036008</DistanceMeters>
          </Trackpoint>
          <Trackpoint>
            <Time>2021-03-13T09:00:38.000Z</Time>
            <Position>
              <LatitudeDegrees>36.71314501203596591949462890625</LatitudeDegrees>
              <LongitudeDegrees>-4.2309662885963916778564453125</LongitudeDegrees>
            </Position>
            <AltitudeMeters>-0.20000000298023223876953125</AltitudeMeters>
            <DistanceMeters>20099.99433702</DistanceMeters>
          </Trackpoint>
          <Trackpoint>
            <Time>2021-03-13T09:00:42.000Z</Time>
            <Position>
              <LatitudeDegrees>36.7131541483104228973388671875</LatitudeDegrees>
              <LongitudeDegrees>-4.23076696693897247314453125</LongitudeDegrees>
            </Position>
            <AltitudeMeters>-0.4000000059604644775390625</AltitudeMeters>
            <DistanceMeters>20117.807727664</DistanceMeters>
          </Trackpoint>
          <Trackpoint>
            <Time>2021-03-13T09:00:47.000Z</Time>
            <Position>
              <LatitudeDegrees>36.71317451633512973785400390625</LatitudeDegrees>
              <LongitudeDegrees>-4.230417273938655853271484375</LongitudeDegrees>
            </Position>
            <AltitudeMeters>-0.800000011920928955078125</AltitudeMeters>
            <DistanceMeters>20149.091006979</DistanceMeters>
          </Trackpoint>
          <Trackpoint>
            <Time>2021-03-13T09:00:52.000Z</Time>
            <Position>
              <LatitudeDegrees>36.71319915913045406341552734375</LatitudeDegrees>
              <LongitudeDegrees>-4.229968674480915069580078125</LongitudeDegrees>
            </Position>
            <AltitudeMeters>-1.39999997615814208984375</AltitudeMeters>
            <DistanceMeters>20189.210741101</DistanceMeters>
          </Trackpoint>
          <Trackpoint>
            <Time>2021-03-13T09:00:54.000Z</Time>
            <Position>
              <LatitudeDegrees>36.71321156434714794158935546875</LatitudeDegrees>
              <LongitudeDegrees>-4.2297537624835968017578125</LongitudeDegrees>
            </Position>
            <AltitudeMeters>-1.60000002384185791015625</AltitudeMeters>
            <DistanceMeters>20208.43551675</DistanceMeters>
          </Trackpoint>
          <Trackpoint>
            <Time>2021-03-13T09:01:01.000Z</Time>
            <Position>
              <LatitudeDegrees>36.71325649134814739227294921875</LatitudeDegrees>
              <LongitudeDegrees>-4.22912587411701679229736328125</LongitudeDegrees>
            </Position>
            <AltitudeMeters>-1.7999999523162841796875</AltitudeMeters>
            <DistanceMeters>20264.680816739</DistanceMeters>
          </Trackpoint>
          <Trackpoint>
            <Time>2021-03-13T09:01:05.000Z</Time>
            <Position>
              <LatitudeDegrees>36.71329806558787822723388671875</LatitudeDegrees>
              <LongitudeDegrees>-4.2287712357938289642333984375</LongitudeDegrees>
            </Position>
            <AltitudeMeters>-1.7999999523162841796875</AltitudeMeters>
            <DistanceMeters>20296.659529927</DistanceMeters>
          </Trackpoint>
          <Trackpoint>
            <Time>2021-03-13T09:01:06.000Z</Time>
            <Position>
              <LatitudeDegrees>36.7132969759404659271240234375</LatitudeDegrees>
              <LongitudeDegrees>-4.22867216169834136962890625</LongitudeDegrees>
            </Position>
            <AltitudeMeters>-2</AltitudeMeters>
            <DistanceMeters>20305.500589914</DistanceMeters>
          </Trackpoint>
          <Trackpoint>
            <Time>2021-03-13T09:01:12.000Z</Time>
            <Position>
              <LatitudeDegrees>36.71330862678587436676025390625</LatitudeDegrees>
              <LongitudeDegrees>-4.2280586063861846923828125</LongitudeDegrees>
            </Position>
            <AltitudeMeters>-2.2000000476837158203125</AltitudeMeters>
            <DistanceMeters>20360.259728917</DistanceMeters>
          </Trackpoint>
          <Trackpoint>
            <Time>2021-03-13T09:01:15.000Z</Time>
            <Position>
              <LatitudeDegrees>36.71332539059221744537353515625</LatitudeDegrees>
              <LongitudeDegrees>-4.22774520702660083770751953125</LongitudeDegrees>
            </Position>
            <AltitudeMeters>-2.400000095367431640625</AltitudeMeters>
            <DistanceMeters>20388.284716495</DistanceMeters>
          </Trackpoint>
          <Trackpoint>
            <Time>2021-03-13T09:01:21.000Z</Time>
            <Position>
              <LatitudeDegrees>36.7133432440459728240966796875</LatitudeDegrees>
              <LongitudeDegrees>-4.22712846659123897552490234375</LongitudeDegrees>
            </Position>
            <AltitudeMeters>-2.599999904632568359375</AltitudeMeters>
            <DistanceMeters>20443.348495312</DistanceMeters>
          </Trackpoint>
          <Trackpoint>
            <Time>2021-03-13T09:01:27.000Z</Time>
            <Position>
              <LatitudeDegrees>36.71337584964931011199951171875</LatitudeDegrees>
              <LongitudeDegrees>-4.22658598981797695159912109375</LongitudeDegrees>
            </Position>
            <AltitudeMeters>-2.7999999523162841796875</AltitudeMeters>
            <DistanceMeters>20491.886221092</DistanceMeters>
          </Trackpoint>
          <Trackpoint>
            <Time>2021-03-13T09:01:32.000Z</Time>
            <Position>
              <LatitudeDegrees>36.713401414453983306884765625</LatitudeDegrees>
              <LongitudeDegrees>-4.22607134096324443817138671875</LongitudeDegrees>
            </Position>
            <AltitudeMeters>-2.7999999523162841796875</AltitudeMeters>
            <DistanceMeters>20537.893088605</DistanceMeters>
          </Trackpoint>
          <Trackpoint>
            <Time>2021-03-13T09:01:39.000Z</Time>
            <Position>
              <LatitudeDegrees>36.71341574750840663909912109375</LatitudeDegrees>
              <LongitudeDegrees>-4.22537061385810375213623046875</LongitudeDegrees>
            </Position>
            <AltitudeMeters>-3.2000000476837158203125</AltitudeMeters>
            <DistanceMeters>20600.434890166</DistanceMeters>
          </Trackpoint>
          <Trackpoint>
            <Time>2021-03-13T09:01:42.000Z</Time>
            <Position>
              <LatitudeDegrees>36.71343485824763774871826171875</LatitudeDegrees>
              <LongitudeDegrees>-4.2250979505479335784912109375</LongitudeDegrees>
            </Position>
            <AltitudeMeters>-3.2000000476837158203125</AltitudeMeters>
            <DistanceMeters>20624.855831357</DistanceMeters>
          </Trackpoint>
          <Trackpoint>
            <Time>2021-03-13T09:01:46.000Z</Time>
            <Position>
              <LatitudeDegrees>36.71344156377017498016357421875</LatitudeDegrees>
              <LongitudeDegrees>-4.22480885870754718780517578125</LongitudeDegrees>
            </Position>
            <AltitudeMeters>-3.400000095367431640625</AltitudeMeters>
            <DistanceMeters>20650.66044019</DistanceMeters>
          </Trackpoint>
          <Trackpoint>
            <Time>2021-03-13T09:01:47.000Z</Time>
            <Position>
              <LatitudeDegrees>36.713433600962162017822265625</LatitudeDegrees>
              <LongitudeDegrees>-4.224731661379337310791015625</LongitudeDegrees>
            </Position>
            <AltitudeMeters>-3.400000095367431640625</AltitudeMeters>
            <DistanceMeters>20657.605846467</DistanceMeters>
          </Trackpoint>
          <Trackpoint>
            <Time>2021-03-13T09:01:48.000Z</Time>
            <Position>
              <LatitudeDegrees>36.71342513523995876312255859375</LatitudeDegrees>
              <LongitudeDegrees>-4.22465479932725429534912109375</LongitudeDegrees>
            </Position>
            <AltitudeMeters>-3.599999904632568359375</AltitudeMeters>
            <DistanceMeters>20664.528462713</DistanceMeters>
          </Trackpoint>
          <Trackpoint>
            <Time>2021-03-13T09:01:50.000Z</Time>
            <Position>
              <LatitudeDegrees>36.7134438268840312957763671875</LatitudeDegrees>
              <LongitudeDegrees>-4.22450342215597629547119140625</LongitudeDegrees>
            </Position>
            <AltitudeMeters>-3.7999999523162841796875</AltitudeMeters>
            <DistanceMeters>20678.194480459</DistanceMeters>
          </Trackpoint>
          <Trackpoint>
            <Time>2021-03-13T09:01:52.000Z</Time>
            <Position>
              <LatitudeDegrees>36.71346972696483135223388671875</LatitudeDegrees>
              <LongitudeDegrees>-4.2243506200611591339111328125</LongitudeDegrees>
            </Position>
            <AltitudeMeters>-4</AltitudeMeters>
            <DistanceMeters>20692.129428031</DistanceMeters>
          </Trackpoint>
          <Trackpoint>
            <Time>2021-03-13T09:01:56.000Z</Time>
            <Position>
              <LatitudeDegrees>36.71348749659955501556396484375</LatitudeDegrees>
              <LongitudeDegrees>-4.22401006333529949188232421875</LongitudeDegrees>
            </Position>
            <AltitudeMeters>-4</AltitudeMeters>
            <DistanceMeters>20722.579374159</DistanceMeters>
          </Trackpoint>
          <Trackpoint>
            <Time>2021-03-13T09:02:03.000Z</Time>
            <Position>
              <LatitudeDegrees>36.71352689154446125030517578125</LatitudeDegrees>
              <LongitudeDegrees>-4.2234242521226406097412109375</LongitudeDegrees>
            </Position>
            <AltitudeMeters>-4.19999980926513671875</AltitudeMeters>
            <DistanceMeters>20775.031107783</DistanceMeters>
          </Trackpoint>
          <Trackpoint>
            <Time>2021-03-13T09:02:11.000Z</Time>
            <Position>
              <LatitudeDegrees>36.713563688099384307861328125</LatitudeDegrees>
              <LongitudeDegrees>-4.2227114550769329071044921875</LongitudeDegrees>
            </Position>
            <AltitudeMeters>-3.7999999523162841796875</AltitudeMeters>
            <DistanceMeters>20838.761098075</DistanceMeters>
          </Trackpoint>
          <Trackpoint>
            <Time>2021-03-13T09:02:13.000Z</Time>
            <Position>
              <LatitudeDegrees>36.71357416547834873199462890625</LatitudeDegrees>
              <LongitudeDegrees>-4.222510792315006256103515625</LongitudeDegrees>
            </Position>
            <AltitudeMeters>-3.599999904632568359375</AltitudeMeters>
            <DistanceMeters>20856.703037634</DistanceMeters>
          </Trackpoint>
          <Trackpoint>
            <Time>2021-03-13T09:02:17.000Z</Time>
            <Position>
              <LatitudeDegrees>36.7135928571224212646484375</LatitudeDegrees>
              <LongitudeDegrees>-4.22215816564857959747314453125</LongitudeDegrees>
            </Position>
            <AltitudeMeters>-3.400000095367431640625</AltitudeMeters>
            <DistanceMeters>20888.234442244</DistanceMeters>
          </Trackpoint>
          <Trackpoint>
            <Time>2021-03-13T09:02:20.000Z</Time>
            <Position>
              <LatitudeDegrees>36.71360333450138568878173828125</LatitudeDegrees>
              <LongitudeDegrees>-4.22192296944558620452880859375</LongitudeDegrees>
            </Position>
            <AltitudeMeters>-3.400000095367431640625</AltitudeMeters>
            <DistanceMeters>20909.251894028</DistanceMeters>
          </Trackpoint>
          <Trackpoint>
            <Time>2021-03-13T09:02:26.000Z</Time>
            <Position>
              <LatitudeDegrees>36.7136446572840213775634765625</LatitudeDegrees>
              <LongitudeDegrees>-4.22140195034444332122802734375</LongitudeDegrees>
            </Position>
            <AltitudeMeters>-3.400000095367431640625</AltitudeMeters>
            <DistanceMeters>20955.966006172</DistanceMeters>
          </Trackpoint>
          <Trackpoint>
            <Time>2021-03-13T09:02:34.000Z</Time>
            <Position>
              <LatitudeDegrees>36.713729985058307647705078125</LatitudeDegrees>
              <LongitudeDegrees>-4.22071346081793308258056640625</LongitudeDegrees>
            </Position>
            <AltitudeMeters>-3.400000095367431640625</AltitudeMeters>
            <DistanceMeters>21018.125100346</DistanceMeters>
          </Trackpoint>
          <Trackpoint>
            <Time>2021-03-13T09:02:37.000Z</Time>
            <Position>
              <LatitudeDegrees>36.7137645184993743896484375</LatitudeDegrees>
              <LongitudeDegrees>-4.220469631254673004150390625</LongitudeDegrees>
            </Position>
            <AltitudeMeters>-3.2000000476837158203125</AltitudeMeters>
            <DistanceMeters>21040.217125415</DistanceMeters>
          </Trackpoint>
          <Trackpoint>
            <Time>2021-03-13T09:02:43.000Z</Time>
            <Position>
              <LatitudeDegrees>36.7138530313968658447265625</LatitudeDegrees>
              <LongitudeDegrees>-4.21990024857223033905029296875</LongitudeDegrees>
            </Position>
            <AltitudeMeters>-2.599999904632568359375</AltitudeMeters>
            <DistanceMeters>21091.965606454</DistanceMeters>
          </Trackpoint>
          <Trackpoint>
            <Time>2021-03-13T09:02:46.000Z</Time>
            <Position>
              <LatitudeDegrees>36.713898964226245880126953125</LatitudeDegrees>
              <LongitudeDegrees>-4.21961970627307891845703125</LongitudeDegrees>
            </Position>
            <AltitudeMeters>-2.400000095367431640625</AltitudeMeters>
            <DistanceMeters>21117.513128158</DistanceMeters>
          </Trackpoint>
          <Trackpoint>
            <Time>2021-03-13T09:02:52.000Z</Time>
            <Position>
              <LatitudeDegrees>36.71398873440921306610107421875</LatitudeDegrees>
              <LongitudeDegrees>-4.21907865442335605621337890625</LongitudeDegrees>
            </Position>
            <AltitudeMeters>-2.2000000476837158203125</AltitudeMeters>
            <DistanceMeters>21166.810657642</DistanceMeters>
          </Trackpoint>
          <Trackpoint>
            <Time>2021-03-13T09:02:55.000Z</Time>
            <Position>
              <LatitudeDegrees>36.7140319012105464935302734375</LatitudeDegrees>
              <LongitudeDegrees>-4.21877170912921428680419921875</LongitudeDegrees>
            </Position>
            <AltitudeMeters>-2</AltitudeMeters>
            <DistanceMeters>21194.615675621</DistanceMeters>
          </Trackpoint>
          <Trackpoint>
            <Time>2021-03-13T09:03:00.000Z</Time>
            <Position>
              <LatitudeDegrees>36.71408277936279773712158203125</LatitudeDegrees>
              <LongitudeDegrees>-4.21828052960336208343505859375</LongitudeDegrees>
            </Position>
            <AltitudeMeters>-1.39999997615814208984375</AltitudeMeters>
            <DistanceMeters>21238.80452829</DistanceMeters>
          </Trackpoint>
          <Trackpoint>
            <Time>2021-03-13T09:03:04.000Z</Time>
            <Position>
              <LatitudeDegrees>36.71411454677581787109375</LatitudeDegrees>
              <LongitudeDegrees>-4.2178764380514621734619140625</LongitudeDegrees>
            </Position>
            <AltitudeMeters>-1.2000000476837158203125</AltitudeMeters>
            <DistanceMeters>21275.031772874</DistanceMeters>
          </Trackpoint>
          <Trackpoint>
            <Time>2021-03-13T09:03:11.000Z</Time>
            <Position>
              <LatitudeDegrees>36.71414363197982311248779296875</LatitudeDegrees>
              <LongitudeDegrees>-4.21713053248822689056396484375</LongitudeDegrees>
            </Position>
            <AltitudeMeters>-0.800000011920928955078125</AltitudeMeters>
            <DistanceMeters>21341.662306818</DistanceMeters>
          </Trackpoint>
          <Trackpoint>
            <Time>2021-03-13T09:03:14.000Z</Time>
            <Position>
              <LatitudeDegrees>36.71414203941822052001953125</LatitudeDegrees>
              <LongitudeDegrees>-4.21683414839208126068115234375</LongitudeDegrees>
            </Position>
            <AltitudeMeters>-1</AltitudeMeters>
            <DistanceMeters>21368.107065091</DistanceMeters>
          </Trackpoint>
          <Trackpoint>
            <Time>2021-03-13T09:03:20.000Z</Time>
            <Position>
              <LatitudeDegrees>36.714124940335750579833984375</LatitudeDegrees>
              <LongitudeDegrees>-4.21615236438810825347900390625</LongitudeDegrees>
            </Position>
            <AltitudeMeters>-2</AltitudeMeters>
            <DistanceMeters>21428.967576971</DistanceMeters>
          </Trackpoint>
          <Trackpoint>
            <Time>2021-03-13T09:03:21.000Z</Time>
            <Position>
              <LatitudeDegrees>36.71412368305027484893798828125</LatitudeDegrees>
              <LongitudeDegrees>-4.21601171605288982391357421875</LongitudeDegrees>
            </Position>
            <AltitudeMeters>-2</AltitudeMeters>
            <DistanceMeters>21441.517580689</DistanceMeters>
          </Trackpoint>
          <Trackpoint>
            <Time>2021-03-13T09:03:27.000Z</Time>
            <Position>
              <LatitudeDegrees>36.714122593402862548828125</LatitudeDegrees>
              <LongitudeDegrees>-4.2153323628008365631103515625</LongitudeDegrees>
            </Position>
            <AltitudeMeters>-2.599999904632568359375</AltitudeMeters>
            <DistanceMeters>21502.131590396</DistanceMeters>
          </Trackpoint>
          <Trackpoint>
            <Time>2021-03-13T09:03:29.000Z</Time>
            <Position>
              <LatitudeDegrees>36.71412385068833827972412109375</LatitudeDegrees>
              <LongitudeDegrees>-4.21512608416378498077392578125</LongitudeDegrees>
            </Position>
            <AltitudeMeters>-2.599999904632568359375</AltitudeMeters>
            <DistanceMeters>21520.537114506</DistanceMeters>
          </Trackpoint>
          <Trackpoint>
            <Time>2021-03-13T09:03:36.000Z</Time>
            <Position>
              <LatitudeDegrees>36.71414178796112537384033203125</LatitudeDegrees>
              <LongitudeDegrees>-4.21448470093309879302978515625</LongitudeDegrees>
            </Position>
            <AltitudeMeters>-2.7999999523162841796875</AltitudeMeters>
            <DistanceMeters>21577.797944894</DistanceMeters>
          </Trackpoint>
          <Trackpoint>
            <Time>2021-03-13T09:03:37.000Z</Time>
            <Position>
              <LatitudeDegrees>36.71415201388299465179443359375</LatitudeDegrees>
              <LongitudeDegrees>-4.21427615918219089508056640625</LongitudeDegrees>
            </Position>
            <AltitudeMeters>-2.7999999523162841796875</AltitudeMeters>
            <DistanceMeters>21596.439415646</DistanceMeters>
          </Trackpoint>
          <Trackpoint>
            <Time>2021-03-13T09:03:44.000Z</Time>
            <Position>
              <LatitudeDegrees>36.71421621926128864288330078125</LatitudeDegrees>
              <LongitudeDegrees>-4.21357040293514728546142578125</LongitudeDegrees>
            </Position>
            <AltitudeMeters>-2.599999904632568359375</AltitudeMeters>
            <DistanceMeters>21659.813186714</DistanceMeters>
          </Trackpoint>
          <Trackpoint>
            <Time>2021-03-13T09:03:46.000Z</Time>
            <Position>
              <LatitudeDegrees>36.71423449181020259857177734375</LatitudeDegrees>
              <LongitudeDegrees>-4.2133763618767261505126953125</LongitudeDegrees>
            </Position>
            <AltitudeMeters>-2.599999904632568359375</AltitudeMeters>
            <DistanceMeters>21677.245344713</DistanceMeters>
          </Trackpoint>
          <Trackpoint>
            <Time>2021-03-13T09:03:53.000Z</Time>
            <Position>
              <LatitudeDegrees>36.7143172211945056915283203125</LatitudeDegrees>
              <LongitudeDegrees>-4.21265141107141971588134765625</LongitudeDegrees>
            </Position>
            <AltitudeMeters>-2.599999904632568359375</AltitudeMeters>
            <DistanceMeters>21742.579510778</DistanceMeters>
          </Trackpoint>
          <Trackpoint>
            <Time>2021-03-13T09:04:00.000Z</Time>
            <Position>
              <LatitudeDegrees>36.7144027166068553924560546875</LatitudeDegrees>
              <LongitudeDegrees>-4.2118870653212070465087890625</LongitudeDegrees>
            </Position>
            <AltitudeMeters>-2.7999999523162841796875</AltitudeMeters>
            <DistanceMeters>21811.437103373</DistanceMeters>
          </Trackpoint>
          <Trackpoint>
            <Time>2021-03-13T09:04:02.000Z</Time>
            <Position>
              <LatitudeDegrees>36.71442526392638683319091796875</LatitudeDegrees>
              <LongitudeDegrees>-4.21169377863407135009765625</LongitudeDegrees>
            </Position>
            <AltitudeMeters>-2.7999999523162841796875</AltitudeMeters>
            <DistanceMeters>21828.864339558</DistanceMeters>
          </Trackpoint>
          <Trackpoint>
            <Time>2021-03-13T09:04:07.000Z</Time>
            <Position>
              <LatitudeDegrees>36.7144868709146976470947265625</LatitudeDegrees>
              <LongitudeDegrees>-4.21114048920571804046630859375</LongitudeDegrees>
            </Position>
            <AltitudeMeters>-3</AltitudeMeters>
            <DistanceMeters>21878.704197988</DistanceMeters>
          </Trackpoint>
          <Trackpoint>
            <Time>2021-03-13T09:04:10.000Z</Time>
            <Position>
              <LatitudeDegrees>36.7145224101841449737548828125</LatitudeDegrees>
              <LongitudeDegrees>-4.21083035878837108612060546875</LongitudeDegrees>
            </Position>
            <AltitudeMeters>-3</AltitudeMeters>
            <DistanceMeters>21906.65627008</DistanceMeters>
          </Trackpoint>
          <Trackpoint>
            <Time>2021-03-13T09:04:17.000Z</Time>
            <Position>
              <LatitudeDegrees>36.7146013677120208740234375</LatitudeDegrees>
              <LongitudeDegrees>-4.2101399414241313934326171875</LongitudeDegrees>
            </Position>
            <AltitudeMeters>-3.400000095367431640625</AltitudeMeters>
            <DistanceMeters>21968.880703042</DistanceMeters>
          </Trackpoint>
          <Trackpoint>
            <Time>2021-03-13T09:04:23.000Z</Time>
            <Position>
              <LatitudeDegrees>36.71466900967061519622802734375</LatitudeDegrees>
              <LongitudeDegrees>-4.2095686309039592742919921875</LongitudeDegrees>
            </Position>
            <AltitudeMeters>-3.400000095367431640625</AltitudeMeters>
            <DistanceMeters>22020.407268576</DistanceMeters>
          </Trackpoint>
          <Trackpoint>
            <Time>2021-03-13T09:04:26.000Z</Time>
            <Position>
              <LatitudeDegrees>36.71470471657812595367431640625</LatitudeDegrees>
              <LongitudeDegrees>-4.209258668124675750732421875</LongitudeDegrees>
            </Position>
            <AltitudeMeters>-3.400000095367431640625</AltitudeMeters>
            <DistanceMeters>22048.346900255</DistanceMeters>
          </Trackpoint>
          <Trackpoint>
            <Time>2021-03-13T09:04:29.000Z</Time>
            <Position>
              <LatitudeDegrees>36.71473723836243152618408203125</LatitudeDegrees>
              <LongitudeDegrees>-4.208943508565425872802734375</LongitudeDegrees>
            </Position>
            <AltitudeMeters>-3.2000000476837158203125</AltitudeMeters>
            <DistanceMeters>22076.698323933</DistanceMeters>
          </Trackpoint>
          <Trackpoint>
            <Time>2021-03-13T09:04:35.000Z</Time>
            <Position>
              <LatitudeDegrees>36.714806891977787017822265625</LatitudeDegrees>
              <LongitudeDegrees>-4.20832249335944652557373046875</LongitudeDegrees>
            </Position>
            <AltitudeMeters>-3</AltitudeMeters>
            <DistanceMeters>22132.646225041</DistanceMeters>
          </Trackpoint>
          <Trackpoint>
            <Time>2021-03-13T09:04:42.000Z</Time>
            <Position>
              <LatitudeDegrees>36.71490370295941829681396484375</LatitudeDegrees>
              <LongitudeDegrees>-4.20761422254145145416259765625</LongitudeDegrees>
            </Position>
            <AltitudeMeters>-2.7999999523162841796875</AltitudeMeters>
            <DistanceMeters>22196.751587445</DistanceMeters>
          </Trackpoint>
          <Trackpoint>
            <Time>2021-03-13T09:04:44.000Z</Time>
            <Position>
              <LatitudeDegrees>36.71492616645991802215576171875</LatitudeDegrees>
              <LongitudeDegrees>-4.20743015594780445098876953125</LongitudeDegrees>
            </Position>
            <AltitudeMeters>-2.599999904632568359375</AltitudeMeters>
            <DistanceMeters>22213.363605267</DistanceMeters>
          </Trackpoint>
          <Trackpoint>
            <Time>2021-03-13T09:04:51.000Z</Time>
            <Position>
              <LatitudeDegrees>36.714999340474605560302734375</LatitudeDegrees>
              <LongitudeDegrees>-4.20672372914850711822509765625</LongitudeDegrees>
            </Position>
            <AltitudeMeters>-2.400000095367431640625</AltitudeMeters>
            <DistanceMeters>22276.916303885</DistanceMeters>
          </Trackpoint>
          <Trackpoint>
            <Time>2021-03-13T09:04:56.000Z</Time>
            <Position>
              <LatitudeDegrees>36.71504460275173187255859375</LatitudeDegrees>
              <LongitudeDegrees>-4.20619927346706390380859375</LongitudeDegrees>
            </Position>
            <AltitudeMeters>-2.2000000476837158203125</AltitudeMeters>
            <DistanceMeters>22323.979573328</DistanceMeters>
          </Trackpoint>
          <Trackpoint>
            <Time>2021-03-13T09:05:03.000Z</Time>
            <Position>
              <LatitudeDegrees>36.7150702513754367828369140625</LatitudeDegrees>
              <LongitudeDegrees>-4.205464683473110198974609375</LongitudeDegrees>
            </Position>
            <AltitudeMeters>-2.2000000476837158203125</AltitudeMeters>
            <DistanceMeters>22389.582977766</DistanceMeters>
          </Trackpoint>
          <Trackpoint>
            <Time>2021-03-13T09:05:10.000Z</Time>
            <Position>
              <LatitudeDegrees>36.71507704071700572967529296875</LatitudeDegrees>
              <LongitudeDegrees>-4.20471576042473316192626953125</LongitudeDegrees>
            </Position>
            <AltitudeMeters>-2</AltitudeMeters>
            <DistanceMeters>22456.407436258</DistanceMeters>
          </Trackpoint>
          <Trackpoint>
            <Time>2021-03-13T09:05:17.000Z</Time>
            <Position>
              <LatitudeDegrees>36.715054325759410858154296875</LatitudeDegrees>
              <LongitudeDegrees>-4.20397195033729076385498046875</LongitudeDegrees>
            </Position>
            <AltitudeMeters>-2.2000000476837158203125</AltitudeMeters>
            <DistanceMeters>22522.819621116</DistanceMeters>
          </Trackpoint>
          <Trackpoint>
            <Time>2021-03-13T09:05:24.000Z</Time>
            <Position>
              <LatitudeDegrees>36.71504150144755840301513671875</LatitudeDegrees>
              <LongitudeDegrees>-4.20322646386921405792236328125</LongitudeDegrees>
            </Position>
            <AltitudeMeters>-2.400000095367431640625</AltitudeMeters>
            <DistanceMeters>22589.34850183</DistanceMeters>
          </Trackpoint>
          <Trackpoint>
            <Time>2021-03-13T09:05:26.000Z</Time>
            <Position>
              <LatitudeDegrees>36.715042926371097564697265625</LatitudeDegrees>
              <LongitudeDegrees>-4.203015156090259552001953125</LongitudeDegrees>
            </Position>
            <AltitudeMeters>-2.400000095367431640625</AltitudeMeters>
            <DistanceMeters>22608.202625764</DistanceMeters>
          </Trackpoint>
          <Trackpoint>
            <Time>2021-03-13T09:05:31.000Z</Time>
            <Position>
              <LatitudeDegrees>36.71503563411533832550048828125</LatitudeDegrees>
              <LongitudeDegrees>-4.20249271206557750701904296875</LongitudeDegrees>
            </Position>
            <AltitudeMeters>-2.599999904632568359375</AltitudeMeters>
            <DistanceMeters>22654.823084357</DistanceMeters>
          </Trackpoint>
          <Trackpoint>
            <Time>2021-03-13T09:05:35.000Z</Time>
            <Position>
              <LatitudeDegrees>36.7150340415537357330322265625</LatitudeDegrees>
              <LongitudeDegrees>-4.20207462273538112640380859375</LongitudeDegrees>
            </Position>
            <AltitudeMeters>-2.7999999523162841796875</AltitudeMeters>
            <DistanceMeters>22692.126123374</DistanceMeters>
          </Trackpoint>
          <Trackpoint>
            <Time>2021-03-13T09:05:40.000Z</Time>
            <Position>
              <LatitudeDegrees>36.71506597660481929779052734375</LatitudeDegrees>
              <LongitudeDegrees>-4.201547987759113311767578125</LongitudeDegrees>
            </Position>
            <AltitudeMeters>-3</AltitudeMeters>
            <DistanceMeters>22739.247685499</DistanceMeters>
          </Trackpoint>
          <Trackpoint>
            <Time>2021-03-13T09:05:44.000Z</Time>
            <Position>
              <LatitudeDegrees>36.7151138372719287872314453125</LatitudeDegrees>
              <LongitudeDegrees>-4.2011491768062114715576171875</LongitudeDegrees>
            </Position>
            <AltitudeMeters>-3.2000000476837158203125</AltitudeMeters>
            <DistanceMeters>22775.226812483</DistanceMeters>
          </Trackpoint>
          <Trackpoint>
            <Time>2021-03-13T09:05:51.000Z</Time>
            <Position>
              <LatitudeDegrees>36.71525591053068637847900390625</LatitudeDegrees>
              <LongitudeDegrees>-4.2004273273050785064697265625</LongitudeDegrees>
            </Position>
            <AltitudeMeters>-3.2000000476837158203125</AltitudeMeters>
            <DistanceMeters>22841.544226495</DistanceMeters>
          </Trackpoint>
          <Trackpoint>
            <Time>2021-03-13T09:05:53.000Z</Time>
            <Position>
              <LatitudeDegrees>36.71530745923519134521484375</LatitudeDegrees>
              <LongitudeDegrees>-4.200234375894069671630859375</LongitudeDegrees>
            </Position>
            <AltitudeMeters>-3.2000000476837158203125</AltitudeMeters>
            <DistanceMeters>22859.690348327</DistanceMeters>
          </Trackpoint>
          <Trackpoint>
            <Time>2021-03-13T09:05:59.000Z</Time>
            <Position>
              <LatitudeDegrees>36.7154571600258350372314453125</LatitudeDegrees>
              <LongitudeDegrees>-4.19964437372982501983642578125</LongitudeDegrees>
            </Position>
            <AltitudeMeters>-3.2000000476837158203125</AltitudeMeters>
            <DistanceMeters>22914.905039926</DistanceMeters>
          </Trackpoint>
          <Trackpoint>
            <Time>2021-03-13T09:06:02.000Z</Time>
            <Position>
              <LatitudeDegrees>36.715533435344696044921875</LatitudeDegrees>
              <LongitudeDegrees>-4.19935821555554866790771484375</LongitudeDegrees>
            </Position>
            <AltitudeMeters>-3.400000095367431640625</AltitudeMeters>
            <DistanceMeters>22941.810860269</DistanceMeters>
          </Trackpoint>
          <Trackpoint>
            <Time>2021-03-13T09:06:09.000Z</Time>
            <Position>
              <LatitudeDegrees>36.71573384664952754974365234375</LatitudeDegrees>
              <LongitudeDegrees>-4.1986711509525775909423828125</LongitudeDegrees>
            </Position>
            <AltitudeMeters>-3.599999904632568359375</AltitudeMeters>
            <DistanceMeters>23007.043775454</DistanceMeters>
          </Trackpoint>
          <Trackpoint>
            <Time>2021-03-13T09:06:12.000Z</Time>
            <Position>
              <LatitudeDegrees>36.71581842005252838134765625</LatitudeDegrees>
              <LongitudeDegrees>-4.1983585059642791748046875</LongitudeDegrees>
            </Position>
            <AltitudeMeters>-4</AltitudeMeters>
            <DistanceMeters>23036.483658896</DistanceMeters>
          </Trackpoint>
          <Trackpoint>
            <Time>2021-03-13T09:06:16.000Z</Time>
            <Position>
              <LatitudeDegrees>36.71593375504016876220703125</LatitudeDegrees>
              <LongitudeDegrees>-4.19796262867748737335205078125</LongitudeDegrees>
            </Position>
            <AltitudeMeters>-4</AltitudeMeters>
            <DistanceMeters>23074.064772187</DistanceMeters>
          </Trackpoint>
          <Trackpoint>
            <Time>2021-03-13T09:06:19.000Z</Time>
            <Position>
              <LatitudeDegrees>36.71600357629358768463134765625</LatitudeDegrees>
              <LongitudeDegrees>-4.197645373642444610595703125</LongitudeDegrees>
            </Position>
            <AltitudeMeters>-4.19999980926513671875</AltitudeMeters>
            <DistanceMeters>23103.417876689</DistanceMeters>
          </Trackpoint>
          <Trackpoint>
            <Time>2021-03-13T09:06:26.000Z</Time>
            <Position>
              <LatitudeDegrees>36.71603224240243434906005859375</LatitudeDegrees>
              <LongitudeDegrees>-4.19695411808788776397705078125</LongitudeDegrees>
            </Position>
            <AltitudeMeters>-4.400000095367431640625</AltitudeMeters>
            <DistanceMeters>23165.174567876</DistanceMeters>
          </Trackpoint>
          <Trackpoint>
            <Time>2021-03-13T09:06:33.000Z</Time>
            <Position>
              <LatitudeDegrees>36.7160470783710479736328125</LatitudeDegrees>
              <LongitudeDegrees>-4.196253977715969085693359375</LongitudeDegrees>
            </Position>
            <AltitudeMeters>-4.19999980926513671875</AltitudeMeters>
            <DistanceMeters>23227.663285549</DistanceMeters>
          </Trackpoint>
          <Trackpoint>
            <Time>2021-03-13T09:06:37.000Z</Time>
            <Position>
              <LatitudeDegrees>36.71605789102613925933837890625</LatitudeDegrees>
              <LongitudeDegrees>-4.19582306407392024993896484375</LongitudeDegrees>
            </Position>
            <AltitudeMeters>-3.7999999523162841796875</AltitudeMeters>
            <DistanceMeters>23266.128568927</DistanceMeters>
          </Trackpoint>
          <Trackpoint>
            <Time>2021-03-13T09:06:44.000Z</Time>
            <Position>
              <LatitudeDegrees>36.71608203090727329254150390625</LatitudeDegrees>
              <LongitudeDegrees>-4.1950826905667781829833984375</LongitudeDegrees>
            </Position>
            <AltitudeMeters>-3.7999999523162841796875</AltitudeMeters>
            <DistanceMeters>23332.239713373</DistanceMeters>
          </Trackpoint>
          <Trackpoint>
            <Time>2021-03-13T09:06:46.000Z</Time>
            <Position>
              <LatitudeDegrees>36.7160901613533496856689453125</LatitudeDegrees>
              <LongitudeDegrees>-4.1948568820953369140625</LongitudeDegrees>
            </Position>
            <AltitudeMeters>-3.7999999523162841796875</AltitudeMeters>
            <DistanceMeters>23352.406433059</DistanceMeters>
          </Trackpoint>
          <Trackpoint>
            <Time>2021-03-13T09:06:50.000Z</Time>
            <Position>
              <LatitudeDegrees>36.716093681752681732177734375</LatitudeDegrees>
              <LongitudeDegrees>-4.194478690624237060546875</LongitudeDegrees>
            </Position>
            <AltitudeMeters>-3.7999999523162841796875</AltitudeMeters>
            <DistanceMeters>23386.151220801</DistanceMeters>
          </Trackpoint>
          <Trackpoint>
            <Time>2021-03-13T09:06:52.000Z</Time>
            <Position>
              <LatitudeDegrees>36.716084964573383331298828125</LatitudeDegrees>
              <LongitudeDegrees>-4.194308705627918243408203125</LongitudeDegrees>
            </Position>
            <AltitudeMeters>-3.7999999523162841796875</AltitudeMeters>
            <DistanceMeters>23401.348366425</DistanceMeters>
          </Trackpoint>
          <Trackpoint>
            <Time>2021-03-13T09:06:58.000Z</Time>
            <Position>
              <LatitudeDegrees>36.716070882976055145263671875</LatitudeDegrees>
              <LongitudeDegrees>-4.1937023587524890899658203125</LongitudeDegrees>
            </Position>
            <AltitudeMeters>-3.7999999523162841796875</AltitudeMeters>
            <DistanceMeters>23455.469730196</DistanceMeters>
          </Trackpoint>
          <Trackpoint>
            <Time>2021-03-13T09:07:00.000Z</Time>
            <Position>
              <LatitudeDegrees>36.71607029624283313751220703125</LatitudeDegrees>
              <LongitudeDegrees>-4.19346573762595653533935546875</LongitudeDegrees>
            </Position>
            <AltitudeMeters>-3.7999999523162841796875</AltitudeMeters>
            <DistanceMeters>23476.5810649</DistanceMeters>
          </Trackpoint>
          <Trackpoint>
            <Time>2021-03-13T09:07:05.000Z</Time>
            <Position>
              <LatitudeDegrees>36.71607859432697296142578125</LatitudeDegrees>
              <LongitudeDegrees>-4.19302552007138729095458984375</LongitudeDegrees>
            </Position>
            <AltitudeMeters>-4.19999980926513671875</AltitudeMeters>
            <DistanceMeters>23515.868377183</DistanceMeters>
          </Trackpoint>
          <Trackpoint>
            <Time>2021-03-13T09:07:10.000Z</Time>
            <Position>
              <LatitudeDegrees>36.71609074808657169342041015625</LatitudeDegrees>
              <LongitudeDegrees>-4.19256200082600116729736328125</LongitudeDegrees>
            </Position>
            <AltitudeMeters>-4.400000095367431640625</AltitudeMeters>
            <DistanceMeters>23557.245828333</DistanceMeters>
          </Trackpoint>
          <Trackpoint>
            <Time>2021-03-13T09:07:16.000Z</Time>
            <Position>
              <LatitudeDegrees>36.716080941259860992431640625</LatitudeDegrees>
              <LongitudeDegrees>-4.1919944621622562408447265625</LongitudeDegrees>
            </Position>
            <AltitudeMeters>-4.599999904632568359375</AltitudeMeters>
            <DistanceMeters>23607.893729926</DistanceMeters>
          </Trackpoint>
          <Trackpoint>
            <Time>2021-03-13T09:07:17.000Z</Time>
            <Position>
              <LatitudeDegrees>36.71608001925051212310791015625</LatitudeDegrees>
              <LongitudeDegrees>-4.19191223569214344024658203125</LongitudeDegrees>
            </Position>
            <AltitudeMeters>-4.599999904632568359375</AltitudeMeters>
            <DistanceMeters>23615.231121544</DistanceMeters>
          </Trackpoint>
          <Trackpoint>
            <Time>2021-03-13T09:07:23.000Z</Time>
            <Position>
              <LatitudeDegrees>36.7160489223897457122802734375</LatitudeDegrees>
              <LongitudeDegrees>-4.1913195513188838958740234375</LongitudeDegrees>
            </Position>
            <AltitudeMeters>-4.400000095367431640625</AltitudeMeters>
            <DistanceMeters>23668.22383192</DistanceMeters>
          </Trackpoint>
          <Trackpoint>
            <Time>2021-03-13T09:07:25.000Z</Time>
            <Position>
              <LatitudeDegrees>36.71603056602180004119873046875</LatitudeDegrees>
              <LongitudeDegrees>-4.19108963571488857269287109375</LongitudeDegrees>
            </Position>
            <AltitudeMeters>-4.400000095367431640625</AltitudeMeters>
            <DistanceMeters>23688.838278249</DistanceMeters>
          </Trackpoint>
          <Trackpoint>
            <Time>2021-03-13T09:07:32.000Z</Time>
            <Position>
              <LatitudeDegrees>36.71596082858741283416748046875</LatitudeDegrees>
              <LongitudeDegrees>-4.190379269421100616455078125</LongitudeDegrees>
            </Position>
            <AltitudeMeters>-4.599999904632568359375</AltitudeMeters>
            <DistanceMeters>23752.691068677</DistanceMeters>
          </Trackpoint>
          <Trackpoint>
            <Time>2021-03-13T09:07:34.000Z</Time>
            <Position>
              <LatitudeDegrees>36.71593216247856616973876953125</LatitudeDegrees>
              <LongitudeDegrees>-4.1901735775172710418701171875</LongitudeDegrees>
            </Position>
            <AltitudeMeters>-4.400000095367431640625</AltitudeMeters>
            <DistanceMeters>23771.318243913</DistanceMeters>
          </Trackpoint>
          <Trackpoint>
            <Time>2021-03-13T09:07:41.000Z</Time>
            <Position>
              <LatitudeDegrees>36.71580257825553417205810546875</LatitudeDegrees>
              <LongitudeDegrees>-4.18943840079009532928466796875</LongitudeDegrees>
            </Position>
            <AltitudeMeters>-4.400000095367431640625</AltitudeMeters>
            <DistanceMeters>23838.47826925</DistanceMeters>
          </Trackpoint>
          <Trackpoint>
            <Time>2021-03-13T09:07:43.000Z</Time>
            <Position>
              <LatitudeDegrees>36.7157672904431819915771484375</LatitudeDegrees>
              <LongitudeDegrees>-4.18922399170696735382080078125</LongitudeDegrees>
            </Position>
            <AltitudeMeters>-4.19999980926513671875</AltitudeMeters>
            <DistanceMeters>23858.007126066</DistanceMeters>
          </Trackpoint>
          <Trackpoint>
            <Time>2021-03-13T09:07:50.000Z</Time>
            <Position>
              <LatitudeDegrees>36.71564332209527492523193359375</LatitudeDegrees>
              <LongitudeDegrees>-4.1884586401283740997314453125</LongitudeDegrees>
            </Position>
            <AltitudeMeters>-4.19999980926513671875</AltitudeMeters>
            <DistanceMeters>23927.672661487</DistanceMeters>
          </Trackpoint>
          <Trackpoint>
            <Time>2021-03-13T09:07:53.000Z</Time>
            <Position>
              <LatitudeDegrees>36.71559982001781463623046875</LatitudeDegrees>
              <LongitudeDegrees>-4.18812453746795654296875</LongitudeDegrees>
            </Position>
            <AltitudeMeters>-4.19999980926513671875</AltitudeMeters>
            <DistanceMeters>23957.872324741</DistanceMeters>
          </Trackpoint>
          <Trackpoint>
            <Time>2021-03-13T09:07:58.000Z</Time>
            <Position>
              <LatitudeDegrees>36.71559772454202175140380859375</LatitudeDegrees>
              <LongitudeDegrees>-4.18758340179920196533203125</LongitudeDegrees>
            </Position>
            <AltitudeMeters>-3.7999999523162841796875</AltitudeMeters>
            <DistanceMeters>24006.153658027</DistanceMeters>
          </Trackpoint>
          <Trackpoint>
            <Time>2021-03-13T09:08:04.000Z</Time>
            <Position>
              <LatitudeDegrees>36.7156532965600490570068359375</LatitudeDegrees>
              <LongitudeDegrees>-4.1868858598172664642333984375</LongitudeDegrees>
            </Position>
            <AltitudeMeters>-3.400000095367431640625</AltitudeMeters>
            <DistanceMeters>24068.695676165</DistanceMeters>
          </Trackpoint>
          <Trackpoint>
            <Time>2021-03-13T09:08:06.000Z</Time>
            <Position>
              <LatitudeDegrees>36.71567768789827823638916015625</LatitudeDegrees>
              <LongitudeDegrees>-4.18663515709340572357177734375</LongitudeDegrees>
            </Position>
            <AltitudeMeters>-3.599999904632568359375</AltitudeMeters>
            <DistanceMeters>24091.228031079</DistanceMeters>
          </Trackpoint>
          <Trackpoint>
            <Time>2021-03-13T09:08:12.000Z</Time>
            <Position>
              <LatitudeDegrees>36.71574893407523632049560546875</LatitudeDegrees>
              <LongitudeDegrees>-4.185933172702789306640625</LongitudeDegrees>
            </Position>
            <AltitudeMeters>-4.19999980926513671875</AltitudeMeters>
            <DistanceMeters>24154.359821013</DistanceMeters>
          </Trackpoint>
          <Trackpoint>
            <Time>2021-03-13T09:08:19.000Z</Time>
            <Position>
              <LatitudeDegrees>36.7158259637653827667236328125</LatitudeDegrees>
              <LongitudeDegrees>-4.1851803101599216461181640625</LongitudeDegrees>
            </Position>
            <AltitudeMeters>-4.400000095367431640625</AltitudeMeters>
            <DistanceMeters>24222.075807</DistanceMeters>
          </Trackpoint>
          <Trackpoint>
            <Time>2021-03-13T09:08:25.000Z</Time>
            <Position>
              <LatitudeDegrees>36.71591363847255706787109375</LatitudeDegrees>
              <LongitudeDegrees>-4.18450565077364444732666015625</LongitudeDegrees>
            </Position>
            <AltitudeMeters>-4.400000095367431640625</AltitudeMeters>
            <DistanceMeters>24283.055272223</DistanceMeters>
          </Trackpoint>
          <Trackpoint>
            <Time>2021-03-13T09:08:26.000Z</Time>
            <Position>
              <LatitudeDegrees>36.71593417413532733917236328125</LatitudeDegrees>
              <LongitudeDegrees>-4.1843635775148868560791015625</LongitudeDegrees>
            </Position>
            <AltitudeMeters>-4.19999980926513671875</AltitudeMeters>
            <DistanceMeters>24295.935511523</DistanceMeters>
          </Trackpoint>
          <Trackpoint>
            <Time>2021-03-13T09:08:32.000Z</Time>
            <Position>
              <LatitudeDegrees>36.71603743918240070343017578125</LatitudeDegrees>
              <LongitudeDegrees>-4.18371322564780712127685546875</LongitudeDegrees>
            </Position>
            <AltitudeMeters>-4.19999980926513671875</AltitudeMeters>
            <DistanceMeters>24355.087790267</DistanceMeters>
          </Trackpoint>
          <Trackpoint>
            <Time>2021-03-13T09:08:36.000Z</Time>
            <Position>
              <LatitudeDegrees>36.71611891128122806549072265625</LatitudeDegrees>
              <LongitudeDegrees>-4.18329178355634212493896484375</LongitudeDegrees>
            </Position>
            <AltitudeMeters>-4.19999980926513671875</AltitudeMeters>
            <DistanceMeters>24393.76716507</DistanceMeters>
          </Trackpoint>
          <Trackpoint>
            <Time>2021-03-13T09:08:43.000Z</Time>
            <Position>
              <LatitudeDegrees>36.716262660920619964599609375</LatitudeDegrees>
              <LongitudeDegrees>-4.18255694210529327392578125</LongitudeDegrees>
            </Position>
            <AltitudeMeters>-4.19999980926513671875</AltitudeMeters>
            <DistanceMeters>24461.25406451</DistanceMeters>
          </Trackpoint>
          <Trackpoint>
            <Time>2021-03-13T09:08:46.000Z</Time>
            <Position>
              <LatitudeDegrees>36.716331727802753448486328125</LatitudeDegrees>
              <LongitudeDegrees>-4.1822453029453754425048828125</LongitudeDegrees>
            </Position>
            <AltitudeMeters>-4.400000095367431640625</AltitudeMeters>
            <DistanceMeters>24490.101520633</DistanceMeters>
          </Trackpoint>
          <Trackpoint>
            <Time>2021-03-13T09:08:47.000Z</Time>
            <Position>
              <LatitudeDegrees>36.71635352075099945068359375</LatitudeDegrees>
              <LongitudeDegrees>-4.1821433790028095245361328125</LongitudeDegrees>
            </Position>
            <AltitudeMeters>-4.19999980926513671875</AltitudeMeters>
            <DistanceMeters>24499.513004035</DistanceMeters>
          </Trackpoint>
          <Trackpoint>
            <Time>2021-03-13T09:08:50.000Z</Time>
            <Position>
              <LatitudeDegrees>36.71641278080642223358154296875</LatitudeDegrees>
              <LongitudeDegrees>-4.18180936016142368316650390625</LongitudeDegrees>
            </Position>
            <AltitudeMeters>-4.19999980926513671875</AltitudeMeters>
            <DistanceMeters>24530.035519604</DistanceMeters>
          </Trackpoint>
          <Trackpoint>
            <Time>2021-03-13T09:08:52.000Z</Time>
            <Position>
              <LatitudeDegrees>36.71644580550491809844970703125</LatitudeDegrees>
              <LongitudeDegrees>-4.1816081106662750244140625</LongitudeDegrees>
            </Position>
            <AltitudeMeters>-4</AltitudeMeters>
            <DistanceMeters>24548.363362184</DistanceMeters>
          </Trackpoint>
          <Trackpoint>
            <Time>2021-03-13T09:08:55.000Z</Time>
            <Position>
              <LatitudeDegrees>36.71648855321109294891357421875</LatitudeDegrees>
              <LongitudeDegrees>-4.1812703199684619903564453125</LongitudeDegrees>
            </Position>
            <AltitudeMeters>-3.7999999523162841796875</AltitudeMeters>
            <DistanceMeters>24578.874189453</DistanceMeters>
          </Trackpoint>
          <Trackpoint>
            <Time>2021-03-13T09:09:00.000Z</Time>
            <Position>
              <LatitudeDegrees>36.716581173241138458251953125</LatitudeDegrees>
              <LongitudeDegrees>-4.1807439364492893218994140625</LongitudeDegrees>
            </Position>
            <AltitudeMeters>-3.400000095367431640625</AltitudeMeters>
            <DistanceMeters>24626.956204502</DistanceMeters>
          </Trackpoint>
          <Trackpoint>
            <Time>2021-03-13T09:09:02.000Z</Time>
            <Position>
              <LatitudeDegrees>36.7166071571409702301025390625</LatitudeDegrees>
              <LongitudeDegrees>-4.18055039830505847930908203125</LongitudeDegrees>
            </Position>
            <AltitudeMeters>-3</AltitudeMeters>
            <DistanceMeters>24644.463828979</DistanceMeters>
          </Trackpoint>
          <Trackpoint>
            <Time>2021-03-13T09:09:03.000Z</Time>
            <Position>
              <LatitudeDegrees>36.71661235392093658447265625</LatitudeDegrees>
              <LongitudeDegrees>-4.18045367114245891571044921875</LongitudeDegrees>
            </Position>
            <AltitudeMeters>-3</AltitudeMeters>
            <DistanceMeters>24653.112826219</DistanceMeters>
          </Trackpoint>
          <Trackpoint>
            <Time>2021-03-13T09:09:05.000Z</Time>
            <Position>
              <LatitudeDegrees>36.716600619256496429443359375</LatitudeDegrees>
              <LongitudeDegrees>-4.18023607693612575531005859375</LongitudeDegrees>
            </Position>
            <AltitudeMeters>-2.7999999523162841796875</AltitudeMeters>
            <DistanceMeters>24672.57034366</DistanceMeters>
          </Trackpoint>
          <Trackpoint>
            <Time>2021-03-13T09:09:07.000Z</Time>
            <Position>
              <LatitudeDegrees>36.71664110384881496429443359375</LatitudeDegrees>
              <LongitudeDegrees>-4.18005888350307941436767578125</LongitudeDegrees>
            </Position>
            <AltitudeMeters>-2.7999999523162841796875</AltitudeMeters>
            <DistanceMeters>24689.009141295</DistanceMeters>
          </Trackpoint>
          <Trackpoint>
            <Time>2021-03-13T09:09:08.000Z</Time>
            <Position>
              <LatitudeDegrees>36.71667949296534061431884765625</LatitudeDegrees>
              <LongitudeDegrees>-4.1799630783498287200927734375</LongitudeDegrees>
            </Position>
            <AltitudeMeters>-2.7999999523162841796875</AltitudeMeters>
            <DistanceMeters>24698.565352002</DistanceMeters>
          </Trackpoint>
          <Trackpoint>
            <Time>2021-03-13T09:09:10.000Z</Time>
            <Position>
              <LatitudeDegrees>36.71676431782543659210205078125</LatitudeDegrees>
              <LongitudeDegrees>-4.17974556796252727508544921875</LongitudeDegrees>
            </Position>
            <AltitudeMeters>-2.7999999523162841796875</AltitudeMeters>
            <DistanceMeters>24720.146251489</DistanceMeters>
          </Trackpoint>
          <Trackpoint>
            <Time>2021-03-13T09:09:12.000Z</Time>
            <Position>
              <LatitudeDegrees>36.71680404804646968841552734375</LatitudeDegrees>
              <LongitudeDegrees>-4.17955328710377216339111328125</LongitudeDegrees>
            </Position>
            <AltitudeMeters>-2.599999904632568359375</AltitudeMeters>
            <DistanceMeters>24737.862299778</DistanceMeters>
          </Trackpoint>
          <Trackpoint>
            <Time>2021-03-13T09:09:18.000Z</Time>
            <Position>
              <LatitudeDegrees>36.716918461024761199951171875</LatitudeDegrees>
              <LongitudeDegrees>-4.1789089702069759368896484375</LongitudeDegrees>
            </Position>
            <AltitudeMeters>-2.400000095367431640625</AltitudeMeters>
            <DistanceMeters>24796.741606566</DistanceMeters>
          </Trackpoint>
          <Trackpoint>
            <Time>2021-03-13T09:09:19.000Z</Time>
            <Position>
              <LatitudeDegrees>36.71693690121173858642578125</LatitudeDegrees>
              <LongitudeDegrees>-4.17880746535956859588623046875</LongitudeDegrees>
            </Position>
            <AltitudeMeters>-2.2000000476837158203125</AltitudeMeters>
            <DistanceMeters>24806.02800684</DistanceMeters>
          </Trackpoint>
          <Trackpoint>
            <Time>2021-03-13T09:09:26.000Z</Time>
            <Position>
              <LatitudeDegrees>36.71707637608051300048828125</LatitudeDegrees>
              <LongitudeDegrees>-4.1780828498303890228271484375</LongitudeDegrees>
            </Position>
            <AltitudeMeters>-1.7999999523162841796875</AltitudeMeters>
            <DistanceMeters>24872.515476505</DistanceMeters>
          </Trackpoint>
          <Trackpoint>
            <Time>2021-03-13T09:09:27.000Z</Time>
            <Position>
              <LatitudeDegrees>36.717091463506221771240234375</LatitudeDegrees>
              <LongitudeDegrees>-4.1780054010450839996337890625</LongitudeDegrees>
            </Position>
            <AltitudeMeters>-1.7999999523162841796875</AltitudeMeters>
            <DistanceMeters>24879.62662466</DistanceMeters>
          </Trackpoint>
          <Trackpoint>
            <Time>2021-03-13T09:09:34.000Z</Time>
            <Position>
              <LatitudeDegrees>36.71722565777599811553955078125</LatitudeDegrees>
              <LongitudeDegrees>-4.1772869043052196502685546875</LongitudeDegrees>
            </Position>
            <AltitudeMeters>-1.39999997615814208984375</AltitudeMeters>
            <DistanceMeters>24945.447425595</DistanceMeters>
          </Trackpoint>
          <Trackpoint>
            <Time>2021-03-13T09:09:36.000Z</Time>
            <Position>
              <LatitudeDegrees>36.71726052649319171905517578125</LatitudeDegrees>
              <LongitudeDegrees>-4.177090935409069061279296875</LongitudeDegrees>
            </Position>
            <AltitudeMeters>-1.39999997615814208984375</AltitudeMeters>
            <DistanceMeters>24963.356873249</DistanceMeters>
          </Trackpoint>
          <Trackpoint>
            <Time>2021-03-13T09:09:37.000Z</Time>
            <Position>
              <LatitudeDegrees>36.71727729029953479766845703125</LatitudeDegrees>
              <LongitudeDegrees>-4.17699798010289669036865234375</LongitudeDegrees>
            </Position>
            <AltitudeMeters>-1.39999997615814208984375</AltitudeMeters>
            <DistanceMeters>24971.857914467</DistanceMeters>
          </Trackpoint>
          <Trackpoint>
            <Time>2021-03-13T09:09:40.000Z</Time>
            <Position>
              <LatitudeDegrees>36.71732322312891483306884765625</LatitudeDegrees>
              <LongitudeDegrees>-4.17671165429055690765380859375</LongitudeDegrees>
            </Position>
            <AltitudeMeters>-1.39999997615814208984375</AltitudeMeters>
            <DistanceMeters>24997.910316194</DistanceMeters>
          </Trackpoint>
          <Trackpoint>
            <Time>2021-03-13T09:09:45.000Z</Time>
            <Position>
              <LatitudeDegrees>36.71741710044443607330322265625</LatitudeDegrees>
              <LongitudeDegrees>-4.176195748150348663330078125</LongitudeDegrees>
            </Position>
            <AltitudeMeters>-1.2000000476837158203125</AltitudeMeters>
            <DistanceMeters>25045.110000086</DistanceMeters>
          </Trackpoint>
          <Trackpoint>
            <Time>2021-03-13T09:09:52.000Z</Time>
            <Position>
              <LatitudeDegrees>36.717542745172977447509765625</LatitudeDegrees>
              <LongitudeDegrees>-4.1754871420562267303466796875</LongitudeDegrees>
            </Position>
            <AltitudeMeters>-1</AltitudeMeters>
            <DistanceMeters>25109.859253605</DistanceMeters>
          </Trackpoint>
          <Trackpoint>
            <Time>2021-03-13T09:09:53.000Z</Time>
            <Position>
              <LatitudeDegrees>36.71756445430219173431396484375</LatitudeDegrees>
              <LongitudeDegrees>-4.175364263355731964111328125</LongitudeDegrees>
            </Position>
            <AltitudeMeters>-1</AltitudeMeters>
            <DistanceMeters>25121.085283484</DistanceMeters>
          </Trackpoint>
          <Trackpoint>
            <Time>2021-03-13T09:10:00.000Z</Time>
            <Position>
              <LatitudeDegrees>36.7176850698888301849365234375</LatitudeDegrees>
              <LongitudeDegrees>-4.1746657155454158782958984375</LongitudeDegrees>
            </Position>
            <AltitudeMeters>-1</AltitudeMeters>
            <DistanceMeters>25184.838223867</DistanceMeters>
          </Trackpoint>
          <Trackpoint>
            <Time>2021-03-13T09:10:02.000Z</Time>
            <Position>
              <LatitudeDegrees>36.7177182622253894805908203125</LatitudeDegrees>
              <LongitudeDegrees>-4.1744546592235565185546875</LongitudeDegrees>
            </Position>
            <AltitudeMeters>-1</AltitudeMeters>
            <DistanceMeters>25204.027503615</DistanceMeters>
          </Trackpoint>
          <Trackpoint>
            <Time>2021-03-13T09:10:08.000Z</Time>
            <Position>
              <LatitudeDegrees>36.71784751117229461669921875</LatitudeDegrees>
              <LongitudeDegrees>-4.1737705282866954803466796875</LongitudeDegrees>
            </Position>
            <AltitudeMeters>-1.60000002384185791015625</AltitudeMeters>
            <DistanceMeters>25266.737071708</DistanceMeters>
          </Trackpoint>
          <Trackpoint>
            <Time>2021-03-13T09:10:10.000Z</Time>
            <Position>
              <LatitudeDegrees>36.717884056270122528076171875</LatitudeDegrees>
              <LongitudeDegrees>-4.1735576279461383819580078125</LongitudeDegrees>
            </Position>
            <AltitudeMeters>-1.60000002384185791015625</AltitudeMeters>
            <DistanceMeters>25286.162307984</DistanceMeters>
          </Trackpoint>
          <Trackpoint>
            <Time>2021-03-13T09:10:16.000Z</Time>
            <Position>
              <LatitudeDegrees>36.718009449541568756103515625</LatitudeDegrees>
              <LongitudeDegrees>-4.17281708680093288421630859375</LongitudeDegrees>
            </Position>
            <AltitudeMeters>-2.2000000476837158203125</AltitudeMeters>
            <DistanceMeters>25353.690139303</DistanceMeters>
          </Trackpoint>
          <Trackpoint>
            <Time>2021-03-13T09:10:17.000Z</Time>
            <Position>
              <LatitudeDegrees>36.7180310748517513275146484375</LatitudeDegrees>
              <LongitudeDegrees>-4.17269445955753326416015625</LongitudeDegrees>
            </Position>
            <AltitudeMeters>-2.2000000476837158203125</AltitudeMeters>
            <DistanceMeters>25364.892011569</DistanceMeters>
          </Trackpoint>
          <Trackpoint>
            <Time>2021-03-13T09:10:22.000Z</Time>
            <Position>
              <LatitudeDegrees>36.7181397043168544769287109375</LatitudeDegrees>
              <LongitudeDegrees>-4.17210563085973262786865234375</LongitudeDegrees>
            </Position>
            <AltitudeMeters>-2.400000095367431640625</AltitudeMeters>
            <DistanceMeters>25418.799637291</DistanceMeters>
          </Trackpoint>
          <Trackpoint>
            <Time>2021-03-13T09:10:27.000Z</Time>
            <Position>
              <LatitudeDegrees>36.718250848352909088134765625</LatitudeDegrees>
              <LongitudeDegrees>-4.171493835747241973876953125</LongitudeDegrees>
            </Position>
            <AltitudeMeters>-2.7999999523162841796875</AltitudeMeters>
            <DistanceMeters>25474.767064576</DistanceMeters>
          </Trackpoint>
          <Trackpoint>
            <Time>2021-03-13T09:10:32.000Z</Time>
            <Position>
              <LatitudeDegrees>36.71837012283504009246826171875</LatitudeDegrees>
              <LongitudeDegrees>-4.1708978824317455291748046875</LongitudeDegrees>
            </Position>
            <AltitudeMeters>-3.2000000476837158203125</AltitudeMeters>
            <DistanceMeters>25529.569062204</DistanceMeters>
          </Trackpoint>
          <Trackpoint>
            <Time>2021-03-13T09:10:34.000Z</Time>
            <Position>
              <LatitudeDegrees>36.718409098684787750244140625</LatitudeDegrees>
              <LongitudeDegrees>-4.170688502490520477294921875</LongitudeDegrees>
            </Position>
            <AltitudeMeters>-3.2000000476837158203125</AltitudeMeters>
            <DistanceMeters>25548.746573863</DistanceMeters>
          </Trackpoint>
          <Trackpoint>
            <Time>2021-03-13T09:10:36.000Z</Time>
            <Position>
              <LatitudeDegrees>36.71844941563904285430908203125</LatitudeDegrees>
              <LongitudeDegrees>-4.17045607231557369232177734375</LongitudeDegrees>
            </Position>
            <AltitudeMeters>-3.599999904632568359375</AltitudeMeters>
            <DistanceMeters>25569.963509099</DistanceMeters>
          </Trackpoint>
          <Trackpoint>
            <Time>2021-03-13T09:10:42.000Z</Time>
            <Position>
              <LatitudeDegrees>36.7185896448791027069091796875</LatitudeDegrees>
              <LongitudeDegrees>-4.16973003186285495758056640625</LongitudeDegrees>
            </Position>
            <AltitudeMeters>-4</AltitudeMeters>
            <DistanceMeters>25636.5930266</DistanceMeters>
          </Trackpoint>
          <Trackpoint>
            <Time>2021-03-13T09:10:48.000Z</Time>
            <Position>
              <LatitudeDegrees>36.71872249804437160491943359375</LatitudeDegrees>
              <LongitudeDegrees>-4.1690223477780818939208984375</LongitudeDegrees>
            </Position>
            <AltitudeMeters>-4.400000095367431640625</AltitudeMeters>
            <DistanceMeters>25701.439342824</DistanceMeters>
          </Trackpoint>
          <Trackpoint>
            <Time>2021-03-13T09:10:53.000Z</Time>
            <Position>
              <LatitudeDegrees>36.7188350670039653778076171875</LatitudeDegrees>
              <LongitudeDegrees>-4.16844173334538936614990234375</LongitudeDegrees>
            </Position>
            <AltitudeMeters>-4.400000095367431640625</AltitudeMeters>
            <DistanceMeters>25754.733913041</DistanceMeters>
          </Trackpoint>
          <Trackpoint>
            <Time>2021-03-13T09:10:59.000Z</Time>
            <Position>
              <LatitudeDegrees>36.7189557664096355438232421875</LatitudeDegrees>
              <LongitudeDegrees>-4.16777151636779308319091796875</LongitudeDegrees>
            </Position>
            <AltitudeMeters>-4.400000095367431640625</AltitudeMeters>
            <DistanceMeters>25816.019366336</DistanceMeters>
          </Trackpoint>
          <Trackpoint>
            <Time>2021-03-13T09:11:01.000Z</Time>
            <Position>
              <LatitudeDegrees>36.71899817883968353271484375</LatitudeDegrees>
              <LongitudeDegrees>-4.1675276868045330047607421875</LongitudeDegrees>
            </Position>
            <AltitudeMeters>-4.400000095367431640625</AltitudeMeters>
            <DistanceMeters>25838.279564331</DistanceMeters>
          </Trackpoint>
          <Trackpoint>
            <Time>2021-03-13T09:11:08.000Z</Time>
            <Position>
              <LatitudeDegrees>36.71913790516555309295654296875</LatitudeDegrees>
              <LongitudeDegrees>-4.16680441237986087799072265625</LongitudeDegrees>
            </Position>
            <AltitudeMeters>-4.19999980926513671875</AltitudeMeters>
            <DistanceMeters>25904.65557127</DistanceMeters>
          </Trackpoint>
          <Trackpoint>
            <Time>2021-03-13T09:11:15.000Z</Time>
            <Position>
              <LatitudeDegrees>36.71926279552280902862548828125</LatitudeDegrees>
              <LongitudeDegrees>-4.16608817875385284423828125</LongitudeDegrees>
            </Position>
            <AltitudeMeters>-3.599999904632568359375</AltitudeMeters>
            <DistanceMeters>25970.050108826</DistanceMeters>
          </Trackpoint>
          <Trackpoint>
            <Time>2021-03-13T09:11:22.000Z</Time>
            <Position>
              <LatitudeDegrees>36.71938668005168437957763671875</LatitudeDegrees>
              <LongitudeDegrees>-4.1654040478169918060302734375</LongitudeDegrees>
            </Position>
            <AltitudeMeters>-3.2000000476837158203125</AltitudeMeters>
            <DistanceMeters>26032.624172037</DistanceMeters>
          </Trackpoint>
          <Trackpoint>
            <Time>2021-03-13T09:11:23.000Z</Time>
            <Position>
              <LatitudeDegrees>36.71940076164901256561279296875</LatitudeDegrees>
              <LongitudeDegrees>-4.1653034649789333343505859375</LongitudeDegrees>
            </Position>
            <AltitudeMeters>-3.2000000476837158203125</AltitudeMeters>
            <DistanceMeters>26041.733859327</DistanceMeters>
          </Trackpoint>
          <Trackpoint>
            <Time>2021-03-13T09:11:29.000Z</Time>
            <Position>
              <LatitudeDegrees>36.71950771473348140716552734375</LatitudeDegrees>
              <LongitudeDegrees>-4.1646590642631053924560546875</LongitudeDegrees>
            </Position>
            <AltitudeMeters>-3</AltitudeMeters>
            <DistanceMeters>26100.444605789</DistanceMeters>
          </Trackpoint>
          <Trackpoint>
            <Time>2021-03-13T09:11:36.000Z</Time>
            <Position>
              <LatitudeDegrees>36.719656996428966522216796875</LatitudeDegrees>
              <LongitudeDegrees>-4.1639435850083827972412109375</LongitudeDegrees>
            </Position>
            <AltitudeMeters>-3.400000095367431640625</AltitudeMeters>
            <DistanceMeters>26166.404235644</DistanceMeters>
          </Trackpoint>
          <Trackpoint>
            <Time>2021-03-13T09:11:37.000Z</Time>
            <Position>
              <LatitudeDegrees>36.7196833156049251556396484375</LatitudeDegrees>
              <LongitudeDegrees>-4.16381098330020904541015625</LongitudeDegrees>
            </Position>
            <AltitudeMeters>-3.400000095367431640625</AltitudeMeters>
            <DistanceMeters>26178.591759077</DistanceMeters>
          </Trackpoint>
          <Trackpoint>
            <Time>2021-03-13T09:11:38.000Z</Time>
            <Position>
              <LatitudeDegrees>36.719704605638980865478515625</LatitudeDegrees>
              <LongitudeDegrees>-4.1636988334357738494873046875</LongitudeDegrees>
            </Position>
            <AltitudeMeters>-3.400000095367431640625</AltitudeMeters>
            <DistanceMeters>26188.874861486</DistanceMeters>
          </Trackpoint>
          <Trackpoint>
            <Time>2021-03-13T09:11:44.000Z</Time>
            <Position>
              <LatitudeDegrees>36.719824969768524169921875</LatitudeDegrees>
              <LongitudeDegrees>-4.1630306281149387359619140625</LongitudeDegrees>
            </Position>
            <AltitudeMeters>-3.599999904632568359375</AltitudeMeters>
            <DistanceMeters>26249.976373783</DistanceMeters>
          </Trackpoint>
          <Trackpoint>
            <Time>2021-03-13T09:11:45.000Z</Time>
            <Position>
              <LatitudeDegrees>36.7198422364890575408935546875</LatitudeDegrees>
              <LongitudeDegrees>-4.16293985210359096527099609375</LongitudeDegrees>
            </Position>
            <AltitudeMeters>-3.599999904632568359375</AltitudeMeters>
            <DistanceMeters>26258.300844135</DistanceMeters>
          </Trackpoint>
          <Trackpoint>
            <Time>2021-03-13T09:11:51.000Z</Time>
            <Position>
              <LatitudeDegrees>36.7199657857418060302734375</LatitudeDegrees>
              <LongitudeDegrees>-4.16225924156606197357177734375</LongitudeDegrees>
            </Position>
            <AltitudeMeters>-4</AltitudeMeters>
            <DistanceMeters>26320.559951371</DistanceMeters>
          </Trackpoint>
          <Trackpoint>
            <Time>2021-03-13T09:11:54.000Z</Time>
            <Position>
              <LatitudeDegrees>36.72002739273011684417724609375</LatitudeDegrees>
              <LongitudeDegrees>-4.1619268991053104400634765625</LongitudeDegrees>
            </Position>
            <AltitudeMeters>-4.19999980926513671875</AltitudeMeters>
            <DistanceMeters>26350.992840823</DistanceMeters>
          </Trackpoint>
          <Trackpoint>
            <Time>2021-03-13T09:12:00.000Z</Time>
            <Position>
              <LatitudeDegrees>36.7201416380703449249267578125</LatitudeDegrees>
              <LongitudeDegrees>-4.16127855889499187469482421875</LongitudeDegrees>
            </Position>
            <AltitudeMeters>-4.599999904632568359375</AltitudeMeters>
            <DistanceMeters>26410.216215532</DistanceMeters>
          </Trackpoint>
          <Trackpoint>
            <Time>2021-03-13T09:12:01.000Z</Time>
            <Position>
              <LatitudeDegrees>36.72016669996082782745361328125</LatitudeDegrees>
              <LongitudeDegrees>-4.16114478372037410736083984375</LongitudeDegrees>
            </Position>
            <AltitudeMeters>-4.599999904632568359375</AltitudeMeters>
            <DistanceMeters>26422.473188315</DistanceMeters>
          </Trackpoint>
          <Trackpoint>
            <Time>2021-03-13T09:12:02.000Z</Time>
            <Position>
              <LatitudeDegrees>36.720185391604900360107421875</LatitudeDegrees>
              <LongitudeDegrees>-4.16105677373707294464111328125</LongitudeDegrees>
            </Position>
            <AltitudeMeters>-4.599999904632568359375</AltitudeMeters>
            <DistanceMeters>26430.59616613</DistanceMeters>
          </Trackpoint>
          <Trackpoint>
            <Time>2021-03-13T09:12:08.000Z</Time>
            <Position>
              <LatitudeDegrees>36.72029502689838409423828125</LatitudeDegrees>
              <LongitudeDegrees>-4.16040860116481781005859375</LongitudeDegrees>
            </Position>
            <AltitudeMeters>-5</AltitudeMeters>
            <DistanceMeters>26489.696823901</DistanceMeters>
          </Trackpoint>
          <Trackpoint>
            <Time>2021-03-13T09:12:15.000Z</Time>
            <Position>
              <LatitudeDegrees>36.7204366810619831085205078125</LatitudeDegrees>
              <LongitudeDegrees>-4.15964123792946338653564453125</LongitudeDegrees>
            </Position>
            <AltitudeMeters>-5</AltitudeMeters>
            <DistanceMeters>26559.949528197</DistanceMeters>
          </Trackpoint>
          <Trackpoint>
            <Time>2021-03-13T09:12:17.000Z</Time>
            <Position>
              <LatitudeDegrees>36.7204832844436168670654296875</LatitudeDegrees>
              <LongitudeDegrees>-4.15942481718957424163818359375</LongitudeDegrees>
            </Position>
            <AltitudeMeters>-5</AltitudeMeters>
            <DistanceMeters>26579.942209451</DistanceMeters>
          </Trackpoint>
          <Trackpoint>
            <Time>2021-03-13T09:12:21.000Z</Time>
            <Position>
              <LatitudeDegrees>36.720562241971492767333984375</LatitudeDegrees>
              <LongitudeDegrees>-4.15898107923567295074462890625</LongitudeDegrees>
            </Position>
            <AltitudeMeters>-4.599999904632568359375</AltitudeMeters>
            <DistanceMeters>26620.494240488</DistanceMeters>
          </Trackpoint>
          <Trackpoint>
            <Time>2021-03-13T09:12:23.000Z</Time>
            <Position>
              <LatitudeDegrees>36.72056450508534908294677734375</LatitudeDegrees>
              <LongitudeDegrees>-4.15877521969377994537353515625</LongitudeDegrees>
            </Position>
            <AltitudeMeters>-4.599999904632568359375</AltitudeMeters>
            <DistanceMeters>26638.861948184</DistanceMeters>
          </Trackpoint>
          <Trackpoint>
            <Time>2021-03-13T09:12:25.000Z</Time>
            <Position>
              <LatitudeDegrees>36.72057439573109149932861328125</LatitudeDegrees>
              <LongitudeDegrees>-4.1585530154407024383544921875</LongitudeDegrees>
            </Position>
            <AltitudeMeters>-4.599999904632568359375</AltitudeMeters>
            <DistanceMeters>26658.71639245</DistanceMeters>
          </Trackpoint>
          <Trackpoint>
            <Time>2021-03-13T09:12:27.000Z</Time>
            <Position>
              <LatitudeDegrees>36.720617227256298065185546875</LatitudeDegrees>
              <LongitudeDegrees>-4.1583287157118320465087890625</LongitudeDegrees>
            </Position>
            <AltitudeMeters>-4.400000095367431640625</AltitudeMeters>
            <DistanceMeters>26679.28742651</DistanceMeters>
          </Trackpoint>
          <Trackpoint>
            <Time>2021-03-13T09:12:29.000Z</Time>
            <Position>
              <LatitudeDegrees>36.7206525988876819610595703125</LatitudeDegrees>
              <LongitudeDegrees>-4.15815345011651515960693359375</LongitudeDegrees>
            </Position>
            <AltitudeMeters>-4.400000095367431640625</AltitudeMeters>
            <DistanceMeters>26695.411754743</DistanceMeters>
          </Trackpoint>
          <Trackpoint>
            <Time>2021-03-13T09:12:31.000Z</Time>
            <Position>
              <LatitudeDegrees>36.72065855003893375396728515625</LatitudeDegrees>
              <LongitudeDegrees>-4.1579364426434040069580078125</LongitudeDegrees>
            </Position>
            <AltitudeMeters>-4.400000095367431640625</AltitudeMeters>
            <DistanceMeters>26714.783691065</DistanceMeters>
          </Trackpoint>
          <Trackpoint>
            <Time>2021-03-13T09:12:36.000Z</Time>
            <Position>
              <LatitudeDegrees>36.72066927887499332427978515625</LatitudeDegrees>
              <LongitudeDegrees>-4.1574318520724773406982421875</LongitudeDegrees>
            </Position>
            <AltitudeMeters>-4</AltitudeMeters>
            <DistanceMeters>26759.81672969</DistanceMeters>
          </Trackpoint>
          <Trackpoint>
            <Time>2021-03-13T09:12:42.000Z</Time>
            <Position>
              <LatitudeDegrees>36.7206965200603008270263671875</LatitudeDegrees>
              <LongitudeDegrees>-4.15682693012058734893798828125</LongitudeDegrees>
            </Position>
            <AltitudeMeters>-3.599999904632568359375</AltitudeMeters>
            <DistanceMeters>26813.870059876</DistanceMeters>
          </Trackpoint>
          <Trackpoint>
            <Time>2021-03-13T09:12:44.000Z</Time>
            <Position>
              <LatitudeDegrees>36.7207018844783306121826171875</LatitudeDegrees>
              <LongitudeDegrees>-4.1566208191215991973876953125</LongitudeDegrees>
            </Position>
            <AltitudeMeters>-3.599999904632568359375</AltitudeMeters>
            <DistanceMeters>26832.268223249</DistanceMeters>
          </Trackpoint>
          <Trackpoint>
            <Time>2021-03-13T09:12:51.000Z</Time>
            <Position>
              <LatitudeDegrees>36.720724515616893768310546875</LatitudeDegrees>
              <LongitudeDegrees>-4.15585421025753021240234375</LongitudeDegrees>
            </Position>
            <AltitudeMeters>-3.2000000476837158203125</AltitudeMeters>
            <DistanceMeters>26900.707779736</DistanceMeters>
          </Trackpoint>
          <Trackpoint>
            <Time>2021-03-13T09:12:54.000Z</Time>
            <Position>
              <LatitudeDegrees>36.72074153088033199310302734375</LatitudeDegrees>
              <LongitudeDegrees>-4.1555298306047916412353515625</LongitudeDegrees>
            </Position>
            <AltitudeMeters>-3.2000000476837158203125</AltitudeMeters>
            <DistanceMeters>26929.70930401</DistanceMeters>
          </Trackpoint>
          <Trackpoint>
            <Time>2021-03-13T09:12:55.000Z</Time>
            <Position>
              <LatitudeDegrees>36.720747984945774078369140625</LatitudeDegrees>
              <LongitudeDegrees>-4.15542463771998882293701171875</LongitudeDegrees>
            </Position>
            <AltitudeMeters>-3.2000000476837158203125</AltitudeMeters>
            <DistanceMeters>26939.121267138</DistanceMeters>
          </Trackpoint>
          <Trackpoint>
            <Time>2021-03-13T09:13:00.000Z</Time>
            <Position>
              <LatitudeDegrees>36.72075175680220127105712890625</LatitudeDegrees>
              <LongitudeDegrees>-4.15489154867827892303466796875</LongitudeDegrees>
            </Position>
            <AltitudeMeters>-3.2000000476837158203125</AltitudeMeters>
            <DistanceMeters>26986.682683534</DistanceMeters>
          </Trackpoint>
          <Trackpoint>
            <Time>2021-03-13T09:13:03.000Z</Time>
            <Position>
              <LatitudeDegrees>36.72074966132640838623046875</LatitudeDegrees>
              <LongitudeDegrees>-4.1545675881206989288330078125</LongitudeDegrees>
            </Position>
            <AltitudeMeters>-3.2000000476837158203125</AltitudeMeters>
            <DistanceMeters>27015.585805026</DistanceMeters>
          </Trackpoint>
          <Trackpoint>
            <Time>2021-03-13T09:13:06.000Z</Time>
            <Position>
              <LatitudeDegrees>36.72073750756680965423583984375</LatitudeDegrees>
              <LongitudeDegrees>-4.1542755626142024993896484375</LongitudeDegrees>
            </Position>
            <AltitudeMeters>-3.2000000476837158203125</AltitudeMeters>
            <DistanceMeters>27041.674056436</DistanceMeters>
          </Trackpoint>
          <Trackpoint>
            <Time>2021-03-13T09:13:12.000Z</Time>
            <Position>
              <LatitudeDegrees>36.72072091139853000640869140625</LatitudeDegrees>
              <LongitudeDegrees>-4.15362252853810787200927734375</LongitudeDegrees>
            </Position>
            <AltitudeMeters>-3.400000095367431640625</AltitudeMeters>
            <DistanceMeters>27099.963864406</DistanceMeters>
          </Trackpoint>
          <Trackpoint>
            <Time>2021-03-13T09:13:15.000Z</Time>
            <Position>
              <LatitudeDegrees>36.72070515342056751251220703125</LatitudeDegrees>
              <LongitudeDegrees>-4.1533123143017292022705078125</LongitudeDegrees>
            </Position>
            <AltitudeMeters>-3.400000095367431640625</AltitudeMeters>
            <DistanceMeters>27127.695225717</DistanceMeters>
          </Trackpoint>
          <Trackpoint>
            <Time>2021-03-13T09:13:21.000Z</Time>
            <Position>
              <LatitudeDegrees>36.72066156752407550811767578125</LatitudeDegrees>
              <LongitudeDegrees>-4.1527332924306392669677734375</LongitudeDegrees>
            </Position>
            <AltitudeMeters>-2.599999904632568359375</AltitudeMeters>
            <DistanceMeters>27179.580159846</DistanceMeters>
          </Trackpoint>
          <Trackpoint>
            <Time>2021-03-13T09:13:23.000Z</Time>
            <Position>
              <LatitudeDegrees>36.72064346261322498321533203125</LatitudeDegrees>
              <LongitudeDegrees>-4.152544029057025909423828125</LongitudeDegrees>
            </Position>
            <AltitudeMeters>-2.400000095367431640625</AltitudeMeters>
            <DistanceMeters>27196.585163167</DistanceMeters>
          </Trackpoint>
          <Trackpoint>
            <Time>2021-03-13T09:13:29.000Z</Time>
            <Position>
              <LatitudeDegrees>36.72059752978384494781494140625</LatitudeDegrees>
              <LongitudeDegrees>-4.15194732137024402618408203125</LongitudeDegrees>
            </Position>
            <AltitudeMeters>-1.7999999523162841796875</AltitudeMeters>
            <DistanceMeters>27250.065536133</DistanceMeters>
          </Trackpoint>
          <Trackpoint>
            <Time>2021-03-13T09:13:30.000Z</Time>
            <Position>
              <LatitudeDegrees>36.72059199772775173187255859375</LatitudeDegrees>
              <LongitudeDegrees>-4.15185025893151760101318359375</LongitudeDegrees>
            </Position>
            <AltitudeMeters>-1.39999997615814208984375</AltitudeMeters>
            <DistanceMeters>27258.746838916</DistanceMeters>
          </Trackpoint>
          <Trackpoint>
            <Time>2021-03-13T09:13:35.000Z</Time>
            <Position>
              <LatitudeDegrees>36.72056735493242740631103515625</LatitudeDegrees>
              <LongitudeDegrees>-4.15139973163604736328125</LongitudeDegrees>
            </Position>
            <AltitudeMeters>-0.60000002384185791015625</AltitudeMeters>
            <DistanceMeters>27299.034243524</DistanceMeters>
          </Trackpoint>
          <Trackpoint>
            <Time>2021-03-13T09:13:38.000Z</Time>
            <Position>
              <LatitudeDegrees>36.720575988292694091796875</LatitudeDegrees>
              <LongitudeDegrees>-4.1511199437081813812255859375</LongitudeDegrees>
            </Position>
            <AltitudeMeters>-0.20000000298023223876953125</AltitudeMeters>
            <DistanceMeters>27324.013981561</DistanceMeters>
          </Trackpoint>
          <Trackpoint>
            <Time>2021-03-13T09:13:44.000Z</Time>
            <Position>
              <LatitudeDegrees>36.720650754868984222412109375</LatitudeDegrees>
              <LongitudeDegrees>-4.1505379043519496917724609375</LongitudeDegrees>
            </Position>
            <AltitudeMeters>0.4000000059604644775390625</AltitudeMeters>
            <DistanceMeters>27376.60343433</DistanceMeters>
          </Trackpoint>
          <Trackpoint>
            <Time>2021-03-13T09:13:51.000Z</Time>
            <Position>
              <LatitudeDegrees>36.7207920737564563751220703125</LatitudeDegrees>
              <LongitudeDegrees>-4.14985687471926212310791015625</LongitudeDegrees>
            </Position>
            <AltitudeMeters>1.2000000476837158203125</AltitudeMeters>
            <DistanceMeters>27439.364532673</DistanceMeters>
          </Trackpoint>
          <Trackpoint>
            <Time>2021-03-13T09:13:53.000Z</Time>
            <Position>
              <LatitudeDegrees>36.72083842568099498748779296875</LatitudeDegrees>
              <LongitudeDegrees>-4.14964766241610050201416015625</LongitudeDegrees>
            </Position>
            <AltitudeMeters>1.60000002384185791015625</AltitudeMeters>
            <DistanceMeters>27458.7294756</DistanceMeters>
          </Trackpoint>
          <Trackpoint>
            <Time>2021-03-13T09:13:55.000Z</Time>
            <Position>
              <LatitudeDegrees>36.72087413258850574493408203125</LatitudeDegrees>
              <LongitudeDegrees>-4.149480275809764862060546875</LongitudeDegrees>
            </Position>
            <AltitudeMeters>1.60000002384185791015625</AltitudeMeters>
            <DistanceMeters>27474.182934812</DistanceMeters>
          </Trackpoint>
          <Trackpoint>
            <Time>2021-03-13T09:14:01.000Z</Time>
            <Position>
              <LatitudeDegrees>36.72099717892706394195556640625</LatitudeDegrees>
              <LongitudeDegrees>-4.14887283928692340850830078125</LongitudeDegrees>
            </Position>
            <AltitudeMeters>2.400000095367431640625</AltitudeMeters>
            <DistanceMeters>27530.079082796</DistanceMeters>
          </Trackpoint>
          <Trackpoint>
            <Time>2021-03-13T09:14:02.000Z</Time>
            <Position>
              <LatitudeDegrees>36.721011511981487274169921875</LatitudeDegrees>
              <LongitudeDegrees>-4.1487937979400157928466796875</LongitudeDegrees>
            </Position>
            <AltitudeMeters>2.400000095367431640625</AltitudeMeters>
            <DistanceMeters>27537.309860251</DistanceMeters>
          </Trackpoint>
          <Trackpoint>
            <Time>2021-03-13T09:14:08.000Z</Time>
            <Position>
              <LatitudeDegrees>36.721082590520381927490234375</LatitudeDegrees>
              <LongitudeDegrees>-4.148164652287960052490234375</LongitudeDegrees>
            </Position>
            <AltitudeMeters>2.7999999523162841796875</AltitudeMeters>
            <DistanceMeters>27593.993753379</DistanceMeters>
          </Trackpoint>
          <Trackpoint>
            <Time>2021-03-13T09:14:15.000Z</Time>
            <Position>
              <LatitudeDegrees>36.72111636959016323089599609375</LatitudeDegrees>
              <LongitudeDegrees>-4.1474262066185474395751953125</LongitudeDegrees>
            </Position>
            <AltitudeMeters>3</AltitudeMeters>
            <DistanceMeters>27659.981168707</DistanceMeters>
          </Trackpoint>
          <Trackpoint>
            <Time>2021-03-13T09:14:16.000Z</Time>
            <Position>
              <LatitudeDegrees>36.72112307511270046234130859375</LatitudeDegrees>
              <LongitudeDegrees>-4.14732084609568119049072265625</LongitudeDegrees>
            </Position>
            <AltitudeMeters>3</AltitudeMeters>
            <DistanceMeters>27669.410385677</DistanceMeters>
          </Trackpoint>
          <Trackpoint>
            <Time>2021-03-13T09:14:22.000Z</Time>
            <Position>
              <LatitudeDegrees>36.7212161980569362640380859375</LatitudeDegrees>
              <LongitudeDegrees>-4.14665616117417812347412109375</LongitudeDegrees>
            </Position>
            <AltitudeMeters>3</AltitudeMeters>
            <DistanceMeters>27729.609040462</DistanceMeters>
          </Trackpoint>
          <Trackpoint>
            <Time>2021-03-13T09:14:27.000Z</Time>
            <Position>
              <LatitudeDegrees>36.72140143811702728271484375</LatitudeDegrees>
              <LongitudeDegrees>-4.1461424343287944793701171875</LongitudeDegrees>
            </Position>
            <AltitudeMeters>2.599999904632568359375</AltitudeMeters>
            <DistanceMeters>27779.864877644</DistanceMeters>
          </Trackpoint>
          <Trackpoint>
            <Time>2021-03-13T09:14:33.000Z</Time>
            <Position>
              <LatitudeDegrees>36.72170025296509265899658203125</LatitudeDegrees>
              <LongitudeDegrees>-4.14549241773784160614013671875</LongitudeDegrees>
            </Position>
            <AltitudeMeters>1.60000002384185791015625</AltitudeMeters>
            <DistanceMeters>27846.715951703</DistanceMeters>
          </Trackpoint>
          <Trackpoint>
            <Time>2021-03-13T09:14:35.000Z</Time>
            <Position>
              <LatitudeDegrees>36.72179278917610645294189453125</LatitudeDegrees>
              <LongitudeDegrees>-4.145276583731174468994140625</LongitudeDegrees>
            </Position>
            <AltitudeMeters>1.39999997615814208984375</AltitudeMeters>
            <DistanceMeters>27868.553082395</DistanceMeters>
          </Trackpoint>
          <Trackpoint>
            <Time>2021-03-13T09:14:39.000Z</Time>
            <Position>
              <LatitudeDegrees>36.72198590822517871856689453125</LatitudeDegrees>
              <LongitudeDegrees>-4.14483326487243175506591796875</LongitudeDegrees>
            </Position>
            <AltitudeMeters>0.4000000059604644775390625</AltitudeMeters>
            <DistanceMeters>27913.566866873</DistanceMeters>
          </Trackpoint>
          <Trackpoint>
            <Time>2021-03-13T09:14:43.000Z</Time>
            <Position>
              <LatitudeDegrees>36.7221687175333499908447265625</LatitudeDegrees>
              <LongitudeDegrees>-4.1443570889532566070556640625</LongitudeDegrees>
            </Position>
            <AltitudeMeters>-1</AltitudeMeters>
            <DistanceMeters>27960.669645158</DistanceMeters>
          </Trackpoint>
          <Trackpoint>
            <Time>2021-03-13T09:14:48.000Z</Time>
            <Position>
              <LatitudeDegrees>36.7223963700234889984130859375</LatitudeDegrees>
              <LongitudeDegrees>-4.1437217406928539276123046875</LongitudeDegrees>
            </Position>
            <AltitudeMeters>-1.7999999523162841796875</AltitudeMeters>
            <DistanceMeters>28022.756859969</DistanceMeters>
          </Trackpoint>
          <Trackpoint>
            <Time>2021-03-13T09:14:49.000Z</Time>
            <Position>
              <LatitudeDegrees>36.7224456556141376495361328125</LatitudeDegrees>
              <LongitudeDegrees>-4.14359274320304393768310546875</LongitudeDegrees>
            </Position>
            <AltitudeMeters>-2</AltitudeMeters>
            <DistanceMeters>28035.505323243</DistanceMeters>
          </Trackpoint>
          <Trackpoint>
            <Time>2021-03-13T09:14:53.000Z</Time>
            <Position>
              <LatitudeDegrees>36.7226324044167995452880859375</LatitudeDegrees>
              <LongitudeDegrees>-4.1430739872157573699951171875</LongitudeDegrees>
            </Position>
            <AltitudeMeters>-3</AltitudeMeters>
            <DistanceMeters>28086.238465457</DistanceMeters>
          </Trackpoint>
          <Trackpoint>
            <Time>2021-03-13T09:14:56.000Z</Time>
            <Position>
              <LatitudeDegrees>36.72277581878006458282470703125</LatitudeDegrees>
              <LongitudeDegrees>-4.142671488225460052490234375</LongitudeDegrees>
            </Position>
            <AltitudeMeters>-3.7999999523162841796875</AltitudeMeters>
            <DistanceMeters>28125.53451096</DistanceMeters>
          </Trackpoint>
          <Trackpoint>
            <Time>2021-03-13T09:14:59.000Z</Time>
            <Position>
              <LatitudeDegrees>36.722914874553680419921875</LatitudeDegrees>
              <LongitudeDegrees>-4.14227594621479511260986328125</LongitudeDegrees>
            </Position>
            <AltitudeMeters>-4.19999980926513671875</AltitudeMeters>
            <DistanceMeters>28164.066759779</DistanceMeters>
          </Trackpoint>
          <Trackpoint>
            <Time>2021-03-13T09:15:05.000Z</Time>
            <Position>
              <LatitudeDegrees>36.72317798249423503875732421875</LatitudeDegrees>
              <LongitudeDegrees>-4.14152610115706920623779296875</LongitudeDegrees>
            </Position>
            <AltitudeMeters>-4.599999904632568359375</AltitudeMeters>
            <DistanceMeters>28237.091311971</DistanceMeters>
          </Trackpoint>
          <Trackpoint>
            <Time>2021-03-13T09:15:11.000Z</Time>
            <Position>
              <LatitudeDegrees>36.723429858684539794921875</LatitudeDegrees>
              <LongitudeDegrees>-4.14082805626094341278076171875</LongitudeDegrees>
            </Position>
            <AltitudeMeters>-4.599999904632568359375</AltitudeMeters>
            <DistanceMeters>28305.38471819</DistanceMeters>
          </Trackpoint>
          <Trackpoint>
            <Time>2021-03-13T09:15:17.000Z</Time>
            <Position>
              <LatitudeDegrees>36.72367955558001995086669921875</LatitudeDegrees>
              <LongitudeDegrees>-4.1401319392025470733642578125</LongitudeDegrees>
            </Position>
            <AltitudeMeters>-4.599999904632568359375</AltitudeMeters>
            <DistanceMeters>28373.421722144</DistanceMeters>
          </Trackpoint>
          <Trackpoint>
            <Time>2021-03-13T09:15:22.000Z</Time>
            <Position>
              <LatitudeDegrees>36.723877452313899993896484375</LatitudeDegrees>
              <LongitudeDegrees>-4.1395713575184345245361328125</LongitudeDegrees>
            </Position>
            <AltitudeMeters>-4.400000095367431640625</AltitudeMeters>
            <DistanceMeters>28428.067866836</DistanceMeters>
          </Trackpoint>
          <Trackpoint>
            <Time>2021-03-13T09:15:27.000Z</Time>
            <Position>
              <LatitudeDegrees>36.7240519635379314422607421875</LatitudeDegrees>
              <LongitudeDegrees>-4.13907690905034542083740234375</LongitudeDegrees>
            </Position>
            <AltitudeMeters>-4</AltitudeMeters>
            <DistanceMeters>28476.265431353</DistanceMeters>
          </Trackpoint>
          <Trackpoint>
            <Time>2021-03-13T09:15:34.000Z</Time>
            <Position>
              <LatitudeDegrees>36.7242742516100406646728515625</LatitudeDegrees>
              <LongitudeDegrees>-4.1384012438356876373291015625</LongitudeDegrees>
            </Position>
            <AltitudeMeters>-3.2000000476837158203125</AltitudeMeters>
            <DistanceMeters>28541.422443713</DistanceMeters>
          </Trackpoint>
          <Trackpoint>
            <Time>2021-03-13T09:15:35.000Z</Time>
            <Position>
              <LatitudeDegrees>36.72430836595594882965087890625</LatitudeDegrees>
              <LongitudeDegrees>-4.13829906843602657318115234375</LongitudeDegrees>
            </Position>
            <AltitudeMeters>-3.2000000476837158203125</AltitudeMeters>
            <DistanceMeters>28551.296995118</DistanceMeters>
          </Trackpoint>
          <Trackpoint>
            <Time>2021-03-13T09:15:41.000Z</Time>
            <Position>
              <LatitudeDegrees>36.72453450970351696014404296875</LatitudeDegrees>
              <LongitudeDegrees>-4.13768618367612361907958984375</LongitudeDegrees>
            </Position>
            <AltitudeMeters>-2.7999999523162841796875</AltitudeMeters>
            <DistanceMeters>28611.48844925</DistanceMeters>
          </Trackpoint>
          <Trackpoint>
            <Time>2021-03-13T09:15:44.000Z</Time>
            <Position>
              <LatitudeDegrees>36.72466174699366092681884765625</LatitudeDegrees>
              <LongitudeDegrees>-4.13737337104976177215576171875</LongitudeDegrees>
            </Position>
            <AltitudeMeters>-3</AltitudeMeters>
            <DistanceMeters>28642.782406979</DistanceMeters>
          </Trackpoint>
          <Trackpoint>
            <Time>2021-03-13T09:15:50.000Z</Time>
            <Position>
              <LatitudeDegrees>36.72490264289081096649169921875</LatitudeDegrees>
              <LongitudeDegrees>-4.13670868612825870513916015625</LongitudeDegrees>
            </Position>
            <AltitudeMeters>-3.400000095367431640625</AltitudeMeters>
            <DistanceMeters>28707.859334699</DistanceMeters>
          </Trackpoint>
          <Trackpoint>
            <Time>2021-03-13T09:15:52.000Z</Time>
            <Position>
              <LatitudeDegrees>36.72498981468379497528076171875</LatitudeDegrees>
              <LongitudeDegrees>-4.13647198118269443511962890625</LongitudeDegrees>
            </Position>
            <AltitudeMeters>-3.7999999523162841796875</AltitudeMeters>
            <DistanceMeters>28731.097981209</DistanceMeters>
          </Trackpoint>
          <Trackpoint>
            <Time>2021-03-13T09:15:57.000Z</Time>
            <Position>
              <LatitudeDegrees>36.725202463567256927490234375</LatitudeDegrees>
              <LongitudeDegrees>-4.13588306866586208343505859375</LongitudeDegrees>
            </Position>
            <AltitudeMeters>-4.400000095367431640625</AltitudeMeters>
            <DistanceMeters>28788.72014672</DistanceMeters>
          </Trackpoint>
          <Trackpoint>
            <Time>2021-03-13T09:15:59.000Z</Time>
            <Position>
              <LatitudeDegrees>36.72529743053019046783447265625</LatitudeDegrees>
              <LongitudeDegrees>-4.1356368921697139739990234375</LongitudeDegrees>
            </Position>
            <AltitudeMeters>-4.599999904632568359375</AltitudeMeters>
            <DistanceMeters>28813.0929707</DistanceMeters>
          </Trackpoint>
          <Trackpoint>
            <Time>2021-03-13T09:16:05.000Z</Time>
            <Position>
              <LatitudeDegrees>36.725556515157222747802734375</LatitudeDegrees>
              <LongitudeDegrees>-4.13492895662784576416015625</LongitudeDegrees>
            </Position>
            <AltitudeMeters>-4.80000019073486328125</AltitudeMeters>
            <DistanceMeters>28882.519789973</DistanceMeters>
          </Trackpoint>
          <Trackpoint>
            <Time>2021-03-13T09:16:07.000Z</Time>
            <Position>
              <LatitudeDegrees>36.72563723288476467132568359375</LatitudeDegrees>
              <LongitudeDegrees>-4.13470993749797344207763671875</LongitudeDegrees>
            </Position>
            <AltitudeMeters>-4.80000019073486328125</AltitudeMeters>
            <DistanceMeters>28904.025030383</DistanceMeters>
          </Trackpoint>
          <Trackpoint>
            <Time>2021-03-13T09:16:13.000Z</Time>
            <Position>
              <LatitudeDegrees>36.72587427310645580291748046875</LatitudeDegrees>
              <LongitudeDegrees>-4.1340624354779720306396484375</LongitudeDegrees>
            </Position>
            <AltitudeMeters>-4.80000019073486328125</AltitudeMeters>
            <DistanceMeters>28967.528334222</DistanceMeters>
          </Trackpoint>
          <Trackpoint>
            <Time>2021-03-13T09:16:14.000Z</Time>
            <Position>
              <LatitudeDegrees>36.72591433860361576080322265625</LatitudeDegrees>
              <LongitudeDegrees>-4.13395908661186695098876953125</LongitudeDegrees>
            </Position>
            <AltitudeMeters>-4.80000019073486328125</AltitudeMeters>
            <DistanceMeters>28977.769639701</DistanceMeters>
          </Trackpoint>
          <Trackpoint>
            <Time>2021-03-13T09:16:20.000Z</Time>
            <Position>
              <LatitudeDegrees>36.72614702023565769195556640625</LatitudeDegrees>
              <LongitudeDegrees>-4.1333211399614810943603515625</LongitudeDegrees>
            </Position>
            <AltitudeMeters>-4.400000095367431640625</AltitudeMeters>
            <DistanceMeters>29040.295773565</DistanceMeters>
          </Trackpoint>
          <Trackpoint>
            <Time>2021-03-13T09:16:22.000Z</Time>
            <Position>
              <LatitudeDegrees>36.7262212000787258148193359375</LatitudeDegrees>
              <LongitudeDegrees>-4.13311176002025604248046875</LongitudeDegrees>
            </Position>
            <AltitudeMeters>-4.19999980926513671875</AltitudeMeters>
            <DistanceMeters>29060.717675547</DistanceMeters>
          </Trackpoint>
          <Trackpoint>
            <Time>2021-03-13T09:16:29.000Z</Time>
            <Position>
              <LatitudeDegrees>36.72647408209741115570068359375</LatitudeDegrees>
              <LongitudeDegrees>-4.13240390829741954803466796875</LongitudeDegrees>
            </Position>
            <AltitudeMeters>-4.19999980926513671875</AltitudeMeters>
            <DistanceMeters>29129.852924677</DistanceMeters>
          </Trackpoint>
          <Trackpoint>
            <Time>2021-03-13T09:16:33.000Z</Time>
            <Position>
              <LatitudeDegrees>36.7266238667070865631103515625</LatitudeDegrees>
              <LongitudeDegrees>-4.131984226405620574951171875</LongitudeDegrees>
            </Position>
            <AltitudeMeters>-4</AltitudeMeters>
            <DistanceMeters>29170.835997753</DistanceMeters>
          </Trackpoint>
          <Trackpoint>
            <Time>2021-03-13T09:16:39.000Z</Time>
            <Position>
              <LatitudeDegrees>36.72685436904430389404296875</LatitudeDegrees>
              <LongitudeDegrees>-4.13135097362101078033447265625</LongitudeDegrees>
            </Position>
            <AltitudeMeters>-3.7999999523162841796875</AltitudeMeters>
            <DistanceMeters>29232.880001311</DistanceMeters>
          </Trackpoint>
          <Trackpoint>
            <Time>2021-03-13T09:16:41.000Z</Time>
            <Position>
              <LatitudeDegrees>36.72692838124930858612060546875</LatitudeDegrees>
              <LongitudeDegrees>-4.1311451978981494903564453125</LongitudeDegrees>
            </Position>
            <AltitudeMeters>-3.7999999523162841796875</AltitudeMeters>
            <DistanceMeters>29253.000547704</DistanceMeters>
          </Trackpoint>
          <Trackpoint>
            <Time>2021-03-13T09:16:47.000Z</Time>
            <Position>
              <LatitudeDegrees>36.727160476148128509521484375</LatitudeDegrees>
              <LongitudeDegrees>-4.13049786351621150970458984375</LongitudeDegrees>
            </Position>
            <AltitudeMeters>-3.7999999523162841796875</AltitudeMeters>
            <DistanceMeters>29316.262651366</DistanceMeters>
          </Trackpoint>
          <Trackpoint>
            <Time>2021-03-13T09:16:50.000Z</Time>
            <Position>
              <LatitudeDegrees>36.72727656550705432891845703125</LatitudeDegrees>
              <LongitudeDegrees>-4.13017205893993377685546875</LongitudeDegrees>
            </Position>
            <AltitudeMeters>-3.599999904632568359375</AltitudeMeters>
            <DistanceMeters>29348.069783341</DistanceMeters>
          </Trackpoint>
          <Trackpoint>
            <Time>2021-03-13T09:16:54.000Z</Time>
            <Position>
              <LatitudeDegrees>36.72741671092808246612548828125</LatitudeDegrees>
              <LongitudeDegrees>-4.12977182306349277496337890625</LongitudeDegrees>
            </Position>
            <AltitudeMeters>-3.400000095367431640625</AltitudeMeters>
            <DistanceMeters>29387.032358606</DistanceMeters>
          </Trackpoint>
          <Trackpoint>
            <Time>2021-03-13T09:16:57.000Z</Time>
            <Position>
              <LatitudeDegrees>36.72751645557582378387451171875</LatitudeDegrees>
              <LongitudeDegrees>-4.1294922865927219390869140625</LongitudeDegrees>
            </Position>
            <AltitudeMeters>-3.2000000476837158203125</AltitudeMeters>
            <DistanceMeters>29414.328689267</DistanceMeters>
          </Trackpoint>
          <Trackpoint>
            <Time>2021-03-13T09:17:01.000Z</Time>
            <Position>
              <LatitudeDegrees>36.72764964401721954345703125</LatitudeDegrees>
              <LongitudeDegrees>-4.12912599742412567138671875</LongitudeDegrees>
            </Position>
            <AltitudeMeters>-2.400000095367431640625</AltitudeMeters>
            <DistanceMeters>29450.20980016</DistanceMeters>
          </Trackpoint>
          <Trackpoint>
            <Time>2021-03-13T09:17:04.000Z</Time>
            <Position>
              <LatitudeDegrees>36.72774620354175567626953125</LatitudeDegrees>
              <LongitudeDegrees>-4.12885115481913089752197265625</LongitudeDegrees>
            </Position>
            <AltitudeMeters>-1.7999999523162841796875</AltitudeMeters>
            <DistanceMeters>29476.97968747</DistanceMeters>
          </Trackpoint>
          <Trackpoint>
            <Time>2021-03-13T09:17:06.000Z</Time>
            <Position>
              <LatitudeDegrees>36.72780579887330532073974609375</LatitudeDegrees>
              <LongitudeDegrees>-4.12866423837840557098388671875</LongitudeDegrees>
            </Position>
            <AltitudeMeters>-1.39999997615814208984375</AltitudeMeters>
            <DistanceMeters>29494.924394935</DistanceMeters>
          </Trackpoint>
          <Trackpoint>
            <Time>2021-03-13T09:17:09.000Z</Time>
            <Position>
              <LatitudeDegrees>36.7278955690562725067138671875</LatitudeDegrees>
              <LongitudeDegrees>-4.1283784992992877960205078125</LongitudeDegrees>
            </Position>
            <AltitudeMeters>-0.20000000298023223876953125</AltitudeMeters>
            <DistanceMeters>29522.302645161</DistanceMeters>
          </Trackpoint>
          <Trackpoint>
            <Time>2021-03-13T09:17:16.000Z</Time>
            <Position>
              <LatitudeDegrees>36.7281309328973293304443359375</LatitudeDegrees>
              <LongitudeDegrees>-4.12768724374473094940185546875</LongitudeDegrees>
            </Position>
            <AltitudeMeters>0.4000000059604644775390625</AltitudeMeters>
            <DistanceMeters>29589.300994094</DistanceMeters>
          </Trackpoint>
          <Trackpoint>
            <Time>2021-03-13T09:17:17.000Z</Time>
            <Position>
              <LatitudeDegrees>36.728169657289981842041015625</LatitudeDegrees>
              <LongitudeDegrees>-4.1275835596024990081787109375</LongitudeDegrees>
            </Position>
            <AltitudeMeters>0.4000000059604644775390625</AltitudeMeters>
            <DistanceMeters>29599.50564213</DistanceMeters>
          </Trackpoint>
          <Trackpoint>
            <Time>2021-03-13T09:17:23.000Z</Time>
            <Position>
              <LatitudeDegrees>36.72839974053204059600830078125</LatitudeDegrees>
              <LongitudeDegrees>-4.12695474922657012939453125</LongitudeDegrees>
            </Position>
            <AltitudeMeters>0.20000000298023223876953125</AltitudeMeters>
            <DistanceMeters>29661.168754594</DistanceMeters>
          </Trackpoint>
          <Trackpoint>
            <Time>2021-03-13T09:17:26.000Z</Time>
            <Position>
              <LatitudeDegrees>36.72850887291133403778076171875</LatitudeDegrees>
              <LongitudeDegrees>-4.1266394220292568206787109375</LongitudeDegrees>
            </Position>
            <AltitudeMeters>0</AltitudeMeters>
            <DistanceMeters>29691.80835001</DistanceMeters>
          </Trackpoint>
          <Trackpoint>
            <Time>2021-03-13T09:17:32.000Z</Time>
            <Position>
              <LatitudeDegrees>36.72875245101749897003173828125</LatitudeDegrees>
              <LongitudeDegrees>-4.1259920038282871246337890625</LongitudeDegrees>
            </Position>
            <AltitudeMeters>-0.800000011920928955078125</AltitudeMeters>
            <DistanceMeters>29755.608581189</DistanceMeters>
          </Trackpoint>
          <Trackpoint>
            <Time>2021-03-13T09:17:35.000Z</Time>
            <Position>
              <LatitudeDegrees>36.72887683846056461334228515625</LatitudeDegrees>
              <LongitudeDegrees>-4.1256456635892391204833984375</LongitudeDegrees>
            </Position>
            <AltitudeMeters>-1.2000000476837158203125</AltitudeMeters>
            <DistanceMeters>29789.464240438</DistanceMeters>
          </Trackpoint>
          <Trackpoint>
            <Time>2021-03-13T09:17:36.000Z</Time>
            <Position>
              <LatitudeDegrees>36.72892226837575435638427734375</LatitudeDegrees>
              <LongitudeDegrees>-4.12552270106971263885498046875</LongitudeDegrees>
            </Position>
            <AltitudeMeters>-1.2000000476837158203125</AltitudeMeters>
            <DistanceMeters>29801.542730204</DistanceMeters>
          </Trackpoint>
          <Trackpoint>
            <Time>2021-03-13T09:17:41.000Z</Time>
            <Position>
              <LatitudeDegrees>36.7291511781513690948486328125</LatitudeDegrees>
              <LongitudeDegrees>-4.12491434253752231597900390625</LongitudeDegrees>
            </Position>
            <AltitudeMeters>-2</AltitudeMeters>
            <DistanceMeters>29861.494722056</DistanceMeters>
          </Trackpoint>
          <Trackpoint>
            <Time>2021-03-13T09:17:43.000Z</Time>
            <Position>
              <LatitudeDegrees>36.72923273406922817230224609375</LatitudeDegrees>
              <LongitudeDegrees>-4.12469440139830112457275390625</LongitudeDegrees>
            </Position>
            <AltitudeMeters>-2.2000000476837158203125</AltitudeMeters>
            <DistanceMeters>29883.112829658</DistanceMeters>
          </Trackpoint>
          <Trackpoint>
            <Time>2021-03-13T09:17:48.000Z</Time>
            <Position>
              <LatitudeDegrees>36.72943524084985256195068359375</LatitudeDegrees>
              <LongitudeDegrees>-4.12413264624774456024169921875</LongitudeDegrees>
            </Position>
            <AltitudeMeters>-3</AltitudeMeters>
            <DistanceMeters>29938.05988571</DistanceMeters>
          </Trackpoint>
          <Trackpoint>
            <Time>2021-03-13T09:17:49.000Z</Time>
            <Position>
              <LatitudeDegrees>36.729481257498264312744140625</LatitudeDegrees>
              <LongitudeDegrees>-4.1240130364894866943359375</LongitudeDegrees>
            </Position>
            <AltitudeMeters>-3</AltitudeMeters>
            <DistanceMeters>29949.895194992</DistanceMeters>
          </Trackpoint>
          <Trackpoint>
            <Time>2021-03-13T09:17:53.000Z</Time>
            <Position>
              <LatitudeDegrees>36.72965861856937408447265625</LatitudeDegrees>
              <LongitudeDegrees>-4.1235320828855037689208984375</LongitudeDegrees>
            </Position>
            <AltitudeMeters>-3.7999999523162841796875</AltitudeMeters>
            <DistanceMeters>29997.122229214</DistanceMeters>
          </Trackpoint>
          <Trackpoint>
            <Time>2021-03-13T09:17:56.000Z</Time>
            <Position>
              <LatitudeDegrees>36.72979264520108699798583984375</LatitudeDegrees>
              <LongitudeDegrees>-4.12317610345780849456787109375</LongitudeDegrees>
            </Position>
            <AltitudeMeters>-3.7999999523162841796875</AltitudeMeters>
            <DistanceMeters>30032.206524564</DistanceMeters>
          </Trackpoint>
          <Trackpoint>
            <Time>2021-03-13T09:18:01.000Z</Time>
            <Position>
              <LatitudeDegrees>36.730010323226451873779296875</LatitudeDegrees>
              <LongitudeDegrees>-4.12255768664181232452392578125</LongitudeDegrees>
            </Position>
            <AltitudeMeters>-4.599999904632568359375</AltitudeMeters>
            <DistanceMeters>30092.457957839</DistanceMeters>
          </Trackpoint>
          <Trackpoint>
            <Time>2021-03-13T09:18:05.000Z</Time>
            <Position>
              <LatitudeDegrees>36.7301761172711849212646484375</LatitudeDegrees>
              <LongitudeDegrees>-4.12205024622380733489990234375</LongitudeDegrees>
            </Position>
            <AltitudeMeters>-4.80000019073486328125</AltitudeMeters>
            <DistanceMeters>30141.340682482</DistanceMeters>
          </Trackpoint>
          <Trackpoint>
            <Time>2021-03-13T09:18:06.000Z</Time>
            <Position>
              <LatitudeDegrees>36.7302203737199306488037109375</LatitudeDegrees>
              <LongitudeDegrees>-4.12192820571362972259521484375</LongitudeDegrees>
            </Position>
            <AltitudeMeters>-4.599999904632568359375</AltitudeMeters>
            <DistanceMeters>30153.289890352</DistanceMeters>
          </Trackpoint>
          <Trackpoint>
            <Time>2021-03-13T09:18:11.000Z</Time>
            <Position>
              <LatitudeDegrees>36.7304022610187530517578125</LatitudeDegrees>
              <LongitudeDegrees>-4.1213712282478809356689453125</LongitudeDegrees>
            </Position>
            <AltitudeMeters>-4.599999904632568359375</AltitudeMeters>
            <DistanceMeters>30206.940697496</DistanceMeters>
          </Trackpoint>
          <Trackpoint>
            <Time>2021-03-13T09:18:17.000Z</Time>
            <Position>
              <LatitudeDegrees>36.73062555491924285888671875</LatitudeDegrees>
              <LongitudeDegrees>-4.1207385621964931488037109375</LongitudeDegrees>
            </Position>
            <AltitudeMeters>-4.19999980926513671875</AltitudeMeters>
            <DistanceMeters>30268.606885167</DistanceMeters>
          </Trackpoint>
          <Trackpoint>
            <Time>2021-03-13T09:18:18.000Z</Time>
            <Position>
              <LatitudeDegrees>36.73065908253192901611328125</LatitudeDegrees>
              <LongitudeDegrees>-4.12064175121486186981201171875</LongitudeDegrees>
            </Position>
            <AltitudeMeters>-4.19999980926513671875</AltitudeMeters>
            <DistanceMeters>30278.014049944</DistanceMeters>
          </Trackpoint>
          <Trackpoint>
            <Time>2021-03-13T09:18:25.000Z</Time>
            <Position>
              <LatitudeDegrees>36.730890758335590362548828125</LatitudeDegrees>
              <LongitudeDegrees>-4.11998544819653034210205078125</LongitudeDegrees>
            </Position>
            <AltitudeMeters>-3.599999904632568359375</AltitudeMeters>
            <DistanceMeters>30341.985805384</DistanceMeters>
          </Trackpoint>
          <Trackpoint>
            <Time>2021-03-13T09:18:26.000Z</Time>
            <Position>
              <LatitudeDegrees>36.73092369921505451202392578125</LatitudeDegrees>
              <LongitudeDegrees>-4.11988771520555019378662109375</LongitudeDegrees>
            </Position>
            <AltitudeMeters>-3.599999904632568359375</AltitudeMeters>
            <DistanceMeters>30351.443708812</DistanceMeters>
          </Trackpoint>
          <Trackpoint>
            <Time>2021-03-13T09:18:33.000Z</Time>
            <Position>
              <LatitudeDegrees>36.73116995953023433685302734375</LatitudeDegrees>
              <LongitudeDegrees>-4.11919905804097652435302734375</LongitudeDegrees>
            </Position>
            <AltitudeMeters>-3.400000095367431640625</AltitudeMeters>
            <DistanceMeters>30418.711615767</DistanceMeters>
          </Trackpoint>
          <Trackpoint>
            <Time>2021-03-13T09:18:40.000Z</Time>
            <Position>
              <LatitudeDegrees>36.73141152597963809967041015625</LatitudeDegrees>
              <LongitudeDegrees>-4.1185089759528636932373046875</LongitudeDegrees>
            </Position>
            <AltitudeMeters>-3.2000000476837158203125</AltitudeMeters>
            <DistanceMeters>30485.884547652</DistanceMeters>
          </Trackpoint>
          <Trackpoint>
            <Time>2021-03-13T09:18:41.000Z</Time>
            <Position>
              <LatitudeDegrees>36.73144689761102199554443359375</LatitudeDegrees>
              <LongitudeDegrees>-4.11840747110545635223388671875</LongitudeDegrees>
            </Position>
            <AltitudeMeters>-3.2000000476837158203125</AltitudeMeters>
            <DistanceMeters>30495.757269928</DistanceMeters>
          </Trackpoint>
          <Trackpoint>
            <Time>2021-03-13T09:18:48.000Z</Time>
            <Position>
              <LatitudeDegrees>36.7316976003348827362060546875</LatitudeDegrees>
              <LongitudeDegrees>-4.1176972724497318267822265625</LongitudeDegrees>
            </Position>
            <AltitudeMeters>-3.2000000476837158203125</AltitudeMeters>
            <DistanceMeters>30564.981801829</DistanceMeters>
          </Trackpoint>
          <Trackpoint>
            <Time>2021-03-13T09:18:50.000Z</Time>
            <Position>
              <LatitudeDegrees>36.731773875653743743896484375</LatitudeDegrees>
              <LongitudeDegrees>-4.1174840368330478668212890625</LongitudeDegrees>
            </Position>
            <AltitudeMeters>-3.2000000476837158203125</AltitudeMeters>
            <DistanceMeters>30585.811302133</DistanceMeters>
          </Trackpoint>
          <Trackpoint>
            <Time>2021-03-13T09:18:57.000Z</Time>
            <Position>
              <LatitudeDegrees>36.73203228972852230072021484375</LatitudeDegrees>
              <LongitudeDegrees>-4.11676637828350067138671875</LongitudeDegrees>
            </Position>
            <AltitudeMeters>-3.2000000476837158203125</AltitudeMeters>
            <DistanceMeters>30655.992374765</DistanceMeters>
          </Trackpoint>
          <Trackpoint>
            <Time>2021-03-13T09:18:59.000Z</Time>
            <Position>
              <LatitudeDegrees>36.7321039550006389617919921875</LatitudeDegrees>
              <LongitudeDegrees>-4.1165591776371002197265625</LongitudeDegrees>
            </Position>
            <AltitudeMeters>-3</AltitudeMeters>
            <DistanceMeters>30676.122792309</DistanceMeters>
          </Trackpoint>
          <Trackpoint>
            <Time>2021-03-13T09:19:05.000Z</Time>
            <Position>
              <LatitudeDegrees>36.7323255725204944610595703125</LatitudeDegrees>
              <LongitudeDegrees>-4.11593497730791568756103515625</LongitudeDegrees>
            </Position>
            <AltitudeMeters>-3</AltitudeMeters>
            <DistanceMeters>30737.021720754</DistanceMeters>
          </Trackpoint>
          <Trackpoint>
            <Time>2021-03-13T09:19:07.000Z</Time>
            <Position>
              <LatitudeDegrees>36.732392124831676483154296875</LatitudeDegrees>
              <LongitudeDegrees>-4.1157328896224498748779296875</LongitudeDegrees>
            </Position>
            <AltitudeMeters>-3</AltitudeMeters>
            <DistanceMeters>30756.511002564</DistanceMeters>
          </Trackpoint>
          <Trackpoint>
            <Time>2021-03-13T09:19:13.000Z</Time>
            <Position>
              <LatitudeDegrees>36.73260108567774295806884765625</LatitudeDegrees>
              <LongitudeDegrees>-4.1151112876832485198974609375</LongitudeDegrees>
            </Position>
            <AltitudeMeters>-2.7999999523162841796875</AltitudeMeters>
            <DistanceMeters>30816.639038753</DistanceMeters>
          </Trackpoint>
          <Trackpoint>
            <Time>2021-03-13T09:19:16.000Z</Time>
            <Position>
              <LatitudeDegrees>36.73270761966705322265625</LatitudeDegrees>
              <LongitudeDegrees>-4.11480166018009185791015625</LongitudeDegrees>
            </Position>
            <AltitudeMeters>-3</AltitudeMeters>
            <DistanceMeters>30846.695734642</DistanceMeters>
          </Trackpoint>
          <Trackpoint>
            <Time>2021-03-13T09:19:23.000Z</Time>
            <Position>
              <LatitudeDegrees>36.7329344339668750762939453125</LatitudeDegrees>
              <LongitudeDegrees>-4.1140762902796268463134765625</LongitudeDegrees>
            </Position>
            <AltitudeMeters>-2.7999999523162841796875</AltitudeMeters>
            <DistanceMeters>30916.149927435</DistanceMeters>
          </Trackpoint>
          <Trackpoint>
            <Time>2021-03-13T09:19:25.000Z</Time>
            <Position>
              <LatitudeDegrees>36.73299553804099559783935546875</LatitudeDegrees>
              <LongitudeDegrees>-4.113871268928050994873046875</LongitudeDegrees>
            </Position>
            <AltitudeMeters>-2.599999904632568359375</AltitudeMeters>
            <DistanceMeters>30935.661668077</DistanceMeters>
          </Trackpoint>
          <Trackpoint>
            <Time>2021-03-13T09:19:32.000Z</Time>
            <Position>
              <LatitudeDegrees>36.73319754190742969512939453125</LatitudeDegrees>
              <LongitudeDegrees>-4.1131868027150630950927734375</LongitudeDegrees>
            </Position>
            <AltitudeMeters>-2</AltitudeMeters>
            <DistanceMeters>31000.724787709</DistanceMeters>
          </Trackpoint>
          <Trackpoint>
            <Time>2021-03-13T09:19:35.000Z</Time>
            <Position>
              <LatitudeDegrees>36.73328789882361888885498046875</LatitudeDegrees>
              <LongitudeDegrees>-4.11289771087467670440673828125</LongitudeDegrees>
            </Position>
            <AltitudeMeters>-1.60000002384185791015625</AltitudeMeters>
            <DistanceMeters>31028.403673445</DistanceMeters>
          </Trackpoint>
          <Trackpoint>
            <Time>2021-03-13T09:19:36.000Z</Time>
            <Position>
              <LatitudeDegrees>36.733316145837306976318359375</LatitudeDegrees>
              <LongitudeDegrees>-4.1128027439117431640625</LongitudeDegrees>
            </Position>
            <AltitudeMeters>-1.60000002384185791015625</AltitudeMeters>
            <DistanceMeters>31037.4397097</DistanceMeters>
          </Trackpoint>
          <Trackpoint>
            <Time>2021-03-13T09:19:41.000Z</Time>
            <Position>
              <LatitudeDegrees>36.7334521003067493438720703125</LatitudeDegrees>
              <LongitudeDegrees>-4.11233293823897838592529296875</LongitudeDegrees>
            </Position>
            <AltitudeMeters>-0.4000000059604644775390625</AltitudeMeters>
            <DistanceMeters>31081.994776138</DistanceMeters>
          </Trackpoint>
          <Trackpoint>
            <Time>2021-03-13T09:19:42.000Z</Time>
            <Position>
              <LatitudeDegrees>36.73348537646234035491943359375</LatitudeDegrees>
              <LongitudeDegrees>-4.1122369654476642608642578125</LongitudeDegrees>
            </Position>
            <AltitudeMeters>-0.4000000059604644775390625</AltitudeMeters>
            <DistanceMeters>31091.321927711</DistanceMeters>
          </Trackpoint>
          <Trackpoint>
            <Time>2021-03-13T09:19:49.000Z</Time>
            <Position>
              <LatitudeDegrees>36.7337219975888729095458984375</LatitudeDegrees>
              <LongitudeDegrees>-4.11156951449811458587646484375</LongitudeDegrees>
            </Position>
            <AltitudeMeters>0</AltitudeMeters>
            <DistanceMeters>31156.423619384</DistanceMeters>
          </Trackpoint>
          <Trackpoint>
            <Time>2021-03-13T09:19:52.000Z</Time>
            <Position>
              <LatitudeDegrees>36.73383079469203948974609375</LatitudeDegrees>
              <LongitudeDegrees>-4.11127547733485698699951171875</LongitudeDegrees>
            </Position>
            <AltitudeMeters>0.20000000298023223876953125</AltitudeMeters>
            <DistanceMeters>31185.31220943</DistanceMeters>
          </Trackpoint>
          <Trackpoint>
            <Time>2021-03-13T09:19:56.000Z</Time>
            <Position>
              <LatitudeDegrees>36.73397831618785858154296875</LatitudeDegrees>
              <LongitudeDegrees>-4.110896699130535125732421875</LongitudeDegrees>
            </Position>
            <AltitudeMeters>0.60000002384185791015625</AltitudeMeters>
            <DistanceMeters>31222.877580933</DistanceMeters>
          </Trackpoint>
          <Trackpoint>
            <Time>2021-03-13T09:20:00.000Z</Time>
            <Position>
              <LatitudeDegrees>36.73412256874144077301025390625</LatitudeDegrees>
              <LongitudeDegrees>-4.1105126403272151947021484375</LongitudeDegrees>
            </Position>
            <AltitudeMeters>0.800000011920928955078125</AltitudeMeters>
            <DistanceMeters>31260.711223467</DistanceMeters>
          </Trackpoint>
          <Trackpoint>
            <Time>2021-03-13T09:20:05.000Z</Time>
            <Position>
              <LatitudeDegrees>36.7343003489077091217041015625</LatitudeDegrees>
              <LongitudeDegrees>-4.10998667590320110321044921875</LongitudeDegrees>
            </Position>
            <AltitudeMeters>1</AltitudeMeters>
            <DistanceMeters>31311.629051856</DistanceMeters>
          </Trackpoint>
          <Trackpoint>
            <Time>2021-03-13T09:20:11.000Z</Time>
            <Position>
              <LatitudeDegrees>36.734534539282321929931640625</LatitudeDegrees>
              <LongitudeDegrees>-4.10933573730289936065673828125</LongitudeDegrees>
            </Position>
            <AltitudeMeters>0.800000011920928955078125</AltitudeMeters>
            <DistanceMeters>31375.274679134</DistanceMeters>
          </Trackpoint>
          <Trackpoint>
            <Time>2021-03-13T09:20:12.000Z</Time>
            <Position>
              <LatitudeDegrees>36.73456513322889804840087890625</LatitudeDegrees>
              <LongitudeDegrees>-4.1092483140528202056884765625</LongitudeDegrees>
            </Position>
            <AltitudeMeters>0.800000011920928955078125</AltitudeMeters>
            <DistanceMeters>31383.783683361</DistanceMeters>
          </Trackpoint>
          <Trackpoint>
            <Time>2021-03-13T09:20:13.000Z</Time>
            <Position>
              <LatitudeDegrees>36.73460637219250202178955078125</LatitudeDegrees>
              <LongitudeDegrees>-4.1091383434832096099853515625</LongitudeDegrees>
            </Position>
            <AltitudeMeters>0.60000002384185791015625</AltitudeMeters>
            <DistanceMeters>31394.614227808</DistanceMeters>
          </Trackpoint>
          <Trackpoint>
            <Time>2021-03-13T09:20:18.000Z</Time>
            <Position>
              <LatitudeDegrees>36.73483368940651416778564453125</LatitudeDegrees>
              <LongitudeDegrees>-4.108556807041168212890625</LongitudeDegrees>
            </Position>
            <AltitudeMeters>0</AltitudeMeters>
            <DistanceMeters>31452.327918709</DistanceMeters>
          </Trackpoint>
          <Trackpoint>
            <Time>2021-03-13T09:20:20.000Z</Time>
            <Position>
              <LatitudeDegrees>36.7349303327500820159912109375</LatitudeDegrees>
              <LongitudeDegrees>-4.10833544097840785980224609375</LongitudeDegrees>
            </Position>
            <AltitudeMeters>-0.4000000059604644775390625</AltitudeMeters>
            <DistanceMeters>31474.813335763</DistanceMeters>
          </Trackpoint>
          <Trackpoint>
            <Time>2021-03-13T09:20:26.000Z</Time>
            <Position>
              <LatitudeDegrees>36.73522311262786388397216796875</LatitudeDegrees>
              <LongitudeDegrees>-4.10766899585723876953125</LongitudeDegrees>
            </Position>
            <AltitudeMeters>-1</AltitudeMeters>
            <DistanceMeters>31542.605023491</DistanceMeters>
          </Trackpoint>
          <Trackpoint>
            <Time>2021-03-13T09:20:30.000Z</Time>
            <Position>
              <LatitudeDegrees>36.735401563346385955810546875</LatitudeDegrees>
              <LongitudeDegrees>-4.1072559356689453125</LongitudeDegrees>
            </Position>
            <AltitudeMeters>-1</AltitudeMeters>
            <DistanceMeters>31584.461675427</DistanceMeters>
          </Trackpoint>
          <Trackpoint>
            <Time>2021-03-13T09:20:34.000Z</Time>
            <Position>
              <LatitudeDegrees>36.7355723865330219268798828125</LatitudeDegrees>
              <LongitudeDegrees>-4.106823094189167022705078125</LongitudeDegrees>
            </Position>
            <AltitudeMeters>-1</AltitudeMeters>
            <DistanceMeters>31627.497972423</DistanceMeters>
          </Trackpoint>
          <Trackpoint>
            <Time>2021-03-13T09:20:37.000Z</Time>
            <Position>
              <LatitudeDegrees>36.73569627106189727783203125</LatitudeDegrees>
              <LongitudeDegrees>-4.1064977087080478668212890625</LongitudeDegrees>
            </Position>
            <AltitudeMeters>-1</AltitudeMeters>
            <DistanceMeters>31659.630493965</DistanceMeters>
          </Trackpoint>
          <Trackpoint>
            <Time>2021-03-13T09:20:43.000Z</Time>
            <Position>
              <LatitudeDegrees>36.73592182807624340057373046875</LatitudeDegrees>
              <LongitudeDegrees>-4.10587602294981479644775390625</LongitudeDegrees>
            </Position>
            <AltitudeMeters>-1.39999997615814208984375</AltitudeMeters>
            <DistanceMeters>31720.501613612</DistanceMeters>
          </Trackpoint>
          <Trackpoint>
            <Time>2021-03-13T09:20:44.000Z</Time>
            <Position>
              <LatitudeDegrees>36.73594462685286998748779296875</LatitudeDegrees>
              <LongitudeDegrees>-4.10577912814915180206298828125</LongitudeDegrees>
            </Position>
            <AltitudeMeters>-1.39999997615814208984375</AltitudeMeters>
            <DistanceMeters>31729.509624876</DistanceMeters>
          </Trackpoint>
          <Trackpoint>
            <Time>2021-03-13T09:20:46.000Z</Time>
            <Position>
              <LatitudeDegrees>36.7359472252428531646728515625</LatitudeDegrees>
              <LongitudeDegrees>-4.10557310096919536590576171875</LongitudeDegrees>
            </Position>
            <AltitudeMeters>-1.39999997615814208984375</AltitudeMeters>
            <DistanceMeters>31747.888882195</DistanceMeters>
          </Trackpoint>
          <Trackpoint>
            <Time>2021-03-13T09:20:47.000Z</Time>
            <Position>
              <LatitudeDegrees>36.7359517514705657958984375</LatitudeDegrees>
              <LongitudeDegrees>-4.1054667346179485321044921875</LongitudeDegrees>
            </Position>
            <AltitudeMeters>-1.60000002384185791015625</AltitudeMeters>
            <DistanceMeters>31757.389652908</DistanceMeters>
          </Trackpoint>
          <Trackpoint>
            <Time>2021-03-13T09:20:49.000Z</Time>
            <Position>
              <LatitudeDegrees>36.73602224327623844146728515625</LatitudeDegrees>
              <LongitudeDegrees>-4.10527001135051250457763671875</LongitudeDegrees>
            </Position>
            <AltitudeMeters>-1.7999999523162841796875</AltitudeMeters>
            <DistanceMeters>31776.610905407</DistanceMeters>
          </Trackpoint>
          <Trackpoint>
            <Time>2021-03-13T09:20:52.000Z</Time>
            <Position>
              <LatitudeDegrees>36.736210919916629791259765625</LatitudeDegrees>
              <LongitudeDegrees>-4.1050390899181365966796875</LongitudeDegrees>
            </Position>
            <AltitudeMeters>-1.7999999523162841796875</AltitudeMeters>
            <DistanceMeters>31806.026240266</DistanceMeters>
          </Trackpoint>
          <Trackpoint>
            <Time>2021-03-13T09:20:53.000Z</Time>
            <Position>
              <LatitudeDegrees>36.73625727184116840362548828125</LatitudeDegrees>
              <LongitudeDegrees>-4.10494915209710597991943359375</LongitudeDegrees>
            </Position>
            <AltitudeMeters>-2</AltitudeMeters>
            <DistanceMeters>31815.564006781</DistanceMeters>
          </Trackpoint>
          <Trackpoint>
            <Time>2021-03-13T09:20:57.000Z</Time>
            <Position>
              <LatitudeDegrees>36.736413426697254180908203125</LatitudeDegrees>
              <LongitudeDegrees>-4.1045443899929523468017578125</LongitudeDegrees>
            </Position>
            <AltitudeMeters>-2.599999904632568359375</AltitudeMeters>
            <DistanceMeters>31855.63306631</DistanceMeters>
          </Trackpoint>
          <Trackpoint>
            <Time>2021-03-13T09:20:59.000Z</Time>
            <Position>
              <LatitudeDegrees>36.73648928292095661163330078125</LatitudeDegrees>
              <LongitudeDegrees>-4.1043224371969699859619140625</LongitudeDegrees>
            </Position>
            <AltitudeMeters>-2.599999904632568359375</AltitudeMeters>
            <DistanceMeters>31877.155725566</DistanceMeters>
          </Trackpoint>
          <Trackpoint>
            <Time>2021-03-13T09:21:03.000Z</Time>
            <Position>
              <LatitudeDegrees>36.7366593517363071441650390625</LatitudeDegrees>
              <LongitudeDegrees>-4.103867970407009124755859375</LongitudeDegrees>
            </Position>
            <AltitudeMeters>-3</AltitudeMeters>
            <DistanceMeters>31921.894439943</DistanceMeters>
          </Trackpoint>
          <Trackpoint>
            <Time>2021-03-13T09:21:05.000Z</Time>
            <Position>
              <LatitudeDegrees>36.73673830926418304443359375</LatitudeDegrees>
              <LongitudeDegrees>-4.10364098846912384033203125</LongitudeDegrees>
            </Position>
            <AltitudeMeters>-3</AltitudeMeters>
            <DistanceMeters>31943.965404438</DistanceMeters>
          </Trackpoint>
          <Trackpoint>
            <Time>2021-03-13T09:21:10.000Z</Time>
            <Position>
              <LatitudeDegrees>36.73692396841943264007568359375</LatitudeDegrees>
              <LongitudeDegrees>-4.10310077480971813201904296875</LongitudeDegrees>
            </Position>
            <AltitudeMeters>-3.2000000476837158203125</AltitudeMeters>
            <DistanceMeters>31996.394494169</DistanceMeters>
          </Trackpoint>
          <Trackpoint>
            <Time>2021-03-13T09:21:11.000Z</Time>
            <Position>
              <LatitudeDegrees>36.7369346134364604949951171875</LatitudeDegrees>
              <LongitudeDegrees>-4.1029880382120609283447265625</LongitudeDegrees>
            </Position>
            <AltitudeMeters>-3.2000000476837158203125</AltitudeMeters>
            <DistanceMeters>32006.520079977</DistanceMeters>
          </Trackpoint>
          <Trackpoint>
            <Time>2021-03-13T09:21:13.000Z</Time>
            <Position>
              <LatitudeDegrees>36.73695866949856281280517578125</LatitudeDegrees>
              <LongitudeDegrees>-4.1027592122554779052734375</LongitudeDegrees>
            </Position>
            <AltitudeMeters>-3.2000000476837158203125</AltitudeMeters>
            <DistanceMeters>32027.105375634</DistanceMeters>
          </Trackpoint>
          <Trackpoint>
            <Time>2021-03-13T09:21:14.000Z</Time>
            <Position>
              <LatitudeDegrees>36.73700326122343540191650390625</LatitudeDegrees>
              <LongitudeDegrees>-4.10265401937067508697509765625</LongitudeDegrees>
            </Position>
            <AltitudeMeters>-3.2000000476837158203125</AltitudeMeters>
            <DistanceMeters>32037.720331774</DistanceMeters>
          </Trackpoint>
          <Trackpoint>
            <Time>2021-03-13T09:21:15.000Z</Time>
            <Position>
              <LatitudeDegrees>36.7370673827826976776123046875</LatitudeDegrees>
              <LongitudeDegrees>-4.1025679372251033782958984375</LongitudeDegrees>
            </Position>
            <AltitudeMeters>-3.400000095367431640625</AltitudeMeters>
            <DistanceMeters>32048.203462524</DistanceMeters>
          </Trackpoint>
          <Trackpoint>
            <Time>2021-03-13T09:21:17.000Z</Time>
            <Position>
              <LatitudeDegrees>36.73722001723945140838623046875</LatitudeDegrees>
              <LongitudeDegrees>-4.102428294718265533447265625</LongitudeDegrees>
            </Position>
            <AltitudeMeters>-3.400000095367431640625</AltitudeMeters>
            <DistanceMeters>32069.268979765</DistanceMeters>
          </Trackpoint>
          <Trackpoint>
            <Time>2021-03-13T09:21:19.000Z</Time>
            <Position>
              <LatitudeDegrees>36.7373465001583099365234375</LatitudeDegrees>
              <LongitudeDegrees>-4.10224623978137969970703125</LongitudeDegrees>
            </Position>
            <AltitudeMeters>-3.400000095367431640625</AltitudeMeters>
            <DistanceMeters>32090.760358968</DistanceMeters>
          </Trackpoint>
          <Trackpoint>
            <Time>2021-03-13T09:21:20.000Z</Time>
            <Position>
              <LatitudeDegrees>36.7374006472527980804443359375</LatitudeDegrees>
              <LongitudeDegrees>-4.102143310010433197021484375</LongitudeDegrees>
            </Position>
            <AltitudeMeters>-3.400000095367431640625</AltitudeMeters>
            <DistanceMeters>32101.74242166</DistanceMeters>
          </Trackpoint>
          <Trackpoint>
            <Time>2021-03-13T09:21:26.000Z</Time>
            <Position>
              <LatitudeDegrees>36.73771253786981105804443359375</LatitudeDegrees>
              <LongitudeDegrees>-4.1014920361340045928955078125</LongitudeDegrees>
            </Position>
            <AltitudeMeters>-3</AltitudeMeters>
            <DistanceMeters>32169.415187738</DistanceMeters>
          </Trackpoint>
          <Trackpoint>
            <Time>2021-03-13T09:21:28.000Z</Time>
            <Position>
              <LatitudeDegrees>36.737814880907535552978515625</LatitudeDegrees>
              <LongitudeDegrees>-4.1012747772037982940673828125</LongitudeDegrees>
            </Position>
            <AltitudeMeters>-2.7999999523162841796875</AltitudeMeters>
            <DistanceMeters>32191.893776606</DistanceMeters>
          </Trackpoint>
          <Trackpoint>
            <Time>2021-03-13T09:21:34.000Z</Time>
            <Position>
              <LatitudeDegrees>36.73813582397997379302978515625</LatitudeDegrees>
              <LongitudeDegrees>-4.1006541810929775238037109375</LongitudeDegrees>
            </Position>
            <AltitudeMeters>-3.2000000476837158203125</AltitudeMeters>
            <DistanceMeters>32257.773269478</DistanceMeters>
          </Trackpoint>
          <Trackpoint>
            <Time>2021-03-13T09:21:37.000Z</Time>
            <Position>
              <LatitudeDegrees>36.7382924817502498626708984375</LatitudeDegrees>
              <LongitudeDegrees>-4.10036274231970310211181640625</LongitudeDegrees>
            </Position>
            <AltitudeMeters>-3.400000095367431640625</AltitudeMeters>
            <DistanceMeters>32289.074296045</DistanceMeters>
          </Trackpoint>
          <Trackpoint>
            <Time>2021-03-13T09:21:42.000Z</Time>
            <Position>
              <LatitudeDegrees>36.73852625302970409393310546875</LatitudeDegrees>
              <LongitudeDegrees>-4.09990944899618625640869140625</LongitudeDegrees>
            </Position>
            <AltitudeMeters>-3.400000095367431640625</AltitudeMeters>
            <DistanceMeters>32337.154433</DistanceMeters>
          </Trackpoint>
          <Trackpoint>
            <Time>2021-03-13T09:21:45.000Z</Time>
            <Position>
              <LatitudeDegrees>36.7385910451412200927734375</LatitudeDegrees>
              <LongitudeDegrees>-4.0996102988719940185546875</LongitudeDegrees>
            </Position>
            <AltitudeMeters>-3.400000095367431640625</AltitudeMeters>
            <DistanceMeters>32364.794305057</DistanceMeters>
          </Trackpoint>
          <Trackpoint>
            <Time>2021-03-13T09:21:46.000Z</Time>
            <Position>
              <LatitudeDegrees>36.73863538540899753570556640625</LatitudeDegrees>
              <LongitudeDegrees>-4.09951977431774139404296875</LongitudeDegrees>
            </Position>
            <AltitudeMeters>-3.599999904632568359375</AltitudeMeters>
            <DistanceMeters>32374.257458236</DistanceMeters>
          </Trackpoint>
          <Trackpoint>
            <Time>2021-03-13T09:21:47.000Z</Time>
            <Position>
              <LatitudeDegrees>36.73870126716792583465576171875</LatitudeDegrees>
              <LongitudeDegrees>-4.09944861195981502532958984375</LongitudeDegrees>
            </Position>
            <AltitudeMeters>-3.599999904632568359375</AltitudeMeters>
            <DistanceMeters>32383.955305738</DistanceMeters>
          </Trackpoint>
          <Trackpoint>
            <Time>2021-03-13T09:21:49.000Z</Time>
            <Position>
              <LatitudeDegrees>36.7388326115906238555908203125</LatitudeDegrees>
              <LongitudeDegrees>-4.0993187762796878814697265625</LongitudeDegrees>
            </Position>
            <AltitudeMeters>-3.599999904632568359375</AltitudeMeters>
            <DistanceMeters>32402.605251702</DistanceMeters>
          </Trackpoint>
          <Trackpoint>
            <Time>2021-03-13T09:21:51.000Z</Time>
            <Position>
              <LatitudeDegrees>36.7389432527124881744384765625</LatitudeDegrees>
              <LongitudeDegrees>-4.09913621842861175537109375</LongitudeDegrees>
            </Position>
            <AltitudeMeters>-4</AltitudeMeters>
            <DistanceMeters>32423.020741124</DistanceMeters>
          </Trackpoint>
          <Trackpoint>
            <Time>2021-03-13T09:21:57.000Z</Time>
            <Position>
              <LatitudeDegrees>36.7392429895699024200439453125</LatitudeDegrees>
              <LongitudeDegrees>-4.0985851921141147613525390625</LongitudeDegrees>
            </Position>
            <AltitudeMeters>-4.19999980926513671875</AltitudeMeters>
            <DistanceMeters>32482.421939517</DistanceMeters>
          </Trackpoint>
          <Trackpoint>
            <Time>2021-03-13T09:21:58.000Z</Time>
            <Position>
              <LatitudeDegrees>36.7393013276159763336181640625</LatitudeDegrees>
              <LongitudeDegrees>-4.0984701924026012420654296875</LongitudeDegrees>
            </Position>
            <AltitudeMeters>-4.19999980926513671875</AltitudeMeters>
            <DistanceMeters>32494.561579032</DistanceMeters>
          </Trackpoint>
          <Trackpoint>
            <Time>2021-03-13T09:22:05.000Z</Time>
            <Position>
              <LatitudeDegrees>36.73963216133415699005126953125</LatitudeDegrees>
              <LongitudeDegrees>-4.0978365205228328704833984375</LongitudeDegrees>
            </Position>
            <AltitudeMeters>-4.400000095367431640625</AltitudeMeters>
            <DistanceMeters>32562.017696329</DistanceMeters>
          </Trackpoint>
          <Trackpoint>
            <Time>2021-03-13T09:22:07.000Z</Time>
            <Position>
              <LatitudeDegrees>36.73966049216687679290771484375</LatitudeDegrees>
              <LongitudeDegrees>-4.09773937426507472991943359375</LongitudeDegrees>
            </Position>
            <AltitudeMeters>-4.400000095367431640625</AltitudeMeters>
            <DistanceMeters>32571.238715785</DistanceMeters>
          </Trackpoint>
          <Trackpoint>
            <Time>2021-03-13T09:22:09.000Z</Time>
            <Position>
              <LatitudeDegrees>36.73968379385769367218017578125</LatitudeDegrees>
              <LongitudeDegrees>-4.09762957133352756500244140625</LongitudeDegrees>
            </Position>
            <AltitudeMeters>-4.400000095367431640625</AltitudeMeters>
            <DistanceMeters>32581.370096685</DistanceMeters>
          </Trackpoint>
          <Trackpoint>
            <Time>2021-03-13T09:22:11.000Z</Time>
            <Position>
              <LatitudeDegrees>36.739752776920795440673828125</LatitudeDegrees>
              <LongitudeDegrees>-4.0975139848887920379638671875</LongitudeDegrees>
            </Position>
            <AltitudeMeters>-4.599999904632568359375</AltitudeMeters>
            <DistanceMeters>32594.224721099</DistanceMeters>
          </Trackpoint>
          <Trackpoint>
            <Time>2021-03-13T09:22:14.000Z</Time>
            <Position>
              <LatitudeDegrees>36.7399031482636928558349609375</LatitudeDegrees>
              <LongitudeDegrees>-4.09735397435724735260009765625</LongitudeDegrees>
            </Position>
            <AltitudeMeters>-4.599999904632568359375</AltitudeMeters>
            <DistanceMeters>32616.220275324</DistanceMeters>
          </Trackpoint>
          <Trackpoint>
            <Time>2021-03-13T09:22:15.000Z</Time>
            <Position>
              <LatitudeDegrees>36.73994480632245540618896484375</LatitudeDegrees>
              <LongitudeDegrees>-4.09728121943771839141845703125</LongitudeDegrees>
            </Position>
            <AltitudeMeters>-4.599999904632568359375</AltitudeMeters>
            <DistanceMeters>32624.19572882</DistanceMeters>
          </Trackpoint>
          <Trackpoint>
            <Time>2021-03-13T09:22:16.000Z</Time>
            <Position>
              <LatitudeDegrees>36.7399805970489978790283203125</LatitudeDegrees>
              <LongitudeDegrees>-4.09720913507044315338134765625</LongitudeDegrees>
            </Position>
            <AltitudeMeters>-4.599999904632568359375</AltitudeMeters>
            <DistanceMeters>32631.758565867</DistanceMeters>
          </Trackpoint>
          <Trackpoint>
            <Time>2021-03-13T09:22:18.000Z</Time>
            <Position>
              <LatitudeDegrees>36.74005310051143169403076171875</LatitudeDegrees>
              <LongitudeDegrees>-4.097049124538898468017578125</LongitudeDegrees>
            </Position>
            <AltitudeMeters>-4.80000019073486328125</AltitudeMeters>
            <DistanceMeters>32648.153910193</DistanceMeters>
          </Trackpoint>
          <Trackpoint>
            <Time>2021-03-13T09:22:19.000Z</Time>
            <Position>
              <LatitudeDegrees>36.7400986142456531524658203125</LatitudeDegrees>
              <LongitudeDegrees>-4.096976034343242645263671875</LongitudeDegrees>
            </Position>
            <AltitudeMeters>-4.80000019073486328125</AltitudeMeters>
            <DistanceMeters>32656.409757636</DistanceMeters>
          </Trackpoint>
          <Trackpoint>
            <Time>2021-03-13T09:22:26.000Z</Time>
            <Position>
              <LatitudeDegrees>36.7404338903725147247314453125</LatitudeDegrees>
              <LongitudeDegrees>-4.09634395502507686614990234375</LongitudeDegrees>
            </Position>
            <AltitudeMeters>-5.19999980926513671875</AltitudeMeters>
            <DistanceMeters>32724.018109523</DistanceMeters>
          </Trackpoint>
          <Trackpoint>
            <Time>2021-03-13T09:22:31.000Z</Time>
            <Position>
              <LatitudeDegrees>36.74065575934946537017822265625</LatitudeDegrees>
              <LongitudeDegrees>-4.09594799391925334930419921875</LongitudeDegrees>
            </Position>
            <AltitudeMeters>-5.19999980926513671875</AltitudeMeters>
            <DistanceMeters>32767.11206967</DistanceMeters>
          </Trackpoint>
          <Trackpoint>
            <Time>2021-03-13T09:22:36.000Z</Time>
            <Position>
              <LatitudeDegrees>36.74087335355579853057861328125</LatitudeDegrees>
              <LongitudeDegrees>-4.09556142054498195648193359375</LongitudeDegrees>
            </Position>
            <AltitudeMeters>-5.400000095367431640625</AltitudeMeters>
            <DistanceMeters>32809.247176284</DistanceMeters>
          </Trackpoint>
          <Trackpoint>
            <Time>2021-03-13T09:22:37.000Z</Time>
            <Position>
              <LatitudeDegrees>36.74090771935880184173583984375</LatitudeDegrees>
              <LongitudeDegrees>-4.09549511969089508056640625</LongitudeDegrees>
            </Position>
            <AltitudeMeters>-5.19999980926513671875</AltitudeMeters>
            <DistanceMeters>32816.290059919</DistanceMeters>
          </Trackpoint>
          <Trackpoint>
            <Time>2021-03-13T09:22:39.000Z</Time>
            <Position>
              <LatitudeDegrees>36.74095340073108673095703125</LatitudeDegrees>
              <LongitudeDegrees>-4.09540484659373760223388671875</LongitudeDegrees>
            </Position>
            <AltitudeMeters>-5.19999980926513671875</AltitudeMeters>
            <DistanceMeters>32825.812666057</DistanceMeters>
          </Trackpoint>
          <Trackpoint>
            <Time>2021-03-13T09:22:42.000Z</Time>
            <Position>
              <LatitudeDegrees>36.74102154560387134552001953125</LatitudeDegrees>
              <LongitudeDegrees>-4.09527459181845188140869140625</LongitudeDegrees>
            </Position>
            <AltitudeMeters>-5</AltitudeMeters>
            <DistanceMeters>32839.687217208</DistanceMeters>
          </Trackpoint>
          <Trackpoint>
            <Time>2021-03-13T09:22:43.000Z</Time>
            <Position>
              <LatitudeDegrees>36.7410290054976940155029296875</LatitudeDegrees>
              <LongitudeDegrees>-4.095267467200756072998046875</LongitudeDegrees>
            </Position>
            <AltitudeMeters>-5</AltitudeMeters>
            <DistanceMeters>32840.736821574</DistanceMeters>
          </Trackpoint>
          <Trackpoint>
            <Time>2021-03-13T09:22:45.000Z</Time>
            <Position>
              <LatitudeDegrees>36.74104635603725910186767578125</LatitudeDegrees>
              <LongitudeDegrees>-4.09523000009357929229736328125</LongitudeDegrees>
            </Position>
            <AltitudeMeters>-5</AltitudeMeters>
            <DistanceMeters>32844.596824959</DistanceMeters>
          </Trackpoint>
          <Trackpoint>
            <Time>2021-03-13T09:22:46.000Z</Time>
            <Position>
              <LatitudeDegrees>36.7410571686923503875732421875</LatitudeDegrees>
              <LongitudeDegrees>-4.09519043751060962677001953125</LongitudeDegrees>
            </Position>
            <AltitudeMeters>-5</AltitudeMeters>
            <DistanceMeters>32848.32352022</DistanceMeters>
          </Trackpoint>
          <Trackpoint>
            <Time>2021-03-13T09:22:47.000Z</Time>
            <Position>
              <LatitudeDegrees>36.74106596969068050384521484375</LatitudeDegrees>
              <LongitudeDegrees>-4.09516663290560245513916015625</LongitudeDegrees>
            </Position>
            <AltitudeMeters>-4.80000019073486328125</AltitudeMeters>
            <DistanceMeters>32850.658935852</DistanceMeters>
          </Trackpoint>
          <Trackpoint>
            <Time>2021-03-13T09:22:50.000Z</Time>
            <Position>
              <LatitudeDegrees>36.74112967215478420257568359375</LatitudeDegrees>
              <LongitudeDegrees>-4.09507803618907928466796875</LongitudeDegrees>
            </Position>
            <AltitudeMeters>-4.80000019073486328125</AltitudeMeters>
            <DistanceMeters>32861.275593244</DistanceMeters>
          </Trackpoint>
          <Trackpoint>
            <Time>2021-03-13T09:22:51.000Z</Time>
            <Position>
              <LatitudeDegrees>36.741168312728404998779296875</LatitudeDegrees>
              <LongitudeDegrees>-4.09503822214901447296142578125</LongitudeDegrees>
            </Position>
            <AltitudeMeters>-4.80000019073486328125</AltitudeMeters>
            <DistanceMeters>32866.853912294</DistanceMeters>
          </Trackpoint>
          <Trackpoint>
            <Time>2021-03-13T09:22:54.000Z</Time>
            <Position>
              <LatitudeDegrees>36.7413590848445892333984375</LatitudeDegrees>
              <LongitudeDegrees>-4.094767905771732330322265625</LongitudeDegrees>
            </Position>
            <AltitudeMeters>-4.80000019073486328125</AltitudeMeters>
            <DistanceMeters>32898.980812822</DistanceMeters>
          </Trackpoint>
          <Trackpoint>
            <Time>2021-03-13T09:22:58.000Z</Time>
            <Position>
              <LatitudeDegrees>36.7414521239697933197021484375</LatitudeDegrees>
              <LongitudeDegrees>-4.0946329571306705474853515625</LongitudeDegrees>
            </Position>
            <AltitudeMeters>-5</AltitudeMeters>
            <DistanceMeters>32914.858522801</DistanceMeters>
          </Trackpoint>
          <Trackpoint>
            <Time>2021-03-13T09:23:01.000Z</Time>
            <Position>
              <LatitudeDegrees>36.7414521239697933197021484375</LatitudeDegrees>
              <LongitudeDegrees>-4.0946329571306705474853515625</LongitudeDegrees>
            </Position>
            <AltitudeMeters>-4.80000019073486328125</AltitudeMeters>
            <DistanceMeters>32914.858522801</DistanceMeters>
          </Trackpoint>
          <Trackpoint>
            <Time>2021-03-13T09:23:08.000Z</Time>
            <Position>
              <LatitudeDegrees>36.74146427772939205169677734375</LatitudeDegrees>
              <LongitudeDegrees>-4.0945461206138134002685546875</LongitudeDegrees>
            </Position>
            <AltitudeMeters>-4.80000019073486328125</AltitudeMeters>
            <DistanceMeters>32922.721086208</DistanceMeters>
          </Trackpoint>
          <Trackpoint>
            <Time>2021-03-13T09:23:10.000Z</Time>
            <Position>
              <LatitudeDegrees>36.74146226607263088226318359375</LatitudeDegrees>
              <LongitudeDegrees>-4.09449172206223011016845703125</LongitudeDegrees>
            </Position>
            <AltitudeMeters>-4.80000019073486328125</AltitudeMeters>
            <DistanceMeters>32927.577685808</DistanceMeters>
          </Trackpoint>
          <Trackpoint>
            <Time>2021-03-13T09:23:12.000Z</Time>
            <Position>
              <LatitudeDegrees>36.7415178380906581878662109375</LatitudeDegrees>
              <LongitudeDegrees>-4.094394408166408538818359375</LongitudeDegrees>
            </Position>
            <AltitudeMeters>-4.80000019073486328125</AltitudeMeters>
            <DistanceMeters>32938.235939026</DistanceMeters>
          </Trackpoint>
          <Trackpoint>
            <Time>2021-03-13T09:23:13.000Z</Time>
            <Position>
              <LatitudeDegrees>36.74155999906361103057861328125</LatitudeDegrees>
              <LongitudeDegrees>-4.09433506429195404052734375</LongitudeDegrees>
            </Position>
            <AltitudeMeters>-4.80000019073486328125</AltitudeMeters>
            <DistanceMeters>32945.309527477</DistanceMeters>
          </Trackpoint>
          <Trackpoint>
            <Time>2021-03-13T09:23:18.000Z</Time>
            <Position>
              <LatitudeDegrees>36.741832830011844635009765625</LatitudeDegrees>
              <LongitudeDegrees>-4.09391555003821849822998046875</LongitudeDegrees>
            </Position>
            <AltitudeMeters>-5</AltitudeMeters>
            <DistanceMeters>32993.498098093</DistanceMeters>
          </Trackpoint>
          <Trackpoint>
            <Time>2021-03-13T09:23:20.000Z</Time>
            <Position>
              <LatitudeDegrees>36.74192008562386035919189453125</LatitudeDegrees>
              <LongitudeDegrees>-4.09377238713204860687255859375</LongitudeDegrees>
            </Position>
            <AltitudeMeters>-5</AltitudeMeters>
            <DistanceMeters>33009.540453863</DistanceMeters>
          </Trackpoint>
          <Trackpoint>
            <Time>2021-03-13T09:23:22.000Z</Time>
            <Position>
              <LatitudeDegrees>36.741995774209499359130859375</LatitudeDegrees>
              <LongitudeDegrees>-4.09360407851636409759521484375</LongitudeDegrees>
            </Position>
            <AltitudeMeters>-5.19999980926513671875</AltitudeMeters>
            <DistanceMeters>33026.754196293</DistanceMeters>
          </Trackpoint>
          <Trackpoint>
            <Time>2021-03-13T09:23:25.000Z</Time>
            <Position>
              <LatitudeDegrees>36.74208537675440311431884765625</LatitudeDegrees>
              <LongitudeDegrees>-4.0933875739574432373046875</LongitudeDegrees>
            </Position>
            <AltitudeMeters>-5.19999980926513671875</AltitudeMeters>
            <DistanceMeters>33048.487701271</DistanceMeters>
          </Trackpoint>
          <Trackpoint>
            <Time>2021-03-13T09:23:27.000Z</Time>
            <Position>
              <LatitudeDegrees>36.74216978251934051513671875</LatitudeDegrees>
              <LongitudeDegrees>-4.0932050161063671112060546875</LongitudeDegrees>
            </Position>
            <AltitudeMeters>-5.400000095367431640625</AltitudeMeters>
            <DistanceMeters>33067.285945377</DistanceMeters>
          </Trackpoint>
          <Trackpoint>
            <Time>2021-03-13T09:23:33.000Z</Time>
            <Position>
              <LatitudeDegrees>36.74241277389228343963623046875</LatitudeDegrees>
              <LongitudeDegrees>-4.09270889125764369964599609375</LongitudeDegrees>
            </Position>
            <AltitudeMeters>-5.599999904632568359375</AltitudeMeters>
            <DistanceMeters>33119.145985752</DistanceMeters>
          </Trackpoint>
          <Trackpoint>
            <Time>2021-03-13T09:23:35.000Z</Time>
            <Position>
              <LatitudeDegrees>36.742465496063232421875</LatitudeDegrees>
              <LongitudeDegrees>-4.09258626401424407958984375</LongitudeDegrees>
            </Position>
            <AltitudeMeters>-5.599999904632568359375</AltitudeMeters>
            <DistanceMeters>33131.55779884</DistanceMeters>
          </Trackpoint>
          <Trackpoint>
            <Time>2021-03-13T09:23:40.000Z</Time>
            <Position>
              <LatitudeDegrees>36.74264696426689624786376953125</LatitudeDegrees>
              <LongitudeDegrees>-4.0922079049050807952880859375</LongitudeDegrees>
            </Position>
            <AltitudeMeters>-5.599999904632568359375</AltitudeMeters>
            <DistanceMeters>33170.886232241</DistanceMeters>
          </Trackpoint>
          <Trackpoint>
            <Time>2021-03-13T09:23:43.000Z</Time>
            <Position>
              <LatitudeDegrees>36.7427633889019489288330078125</LatitudeDegrees>
              <LongitudeDegrees>-4.09199944697320461273193359375</LongitudeDegrees>
            </Position>
            <AltitudeMeters>-5.599999904632568359375</AltitudeMeters>
            <DistanceMeters>33193.548659246</DistanceMeters>
          </Trackpoint>
          <Trackpoint>
            <Time>2021-03-13T09:23:45.000Z</Time>
            <Position>
              <LatitudeDegrees>36.74282818101346492767333984375</LatitudeDegrees>
              <LongitudeDegrees>-4.09187438897788524627685546875</LongitudeDegrees>
            </Position>
            <AltitudeMeters>-5.599999904632568359375</AltitudeMeters>
            <DistanceMeters>33206.830661106</DistanceMeters>
          </Trackpoint>
          <Trackpoint>
            <Time>2021-03-13T09:23:47.000Z</Time>
            <Position>
              <LatitudeDegrees>36.74287595786154270172119140625</LatitudeDegrees>
              <LongitudeDegrees>-4.09178386442363262176513671875</LongitudeDegrees>
            </Position>
            <AltitudeMeters>-5.599999904632568359375</AltitudeMeters>
            <DistanceMeters>33216.498199117</DistanceMeters>
          </Trackpoint>
          <Trackpoint>
            <Time>2021-03-13T09:23:49.000Z</Time>
            <Position>
              <LatitudeDegrees>36.74289959482848644256591796875</LatitudeDegrees>
              <LongitudeDegrees>-4.0917304717004299163818359375</LongitudeDegrees>
            </Position>
            <AltitudeMeters>-5.80000019073486328125</AltitudeMeters>
            <DistanceMeters>33221.93801166</DistanceMeters>
          </Trackpoint>
          <Trackpoint>
            <Time>2021-03-13T09:23:50.000Z</Time>
            <Position>
              <LatitudeDegrees>36.742909066379070281982421875</LatitudeDegrees>
              <LongitudeDegrees>-4.09170323051512241363525390625</LongitudeDegrees>
            </Position>
            <AltitudeMeters>-5.80000019073486328125</AltitudeMeters>
            <DistanceMeters>33224.585149609</DistanceMeters>
          </Trackpoint>
          <Trackpoint>
            <Time>2021-03-13T09:23:52.000Z</Time>
            <Position>
              <LatitudeDegrees>36.74291568808257579803466796875</LatitudeDegrees>
              <LongitudeDegrees>-4.09167422913014888763427734375</LongitudeDegrees>
            </Position>
            <AltitudeMeters>-5.80000019073486328125</AltitudeMeters>
            <DistanceMeters>33227.276268578</DistanceMeters>
          </Trackpoint>
          <Trackpoint>
            <Time>2021-03-13T09:23:55.000Z</Time>
            <Position>
              <LatitudeDegrees>36.7429384030401706695556640625</LatitudeDegrees>
              <LongitudeDegrees>-4.09161220304667949676513671875</LongitudeDegrees>
            </Position>
            <AltitudeMeters>-5.599999904632568359375</AltitudeMeters>
            <DistanceMeters>33233.358720649</DistanceMeters>
          </Trackpoint>
          <Trackpoint>
            <Time>2021-03-13T09:24:00.000Z</Time>
            <Position>
              <LatitudeDegrees>36.74298257566988468170166015625</LatitudeDegrees>
              <LongitudeDegrees>-4.09152653999626636505126953125</LongitudeDegrees>
            </Position>
            <AltitudeMeters>-5.599999904632568359375</AltitudeMeters>
            <DistanceMeters>33242.444089589</DistanceMeters>
          </Trackpoint>
          <Trackpoint>
            <Time>2021-03-13T09:24:04.000Z</Time>
            <Position>
              <LatitudeDegrees>36.74305683933198451995849609375</LatitudeDegrees>
              <LongitudeDegrees>-4.09136963076889514923095703125</LongitudeDegrees>
            </Position>
            <AltitudeMeters>-5.599999904632568359375</AltitudeMeters>
            <DistanceMeters>33258.697269471</DistanceMeters>
          </Trackpoint>
          <Trackpoint>
            <Time>2021-03-13T09:24:08.000Z</Time>
            <Position>
              <LatitudeDegrees>36.7431905306875705718994140625</LatitudeDegrees>
              <LongitudeDegrees>-4.09109906293451786041259765625</LongitudeDegrees>
            </Position>
            <AltitudeMeters>-5.80000019073486328125</AltitudeMeters>
            <DistanceMeters>33287.048056132</DistanceMeters>
          </Trackpoint>
          <Trackpoint>
            <Time>2021-03-13T09:24:13.000Z</Time>
            <Position>
              <LatitudeDegrees>36.74341239966452121734619140625</LatitudeDegrees>
              <LongitudeDegrees>-4.09071542322635650634765625</LongitudeDegrees>
            </Position>
            <AltitudeMeters>-6</AltitudeMeters>
            <DistanceMeters>33329.24494658</DistanceMeters>
          </Trackpoint>
          <Trackpoint>
            <Time>2021-03-13T09:24:19.000Z</Time>
            <Position>
              <LatitudeDegrees>36.743673495948314666748046875</LatitudeDegrees>
              <LongitudeDegrees>-4.09024008549749851226806640625</LongitudeDegrees>
            </Position>
            <AltitudeMeters>-6.19999980926513671875</AltitudeMeters>
            <DistanceMeters>33380.643595437</DistanceMeters>
          </Trackpoint>
          <Trackpoint>
            <Time>2021-03-13T09:24:21.000Z</Time>
            <Position>
              <LatitudeDegrees>36.74376226030290126800537109375</LatitudeDegrees>
              <LongitudeDegrees>-4.09007462672889232635498046875</LongitudeDegrees>
            </Position>
            <AltitudeMeters>-6.19999980926513671875</AltitudeMeters>
            <DistanceMeters>33398.402662132</DistanceMeters>
          </Trackpoint>
          <Trackpoint>
            <Time>2021-03-13T09:24:27.000Z</Time>
            <Position>
              <LatitudeDegrees>36.74398991279304027557373046875</LatitudeDegrees>
              <LongitudeDegrees>-4.08962837420403957366943359375</LongitudeDegrees>
            </Position>
            <AltitudeMeters>-6.19999980926513671875</AltitudeMeters>
            <DistanceMeters>33445.584358849</DistanceMeters>
          </Trackpoint>
          <Trackpoint>
            <Time>2021-03-13T09:24:29.000Z</Time>
            <Position>
              <LatitudeDegrees>36.7440319061279296875</LatitudeDegrees>
              <LongitudeDegrees>-4.08950348384678363800048828125</LongitudeDegrees>
            </Position>
            <AltitudeMeters>-6.19999980926513671875</AltitudeMeters>
            <DistanceMeters>33457.663596208</DistanceMeters>
          </Trackpoint>
          <Trackpoint>
            <Time>2021-03-13T09:24:31.000Z</Time>
            <Position>
              <LatitudeDegrees>36.7440562136471271514892578125</LatitudeDegrees>
              <LongitudeDegrees>-4.08939485438168048858642578125</LongitudeDegrees>
            </Position>
            <AltitudeMeters>-6</AltitudeMeters>
            <DistanceMeters>33467.722074049</DistanceMeters>
          </Trackpoint>
          <Trackpoint>
            <Time>2021-03-13T09:24:33.000Z</Time>
            <Position>
              <LatitudeDegrees>36.74413022585213184356689453125</LatitudeDegrees>
              <LongitudeDegrees>-4.08925185911357402801513671875</LongitudeDegrees>
            </Position>
            <AltitudeMeters>-6</AltitudeMeters>
            <DistanceMeters>33482.904654903</DistanceMeters>
          </Trackpoint>
          <Trackpoint>
            <Time>2021-03-13T09:24:34.000Z</Time>
            <Position>
              <LatitudeDegrees>36.74417867325246334075927734375</LatitudeDegrees>
              <LongitudeDegrees>-4.0892095305025577545166015625</LongitudeDegrees>
            </Position>
            <AltitudeMeters>-6</AltitudeMeters>
            <DistanceMeters>33489.486927062</DistanceMeters>
          </Trackpoint>
          <Trackpoint>
            <Time>2021-03-13T09:24:35.000Z</Time>
            <Position>
              <LatitudeDegrees>36.7442164756357669830322265625</LatitudeDegrees>
              <LongitudeDegrees>-4.0891743265092372894287109375</LongitudeDegrees>
            </Position>
            <AltitudeMeters>-5.80000019073486328125</AltitudeMeters>
            <DistanceMeters>33494.736669276</DistanceMeters>
          </Trackpoint>
          <Trackpoint>
            <Time>2021-03-13T09:24:37.000Z</Time>
            <Position>
              <LatitudeDegrees>36.7442912422120571136474609375</LatitudeDegrees>
              <LongitudeDegrees>-4.08905102871358394622802734375</LongitudeDegrees>
            </Position>
            <AltitudeMeters>-5.80000019073486328125</AltitudeMeters>
            <DistanceMeters>33508.527334234</DistanceMeters>
          </Trackpoint>
          <Trackpoint>
            <Time>2021-03-13T09:24:41.000Z</Time>
            <Position>
              <LatitudeDegrees>36.744438596069812774658203125</LatitudeDegrees>
              <LongitudeDegrees>-4.0887553989887237548828125</LongitudeDegrees>
            </Position>
            <AltitudeMeters>-6</AltitudeMeters>
            <DistanceMeters>33539.578685449</DistanceMeters>
          </Trackpoint>
          <Trackpoint>
            <Time>2021-03-13T09:24:46.000Z</Time>
            <Position>
              <LatitudeDegrees>36.7446583695709705352783203125</LatitudeDegrees>
              <LongitudeDegrees>-4.08835784532129764556884765625</LongitudeDegrees>
            </Position>
            <AltitudeMeters>-6.19999980926513671875</AltitudeMeters>
            <DistanceMeters>33582.654621052</DistanceMeters>
          </Trackpoint>
          <Trackpoint>
            <Time>2021-03-13T09:24:51.000Z</Time>
            <Position>
              <LatitudeDegrees>36.74487504176795482635498046875</LatitudeDegrees>
              <LongitudeDegrees>-4.08795132301747798919677734375</LongitudeDegrees>
            </Position>
            <AltitudeMeters>-5.599999904632568359375</AltitudeMeters>
            <DistanceMeters>33626.199051138</DistanceMeters>
          </Trackpoint>
          <Trackpoint>
            <Time>2021-03-13T09:24:52.000Z</Time>
            <Position>
              <LatitudeDegrees>36.74491561017930507659912109375</LatitudeDegrees>
              <LongitudeDegrees>-4.0878751315176486968994140625</LongitudeDegrees>
            </Position>
            <AltitudeMeters>-5.599999904632568359375</AltitudeMeters>
            <DistanceMeters>33634.358078258</DistanceMeters>
          </Trackpoint>
          <Trackpoint>
            <Time>2021-03-13T09:24:59.000Z</Time>
            <Position>
              <LatitudeDegrees>36.74523420631885528564453125</LatitudeDegrees>
              <LongitudeDegrees>-4.08730608411133289337158203125</LongitudeDegrees>
            </Position>
            <AltitudeMeters>-5.80000019073486328125</AltitudeMeters>
            <DistanceMeters>33696.270589833</DistanceMeters>
          </Trackpoint>
          <Trackpoint>
            <Time>2021-03-13T09:25:01.000Z</Time>
            <Position>
              <LatitudeDegrees>36.74532196484506130218505859375</LatitudeDegrees>
              <LongitudeDegrees>-4.08714766614139080047607421875</LongitudeDegrees>
            </Position>
            <AltitudeMeters>-5.80000019073486328125</AltitudeMeters>
            <DistanceMeters>33713.44678346</DistanceMeters>
          </Trackpoint>
          <Trackpoint>
            <Time>2021-03-13T09:25:08.000Z</Time>
            <Position>
              <LatitudeDegrees>36.74564282409846782684326171875</LatitudeDegrees>
              <LongitudeDegrees>-4.086548276245594024658203125</LongitudeDegrees>
            </Position>
            <AltitudeMeters>-5.80000019073486328125</AltitudeMeters>
            <DistanceMeters>33777.735709322</DistanceMeters>
          </Trackpoint>
          <Trackpoint>
            <Time>2021-03-13T09:25:09.000Z</Time>
            <Position>
              <LatitudeDegrees>36.7456779442727565765380859375</LatitudeDegrees>
              <LongitudeDegrees>-4.0864793770015239715576171875</LongitudeDegrees>
            </Position>
            <AltitudeMeters>-5.80000019073486328125</AltitudeMeters>
            <DistanceMeters>33785.018749142</DistanceMeters>
          </Trackpoint>
          <Trackpoint>
            <Time>2021-03-13T09:25:17.000Z</Time>
            <Position>
              <LatitudeDegrees>36.74603275023400783538818359375</LatitudeDegrees>
              <LongitudeDegrees>-4.085811339318752288818359375</LongitudeDegrees>
            </Position>
            <AltitudeMeters>-5.599999904632568359375</AltitudeMeters>
            <DistanceMeters>33856.497664301</DistanceMeters>
          </Trackpoint>
          <Trackpoint>
            <Time>2021-03-13T09:25:19.000Z</Time>
            <Position>
              <LatitudeDegrees>36.74611866474151611328125</LatitudeDegrees>
              <LongitudeDegrees>-4.08565350808203220367431640625</LongitudeDegrees>
            </Position>
            <AltitudeMeters>-5.599999904632568359375</AltitudeMeters>
            <DistanceMeters>33873.514611483</DistanceMeters>
          </Trackpoint>
          <Trackpoint>
            <Time>2021-03-13T09:25:25.000Z</Time>
            <Position>
              <LatitudeDegrees>36.74639518372714519500732421875</LatitudeDegrees>
              <LongitudeDegrees>-4.085193760693073272705078125</LongitudeDegrees>
            </Position>
            <AltitudeMeters>-5.80000019073486328125</AltitudeMeters>
            <DistanceMeters>33924.783087091</DistanceMeters>
          </Trackpoint>
          <Trackpoint>
            <Time>2021-03-13T09:25:32.000Z</Time>
            <Position>
              <LatitudeDegrees>36.7466924898326396942138671875</LatitudeDegrees>
              <LongitudeDegrees>-4.08462923951447010040283203125</LongitudeDegrees>
            </Position>
            <AltitudeMeters>-5.80000019073486328125</AltitudeMeters>
            <DistanceMeters>33985.031073184</DistanceMeters>
          </Trackpoint>
          <Trackpoint>
            <Time>2021-03-13T09:25:39.000Z</Time>
            <Position>
              <LatitudeDegrees>36.746980659663677215576171875</LatitudeDegrees>
              <LongitudeDegrees>-4.08407201059162616729736328125</LongitudeDegrees>
            </Position>
            <AltitudeMeters>-5.80000019073486328125</AltitudeMeters>
            <DistanceMeters>34044.178924677</DistanceMeters>
          </Trackpoint>
          <Trackpoint>
            <Time>2021-03-13T09:25:47.000Z</Time>
            <Position>
              <LatitudeDegrees>36.7472882755100727081298828125</LatitudeDegrees>
              <LongitudeDegrees>-4.08342526294291019439697265625</LongitudeDegrees>
            </Position>
            <AltitudeMeters>-6</AltitudeMeters>
            <DistanceMeters>34111.255131547</DistanceMeters>
          </Trackpoint>
          <Trackpoint>
            <Time>2021-03-13T09:25:48.000Z</Time>
            <Position>
              <LatitudeDegrees>36.74732155166566371917724609375</LatitudeDegrees>
              <LongitudeDegrees>-4.0833421982824802398681640625</LongitudeDegrees>
            </Position>
            <AltitudeMeters>-6</AltitudeMeters>
            <DistanceMeters>34119.538278341</DistanceMeters>
          </Trackpoint>
          <Trackpoint>
            <Time>2021-03-13T09:25:52.000Z</Time>
            <Position>
              <LatitudeDegrees>36.74743873067200183868408203125</LatitudeDegrees>
              <LongitudeDegrees>-4.08300080336630344390869140625</LongitudeDegrees>
            </Position>
            <AltitudeMeters>-6</AltitudeMeters>
            <DistanceMeters>34152.661188807</DistanceMeters>
          </Trackpoint>
          <Trackpoint>
            <Time>2021-03-13T09:25:56.000Z</Time>
            <Position>
              <LatitudeDegrees>36.74753629602491855621337890625</LatitudeDegrees>
              <LongitudeDegrees>-4.08264792524278163909912109375</LongitudeDegrees>
            </Position>
            <AltitudeMeters>-5.80000019073486328125</AltitudeMeters>
            <DistanceMeters>34185.953103482</DistanceMeters>
          </Trackpoint>
          <Trackpoint>
            <Time>2021-03-13T09:26:03.000Z</Time>
            <Position>
              <LatitudeDegrees>36.7476944625377655029296875</LatitudeDegrees>
              <LongitudeDegrees>-4.08199095167219638824462890625</LongitudeDegrees>
            </Position>
            <AltitudeMeters>-5.80000019073486328125</AltitudeMeters>
            <DistanceMeters>34247.132081532</DistanceMeters>
          </Trackpoint>
          <Trackpoint>
            <Time>2021-03-13T09:26:10.000Z</Time>
            <Position>
              <LatitudeDegrees>36.74784810282289981842041015625</LatitudeDegrees>
              <LongitudeDegrees>-4.08132291398942470550537109375</LongitudeDegrees>
            </Position>
            <AltitudeMeters>-6</AltitudeMeters>
            <DistanceMeters>34309.115728118</DistanceMeters>
          </Trackpoint>
          <Trackpoint>
            <Time>2021-03-13T09:26:12.000Z</Time>
            <Position>
              <LatitudeDegrees>36.74788959324359893798828125</LatitudeDegrees>
              <LongitudeDegrees>-4.0811320580542087554931640625</LongitudeDegrees>
            </Position>
            <AltitudeMeters>-6</AltitudeMeters>
            <DistanceMeters>34326.752082138</DistanceMeters>
          </Trackpoint>
          <Trackpoint>
            <Time>2021-03-13T09:26:19.000Z</Time>
            <Position>
              <LatitudeDegrees>36.74803334288299083709716796875</LatitudeDegrees>
              <LongitudeDegrees>-4.08048371784389019012451171875</LongitudeDegrees>
            </Position>
            <AltitudeMeters>-6.400000095367431640625</AltitudeMeters>
            <DistanceMeters>34386.746233268</DistanceMeters>
          </Trackpoint>
          <Trackpoint>
            <Time>2021-03-13T09:26:21.000Z</Time>
            <Position>
              <LatitudeDegrees>36.74807542003691196441650390625</LatitudeDegrees>
              <LongitudeDegrees>-4.08029864542186260223388671875</LongitudeDegrees>
            </Position>
            <AltitudeMeters>-6.400000095367431640625</AltitudeMeters>
            <DistanceMeters>34403.9034901</DistanceMeters>
          </Trackpoint>
          <Trackpoint>
            <Time>2021-03-13T09:26:29.000Z</Time>
            <Position>
              <LatitudeDegrees>36.74823014996945858001708984375</LatitudeDegrees>
              <LongitudeDegrees>-4.07958970405161380767822265625</LongitudeDegrees>
            </Position>
            <AltitudeMeters>-5.599999904632568359375</AltitudeMeters>
            <DistanceMeters>34469.432729998</DistanceMeters>
          </Trackpoint>
          <Trackpoint>
            <Time>2021-03-13T09:26:30.000Z</Time>
            <Position>
              <LatitudeDegrees>36.74825278110802173614501953125</LatitudeDegrees>
              <LongitudeDegrees>-4.07949834130704402923583984375</LongitudeDegrees>
            </Position>
            <AltitudeMeters>-5.400000095367431640625</AltitudeMeters>
            <DistanceMeters>34477.96081511</DistanceMeters>
          </Trackpoint>
          <Trackpoint>
            <Time>2021-03-13T09:26:31.000Z</Time>
            <Position>
              <LatitudeDegrees>36.748274154961109161376953125</LatitudeDegrees>
              <LongitudeDegrees>-4.079408235847949981689453125</LongitudeDegrees>
            </Position>
            <AltitudeMeters>-5</AltitudeMeters>
            <DistanceMeters>34486.341503302</DistanceMeters>
          </Trackpoint>
          <Trackpoint>
            <Time>2021-03-13T09:26:36.000Z</Time>
            <Position>
              <LatitudeDegrees>36.74837901256978511810302734375</LatitudeDegrees>
              <LongitudeDegrees>-4.07894765026867389678955078125</LongitudeDegrees>
            </Position>
            <AltitudeMeters>-4.19999980926513671875</AltitudeMeters>
            <DistanceMeters>34529.043721706</DistanceMeters>
          </Trackpoint>
          <Trackpoint>
            <Time>2021-03-13T09:26:39.000Z</Time>
            <Position>
              <LatitudeDegrees>36.74842201173305511474609375</LatitudeDegrees>
              <LongitudeDegrees>-4.07869854010641574859619140625</LongitudeDegrees>
            </Position>
            <AltitudeMeters>-4</AltitudeMeters>
            <DistanceMeters>34551.769614255</DistanceMeters>
          </Trackpoint>
          <Trackpoint>
            <Time>2021-03-13T09:26:40.000Z</Time>
            <Position>
              <LatitudeDegrees>36.74841396510601043701171875</LatitudeDegrees>
              <LongitudeDegrees>-4.0786114521324634552001953125</LongitudeDegrees>
            </Position>
            <AltitudeMeters>-4</AltitudeMeters>
            <DistanceMeters>34559.587835757</DistanceMeters>
          </Trackpoint>
          <Trackpoint>
            <Time>2021-03-13T09:26:41.000Z</Time>
            <Position>
              <LatitudeDegrees>36.74840164370834827423095703125</LatitudeDegrees>
              <LongitudeDegrees>-4.07852252013981342315673828125</LongitudeDegrees>
            </Position>
            <AltitudeMeters>-3.7999999523162841796875</AltitudeMeters>
            <DistanceMeters>34567.637108922</DistanceMeters>
          </Trackpoint>
          <Trackpoint>
            <Time>2021-03-13T09:26:43.000Z</Time>
            <Position>
              <LatitudeDegrees>36.74842469394207000732421875</LatitudeDegrees>
              <LongitudeDegrees>-4.0783512778580188751220703125</LongitudeDegrees>
            </Position>
            <AltitudeMeters>-3.7999999523162841796875</AltitudeMeters>
            <DistanceMeters>34583.122673492</DistanceMeters>
          </Trackpoint>
          <Trackpoint>
            <Time>2021-03-13T09:26:46.000Z</Time>
            <Position>
              <LatitudeDegrees>36.7485542781651020050048828125</LatitudeDegrees>
              <LongitudeDegrees>-4.078147597610950469970703125</LongitudeDegrees>
            </Position>
            <AltitudeMeters>-3.7999999523162841796875</AltitudeMeters>
            <DistanceMeters>34606.317174226</DistanceMeters>
          </Trackpoint>
          <Trackpoint>
            <Time>2021-03-13T09:26:50.000Z</Time>
            <Position>
              <LatitudeDegrees>36.74865913577377796173095703125</LatitudeDegrees>
              <LongitudeDegrees>-4.07779245637357234954833984375</LongitudeDegrees>
            </Position>
            <AltitudeMeters>-4</AltitudeMeters>
            <DistanceMeters>34640.0714604</DistanceMeters>
          </Trackpoint>
          <Trackpoint>
            <Time>2021-03-13T09:26:55.000Z</Time>
            <Position>
              <LatitudeDegrees>36.74878939054906368255615234375</LatitudeDegrees>
              <LongitudeDegrees>-4.07730278559029102325439453125</LongitudeDegrees>
            </Position>
            <AltitudeMeters>-4.19999980926513671875</AltitudeMeters>
            <DistanceMeters>34686.085197085</DistanceMeters>
          </Trackpoint>
          <Trackpoint>
            <Time>2021-03-13T09:27:02.000Z</Time>
            <Position>
              <LatitudeDegrees>36.7489599622786045074462890625</LatitudeDegrees>
              <LongitudeDegrees>-4.07660842873156070709228515625</LongitudeDegrees>
            </Position>
            <AltitudeMeters>-4.599999904632568359375</AltitudeMeters>
            <DistanceMeters>34750.854530054</DistanceMeters>
          </Trackpoint>
          <Trackpoint>
            <Time>2021-03-13T09:27:03.000Z</Time>
            <Position>
              <LatitudeDegrees>36.74898468889296054840087890625</LatitudeDegrees>
              <LongitudeDegrees>-4.07650734297931194305419921875</LongitudeDegrees>
            </Position>
            <AltitudeMeters>-4.599999904632568359375</AltitudeMeters>
            <DistanceMeters>34760.279915567</DistanceMeters>
          </Trackpoint>
          <Trackpoint>
            <Time>2021-03-13T09:27:10.000Z</Time>
            <Position>
              <LatitudeDegrees>36.74915492534637451171875</LatitudeDegrees>
              <LongitudeDegrees>-4.07578985206782817840576171875</LongitudeDegrees>
            </Position>
            <AltitudeMeters>-5.19999980926513671875</AltitudeMeters>
            <DistanceMeters>34827.013774666</DistanceMeters>
          </Trackpoint>
          <Trackpoint>
            <Time>2021-03-13T09:27:11.000Z</Time>
            <Position>
              <LatitudeDegrees>36.74917864613234996795654296875</LatitudeDegrees>
              <LongitudeDegrees>-4.075687341392040252685546875</LongitudeDegrees>
            </Position>
            <AltitudeMeters>-5.19999980926513671875</AltitudeMeters>
            <DistanceMeters>34836.529740543</DistanceMeters>
          </Trackpoint>
          <Trackpoint>
            <Time>2021-03-13T09:27:13.000Z</Time>
            <Position>
              <LatitudeDegrees>36.74922340549528598785400390625</LatitudeDegrees>
              <LongitudeDegrees>-4.07548324204981327056884765625</LongitudeDegrees>
            </Position>
            <AltitudeMeters>-5.19999980926513671875</AltitudeMeters>
            <DistanceMeters>34855.401098597</DistanceMeters>
          </Trackpoint>
          <Trackpoint>
            <Time>2021-03-13T09:27:19.000Z</Time>
            <Position>
              <LatitudeDegrees>36.749357096850872039794921875</LatitudeDegrees>
              <LongitudeDegrees>-4.0748922340571880340576171875</LongitudeDegrees>
            </Position>
            <AltitudeMeters>-5.400000095367431640625</AltitudeMeters>
            <DistanceMeters>34910.168482248</DistanceMeters>
          </Trackpoint>
          <Trackpoint>
            <Time>2021-03-13T09:27:23.000Z</Time>
            <Position>
              <LatitudeDegrees>36.7494548298418521881103515625</LatitudeDegrees>
              <LongitudeDegrees>-4.0744587220251560211181640625</LongitudeDegrees>
            </Position>
            <AltitudeMeters>-5.400000095367431640625</AltitudeMeters>
            <DistanceMeters>34950.331070874</DistanceMeters>
          </Trackpoint>
          <Trackpoint>
            <Time>2021-03-13T09:27:26.000Z</Time>
            <Position>
              <LatitudeDegrees>36.74952146597206592559814453125</LatitudeDegrees>
              <LongitudeDegrees>-4.07415211200714111328125</LongitudeDegrees>
            </Position>
            <AltitudeMeters>-5.19999980926513671875</AltitudeMeters>
            <DistanceMeters>34978.663377794</DistanceMeters>
          </Trackpoint>
          <Trackpoint>
            <Time>2021-03-13T09:27:28.000Z</Time>
            <Position>
              <LatitudeDegrees>36.749559603631496429443359375</LatitudeDegrees>
              <LongitudeDegrees>-4.0739460848271846771240234375</LongitudeDegrees>
            </Position>
            <AltitudeMeters>-5.19999980926513671875</AltitudeMeters>
            <DistanceMeters>34997.521332893</DistanceMeters>
          </Trackpoint>
          <Trackpoint>
            <Time>2021-03-13T09:27:35.000Z</Time>
            <Position>
              <LatitudeDegrees>36.7496761120855808258056640625</LatitudeDegrees>
              <LongitudeDegrees>-4.073229096829891204833984375</LongitudeDegrees>
            </Position>
            <AltitudeMeters>-5.400000095367431640625</AltitudeMeters>
            <DistanceMeters>35062.765044585</DistanceMeters>
          </Trackpoint>
          <Trackpoint>
            <Time>2021-03-13T09:27:40.000Z</Time>
            <Position>
              <LatitudeDegrees>36.749693714082241058349609375</LatitudeDegrees>
              <LongitudeDegrees>-4.072734899818897247314453125</LongitudeDegrees>
            </Position>
            <AltitudeMeters>-5.400000095367431640625</AltitudeMeters>
            <DistanceMeters>35106.881804397</DistanceMeters>
          </Trackpoint>
          <Trackpoint>
            <Time>2021-03-13T09:27:43.000Z</Time>
            <Position>
              <LatitudeDegrees>36.749793626368045806884765625</LatitudeDegrees>
              <LongitudeDegrees>-4.072497524321079254150390625</LongitudeDegrees>
            </Position>
            <AltitudeMeters>-5.400000095367431640625</AltitudeMeters>
            <DistanceMeters>35130.794196594</DistanceMeters>
          </Trackpoint>
          <Trackpoint>
            <Time>2021-03-13T09:27:45.000Z</Time>
            <Position>
              <LatitudeDegrees>36.74983947537839412689208984375</LatitudeDegrees>
              <LongitudeDegrees>-4.07229308970272541046142578125</LongitudeDegrees>
            </Position>
            <AltitudeMeters>-5.400000095367431640625</AltitudeMeters>
            <DistanceMeters>35149.726704467</DistanceMeters>
          </Trackpoint>
          <Trackpoint>
            <Time>2021-03-13T09:27:46.000Z</Time>
            <Position>
              <LatitudeDegrees>36.74984483979642391204833984375</LatitudeDegrees>
              <LongitudeDegrees>-4.07219401560723781585693359375</LongitudeDegrees>
            </Position>
            <AltitudeMeters>-5.400000095367431640625</AltitudeMeters>
            <DistanceMeters>35158.582052221</DistanceMeters>
          </Trackpoint>
          <Trackpoint>
            <Time>2021-03-13T09:27:53.000Z</Time>
            <Position>
              <LatitudeDegrees>36.749845258891582489013671875</LatitudeDegrees>
              <LongitudeDegrees>-4.0715019218623638153076171875</LongitudeDegrees>
            </Position>
            <AltitudeMeters>-5.400000095367431640625</AltitudeMeters>
            <DistanceMeters>35220.303933187</DistanceMeters>
          </Trackpoint>
          <Trackpoint>
            <Time>2021-03-13T09:27:55.000Z</Time>
            <Position>
              <LatitudeDegrees>36.74983461387455463409423828125</LatitudeDegrees>
              <LongitudeDegrees>-4.071303270757198333740234375</LongitudeDegrees>
            </Position>
            <AltitudeMeters>-5.400000095367431640625</AltitudeMeters>
            <DistanceMeters>35238.059440187</DistanceMeters>
          </Trackpoint>
          <Trackpoint>
            <Time>2021-03-13T09:28:02.000Z</Time>
            <Position>
              <LatitudeDegrees>36.74977744929492473602294921875</LatitudeDegrees>
              <LongitudeDegrees>-4.07063397578895092010498046875</LongitudeDegrees>
            </Position>
            <AltitudeMeters>-5.599999904632568359375</AltitudeMeters>
            <DistanceMeters>35298.086244391</DistanceMeters>
          </Trackpoint>
          <Trackpoint>
            <Time>2021-03-13T09:28:04.000Z</Time>
            <Position>
              <LatitudeDegrees>36.7497552372515201568603515625</LatitudeDegrees>
              <LongitudeDegrees>-4.07041671685874462127685546875</LongitudeDegrees>
            </Position>
            <AltitudeMeters>-5.599999904632568359375</AltitudeMeters>
            <DistanceMeters>35317.618568874</DistanceMeters>
          </Trackpoint>
          <Trackpoint>
            <Time>2021-03-13T09:28:11.000Z</Time>
            <Position>
              <LatitudeDegrees>36.7496955581009387969970703125</LatitudeDegrees>
              <LongitudeDegrees>-4.06974063254892826080322265625</LongitudeDegrees>
            </Position>
            <AltitudeMeters>-5.80000019073486328125</AltitudeMeters>
            <DistanceMeters>35378.277627298</DistanceMeters>
          </Trackpoint>
          <Trackpoint>
            <Time>2021-03-13T09:28:14.000Z</Time>
            <Position>
              <LatitudeDegrees>36.74966965802013874053955078125</LatitudeDegrees>
              <LongitudeDegrees>-4.0694574080407619476318359375</LongitudeDegrees>
            </Position>
            <AltitudeMeters>-5.80000019073486328125</AltitudeMeters>
            <DistanceMeters>35403.699893152</DistanceMeters>
          </Trackpoint>
          <Trackpoint>
            <Time>2021-03-13T09:28:21.000Z</Time>
            <Position>
              <LatitudeDegrees>36.74960754811763763427734375</LatitudeDegrees>
              <LongitudeDegrees>-4.068788029253482818603515625</LongitudeDegrees>
            </Position>
            <AltitudeMeters>-5.80000019073486328125</AltitudeMeters>
            <DistanceMeters>35463.795030747</DistanceMeters>
          </Trackpoint>
          <Trackpoint>
            <Time>2021-03-13T09:28:25.000Z</Time>
            <Position>
              <LatitudeDegrees>36.7495842464268207550048828125</LatitudeDegrees>
              <LongitudeDegrees>-4.0684187225997447967529296875</LongitudeDegrees>
            </Position>
            <AltitudeMeters>-5.80000019073486328125</AltitudeMeters>
            <DistanceMeters>35496.832363263</DistanceMeters>
          </Trackpoint>
          <Trackpoint>
            <Time>2021-03-13T09:28:32.000Z</Time>
            <Position>
              <LatitudeDegrees>36.74953822977840900421142578125</LatitudeDegrees>
              <LongitudeDegrees>-4.067717157304286956787109375</LongitudeDegrees>
            </Position>
            <AltitudeMeters>-6</AltitudeMeters>
            <DistanceMeters>35559.608495281</DistanceMeters>
          </Trackpoint>
          <Trackpoint>
            <Time>2021-03-13T09:28:34.000Z</Time>
            <Position>
              <LatitudeDegrees>36.749527752399444580078125</LatitudeDegrees>
              <LongitudeDegrees>-4.06754775904119014739990234375</LongitudeDegrees>
            </Position>
            <AltitudeMeters>-6</AltitudeMeters>
            <DistanceMeters>35574.760414747</DistanceMeters>
          </Trackpoint>
          <Trackpoint>
            <Time>2021-03-13T09:28:38.000Z</Time>
            <Position>
              <LatitudeDegrees>36.74950503744184970855712890625</LatitudeDegrees>
              <LongitudeDegrees>-4.067161269485950469970703125</LongitudeDegrees>
            </Position>
            <AltitudeMeters>-6</AltitudeMeters>
            <DistanceMeters>35609.320887421</DistanceMeters>
          </Trackpoint>
          <Trackpoint>
            <Time>2021-03-13T09:28:40.000Z</Time>
            <Position>
              <LatitudeDegrees>36.749492548406124114990234375</LatitudeDegrees>
              <LongitudeDegrees>-4.066993631422519683837890625</LongitudeDegrees>
            </Position>
            <AltitudeMeters>-6</AltitudeMeters>
            <DistanceMeters>35624.335709714</DistanceMeters>
          </Trackpoint>
          <Trackpoint>
            <Time>2021-03-13T09:28:44.000Z</Time>
            <Position>
              <LatitudeDegrees>36.74946807324886322021484375</LatitudeDegrees>
              <LongitudeDegrees>-4.06668593175709247589111328125</LongitudeDegrees>
            </Position>
            <AltitudeMeters>-6</AltitudeMeters>
            <DistanceMeters>35651.911800762</DistanceMeters>
          </Trackpoint>
          <Trackpoint>
            <Time>2021-03-13T09:28:46.000Z</Time>
            <Position>
              <LatitudeDegrees>36.7494591884315013885498046875</LatitudeDegrees>
              <LongitudeDegrees>-4.06654427759349346160888671875</LongitudeDegrees>
            </Position>
            <AltitudeMeters>-6</AltitudeMeters>
            <DistanceMeters>35664.583533845</DistanceMeters>
          </Trackpoint>
          <Trackpoint>
            <Time>2021-03-13T09:28:52.000Z</Time>
            <Position>
              <LatitudeDegrees>36.7494397424161434173583984375</LatitudeDegrees>
              <LongitudeDegrees>-4.066212438046932220458984375</LongitudeDegrees>
            </Position>
            <AltitudeMeters>-6.19999980926513671875</AltitudeMeters>
            <DistanceMeters>35694.25652887</DistanceMeters>
          </Trackpoint>
          <Trackpoint>
            <Time>2021-03-13T09:28:58.000Z</Time>
            <Position>
              <LatitudeDegrees>36.749420128762722015380859375</LatitudeDegrees>
              <LongitudeDegrees>-4.06598947942256927490234375</LongitudeDegrees>
            </Position>
            <AltitudeMeters>-6</AltitudeMeters>
            <DistanceMeters>35714.260047245</DistanceMeters>
          </Trackpoint>
          <Trackpoint>
            <Time>2021-03-13T09:29:03.000Z</Time>
            <Position>
              <LatitudeDegrees>36.7494068853557109832763671875</LatitudeDegrees>
              <LongitudeDegrees>-4.06567658297717571258544921875</LongitudeDegrees>
            </Position>
            <AltitudeMeters>-6</AltitudeMeters>
            <DistanceMeters>35742.203718626</DistanceMeters>
          </Trackpoint>
          <Trackpoint>
            <Time>2021-03-13T09:29:09.000Z</Time>
            <Position>
              <LatitudeDegrees>36.74937461502850055694580078125</LatitudeDegrees>
              <LongitudeDegrees>-4.06522496603429317474365234375</LongitudeDegrees>
            </Position>
            <AltitudeMeters>-6.19999980926513671875</AltitudeMeters>
            <DistanceMeters>35782.639567592</DistanceMeters>
          </Trackpoint>
          <Trackpoint>
            <Time>2021-03-13T09:29:11.000Z</Time>
            <Position>
              <LatitudeDegrees>36.7493626289069652557373046875</LatitudeDegrees>
              <LongitudeDegrees>-4.06505799852311611175537109375</LongitudeDegrees>
            </Position>
            <AltitudeMeters>-6.19999980926513671875</AltitudeMeters>
            <DistanceMeters>35797.589296418</DistanceMeters>
          </Trackpoint>
          <Trackpoint>
            <Time>2021-03-13T09:29:14.000Z</Time>
            <Position>
              <LatitudeDegrees>36.74934125505387783050537109375</LatitudeDegrees>
              <LongitudeDegrees>-4.06479564495384693145751953125</LongitudeDegrees>
            </Position>
            <AltitudeMeters>-6.400000095367431640625</AltitudeMeters>
            <DistanceMeters>35821.107016378</DistanceMeters>
          </Trackpoint>
          <Trackpoint>
            <Time>2021-03-13T09:29:22.000Z</Time>
            <Position>
              <LatitudeDegrees>36.7492700926959514617919921875</LatitudeDegrees>
              <LongitudeDegrees>-4.0641171298921108245849609375</LongitudeDegrees>
            </Position>
            <AltitudeMeters>-5.80000019073486328125</AltitudeMeters>
            <DistanceMeters>35882.134441922</DistanceMeters>
          </Trackpoint>
          <Trackpoint>
            <Time>2021-03-13T09:29:26.000Z</Time>
            <Position>
              <LatitudeDegrees>36.74922994337975978851318359375</LatitudeDegrees>
              <LongitudeDegrees>-4.06381898559629917144775390625</LongitudeDegrees>
            </Position>
            <AltitudeMeters>-5.599999904632568359375</AltitudeMeters>
            <DistanceMeters>35909.096419667</DistanceMeters>
          </Trackpoint>
          <Trackpoint>
            <Time>2021-03-13T09:29:27.000Z</Time>
            <Position>
              <LatitudeDegrees>36.74922290258109569549560546875</LatitudeDegrees>
              <LongitudeDegrees>-4.06376433558762073516845703125</LongitudeDegrees>
            </Position>
            <AltitudeMeters>-5.599999904632568359375</AltitudeMeters>
            <DistanceMeters>35914.03232346</DistanceMeters>
          </Trackpoint>
          <Trackpoint>
            <Time>2021-03-13T09:29:29.000Z</Time>
            <Position>
              <LatitudeDegrees>36.74920630641281604766845703125</LatitudeDegrees>
              <LongitudeDegrees>-4.0636552870273590087890625</LongitudeDegrees>
            </Position>
            <AltitudeMeters>-5.400000095367431640625</AltitudeMeters>
            <DistanceMeters>35923.931535023</DistanceMeters>
          </Trackpoint>
          <Trackpoint>
            <Time>2021-03-13T09:29:33.000Z</Time>
            <Position>
              <LatitudeDegrees>36.74915450625121593475341796875</LatitudeDegrees>
              <LongitudeDegrees>-4.063401482999324798583984375</LongitudeDegrees>
            </Position>
            <AltitudeMeters>-5.19999980926513671875</AltitudeMeters>
            <DistanceMeters>35947.288784399</DistanceMeters>
          </Trackpoint>
          <Trackpoint>
            <Time>2021-03-13T09:29:39.000Z</Time>
            <Position>
              <LatitudeDegrees>36.749066077172756195068359375</LatitudeDegrees>
              <LongitudeDegrees>-4.0629268996417522430419921875</LongitudeDegrees>
            </Position>
            <AltitudeMeters>-5.19999980926513671875</AltitudeMeters>
            <DistanceMeters>35990.742496608</DistanceMeters>
          </Trackpoint>
          <Trackpoint>
            <Time>2021-03-13T09:29:43.000Z</Time>
            <Position>
              <LatitudeDegrees>36.7490256763994693756103515625</LatitudeDegrees>
              <LongitudeDegrees>-4.062694720923900604248046875</LongitudeDegrees>
            </Position>
            <AltitudeMeters>-5.599999904632568359375</AltitudeMeters>
            <DistanceMeters>36011.931536247</DistanceMeters>
          </Trackpoint>
          <Trackpoint>
            <Time>2021-03-13T09:29:48.000Z</Time>
            <Position>
              <LatitudeDegrees>36.748982928693294525146484375</LatitudeDegrees>
              <LongitudeDegrees>-4.06244887970387935638427734375</LongitudeDegrees>
            </Position>
            <AltitudeMeters>-5.80000019073486328125</AltitudeMeters>
            <DistanceMeters>36034.366295011</DistanceMeters>
          </Trackpoint>
          <Trackpoint>
            <Time>2021-03-13T09:29:50.000Z</Time>
            <Position>
              <LatitudeDegrees>36.74895820207893848419189453125</LatitudeDegrees>
              <LongitudeDegrees>-4.0623126737773418426513671875</LongitudeDegrees>
            </Position>
            <AltitudeMeters>-6</AltitudeMeters>
            <DistanceMeters>36046.820958923</DistanceMeters>
          </Trackpoint>
          <Trackpoint>
            <Time>2021-03-13T09:29:52.000Z</Time>
            <Position>
              <LatitudeDegrees>36.748919226229190826416015625</LatitudeDegrees>
              <LongitudeDegrees>-4.0621612966060638427734375</LongitudeDegrees>
            </Position>
            <AltitudeMeters>-6</AltitudeMeters>
            <DistanceMeters>36061.000651519</DistanceMeters>
          </Trackpoint>
          <Trackpoint>
            <Time>2021-03-13T09:29:57.000Z</Time>
            <Position>
              <LatitudeDegrees>36.74883549101650714874267578125</LatitudeDegrees>
              <LongitudeDegrees>-4.0617536008358001708984375</LongitudeDegrees>
            </Position>
            <AltitudeMeters>-6.19999980926513671875</AltitudeMeters>
            <DistanceMeters>36098.535361676</DistanceMeters>
          </Trackpoint>
          <Trackpoint>
            <Time>2021-03-13T09:29:58.000Z</Time>
            <Position>
              <LatitudeDegrees>36.74881889484822750091552734375</LatitudeDegrees>
              <LongitudeDegrees>-4.06167154200375080108642578125</LongitudeDegrees>
            </Position>
            <AltitudeMeters>-6.19999980926513671875</AltitudeMeters>
            <DistanceMeters>36106.083258886</DistanceMeters>
          </Trackpoint>
          <Trackpoint>
            <Time>2021-03-13T09:30:04.000Z</Time>
            <Position>
              <LatitudeDegrees>36.7487108521163463592529296875</LatitudeDegrees>
              <LongitudeDegrees>-4.06118161976337432861328125</LongitudeDegrees>
            </Position>
            <AltitudeMeters>-6</AltitudeMeters>
            <DistanceMeters>36151.400541518</DistanceMeters>
          </Trackpoint>
          <Trackpoint>
            <Time>2021-03-13T09:30:05.000Z</Time>
            <Position>
              <LatitudeDegrees>36.74869383685290813446044921875</LatitudeDegrees>
              <LongitudeDegrees>-4.06109017319977283477783203125</LongitudeDegrees>
            </Position>
            <AltitudeMeters>-6</AltitudeMeters>
            <DistanceMeters>36159.773144664</DistanceMeters>
          </Trackpoint>
          <Trackpoint>
            <Time>2021-03-13T09:30:13.000Z</Time>
            <Position>
              <LatitudeDegrees>36.74855285324156284332275390625</LatitudeDegrees>
              <LongitudeDegrees>-4.060370922088623046875</LongitudeDegrees>
            </Position>
            <AltitudeMeters>-5.599999904632568359375</AltitudeMeters>
            <DistanceMeters>36225.809327368</DistanceMeters>
          </Trackpoint>
          <Trackpoint>
            <Time>2021-03-13T09:30:21.000Z</Time>
            <Position>
              <LatitudeDegrees>36.7484091036021709442138671875</LatitudeDegrees>
              <LongitudeDegrees>-4.05964546836912631988525390625</LongitudeDegrees>
            </Position>
            <AltitudeMeters>-5.599999904632568359375</AltitudeMeters>
            <DistanceMeters>36292.456325517</DistanceMeters>
          </Trackpoint>
          <Trackpoint>
            <Time>2021-03-13T09:30:22.000Z</Time>
            <Position>
              <LatitudeDegrees>36.74839384853839874267578125</LatitudeDegrees>
              <LongitudeDegrees>-4.0595543570816516876220703125</LongitudeDegrees>
            </Position>
            <AltitudeMeters>-5.80000019073486328125</AltitudeMeters>
            <DistanceMeters>36300.756896778</DistanceMeters>
          </Trackpoint>
          <Trackpoint>
            <Time>2021-03-13T09:30:27.000Z</Time>
            <Position>
              <LatitudeDegrees>36.748290918767452239990234375</LatitudeDegrees>
              <LongitudeDegrees>-4.05912931077182292938232421875</LongitudeDegrees>
            </Position>
            <AltitudeMeters>-6</AltitudeMeters>
            <DistanceMeters>36340.357163639</DistanceMeters>
          </Trackpoint>
          <Trackpoint>
            <Time>2021-03-13T09:30:33.000Z</Time>
            <Position>
              <LatitudeDegrees>36.7481965385377407073974609375</LatitudeDegrees>
              <LongitudeDegrees>-4.05861197970807552337646484375</LongitudeDegrees>
            </Position>
            <AltitudeMeters>-6</AltitudeMeters>
            <DistanceMeters>36387.675124226</DistanceMeters>
          </Trackpoint>
          <Trackpoint>
            <Time>2021-03-13T09:30:39.000Z</Time>
            <Position>
              <LatitudeDegrees>36.74809184856712818145751953125</LatitudeDegrees>
              <LongitudeDegrees>-4.05809448100626468658447265625</LongitudeDegrees>
            </Position>
            <AltitudeMeters>-5.599999904632568359375</AltitudeMeters>
            <DistanceMeters>36435.275541147</DistanceMeters>
          </Trackpoint>
          <Trackpoint>
            <Time>2021-03-13T09:30:40.000Z</Time>
            <Position>
              <LatitudeDegrees>36.74806033261120319366455078125</LatitudeDegrees>
              <LongitudeDegrees>-4.0580094046890735626220703125</LongitudeDegrees>
            </Position>
            <AltitudeMeters>-5.599999904632568359375</AltitudeMeters>
            <DistanceMeters>36443.634111686</DistanceMeters>
          </Trackpoint>
          <Trackpoint>
            <Time>2021-03-13T09:30:41.000Z</Time>
            <Position>
              <LatitudeDegrees>36.74802948720753192901611328125</LatitudeDegrees>
              <LongitudeDegrees>-4.05792499892413616180419921875</LongitudeDegrees>
            </Position>
            <AltitudeMeters>-5.599999904632568359375</AltitudeMeters>
            <DistanceMeters>36451.907441091</DistanceMeters>
          </Trackpoint>
          <Trackpoint>
            <Time>2021-03-13T09:30:43.000Z</Time>
            <Position>
              <LatitudeDegrees>36.7480020783841609954833984375</LatitudeDegrees>
              <LongitudeDegrees>-4.05774009414017200469970703125</LongitudeDegrees>
            </Position>
            <AltitudeMeters>-5.599999904632568359375</AltitudeMeters>
            <DistanceMeters>36468.677435151</DistanceMeters>
          </Trackpoint>
          <Trackpoint>
            <Time>2021-03-13T09:30:45.000Z</Time>
            <Position>
              <LatitudeDegrees>36.7479836381971836090087890625</LatitudeDegrees>
              <LongitudeDegrees>-4.05755116604268550872802734375</LongitudeDegrees>
            </Position>
            <AltitudeMeters>-5.599999904632568359375</AltitudeMeters>
            <DistanceMeters>36485.650813096</DistanceMeters>
          </Trackpoint>
          <Trackpoint>
            <Time>2021-03-13T09:30:48.000Z</Time>
            <Position>
              <LatitudeDegrees>36.74793259240686893463134765625</LatitudeDegrees>
              <LongitudeDegrees>-4.0572671033442020416259765625</LongitudeDegrees>
            </Position>
            <AltitudeMeters>-5.80000019073486328125</AltitudeMeters>
            <DistanceMeters>36511.613461001</DistanceMeters>
          </Trackpoint>
          <Trackpoint>
            <Time>2021-03-13T09:30:55.000Z</Time>
            <Position>
              <LatitudeDegrees>36.747794039547443389892578125</LatitudeDegrees>
              <LongitudeDegrees>-4.056585989892482757568359375</LongitudeDegrees>
            </Position>
            <AltitudeMeters>-5.80000019073486328125</AltitudeMeters>
            <DistanceMeters>36574.284569732</DistanceMeters>
          </Trackpoint>
          <Trackpoint>
            <Time>2021-03-13T09:30:56.000Z</Time>
            <Position>
              <LatitudeDegrees>36.7477764375507831573486328125</LatitudeDegrees>
              <LongitudeDegrees>-4.05649152584373950958251953125</LongitudeDegrees>
            </Position>
            <AltitudeMeters>-5.80000019073486328125</AltitudeMeters>
            <DistanceMeters>36582.933566973</DistanceMeters>
          </Trackpoint>
          <Trackpoint>
            <Time>2021-03-13T09:30:59.000Z</Time>
            <Position>
              <LatitudeDegrees>36.74772270955145359039306640625</LatitudeDegrees>
              <LongitudeDegrees>-4.0562170185148715972900390625</LongitudeDegrees>
            </Position>
            <AltitudeMeters>-5.80000019073486328125</AltitudeMeters>
            <DistanceMeters>36608.135181933</DistanceMeters>
          </Trackpoint>
          <Trackpoint>
            <Time>2021-03-13T09:31:01.000Z</Time>
            <Position>
              <LatitudeDegrees>36.7476463504135608673095703125</LatitudeDegrees>
              <LongitudeDegrees>-4.05605323612689971923828125</LongitudeDegrees>
            </Position>
            <AltitudeMeters>-5.80000019073486328125</AltitudeMeters>
            <DistanceMeters>36625.034982458</DistanceMeters>
          </Trackpoint>
          <Trackpoint>
            <Time>2021-03-13T09:31:03.000Z</Time>
            <Position>
              <LatitudeDegrees>36.747553646564483642578125</LatitudeDegrees>
              <LongitudeDegrees>-4.05589490197598934173583984375</LongitudeDegrees>
            </Position>
            <AltitudeMeters>-5.80000019073486328125</AltitudeMeters>
            <DistanceMeters>36642.52402901</DistanceMeters>
          </Trackpoint>
          <Trackpoint>
            <Time>2021-03-13T09:31:05.000Z</Time>
            <Position>
              <LatitudeDegrees>36.74749203957617282867431640625</LatitudeDegrees>
              <LongitudeDegrees>-4.05571284703910350799560546875</LongitudeDegrees>
            </Position>
            <AltitudeMeters>-6</AltitudeMeters>
            <DistanceMeters>36660.148858929</DistanceMeters>
          </Trackpoint>
          <Trackpoint>
            <Time>2021-03-13T09:31:07.000Z</Time>
            <Position>
              <LatitudeDegrees>36.74746722914278507232666015625</LatitudeDegrees>
              <LongitudeDegrees>-4.0555196441709995269775390625</LongitudeDegrees>
            </Position>
            <AltitudeMeters>-6</AltitudeMeters>
            <DistanceMeters>36677.599396683</DistanceMeters>
          </Trackpoint>
          <Trackpoint>
            <Time>2021-03-13T09:31:09.000Z</Time>
            <Position>
              <LatitudeDegrees>36.7474740184843540191650390625</LatitudeDegrees>
              <LongitudeDegrees>-4.05532074160873889923095703125</LongitudeDegrees>
            </Position>
            <AltitudeMeters>-6.19999980926513671875</AltitudeMeters>
            <DistanceMeters>36695.354395097</DistanceMeters>
          </Trackpoint>
          <Trackpoint>
            <Time>2021-03-13T09:31:10.000Z</Time>
            <Position>
              <LatitudeDegrees>36.7474746890366077423095703125</LatitudeDegrees>
              <LongitudeDegrees>-4.0552222542464733123779296875</LongitudeDegrees>
            </Position>
            <AltitudeMeters>-6</AltitudeMeters>
            <DistanceMeters>36704.138071613</DistanceMeters>
          </Trackpoint>
          <Trackpoint>
            <Time>2021-03-13T09:31:13.000Z</Time>
            <Position>
              <LatitudeDegrees>36.74743319861590862274169921875</LatitudeDegrees>
              <LongitudeDegrees>-4.05493534170091152191162109375</LongitudeDegrees>
            </Position>
            <AltitudeMeters>-5.599999904632568359375</AltitudeMeters>
            <DistanceMeters>36730.139471446</DistanceMeters>
          </Trackpoint>
          <Trackpoint>
            <Time>2021-03-13T09:31:19.000Z</Time>
            <Position>
              <LatitudeDegrees>36.74731501378118991851806640625</LatitudeDegrees>
              <LongitudeDegrees>-4.0543843992054462432861328125</LongitudeDegrees>
            </Position>
            <AltitudeMeters>-4.599999904632568359375</AltitudeMeters>
            <DistanceMeters>36781.005310897</DistanceMeters>
          </Trackpoint>
          <Trackpoint>
            <Time>2021-03-13T09:31:20.000Z</Time>
            <Position>
              <LatitudeDegrees>36.747294478118419647216796875</LatitudeDegrees>
              <LongitudeDegrees>-4.0542911924421787261962890625</LongitudeDegrees>
            </Position>
            <AltitudeMeters>-4.400000095367431640625</AltitudeMeters>
            <DistanceMeters>36789.626072414</DistanceMeters>
          </Trackpoint>
          <Trackpoint>
            <Time>2021-03-13T09:31:27.000Z</Time>
            <Position>
              <LatitudeDegrees>36.7471602000296115875244140625</LatitudeDegrees>
              <LongitudeDegrees>-4.05362910591065883636474609375</LongitudeDegrees>
            </Position>
            <AltitudeMeters>-4.19999980926513671875</AltitudeMeters>
            <DistanceMeters>36850.535824317</DistanceMeters>
          </Trackpoint>
          <Trackpoint>
            <Time>2021-03-13T09:31:30.000Z</Time>
            <Position>
              <LatitudeDegrees>36.747100017964839935302734375</LatitudeDegrees>
              <LongitudeDegrees>-4.053356945514678955078125</LongitudeDegrees>
            </Position>
            <AltitudeMeters>-4</AltitudeMeters>
            <DistanceMeters>36875.715931296</DistanceMeters>
          </Trackpoint>
          <Trackpoint>
            <Time>2021-03-13T09:31:37.000Z</Time>
            <Position>
              <LatitudeDegrees>36.74697269685566425323486328125</LatitudeDegrees>
              <LongitudeDegrees>-4.052711538970470428466796875</LongitudeDegrees>
            </Position>
            <AltitudeMeters>-3.7999999523162841796875</AltitudeMeters>
            <DistanceMeters>36934.995009374</DistanceMeters>
          </Trackpoint>
          <Trackpoint>
            <Time>2021-03-13T09:31:38.000Z</Time>
            <Position>
              <LatitudeDegrees>36.74694017507135868072509765625</LatitudeDegrees>
              <LongitudeDegrees>-4.05262403190135955810546875</LongitudeDegrees>
            </Position>
            <AltitudeMeters>-3.7999999523162841796875</AltitudeMeters>
            <DistanceMeters>36943.597945299</DistanceMeters>
          </Trackpoint>
          <Trackpoint>
            <Time>2021-03-13T09:31:40.000Z</Time>
            <Position>
              <LatitudeDegrees>36.74687169492244720458984375</LatitudeDegrees>
              <LongitudeDegrees>-4.05245346017181873321533203125</LongitudeDegrees>
            </Position>
            <AltitudeMeters>-3.7999999523162841796875</AltitudeMeters>
            <DistanceMeters>36960.612769741</DistanceMeters>
          </Trackpoint>
          <Trackpoint>
            <Time>2021-03-13T09:31:41.000Z</Time>
            <Position>
              <LatitudeDegrees>36.7468540929257869720458984375</LatitudeDegrees>
              <LongitudeDegrees>-4.05235907994210720062255859375</LongitudeDegrees>
            </Position>
            <AltitudeMeters>-4</AltitudeMeters>
            <DistanceMeters>36969.254455467</DistanceMeters>
          </Trackpoint>
          <Trackpoint>
            <Time>2021-03-13T09:31:44.000Z</Time>
            <Position>
              <LatitudeDegrees>36.746839843690395355224609375</LatitudeDegrees>
              <LongitudeDegrees>-4.0520743466913700103759765625</LongitudeDegrees>
            </Position>
            <AltitudeMeters>-4</AltitudeMeters>
            <DistanceMeters>36994.697847149</DistanceMeters>
          </Trackpoint>
          <Trackpoint>
            <Time>2021-03-13T09:31:46.000Z</Time>
            <Position>
              <LatitudeDegrees>36.7468041367828845977783203125</LatitudeDegrees>
              <LongitudeDegrees>-4.0519020147621631622314453125</LongitudeDegrees>
            </Position>
            <AltitudeMeters>-4</AltitudeMeters>
            <DistanceMeters>37010.57271324</DistanceMeters>
          </Trackpoint>
          <Trackpoint>
            <Time>2021-03-13T09:31:52.000Z</Time>
            <Position>
              <LatitudeDegrees>36.7466961778700351715087890625</LatitudeDegrees>
              <LongitudeDegrees>-4.05136867426335811614990234375</LongitudeDegrees>
            </Position>
            <AltitudeMeters>-3.599999904632568359375</AltitudeMeters>
            <DistanceMeters>37059.63291774</DistanceMeters>
          </Trackpoint>
          <Trackpoint>
            <Time>2021-03-13T09:31:53.000Z</Time>
            <Position>
              <LatitudeDegrees>36.74667681567370891571044921875</LatitudeDegrees>
              <LongitudeDegrees>-4.0512777306139469146728515625</LongitudeDegrees>
            </Position>
            <AltitudeMeters>-3.599999904632568359375</AltitudeMeters>
            <DistanceMeters>37068.025449912</DistanceMeters>
          </Trackpoint>
          <Trackpoint>
            <Time>2021-03-13T09:31:55.000Z</Time>
            <Position>
              <LatitudeDegrees>36.74663775600492954254150390625</LatitudeDegrees>
              <LongitudeDegrees>-4.0510926581919193267822265625</LongitudeDegrees>
            </Position>
            <AltitudeMeters>-3.599999904632568359375</AltitudeMeters>
            <DistanceMeters>37085.094057246</DistanceMeters>
          </Trackpoint>
          <Trackpoint>
            <Time>2021-03-13T09:32:01.000Z</Time>
            <Position>
              <LatitudeDegrees>36.74652166664600372314453125</LatitudeDegrees>
              <LongitudeDegrees>-4.05053048394620418548583984375</LongitudeDegrees>
            </Position>
            <AltitudeMeters>-3.2000000476837158203125</AltitudeMeters>
            <DistanceMeters>37136.869753027</DistanceMeters>
          </Trackpoint>
          <Trackpoint>
            <Time>2021-03-13T09:32:08.000Z</Time>
            <Position>
              <LatitudeDegrees>36.7463837005198001861572265625</LatitudeDegrees>
              <LongitudeDegrees>-4.04986579902470111846923828125</LongitudeDegrees>
            </Position>
            <AltitudeMeters>-2.400000095367431640625</AltitudeMeters>
            <DistanceMeters>37198.106415861</DistanceMeters>
          </Trackpoint>
          <Trackpoint>
            <Time>2021-03-13T09:32:12.000Z</Time>
            <Position>
              <LatitudeDegrees>36.74630600027740001678466796875</LatitudeDegrees>
              <LongitudeDegrees>-4.04946732334792613983154296875</LongitudeDegrees>
            </Position>
            <AltitudeMeters>-2.2000000476837158203125</AltitudeMeters>
            <DistanceMeters>37234.68170321</DistanceMeters>
          </Trackpoint>
          <Trackpoint>
            <Time>2021-03-13T09:32:19.000Z</Time>
            <Position>
              <LatitudeDegrees>36.74615663476288318634033203125</LatitudeDegrees>
              <LongitudeDegrees>-4.0487702004611492156982421875</LongitudeDegrees>
            </Position>
            <AltitudeMeters>-2.400000095367431640625</AltitudeMeters>
            <DistanceMeters>37299.03927777</DistanceMeters>
          </Trackpoint>
          <Trackpoint>
            <Time>2021-03-13T09:32:22.000Z</Time>
            <Position>
              <LatitudeDegrees>36.7460967041552066802978515625</LatitudeDegrees>
              <LongitudeDegrees>-4.04847943224012851715087890625</LongitudeDegrees>
            </Position>
            <AltitudeMeters>-2.599999904632568359375</AltitudeMeters>
            <DistanceMeters>37325.815742055</DistanceMeters>
          </Trackpoint>
          <Trackpoint>
            <Time>2021-03-13T09:32:29.000Z</Time>
            <Position>
              <LatitudeDegrees>36.74594708718359470367431640625</LatitudeDegrees>
              <LongitudeDegrees>-4.0477841533720493316650390625</LongitudeDegrees>
            </Position>
            <AltitudeMeters>-3.599999904632568359375</AltitudeMeters>
            <DistanceMeters>37390.02181286</DistanceMeters>
          </Trackpoint>
          <Trackpoint>
            <Time>2021-03-13T09:32:33.000Z</Time>
            <Position>
              <LatitudeDegrees>36.7458700574934482574462890625</LatitudeDegrees>
              <LongitudeDegrees>-4.0473814867436885833740234375</LongitudeDegrees>
            </Position>
            <AltitudeMeters>-4.19999980926513671875</AltitudeMeters>
            <DistanceMeters>37426.943207336</DistanceMeters>
          </Trackpoint>
          <Trackpoint>
            <Time>2021-03-13T09:32:36.000Z</Time>
            <Position>
              <LatitudeDegrees>36.74581062979996204376220703125</LatitudeDegrees>
              <LongitudeDegrees>-4.04712206684052944183349609375</LongitudeDegrees>
            </Position>
            <AltitudeMeters>-4.599999904632568359375</AltitudeMeters>
            <DistanceMeters>37451.006553361</DistanceMeters>
          </Trackpoint>
          <Trackpoint>
            <Time>2021-03-13T09:32:37.000Z</Time>
            <Position>
              <LatitudeDegrees>36.7457882501184940338134765625</LatitudeDegrees>
              <LongitudeDegrees>-4.0470431931316852569580078125</LongitudeDegrees>
            </Position>
            <AltitudeMeters>-4.599999904632568359375</AltitudeMeters>
            <DistanceMeters>37458.469024897</DistanceMeters>
          </Trackpoint>
          <Trackpoint>
            <Time>2021-03-13T09:32:40.000Z</Time>
            <Position>
              <LatitudeDegrees>36.7456812970340251922607421875</LatitudeDegrees>
              <LongitudeDegrees>-4.0468202345073223114013671875</LongitudeDegrees>
            </Position>
            <AltitudeMeters>-4.80000019073486328125</AltitudeMeters>
            <DistanceMeters>37481.645025567</DistanceMeters>
          </Trackpoint>
          <Trackpoint>
            <Time>2021-03-13T09:32:42.000Z</Time>
            <Position>
              <LatitudeDegrees>36.7456343583762645721435546875</LatitudeDegrees>
              <LongitudeDegrees>-4.0466673485934734344482421875</LongitudeDegrees>
            </Position>
            <AltitudeMeters>-4.80000019073486328125</AltitudeMeters>
            <DistanceMeters>37496.247017383</DistanceMeters>
          </Trackpoint>
          <Trackpoint>
            <Time>2021-03-13T09:32:43.000Z</Time>
            <Position>
              <LatitudeDegrees>36.745634190738201141357421875</LatitudeDegrees>
              <LongitudeDegrees>-4.04658361338078975677490234375</LongitudeDegrees>
            </Position>
            <AltitudeMeters>-5</AltitudeMeters>
            <DistanceMeters>37503.714932227</DistanceMeters>
          </Trackpoint>
          <Trackpoint>
            <Time>2021-03-13T09:32:45.000Z</Time>
            <Position>
              <LatitudeDegrees>36.7456437461078166961669921875</LatitudeDegrees>
              <LongitudeDegrees>-4.0464071743190288543701171875</LongitudeDegrees>
            </Position>
            <AltitudeMeters>-5</AltitudeMeters>
            <DistanceMeters>37519.486504302</DistanceMeters>
          </Trackpoint>
          <Trackpoint>
            <Time>2021-03-13T09:32:47.000Z</Time>
            <Position>
              <LatitudeDegrees>36.74562572501599788665771484375</LatitudeDegrees>
              <LongitudeDegrees>-4.04623324982821941375732421875</LongitudeDegrees>
            </Position>
            <AltitudeMeters>-5</AltitudeMeters>
            <DistanceMeters>37535.12727797</DistanceMeters>
          </Trackpoint>
          <Trackpoint>
            <Time>2021-03-13T09:32:48.000Z</Time>
            <Position>
              <LatitudeDegrees>36.745608039200305938720703125</LatitudeDegrees>
              <LongitudeDegrees>-4.04614423401653766632080078125</LongitudeDegrees>
            </Position>
            <AltitudeMeters>-5</AltitudeMeters>
            <DistanceMeters>37543.305650438</DistanceMeters>
          </Trackpoint>
          <Trackpoint>
            <Time>2021-03-13T09:32:56.000Z</Time>
            <Position>
              <LatitudeDegrees>36.74545221962034702301025390625</LatitudeDegrees>
              <LongitudeDegrees>-4.04543101787567138671875</LongitudeDegrees>
            </Position>
            <AltitudeMeters>-5.19999980926513671875</AltitudeMeters>
            <DistanceMeters>37609.236661341</DistanceMeters>
          </Trackpoint>
          <Trackpoint>
            <Time>2021-03-13T09:32:57.000Z</Time>
            <Position>
              <LatitudeDegrees>36.74543562345206737518310546875</LatitudeDegrees>
              <LongitudeDegrees>-4.04535046778619289398193359375</LongitudeDegrees>
            </Position>
            <AltitudeMeters>-5.19999980926513671875</AltitudeMeters>
            <DistanceMeters>37616.654225346</DistanceMeters>
          </Trackpoint>
          <Trackpoint>
            <Time>2021-03-13T09:33:02.000Z</Time>
            <Position>
              <LatitudeDegrees>36.745356582105159759521484375</LatitudeDegrees>
              <LongitudeDegrees>-4.04494008980691432952880859375</LongitudeDegrees>
            </Position>
            <AltitudeMeters>-5.400000095367431640625</AltitudeMeters>
            <DistanceMeters>37654.296920592</DistanceMeters>
          </Trackpoint>
          <Trackpoint>
            <Time>2021-03-13T09:33:06.000Z</Time>
            <Position>
              <LatitudeDegrees>36.74527888186275959014892578125</LatitudeDegrees>
              <LongitudeDegrees>-4.04457950033247470855712890625</LongitudeDegrees>
            </Position>
            <AltitudeMeters>-5.599999904632568359375</AltitudeMeters>
            <DistanceMeters>37687.599276343</DistanceMeters>
          </Trackpoint>
          <Trackpoint>
            <Time>2021-03-13T09:33:10.000Z</Time>
            <Position>
              <LatitudeDegrees>36.7452013492584228515625</LatitudeDegrees>
              <LongitudeDegrees>-4.04420700855553150177001953125</LongitudeDegrees>
            </Position>
            <AltitudeMeters>-5.599999904632568359375</AltitudeMeters>
            <DistanceMeters>37721.923262322</DistanceMeters>
          </Trackpoint>
          <Trackpoint>
            <Time>2021-03-13T09:33:14.000Z</Time>
            <Position>
              <LatitudeDegrees>36.745126247406005859375</LatitudeDegrees>
              <LongitudeDegrees>-4.043832756578922271728515625</LongitudeDegrees>
            </Position>
            <AltitudeMeters>-5.80000019073486328125</AltitudeMeters>
            <DistanceMeters>37756.332381797</DistanceMeters>
          </Trackpoint>
          <Trackpoint>
            <Time>2021-03-13T09:33:20.000Z</Time>
            <Position>
              <LatitudeDegrees>36.74500814639031887054443359375</LatitudeDegrees>
              <LongitudeDegrees>-4.04326857067644596099853515625</LongitudeDegrees>
            </Position>
            <AltitudeMeters>-5.80000019073486328125</AltitudeMeters>
            <DistanceMeters>37808.339001535</DistanceMeters>
          </Trackpoint>
          <Trackpoint>
            <Time>2021-03-13T09:33:25.000Z</Time>
            <Position>
              <LatitudeDegrees>36.7449044622480869293212890625</LatitudeDegrees>
              <LongitudeDegrees>-4.04279599897563457489013671875</LongitudeDegrees>
            </Position>
            <AltitudeMeters>-6</AltitudeMeters>
            <DistanceMeters>37852.03765375</DistanceMeters>
          </Trackpoint>
          <Trackpoint>
            <Time>2021-03-13T09:33:31.000Z</Time>
            <Position>
              <LatitudeDegrees>36.7447877861559391021728515625</LatitudeDegrees>
              <LongitudeDegrees>-4.0422346629202365875244140625</LongitudeDegrees>
            </Position>
            <AltitudeMeters>-6.19999980926513671875</AltitudeMeters>
            <DistanceMeters>37903.758469246</DistanceMeters>
          </Trackpoint>
          <Trackpoint>
            <Time>2021-03-13T09:33:34.000Z</Time>
            <Position>
              <LatitudeDegrees>36.744724921882152557373046875</LatitudeDegrees>
              <LongitudeDegrees>-4.04194674454629421234130859375</LongitudeDegrees>
            </Position>
            <AltitudeMeters>-6.19999980926513671875</AltitudeMeters>
            <DistanceMeters>37930.373244963</DistanceMeters>
          </Trackpoint>
          <Trackpoint>
            <Time>2021-03-13T09:33:40.000Z</Time>
            <Position>
              <LatitudeDegrees>36.74460413865745067596435546875</LatitudeDegrees>
              <LongitudeDegrees>-4.04136554338037967681884765625</LongitudeDegrees>
            </Position>
            <AltitudeMeters>-6</AltitudeMeters>
            <DistanceMeters>37983.923812805</DistanceMeters>
          </Trackpoint>
          <Trackpoint>
            <Time>2021-03-13T09:33:46.000Z</Time>
            <Position>
              <LatitudeDegrees>36.7444957606494426727294921875</LatitudeDegrees>
              <LongitudeDegrees>-4.04083572328090667724609375</LongitudeDegrees>
            </Position>
            <AltitudeMeters>-5.80000019073486328125</AltitudeMeters>
            <DistanceMeters>38032.692426217</DistanceMeters>
          </Trackpoint>
          <Trackpoint>
            <Time>2021-03-13T09:33:54.000Z</Time>
            <Position>
              <LatitudeDegrees>36.74434698186814785003662109375</LatitudeDegrees>
              <LongitudeDegrees>-4.0401475690305233001708984375</LongitudeDegrees>
            </Position>
            <AltitudeMeters>-6</AltitudeMeters>
            <DistanceMeters>38096.261889009</DistanceMeters>
          </Trackpoint>
          <Trackpoint>
            <Time>2021-03-13T09:33:55.000Z</Time>
            <Position>
              <LatitudeDegrees>36.74432904459536075592041015625</LatitudeDegrees>
              <LongitudeDegrees>-4.0400652587413787841796875</LongitudeDegrees>
            </Position>
            <AltitudeMeters>-6</AltitudeMeters>
            <DistanceMeters>38103.86996301</DistanceMeters>
          </Trackpoint>
          <Trackpoint>
            <Time>2021-03-13T09:34:00.000Z</Time>
            <Position>
              <LatitudeDegrees>36.74423634074628353118896484375</LatitudeDegrees>
              <LongitudeDegrees>-4.03963568620383739471435546875</LongitudeDegrees>
            </Position>
            <AltitudeMeters>-6</AltitudeMeters>
            <DistanceMeters>38143.54768456</DistanceMeters>
          </Trackpoint>
          <Trackpoint>
            <Time>2021-03-13T09:34:06.000Z</Time>
            <Position>
              <LatitudeDegrees>36.7441289685666561126708984375</LatitudeDegrees>
              <LongitudeDegrees>-4.03913226909935474395751953125</LongitudeDegrees>
            </Position>
            <AltitudeMeters>-6.400000095367431640625</AltitudeMeters>
            <DistanceMeters>38190.009626131</DistanceMeters>
          </Trackpoint>
          <Trackpoint>
            <Time>2021-03-13T09:34:14.000Z</Time>
            <Position>
              <LatitudeDegrees>36.7439948581159114837646484375</LatitudeDegrees>
              <LongitudeDegrees>-4.03849004767835140228271484375</LongitudeDegrees>
            </Position>
            <AltitudeMeters>-6.400000095367431640625</AltitudeMeters>
            <DistanceMeters>38249.201125014</DistanceMeters>
          </Trackpoint>
          <Trackpoint>
            <Time>2021-03-13T09:34:17.000Z</Time>
            <Position>
              <LatitudeDegrees>36.7439388670027256011962890625</LatitudeDegrees>
              <LongitudeDegrees>-4.03823641128838062286376953125</LongitudeDegrees>
            </Position>
            <AltitudeMeters>-6.400000095367431640625</AltitudeMeters>
            <DistanceMeters>38272.665220155</DistanceMeters>
          </Trackpoint>
          <Trackpoint>
            <Time>2021-03-13T09:34:24.000Z</Time>
            <Position>
              <LatitudeDegrees>36.7438097856938838958740234375</LatitudeDegrees>
              <LongitudeDegrees>-4.03759653680026531219482421875</LongitudeDegrees>
            </Position>
            <AltitudeMeters>-6.400000095367431640625</AltitudeMeters>
            <DistanceMeters>38331.51515005</DistanceMeters>
          </Trackpoint>
          <Trackpoint>
            <Time>2021-03-13T09:34:32.000Z</Time>
            <Position>
              <LatitudeDegrees>36.74366368912160396575927734375</LatitudeDegrees>
              <LongitudeDegrees>-4.0368933789432048797607421875</LongitudeDegrees>
            </Position>
            <AltitudeMeters>-6.19999980926513671875</AltitudeMeters>
            <DistanceMeters>38396.302465576</DistanceMeters>
          </Trackpoint>
          <Trackpoint>
            <Time>2021-03-13T09:34:34.000Z</Time>
            <Position>
              <LatitudeDegrees>36.7436349391937255859375</LatitudeDegrees>
              <LongitudeDegrees>-4.03671325184404850006103515625</LongitudeDegrees>
            </Position>
            <AltitudeMeters>-6.19999980926513671875</AltitudeMeters>
            <DistanceMeters>38412.683483603</DistanceMeters>
          </Trackpoint>
          <Trackpoint>
            <Time>2021-03-13T09:34:39.000Z</Time>
            <Position>
              <LatitudeDegrees>36.7435432411730289459228515625</LatitudeDegrees>
              <LongitudeDegrees>-4.03626029379665851593017578125</LongitudeDegrees>
            </Position>
            <AltitudeMeters>-6.19999980926513671875</AltitudeMeters>
            <DistanceMeters>38454.351370493</DistanceMeters>
          </Trackpoint>
          <Trackpoint>
            <Time>2021-03-13T09:34:45.000Z</Time>
            <Position>
              <LatitudeDegrees>36.7434161715209484100341796875</LatitudeDegrees>
              <LongitudeDegrees>-4.03570557944476604461669921875</LongitudeDegrees>
            </Position>
            <AltitudeMeters>-6</AltitudeMeters>
            <DistanceMeters>38505.807436941</DistanceMeters>
          </Trackpoint>
          <Trackpoint>
            <Time>2021-03-13T09:34:53.000Z</Time>
            <Position>
              <LatitudeDegrees>36.74324107356369495391845703125</LatitudeDegrees>
              <LongitudeDegrees>-4.03498406521975994110107421875</LongitudeDegrees>
            </Position>
            <AltitudeMeters>-5.400000095367431640625</AltitudeMeters>
            <DistanceMeters>38573.044864401</DistanceMeters>
          </Trackpoint>
          <Trackpoint>
            <Time>2021-03-13T09:34:57.000Z</Time>
            <Position>
              <LatitudeDegrees>36.7431217990815639495849609375</LatitudeDegrees>
              <LongitudeDegrees>-4.0346560813486576080322265625</LongitudeDegrees>
            </Position>
            <AltitudeMeters>-4.599999904632568359375</AltitudeMeters>
            <DistanceMeters>38605.168672953</DistanceMeters>
          </Trackpoint>
          <Trackpoint>
            <Time>2021-03-13T09:35:01.000Z</Time>
            <Position>
              <LatitudeDegrees>36.74300260841846466064453125</LatitudeDegrees>
              <LongitudeDegrees>-4.03436849825084209442138671875</LongitudeDegrees>
            </Position>
            <AltitudeMeters>-4</AltitudeMeters>
            <DistanceMeters>38634.045538765</DistanceMeters>
          </Trackpoint>
          <Trackpoint>
            <Time>2021-03-13T09:35:04.000Z</Time>
            <Position>
              <LatitudeDegrees>36.74290604889392852783203125</LatitudeDegrees>
              <LongitudeDegrees>-4.0341474674642086029052734375</LongitudeDegrees>
            </Position>
            <AltitudeMeters>-3.599999904632568359375</AltitudeMeters>
            <DistanceMeters>38656.498402896</DistanceMeters>
          </Trackpoint>
          <Trackpoint>
            <Time>2021-03-13T09:35:09.000Z</Time>
            <Position>
              <LatitudeDegrees>36.74275173805654048919677734375</LatitudeDegrees>
              <LongitudeDegrees>-4.03377472423017024993896484375</LongitudeDegrees>
            </Position>
            <AltitudeMeters>-3</AltitudeMeters>
            <DistanceMeters>38693.917698098</DistanceMeters>
          </Trackpoint>
          <Trackpoint>
            <Time>2021-03-13T09:35:11.000Z</Time>
            <Position>
              <LatitudeDegrees>36.74269574694335460662841796875</LatitudeDegrees>
              <LongitudeDegrees>-4.0336180664598941802978515625</LongitudeDegrees>
            </Position>
            <AltitudeMeters>-2.2000000476837158203125</AltitudeMeters>
            <DistanceMeters>38709.216999112</DistanceMeters>
          </Trackpoint>
          <Trackpoint>
            <Time>2021-03-13T09:35:16.000Z</Time>
            <Position>
              <LatitudeDegrees>36.742591559886932373046875</LatitudeDegrees>
              <LongitudeDegrees>-4.0331865660846233367919921875</LongitudeDegrees>
            </Position>
            <AltitudeMeters>-1.2000000476837158203125</AltitudeMeters>
            <DistanceMeters>38749.411389725</DistanceMeters>
          </Trackpoint>
          <Trackpoint>
            <Time>2021-03-13T09:35:17.000Z</Time>
            <Position>
              <LatitudeDegrees>36.7425813339650630950927734375</LatitudeDegrees>
              <LongitudeDegrees>-4.033100567758083343505859375</LongitudeDegrees>
            </Position>
            <AltitudeMeters>-1.2000000476837158203125</AltitudeMeters>
            <DistanceMeters>38757.165825813</DistanceMeters>
          </Trackpoint>
          <Trackpoint>
            <Time>2021-03-13T09:35:22.000Z</Time>
            <Position>
              <LatitudeDegrees>36.742571108043193817138671875</LatitudeDegrees>
              <LongitudeDegrees>-4.03265993110835552215576171875</LongitudeDegrees>
            </Position>
            <AltitudeMeters>-0.20000000298023223876953125</AltitudeMeters>
            <DistanceMeters>38796.482547522</DistanceMeters>
          </Trackpoint>
          <Trackpoint>
            <Time>2021-03-13T09:35:23.000Z</Time>
            <Position>
              <LatitudeDegrees>36.74257605336606502532958984375</LatitudeDegrees>
              <LongitudeDegrees>-4.0325706638395786285400390625</LongitudeDegrees>
            </Position>
            <AltitudeMeters>0</AltitudeMeters>
            <DistanceMeters>38804.463660179</DistanceMeters>
          </Trackpoint>
          <Trackpoint>
            <Time>2021-03-13T09:35:28.000Z</Time>
            <Position>
              <LatitudeDegrees>36.74260756932199001312255859375</LatitudeDegrees>
              <LongitudeDegrees>-4.0321314521133899688720703125</LongitudeDegrees>
            </Position>
            <AltitudeMeters>1.2000000476837158203125</AltitudeMeters>
            <DistanceMeters>38843.793585996</DistanceMeters>
          </Trackpoint>
          <Trackpoint>
            <Time>2021-03-13T09:35:30.000Z</Time>
            <Position>
              <LatitudeDegrees>36.74262114800512790679931640625</LatitudeDegrees>
              <LongitudeDegrees>-4.03192810714244842529296875</LongitudeDegrees>
            </Position>
            <AltitudeMeters>1.39999997615814208984375</AltitudeMeters>
            <DistanceMeters>38861.992876473</DistanceMeters>
          </Trackpoint>
          <Trackpoint>
            <Time>2021-03-13T09:35:32.000Z</Time>
            <Position>
              <LatitudeDegrees>36.7426339723169803619384765625</LatitudeDegrees>
              <LongitudeDegrees>-4.03174093924462795257568359375</LongitudeDegrees>
            </Position>
            <AltitudeMeters>1.39999997615814208984375</AltitudeMeters>
            <DistanceMeters>38878.746978248</DistanceMeters>
          </Trackpoint>
          <Trackpoint>
            <Time>2021-03-13T09:35:37.000Z</Time>
            <Position>
              <LatitudeDegrees>36.74267261289060115814208984375</LatitudeDegrees>
              <LongitudeDegrees>-4.0312614105641841888427734375</LongitudeDegrees>
            </Position>
            <AltitudeMeters>1.39999997615814208984375</AltitudeMeters>
            <DistanceMeters>38921.731627386</DistanceMeters>
          </Trackpoint>
          <Trackpoint>
            <Time>2021-03-13T09:35:40.000Z</Time>
            <Position>
              <LatitudeDegrees>36.7426921427249908447265625</LatitudeDegrees>
              <LongitudeDegrees>-4.03097919188439846038818359375</LongitudeDegrees>
            </Position>
            <AltitudeMeters>1.39999997615814208984375</AltitudeMeters>
            <DistanceMeters>38946.996405508</DistanceMeters>
          </Trackpoint>
          <Trackpoint>
            <Time>2021-03-13T09:35:46.000Z</Time>
            <Position>
              <LatitudeDegrees>36.7427261732518672943115234375</LatitudeDegrees>
              <LongitudeDegrees>-4.03030243702232837677001953125</LongitudeDegrees>
            </Position>
            <AltitudeMeters>0.800000011920928955078125</AltitudeMeters>
            <DistanceMeters>39007.474769108</DistanceMeters>
          </Trackpoint>
          <Trackpoint>
            <Time>2021-03-13T09:35:48.000Z</Time>
            <Position>
              <LatitudeDegrees>36.74275073222815990447998046875</LatitudeDegrees>
              <LongitudeDegrees>-4.03007143177092075347900390625</LongitudeDegrees>
            </Position>
            <AltitudeMeters>0.4000000059604644775390625</AltitudeMeters>
            <DistanceMeters>39028.258482365</DistanceMeters>
          </Trackpoint>
          <Trackpoint>
            <Time>2021-03-13T09:35:50.000Z</Time>
            <Position>
              <LatitudeDegrees>36.74279985018074512481689453125</LatitudeDegrees>
              <LongitudeDegrees>-4.02984193526208400726318359375</LongitudeDegrees>
            </Position>
            <AltitudeMeters>-0.20000000298023223876953125</AltitudeMeters>
            <DistanceMeters>39049.444751735</DistanceMeters>
          </Trackpoint>
          <Trackpoint>
            <Time>2021-03-13T09:35:51.000Z</Time>
            <Position>
              <LatitudeDegrees>36.742831952869892120361328125</LatitudeDegrees>
              <LongitudeDegrees>-4.02973179705440998077392578125</LongitudeDegrees>
            </Position>
            <AltitudeMeters>-0.60000002384185791015625</AltitudeMeters>
            <DistanceMeters>39059.897690315</DistanceMeters>
          </Trackpoint>
          <Trackpoint>
            <Time>2021-03-13T09:35:52.000Z</Time>
            <Position>
              <LatitudeDegrees>36.74287260510027408599853515625</LatitudeDegrees>
              <LongitudeDegrees>-4.0296234190464019775390625</LongitudeDegrees>
            </Position>
            <AltitudeMeters>-0.800000011920928955078125</AltitudeMeters>
            <DistanceMeters>39070.57033686</DistanceMeters>
          </Trackpoint>
          <Trackpoint>
            <Time>2021-03-13T09:35:55.000Z</Time>
            <Position>
              <LatitudeDegrees>36.7430440150201320648193359375</LatitudeDegrees>
              <LongitudeDegrees>-4.02931672520935535430908203125</LongitudeDegrees>
            </Position>
            <AltitudeMeters>-1.39999997615814208984375</AltitudeMeters>
            <DistanceMeters>39103.920110853</DistanceMeters>
          </Trackpoint>
          <Trackpoint>
            <Time>2021-03-13T09:35:58.000Z</Time>
            <Position>
              <LatitudeDegrees>36.74325012601912021636962890625</LatitudeDegrees>
              <LongitudeDegrees>-4.02905906550586223602294921875</LongitudeDegrees>
            </Position>
            <AltitudeMeters>-2.7999999523162841796875</AltitudeMeters>
            <DistanceMeters>39136.391171595</DistanceMeters>
          </Trackpoint>
          <Trackpoint>
            <Time>2021-03-13T09:36:00.000Z</Time>
            <Position>
              <LatitudeDegrees>36.74342782236635684967041015625</LatitudeDegrees>
              <LongitudeDegrees>-4.02886443771421909332275390625</LongitudeDegrees>
            </Position>
            <AltitudeMeters>-3.2000000476837158203125</AltitudeMeters>
            <DistanceMeters>39162.706366299</DistanceMeters>
          </Trackpoint>
          <Trackpoint>
            <Time>2021-03-13T09:36:03.000Z</Time>
            <Position>
              <LatitudeDegrees>36.7436585761606693267822265625</LatitudeDegrees>
              <LongitudeDegrees>-4.02859621681272983551025390625</LongitudeDegrees>
            </Position>
            <AltitudeMeters>-3.7999999523162841796875</AltitudeMeters>
            <DistanceMeters>39197.80481482</DistanceMeters>
          </Trackpoint>
          <Trackpoint>
            <Time>2021-03-13T09:36:05.000Z</Time>
            <Position>
              <LatitudeDegrees>36.743793524801731109619140625</LatitudeDegrees>
              <LongitudeDegrees>-4.0284028463065624237060546875</LongitudeDegrees>
            </Position>
            <AltitudeMeters>-4.80000019073486328125</AltitudeMeters>
            <DistanceMeters>39220.674884514</DistanceMeters>
          </Trackpoint>
          <Trackpoint>
            <Time>2021-03-13T09:36:06.000Z</Time>
            <Position>
              <LatitudeDegrees>36.7438463307917118072509765625</LatitudeDegrees>
              <LongitudeDegrees>-4.028294049203395843505859375</LongitudeDegrees>
            </Position>
            <AltitudeMeters>-4.80000019073486328125</AltitudeMeters>
            <DistanceMeters>39232.019339083</DistanceMeters>
          </Trackpoint>
          <Trackpoint>
            <Time>2021-03-13T09:36:10.000Z</Time>
            <Position>
              <LatitudeDegrees>36.74398027360439300537109375</LatitudeDegrees>
              <LongitudeDegrees>-4.02784620411694049835205078125</LongitudeDegrees>
            </Position>
            <AltitudeMeters>-5.80000019073486328125</AltitudeMeters>
            <DistanceMeters>39274.653199186</DistanceMeters>
          </Trackpoint>
          <Trackpoint>
            <Time>2021-03-13T09:36:11.000Z</Time>
            <Position>
              <LatitudeDegrees>36.74400147981941699981689453125</LatitudeDegrees>
              <LongitudeDegrees>-4.02772248722612857818603515625</LongitudeDegrees>
            </Position>
            <AltitudeMeters>-6</AltitudeMeters>
            <DistanceMeters>39285.936996324</DistanceMeters>
          </Trackpoint>
          <Trackpoint>
            <Time>2021-03-13T09:36:14.000Z</Time>
            <Position>
              <LatitudeDegrees>36.744029223918914794921875</LatitudeDegrees>
              <LongitudeDegrees>-4.02735653333365917205810546875</LongitudeDegrees>
            </Position>
            <AltitudeMeters>-6.400000095367431640625</AltitudeMeters>
            <DistanceMeters>39318.721488221</DistanceMeters>
          </Trackpoint>
          <Trackpoint>
            <Time>2021-03-13T09:36:19.000Z</Time>
            <Position>
              <LatitudeDegrees>36.74405160360038280487060546875</LatitudeDegrees>
              <LongitudeDegrees>-4.02677290141582489013671875</LongitudeDegrees>
            </Position>
            <AltitudeMeters>-6.19999980926513671875</AltitudeMeters>
            <DistanceMeters>39370.834003223</DistanceMeters>
          </Trackpoint>
          <Trackpoint>
            <Time>2021-03-13T09:36:25.000Z</Time>
            <Position>
              <LatitudeDegrees>36.74412720836699008941650390625</LatitudeDegrees>
              <LongitudeDegrees>-4.0261330269277095794677734375</LongitudeDegrees>
            </Position>
            <AltitudeMeters>-5.599999904632568359375</AltitudeMeters>
            <DistanceMeters>39428.520306543</DistanceMeters>
          </Trackpoint>
          <Trackpoint>
            <Time>2021-03-13T09:36:26.000Z</Time>
            <Position>
              <LatitudeDegrees>36.744138859212398529052734375</LatitudeDegrees>
              <LongitudeDegrees>-4.0260485373437404632568359375</LongitudeDegrees>
            </Position>
            <AltitudeMeters>-5.599999904632568359375</AltitudeMeters>
            <DistanceMeters>39436.166857724</DistanceMeters>
          </Trackpoint>
          <Trackpoint>
            <Time>2021-03-13T09:36:29.000Z</Time>
            <Position>
              <LatitudeDegrees>36.7441914975643157958984375</LatitudeDegrees>
              <LongitudeDegrees>-4.0257102437317371368408203125</LongitudeDegrees>
            </Position>
            <AltitudeMeters>-5</AltitudeMeters>
            <DistanceMeters>39466.902087623</DistanceMeters>
          </Trackpoint>
          <Trackpoint>
            <Time>2021-03-13T09:36:32.000Z</Time>
            <Position>
              <LatitudeDegrees>36.74424421973526477813720703125</LatitudeDegrees>
              <LongitudeDegrees>-4.02540489099919795989990234375</LongitudeDegrees>
            </Position>
            <AltitudeMeters>-4.80000019073486328125</AltitudeMeters>
            <DistanceMeters>39494.760802241</DistanceMeters>
          </Trackpoint>
          <Trackpoint>
            <Time>2021-03-13T09:36:34.000Z</Time>
            <Position>
              <LatitudeDegrees>36.7442818544805049896240234375</LatitudeDegrees>
              <LongitudeDegrees>-4.025175981223583221435546875</LongitudeDegrees>
            </Position>
            <AltitudeMeters>-4.80000019073486328125</AltitudeMeters>
            <DistanceMeters>39515.601787749</DistanceMeters>
          </Trackpoint>
          <Trackpoint>
            <Time>2021-03-13T09:36:35.000Z</Time>
            <Position>
              <LatitudeDegrees>36.74430004321038722991943359375</LatitudeDegrees>
              <LongitudeDegrees>-4.0250601433217525482177734375</LongitudeDegrees>
            </Position>
            <AltitudeMeters>-4.599999904632568359375</AltitudeMeters>
            <DistanceMeters>39526.129615553</DistanceMeters>
          </Trackpoint>
          <Trackpoint>
            <Time>2021-03-13T09:36:40.000Z</Time>
            <Position>
              <LatitudeDegrees>36.7443589679896831512451171875</LatitudeDegrees>
              <LongitudeDegrees>-4.02445723302662372589111328125</LongitudeDegrees>
            </Position>
            <AltitudeMeters>-4.599999904632568359375</AltitudeMeters>
            <DistanceMeters>39580.300344011</DistanceMeters>
          </Trackpoint>
          <Trackpoint>
            <Time>2021-03-13T09:36:42.000Z</Time>
            <Position>
              <LatitudeDegrees>36.74434237182140350341796875</LatitudeDegrees>
              <LongitudeDegrees>-4.0241994895040988922119140625</LongitudeDegrees>
            </Position>
            <AltitudeMeters>-4.80000019073486328125</AltitudeMeters>
            <DistanceMeters>39603.361900382</DistanceMeters>
          </Trackpoint>
          <Trackpoint>
            <Time>2021-03-13T09:36:45.000Z</Time>
            <Position>
              <LatitudeDegrees>36.74430079758167266845703125</LatitudeDegrees>
              <LongitudeDegrees>-4.023867733776569366455078125</LongitudeDegrees>
            </Position>
            <AltitudeMeters>-5.19999980926513671875</AltitudeMeters>
            <DistanceMeters>39633.310093694</DistanceMeters>
          </Trackpoint>
          <Trackpoint>
            <Time>2021-03-13T09:36:48.000Z</Time>
            <Position>
              <LatitudeDegrees>36.7442593909800052642822265625</LatitudeDegrees>
              <LongitudeDegrees>-4.023547209799289703369140625</LongitudeDegrees>
            </Position>
            <AltitudeMeters>-5.19999980926513671875</AltitudeMeters>
            <DistanceMeters>39662.265966981</DistanceMeters>
          </Trackpoint>
          <Trackpoint>
            <Time>2021-03-13T09:36:50.000Z</Time>
            <Position>
              <LatitudeDegrees>36.74423013813793659210205078125</LatitudeDegrees>
              <LongitudeDegrees>-4.0233309566974639892578125</LongitudeDegrees>
            </Position>
            <AltitudeMeters>-5.400000095367431640625</AltitudeMeters>
            <DistanceMeters>39681.826241492</DistanceMeters>
          </Trackpoint>
          <Trackpoint>
            <Time>2021-03-13T09:36:56.000Z</Time>
            <Position>
              <LatitudeDegrees>36.74414045177400112152099609375</LatitudeDegrees>
              <LongitudeDegrees>-4.02264741249382495880126953125</LongitudeDegrees>
            </Position>
            <AltitudeMeters>-5.80000019073486328125</AltitudeMeters>
            <DistanceMeters>39743.60201147</DistanceMeters>
          </Trackpoint>
          <Trackpoint>
            <Time>2021-03-13T09:36:57.000Z</Time>
            <Position>
              <LatitudeDegrees>36.7441259510815143585205078125</LatitudeDegrees>
              <LongitudeDegrees>-4.02253501117229461669921875</LongitudeDegrees>
            </Position>
            <AltitudeMeters>-5.80000019073486328125</AltitudeMeters>
            <DistanceMeters>39753.756095025</DistanceMeters>
          </Trackpoint>
          <Trackpoint>
            <Time>2021-03-13T09:36:59.000Z</Time>
            <Position>
              <LatitudeDegrees>36.7440976202487945556640625</LatitudeDegrees>
              <LongitudeDegrees>-4.02231263928115367889404296875</LongitudeDegrees>
            </Position>
            <AltitudeMeters>-5.80000019073486328125</AltitudeMeters>
            <DistanceMeters>39773.838007633</DistanceMeters>
          </Trackpoint>
          <Trackpoint>
            <Time>2021-03-13T09:37:05.000Z</Time>
            <Position>
              <LatitudeDegrees>36.74402444623410701751708984375</LatitudeDegrees>
              <LongitudeDegrees>-4.02168936096131801605224609375</LongitudeDegrees>
            </Position>
            <AltitudeMeters>-6</AltitudeMeters>
            <DistanceMeters>39830.020417878</DistanceMeters>
          </Trackpoint>
          <Trackpoint>
            <Time>2021-03-13T09:37:07.000Z</Time>
            <Position>
              <LatitudeDegrees>36.74399728886783123016357421875</LatitudeDegrees>
              <LongitudeDegrees>-4.02145617641508579254150390625</LongitudeDegrees>
            </Position>
            <AltitudeMeters>-6</AltitudeMeters>
            <DistanceMeters>39851.036365845</DistanceMeters>
          </Trackpoint>
          <Trackpoint>
            <Time>2021-03-13T09:37:09.000Z</Time>
            <Position>
              <LatitudeDegrees>36.7439734004437923431396484375</LatitudeDegrees>
              <LongitudeDegrees>-4.0212708525359630584716796875</LongitudeDegrees>
            </Position>
            <AltitudeMeters>-6.19999980926513671875</AltitudeMeters>
            <DistanceMeters>39867.777527173</DistanceMeters>
          </Trackpoint>
          <Trackpoint>
            <Time>2021-03-13T09:37:10.000Z</Time>
            <Position>
              <LatitudeDegrees>36.7439646832644939422607421875</LatitudeDegrees>
              <LongitudeDegrees>-4.02117068879306316375732421875</LongitudeDegrees>
            </Position>
            <AltitudeMeters>-6.19999980926513671875</AltitudeMeters>
            <DistanceMeters>39876.763457484</DistanceMeters>
          </Trackpoint>
          <Trackpoint>
            <Time>2021-03-13T09:37:15.000Z</Time>
            <Position>
              <LatitudeDegrees>36.74391447566449642181396484375</LatitudeDegrees>
              <LongitudeDegrees>-4.0206797607243061065673828125</LongitudeDegrees>
            </Position>
            <AltitudeMeters>-6</AltitudeMeters>
            <DistanceMeters>39920.903443026</DistanceMeters>
          </Trackpoint>
          <Trackpoint>
            <Time>2021-03-13T09:37:17.000Z</Time>
            <Position>
              <LatitudeDegrees>36.743884384632110595703125</LatitudeDegrees>
              <LongitudeDegrees>-4.0204564668238162994384765625</LongitudeDegrees>
            </Position>
            <AltitudeMeters>-6</AltitudeMeters>
            <DistanceMeters>39941.098352595</DistanceMeters>
          </Trackpoint>
          <Trackpoint>
            <Time>2021-03-13T09:37:19.000Z</Time>
            <Position>
              <LatitudeDegrees>36.7438590712845325469970703125</LatitudeDegrees>
              <LongitudeDegrees>-4.02027198113501071929931640625</LongitudeDegrees>
            </Position>
            <AltitudeMeters>-5.80000019073486328125</AltitudeMeters>
            <DistanceMeters>39957.79170933</DistanceMeters>
          </Trackpoint>
          <Trackpoint>
            <Time>2021-03-13T09:37:26.000Z</Time>
            <Position>
              <LatitudeDegrees>36.74376795999705791473388671875</LatitudeDegrees>
              <LongitudeDegrees>-4.0195723436772823333740234375</LongitudeDegrees>
            </Position>
            <AltitudeMeters>-5.400000095367431640625</AltitudeMeters>
            <DistanceMeters>40021.009833571</DistanceMeters>
          </Trackpoint>
          <Trackpoint>
            <Time>2021-03-13T09:37:28.000Z</Time>
            <Position>
              <LatitudeDegrees>36.74374516122043132781982421875</LatitudeDegrees>
              <LongitudeDegrees>-4.01939640752971172332763671875</LongitudeDegrees>
            </Position>
            <AltitudeMeters>-5.400000095367431640625</AltitudeMeters>
            <DistanceMeters>40036.905164297</DistanceMeters>
          </Trackpoint>
          <Trackpoint>
            <Time>2021-03-13T09:37:31.000Z</Time>
            <Position>
              <LatitudeDegrees>36.7437112145125865936279296875</LatitudeDegrees>
              <LongitudeDegrees>-4.0191713534295558929443359375</LongitudeDegrees>
            </Position>
            <AltitudeMeters>-5.19999980926513671875</AltitudeMeters>
            <DistanceMeters>40057.329940222</DistanceMeters>
          </Trackpoint>
          <Trackpoint>
            <Time>2021-03-13T09:37:34.000Z</Time>
            <Position>
              <LatitudeDegrees>36.7436917684972286224365234375</LatitudeDegrees>
              <LongitudeDegrees>-4.018932469189167022705078125</LongitudeDegrees>
            </Position>
            <AltitudeMeters>-5</AltitudeMeters>
            <DistanceMeters>40078.74534408</DistanceMeters>
          </Trackpoint>
          <Trackpoint>
            <Time>2021-03-13T09:37:35.000Z</Time>
            <Position>
              <LatitudeDegrees>36.74367584288120269775390625</LatitudeDegrees>
              <LongitudeDegrees>-4.018839932978153228759765625</LongitudeDegrees>
            </Position>
            <AltitudeMeters>-4.80000019073486328125</AltitudeMeters>
            <DistanceMeters>40087.186690728</DistanceMeters>
          </Trackpoint>
          <Trackpoint>
            <Time>2021-03-13T09:37:40.000Z</Time>
            <Position>
              <LatitudeDegrees>36.74360501579940319061279296875</LatitudeDegrees>
              <LongitudeDegrees>-4.01833442039787769317626953125</LongitudeDegrees>
            </Position>
            <AltitudeMeters>-4.599999904632568359375</AltitudeMeters>
            <DistanceMeters>40132.956631019</DistanceMeters>
          </Trackpoint>
          <Trackpoint>
            <Time>2021-03-13T09:37:41.000Z</Time>
            <Position>
              <LatitudeDegrees>36.74359160475432872772216796875</LatitudeDegrees>
              <LongitudeDegrees>-4.018234424293041229248046875</LongitudeDegrees>
            </Position>
            <AltitudeMeters>-4.599999904632568359375</AltitudeMeters>
            <DistanceMeters>40141.999659951</DistanceMeters>
          </Trackpoint>
          <Trackpoint>
            <Time>2021-03-13T09:37:47.000Z</Time>
            <Position>
              <LatitudeDegrees>36.74350828863680362701416015625</LatitudeDegrees>
              <LongitudeDegrees>-4.01762832887470722198486328125</LongitudeDegrees>
            </Position>
            <AltitudeMeters>-4.599999904632568359375</AltitudeMeters>
            <DistanceMeters>40196.846129166</DistanceMeters>
          </Trackpoint>
          <Trackpoint>
            <Time>2021-03-13T09:37:48.000Z</Time>
            <Position>
              <LatitudeDegrees>36.74349420703947544097900390625</LatitudeDegrees>
              <LongitudeDegrees>-4.01752036996185779571533203125</LongitudeDegrees>
            </Position>
            <AltitudeMeters>-4.599999904632568359375</AltitudeMeters>
            <DistanceMeters>40206.601536674</DistanceMeters>
          </Trackpoint>
          <Trackpoint>
            <Time>2021-03-13T09:37:54.000Z</Time>
            <Position>
              <LatitudeDegrees>36.74337736330926418304443359375</LatitudeDegrees>
              <LongitudeDegrees>-4.0168324671685695648193359375</LongitudeDegrees>
            </Position>
            <AltitudeMeters>-5</AltitudeMeters>
            <DistanceMeters>40269.317872326</DistanceMeters>
          </Trackpoint>
          <Trackpoint>
            <Time>2021-03-13T09:37:59.000Z</Time>
            <Position>
              <LatitudeDegrees>36.74320687539875507354736328125</LatitudeDegrees>
              <LongitudeDegrees>-4.01626400649547576904296875</LongitudeDegrees>
            </Position>
            <AltitudeMeters>-5.599999904632568359375</AltitudeMeters>
            <DistanceMeters>40323.452915958</DistanceMeters>
          </Trackpoint>
          <Trackpoint>
            <Time>2021-03-13T09:38:05.000Z</Time>
            <Position>
              <LatitudeDegrees>36.74294921569526195526123046875</LatitudeDegrees>
              <LongitudeDegrees>-4.01563779450953006744384765625</LongitudeDegrees>
            </Position>
            <AltitudeMeters>-6.19999980926513671875</AltitudeMeters>
            <DistanceMeters>40386.236743249</DistanceMeters>
          </Trackpoint>
          <Trackpoint>
            <Time>2021-03-13T09:38:07.000Z</Time>
            <Position>
              <LatitudeDegrees>36.7428629659116268157958984375</LatitudeDegrees>
              <LongitudeDegrees>-4.01544190943241119384765625</LongitudeDegrees>
            </Position>
            <AltitudeMeters>-6.19999980926513671875</AltitudeMeters>
            <DistanceMeters>40406.171300532</DistanceMeters>
          </Trackpoint>
          <Trackpoint>
            <Time>2021-03-13T09:38:12.000Z</Time>
            <Position>
              <LatitudeDegrees>36.7426601238548755645751953125</LatitudeDegrees>
              <LongitudeDegrees>-4.01496875099837779998779296875</LongitudeDegrees>
            </Position>
            <AltitudeMeters>-5.400000095367431640625</AltitudeMeters>
            <DistanceMeters>40454.031757814</DistanceMeters>
          </Trackpoint>
          <Trackpoint>
            <Time>2021-03-13T09:38:14.000Z</Time>
            <Position>
              <LatitudeDegrees>36.74258644692599773406982421875</LatitudeDegrees>
              <LongitudeDegrees>-4.01478837244212627410888671875</LongitudeDegrees>
            </Position>
            <AltitudeMeters>-5.19999980926513671875</AltitudeMeters>
            <DistanceMeters>40472.089334074</DistanceMeters>
          </Trackpoint>
          <Trackpoint>
            <Time>2021-03-13T09:38:19.000Z</Time>
            <Position>
              <LatitudeDegrees>36.7424375005066394805908203125</LatitudeDegrees>
              <LongitudeDegrees>-4.01430456899106502532958984375</LongitudeDegrees>
            </Position>
            <AltitudeMeters>-4.80000019073486328125</AltitudeMeters>
            <DistanceMeters>40518.314727409</DistanceMeters>
          </Trackpoint>
          <Trackpoint>
            <Time>2021-03-13T09:38:25.000Z</Time>
            <Position>
              <LatitudeDegrees>36.74236399121582508087158203125</LatitudeDegrees>
              <LongitudeDegrees>-4.01372303254902362823486328125</LongitudeDegrees>
            </Position>
            <AltitudeMeters>-4.400000095367431640625</AltitudeMeters>
            <DistanceMeters>40570.823328996</DistanceMeters>
          </Trackpoint>
          <Trackpoint>
            <Time>2021-03-13T09:38:28.000Z</Time>
            <Position>
              <LatitudeDegrees>36.7423533461987972259521484375</LatitudeDegrees>
              <LongitudeDegrees>-4.0134220384061336517333984375</LongitudeDegrees>
            </Position>
            <AltitudeMeters>-4.19999980926513671875</AltitudeMeters>
            <DistanceMeters>40597.695230546</DistanceMeters>
          </Trackpoint>
          <Trackpoint>
            <Time>2021-03-13T09:38:33.000Z</Time>
            <Position>
              <LatitudeDegrees>36.74231789074838161468505859375</LatitudeDegrees>
              <LongitudeDegrees>-4.01293362490832805633544921875</LongitudeDegrees>
            </Position>
            <AltitudeMeters>-4.19999980926513671875</AltitudeMeters>
            <DistanceMeters>40641.435295317</DistanceMeters>
          </Trackpoint>
          <Trackpoint>
            <Time>2021-03-13T09:38:35.000Z</Time>
            <Position>
              <LatitudeDegrees>36.7422775737941265106201171875</LatitudeDegrees>
              <LongitudeDegrees>-4.012739248573780059814453125</LongitudeDegrees>
            </Position>
            <AltitudeMeters>-4</AltitudeMeters>
            <DistanceMeters>40659.342726028</DistanceMeters>
          </Trackpoint>
          <Trackpoint>
            <Time>2021-03-13T09:38:37.000Z</Time>
            <Position>
              <LatitudeDegrees>36.7422178946435451507568359375</LatitudeDegrees>
              <LongitudeDegrees>-4.01255585253238677978515625</LongitudeDegrees>
            </Position>
            <AltitudeMeters>-4</AltitudeMeters>
            <DistanceMeters>40676.99724722</DistanceMeters>
          </Trackpoint>
          <Trackpoint>
            <Time>2021-03-13T09:38:39.000Z</Time>
            <Position>
              <LatitudeDegrees>36.74215595237910747528076171875</LatitudeDegrees>
              <LongitudeDegrees>-4.01236415840685367584228515625</LongitudeDegrees>
            </Position>
            <AltitudeMeters>-4</AltitudeMeters>
            <DistanceMeters>40695.431939973</DistanceMeters>
          </Trackpoint>
          <Trackpoint>
            <Time>2021-03-13T09:38:42.000Z</Time>
            <Position>
              <LatitudeDegrees>36.74210532568395137786865234375</LatitudeDegrees>
              <LongitudeDegrees>-4.0120748989284038543701171875</LongitudeDegrees>
            </Position>
            <AltitudeMeters>-3.7999999523162841796875</AltitudeMeters>
            <DistanceMeters>40721.839280873</DistanceMeters>
          </Trackpoint>
          <Trackpoint>
            <Time>2021-03-13T09:38:48.000Z</Time>
            <Position>
              <LatitudeDegrees>36.74209610559046268463134765625</LatitudeDegrees>
              <LongitudeDegrees>-4.011461175978183746337890625</LongitudeDegrees>
            </Position>
            <AltitudeMeters>-3.7999999523162841796875</AltitudeMeters>
            <DistanceMeters>40776.587205161</DistanceMeters>
          </Trackpoint>
          <Trackpoint>
            <Time>2021-03-13T09:38:55.000Z</Time>
            <Position>
              <LatitudeDegrees>36.742039360105991363525390625</LatitudeDegrees>
              <LongitudeDegrees>-4.01077947579324245452880859375</LongitudeDegrees>
            </Position>
            <AltitudeMeters>-3.599999904632568359375</AltitudeMeters>
            <DistanceMeters>40837.71538739</DistanceMeters>
          </Trackpoint>
          <Trackpoint>
            <Time>2021-03-13T09:38:59.000Z</Time>
            <Position>
              <LatitudeDegrees>36.74190550111234188079833984375</LatitudeDegrees>
              <LongitudeDegrees>-4.01039675809442996978759765625</LongitudeDegrees>
            </Position>
            <AltitudeMeters>-3.400000095367431640625</AltitudeMeters>
            <DistanceMeters>40874.959798553</DistanceMeters>
          </Trackpoint>
          <Trackpoint>
            <Time>2021-03-13T09:39:01.000Z</Time>
            <Position>
              <LatitudeDegrees>36.74181832931935787200927734375</LatitudeDegrees>
              <LongitudeDegrees>-4.01020145975053310394287109375</LongitudeDegrees>
            </Position>
            <AltitudeMeters>-3.2000000476837158203125</AltitudeMeters>
            <DistanceMeters>40894.898205846</DistanceMeters>
          </Trackpoint>
          <Trackpoint>
            <Time>2021-03-13T09:39:08.000Z</Time>
            <Position>
              <LatitudeDegrees>36.7414745874702930450439453125</LatitudeDegrees>
              <LongitudeDegrees>-4.00966015644371509552001953125</LongitudeDegrees>
            </Position>
            <AltitudeMeters>-2.599999904632568359375</AltitudeMeters>
            <DistanceMeters>40956.498975675</DistanceMeters>
          </Trackpoint>
          <Trackpoint>
            <Time>2021-03-13T09:39:12.000Z</Time>
            <Position>
              <LatitudeDegrees>36.74126579426229000091552734375</LatitudeDegrees>
              <LongitudeDegrees>-4.009320773184299468994140625</LongitudeDegrees>
            </Position>
            <AltitudeMeters>-2.400000095367431640625</AltitudeMeters>
            <DistanceMeters>40994.660928044</DistanceMeters>
          </Trackpoint>
          <Trackpoint>
            <Time>2021-03-13T09:39:15.000Z</Time>
            <Position>
              <LatitudeDegrees>36.741140149533748626708984375</LatitudeDegrees>
              <LongitudeDegrees>-4.00906235910952091217041015625</LongitudeDegrees>
            </Position>
            <AltitudeMeters>-2.599999904632568359375</AltitudeMeters>
            <DistanceMeters>41021.620058829</DistanceMeters>
          </Trackpoint>
          <Trackpoint>
            <Time>2021-03-13T09:39:22.000Z</Time>
            <Position>
              <LatitudeDegrees>36.74093252979218959808349609375</LatitudeDegrees>
              <LongitudeDegrees>-4.0083945728838443756103515625</LongitudeDegrees>
            </Position>
            <AltitudeMeters>-2.400000095367431640625</AltitudeMeters>
            <DistanceMeters>41085.50663975</DistanceMeters>
          </Trackpoint>
          <Trackpoint>
            <Time>2021-03-13T09:39:28.000Z</Time>
            <Position>
              <LatitudeDegrees>36.740863211452960968017578125</LatitudeDegrees>
              <LongitudeDegrees>-4.007758386433124542236328125</LongitudeDegrees>
            </Position>
            <AltitudeMeters>-2.599999904632568359375</AltitudeMeters>
            <DistanceMeters>41142.771333676</DistanceMeters>
          </Trackpoint>
          <Trackpoint>
            <Time>2021-03-13T09:39:30.000Z</Time>
            <Position>
              <LatitudeDegrees>36.74086446873843669891357421875</LatitudeDegrees>
              <LongitudeDegrees>-4.0075459890067577362060546875</LongitudeDegrees>
            </Position>
            <AltitudeMeters>-2.7999999523162841796875</AltitudeMeters>
            <DistanceMeters>41161.716000162</DistanceMeters>
          </Trackpoint>
          <Trackpoint>
            <Time>2021-03-13T09:39:34.000Z</Time>
            <Position>
              <LatitudeDegrees>36.74091576598584651947021484375</LatitudeDegrees>
              <LongitudeDegrees>-4.007111303508281707763671875</LongitudeDegrees>
            </Position>
            <AltitudeMeters>-3.2000000476837158203125</AltitudeMeters>
            <DistanceMeters>41200.904353543</DistanceMeters>
          </Trackpoint>
          <Trackpoint>
            <Time>2021-03-13T09:39:38.000Z</Time>
            <Position>
              <LatitudeDegrees>36.74101366661489009857177734375</LatitudeDegrees>
              <LongitudeDegrees>-4.00668642483651638031005859375</LongitudeDegrees>
            </Position>
            <AltitudeMeters>-3.599999904632568359375</AltitudeMeters>
            <DistanceMeters>41240.335516628</DistanceMeters>
          </Trackpoint>
          <Trackpoint>
            <Time>2021-03-13T09:39:41.000Z</Time>
            <Position>
              <LatitudeDegrees>36.74109983257949352264404296875</LatitudeDegrees>
              <LongitudeDegrees>-4.00636439211666584014892578125</LongitudeDegrees>
            </Position>
            <AltitudeMeters>-3.599999904632568359375</AltitudeMeters>
            <DistanceMeters>41270.616998471</DistanceMeters>
          </Trackpoint>
          <Trackpoint>
            <Time>2021-03-13T09:39:42.000Z</Time>
            <Position>
              <LatitudeDegrees>36.74112531356513500213623046875</LatitudeDegrees>
              <LongitudeDegrees>-4.0062779746949672698974609375</LongitudeDegrees>
            </Position>
            <AltitudeMeters>-3.7999999523162841796875</AltitudeMeters>
            <DistanceMeters>41278.829527981</DistanceMeters>
          </Trackpoint>
          <Trackpoint>
            <Time>2021-03-13T09:39:46.000Z</Time>
            <Position>
              <LatitudeDegrees>36.74124383367598056793212890625</LatitudeDegrees>
              <LongitudeDegrees>-4.00582007132470607757568359375</LongitudeDegrees>
            </Position>
            <AltitudeMeters>-4</AltitudeMeters>
            <DistanceMeters>41321.74816232</DistanceMeters>
          </Trackpoint>
          <Trackpoint>
            <Time>2021-03-13T09:39:49.000Z</Time>
            <Position>
              <LatitudeDegrees>36.741309463977813720703125</LatitudeDegrees>
              <LongitudeDegrees>-4.0055192448198795318603515625</LongitudeDegrees>
            </Position>
            <AltitudeMeters>-4.19999980926513671875</AltitudeMeters>
            <DistanceMeters>41349.555778292</DistanceMeters>
          </Trackpoint>
          <Trackpoint>
            <Time>2021-03-13T09:39:56.000Z</Time>
            <Position>
              <LatitudeDegrees>36.741399653255939483642578125</LatitudeDegrees>
              <LongitudeDegrees>-4.0047352015972137451171875</LongitudeDegrees>
            </Position>
            <AltitudeMeters>-4.400000095367431640625</AltitudeMeters>
            <DistanceMeters>41420.202372766</DistanceMeters>
          </Trackpoint>
          <Trackpoint>
            <Time>2021-03-13T09:40:01.000Z</Time>
            <Position>
              <LatitudeDegrees>36.74138330854475498199462890625</LatitudeDegrees>
              <LongitudeDegrees>-4.00417537428438663482666015625</LongitudeDegrees>
            </Position>
            <AltitudeMeters>-4.599999904632568359375</AltitudeMeters>
            <DistanceMeters>41470.167090256</DistanceMeters>
          </Trackpoint>
          <Trackpoint>
            <Time>2021-03-13T09:40:02.000Z</Time>
            <Position>
              <LatitudeDegrees>36.7413746751844882965087890625</LatitudeDegrees>
              <LongitudeDegrees>-4.00408552028238773345947265625</LongitudeDegrees>
            </Position>
            <AltitudeMeters>-4.80000019073486328125</AltitudeMeters>
            <DistanceMeters>41478.238209848</DistanceMeters>
          </Trackpoint>
          <Trackpoint>
            <Time>2021-03-13T09:40:03.000Z</Time>
            <Position>
              <LatitudeDegrees>36.741360090672969818115234375</LatitudeDegrees>
              <LongitudeDegrees>-4.00395358912646770477294921875</LongitudeDegrees>
            </Position>
            <AltitudeMeters>-5</AltitudeMeters>
            <DistanceMeters>41490.116929245</DistanceMeters>
          </Trackpoint>
          <Trackpoint>
            <Time>2021-03-13T09:40:08.000Z</Time>
            <Position>
              <LatitudeDegrees>36.74126629717648029327392578125</LatitudeDegrees>
              <LongitudeDegrees>-4.00342603214085102081298828125</LongitudeDegrees>
            </Position>
            <AltitudeMeters>-5.19999980926513671875</AltitudeMeters>
            <DistanceMeters>41538.314493762</DistanceMeters>
          </Trackpoint>
          <Trackpoint>
            <Time>2021-03-13T09:40:09.000Z</Time>
            <Position>
              <LatitudeDegrees>36.74124735407531261444091796875</LatitudeDegrees>
              <LongitudeDegrees>-4.0033402852714061737060546875</LongitudeDegrees>
            </Position>
            <AltitudeMeters>-5.19999980926513671875</AltitudeMeters>
            <DistanceMeters>41546.247944009</DistanceMeters>
          </Trackpoint>
          <Trackpoint>
            <Time>2021-03-13T09:40:16.000Z</Time>
            <Position>
              <LatitudeDegrees>36.7410906963050365447998046875</LatitudeDegrees>
              <LongitudeDegrees>-4.00261349044740200042724609375</LongitudeDegrees>
            </Position>
            <AltitudeMeters>-5</AltitudeMeters>
            <DistanceMeters>41613.375826642</DistanceMeters>
          </Trackpoint>
          <Trackpoint>
            <Time>2021-03-13T09:40:17.000Z</Time>
            <Position>
              <LatitudeDegrees>36.741070412099361419677734375</LatitudeDegrees>
              <LongitudeDegrees>-4.00251827202737331390380859375</LongitudeDegrees>
            </Position>
            <AltitudeMeters>-4.80000019073486328125</AltitudeMeters>
            <DistanceMeters>41622.163614404</DistanceMeters>
          </Trackpoint>
          <Trackpoint>
            <Time>2021-03-13T09:40:19.000Z</Time>
            <Position>
              <LatitudeDegrees>36.74102657474577426910400390625</LatitudeDegrees>
              <LongitudeDegrees>-4.00231383740901947021484375</LongitudeDegrees>
            </Position>
            <AltitudeMeters>-4.599999904632568359375</AltitudeMeters>
            <DistanceMeters>41641.039039329</DistanceMeters>
          </Trackpoint>
          <Trackpoint>
            <Time>2021-03-13T09:40:24.000Z</Time>
            <Position>
              <LatitudeDegrees>36.7409344576299190521240234375</LatitudeDegrees>
              <LongitudeDegrees>-4.00183212943375110626220703125</LongitudeDegrees>
            </Position>
            <AltitudeMeters>-4.19999980926513671875</AltitudeMeters>
            <DistanceMeters>41685.209700933</DistanceMeters>
          </Trackpoint>
          <Trackpoint>
            <Time>2021-03-13T09:40:28.000Z</Time>
            <Position>
              <LatitudeDegrees>36.74086161889135837554931640625</LatitudeDegrees>
              <LongitudeDegrees>-4.00145553052425384521484375</LongitudeDegrees>
            </Position>
            <AltitudeMeters>-3.7999999523162841796875</AltitudeMeters>
            <DistanceMeters>41719.763771571</DistanceMeters>
          </Trackpoint>
          <Trackpoint>
            <Time>2021-03-13T09:40:33.000Z</Time>
            <Position>
              <LatitudeDegrees>36.7407785542309284210205078125</LatitudeDegrees>
              <LongitudeDegrees>-4.00096225552260875701904296875</LongitudeDegrees>
            </Position>
            <AltitudeMeters>-3.400000095367431640625</AltitudeMeters>
            <DistanceMeters>41764.720748447</DistanceMeters>
          </Trackpoint>
          <Trackpoint>
            <Time>2021-03-13T09:40:40.000Z</Time>
            <Position>
              <LatitudeDegrees>36.74064234830439090728759765625</LatitudeDegrees>
              <LongitudeDegrees>-4.00025532580912113189697265625</LongitudeDegrees>
            </Position>
            <AltitudeMeters>-3.599999904632568359375</AltitudeMeters>
            <DistanceMeters>41829.570058552</DistanceMeters>
          </Trackpoint>
          <Trackpoint>
            <Time>2021-03-13T09:40:46.000Z</Time>
            <Position>
              <LatitudeDegrees>36.7405224032700061798095703125</LatitudeDegrees>
              <LongitudeDegrees>-3.99960924871265888214111328125</LongitudeDegrees>
            </Position>
            <AltitudeMeters>-4.19999980926513671875</AltitudeMeters>
            <DistanceMeters>41888.72126868</DistanceMeters>
          </Trackpoint>
          <Trackpoint>
            <Time>2021-03-13T09:40:49.000Z</Time>
            <Position>
              <LatitudeDegrees>36.7404593713581562042236328125</LatitudeDegrees>
              <LongitudeDegrees>-3.9992790855467319488525390625</LongitudeDegrees>
            </Position>
            <AltitudeMeters>-4.599999904632568359375</AltitudeMeters>
            <DistanceMeters>41918.993504769</DistanceMeters>
          </Trackpoint>
          <Trackpoint>
            <Time>2021-03-13T09:40:50.000Z</Time>
            <Position>
              <LatitudeDegrees>36.7404382489621639251708984375</LatitudeDegrees>
              <LongitudeDegrees>-3.99916869588196277618408203125</LongitudeDegrees>
            </Position>
            <AltitudeMeters>-5</AltitudeMeters>
            <DistanceMeters>41929.116414799</DistanceMeters>
          </Trackpoint>
          <Trackpoint>
            <Time>2021-03-13T09:40:55.000Z</Time>
            <Position>
              <LatitudeDegrees>36.7403339780867099761962890625</LatitudeDegrees>
              <LongitudeDegrees>-3.99861314333975315093994140625</LongitudeDegrees>
            </Position>
            <AltitudeMeters>-5.80000019073486328125</AltitudeMeters>
            <DistanceMeters>41980.008344076</DistanceMeters>
          </Trackpoint>
          <Trackpoint>
            <Time>2021-03-13T09:40:56.000Z</Time>
            <Position>
              <LatitudeDegrees>36.7403101734817028045654296875</LatitudeDegrees>
              <LongitudeDegrees>-3.99848322384059429168701171875</LongitudeDegrees>
            </Position>
            <AltitudeMeters>-6</AltitudeMeters>
            <DistanceMeters>41991.895042782</DistanceMeters>
          </Trackpoint>
          <Trackpoint>
            <Time>2021-03-13T09:40:57.000Z</Time>
            <Position>
              <LatitudeDegrees>36.74029349349439144134521484375</LatitudeDegrees>
              <LongitudeDegrees>-3.9983979798853397369384765625</LongitudeDegrees>
            </Position>
            <AltitudeMeters>-6.19999980926513671875</AltitudeMeters>
            <DistanceMeters>41999.721345135</DistanceMeters>
          </Trackpoint>
          <Trackpoint>
            <Time>2021-03-13T09:41:04.000Z</Time>
            <Position>
              <LatitudeDegrees>36.74015703611075878143310546875</LatitudeDegrees>
              <LongitudeDegrees>-3.99765592999756336212158203125</LongitudeDegrees>
            </Position>
            <AltitudeMeters>-6.599999904632568359375</AltitudeMeters>
            <DistanceMeters>42067.626959158</DistanceMeters>
          </Trackpoint>
          <Trackpoint>
            <Time>2021-03-13T09:41:07.000Z</Time>
            <Position>
              <LatitudeDegrees>36.74009501002728939056396484375</LatitudeDegrees>
              <LongitudeDegrees>-3.9973193965852260589599609375</LongitudeDegrees>
            </Position>
            <AltitudeMeters>-6.599999904632568359375</AltitudeMeters>
            <DistanceMeters>42098.427050891</DistanceMeters>
          </Trackpoint>
          <Trackpoint>
            <Time>2021-03-13T09:41:14.000Z</Time>
            <Position>
              <LatitudeDegrees>36.73997263424098491668701171875</LatitudeDegrees>
              <LongitudeDegrees>-3.9966159872710704803466796875</LongitudeDegrees>
            </Position>
            <AltitudeMeters>-6</AltitudeMeters>
            <DistanceMeters>42162.627566093</DistanceMeters>
          </Trackpoint>
          <Trackpoint>
            <Time>2021-03-13T09:41:17.000Z</Time>
            <Position>
              <LatitudeDegrees>36.73991278745234012603759765625</LatitudeDegrees>
              <LongitudeDegrees>-3.996297307312488555908203125</LongitudeDegrees>
            </Position>
            <AltitudeMeters>-6</AltitudeMeters>
            <DistanceMeters>42191.82180808</DistanceMeters>
          </Trackpoint>
          <Trackpoint>
            <Time>2021-03-13T09:41:22.000Z</Time>
            <Position>
              <LatitudeDegrees>36.73982108943164348602294921875</LatitudeDegrees>
              <LongitudeDegrees>-3.995868153870105743408203125</LongitudeDegrees>
            </Position>
            <AltitudeMeters>-5.400000095367431640625</AltitudeMeters>
            <DistanceMeters>42231.436666216</DistanceMeters>
          </Trackpoint>
          <Trackpoint>
            <Time>2021-03-13T09:41:24.000Z</Time>
            <Position>
              <LatitudeDegrees>36.73977063037455081939697265625</LatitudeDegrees>
              <LongitudeDegrees>-3.99572507478296756744384765625</LongitudeDegrees>
            </Position>
            <AltitudeMeters>-5.400000095367431640625</AltitudeMeters>
            <DistanceMeters>42245.379387819</DistanceMeters>
          </Trackpoint>
          <Trackpoint>
            <Time>2021-03-13T09:41:26.000Z</Time>
            <Position>
              <LatitudeDegrees>36.7397589795291423797607421875</LatitudeDegrees>
              <LongitudeDegrees>-3.9955365657806396484375</LongitudeDegrees>
            </Position>
            <AltitudeMeters>-5.19999980926513671875</AltitudeMeters>
            <DistanceMeters>42262.242814736</DistanceMeters>
          </Trackpoint>
          <Trackpoint>
            <Time>2021-03-13T09:41:27.000Z</Time>
            <Position>
              <LatitudeDegrees>36.7397489212453365325927734375</LatitudeDegrees>
              <LongitudeDegrees>-3.99544226936995983123779296875</LongitudeDegrees>
            </Position>
            <AltitudeMeters>-5.19999980926513671875</AltitudeMeters>
            <DistanceMeters>42270.727375385</DistanceMeters>
          </Trackpoint>
          <Trackpoint>
            <Time>2021-03-13T09:41:30.000Z</Time>
            <Position>
              <LatitudeDegrees>36.7396875657141208648681640625</LatitudeDegrees>
              <LongitudeDegrees>-3.99515376426279544830322265625</LongitudeDegrees>
            </Position>
            <AltitudeMeters>-5.19999980926513671875</AltitudeMeters>
            <DistanceMeters>42297.350801543</DistanceMeters>
          </Trackpoint>
          <Trackpoint>
            <Time>2021-03-13T09:41:35.000Z</Time>
            <Position>
              <LatitudeDegrees>36.73956711776554584503173828125</LatitudeDegrees>
              <LongitudeDegrees>-3.9946391992270946502685546875</LongitudeDegrees>
            </Position>
            <AltitudeMeters>-5.19999980926513671875</AltitudeMeters>
            <DistanceMeters>42345.164444505</DistanceMeters>
          </Trackpoint>
          <Trackpoint>
            <Time>2021-03-13T09:41:36.000Z</Time>
            <Position>
              <LatitudeDegrees>36.73954063095152378082275390625</LatitudeDegrees>
              <LongitudeDegrees>-3.9945298992097377777099609375</LongitudeDegrees>
            </Position>
            <AltitudeMeters>-5.19999980926513671875</AltitudeMeters>
            <DistanceMeters>42355.349606172</DistanceMeters>
          </Trackpoint>
          <Trackpoint>
            <Time>2021-03-13T09:41:42.000Z</Time>
            <Position>
              <LatitudeDegrees>36.73936846666038036346435546875</LatitudeDegrees>
              <LongitudeDegrees>-3.99387384764850139617919921875</LongitudeDegrees>
            </Position>
            <AltitudeMeters>-5.599999904632568359375</AltitudeMeters>
            <DistanceMeters>42416.922810855</DistanceMeters>
          </Trackpoint>
          <Trackpoint>
            <Time>2021-03-13T09:41:43.000Z</Time>
            <Position>
              <LatitudeDegrees>36.73933762125670909881591796875</LatitudeDegrees>
              <LongitudeDegrees>-3.99376387707889080047607421875</LongitudeDegrees>
            </Position>
            <AltitudeMeters>-5.599999904632568359375</AltitudeMeters>
            <DistanceMeters>42427.315101953</DistanceMeters>
          </Trackpoint>
          <Trackpoint>
            <Time>2021-03-13T09:41:49.000Z</Time>
            <Position>
              <LatitudeDegrees>36.73915187828242778778076171875</LatitudeDegrees>
              <LongitudeDegrees>-3.99310707114636898040771484375</LongitudeDegrees>
            </Position>
            <AltitudeMeters>-6.599999904632568359375</AltitudeMeters>
            <DistanceMeters>42489.438739252</DistanceMeters>
          </Trackpoint>
          <Trackpoint>
            <Time>2021-03-13T09:41:52.000Z</Time>
            <Position>
              <LatitudeDegrees>36.73905900679528713226318359375</LatitudeDegrees>
              <LongitudeDegrees>-3.9927844516932964324951171875</LongitudeDegrees>
            </Position>
            <AltitudeMeters>-6.599999904632568359375</AltitudeMeters>
            <DistanceMeters>42520.014609056</DistanceMeters>
          </Trackpoint>
          <Trackpoint>
            <Time>2021-03-13T09:41:59.000Z</Time>
            <Position>
              <LatitudeDegrees>36.73885381780564785003662109375</LatitudeDegrees>
              <LongitudeDegrees>-3.992049694061279296875</LongitudeDegrees>
            </Position>
            <AltitudeMeters>-6.599999904632568359375</AltitudeMeters>
            <DistanceMeters>42589.415865632</DistanceMeters>
          </Trackpoint>
          <Trackpoint>
            <Time>2021-03-13T09:42:00.000Z</Time>
            <Position>
              <LatitudeDegrees>36.73881878145039081573486328125</LatitudeDegrees>
              <LongitudeDegrees>-3.99192857556045055389404296875</LongitudeDegrees>
            </Position>
            <AltitudeMeters>-6.599999904632568359375</AltitudeMeters>
            <DistanceMeters>42600.901132572</DistanceMeters>
          </Trackpoint>
          <Trackpoint>
            <Time>2021-03-13T09:42:06.000Z</Time>
            <Position>
              <LatitudeDegrees>36.73865416087210178375244140625</LatitudeDegrees>
              <LongitudeDegrees>-3.9913263358175754547119140625</LongitudeDegrees>
            </Position>
            <AltitudeMeters>-6.599999904632568359375</AltitudeMeters>
            <DistanceMeters>42657.656349853</DistanceMeters>
          </Trackpoint>
          <Trackpoint>
            <Time>2021-03-13T09:42:08.000Z</Time>
            <Position>
              <LatitudeDegrees>36.73858861438930034637451171875</LatitudeDegrees>
              <LongitudeDegrees>-3.99109273217618465423583984375</LongitudeDegrees>
            </Position>
            <AltitudeMeters>-6.599999904632568359375</AltitudeMeters>
            <DistanceMeters>42679.732837025</DistanceMeters>
          </Trackpoint>
          <Trackpoint>
            <Time>2021-03-13T09:42:15.000Z</Time>
            <Position>
              <LatitudeDegrees>36.7383873648941516876220703125</LatitudeDegrees>
              <LongitudeDegrees>-3.9903503470122814178466796875</LongitudeDegrees>
            </Position>
            <AltitudeMeters>-6.599999904632568359375</AltitudeMeters>
            <DistanceMeters>42749.635562907</DistanceMeters>
          </Trackpoint>
          <Trackpoint>
            <Time>2021-03-13T09:42:22.000Z</Time>
            <Position>
              <LatitudeDegrees>36.738195084035396575927734375</LatitudeDegrees>
              <LongitudeDegrees>-3.98965070955455303192138671875</LongitudeDegrees>
            </Position>
            <AltitudeMeters>-6.19999980926513671875</AltitudeMeters>
            <DistanceMeters>42815.607307572</DistanceMeters>
          </Trackpoint>
          <Trackpoint>
            <Time>2021-03-13T09:42:24.000Z</Time>
            <Position>
              <LatitudeDegrees>36.73813641071319580078125</LatitudeDegrees>
              <LongitudeDegrees>-3.9894497953355312347412109375</LongitudeDegrees>
            </Position>
            <AltitudeMeters>-6</AltitudeMeters>
            <DistanceMeters>42834.680710249</DistanceMeters>
          </Trackpoint>
          <Trackpoint>
            <Time>2021-03-13T09:42:31.000Z</Time>
            <Position>
              <LatitudeDegrees>36.73794337548315525054931640625</LatitudeDegrees>
              <LongitudeDegrees>-3.98873322643339633941650390625</LongitudeDegrees>
            </Position>
            <AltitudeMeters>-5.599999904632568359375</AltitudeMeters>
            <DistanceMeters>42902.109714244</DistanceMeters>
          </Trackpoint>
          <Trackpoint>
            <Time>2021-03-13T09:42:33.000Z</Time>
            <Position>
              <LatitudeDegrees>36.737887971103191375732421875</LatitudeDegrees>
              <LongitudeDegrees>-3.9885294623672962188720703125</LongitudeDegrees>
            </Position>
            <AltitudeMeters>-5.599999904632568359375</AltitudeMeters>
            <DistanceMeters>42921.302287764</DistanceMeters>
          </Trackpoint>
          <Trackpoint>
            <Time>2021-03-13T09:42:40.000Z</Time>
            <Position>
              <LatitudeDegrees>36.73770298250019550323486328125</LatitudeDegrees>
              <LongitudeDegrees>-3.9878408052027225494384765625</LongitudeDegrees>
            </Position>
            <AltitudeMeters>-5.19999980926513671875</AltitudeMeters>
            <DistanceMeters>42986.086258076</DistanceMeters>
          </Trackpoint>
          <Trackpoint>
            <Time>2021-03-13T09:42:42.000Z</Time>
            <Position>
              <LatitudeDegrees>36.7376487515866756439208984375</LatitudeDegrees>
              <LongitudeDegrees>-3.9876496978104114532470703125</LongitudeDegrees>
            </Position>
            <AltitudeMeters>-5.19999980926513671875</AltitudeMeters>
            <DistanceMeters>43004.16931999</DistanceMeters>
          </Trackpoint>
          <Trackpoint>
            <Time>2021-03-13T09:42:47.000Z</Time>
            <Position>
              <LatitudeDegrees>36.73752612434327602386474609375</LatitudeDegrees>
              <LongitudeDegrees>-3.98718089796602725982666015625</LongitudeDegrees>
            </Position>
            <AltitudeMeters>-4</AltitudeMeters>
            <DistanceMeters>43048.155296377</DistanceMeters>
          </Trackpoint>
          <Trackpoint>
            <Time>2021-03-13T09:42:48.000Z</Time>
            <Position>
              <LatitudeDegrees>36.73750332556664943695068359375</LatitudeDegrees>
              <LongitudeDegrees>-3.987086601555347442626953125</LongitudeDegrees>
            </Position>
            <AltitudeMeters>-3.7999999523162841796875</AltitudeMeters>
            <DistanceMeters>43056.940514836</DistanceMeters>
          </Trackpoint>
          <Trackpoint>
            <Time>2021-03-13T09:42:52.000Z</Time>
            <Position>
              <LatitudeDegrees>36.7374013178050518035888671875</LatitudeDegrees>
              <LongitudeDegrees>-3.98670430295169353485107421875</LongitudeDegrees>
            </Position>
            <AltitudeMeters>-3</AltitudeMeters>
            <DistanceMeters>43092.880467461</DistanceMeters>
          </Trackpoint>
          <Trackpoint>
            <Time>2021-03-13T09:42:57.000Z</Time>
            <Position>
              <LatitudeDegrees>36.73728556372225284576416015625</LatitudeDegrees>
              <LongitudeDegrees>-3.9862911589443683624267578125</LongitudeDegrees>
            </Position>
            <AltitudeMeters>-1.7999999523162841796875</AltitudeMeters>
            <DistanceMeters>43131.918292976</DistanceMeters>
          </Trackpoint>
          <Trackpoint>
            <Time>2021-03-13T09:43:03.000Z</Time>
            <Position>
              <LatitudeDegrees>36.73713988624513149261474609375</LatitudeDegrees>
              <LongitudeDegrees>-3.98578112013638019561767578125</LongitudeDegrees>
            </Position>
            <AltitudeMeters>-1.2000000476837158203125</AltitudeMeters>
            <DistanceMeters>43180.214773347</DistanceMeters>
          </Trackpoint>
          <Trackpoint>
            <Time>2021-03-13T09:43:04.000Z</Time>
            <Position>
              <LatitudeDegrees>36.7371005751192569732666015625</LatitudeDegrees>
              <LongitudeDegrees>-3.98571037687361240386962890625</LongitudeDegrees>
            </Position>
            <AltitudeMeters>-1</AltitudeMeters>
            <DistanceMeters>43187.893731556</DistanceMeters>
          </Trackpoint>
          <Trackpoint>
            <Time>2021-03-13T09:43:05.000Z</Time>
            <Position>
              <LatitudeDegrees>36.737054474651813507080078125</LatitudeDegrees>
              <LongitudeDegrees>-3.98564214818179607391357421875</LongitudeDegrees>
            </Position>
            <AltitudeMeters>-1</AltitudeMeters>
            <DistanceMeters>43195.853317998</DistanceMeters>
          </Trackpoint>
          <Trackpoint>
            <Time>2021-03-13T09:43:07.000Z</Time>
            <Position>
              <LatitudeDegrees>36.73700778745114803314208984375</LatitudeDegrees>
              <LongitudeDegrees>-3.98547048680484294891357421875</LongitudeDegrees>
            </Position>
            <AltitudeMeters>-1</AltitudeMeters>
            <DistanceMeters>43212.022944876</DistanceMeters>
          </Trackpoint>
          <Trackpoint>
            <Time>2021-03-13T09:43:09.000Z</Time>
            <Position>
              <LatitudeDegrees>36.73699487932026386260986328125</LatitudeDegrees>
              <LongitudeDegrees>-3.98528181016445159912109375</LongitudeDegrees>
            </Position>
            <AltitudeMeters>-1</AltitudeMeters>
            <DistanceMeters>43228.913392031</DistanceMeters>
          </Trackpoint>
          <Trackpoint>
            <Time>2021-03-13T09:43:11.000Z</Time>
            <Position>
              <LatitudeDegrees>36.73695213161408901214599609375</LatitudeDegrees>
              <LongitudeDegrees>-3.9850942231714725494384765625</LongitudeDegrees>
            </Position>
            <AltitudeMeters>-1</AltitudeMeters>
            <DistanceMeters>43246.308732258</DistanceMeters>
          </Trackpoint>
          <Trackpoint>
            <Time>2021-03-13T09:43:17.000Z</Time>
            <Position>
              <LatitudeDegrees>36.736780889332294464111328125</LatitudeDegrees>
              <LongitudeDegrees>-3.98447957821190357208251953125</LongitudeDegrees>
            </Position>
            <AltitudeMeters>-1.2000000476837158203125</AltitudeMeters>
            <DistanceMeters>43304.351466342</DistanceMeters>
          </Trackpoint>
          <Trackpoint>
            <Time>2021-03-13T09:43:23.000Z</Time>
            <Position>
              <LatitudeDegrees>36.73660009168088436126708984375</LatitudeDegrees>
              <LongitudeDegrees>-3.98380600847303867340087890625</LongitudeDegrees>
            </Position>
            <AltitudeMeters>-2.599999904632568359375</AltitudeMeters>
            <DistanceMeters>43367.711984531</DistanceMeters>
          </Trackpoint>
          <Trackpoint>
            <Time>2021-03-13T09:43:24.000Z</Time>
            <Position>
              <LatitudeDegrees>36.73656991682946681976318359375</LatitudeDegrees>
              <LongitudeDegrees>-3.9836905896663665771484375</LongitudeDegrees>
            </Position>
            <AltitudeMeters>-2.599999904632568359375</AltitudeMeters>
            <DistanceMeters>43378.540861329</DistanceMeters>
          </Trackpoint>
          <Trackpoint>
            <Time>2021-03-13T09:43:25.000Z</Time>
            <Position>
              <LatitudeDegrees>36.73653739504516124725341796875</LatitudeDegrees>
              <LongitudeDegrees>-3.98357517085969448089599609375</LongitudeDegrees>
            </Position>
            <AltitudeMeters>-2.7999999523162841796875</AltitudeMeters>
            <DistanceMeters>43389.454049599</DistanceMeters>
          </Trackpoint>
          <Trackpoint>
            <Time>2021-03-13T09:43:29.000Z</Time>
            <Position>
              <LatitudeDegrees>36.73640546388924121856689453125</LatitudeDegrees>
              <LongitudeDegrees>-3.9831100590527057647705078125</LongitudeDegrees>
            </Position>
            <AltitudeMeters>-3.7999999523162841796875</AltitudeMeters>
            <DistanceMeters>43433.462602581</DistanceMeters>
          </Trackpoint>
          <Trackpoint>
            <Time>2021-03-13T09:43:30.000Z</Time>
            <Position>
              <LatitudeDegrees>36.736374534666538238525390625</LatitudeDegrees>
              <LongitudeDegrees>-3.9829940535128116607666015625</LongitudeDegrees>
            </Position>
            <AltitudeMeters>-4.19999980926513671875</AltitudeMeters>
            <DistanceMeters>43444.367099204</DistanceMeters>
          </Trackpoint>
          <Trackpoint>
            <Time>2021-03-13T09:43:33.000Z</Time>
            <Position>
              <LatitudeDegrees>36.73627789132297039031982421875</LatitudeDegrees>
              <LongitudeDegrees>-3.9826252497732639312744140625</LongitudeDegrees>
            </Position>
            <AltitudeMeters>-4.599999904632568359375</AltitudeMeters>
            <DistanceMeters>43478.977180112</DistanceMeters>
          </Trackpoint>
          <Trackpoint>
            <Time>2021-03-13T09:43:37.000Z</Time>
            <Position>
              <LatitudeDegrees>36.73614763654768466949462890625</LatitudeDegrees>
              <LongitudeDegrees>-3.9822131954133510589599609375</LongitudeDegrees>
            </Position>
            <AltitudeMeters>-4.599999904632568359375</AltitudeMeters>
            <DistanceMeters>43518.487157902</DistanceMeters>
          </Trackpoint>
          <Trackpoint>
            <Time>2021-03-13T09:43:40.000Z</Time>
            <Position>
              <LatitudeDegrees>36.73604588024318218231201171875</LatitudeDegrees>
              <LongitudeDegrees>-3.98189007304608821868896484375</LongitudeDegrees>
            </Position>
            <AltitudeMeters>-4.80000019073486328125</AltitudeMeters>
            <DistanceMeters>43549.454204872</DistanceMeters>
          </Trackpoint>
          <Trackpoint>
            <Time>2021-03-13T09:43:45.000Z</Time>
            <Position>
              <LatitudeDegrees>36.73589877784252166748046875</LatitudeDegrees>
              <LongitudeDegrees>-3.98137089796364307403564453125</LongitudeDegrees>
            </Position>
            <AltitudeMeters>-4.599999904632568359375</AltitudeMeters>
            <DistanceMeters>43598.572446329</DistanceMeters>
          </Trackpoint>
          <Trackpoint>
            <Time>2021-03-13T09:43:52.000Z</Time>
            <Position>
              <LatitudeDegrees>36.73570096492767333984375</LatitudeDegrees>
              <LongitudeDegrees>-3.98066036403179168701171875</LongitudeDegrees>
            </Position>
            <AltitudeMeters>-4.599999904632568359375</AltitudeMeters>
            <DistanceMeters>43665.665680991</DistanceMeters>
          </Trackpoint>
          <Trackpoint>
            <Time>2021-03-13T09:43:53.000Z</Time>
            <Position>
              <LatitudeDegrees>36.735671460628509521484375</LatitudeDegrees>
              <LongitudeDegrees>-3.9805569313466548919677734375</LongitudeDegrees>
            </Position>
            <AltitudeMeters>-4.599999904632568359375</AltitudeMeters>
            <DistanceMeters>43675.458505499</DistanceMeters>
          </Trackpoint>
          <Trackpoint>
            <Time>2021-03-13T09:43:59.000Z</Time>
            <Position>
              <LatitudeDegrees>36.735508181154727935791015625</LatitudeDegrees>
              <LongitudeDegrees>-3.97995402105152606964111328125</LongitudeDegrees>
            </Position>
            <AltitudeMeters>-4.80000019073486328125</AltitudeMeters>
            <DistanceMeters>43732.224540934</DistanceMeters>
          </Trackpoint>
          <Trackpoint>
            <Time>2021-03-13T09:44:01.000Z</Time>
            <Position>
              <LatitudeDegrees>36.7354305647313594818115234375</LatitudeDegrees>
              <LongitudeDegrees>-3.979750089347362518310546875</LongitudeDegrees>
            </Position>
            <AltitudeMeters>-4.80000019073486328125</AltitudeMeters>
            <DistanceMeters>43752.362134458</DistanceMeters>
          </Trackpoint>
          <Trackpoint>
            <Time>2021-03-13T09:44:03.000Z</Time>
            <Position>
              <LatitudeDegrees>36.7353269644081592559814453125</LatitudeDegrees>
              <LongitudeDegrees>-3.979605920612812042236328125</LongitudeDegrees>
            </Position>
            <AltitudeMeters>-5</AltitudeMeters>
            <DistanceMeters>43769.634269112</DistanceMeters>
          </Trackpoint>
          <Trackpoint>
            <Time>2021-03-13T09:44:05.000Z</Time>
            <Position>
              <LatitudeDegrees>36.7352129705250263214111328125</LatitudeDegrees>
              <LongitudeDegrees>-3.97944959811866283416748046875</LongitudeDegrees>
            </Position>
            <AltitudeMeters>-5</AltitudeMeters>
            <DistanceMeters>43788.48647717</DistanceMeters>
          </Trackpoint>
          <Trackpoint>
            <Time>2021-03-13T09:44:07.000Z</Time>
            <Position>
              <LatitudeDegrees>36.73518086783587932586669921875</LatitudeDegrees>
              <LongitudeDegrees>-3.9792473427951335906982421875</LongitudeDegrees>
            </Position>
            <AltitudeMeters>-5</AltitudeMeters>
            <DistanceMeters>43806.877522363</DistanceMeters>
          </Trackpoint>
          <Trackpoint>
            <Time>2021-03-13T09:44:12.000Z</Time>
            <Position>
              <LatitudeDegrees>36.73517592251300811767578125</LatitudeDegrees>
              <LongitudeDegrees>-3.97873043082654476165771484375</LongitudeDegrees>
            </Position>
            <AltitudeMeters>-5</AltitudeMeters>
            <DistanceMeters>43852.988495021</DistanceMeters>
          </Trackpoint>
          <Trackpoint>
            <Time>2021-03-13T09:44:13.000Z</Time>
            <Position>
              <LatitudeDegrees>36.73516410402953624725341796875</LatitudeDegrees>
              <LongitudeDegrees>-3.978626243770122528076171875</LongitudeDegrees>
            </Position>
            <AltitudeMeters>-4.80000019073486328125</AltitudeMeters>
            <DistanceMeters>43862.374036866</DistanceMeters>
          </Trackpoint>
          <Trackpoint>
            <Time>2021-03-13T09:44:14.000Z</Time>
            <Position>
              <LatitudeDegrees>36.73514465801417827606201171875</LatitudeDegrees>
              <LongitudeDegrees>-3.9785197935998439788818359375</LongitudeDegrees>
            </Position>
            <AltitudeMeters>-4.80000019073486328125</AltitudeMeters>
            <DistanceMeters>43872.113232057</DistanceMeters>
          </Trackpoint>
          <Trackpoint>
            <Time>2021-03-13T09:44:16.000Z</Time>
            <Position>
              <LatitudeDegrees>36.73509168438613414764404296875</LatitudeDegrees>
              <LongitudeDegrees>-3.97830806672573089599609375</LongitudeDegrees>
            </Position>
            <AltitudeMeters>-4.80000019073486328125</AltitudeMeters>
            <DistanceMeters>43891.897967427</DistanceMeters>
          </Trackpoint>
          <Trackpoint>
            <Time>2021-03-13T09:44:18.000Z</Time>
            <Position>
              <LatitudeDegrees>36.73503619618713855743408203125</LatitudeDegrees>
              <LongitudeDegrees>-3.97809742949903011322021484375</LongitudeDegrees>
            </Position>
            <AltitudeMeters>-4.80000019073486328125</AltitudeMeters>
            <DistanceMeters>43911.675398789</DistanceMeters>
          </Trackpoint>
          <Trackpoint>
            <Time>2021-03-13T09:44:25.000Z</Time>
            <Position>
              <LatitudeDegrees>36.7348377965390682220458984375</LatitudeDegrees>
              <LongitudeDegrees>-3.97738412953913211822509765625</LongitudeDegrees>
            </Position>
            <AltitudeMeters>-5</AltitudeMeters>
            <DistanceMeters>43979.023935951</DistanceMeters>
          </Trackpoint>
          <Trackpoint>
            <Time>2021-03-13T09:44:28.000Z</Time>
            <Position>
              <LatitudeDegrees>36.73475909046828746795654296875</LatitudeDegrees>
              <LongitudeDegrees>-3.977107107639312744140625</LongitudeDegrees>
            </Position>
            <AltitudeMeters>-4.80000019073486328125</AltitudeMeters>
            <DistanceMeters>44005.240978092</DistanceMeters>
          </Trackpoint>
          <Trackpoint>
            <Time>2021-03-13T09:44:30.000Z</Time>
            <Position>
              <LatitudeDegrees>36.7346911132335662841796875</LatitudeDegrees>
              <LongitudeDegrees>-3.97693905048072338104248046875</LongitudeDegrees>
            </Position>
            <AltitudeMeters>-4.599999904632568359375</AltitudeMeters>
            <DistanceMeters>44022.03249699</DistanceMeters>
          </Trackpoint>
          <Trackpoint>
            <Time>2021-03-13T09:44:31.000Z</Time>
            <Position>
              <LatitudeDegrees>36.73464777879416942596435546875</LatitudeDegrees>
              <LongitudeDegrees>-3.976860344409942626953125</LongitudeDegrees>
            </Position>
            <AltitudeMeters>-4.599999904632568359375</AltitudeMeters>
            <DistanceMeters>44030.549986887</DistanceMeters>
          </Trackpoint>
          <Trackpoint>
            <Time>2021-03-13T09:44:33.000Z</Time>
            <Position>
              <LatitudeDegrees>36.734566725790500640869140625</LatitudeDegrees>
              <LongitudeDegrees>-3.97669580765068531036376953125</LongitudeDegrees>
            </Position>
            <AltitudeMeters>-4.400000095367431640625</AltitudeMeters>
            <DistanceMeters>44047.777363136</DistanceMeters>
          </Trackpoint>
          <Trackpoint>
            <Time>2021-03-13T09:44:34.000Z</Time>
            <Position>
              <LatitudeDegrees>36.73454468138515949249267578125</LatitudeDegrees>
              <LongitudeDegrees>-3.976599834859371185302734375</LongitudeDegrees>
            </Position>
            <AltitudeMeters>-4.400000095367431640625</AltitudeMeters>
            <DistanceMeters>44056.683551517</DistanceMeters>
          </Trackpoint>
          <Trackpoint>
            <Time>2021-03-13T09:44:37.000Z</Time>
            <Position>
              <LatitudeDegrees>36.734502352774143218994140625</LatitudeDegrees>
              <LongitudeDegrees>-3.9762972481548786163330078125</LongitudeDegrees>
            </Position>
            <AltitudeMeters>-4</AltitudeMeters>
            <DistanceMeters>44084.082078573</DistanceMeters>
          </Trackpoint>
          <Trackpoint>
            <Time>2021-03-13T09:44:38.000Z</Time>
            <Position>
              <LatitudeDegrees>36.73447796143591403961181640625</LatitudeDegrees>
              <LongitudeDegrees>-3.97619674913585186004638671875</LongitudeDegrees>
            </Position>
            <AltitudeMeters>-4</AltitudeMeters>
            <DistanceMeters>44093.448358126</DistanceMeters>
          </Trackpoint>
          <Trackpoint>
            <Time>2021-03-13T09:44:41.000Z</Time>
            <Position>
              <LatitudeDegrees>36.734398417174816131591796875</LatitudeDegrees>
              <LongitudeDegrees>-3.9758949168026447296142578125</LongitudeDegrees>
            </Position>
            <AltitudeMeters>-3.7999999523162841796875</AltitudeMeters>
            <DistanceMeters>44121.789906422</DistanceMeters>
          </Trackpoint>
          <Trackpoint>
            <Time>2021-03-13T09:44:45.000Z</Time>
            <Position>
              <LatitudeDegrees>36.73428685404360294342041015625</LatitudeDegrees>
              <LongitudeDegrees>-3.9755018055438995361328125</LongitudeDegrees>
            </Position>
            <AltitudeMeters>-3.599999904632568359375</AltitudeMeters>
            <DistanceMeters>44158.988708206</DistanceMeters>
          </Trackpoint>
          <Trackpoint>
            <Time>2021-03-13T09:44:49.000Z</Time>
            <Position>
              <LatitudeDegrees>36.73418291844427585601806640625</LatitudeDegrees>
              <LongitudeDegrees>-3.97511933930218219757080078125</LongitudeDegrees>
            </Position>
            <AltitudeMeters>-3.2000000476837158203125</AltitudeMeters>
            <DistanceMeters>44195.012482102</DistanceMeters>
          </Trackpoint>
          <Trackpoint>
            <Time>2021-03-13T09:44:54.000Z</Time>
            <Position>
              <LatitudeDegrees>36.7340522445738315582275390625</LatitudeDegrees>
              <LongitudeDegrees>-3.97464509122073650360107421875</LongitudeDegrees>
            </Position>
            <AltitudeMeters>-2.599999904632568359375</AltitudeMeters>
            <DistanceMeters>44239.745544594</DistanceMeters>
          </Trackpoint>
          <Trackpoint>
            <Time>2021-03-13T09:45:01.000Z</Time>
            <Position>
              <LatitudeDegrees>36.73387639224529266357421875</LatitudeDegrees>
              <LongitudeDegrees>-3.973984010517597198486328125</LongitudeDegrees>
            </Position>
            <AltitudeMeters>-2.2000000476837158203125</AltitudeMeters>
            <DistanceMeters>44301.877321325</DistanceMeters>
          </Trackpoint>
          <Trackpoint>
            <Time>2021-03-13T09:45:02.000Z</Time>
            <Position>
              <LatitudeDegrees>36.733847893774509429931640625</LatitudeDegrees>
              <LongitudeDegrees>-3.9738866128027439117431640625</LongitudeDegrees>
            </Position>
            <AltitudeMeters>-2</AltitudeMeters>
            <DistanceMeters>44311.126696668</DistanceMeters>
          </Trackpoint>
          <Trackpoint>
            <Time>2021-03-13T09:45:09.000Z</Time>
            <Position>
              <LatitudeDegrees>36.733652092516422271728515625</LatitudeDegrees>
              <LongitudeDegrees>-3.9731736481189727783203125</LongitudeDegrees>
            </Position>
            <AltitudeMeters>-2</AltitudeMeters>
            <DistanceMeters>44378.353513485</DistanceMeters>
          </Trackpoint>
          <Trackpoint>
            <Time>2021-03-13T09:45:10.000Z</Time>
            <Position>
              <LatitudeDegrees>36.73362283967435359954833984375</LatitudeDegrees>
              <LongitudeDegrees>-3.97306627593934535980224609375</LongitudeDegrees>
            </Position>
            <AltitudeMeters>-2.2000000476837158203125</AltitudeMeters>
            <DistanceMeters>44388.46928465</DistanceMeters>
          </Trackpoint>
          <Trackpoint>
            <Time>2021-03-13T09:45:16.000Z</Time>
            <Position>
              <LatitudeDegrees>36.73344816081225872039794921875</LatitudeDegrees>
              <LongitudeDegrees>-3.97243930958211421966552734375</LongitudeDegrees>
            </Position>
            <AltitudeMeters>-2.400000095367431640625</AltitudeMeters>
            <DistanceMeters>44447.678019962</DistanceMeters>
          </Trackpoint>
          <Trackpoint>
            <Time>2021-03-13T09:45:21.000Z</Time>
            <Position>
              <LatitudeDegrees>36.733305417001247406005859375</LatitudeDegrees>
              <LongitudeDegrees>-3.9719175361096858978271484375</LongitudeDegrees>
            </Position>
            <AltitudeMeters>-2.599999904632568359375</AltitudeMeters>
            <DistanceMeters>44496.857443248</DistanceMeters>
          </Trackpoint>
          <Trackpoint>
            <Time>2021-03-13T09:45:28.000Z</Time>
            <Position>
              <LatitudeDegrees>36.7331151477992534637451171875</LatitudeDegrees>
              <LongitudeDegrees>-3.97122980095446109771728515625</LongitudeDegrees>
            </Position>
            <AltitudeMeters>-2.2000000476837158203125</AltitudeMeters>
            <DistanceMeters>44561.756306377</DistanceMeters>
          </Trackpoint>
          <Trackpoint>
            <Time>2021-03-13T09:45:29.000Z</Time>
            <Position>
              <LatitudeDegrees>36.733088158071041107177734375</LatitudeDegrees>
              <LongitudeDegrees>-3.97113827057182788848876953125</LongitudeDegrees>
            </Position>
            <AltitudeMeters>-2.2000000476837158203125</AltitudeMeters>
            <DistanceMeters>44570.456312168</DistanceMeters>
          </Trackpoint>
          <Trackpoint>
            <Time>2021-03-13T09:45:36.000Z</Time>
            <Position>
              <LatitudeDegrees>36.732905767858028411865234375</LatitudeDegrees>
              <LongitudeDegrees>-3.97048867307603359222412109375</LongitudeDegrees>
            </Position>
            <AltitudeMeters>-1.7999999523162841796875</AltitudeMeters>
            <DistanceMeters>44631.85415995</DistanceMeters>
          </Trackpoint>
          <Trackpoint>
            <Time>2021-03-13T09:45:37.000Z</Time>
            <Position>
              <LatitudeDegrees>36.7328797839581966400146484375</LatitudeDegrees>
              <LongitudeDegrees>-3.97039479576051235198974609375</LongitudeDegrees>
            </Position>
            <AltitudeMeters>-1.7999999523162841796875</AltitudeMeters>
            <DistanceMeters>44640.713076045</DistanceMeters>
          </Trackpoint>
          <Trackpoint>
            <Time>2021-03-13T09:45:43.000Z</Time>
            <Position>
              <LatitudeDegrees>36.7327346093952655792236328125</LatitudeDegrees>
              <LongitudeDegrees>-3.969874195754528045654296875</LongitudeDegrees>
            </Position>
            <AltitudeMeters>-1</AltitudeMeters>
            <DistanceMeters>44689.881940339</DistanceMeters>
          </Trackpoint>
          <Trackpoint>
            <Time>2021-03-13T09:45:45.000Z</Time>
            <Position>
              <LatitudeDegrees>36.7326853238046169281005859375</LatitudeDegrees>
              <LongitudeDegrees>-3.96969272755086421966552734375</LongitudeDegrees>
            </Position>
            <AltitudeMeters>-1</AltitudeMeters>
            <DistanceMeters>44706.973017333</DistanceMeters>
          </Trackpoint>
          <Trackpoint>
            <Time>2021-03-13T09:45:48.000Z</Time>
            <Position>
              <LatitudeDegrees>36.73261214978992938995361328125</LatitudeDegrees>
              <LongitudeDegrees>-3.96942819468677043914794921875</LongitudeDegrees>
            </Position>
            <AltitudeMeters>-0.800000011920928955078125</AltitudeMeters>
            <DistanceMeters>44731.935759273</DistanceMeters>
          </Trackpoint>
          <Trackpoint>
            <Time>2021-03-13T09:45:53.000Z</Time>
            <Position>
              <LatitudeDegrees>36.7324945516884326934814453125</LatitudeDegrees>
              <LongitudeDegrees>-3.96900214254856109619140625</LongitudeDegrees>
            </Position>
            <AltitudeMeters>-0.4000000059604644775390625</AltitudeMeters>
            <DistanceMeters>44772.130823861</DistanceMeters>
          </Trackpoint>
          <Trackpoint>
            <Time>2021-03-13T09:45:56.000Z</Time>
            <Position>
              <LatitudeDegrees>36.73242590390145778656005859375</LatitudeDegrees>
              <LongitudeDegrees>-3.9687770046293735504150390625</LongitudeDegrees>
            </Position>
            <AltitudeMeters>-0.20000000298023223876953125</AltitudeMeters>
            <DistanceMeters>44793.617790804</DistanceMeters>
          </Trackpoint>
          <Trackpoint>
            <Time>2021-03-13T09:45:58.000Z</Time>
            <Position>
              <LatitudeDegrees>36.73238483257591724395751953125</LatitudeDegrees>
              <LongitudeDegrees>-3.96863602101802825927734375</LongitudeDegrees>
            </Position>
            <AltitudeMeters>-0.20000000298023223876953125</AltitudeMeters>
            <DistanceMeters>44806.998685981</DistanceMeters>
          </Trackpoint>
          <Trackpoint>
            <Time>2021-03-13T09:46:01.000Z</Time>
            <Position>
              <LatitudeDegrees>36.7323188669979572296142578125</LatitudeDegrees>
              <LongitudeDegrees>-3.96841146983206272125244140625</LongitudeDegrees>
            </Position>
            <AltitudeMeters>0</AltitudeMeters>
            <DistanceMeters>44828.332130447</DistanceMeters>
          </Trackpoint>
          <Trackpoint>
            <Time>2021-03-13T09:46:04.000Z</Time>
            <Position>
              <LatitudeDegrees>36.732250638306140899658203125</LatitudeDegrees>
              <LongitudeDegrees>-3.96815196610987186431884765625</LongitudeDegrees>
            </Position>
            <AltitudeMeters>0.20000000298023223876953125</AltitudeMeters>
            <DistanceMeters>44852.693836959</DistanceMeters>
          </Trackpoint>
          <Trackpoint>
            <Time>2021-03-13T09:46:10.000Z</Time>
            <Position>
              <LatitudeDegrees>36.732106469571590423583984375</LatitudeDegrees>
              <LongitudeDegrees>-3.96762373857200145721435546875</LongitudeDegrees>
            </Position>
            <AltitudeMeters>0.800000011920928955078125</AltitudeMeters>
            <DistanceMeters>44902.470059945</DistanceMeters>
          </Trackpoint>
          <Trackpoint>
            <Time>2021-03-13T09:46:12.000Z</Time>
            <Position>
              <LatitudeDegrees>36.73206179402768611907958984375</LatitudeDegrees>
              <LongitudeDegrees>-3.9674607105553150177001953125</LongitudeDegrees>
            </Position>
            <AltitudeMeters>1</AltitudeMeters>
            <DistanceMeters>44917.839437606</DistanceMeters>
          </Trackpoint>
          <Trackpoint>
            <Time>2021-03-13T09:46:15.000Z</Time>
            <Position>
              <LatitudeDegrees>36.731993816792964935302734375</LatitudeDegrees>
              <LongitudeDegrees>-3.96721973083913326263427734375</LongitudeDegrees>
            </Position>
            <AltitudeMeters>1</AltitudeMeters>
            <DistanceMeters>44940.62802458</DistanceMeters>
          </Trackpoint>
          <Trackpoint>
            <Time>2021-03-13T09:46:20.000Z</Time>
            <Position>
              <LatitudeDegrees>36.731869764626026153564453125</LatitudeDegrees>
              <LongitudeDegrees>-3.96678663790225982666015625</LongitudeDegrees>
            </Position>
            <AltitudeMeters>0.800000011920928955078125</AltitudeMeters>
            <DistanceMeters>44981.654040821</DistanceMeters>
          </Trackpoint>
          <Trackpoint>
            <Time>2021-03-13T09:46:27.000Z</Time>
            <Position>
              <LatitudeDegrees>36.7316922359168529510498046875</LatitudeDegrees>
              <LongitudeDegrees>-3.96614533849060535430908203125</LongitudeDegrees>
            </Position>
            <AltitudeMeters>1.39999997615814208984375</AltitudeMeters>
            <DistanceMeters>45042.175838284</DistanceMeters>
          </Trackpoint>
          <Trackpoint>
            <Time>2021-03-13T09:46:30.000Z</Time>
            <Position>
              <LatitudeDegrees>36.73161394894123077392578125</LatitudeDegrees>
              <LongitudeDegrees>-3.96585817448794841766357421875</LongitudeDegrees>
            </Position>
            <AltitudeMeters>1.39999997615814208984375</AltitudeMeters>
            <DistanceMeters>45069.232765814</DistanceMeters>
          </Trackpoint>
          <Trackpoint>
            <Time>2021-03-13T09:46:37.000Z</Time>
            <Position>
              <LatitudeDegrees>36.73142124898731708526611328125</LatitudeDegrees>
              <LongitudeDegrees>-3.96514638327062129974365234375</LongitudeDegrees>
            </Position>
            <AltitudeMeters>1.39999997615814208984375</AltitudeMeters>
            <DistanceMeters>45136.251059304</DistanceMeters>
          </Trackpoint>
          <Trackpoint>
            <Time>2021-03-13T09:46:38.000Z</Time>
            <Position>
              <LatitudeDegrees>36.73139308579266071319580078125</LatitudeDegrees>
              <LongitudeDegrees>-3.96503842435777187347412109375</LongitudeDegrees>
            </Position>
            <AltitudeMeters>1.2000000476837158203125</AltitudeMeters>
            <DistanceMeters>45146.37842857</DistanceMeters>
          </Trackpoint>
          <Trackpoint>
            <Time>2021-03-13T09:46:45.000Z</Time>
            <Position>
              <LatitudeDegrees>36.73119761981070041656494140625</LatitudeDegrees>
              <LongitudeDegrees>-3.9642967097461223602294921875</LongitudeDegrees>
            </Position>
            <AltitudeMeters>0.60000002384185791015625</AltitudeMeters>
            <DistanceMeters>45216.026592688</DistanceMeters>
          </Trackpoint>
          <Trackpoint>
            <Time>2021-03-13T09:46:47.000Z</Time>
            <Position>
              <LatitudeDegrees>36.73114188015460968017578125</LatitudeDegrees>
              <LongitudeDegrees>-3.96407651714980602264404296875</LongitudeDegrees>
            </Position>
            <AltitudeMeters>0.60000002384185791015625</AltitudeMeters>
            <DistanceMeters>45236.625044132</DistanceMeters>
          </Trackpoint>
          <Trackpoint>
            <Time>2021-03-13T09:46:53.000Z</Time>
            <Position>
              <LatitudeDegrees>36.7309677042067050933837890625</LatitudeDegrees>
              <LongitudeDegrees>-3.96341652609407901763916015625</LongitudeDegrees>
            </Position>
            <AltitudeMeters>0.60000002384185791015625</AltitudeMeters>
            <DistanceMeters>45298.60796229</DistanceMeters>
          </Trackpoint>
          <Trackpoint>
            <Time>2021-03-13T09:46:56.000Z</Time>
            <Position>
              <LatitudeDegrees>36.7308825440704822540283203125</LatitudeDegrees>
              <LongitudeDegrees>-3.963100947439670562744140625</LongitudeDegrees>
            </Position>
            <AltitudeMeters>1</AltitudeMeters>
            <DistanceMeters>45328.3116777</DistanceMeters>
          </Trackpoint>
          <Trackpoint>
            <Time>2021-03-13T09:47:03.000Z</Time>
            <Position>
              <LatitudeDegrees>36.73069269396364688873291015625</LatitudeDegrees>
              <LongitudeDegrees>-3.96241237409412860870361328125</LongitudeDegrees>
            </Position>
            <AltitudeMeters>1.39999997615814208984375</AltitudeMeters>
            <DistanceMeters>45393.267911031</DistanceMeters>
          </Trackpoint>
          <Trackpoint>
            <Time>2021-03-13T09:47:04.000Z</Time>
            <Position>
              <LatitudeDegrees>36.7306672967970371246337890625</LatitudeDegrees>
              <LongitudeDegrees>-3.96231648512184619903564453125</LongitudeDegrees>
            </Position>
            <AltitudeMeters>1.7999999523162841796875</AltitudeMeters>
            <DistanceMeters>45402.276423506</DistanceMeters>
          </Trackpoint>
          <Trackpoint>
            <Time>2021-03-13T09:47:08.000Z</Time>
            <Position>
              <LatitudeDegrees>36.73056595958769321441650390625</LatitudeDegrees>
              <LongitudeDegrees>-3.96193427033722400665283203125</LongitudeDegrees>
            </Position>
            <AltitudeMeters>2</AltitudeMeters>
            <DistanceMeters>45438.188476047</DistanceMeters>
          </Trackpoint>
          <Trackpoint>
            <Time>2021-03-13T09:47:12.000Z</Time>
            <Position>
              <LatitudeDegrees>36.73046370036900043487548828125</LatitudeDegrees>
              <LongitudeDegrees>-3.96153998561203479766845703125</LongitudeDegrees>
            </Position>
            <AltitudeMeters>2.2000000476837158203125</AltitudeMeters>
            <DistanceMeters>45475.155944298</DistanceMeters>
          </Trackpoint>
          <Trackpoint>
            <Time>2021-03-13T09:47:15.000Z</Time>
            <Position>
              <LatitudeDegrees>36.73038541339337825775146484375</LatitudeDegrees>
              <LongitudeDegrees>-3.96124779246747493743896484375</LongitudeDegrees>
            </Position>
            <AltitudeMeters>2.599999904632568359375</AltitudeMeters>
            <DistanceMeters>45502.638550687</DistanceMeters>
          </Trackpoint>
          <Trackpoint>
            <Time>2021-03-13T09:47:19.000Z</Time>
            <Position>
              <LatitudeDegrees>36.730281896889209747314453125</LatitudeDegrees>
              <LongitudeDegrees>-3.96086834371089935302734375</LongitudeDegrees>
            </Position>
            <AltitudeMeters>3.2000000476837158203125</AltitudeMeters>
            <DistanceMeters>45538.394111972</DistanceMeters>
          </Trackpoint>
          <Trackpoint>
            <Time>2021-03-13T09:47:25.000Z</Time>
            <Position>
              <LatitudeDegrees>36.73012473620474338531494140625</LatitudeDegrees>
              <LongitudeDegrees>-3.960303403437137603759765625</LongitudeDegrees>
            </Position>
            <AltitudeMeters>4.19999980926513671875</AltitudeMeters>
            <DistanceMeters>45591.73864271</DistanceMeters>
          </Trackpoint>
          <Trackpoint>
            <Time>2021-03-13T09:47:32.000Z</Time>
            <Position>
              <LatitudeDegrees>36.72992826439440250396728515625</LatitudeDegrees>
              <LongitudeDegrees>-3.9595936238765716552734375</LongitudeDegrees>
            </Position>
            <AltitudeMeters>3.7999999523162841796875</AltitudeMeters>
            <DistanceMeters>45658.724051458</DistanceMeters>
          </Trackpoint>
          <Trackpoint>
            <Time>2021-03-13T09:47:33.000Z</Time>
            <Position>
              <LatitudeDegrees>36.72990135848522186279296875</LatitudeDegrees>
              <LongitudeDegrees>-3.95949312485754489898681640625</LongitudeDegrees>
            </Position>
            <AltitudeMeters>3.599999904632568359375</AltitudeMeters>
            <DistanceMeters>45668.176224559</DistanceMeters>
          </Trackpoint>
          <Trackpoint>
            <Time>2021-03-13T09:47:40.000Z</Time>
            <Position>
              <LatitudeDegrees>36.72970782034099102020263671875</LatitudeDegrees>
              <LongitudeDegrees>-3.95881435833871364593505859375</LongitudeDegrees>
            </Position>
            <AltitudeMeters>3.599999904632568359375</AltitudeMeters>
            <DistanceMeters>45732.442953776</DistanceMeters>
          </Trackpoint>
          <Trackpoint>
            <Time>2021-03-13T09:47:46.000Z</Time>
            <Position>
              <LatitudeDegrees>36.72954537905752658843994140625</LatitudeDegrees>
              <LongitudeDegrees>-3.9581400342285633087158203125</LongitudeDegrees>
            </Position>
            <AltitudeMeters>3.400000095367431640625</AltitudeMeters>
            <DistanceMeters>45795.254389986</DistanceMeters>
          </Trackpoint>
          <Trackpoint>
            <Time>2021-03-13T09:47:52.000Z</Time>
            <Position>
              <LatitudeDegrees>36.72947279177606105804443359375</LatitudeDegrees>
              <LongitudeDegrees>-3.95739211700856685638427734375</LongitudeDegrees>
            </Position>
            <AltitudeMeters>3</AltitudeMeters>
            <DistanceMeters>45862.459577395</DistanceMeters>
          </Trackpoint>
          <Trackpoint>
            <Time>2021-03-13T09:47:56.000Z</Time>
            <Position>
              <LatitudeDegrees>36.7294901423156261444091796875</LatitudeDegrees>
              <LongitudeDegrees>-3.95688417367637157440185546875</LongitudeDegrees>
            </Position>
            <AltitudeMeters>2.2000000476837158203125</AltitudeMeters>
            <DistanceMeters>45907.811717719</DistanceMeters>
          </Trackpoint>
          <Trackpoint>
            <Time>2021-03-13T09:47:57.000Z</Time>
            <Position>
              <LatitudeDegrees>36.72950078733265399932861328125</LatitudeDegrees>
              <LongitudeDegrees>-3.95675743930041790008544921875</LongitudeDegrees>
            </Position>
            <AltitudeMeters>1.7999999523162841796875</AltitudeMeters>
            <DistanceMeters>45919.179232571</DistanceMeters>
          </Trackpoint>
          <Trackpoint>
            <Time>2021-03-13T09:47:58.000Z</Time>
            <Position>
              <LatitudeDegrees>36.72951201908290386199951171875</LatitudeDegrees>
              <LongitudeDegrees>-3.9566333033144474029541015625</LongitudeDegrees>
            </Position>
            <AltitudeMeters>1.7999999523162841796875</AltitudeMeters>
            <DistanceMeters>45930.322912899</DistanceMeters>
          </Trackpoint>
          <Trackpoint>
            <Time>2021-03-13T09:48:01.000Z</Time>
            <Position>
              <LatitudeDegrees>36.72954889945685863494873046875</LatitudeDegrees>
              <LongitudeDegrees>-3.95627908408641815185546875</LongitudeDegrees>
            </Position>
            <AltitudeMeters>1</AltitudeMeters>
            <DistanceMeters>45962.186632785</DistanceMeters>
          </Trackpoint>
          <Trackpoint>
            <Time>2021-03-13T09:48:02.000Z</Time>
            <Position>
              <LatitudeDegrees>36.72955979593098163604736328125</LatitudeDegrees>
              <LongitudeDegrees>-3.95616617985069751739501953125</LongitudeDegrees>
            </Position>
            <AltitudeMeters>0.800000011920928955078125</AltitudeMeters>
            <DistanceMeters>45972.330929269</DistanceMeters>
          </Trackpoint>
          <Trackpoint>
            <Time>2021-03-13T09:48:04.000Z</Time>
            <Position>
              <LatitudeDegrees>36.729580499231815338134765625</LatitudeDegrees>
              <LongitudeDegrees>-3.95594338886439800262451171875</LongitudeDegrees>
            </Position>
            <AltitudeMeters>0.4000000059604644775390625</AltitudeMeters>
            <DistanceMeters>45992.338058713</DistanceMeters>
          </Trackpoint>
          <Trackpoint>
            <Time>2021-03-13T09:48:11.000Z</Time>
            <Position>
              <LatitudeDegrees>36.72964520752429962158203125</LatitudeDegrees>
              <LongitudeDegrees>-3.95519622601568698883056640625</LongitudeDegrees>
            </Position>
            <AltitudeMeters>0.4000000059604644775390625</AltitudeMeters>
            <DistanceMeters>46059.376560228</DistanceMeters>
          </Trackpoint>
          <Trackpoint>
            <Time>2021-03-13T09:48:15.000Z</Time>
            <Position>
              <LatitudeDegrees>36.72968602739274501800537109375</LatitudeDegrees>
              <LongitudeDegrees>-3.9547758735716342926025390625</LongitudeDegrees>
            </Position>
            <AltitudeMeters>1.60000002384185791015625</AltitudeMeters>
            <DistanceMeters>46097.148095378</DistanceMeters>
          </Trackpoint>
          <Trackpoint>
            <Time>2021-03-13T09:48:18.000Z</Time>
            <Position>
              <LatitudeDegrees>36.72970899380743503570556640625</LatitudeDegrees>
              <LongitudeDegrees>-3.9544706046581268310546875</LongitudeDegrees>
            </Position>
            <AltitudeMeters>2</AltitudeMeters>
            <DistanceMeters>46124.499286448</DistanceMeters>
          </Trackpoint>
          <Trackpoint>
            <Time>2021-03-13T09:48:19.000Z</Time>
            <Position>
              <LatitudeDegrees>36.7297057248651981353759765625</LatitudeDegrees>
              <LongitudeDegrees>-3.95437580533325672149658203125</LongitudeDegrees>
            </Position>
            <AltitudeMeters>2</AltitudeMeters>
            <DistanceMeters>46132.964668108</DistanceMeters>
          </Trackpoint>
          <Trackpoint>
            <Time>2021-03-13T09:48:20.000Z</Time>
            <Position>
              <LatitudeDegrees>36.7296946607530117034912109375</LatitudeDegrees>
              <LongitudeDegrees>-3.9542806707322597503662109375</LongitudeDegrees>
            </Position>
            <AltitudeMeters>2</AltitudeMeters>
            <DistanceMeters>46141.53974318</DistanceMeters>
          </Trackpoint>
          <Trackpoint>
            <Time>2021-03-13T09:48:22.000Z</Time>
            <Position>
              <LatitudeDegrees>36.72966532409191131591796875</LatitudeDegrees>
              <LongitudeDegrees>-3.95408344455063343048095703125</LongitudeDegrees>
            </Position>
            <AltitudeMeters>2.2000000476837158203125</AltitudeMeters>
            <DistanceMeters>46159.4338059</DistanceMeters>
          </Trackpoint>
          <Trackpoint>
            <Time>2021-03-13T09:48:23.000Z</Time>
            <Position>
              <LatitudeDegrees>36.729657612740993499755859375</LatitudeDegrees>
              <LongitudeDegrees>-3.953981101512908935546875</LongitudeDegrees>
            </Position>
            <AltitudeMeters>2.2000000476837158203125</AltitudeMeters>
            <DistanceMeters>46168.604253104</DistanceMeters>
          </Trackpoint>
          <Trackpoint>
            <Time>2021-03-13T09:48:25.000Z</Time>
            <Position>
              <LatitudeDegrees>36.72968678176403045654296875</LatitudeDegrees>
              <LongitudeDegrees>-3.95377113483846187591552734375</LongitudeDegrees>
            </Position>
            <AltitudeMeters>2.400000095367431640625</AltitudeMeters>
            <DistanceMeters>46187.613871699</DistanceMeters>
          </Trackpoint>
          <Trackpoint>
            <Time>2021-03-13T09:48:30.000Z</Time>
            <Position>
              <LatitudeDegrees>36.72982499934732913970947265625</LatitudeDegrees>
              <LongitudeDegrees>-3.95325028337538242340087890625</LongitudeDegrees>
            </Position>
            <AltitudeMeters>2.400000095367431640625</AltitudeMeters>
            <DistanceMeters>46236.556965578</DistanceMeters>
          </Trackpoint>
          <Trackpoint>
            <Time>2021-03-13T09:48:31.000Z</Time>
            <Position>
              <LatitudeDegrees>36.7298376560211181640625</LatitudeDegrees>
              <LongitudeDegrees>-3.953140564262866973876953125</LongitudeDegrees>
            </Position>
            <AltitudeMeters>2.400000095367431640625</AltitudeMeters>
            <DistanceMeters>46246.445224663</DistanceMeters>
          </Trackpoint>
          <Trackpoint>
            <Time>2021-03-13T09:48:34.000Z</Time>
            <Position>
              <LatitudeDegrees>36.729872860014438629150390625</LatitudeDegrees>
              <LongitudeDegrees>-3.9528128318488597869873046875</LongitudeDegrees>
            </Position>
            <AltitudeMeters>2</AltitudeMeters>
            <DistanceMeters>46275.941951523</DistanceMeters>
          </Trackpoint>
          <Trackpoint>
            <Time>2021-03-13T09:48:40.000Z</Time>
            <Position>
              <LatitudeDegrees>36.72996799461543560028076171875</LatitudeDegrees>
              <LongitudeDegrees>-3.95214940421283245086669921875</LongitudeDegrees>
            </Position>
            <AltitudeMeters>1.7999999523162841796875</AltitudeMeters>
            <DistanceMeters>46336.062553303</DistanceMeters>
          </Trackpoint>
          <Trackpoint>
            <Time>2021-03-13T09:48:46.000Z</Time>
            <Position>
              <LatitudeDegrees>36.7301087267696857452392578125</LatitudeDegrees>
              <LongitudeDegrees>-3.9514009840786457061767578125</LongitudeDegrees>
            </Position>
            <AltitudeMeters>1</AltitudeMeters>
            <DistanceMeters>46404.637744076</DistanceMeters>
          </Trackpoint>
          <Trackpoint>
            <Time>2021-03-13T09:48:47.000Z</Time>
            <Position>
              <LatitudeDegrees>36.73013160936534404754638671875</LatitudeDegrees>
              <LongitudeDegrees>-3.95129746757447719573974609375</LongitudeDegrees>
            </Position>
            <AltitudeMeters>0.800000011920928955078125</AltitudeMeters>
            <DistanceMeters>46414.216606573</DistanceMeters>
          </Trackpoint>
          <Trackpoint>
            <Time>2021-03-13T09:48:50.000Z</Time>
            <Position>
              <LatitudeDegrees>36.7302287556231021881103515625</LatitudeDegrees>
              <LongitudeDegrees>-3.9509059488773345947265625</LongitudeDegrees>
            </Position>
            <AltitudeMeters>-0.4000000059604644775390625</AltitudeMeters>
            <DistanceMeters>46450.777201011</DistanceMeters>
          </Trackpoint>
          <Trackpoint>
            <Time>2021-03-13T09:48:52.000Z</Time>
            <Position>
              <LatitudeDegrees>36.7302931286394596099853515625</LatitudeDegrees>
              <LongitudeDegrees>-3.9506576769053936004638671875</LongitudeDegrees>
            </Position>
            <AltitudeMeters>-1</AltitudeMeters>
            <DistanceMeters>46474.054285166</DistanceMeters>
          </Trackpoint>
          <Trackpoint>
            <Time>2021-03-13T09:48:54.000Z</Time>
            <Position>
              <LatitudeDegrees>36.7303561605513095855712890625</LatitudeDegrees>
              <LongitudeDegrees>-3.9504223130643367767333984375</LongitudeDegrees>
            </Position>
            <AltitudeMeters>-1.60000002384185791015625</AltitudeMeters>
            <DistanceMeters>46496.190818958</DistanceMeters>
          </Trackpoint>
          <Trackpoint>
            <Time>2021-03-13T09:48:57.000Z</Time>
            <Position>
              <LatitudeDegrees>36.73041994683444499969482421875</LatitudeDegrees>
              <LongitudeDegrees>-3.9501571096479892730712890625</LongitudeDegrees>
            </Position>
            <AltitudeMeters>-2.400000095367431640625</AltitudeMeters>
            <DistanceMeters>46520.890453865</DistanceMeters>
          </Trackpoint>
          <Trackpoint>
            <Time>2021-03-13T09:48:58.000Z</Time>
            <Position>
              <LatitudeDegrees>36.73044090159237384796142578125</LatitudeDegrees>
              <LongitudeDegrees>-3.9500783197581768035888671875</LongitudeDegrees>
            </Position>
            <AltitudeMeters>-2.7999999523162841796875</AltitudeMeters>
            <DistanceMeters>46528.295224231</DistanceMeters>
          </Trackpoint>
          <Trackpoint>
            <Time>2021-03-13T09:49:01.000Z</Time>
            <Position>
              <LatitudeDegrees>36.73049337230622768402099609375</LatitudeDegrees>
              <LongitudeDegrees>-3.9498919062316417694091796875</LongitudeDegrees>
            </Position>
            <AltitudeMeters>-3.2000000476837158203125</AltitudeMeters>
            <DistanceMeters>46545.919541793</DistanceMeters>
          </Trackpoint>
          <Trackpoint>
            <Time>2021-03-13T09:49:03.000Z</Time>
            <Position>
              <LatitudeDegrees>36.7305201105773448944091796875</LatitudeDegrees>
              <LongitudeDegrees>-3.949795179069042205810546875</LongitudeDegrees>
            </Position>
            <AltitudeMeters>-4</AltitudeMeters>
            <DistanceMeters>46555.046559662</DistanceMeters>
          </Trackpoint>
          <Trackpoint>
            <Time>2021-03-13T09:49:06.000Z</Time>
            <Position>
              <LatitudeDegrees>36.73054550774395465850830078125</LatitudeDegrees>
              <LongitudeDegrees>-3.94969501532614231109619140625</LongitudeDegrees>
            </Position>
            <AltitudeMeters>-4.599999904632568359375</AltitudeMeters>
            <DistanceMeters>46564.418140292</DistanceMeters>
          </Trackpoint>
          <Trackpoint>
            <Time>2021-03-13T09:49:11.000Z</Time>
            <Position>
              <LatitudeDegrees>36.73055841587483882904052734375</LatitudeDegrees>
              <LongitudeDegrees>-3.9496386051177978515625</LongitudeDegrees>
            </Position>
            <AltitudeMeters>-4.80000019073486328125</AltitudeMeters>
            <DistanceMeters>46569.650653243</DistanceMeters>
          </Trackpoint>
          <Trackpoint>
            <Time>2021-03-13T09:49:17.000Z</Time>
            <Position>
              <LatitudeDegrees>36.73055841587483882904052734375</LatitudeDegrees>
              <LongitudeDegrees>-3.9496386051177978515625</LongitudeDegrees>
            </Position>
            <AltitudeMeters>-4.80000019073486328125</AltitudeMeters>
            <DistanceMeters>46569.650653243</DistanceMeters>
          </Trackpoint>
          <Trackpoint>
            <Time>2021-03-13T09:49:20.000Z</Time>
            <Position>
              <LatitudeDegrees>36.73056562431156635284423828125</LatitudeDegrees>
              <LongitudeDegrees>-3.94961781799793243408203125</LongitudeDegrees>
            </Position>
            <AltitudeMeters>-5</AltitudeMeters>
            <DistanceMeters>46571.670948902</DistanceMeters>
          </Trackpoint>
          <Trackpoint>
            <Time>2021-03-13T09:49:21.000Z</Time>
            <Position>
              <LatitudeDegrees>36.73057668842375278472900390625</LatitudeDegrees>
              <LongitudeDegrees>-3.94959032535552978515625</LongitudeDegrees>
            </Position>
            <AltitudeMeters>-5</AltitudeMeters>
            <DistanceMeters>46574.416875673</DistanceMeters>
          </Trackpoint>
          <Trackpoint>
            <Time>2021-03-13T09:49:23.000Z</Time>
            <Position>
              <LatitudeDegrees>36.7305978946387767791748046875</LatitudeDegrees>
              <LongitudeDegrees>-3.94950642250478267669677734375</LongitudeDegrees>
            </Position>
            <AltitudeMeters>-5</AltitudeMeters>
            <DistanceMeters>46582.264494506</DistanceMeters>
          </Trackpoint>
          <Trackpoint>
            <Time>2021-03-13T09:49:25.000Z</Time>
            <Position>
              <LatitudeDegrees>36.73063284717500209808349609375</LatitudeDegrees>
              <LongitudeDegrees>-3.94939645193517208099365234375</LongitudeDegrees>
            </Position>
            <AltitudeMeters>-5</AltitudeMeters>
            <DistanceMeters>46592.817167282</DistanceMeters>
          </Trackpoint>
          <Trackpoint>
            <Time>2021-03-13T09:49:30.000Z</Time>
            <Position>
              <LatitudeDegrees>36.73073150217533111572265625</LatitudeDegrees>
              <LongitudeDegrees>-3.9490463398396968841552734375</LongitudeDegrees>
            </Position>
            <AltitudeMeters>-5.400000095367431640625</AltitudeMeters>
            <DistanceMeters>46625.922761643</DistanceMeters>
          </Trackpoint>
          <Trackpoint>
            <Time>2021-03-13T09:49:37.000Z</Time>
            <Position>
              <LatitudeDegrees>36.7308865673840045928955078125</LatitudeDegrees>
              <LongitudeDegrees>-3.94845918752253055572509765625</LongitudeDegrees>
            </Position>
            <AltitudeMeters>-5.599999904632568359375</AltitudeMeters>
            <DistanceMeters>46681.069212885</DistanceMeters>
          </Trackpoint>
          <Trackpoint>
            <Time>2021-03-13T09:49:40.000Z</Time>
            <Position>
              <LatitudeDegrees>36.7309576459228992462158203125</LatitudeDegrees>
              <LongitudeDegrees>-3.948182500898838043212890625</LongitudeDegrees>
            </Position>
            <AltitudeMeters>-5.80000019073486328125</AltitudeMeters>
            <DistanceMeters>46706.987651241</DistanceMeters>
          </Trackpoint>
          <Trackpoint>
            <Time>2021-03-13T09:49:42.000Z</Time>
            <Position>
              <LatitudeDegrees>36.7310096137225627899169921875</LatitudeDegrees>
              <LongitudeDegrees>-3.94799114204943180084228515625</LongitudeDegrees>
            </Position>
            <AltitudeMeters>-5.80000019073486328125</AltitudeMeters>
            <DistanceMeters>46725.011190572</DistanceMeters>
          </Trackpoint>
          <Trackpoint>
            <Time>2021-03-13T09:49:47.000Z</Time>
            <Position>
              <LatitudeDegrees>36.7311403714120388031005859375</LatitudeDegrees>
              <LongitudeDegrees>-3.94749459810554981231689453125</LongitudeDegrees>
            </Position>
            <AltitudeMeters>-5.599999904632568359375</AltitudeMeters>
            <DistanceMeters>46771.634167112</DistanceMeters>
          </Trackpoint>
          <Trackpoint>
            <Time>2021-03-13T09:49:50.000Z</Time>
            <Position>
              <LatitudeDegrees>36.7312178201973438262939453125</LatitudeDegrees>
              <LongitudeDegrees>-3.94719352014362812042236328125</LongitudeDegrees>
            </Position>
            <AltitudeMeters>-5.599999904632568359375</AltitudeMeters>
            <DistanceMeters>46799.840778841</DistanceMeters>
          </Trackpoint>
          <Trackpoint>
            <Time>2021-03-13T09:49:57.000Z</Time>
            <Position>
              <LatitudeDegrees>36.73139845021069049835205078125</LatitudeDegrees>
              <LongitudeDegrees>-3.946487009525299072265625</LongitudeDegrees>
            </Position>
            <AltitudeMeters>-5.599999904632568359375</AltitudeMeters>
            <DistanceMeters>46865.992614383</DistanceMeters>
          </Trackpoint>
          <Trackpoint>
            <Time>2021-03-13T09:49:59.000Z</Time>
            <Position>
              <LatitudeDegrees>36.73145377077162265777587890625</LatitudeDegrees>
              <LongitudeDegrees>-3.946267403662204742431640625</LongitudeDegrees>
            </Position>
            <AltitudeMeters>-5.599999904632568359375</AltitudeMeters>
            <DistanceMeters>46886.526961695</DistanceMeters>
          </Trackpoint>
          <Trackpoint>
            <Time>2021-03-13T09:50:02.000Z</Time>
            <Position>
              <LatitudeDegrees>36.73152543604373931884765625</LatitudeDegrees>
              <LongitudeDegrees>-3.94600580446422100067138671875</LongitudeDegrees>
            </Position>
            <AltitudeMeters>-5.599999904632568359375</AltitudeMeters>
            <DistanceMeters>46911.188179194</DistanceMeters>
          </Trackpoint>
          <Trackpoint>
            <Time>2021-03-13T09:50:06.000Z</Time>
            <Position>
              <LatitudeDegrees>36.731627024710178375244140625</LatitudeDegrees>
              <LongitudeDegrees>-3.94563633017241954803466796875</LongitudeDegrees>
            </Position>
            <AltitudeMeters>-5.599999904632568359375</AltitudeMeters>
            <DistanceMeters>46946.031768529</DistanceMeters>
          </Trackpoint>
          <Trackpoint>
            <Time>2021-03-13T09:50:10.000Z</Time>
            <Position>
              <LatitudeDegrees>36.73173464834690093994140625</LatitudeDegrees>
              <LongitudeDegrees>-3.9452357590198516845703125</LongitudeDegrees>
            </Position>
            <AltitudeMeters>-5.599999904632568359375</AltitudeMeters>
            <DistanceMeters>46983.717978515</DistanceMeters>
          </Trackpoint>
          <Trackpoint>
            <Time>2021-03-13T09:50:14.000Z</Time>
            <Position>
              <LatitudeDegrees>36.73184453509747982025146484375</LatitudeDegrees>
              <LongitudeDegrees>-3.94482043571770191192626953125</LongitudeDegrees>
            </Position>
            <AltitudeMeters>-5.599999904632568359375</AltitudeMeters>
            <DistanceMeters>47022.732434112</DistanceMeters>
          </Trackpoint>
          <Trackpoint>
            <Time>2021-03-13T09:50:17.000Z</Time>
            <Position>
              <LatitudeDegrees>36.7319359816610813140869140625</LatitudeDegrees>
              <LongitudeDegrees>-3.9444976486265659332275390625</LongitudeDegrees>
            </Position>
            <AltitudeMeters>-5.599999904632568359375</AltitudeMeters>
            <DistanceMeters>47053.271808457</DistanceMeters>
          </Trackpoint>
          <Trackpoint>
            <Time>2021-03-13T09:50:22.000Z</Time>
            <Position>
              <LatitudeDegrees>36.732071936130523681640625</LatitudeDegrees>
              <LongitudeDegrees>-3.94395709969103336334228515625</LongitudeDegrees>
            </Position>
            <AltitudeMeters>-5.599999904632568359375</AltitudeMeters>
            <DistanceMeters>47103.808423207</DistanceMeters>
          </Trackpoint>
          <Trackpoint>
            <Time>2021-03-13T09:50:25.000Z</Time>
            <Position>
              <LatitudeDegrees>36.73214661888778209686279296875</LatitudeDegrees>
              <LongitudeDegrees>-3.9436457119882106781005859375</LongitudeDegrees>
            </Position>
            <AltitudeMeters>-5.599999904632568359375</AltitudeMeters>
            <DistanceMeters>47132.801695119</DistanceMeters>
          </Trackpoint>
          <Trackpoint>
            <Time>2021-03-13T09:50:30.000Z</Time>
            <Position>
              <LatitudeDegrees>36.73227955587208271026611328125</LatitudeDegrees>
              <LongitudeDegrees>-3.94313952885568141937255859375</LongitudeDegrees>
            </Position>
            <AltitudeMeters>-5.19999980926513671875</AltitudeMeters>
            <DistanceMeters>47180.316572707</DistanceMeters>
          </Trackpoint>
          <Trackpoint>
            <Time>2021-03-13T09:50:35.000Z</Time>
            <Position>
              <LatitudeDegrees>36.73242908902466297149658203125</LatitudeDegrees>
              <LongitudeDegrees>-3.9426137320697307586669921875</LongitudeDegrees>
            </Position>
            <AltitudeMeters>-5.19999980926513671875</AltitudeMeters>
            <DistanceMeters>47230.084087085</DistanceMeters>
          </Trackpoint>
          <Trackpoint>
            <Time>2021-03-13T09:50:37.000Z</Time>
            <Position>
              <LatitudeDegrees>36.73249698244035243988037109375</LatitudeDegrees>
              <LongitudeDegrees>-3.9423859119415283203125</LongitudeDegrees>
            </Position>
            <AltitudeMeters>-5.19999980926513671875</AltitudeMeters>
            <DistanceMeters>47251.765176988</DistanceMeters>
          </Trackpoint>
          <Trackpoint>
            <Time>2021-03-13T09:50:40.000Z</Time>
            <Position>
              <LatitudeDegrees>36.73260628245770931243896484375</LatitudeDegrees>
              <LongitudeDegrees>-3.94203881733119487762451171875</LongitudeDegrees>
            </Position>
            <AltitudeMeters>-5.400000095367431640625</AltitudeMeters>
            <DistanceMeters>47285.030771044</DistanceMeters>
          </Trackpoint>
          <Trackpoint>
            <Time>2021-03-13T09:50:46.000Z</Time>
            <Position>
              <LatitudeDegrees>36.732821278274059295654296875</LatitudeDegrees>
              <LongitudeDegrees>-3.9413675107061862945556640625</LongitudeDegrees>
            </Position>
            <AltitudeMeters>-5.80000019073486328125</AltitudeMeters>
            <DistanceMeters>47349.516392332</DistanceMeters>
          </Trackpoint>
          <Trackpoint>
            <Time>2021-03-13T09:50:52.000Z</Time>
            <Position>
              <LatitudeDegrees>36.73302655108273029327392578125</LatitudeDegrees>
              <LongitudeDegrees>-3.94070995040237903594970703125</LongitudeDegrees>
            </Position>
            <AltitudeMeters>-5.80000019073486328125</AltitudeMeters>
            <DistanceMeters>47412.464113528</DistanceMeters>
          </Trackpoint>
          <Trackpoint>
            <Time>2021-03-13T09:50:55.000Z</Time>
            <Position>
              <LatitudeDegrees>36.7331262119114398956298828125</LatitudeDegrees>
              <LongitudeDegrees>-3.940380625426769256591796875</LongitudeDegrees>
            </Position>
            <AltitudeMeters>-5.80000019073486328125</AltitudeMeters>
            <DistanceMeters>47443.864655672</DistanceMeters>
          </Trackpoint>
          <Trackpoint>
            <Time>2021-03-13T09:51:01.000Z</Time>
            <Position>
              <LatitudeDegrees>36.7333220131695270538330078125</LatitudeDegrees>
              <LongitudeDegrees>-3.93974125385284423828125</LongitudeDegrees>
            </Position>
            <AltitudeMeters>-5.80000019073486328125</AltitudeMeters>
            <DistanceMeters>47504.919005363</DistanceMeters>
          </Trackpoint>
          <Trackpoint>
            <Time>2021-03-13T09:51:04.000Z</Time>
            <Position>
              <LatitudeDegrees>36.73341480083763599395751953125</LatitudeDegrees>
              <LongitudeDegrees>-3.93943841569125652313232421875</LongitudeDegrees>
            </Position>
            <AltitudeMeters>-5.80000019073486328125</AltitudeMeters>
            <DistanceMeters>47533.83914904</DistanceMeters>
          </Trackpoint>
          <Trackpoint>
            <Time>2021-03-13T09:51:11.000Z</Time>
            <Position>
              <LatitudeDegrees>36.73363189212977886199951171875</LatitudeDegrees>
              <LongitudeDegrees>-3.93872913904488086700439453125</LongitudeDegrees>
            </Position>
            <AltitudeMeters>-5.400000095367431640625</AltitudeMeters>
            <DistanceMeters>47601.563869033</DistanceMeters>
          </Trackpoint>
          <Trackpoint>
            <Time>2021-03-13T09:51:18.000Z</Time>
            <Position>
              <LatitudeDegrees>36.73386700451374053955078125</LatitudeDegrees>
              <LongitudeDegrees>-3.938015587627887725830078125</LongitudeDegrees>
            </Position>
            <AltitudeMeters>-5.19999980926513671875</AltitudeMeters>
            <DistanceMeters>47670.382239199</DistanceMeters>
          </Trackpoint>
          <Trackpoint>
            <Time>2021-03-13T09:51:21.000Z</Time>
            <Position>
              <LatitudeDegrees>36.73397504724562168121337890625</LatitudeDegrees>
              <LongitudeDegrees>-3.93771224655210971832275390625</LongitudeDegrees>
            </Position>
            <AltitudeMeters>-5.19999980926513671875</AltitudeMeters>
            <DistanceMeters>47699.992173041</DistanceMeters>
          </Trackpoint>
          <Trackpoint>
            <Time>2021-03-13T09:51:28.000Z</Time>
            <Position>
              <LatitudeDegrees>36.73422331921756267547607421875</LatitudeDegrees>
              <LongitudeDegrees>-3.93702979199588298797607421875</LongitudeDegrees>
            </Position>
            <AltitudeMeters>-5.19999980926513671875</AltitudeMeters>
            <DistanceMeters>47766.845070621</DistanceMeters>
          </Trackpoint>
          <Trackpoint>
            <Time>2021-03-13T09:51:32.000Z</Time>
            <Position>
              <LatitudeDegrees>36.7343761213123798370361328125</LatitudeDegrees>
              <LongitudeDegrees>-3.93662528134882450103759765625</LongitudeDegrees>
            </Position>
            <AltitudeMeters>-5.19999980926513671875</AltitudeMeters>
            <DistanceMeters>47806.734337974</DistanceMeters>
          </Trackpoint>
          <Trackpoint>
            <Time>2021-03-13T09:51:35.000Z</Time>
            <Position>
              <LatitudeDegrees>36.73447796143591403961181640625</LatitudeDegrees>
              <LongitudeDegrees>-3.9363138936460018157958984375</LongitudeDegrees>
            </Position>
            <AltitudeMeters>-5</AltitudeMeters>
            <DistanceMeters>47836.733746445</DistanceMeters>
          </Trackpoint>
          <Trackpoint>
            <Time>2021-03-13T09:51:37.000Z</Time>
            <Position>
              <LatitudeDegrees>36.73453764058649539947509765625</LatitudeDegrees>
              <LongitudeDegrees>-3.93610459752380847930908203125</LongitudeDegrees>
            </Position>
            <AltitudeMeters>-4.80000019073486328125</AltitudeMeters>
            <DistanceMeters>47856.549493821</DistanceMeters>
          </Trackpoint>
          <Trackpoint>
            <Time>2021-03-13T09:51:43.000Z</Time>
            <Position>
              <LatitudeDegrees>36.73469320870935916900634765625</LatitudeDegrees>
              <LongitudeDegrees>-3.9354757033288478851318359375</LongitudeDegrees>
            </Position>
            <AltitudeMeters>-4.19999980926513671875</AltitudeMeters>
            <DistanceMeters>47915.257702426</DistanceMeters>
          </Trackpoint>
          <Trackpoint>
            <Time>2021-03-13T09:51:46.000Z</Time>
            <Position>
              <LatitudeDegrees>36.734770573675632476806640625</LatitudeDegrees>
              <LongitudeDegrees>-3.9351679198443889617919921875</LongitudeDegrees>
            </Position>
            <AltitudeMeters>-3.7999999523162841796875</AltitudeMeters>
            <DistanceMeters>47944.030247469</DistanceMeters>
          </Trackpoint>
          <Trackpoint>
            <Time>2021-03-13T09:51:51.000Z</Time>
            <Position>
              <LatitudeDegrees>36.73493075184524059295654296875</LatitudeDegrees>
              <LongitudeDegrees>-3.93467565067112445831298828125</LongitudeDegrees>
            </Position>
            <AltitudeMeters>-2.7999999523162841796875</AltitudeMeters>
            <DistanceMeters>47991.421242739</DistanceMeters>
          </Trackpoint>
          <Trackpoint>
            <Time>2021-03-13T09:51:53.000Z</Time>
            <Position>
              <LatitudeDegrees>36.7349834740161895751953125</LatitudeDegrees>
              <LongitudeDegrees>-3.93449191935360431671142578125</LongitudeDegrees>
            </Position>
            <AltitudeMeters>-2.400000095367431640625</AltitudeMeters>
            <DistanceMeters>48008.828777752</DistanceMeters>
          </Trackpoint>
          <Trackpoint>
            <Time>2021-03-13T09:51:57.000Z</Time>
            <Position>
              <LatitudeDegrees>36.73510157503187656402587890625</LatitudeDegrees>
              <LongitudeDegrees>-3.93406494520604610443115234375</LongitudeDegrees>
            </Position>
            <AltitudeMeters>-2.2000000476837158203125</AltitudeMeters>
            <DistanceMeters>48049.118871968</DistanceMeters>
          </Trackpoint>
          <Trackpoint>
            <Time>2021-03-13T09:51:58.000Z</Time>
            <Position>
              <LatitudeDegrees>36.7351455800235271453857421875</LatitudeDegrees>
              <LongitudeDegrees>-3.93396955914795398712158203125</LongitudeDegrees>
            </Position>
            <AltitudeMeters>-2</AltitudeMeters>
            <DistanceMeters>48058.936561919</DistanceMeters>
          </Trackpoint>
          <Trackpoint>
            <Time>2021-03-13T09:52:04.000Z</Time>
            <Position>
              <LatitudeDegrees>36.73541623167693614959716796875</LatitudeDegrees>
              <LongitudeDegrees>-3.93339120782911777496337890625</LongitudeDegrees>
            </Position>
            <AltitudeMeters>-1.7999999523162841796875</AltitudeMeters>
            <DistanceMeters>48118.675799539</DistanceMeters>
          </Trackpoint>
          <Trackpoint>
            <Time>2021-03-13T09:52:05.000Z</Time>
            <Position>
              <LatitudeDegrees>36.73546015284955501556396484375</LatitudeDegrees>
              <LongitudeDegrees>-3.93329246900975704193115234375</LongitudeDegrees>
            </Position>
            <AltitudeMeters>-1.7999999523162841796875</AltitudeMeters>
            <DistanceMeters>48128.748631262</DistanceMeters>
          </Trackpoint>
          <Trackpoint>
            <Time>2021-03-13T09:52:11.000Z</Time>
            <Position>
              <LatitudeDegrees>36.73575955443084239959716796875</LatitudeDegrees>
              <LongitudeDegrees>-3.93270925618708133697509765625</LongitudeDegrees>
            </Position>
            <AltitudeMeters>-2.400000095367431640625</AltitudeMeters>
            <DistanceMeters>48190.528128592</DistanceMeters>
          </Trackpoint>
          <Trackpoint>
            <Time>2021-03-13T09:52:12.000Z</Time>
            <Position>
              <LatitudeDegrees>36.7358122766017913818359375</LatitudeDegrees>
              <LongitudeDegrees>-3.9326094277203083038330078125</LongitudeDegrees>
            </Position>
            <AltitudeMeters>-2.400000095367431640625</AltitudeMeters>
            <DistanceMeters>48201.192310827</DistanceMeters>
          </Trackpoint>
          <Trackpoint>
            <Time>2021-03-13T09:52:18.000Z</Time>
            <Position>
              <LatitudeDegrees>36.736125759780406951904296875</LatitudeDegrees>
              <LongitudeDegrees>-3.93202696926891803741455078125</LongitudeDegrees>
            </Position>
            <AltitudeMeters>-2.599999904632568359375</AltitudeMeters>
            <DistanceMeters>48263.775032051</DistanceMeters>
          </Trackpoint>
          <Trackpoint>
            <Time>2021-03-13T09:52:20.000Z</Time>
            <Position>
              <LatitudeDegrees>36.73622659407556056976318359375</LatitudeDegrees>
              <LongitudeDegrees>-3.93181272782385349273681640625</LongitudeDegrees>
            </Position>
            <AltitudeMeters>-2.7999999523162841796875</AltitudeMeters>
            <DistanceMeters>48285.936842848</DistanceMeters>
          </Trackpoint>
          <Trackpoint>
            <Time>2021-03-13T09:52:26.000Z</Time>
            <Position>
              <LatitudeDegrees>36.7364645563066005706787109375</LatitudeDegrees>
              <LongitudeDegrees>-3.931109905242919921875</LongitudeDegrees>
            </Position>
            <AltitudeMeters>-3.2000000476837158203125</AltitudeMeters>
            <DistanceMeters>48353.991894739</DistanceMeters>
          </Trackpoint>
          <Trackpoint>
            <Time>2021-03-13T09:52:32.000Z</Time>
            <Position>
              <LatitudeDegrees>36.736593805253505706787109375</LatitudeDegrees>
              <LongitudeDegrees>-3.93041043542325496673583984375</LongitudeDegrees>
            </Position>
            <AltitudeMeters>-3.2000000476837158203125</AltitudeMeters>
            <DistanceMeters>48418.019453528</DistanceMeters>
          </Trackpoint>
          <Trackpoint>
            <Time>2021-03-13T09:52:39.000Z</Time>
            <Position>
              <LatitudeDegrees>36.7367403209209442138671875</LatitudeDegrees>
              <LongitudeDegrees>-3.92965103499591350555419921875</LongitudeDegrees>
            </Position>
            <AltitudeMeters>-2</AltitudeMeters>
            <DistanceMeters>48487.690821624</DistanceMeters>
          </Trackpoint>
          <Trackpoint>
            <Time>2021-03-13T09:52:40.000Z</Time>
            <Position>
              <LatitudeDegrees>36.736762113869190216064453125</LatitudeDegrees>
              <LongitudeDegrees>-3.9295698143541812896728515625</LongitudeDegrees>
            </Position>
            <AltitudeMeters>-2</AltitudeMeters>
            <DistanceMeters>48495.330874905</DistanceMeters>
          </Trackpoint>
          <Trackpoint>
            <Time>2021-03-13T09:52:44.000Z</Time>
            <Position>
              <LatitudeDegrees>36.73689044080674648284912109375</LatitudeDegrees>
              <LongitudeDegrees>-3.92917796038091182708740234375</LongitudeDegrees>
            </Position>
            <AltitudeMeters>-0.800000011920928955078125</AltitudeMeters>
            <DistanceMeters>48533.088660974</DistanceMeters>
          </Trackpoint>
          <Trackpoint>
            <Time>2021-03-13T09:52:46.000Z</Time>
            <Position>
              <LatitudeDegrees>36.7369624413549900054931640625</LatitudeDegrees>
              <LongitudeDegrees>-3.92898316495120525360107421875</LongitudeDegrees>
            </Position>
            <AltitudeMeters>-0.60000002384185791015625</AltitudeMeters>
            <DistanceMeters>48552.222803738</DistanceMeters>
          </Trackpoint>
          <Trackpoint>
            <Time>2021-03-13T09:52:52.000Z</Time>
            <Position>
              <LatitudeDegrees>36.7371569015085697174072265625</LatitudeDegrees>
              <LongitudeDegrees>-3.92838737927377223968505859375</LongitudeDegrees>
            </Position>
            <AltitudeMeters>0.4000000059604644775390625</AltitudeMeters>
            <DistanceMeters>48609.603046789</DistanceMeters>
          </Trackpoint>
          <Trackpoint>
            <Time>2021-03-13T09:52:54.000Z</Time>
            <Position>
              <LatitudeDegrees>36.737206690013408660888671875</LatitudeDegrees>
              <LongitudeDegrees>-3.92815553583204746246337890625</LongitudeDegrees>
            </Position>
            <AltitudeMeters>0.800000011920928955078125</AltitudeMeters>
            <DistanceMeters>48631.012124774</DistanceMeters>
          </Trackpoint>
          <Trackpoint>
            <Time>2021-03-13T09:53:00.000Z</Time>
            <Position>
              <LatitudeDegrees>36.7372792772948741912841796875</LatitudeDegrees>
              <LongitudeDegrees>-3.9275239594280719757080078125</LongitudeDegrees>
            </Position>
            <AltitudeMeters>1</AltitudeMeters>
            <DistanceMeters>48687.922575993</DistanceMeters>
          </Trackpoint>
          <Trackpoint>
            <Time>2021-03-13T09:53:04.000Z</Time>
            <Position>
              <LatitudeDegrees>36.737334430217742919921875</LatitudeDegrees>
              <LongitudeDegrees>-3.9270927943289279937744140625</LongitudeDegrees>
            </Position>
            <AltitudeMeters>1.2000000476837158203125</AltitudeMeters>
            <DistanceMeters>48726.867533301</DistanceMeters>
          </Trackpoint>
          <Trackpoint>
            <Time>2021-03-13T09:53:05.000Z</Time>
            <Position>
              <LatitudeDegrees>36.7373543791472911834716796875</LatitudeDegrees>
              <LongitudeDegrees>-3.92698877491056919097900390625</LongitudeDegrees>
            </Position>
            <AltitudeMeters>1.2000000476837158203125</AltitudeMeters>
            <DistanceMeters>48736.408139705</DistanceMeters>
          </Trackpoint>
          <Trackpoint>
            <Time>2021-03-13T09:53:07.000Z</Time>
            <Position>
              <LatitudeDegrees>36.7374180816113948822021484375</LatitudeDegrees>
              <LongitudeDegrees>-3.9267722703516483306884765625</LongitudeDegrees>
            </Position>
            <AltitudeMeters>1.2000000476837158203125</AltitudeMeters>
            <DistanceMeters>48756.980271162</DistanceMeters>
          </Trackpoint>
          <Trackpoint>
            <Time>2021-03-13T09:53:11.000Z</Time>
            <Position>
              <LatitudeDegrees>36.73759837634861469268798828125</LatitudeDegrees>
              <LongitudeDegrees>-3.9264336414635181427001953125</LongitudeDegrees>
            </Position>
            <AltitudeMeters>1.60000002384185791015625</AltitudeMeters>
            <DistanceMeters>48793.243142699</DistanceMeters>
          </Trackpoint>
          <Trackpoint>
            <Time>2021-03-13T09:53:12.000Z</Time>
            <Position>
              <LatitudeDegrees>36.73766258172690868377685546875</LatitudeDegrees>
              <LongitudeDegrees>-3.9263518340885639190673828125</LongitudeDegrees>
            </Position>
            <AltitudeMeters>1.60000002384185791015625</AltitudeMeters>
            <DistanceMeters>48803.456635886</DistanceMeters>
          </Trackpoint>
          <Trackpoint>
            <Time>2021-03-13T09:53:16.000Z</Time>
            <Position>
              <LatitudeDegrees>36.73796676099300384521484375</LatitudeDegrees>
              <LongitudeDegrees>-3.9260611496865749359130859375</LongitudeDegrees>
            </Position>
            <AltitudeMeters>1.60000002384185791015625</AltitudeMeters>
            <DistanceMeters>48846.100026161</DistanceMeters>
          </Trackpoint>
          <Trackpoint>
            <Time>2021-03-13T09:53:22.000Z</Time>
            <Position>
              <LatitudeDegrees>36.73849674873054027557373046875</LatitudeDegrees>
              <LongitudeDegrees>-3.925646580755710601806640625</LongitudeDegrees>
            </Position>
            <AltitudeMeters>1</AltitudeMeters>
            <DistanceMeters>48915.72043906</DistanceMeters>
          </Trackpoint>
          <Trackpoint>
            <Time>2021-03-13T09:53:26.000Z</Time>
            <Position>
              <LatitudeDegrees>36.7388208769261837005615234375</LatitudeDegrees>
              <LongitudeDegrees>-3.925299234688282012939453125</LongitudeDegrees>
            </Position>
            <AltitudeMeters>0.60000002384185791015625</AltitudeMeters>
            <DistanceMeters>48963.27388061</DistanceMeters>
          </Trackpoint>
          <Trackpoint>
            <Time>2021-03-13T09:53:27.000Z</Time>
            <Position>
              <LatitudeDegrees>36.7388761974871158599853515625</LatitudeDegrees>
              <LongitudeDegrees>-3.92522639594972133636474609375</LongitudeDegrees>
            </Position>
            <AltitudeMeters>0.4000000059604644775390625</AltitudeMeters>
            <DistanceMeters>48972.224569869</DistanceMeters>
          </Trackpoint>
          <Trackpoint>
            <Time>2021-03-13T09:53:29.000Z</Time>
            <Position>
              <LatitudeDegrees>36.73900804482400417327880859375</LatitudeDegrees>
              <LongitudeDegrees>-3.925039060413837432861328125</LongitudeDegrees>
            </Position>
            <AltitudeMeters>0.20000000298023223876953125</AltitudeMeters>
            <DistanceMeters>48994.462851424</DistanceMeters>
          </Trackpoint>
          <Trackpoint>
            <Time>2021-03-13T09:53:33.000Z</Time>
            <Position>
              <LatitudeDegrees>36.7392513714730739593505859375</LatitudeDegrees>
              <LongitudeDegrees>-3.92463161610066890716552734375</LongitudeDegrees>
            </Position>
            <AltitudeMeters>-0.4000000059604644775390625</AltitudeMeters>
            <DistanceMeters>49039.785912327</DistanceMeters>
          </Trackpoint>
          <Trackpoint>
            <Time>2021-03-13T09:53:36.000Z</Time>
            <Position>
              <LatitudeDegrees>36.7394257150590419769287109375</LatitudeDegrees>
              <LongitudeDegrees>-3.92430271022021770477294921875</LongitudeDegrees>
            </Position>
            <AltitudeMeters>-0.800000011920928955078125</AltitudeMeters>
            <DistanceMeters>49074.959149215</DistanceMeters>
          </Trackpoint>
          <Trackpoint>
            <Time>2021-03-13T09:53:41.000Z</Time>
            <Position>
              <LatitudeDegrees>36.7397264577448368072509765625</LatitudeDegrees>
              <LongitudeDegrees>-3.92373642884194850921630859375</LongitudeDegrees>
            </Position>
            <AltitudeMeters>-1.2000000476837158203125</AltitudeMeters>
            <DistanceMeters>49135.552596646</DistanceMeters>
          </Trackpoint>
          <Trackpoint>
            <Time>2021-03-13T09:53:46.000Z</Time>
            <Position>
              <LatitudeDegrees>36.73999493010342121124267578125</LatitudeDegrees>
              <LongitudeDegrees>-3.9232304133474826812744140625</LongitudeDegrees>
            </Position>
            <AltitudeMeters>-2</AltitudeMeters>
            <DistanceMeters>49189.68105102</DistanceMeters>
          </Trackpoint>
          <Trackpoint>
            <Time>2021-03-13T09:53:47.000Z</Time>
            <Position>
              <LatitudeDegrees>36.740059219300746917724609375</LatitudeDegrees>
              <LongitudeDegrees>-3.92311147414147853851318359375</LongitudeDegrees>
            </Position>
            <AltitudeMeters>-2</AltitudeMeters>
            <DistanceMeters>49202.476884173</DistanceMeters>
          </Trackpoint>
          <Trackpoint>
            <Time>2021-03-13T09:53:53.000Z</Time>
            <Position>
              <LatitudeDegrees>36.7403800785541534423828125</LatitudeDegrees>
              <LongitudeDegrees>-3.92250470817089080810546875</LongitudeDegrees>
            </Position>
            <AltitudeMeters>-2.400000095367431640625</AltitudeMeters>
            <DistanceMeters>49267.316933686</DistanceMeters>
          </Trackpoint>
          <Trackpoint>
            <Time>2021-03-13T09:53:56.000Z</Time>
            <Position>
              <LatitudeDegrees>36.74054972827434539794921875</LatitudeDegrees>
              <LongitudeDegrees>-3.92218695022165775299072265625</LongitudeDegrees>
            </Position>
            <AltitudeMeters>-2.599999904632568359375</AltitudeMeters>
            <DistanceMeters>49301.37271041</DistanceMeters>
          </Trackpoint>
          <Trackpoint>
            <Time>2021-03-13T09:53:59.000Z</Time>
            <Position>
              <LatitudeDegrees>36.740708313882350921630859375</LatitudeDegrees>
              <LongitudeDegrees>-3.92186122946441173553466796875</LongitudeDegrees>
            </Position>
            <AltitudeMeters>-3.400000095367431640625</AltitudeMeters>
            <DistanceMeters>49335.366251302</DistanceMeters>
          </Trackpoint>
          <Trackpoint>
            <Time>2021-03-13T09:54:03.000Z</Time>
            <Position>
              <LatitudeDegrees>36.74088777042925357818603515625</LatitudeDegrees>
              <LongitudeDegrees>-3.92139829695224761962890625</LongitudeDegrees>
            </Position>
            <AltitudeMeters>-4.19999980926513671875</AltitudeMeters>
            <DistanceMeters>49381.233452216</DistanceMeters>
          </Trackpoint>
          <Trackpoint>
            <Time>2021-03-13T09:54:08.000Z</Time>
            <Position>
              <LatitudeDegrees>36.74101366661489009857177734375</LatitudeDegrees>
              <LongitudeDegrees>-3.9207885973155498504638671875</LongitudeDegrees>
            </Position>
            <AltitudeMeters>-4.599999904632568359375</AltitudeMeters>
            <DistanceMeters>49437.389818518</DistanceMeters>
          </Trackpoint>
          <Trackpoint>
            <Time>2021-03-13T09:54:11.000Z</Time>
            <Position>
              <LatitudeDegrees>36.74105373211205005645751953125</LatitudeDegrees>
              <LongitudeDegrees>-3.9203775487840175628662109375</LongitudeDegrees>
            </Position>
            <AltitudeMeters>-4.80000019073486328125</AltitudeMeters>
            <DistanceMeters>49474.32209501</DistanceMeters>
          </Trackpoint>
          <Trackpoint>
            <Time>2021-03-13T09:54:15.000Z</Time>
            <Position>
              <LatitudeDegrees>36.74108742736279964447021484375</LatitudeDegrees>
              <LongitudeDegrees>-3.91989299096167087554931640625</LongitudeDegrees>
            </Position>
            <AltitudeMeters>-4.80000019073486328125</AltitudeMeters>
            <DistanceMeters>49517.703013064</DistanceMeters>
          </Trackpoint>
          <Trackpoint>
            <Time>2021-03-13T09:54:16.000Z</Time>
            <Position>
              <LatitudeDegrees>36.7410977371037006378173828125</LatitudeDegrees>
              <LongitudeDegrees>-3.9197425357997417449951171875</LongitudeDegrees>
            </Position>
            <AltitudeMeters>-4.80000019073486328125</AltitudeMeters>
            <DistanceMeters>49531.171352813</DistanceMeters>
          </Trackpoint>
          <Trackpoint>
            <Time>2021-03-13T09:54:22.000Z</Time>
            <Position>
              <LatitudeDegrees>36.74114341847598552703857421875</LatitudeDegrees>
              <LongitudeDegrees>-3.9189968816936016082763671875</LongitudeDegrees>
            </Position>
            <AltitudeMeters>-4.80000019073486328125</AltitudeMeters>
            <DistanceMeters>49597.871306951</DistanceMeters>
          </Trackpoint>
          <Trackpoint>
            <Time>2021-03-13T09:54:25.000Z</Time>
            <Position>
              <LatitudeDegrees>36.74116102047264575958251953125</LatitudeDegrees>
              <LongitudeDegrees>-3.91864903271198272705078125</LongitudeDegrees>
            </Position>
            <AltitudeMeters>-4.80000019073486328125</AltitudeMeters>
            <DistanceMeters>49628.95826211</DistanceMeters>
          </Trackpoint>
          <Trackpoint>
            <Time>2021-03-13T09:54:31.000Z</Time>
            <Position>
              <LatitudeDegrees>36.7412006668746471405029296875</LatitudeDegrees>
              <LongitudeDegrees>-3.9179695956408977508544921875</LongitudeDegrees>
            </Position>
            <AltitudeMeters>-4.599999904632568359375</AltitudeMeters>
            <DistanceMeters>49689.718613763</DistanceMeters>
          </Trackpoint>
          <Trackpoint>
            <Time>2021-03-13T09:54:32.000Z</Time>
            <Position>
              <LatitudeDegrees>36.74120779149234294891357421875</LatitudeDegrees>
              <LongitudeDegrees>-3.91785333864390850067138671875</LongitudeDegrees>
            </Position>
            <AltitudeMeters>-4.400000095367431640625</AltitudeMeters>
            <DistanceMeters>49700.118288065</DistanceMeters>
          </Trackpoint>
          <Trackpoint>
            <Time>2021-03-13T09:54:38.000Z</Time>
            <Position>
              <LatitudeDegrees>36.741255819797515869140625</LatitudeDegrees>
              <LongitudeDegrees>-3.91715747304260730743408203125</LongitudeDegrees>
            </Position>
            <AltitudeMeters>-4.400000095367431640625</AltitudeMeters>
            <DistanceMeters>49762.41328242</DistanceMeters>
          </Trackpoint>
          <Trackpoint>
            <Time>2021-03-13T09:54:41.000Z</Time>
            <Position>
              <LatitudeDegrees>36.74128171987831592559814453125</LatitudeDegrees>
              <LongitudeDegrees>-3.91681062988936901092529296875</LongitudeDegrees>
            </Position>
            <AltitudeMeters>-4.19999980926513671875</AltitudeMeters>
            <DistanceMeters>49793.48280401</DistanceMeters>
          </Trackpoint>
          <Trackpoint>
            <Time>2021-03-13T09:54:43.000Z</Time>
            <Position>
              <LatitudeDegrees>36.74129915423691272735595703125</LatitudeDegrees>
              <LongitudeDegrees>-3.91658498905599117279052734375</LongitudeDegrees>
            </Position>
            <AltitudeMeters>-4.19999980926513671875</AltitudeMeters>
            <DistanceMeters>49813.701175125</DistanceMeters>
          </Trackpoint>
          <Trackpoint>
            <Time>2021-03-13T09:54:47.000Z</Time>
            <Position>
              <LatitudeDegrees>36.74137677066028118133544921875</LatitudeDegrees>
              <LongitudeDegrees>-3.91615399159491062164306640625</LongitudeDegrees>
            </Position>
            <AltitudeMeters>-4.599999904632568359375</AltitudeMeters>
            <DistanceMeters>49853.101180728</DistanceMeters>
          </Trackpoint>
          <Trackpoint>
            <Time>2021-03-13T09:54:52.000Z</Time>
            <Position>
              <LatitudeDegrees>36.74154239706695079803466796875</LatitudeDegrees>
              <LongitudeDegrees>-3.91562475822865962982177734375</LongitudeDegrees>
            </Position>
            <AltitudeMeters>-4.400000095367431640625</AltitudeMeters>
            <DistanceMeters>49903.776175341</DistanceMeters>
          </Trackpoint>
          <Trackpoint>
            <Time>2021-03-13T09:54:55.000Z</Time>
            <Position>
              <LatitudeDegrees>36.7416439019143581390380859375</LatitudeDegrees>
              <LongitudeDegrees>-3.9153185673058032989501953125</LongitudeDegrees>
            </Position>
            <AltitudeMeters>-4.400000095367431640625</AltitudeMeters>
            <DistanceMeters>49933.33024738</DistanceMeters>
          </Trackpoint>
          <Trackpoint>
            <Time>2021-03-13T09:55:00.000Z</Time>
            <Position>
              <LatitudeDegrees>36.74183391965925693511962890625</LatitudeDegrees>
              <LongitudeDegrees>-3.91478053294122219085693359375</LongitudeDegrees>
            </Position>
            <AltitudeMeters>-4.400000095367431640625</AltitudeMeters>
            <DistanceMeters>49985.771908692</DistanceMeters>
          </Trackpoint>
          <Trackpoint>
            <Time>2021-03-13T09:55:03.000Z</Time>
            <Position>
              <LatitudeDegrees>36.7419308982789516448974609375</LatitudeDegrees>
              <LongitudeDegrees>-3.9145159162580966949462890625</LongitudeDegrees>
            </Position>
            <AltitudeMeters>-4.400000095367431640625</AltitudeMeters>
            <DistanceMeters>50011.724468138</DistanceMeters>
          </Trackpoint>
          <Trackpoint>
            <Time>2021-03-13T09:55:09.000Z</Time>
            <Position>
              <LatitudeDegrees>36.742221750319004058837890625</LatitudeDegrees>
              <LongitudeDegrees>-3.91396346502006053924560546875</LongitudeDegrees>
            </Position>
            <AltitudeMeters>-4.599999904632568359375</AltitudeMeters>
            <DistanceMeters>50070.680714327</DistanceMeters>
          </Trackpoint>
          <Trackpoint>
            <Time>2021-03-13T09:55:16.000Z</Time>
            <Position>
              <LatitudeDegrees>36.742605976760387420654296875</LatitudeDegrees>
              <LongitudeDegrees>-3.91337539069354534149169921875</LongitudeDegrees>
            </Position>
            <AltitudeMeters>-4.400000095367431640625</AltitudeMeters>
            <DistanceMeters>50138.355615369</DistanceMeters>
          </Trackpoint>
          <Trackpoint>
            <Time>2021-03-13T09:55:17.000Z</Time>
            <Position>
              <LatitudeDegrees>36.742659620940685272216796875</LatitudeDegrees>
              <LongitudeDegrees>-3.91328620724380016326904296875</LongitudeDegrees>
            </Position>
            <AltitudeMeters>-4.400000095367431640625</AltitudeMeters>
            <DistanceMeters>50148.301240406</DistanceMeters>
          </Trackpoint>
          <Trackpoint>
            <Time>2021-03-13T09:55:22.000Z</Time>
            <Position>
              <LatitudeDegrees>36.74287696368992328643798828125</LatitudeDegrees>
              <LongitudeDegrees>-3.91280525363981723785400390625</LongitudeDegrees>
            </Position>
            <AltitudeMeters>-5</AltitudeMeters>
            <DistanceMeters>50197.548187631</DistanceMeters>
          </Trackpoint>
          <Trackpoint>
            <Time>2021-03-13T09:55:26.000Z</Time>
            <Position>
              <LatitudeDegrees>36.7429786361753940582275390625</LatitudeDegrees>
              <LongitudeDegrees>-3.91239269636571407318115234375</LongitudeDegrees>
            </Position>
            <AltitudeMeters>-5</AltitudeMeters>
            <DistanceMeters>50236.044681312</DistanceMeters>
          </Trackpoint>
          <Trackpoint>
            <Time>2021-03-13T09:55:27.000Z</Time>
            <Position>
              <LatitudeDegrees>36.742990873754024505615234375</LatitudeDegrees>
              <LongitudeDegrees>-3.91228641383349895477294921875</LongitudeDegrees>
            </Position>
            <AltitudeMeters>-5</AltitudeMeters>
            <DistanceMeters>50245.621186747</DistanceMeters>
          </Trackpoint>
          <Trackpoint>
            <Time>2021-03-13T09:55:30.000Z</Time>
            <Position>
              <LatitudeDegrees>36.743009649217128753662109375</LatitudeDegrees>
              <LongitudeDegrees>-3.91197167336940765380859375</LongitudeDegrees>
            </Position>
            <AltitudeMeters>-4</AltitudeMeters>
            <DistanceMeters>50273.770435012</DistanceMeters>
          </Trackpoint>
          <Trackpoint>
            <Time>2021-03-13T09:55:31.000Z</Time>
            <Position>
              <LatitudeDegrees>36.7430104874074459075927734375</LatitudeDegrees>
              <LongitudeDegrees>-3.91186773777008056640625</LongitudeDegrees>
            </Position>
            <AltitudeMeters>-3.7999999523162841796875</AltitudeMeters>
            <DistanceMeters>50283.040776836</DistanceMeters>
          </Trackpoint>
          <Trackpoint>
            <Time>2021-03-13T09:55:33.000Z</Time>
            <Position>
              <LatitudeDegrees>36.74299858510494232177734375</LatitudeDegrees>
              <LongitudeDegrees>-3.91166598536074161529541015625</LongitudeDegrees>
            </Position>
            <AltitudeMeters>-3.2000000476837158203125</AltitudeMeters>
            <DistanceMeters>50301.08359496</DistanceMeters>
          </Trackpoint>
          <Trackpoint>
            <Time>2021-03-13T09:55:35.000Z</Time>
            <Position>
              <LatitudeDegrees>36.7429866828024387359619140625</LatitudeDegrees>
              <LongitudeDegrees>-3.91147487796843051910400390625</LongitudeDegrees>
            </Position>
            <AltitudeMeters>-2.599999904632568359375</AltitudeMeters>
            <DistanceMeters>50318.179954641</DistanceMeters>
          </Trackpoint>
          <Trackpoint>
            <Time>2021-03-13T09:55:37.000Z</Time>
            <Position>
              <LatitudeDegrees>36.7429709248244762420654296875</LatitudeDegrees>
              <LongitudeDegrees>-3.91130858100950717926025390625</LongitudeDegrees>
            </Position>
            <AltitudeMeters>-1.60000002384185791015625</AltitudeMeters>
            <DistanceMeters>50333.11548203</DistanceMeters>
          </Trackpoint>
          <Trackpoint>
            <Time>2021-03-13T09:55:38.000Z</Time>
            <Position>
              <LatitudeDegrees>36.74296095035970211029052734375</LatitudeDegrees>
              <LongitudeDegrees>-3.91122207976877689361572265625</LongitudeDegrees>
            </Position>
            <AltitudeMeters>-1.2000000476837158203125</AltitudeMeters>
            <DistanceMeters>50340.909989989</DistanceMeters>
          </Trackpoint>
          <Trackpoint>
            <Time>2021-03-13T09:55:41.000Z</Time>
            <Position>
              <LatitudeDegrees>36.74293228425085544586181640625</LatitudeDegrees>
              <LongitudeDegrees>-3.910970203578472137451171875</LongitudeDegrees>
            </Position>
            <AltitudeMeters>-0.4000000059604644775390625</AltitudeMeters>
            <DistanceMeters>50363.600093082</DistanceMeters>
          </Trackpoint>
          <Trackpoint>
            <Time>2021-03-13T09:55:43.000Z</Time>
            <Position>
              <LatitudeDegrees>36.74291585572063922882080078125</LatitudeDegrees>
              <LongitudeDegrees>-3.91081488691270351409912109375</LongitudeDegrees>
            </Position>
            <AltitudeMeters>1</AltitudeMeters>
            <DistanceMeters>50377.572575063</DistanceMeters>
          </Trackpoint>
          <Trackpoint>
            <Time>2021-03-13T09:55:45.000Z</Time>
            <Position>
              <LatitudeDegrees>36.74289925955235958099365234375</LatitudeDegrees>
              <LongitudeDegrees>-3.9106500148773193359375</LongitudeDegrees>
            </Position>
            <AltitudeMeters>2</AltitudeMeters>
            <DistanceMeters>50392.393087181</DistanceMeters>
          </Trackpoint>
          <Trackpoint>
            <Time>2021-03-13T09:55:49.000Z</Time>
            <Position>
              <LatitudeDegrees>36.7428736947476863861083984375</LatitudeDegrees>
              <LongitudeDegrees>-3.91034281812608242034912109375</LongitudeDegrees>
            </Position>
            <AltitudeMeters>3</AltitudeMeters>
            <DistanceMeters>50419.939363219</DistanceMeters>
          </Trackpoint>
          <Trackpoint>
            <Time>2021-03-13T09:55:51.000Z</Time>
            <Position>
              <LatitudeDegrees>36.7428592778742313385009765625</LatitudeDegrees>
              <LongitudeDegrees>-3.91018758527934551239013671875</LongitudeDegrees>
            </Position>
            <AltitudeMeters>3.2000000476837158203125</AltitudeMeters>
            <DistanceMeters>50433.877226561</DistanceMeters>
          </Trackpoint>
          <Trackpoint>
            <Time>2021-03-13T09:55:56.000Z</Time>
            <Position>
              <LatitudeDegrees>36.7428287677466869354248046875</LatitudeDegrees>
              <LongitudeDegrees>-3.9098254032433032989501953125</LongitudeDegrees>
            </Position>
            <AltitudeMeters>4.80000019073486328125</AltitudeMeters>
            <DistanceMeters>50466.35801921</DistanceMeters>
          </Trackpoint>
          <Trackpoint>
            <Time>2021-03-13T09:55:57.000Z</Time>
            <Position>
              <LatitudeDegrees>36.74282415769994258880615234375</LatitudeDegrees>
              <LongitudeDegrees>-3.90974988229572772979736328125</LongitudeDegrees>
            </Position>
            <AltitudeMeters>5</AltitudeMeters>
            <DistanceMeters>50473.113609958</DistanceMeters>
          </Trackpoint>
          <Trackpoint>
            <Time>2021-03-13T09:56:00.000Z</Time>
            <Position>
              <LatitudeDegrees>36.74282046966254711151123046875</LatitudeDegrees>
              <LongitudeDegrees>-3.9095102436840534210205078125</LongitudeDegrees>
            </Position>
            <AltitudeMeters>6</AltitudeMeters>
            <DistanceMeters>50494.490819284</DistanceMeters>
          </Trackpoint>
          <Trackpoint>
            <Time>2021-03-13T09:56:04.000Z</Time>
            <Position>
              <LatitudeDegrees>36.7428418435156345367431640625</LatitudeDegrees>
              <LongitudeDegrees>-3.90921075828373432159423828125</LongitudeDegrees>
            </Position>
            <AltitudeMeters>7.400000095367431640625</AltitudeMeters>
            <DistanceMeters>50521.307385018</DistanceMeters>
          </Trackpoint>
          <Trackpoint>
            <Time>2021-03-13T09:56:05.000Z</Time>
            <Position>
              <LatitudeDegrees>36.742850057780742645263671875</LatitudeDegrees>
              <LongitudeDegrees>-3.909141607582569122314453125</LongitudeDegrees>
            </Position>
            <AltitudeMeters>7.80000019073486328125</AltitudeMeters>
            <DistanceMeters>50527.543049311</DistanceMeters>
          </Trackpoint>
          <Trackpoint>
            <Time>2021-03-13T09:56:08.000Z</Time>
            <Position>
              <LatitudeDegrees>36.74288685433566570281982421875</LatitudeDegrees>
              <LongitudeDegrees>-3.90893667005002498626708984375</LongitudeDegrees>
            </Position>
            <AltitudeMeters>8.3999996185302734375</AltitudeMeters>
            <DistanceMeters>50546.274644286</DistanceMeters>
          </Trackpoint>
          <Trackpoint>
            <Time>2021-03-13T09:56:12.000Z</Time>
            <Position>
              <LatitudeDegrees>36.74294854514300823211669921875</LatitudeDegrees>
              <LongitudeDegrees>-3.9086992107331752777099609375</LongitudeDegrees>
            </Position>
            <AltitudeMeters>9.3999996185302734375</AltitudeMeters>
            <DistanceMeters>50568.538492923</DistanceMeters>
          </Trackpoint>
          <Trackpoint>
            <Time>2021-03-13T09:56:13.000Z</Time>
            <Position>
              <LatitudeDegrees>36.74296715296804904937744140625</LatitudeDegrees>
              <LongitudeDegrees>-3.908635340631008148193359375</LongitudeDegrees>
            </Position>
            <AltitudeMeters>9.6000003814697265625</AltitudeMeters>
            <DistanceMeters>50574.599379903</DistanceMeters>
          </Trackpoint>
          <Trackpoint>
            <Time>2021-03-13T09:56:17.000Z</Time>
            <Position>
              <LatitudeDegrees>36.74302808940410614013671875</LatitudeDegrees>
              <LongitudeDegrees>-3.908391259610652923583984375</LongitudeDegrees>
            </Position>
            <AltitudeMeters>10.6000003814697265625</AltitudeMeters>
            <DistanceMeters>50597.401039521</DistanceMeters>
          </Trackpoint>
          <Trackpoint>
            <Time>2021-03-13T09:56:20.000Z</Time>
            <Position>
              <LatitudeDegrees>36.7430507205426692962646484375</LatitudeDegrees>
              <LongitudeDegrees>-3.90819378197193145751953125</LongitudeDegrees>
            </Position>
            <AltitudeMeters>11.3999996185302734375</AltitudeMeters>
            <DistanceMeters>50615.193380286</DistanceMeters>
          </Trackpoint>
          <Trackpoint>
            <Time>2021-03-13T09:56:21.000Z</Time>
            <Position>
              <LatitudeDegrees>36.743051894009113311767578125</LatitudeDegrees>
              <LongitudeDegrees>-3.90810702927410602569580078125</LongitudeDegrees>
            </Position>
            <AltitudeMeters>11.6000003814697265625</AltitudeMeters>
            <DistanceMeters>50622.932079593</DistanceMeters>
          </Trackpoint>
          <Trackpoint>
            <Time>2021-03-13T09:56:22.000Z</Time>
            <Position>
              <LatitudeDegrees>36.74304728396236896514892578125</LatitudeDegrees>
              <LongitudeDegrees>-3.908031173050403594970703125</LongitudeDegrees>
            </Position>
            <AltitudeMeters>11.6000003814697265625</AltitudeMeters>
            <DistanceMeters>50629.717013617</DistanceMeters>
          </Trackpoint>
          <Trackpoint>
            <Time>2021-03-13T09:56:25.000Z</Time>
            <Position>
              <LatitudeDegrees>36.7430292628705501556396484375</LatitudeDegrees>
              <LongitudeDegrees>-3.907801844179630279541015625</LongitudeDegrees>
            </Position>
            <AltitudeMeters>11.80000019073486328125</AltitudeMeters>
            <DistanceMeters>50650.268723901</DistanceMeters>
          </Trackpoint>
          <Trackpoint>
            <Time>2021-03-13T09:56:27.000Z</Time>
            <Position>
              <LatitudeDegrees>36.7430534027516841888427734375</LatitudeDegrees>
              <LongitudeDegrees>-3.90766630880534648895263671875</LongitudeDegrees>
            </Position>
            <AltitudeMeters>12</AltitudeMeters>
            <DistanceMeters>50662.652130467</DistanceMeters>
          </Trackpoint>
          <Trackpoint>
            <Time>2021-03-13T09:56:28.000Z</Time>
            <Position>
              <LatitudeDegrees>36.74308500252664089202880859375</LatitudeDegrees>
              <LongitudeDegrees>-3.90759925357997417449951171875</LongitudeDegrees>
            </Position>
            <AltitudeMeters>12.19999980926513671875</AltitudeMeters>
            <DistanceMeters>50669.589731453</DistanceMeters>
          </Trackpoint>
          <Trackpoint>
            <Time>2021-03-13T09:56:29.000Z</Time>
            <Position>
              <LatitudeDegrees>36.7431291751563549041748046875</LatitudeDegrees>
              <LongitudeDegrees>-3.90753823332488536834716796875</LongitudeDegrees>
            </Position>
            <AltitudeMeters>12.19999980926513671875</AltitudeMeters>
            <DistanceMeters>50676.924045694</DistanceMeters>
          </Trackpoint>
          <Trackpoint>
            <Time>2021-03-13T09:56:32.000Z</Time>
            <Position>
              <LatitudeDegrees>36.7432800494134426116943359375</LatitudeDegrees>
              <LongitudeDegrees>-3.90735483728349208831787109375</LongitudeDegrees>
            </Position>
            <AltitudeMeters>12.19999980926513671875</AltitudeMeters>
            <DistanceMeters>50700.366579521</DistanceMeters>
          </Trackpoint>
          <Trackpoint>
            <Time>2021-03-13T09:56:37.000Z</Time>
            <Position>
              <LatitudeDegrees>36.74343310296535491943359375</LatitudeDegrees>
              <LongitudeDegrees>-3.907007239758968353271484375</LongitudeDegrees>
            </Position>
            <AltitudeMeters>12.19999980926513671875</AltitudeMeters>
            <DistanceMeters>50735.740393606</DistanceMeters>
          </Trackpoint>
          <Trackpoint>
            <Time>2021-03-13T09:56:40.000Z</Time>
            <Position>
              <LatitudeDegrees>36.74349009990692138671875</LatitudeDegrees>
              <LongitudeDegrees>-3.90675871632993221282958984375</LongitudeDegrees>
            </Position>
            <AltitudeMeters>12.3999996185302734375</AltitudeMeters>
            <DistanceMeters>50758.7956841</DistanceMeters>
          </Trackpoint>
          <Trackpoint>
            <Time>2021-03-13T09:56:42.000Z</Time>
            <Position>
              <LatitudeDegrees>36.7435110546648502349853515625</LatitudeDegrees>
              <LongitudeDegrees>-3.90658537857234477996826171875</LongitudeDegrees>
            </Position>
            <AltitudeMeters>12.6000003814697265625</AltitudeMeters>
            <DistanceMeters>50774.430394502</DistanceMeters>
          </Trackpoint>
          <Trackpoint>
            <Time>2021-03-13T09:56:43.000Z</Time>
            <Position>
              <LatitudeDegrees>36.7435160838067531585693359375</LatitudeDegrees>
              <LongitudeDegrees>-3.9064971171319484710693359375</LongitudeDegrees>
            </Position>
            <AltitudeMeters>12.6000003814697265625</AltitudeMeters>
            <DistanceMeters>50782.322190067</DistanceMeters>
          </Trackpoint>
          <Trackpoint>
            <Time>2021-03-13T09:56:49.000Z</Time>
            <Position>
              <LatitudeDegrees>36.743481047451496124267578125</LatitudeDegrees>
              <LongitudeDegrees>-3.90594650991261005401611328125</LongitudeDegrees>
            </Position>
            <AltitudeMeters>13</AltitudeMeters>
            <DistanceMeters>50831.584720696</DistanceMeters>
          </Trackpoint>
          <Trackpoint>
            <Time>2021-03-13T09:56:56.000Z</Time>
            <Position>
              <LatitudeDegrees>36.74344408325850963592529296875</LatitudeDegrees>
              <LongitudeDegrees>-3.9052493870258331298828125</LongitudeDegrees>
            </Position>
            <AltitudeMeters>13.19999980926513671875</AltitudeMeters>
            <DistanceMeters>50893.896165464</DistanceMeters>
          </Trackpoint>
          <Trackpoint>
            <Time>2021-03-13T09:56:57.000Z</Time>
            <Position>
              <LatitudeDegrees>36.74345187842845916748046875</LatitudeDegrees>
              <LongitudeDegrees>-3.90514369122684001922607421875</LongitudeDegrees>
            </Position>
            <AltitudeMeters>13</AltitudeMeters>
            <DistanceMeters>50903.362657878</DistanceMeters>
          </Trackpoint>
          <Trackpoint>
            <Time>2021-03-13T09:56:59.000Z</Time>
            <Position>
              <LatitudeDegrees>36.743498481810092926025390625</LatitudeDegrees>
              <LongitudeDegrees>-3.904908411204814910888671875</LongitudeDegrees>
            </Position>
            <AltitudeMeters>12.80000019073486328125</AltitudeMeters>
            <DistanceMeters>50924.978467959</DistanceMeters>
          </Trackpoint>
          <Trackpoint>
            <Time>2021-03-13T09:57:00.000Z</Time>
            <Position>
              <LatitudeDegrees>36.7435308359563350677490234375</LatitudeDegrees>
              <LongitudeDegrees>-3.904800452291965484619140625</LongitudeDegrees>
            </Position>
            <AltitudeMeters>12.6000003814697265625</AltitudeMeters>
            <DistanceMeters>50935.258496394</DistanceMeters>
          </Trackpoint>
          <Trackpoint>
            <Time>2021-03-13T09:57:05.000Z</Time>
            <Position>
              <LatitudeDegrees>36.7437462508678436279296875</LatitudeDegrees>
              <LongitudeDegrees>-3.9043213427066802978515625</LongitudeDegrees>
            </Position>
            <AltitudeMeters>12</AltitudeMeters>
            <DistanceMeters>50984.256356591</DistanceMeters>
          </Trackpoint>
          <Trackpoint>
            <Time>2021-03-13T09:57:06.000Z</Time>
            <Position>
              <LatitudeDegrees>36.7438003979623317718505859375</LatitudeDegrees>
              <LongitudeDegrees>-3.9042360149323940277099609375</LongitudeDegrees>
            </Position>
            <AltitudeMeters>11.6000003814697265625</AltitudeMeters>
            <DistanceMeters>50993.963976163</DistanceMeters>
          </Trackpoint>
          <Trackpoint>
            <Time>2021-03-13T09:57:08.000Z</Time>
            <Position>
              <LatitudeDegrees>36.74390223808586597442626953125</LatitudeDegrees>
              <LongitudeDegrees>-3.904084302484989166259765625</LongitudeDegrees>
            </Position>
            <AltitudeMeters>11</AltitudeMeters>
            <DistanceMeters>51011.614916577</DistanceMeters>
          </Trackpoint>
          <Trackpoint>
            <Time>2021-03-13T09:57:10.000Z</Time>
            <Position>
              <LatitudeDegrees>36.74399770796298980712890625</LatitudeDegrees>
              <LongitudeDegrees>-3.903957903385162353515625</LongitudeDegrees>
            </Position>
            <AltitudeMeters>10.80000019073486328125</AltitudeMeters>
            <DistanceMeters>51027.106894234</DistanceMeters>
          </Trackpoint>
          <Trackpoint>
            <Time>2021-03-13T09:57:11.000Z</Time>
            <Position>
              <LatitudeDegrees>36.7440354265272617340087890625</LatitudeDegrees>
              <LongitudeDegrees>-3.90389629639685153961181640625</LongitudeDegrees>
            </Position>
            <AltitudeMeters>10.3999996185302734375</AltitudeMeters>
            <DistanceMeters>51034.021026478</DistanceMeters>
          </Trackpoint>
          <Trackpoint>
            <Time>2021-03-13T09:57:13.000Z</Time>
            <Position>
              <LatitudeDegrees>36.7440880648791790008544921875</LatitudeDegrees>
              <LongitudeDegrees>-3.90375078655779361724853515625</LongitudeDegrees>
            </Position>
            <AltitudeMeters>10</AltitudeMeters>
            <DistanceMeters>51048.259504144</DistanceMeters>
          </Trackpoint>
          <Trackpoint>
            <Time>2021-03-13T09:57:15.000Z</Time>
            <Position>
              <LatitudeDegrees>36.74419996328651905059814453125</LatitudeDegrees>
              <LongitudeDegrees>-3.90361734665930271148681640625</LongitudeDegrees>
            </Position>
            <AltitudeMeters>9.6000003814697265625</AltitudeMeters>
            <DistanceMeters>51065.48583202</DistanceMeters>
          </Trackpoint>
          <Trackpoint>
            <Time>2021-03-13T09:57:16.000Z</Time>
            <Position>
              <LatitudeDegrees>36.7442781664431095123291015625</LatitudeDegrees>
              <LongitudeDegrees>-3.903571665287017822265625</LongitudeDegrees>
            </Position>
            <AltitudeMeters>9.3999996185302734375</AltitudeMeters>
            <DistanceMeters>51075.096223369</DistanceMeters>
          </Trackpoint>
          <Trackpoint>
            <Time>2021-03-13T09:57:17.000Z</Time>
            <Position>
              <LatitudeDegrees>36.7443589679896831512451171875</LatitudeDegrees>
              <LongitudeDegrees>-3.90352598391473293304443359375</LongitudeDegrees>
            </Position>
            <AltitudeMeters>9.19999980926513671875</AltitudeMeters>
            <DistanceMeters>51084.969402959</DistanceMeters>
          </Trackpoint>
          <Trackpoint>
            <Time>2021-03-13T09:57:19.000Z</Time>
            <Position>
              <LatitudeDegrees>36.744516380131244659423828125</LatitudeDegrees>
              <LongitudeDegrees>-3.903378881514072418212890625</LongitudeDegrees>
            </Position>
            <AltitudeMeters>8.19999980926513671875</AltitudeMeters>
            <DistanceMeters>51106.857337435</DistanceMeters>
          </Trackpoint>
          <Trackpoint>
            <Time>2021-03-13T09:57:21.000Z</Time>
            <Position>
              <LatitudeDegrees>36.74461922608315944671630859375</LatitudeDegrees>
              <LongitudeDegrees>-3.90320898033678531646728515625</LongitudeDegrees>
            </Position>
            <AltitudeMeters>7.19999980926513671875</AltitudeMeters>
            <DistanceMeters>51125.847945457</DistanceMeters>
          </Trackpoint>
          <Trackpoint>
            <Time>2021-03-13T09:57:22.000Z</Time>
            <Position>
              <LatitudeDegrees>36.7446640692651271820068359375</LatitudeDegrees>
              <LongitudeDegrees>-3.90310160815715789794921875</LongitudeDegrees>
            </Position>
            <AltitudeMeters>6.80000019073486328125</AltitudeMeters>
            <DistanceMeters>51136.64676054</DistanceMeters>
          </Trackpoint>
          <Trackpoint>
            <Time>2021-03-13T09:57:23.000Z</Time>
            <Position>
              <LatitudeDegrees>36.74469985999166965484619140625</LatitudeDegrees>
              <LongitudeDegrees>-3.902985267341136932373046875</LongitudeDegrees>
            </Position>
            <AltitudeMeters>6.400000095367431640625</AltitudeMeters>
            <DistanceMeters>51147.761230646</DistanceMeters>
          </Trackpoint>
          <Trackpoint>
            <Time>2021-03-13T09:57:25.000Z</Time>
            <Position>
              <LatitudeDegrees>36.7447493970394134521484375</LatitudeDegrees>
              <LongitudeDegrees>-3.9027359895408153533935546875</LongitudeDegrees>
            </Position>
            <AltitudeMeters>5</AltitudeMeters>
            <DistanceMeters>51170.667202831</DistanceMeters>
          </Trackpoint>
          <Trackpoint>
            <Time>2021-03-13T09:57:28.000Z</Time>
            <Position>
              <LatitudeDegrees>36.74481452442705631256103515625</LatitudeDegrees>
              <LongitudeDegrees>-3.9023463986814022064208984375</LongitudeDegrees>
            </Position>
            <AltitudeMeters>4</AltitudeMeters>
            <DistanceMeters>51206.16181137</DistanceMeters>
          </Trackpoint>
          <Trackpoint>
            <Time>2021-03-13T09:57:31.000Z</Time>
            <Position>
              <LatitudeDegrees>36.7448783107101917266845703125</LatitudeDegrees>
              <LongitudeDegrees>-3.90194918029010295867919921875</LongitudeDegrees>
            </Position>
            <AltitudeMeters>3</AltitudeMeters>
            <DistanceMeters>51242.29296263</DistanceMeters>
          </Trackpoint>
          <Trackpoint>
            <Time>2021-03-13T09:57:32.000Z</Time>
            <Position>
              <LatitudeDegrees>36.74489901401102542877197265625</LatitudeDegrees>
              <LongitudeDegrees>-3.90181817114353179931640625</LongitudeDegrees>
            </Position>
            <AltitudeMeters>2.599999904632568359375</AltitudeMeters>
            <DistanceMeters>51254.202809009</DistanceMeters>
          </Trackpoint>
          <Trackpoint>
            <Time>2021-03-13T09:57:36.000Z</Time>
            <Position>
              <LatitudeDegrees>36.74497629515826702117919921875</LatitudeDegrees>
              <LongitudeDegrees>-3.90132875181734561920166015625</LongitudeDegrees>
            </Position>
            <AltitudeMeters>1</AltitudeMeters>
            <DistanceMeters>51298.692161171</DistanceMeters>
          </Trackpoint>
          <Trackpoint>
            <Time>2021-03-13T09:57:40.000Z</Time>
            <Position>
              <LatitudeDegrees>36.745050810277462005615234375</LatitudeDegrees>
              <LongitudeDegrees>-3.90085869468748569488525390625</LongitudeDegrees>
            </Position>
            <AltitudeMeters>0</AltitudeMeters>
            <DistanceMeters>51341.427566874</DistanceMeters>
          </Trackpoint>
          <Trackpoint>
            <Time>2021-03-13T09:57:43.000Z</Time>
            <Position>
              <LatitudeDegrees>36.74511074088513851165771484375</LatitudeDegrees>
              <LongitudeDegrees>-3.90052190981805324554443359375</LongitudeDegrees>
            </Position>
            <AltitudeMeters>-0.4000000059604644775390625</AltitudeMeters>
            <DistanceMeters>51372.196125247</DistanceMeters>
          </Trackpoint>
          <Trackpoint>
            <Time>2021-03-13T09:57:46.000Z</Time>
            <Position>
              <LatitudeDegrees>36.74516723491251468658447265625</LatitudeDegrees>
              <LongitudeDegrees>-3.90019769780337810516357421875</LongitudeDegrees>
            </Position>
            <AltitudeMeters>-1</AltitudeMeters>
            <DistanceMeters>51401.787450205</DistanceMeters>
          </Trackpoint>
          <Trackpoint>
            <Time>2021-03-13T09:57:50.000Z</Time>
            <Position>
              <LatitudeDegrees>36.74524183385074138641357421875</LatitudeDegrees>
              <LongitudeDegrees>-3.89975261874496936798095703125</LongitudeDegrees>
            </Position>
            <AltitudeMeters>-1.39999997615814208984375</AltitudeMeters>
            <DistanceMeters>51442.341707968</DistanceMeters>
          </Trackpoint>
          <Trackpoint>
            <Time>2021-03-13T09:57:51.000Z</Time>
            <Position>
              <LatitudeDegrees>36.7452605254948139190673828125</LatitudeDegrees>
              <LongitudeDegrees>-3.8996387086808681488037109375</LongitudeDegrees>
            </Position>
            <AltitudeMeters>-1.60000002384185791015625</AltitudeMeters>
            <DistanceMeters>51452.711817918</DistanceMeters>
          </Trackpoint>
          <Trackpoint>
            <Time>2021-03-13T09:57:57.000Z</Time>
            <Position>
              <LatitudeDegrees>36.74536504782736301422119140625</LatitudeDegrees>
              <LongitudeDegrees>-3.89895298518240451812744140625</LongitudeDegrees>
            </Position>
            <AltitudeMeters>-1.60000002384185791015625</AltitudeMeters>
            <DistanceMeters>51514.965848539</DistanceMeters>
          </Trackpoint>
          <Trackpoint>
            <Time>2021-03-13T09:58:00.000Z</Time>
            <Position>
              <LatitudeDegrees>36.74542154185473918914794921875</LatitudeDegrees>
              <LongitudeDegrees>-3.8986114226281642913818359375</LongitudeDegrees>
            </Position>
            <AltitudeMeters>-1.7999999523162841796875</AltitudeMeters>
            <DistanceMeters>51546.07080812</DistanceMeters>
          </Trackpoint>
          <Trackpoint>
            <Time>2021-03-13T09:58:06.000Z</Time>
            <Position>
              <LatitudeDegrees>36.745536625385284423828125</LatitudeDegrees>
              <LongitudeDegrees>-3.89792100526392459869384765625</LongitudeDegrees>
            </Position>
            <AltitudeMeters>-2</AltitudeMeters>
            <DistanceMeters>51608.96485479</DistanceMeters>
          </Trackpoint>
          <Trackpoint>
            <Time>2021-03-13T09:58:11.000Z</Time>
            <Position>
              <LatitudeDegrees>36.74563226290047168731689453125</LatitudeDegrees>
              <LongitudeDegrees>-3.89733259566128253936767578125</LongitudeDegrees>
            </Position>
            <AltitudeMeters>-2.599999904632568359375</AltitudeMeters>
            <DistanceMeters>51662.511628388</DistanceMeters>
          </Trackpoint>
          <Trackpoint>
            <Time>2021-03-13T09:58:13.000Z</Time>
            <Position>
              <LatitudeDegrees>36.7456692270934581756591796875</LatitudeDegrees>
              <LongitudeDegrees>-3.89709890820086002349853515625</LongitudeDegrees>
            </Position>
            <AltitudeMeters>-3.2000000476837158203125</AltitudeMeters>
            <DistanceMeters>51683.755572478</DistanceMeters>
          </Trackpoint>
          <Trackpoint>
            <Time>2021-03-13T09:58:19.000Z</Time>
            <Position>
              <LatitudeDegrees>36.745787076652050018310546875</LatitudeDegrees>
              <LongitudeDegrees>-3.89640748500823974609375</LongitudeDegrees>
            </Position>
            <AltitudeMeters>-3.2000000476837158203125</AltitudeMeters>
            <DistanceMeters>51746.800623415</DistanceMeters>
          </Trackpoint>
          <Trackpoint>
            <Time>2021-03-13T09:58:20.000Z</Time>
            <Position>
              <LatitudeDegrees>36.7458063550293445587158203125</LatitudeDegrees>
              <LongitudeDegrees>-3.89629927463829517364501953125</LongitudeDegrees>
            </Position>
            <AltitudeMeters>-3</AltitudeMeters>
            <DistanceMeters>51756.687055908</DistanceMeters>
          </Trackpoint>
          <Trackpoint>
            <Time>2021-03-13T09:58:27.000Z</Time>
            <Position>
              <LatitudeDegrees>36.74592596478760242462158203125</LatitudeDegrees>
              <LongitudeDegrees>-3.89554842375218868255615234375</LongitudeDegrees>
            </Position>
            <AltitudeMeters>-2.599999904632568359375</AltitudeMeters>
            <DistanceMeters>51824.962807845</DistanceMeters>
          </Trackpoint>
          <Trackpoint>
            <Time>2021-03-13T09:58:28.000Z</Time>
            <Position>
              <LatitudeDegrees>36.74594775773584842681884765625</LatitudeDegrees>
              <LongitudeDegrees>-3.89541967771947383880615234375</LongitudeDegrees>
            </Position>
            <AltitudeMeters>-2.599999904632568359375</AltitudeMeters>
            <DistanceMeters>51836.698895608</DistanceMeters>
          </Trackpoint>
          <Trackpoint>
            <Time>2021-03-13T09:58:32.000Z</Time>
            <Position>
              <LatitudeDegrees>36.74601162783801555633544921875</LatitudeDegrees>
              <LongitudeDegrees>-3.89501147903501987457275390625</LongitudeDegrees>
            </Position>
            <AltitudeMeters>-2.2000000476837158203125</AltitudeMeters>
            <DistanceMeters>51873.79219349</DistanceMeters>
          </Trackpoint>
          <Trackpoint>
            <Time>2021-03-13T09:58:34.000Z</Time>
            <Position>
              <LatitudeDegrees>36.74604716710746288299560546875</LatitudeDegrees>
              <LongitudeDegrees>-3.894796483218669891357421875</LongitudeDegrees>
            </Position>
            <AltitudeMeters>-1.7999999523162841796875</AltitudeMeters>
            <DistanceMeters>51893.370464223</DistanceMeters>
          </Trackpoint>
          <Trackpoint>
            <Time>2021-03-13T09:58:36.000Z</Time>
            <Position>
              <LatitudeDegrees>36.74608270637691020965576171875</LatitudeDegrees>
              <LongitudeDegrees>-3.89458215795457363128662109375</LongitudeDegrees>
            </Position>
            <AltitudeMeters>-1.39999997615814208984375</AltitudeMeters>
            <DistanceMeters>51912.890070917</DistanceMeters>
          </Trackpoint>
          <Trackpoint>
            <Time>2021-03-13T09:58:40.000Z</Time>
            <Position>
              <LatitudeDegrees>36.74615898169577121734619140625</LatitudeDegrees>
              <LongitudeDegrees>-3.89415903948247432708740234375</LongitudeDegrees>
            </Position>
            <AltitudeMeters>-0.60000002384185791015625</AltitudeMeters>
            <DistanceMeters>51951.56932899</DistanceMeters>
          </Trackpoint>
          <Trackpoint>
            <Time>2021-03-13T09:58:44.000Z</Time>
            <Position>
              <LatitudeDegrees>36.746230982244014739990234375</LatitudeDegrees>
              <LongitudeDegrees>-3.89373072423040866851806640625</LongitudeDegrees>
            </Position>
            <AltitudeMeters>0.4000000059604644775390625</AltitudeMeters>
            <DistanceMeters>51990.600445763</DistanceMeters>
          </Trackpoint>
          <Trackpoint>
            <Time>2021-03-13T09:58:45.000Z</Time>
            <Position>
              <LatitudeDegrees>36.74624866805970668792724609375</LatitudeDegrees>
              <LongitudeDegrees>-3.89362192712724208831787109375</LongitudeDegrees>
            </Position>
            <AltitudeMeters>0.60000002384185791015625</AltitudeMeters>
            <DistanceMeters>52000.501481561</DistanceMeters>
          </Trackpoint>
          <Trackpoint>
            <Time>2021-03-13T09:58:48.000Z</Time>
            <Position>
              <LatitudeDegrees>36.74630231224000453948974609375</LatitudeDegrees>
              <LongitudeDegrees>-3.89329385943710803985595703125</LongitudeDegrees>
            </Position>
            <AltitudeMeters>1</AltitudeMeters>
            <DistanceMeters>52030.363465906</DistanceMeters>
          </Trackpoint>
          <Trackpoint>
            <Time>2021-03-13T09:58:52.000Z</Time>
            <Position>
              <LatitudeDegrees>36.746371798217296600341796875</LatitudeDegrees>
              <LongitudeDegrees>-3.89285749755799770355224609375</LongitudeDegrees>
            </Position>
            <AltitudeMeters>1.7999999523162841796875</AltitudeMeters>
            <DistanceMeters>52070.041642625</DistanceMeters>
          </Trackpoint>
          <Trackpoint>
            <Time>2021-03-13T09:58:53.000Z</Time>
            <Position>
              <LatitudeDegrees>36.7463897354900836944580078125</LatitudeDegrees>
              <LongitudeDegrees>-3.89274962246417999267578125</LongitudeDegrees>
            </Position>
            <AltitudeMeters>1.7999999523162841796875</AltitudeMeters>
            <DistanceMeters>52079.868526031</DistanceMeters>
          </Trackpoint>
          <Trackpoint>
            <Time>2021-03-13T09:58:58.000Z</Time>
            <Position>
              <LatitudeDegrees>36.74648503772914409637451171875</LatitudeDegrees>
              <LongitudeDegrees>-3.89220622368156909942626953125</LongitudeDegrees>
            </Position>
            <AltitudeMeters>3</AltitudeMeters>
            <DistanceMeters>52129.479024066</DistanceMeters>
          </Trackpoint>
          <Trackpoint>
            <Time>2021-03-13T09:59:00.000Z</Time>
            <Position>
              <LatitudeDegrees>36.74652099609375</LatitudeDegrees>
              <LongitudeDegrees>-3.89199801720678806304931640625</LongitudeDegrees>
            </Position>
            <AltitudeMeters>3.400000095367431640625</AltitudeMeters>
            <DistanceMeters>52148.474386515</DistanceMeters>
          </Trackpoint>
          <Trackpoint>
            <Time>2021-03-13T09:59:03.000Z</Time>
            <Position>
              <LatitudeDegrees>36.74657053314149379730224609375</LatitudeDegrees>
              <LongitudeDegrees>-3.89169610105454921722412109375</LongitudeDegrees>
            </Position>
            <AltitudeMeters>4.19999980926513671875</AltitudeMeters>
            <DistanceMeters>52175.959621372</DistanceMeters>
          </Trackpoint>
          <Trackpoint>
            <Time>2021-03-13T09:59:07.000Z</Time>
            <Position>
              <LatitudeDegrees>36.74663909710943698883056640625</LatitudeDegrees>
              <LongitudeDegrees>-3.891304917633533477783203125</LongitudeDegrees>
            </Position>
            <AltitudeMeters>4.80000019073486328125</AltitudeMeters>
            <DistanceMeters>52211.672223304</DistanceMeters>
          </Trackpoint>
          <Trackpoint>
            <Time>2021-03-13T09:59:10.000Z</Time>
            <Position>
              <LatitudeDegrees>36.7466859519481658935546875</LatitudeDegrees>
              <LongitudeDegrees>-3.89101448468863964080810546875</LongitudeDegrees>
            </Position>
            <AltitudeMeters>5.400000095367431640625</AltitudeMeters>
            <DistanceMeters>52238.094264103</DistanceMeters>
          </Trackpoint>
          <Trackpoint>
            <Time>2021-03-13T09:59:16.000Z</Time>
            <Position>
              <LatitudeDegrees>36.7467716149985790252685546875</LatitudeDegrees>
              <LongitudeDegrees>-3.8904575072228908538818359375</LongitudeDegrees>
            </Position>
            <AltitudeMeters>6.400000095367431640625</AltitudeMeters>
            <DistanceMeters>52288.674905243</DistanceMeters>
          </Trackpoint>
          <Trackpoint>
            <Time>2021-03-13T09:59:17.000Z</Time>
            <Position>
              <LatitudeDegrees>36.74678728915750980377197265625</LatitudeDegrees>
              <LongitudeDegrees>-3.890367485582828521728515625</LongitudeDegrees>
            </Position>
            <AltitudeMeters>6.599999904632568359375</AltitudeMeters>
            <DistanceMeters>52296.891282272</DistanceMeters>
          </Trackpoint>
          <Trackpoint>
            <Time>2021-03-13T09:59:24.000Z</Time>
            <Position>
              <LatitudeDegrees>36.74689315259456634521484375</LatitudeDegrees>
              <LongitudeDegrees>-3.8897272758185863494873046875</LongitudeDegrees>
            </Position>
            <AltitudeMeters>7.599999904632568359375</AltitudeMeters>
            <DistanceMeters>52355.191391306</DistanceMeters>
          </Trackpoint>
          <Trackpoint>
            <Time>2021-03-13T09:59:32.000Z</Time>
            <Position>
              <LatitudeDegrees>36.74701242707669734954833984375</LatitudeDegrees>
              <LongitudeDegrees>-3.88900282792747020721435546875</LongitudeDegrees>
            </Position>
            <AltitudeMeters>8.6000003814697265625</AltitudeMeters>
            <DistanceMeters>52421.150815806</DistanceMeters>
          </Trackpoint>
          <Trackpoint>
            <Time>2021-03-13T09:59:33.000Z</Time>
            <Position>
              <LatitudeDegrees>36.7470281012356281280517578125</LatitudeDegrees>
              <LongitudeDegrees>-3.888911716639995574951171875</LongitudeDegrees>
            </Position>
            <AltitudeMeters>8.80000019073486328125</AltitudeMeters>
            <DistanceMeters>52429.46225881</DistanceMeters>
          </Trackpoint>
          <Trackpoint>
            <Time>2021-03-13T09:59:35.000Z</Time>
            <Position>
              <LatitudeDegrees>36.74705903045833110809326171875</LatitudeDegrees>
              <LongitudeDegrees>-3.888729996979236602783203125</LongitudeDegrees>
            </Position>
            <AltitudeMeters>9</AltitudeMeters>
            <DistanceMeters>52446.030460095</DistanceMeters>
          </Trackpoint>
          <Trackpoint>
            <Time>2021-03-13T09:59:42.000Z</Time>
            <Position>
              <LatitudeDegrees>36.74716413952410221099853515625</LatitudeDegrees>
              <LongitudeDegrees>-3.88808987103402614593505859375</LongitudeDegrees>
            </Position>
            <AltitudeMeters>10</AltitudeMeters>
            <DistanceMeters>52504.306091444</DistanceMeters>
          </Trackpoint>
          <Trackpoint>
            <Time>2021-03-13T09:59:43.000Z</Time>
            <Position>
              <LatitudeDegrees>36.74718014895915985107421875</LatitudeDegrees>
              <LongitudeDegrees>-3.88799943029880523681640625</LongitudeDegrees>
            </Position>
            <AltitudeMeters>9.80000019073486328125</AltitudeMeters>
            <DistanceMeters>52512.566312846</DistanceMeters>
          </Trackpoint>
          <Trackpoint>
            <Time>2021-03-13T09:59:51.000Z</Time>
            <Position>
              <LatitudeDegrees>36.74729816615581512451171875</LatitudeDegrees>
              <LongitudeDegrees>-3.887274228036403656005859375</LongitudeDegrees>
            </Position>
            <AltitudeMeters>10.80000019073486328125</AltitudeMeters>
            <DistanceMeters>52578.563375072</DistanceMeters>
          </Trackpoint>
          <Trackpoint>
            <Time>2021-03-13T09:59:52.000Z</Time>
            <Position>
              <LatitudeDegrees>36.74731333740055561065673828125</LatitudeDegrees>
              <LongitudeDegrees>-3.88718412257730960845947265625</LongitudeDegrees>
            </Position>
            <AltitudeMeters>10.80000019073486328125</AltitudeMeters>
            <DistanceMeters>52586.77480496</DistanceMeters>
          </Trackpoint>
          <Trackpoint>
            <Time>2021-03-13T09:59:54.000Z</Time>
            <Position>
              <LatitudeDegrees>36.74734585918486118316650390625</LatitudeDegrees>
              <LongitudeDegrees>-3.8870075158774852752685546875</LongitudeDegrees>
            </Position>
            <AltitudeMeters>11.19999980926513671875</AltitudeMeters>
            <DistanceMeters>52602.936052779</DistanceMeters>
          </Trackpoint>
          <Trackpoint>
            <Time>2021-03-13T10:00:00.000Z</Time>
            <Position>
              <LatitudeDegrees>36.74745968542993068695068359375</LatitudeDegrees>
              <LongitudeDegrees>-3.88649647124111652374267578125</LongitudeDegrees>
            </Position>
            <AltitudeMeters>11.80000019073486328125</AltitudeMeters>
            <DistanceMeters>52650.241034586</DistanceMeters>
          </Trackpoint>
          <Trackpoint>
            <Time>2021-03-13T10:00:05.000Z</Time>
            <Position>
              <LatitudeDegrees>36.74757669679820537567138671875</LatitudeDegrees>
              <LongitudeDegrees>-3.8861052878201007843017578125</LongitudeDegrees>
            </Position>
            <AltitudeMeters>12.19999980926513671875</AltitudeMeters>
            <DistanceMeters>52687.479868877</DistanceMeters>
          </Trackpoint>
          <Trackpoint>
            <Time>2021-03-13T10:00:07.000Z</Time>
            <Position>
              <LatitudeDegrees>36.74762539565563201904296875</LatitudeDegrees>
              <LongitudeDegrees>-3.88595835305750370025634765625</LongitudeDegrees>
            </Position>
            <AltitudeMeters>12.6000003814697265625</AltitudeMeters>
            <DistanceMeters>52701.661471838</DistanceMeters>
          </Trackpoint>
          <Trackpoint>
            <Time>2021-03-13T10:00:11.000Z</Time>
            <Position>
              <LatitudeDegrees>36.74772874452173709869384765625</LatitudeDegrees>
              <LongitudeDegrees>-3.88567772693932056427001953125</LongitudeDegrees>
            </Position>
            <AltitudeMeters>13.3999996185302734375</AltitudeMeters>
            <DistanceMeters>52729.205780918</DistanceMeters>
          </Trackpoint>
          <Trackpoint>
            <Time>2021-03-13T10:00:14.000Z</Time>
            <Position>
              <LatitudeDegrees>36.7478079535067081451416015625</LatitudeDegrees>
              <LongitudeDegrees>-3.88547672890126705169677734375</LongitudeDegrees>
            </Position>
            <AltitudeMeters>14.3999996185302734375</AltitudeMeters>
            <DistanceMeters>52749.182195466</DistanceMeters>
          </Trackpoint>
          <Trackpoint>
            <Time>2021-03-13T10:00:18.000Z</Time>
            <Position>
              <LatitudeDegrees>36.74791633151471614837646484375</LatitudeDegrees>
              <LongitudeDegrees>-3.88523130677640438079833984375</LongitudeDegrees>
            </Position>
            <AltitudeMeters>15.6000003814697265625</AltitudeMeters>
            <DistanceMeters>52774.173679362</DistanceMeters>
          </Trackpoint>
          <Trackpoint>
            <Time>2021-03-13T10:00:21.000Z</Time>
            <Position>
              <LatitudeDegrees>36.748000569641590118408203125</LatitudeDegrees>
              <LongitudeDegrees>-3.8850552029907703399658203125</LongitudeDegrees>
            </Position>
            <AltitudeMeters>16</AltitudeMeters>
            <DistanceMeters>52792.465272852</DistanceMeters>
          </Trackpoint>
          <Trackpoint>
            <Time>2021-03-13T10:00:25.000Z</Time>
            <Position>
              <LatitudeDegrees>36.74812202341854572296142578125</LatitudeDegrees>
              <LongitudeDegrees>-3.88482847250998020172119140625</LongitudeDegrees>
            </Position>
            <AltitudeMeters>16.6000003814697265625</AltitudeMeters>
            <DistanceMeters>52816.788399467</DistanceMeters>
          </Trackpoint>
          <Trackpoint>
            <Time>2021-03-13T10:00:30.000Z</Time>
            <Position>
              <LatitudeDegrees>36.7482773400843143463134765625</LatitudeDegrees>
              <LongitudeDegrees>-3.884554803371429443359375</LongitudeDegrees>
            </Position>
            <AltitudeMeters>17.799999237060546875</AltitudeMeters>
            <DistanceMeters>52846.69706715</DistanceMeters>
          </Trackpoint>
          <Trackpoint>
            <Time>2021-03-13T10:00:37.000Z</Time>
            <Position>
              <LatitudeDegrees>36.74850608222186565399169921875</LatitudeDegrees>
              <LongitudeDegrees>-3.8841694034636020660400390625</LongitudeDegrees>
            </Position>
            <AltitudeMeters>19</AltitudeMeters>
            <DistanceMeters>52889.470490303</DistanceMeters>
          </Trackpoint>
          <Trackpoint>
            <Time>2021-03-13T10:00:41.000Z</Time>
            <Position>
              <LatitudeDegrees>36.74862879328429698944091796875</LatitudeDegrees>
              <LongitudeDegrees>-3.88395591638982295989990234375</LongitudeDegrees>
            </Position>
            <AltitudeMeters>19.799999237060546875</AltitudeMeters>
            <DistanceMeters>52912.902236032</DistanceMeters>
          </Trackpoint>
          <Trackpoint>
            <Time>2021-03-13T10:00:42.000Z</Time>
            <Position>
              <LatitudeDegrees>36.7486595548689365386962890625</LatitudeDegrees>
              <LongitudeDegrees>-3.8839045353233814239501953125</LongitudeDegrees>
            </Position>
            <AltitudeMeters>20</AltitudeMeters>
            <DistanceMeters>52918.62202335</DistanceMeters>
          </Trackpoint>
          <Trackpoint>
            <Time>2021-03-13T10:00:50.000Z</Time>
            <Position>
              <LatitudeDegrees>36.74889869056642055511474609375</LatitudeDegrees>
              <LongitudeDegrees>-3.88347395695745944976806640625</LongitudeDegrees>
            </Position>
            <AltitudeMeters>21.200000762939453125</AltitudeMeters>
            <DistanceMeters>52965.344446875</DistanceMeters>
          </Trackpoint>
          <Trackpoint>
            <Time>2021-03-13T10:00:55.000Z</Time>
            <Position>
              <LatitudeDegrees>36.74900011159479618072509765625</LatitudeDegrees>
              <LongitudeDegrees>-3.8832044787704944610595703125</LongitudeDegrees>
            </Position>
            <AltitudeMeters>22</AltitudeMeters>
            <DistanceMeters>52991.896040011</DistanceMeters>
          </Trackpoint>
          <Trackpoint>
            <Time>2021-03-13T10:00:56.000Z</Time>
            <Position>
              <LatitudeDegrees>36.74901033751666545867919921875</LatitudeDegrees>
              <LongitudeDegrees>-3.88315963558852672576904296875</LongitudeDegrees>
            </Position>
            <AltitudeMeters>22.200000762939453125</AltitudeMeters>
            <DistanceMeters>52996.053390888</DistanceMeters>
          </Trackpoint>
          <Trackpoint>
            <Time>2021-03-13T10:00:57.000Z</Time>
            <Position>
              <LatitudeDegrees>36.749015115201473236083984375</LatitudeDegrees>
              <LongitudeDegrees>-3.8831263594329357147216796875</LongitudeDegrees>
            </Position>
            <AltitudeMeters>22.200000762939453125</AltitudeMeters>
            <DistanceMeters>52999.068898636</DistanceMeters>
          </Trackpoint>
          <Trackpoint>
            <Time>2021-03-13T10:00:59.000Z</Time>
            <Position>
              <LatitudeDegrees>36.7490183003246784210205078125</LatitudeDegrees>
              <LongitudeDegrees>-3.88309442438185214996337890625</LongitudeDegrees>
            </Position>
            <AltitudeMeters>22.3999996185302734375</AltitudeMeters>
            <DistanceMeters>53001.938642477</DistanceMeters>
          </Trackpoint>
          <Trackpoint>
            <Time>2021-03-13T10:01:04.000Z</Time>
            <Position>
              <LatitudeDegrees>36.7490183003246784210205078125</LatitudeDegrees>
              <LongitudeDegrees>-3.88309442438185214996337890625</LongitudeDegrees>
            </Position>
            <AltitudeMeters>23</AltitudeMeters>
            <DistanceMeters>53002.033669192</DistanceMeters>
          </Trackpoint>
          <Trackpoint>
            <Time>2021-03-13T10:01:09.000Z</Time>
            <Position>
              <LatitudeDegrees>36.74900882877409458160400390625</LatitudeDegrees>
              <LongitudeDegrees>-3.883027620613574981689453125</LongitudeDegrees>
            </Position>
            <AltitudeMeters>23.200000762939453125</AltitudeMeters>
            <DistanceMeters>53008.084117927</DistanceMeters>
          </Trackpoint>
          <Trackpoint>
            <Time>2021-03-13T10:01:10.000Z</Time>
            <Position>
              <LatitudeDegrees>36.74900899641215801239013671875</LatitudeDegrees>
              <LongitudeDegrees>-3.8830103538930416107177734375</LongitudeDegrees>
            </Position>
            <AltitudeMeters>23.200000762939453125</AltitudeMeters>
            <DistanceMeters>53009.625192262</DistanceMeters>
          </Trackpoint>
          <Trackpoint>
            <Time>2021-03-13T10:01:11.000Z</Time>
            <Position>
              <LatitudeDegrees>36.74900664947926998138427734375</LatitudeDegrees>
              <LongitudeDegrees>-3.882986716926097869873046875</LongitudeDegrees>
            </Position>
            <AltitudeMeters>23.200000762939453125</AltitudeMeters>
            <DistanceMeters>53011.750054192</DistanceMeters>
          </Trackpoint>
          <Trackpoint>
            <Time>2021-03-13T10:01:14.000Z</Time>
            <Position>
              <LatitudeDegrees>36.7489592917263507843017578125</LatitudeDegrees>
              <LongitudeDegrees>-3.8828836195170879364013671875</LongitudeDegrees>
            </Position>
            <AltitudeMeters>23.200000762939453125</AltitudeMeters>
            <DistanceMeters>53022.348408823</DistanceMeters>
          </Trackpoint>
          <Trackpoint>
            <Time>2021-03-13T10:01:16.000Z</Time>
            <Position>
              <LatitudeDegrees>36.748895756900310516357421875</LatitudeDegrees>
              <LongitudeDegrees>-3.88278379105031490325927734375</LongitudeDegrees>
            </Position>
            <AltitudeMeters>23</AltitudeMeters>
            <DistanceMeters>53033.718306552</DistanceMeters>
          </Trackpoint>
          <Trackpoint>
            <Time>2021-03-13T10:01:18.000Z</Time>
            <Position>
              <LatitudeDegrees>36.74881369806826114654541015625</LatitudeDegrees>
              <LongitudeDegrees>-3.88269578106701374053955078125</LongitudeDegrees>
            </Position>
            <AltitudeMeters>23</AltitudeMeters>
            <DistanceMeters>53045.760857266</DistanceMeters>
          </Trackpoint>
          <Trackpoint>
            <Time>2021-03-13T10:01:23.000Z</Time>
            <Position>
              <LatitudeDegrees>36.7486144602298736572265625</LatitudeDegrees>
              <LongitudeDegrees>-3.882517330348491668701171875</LongitudeDegrees>
            </Position>
            <AltitudeMeters>22.3999996185302734375</AltitudeMeters>
            <DistanceMeters>53073.055864629</DistanceMeters>
          </Trackpoint>
          <Trackpoint>
            <Time>2021-03-13T10:01:24.000Z</Time>
            <Position>
              <LatitudeDegrees>36.74857280217111110687255859375</LatitudeDegrees>
              <LongitudeDegrees>-3.88248053379356861114501953125</LongitudeDegrees>
            </Position>
            <AltitudeMeters>22.3999996185302734375</AltitudeMeters>
            <DistanceMeters>53078.735251308</DistanceMeters>
          </Trackpoint>
          <Trackpoint>
            <Time>2021-03-13T10:01:27.000Z</Time>
            <Position>
              <LatitudeDegrees>36.7484496720135211944580078125</LatitudeDegrees>
              <LongitudeDegrees>-3.88237156905233860015869140625</LongitudeDegrees>
            </Position>
            <AltitudeMeters>21.799999237060546875</AltitudeMeters>
            <DistanceMeters>53095.535641167</DistanceMeters>
          </Trackpoint>
          <Trackpoint>
            <Time>2021-03-13T10:01:31.000Z</Time>
            <Position>
              <LatitudeDegrees>36.748243980109691619873046875</LatitudeDegrees>
              <LongitudeDegrees>-3.882200829684734344482421875</LongitudeDegrees>
            </Position>
            <AltitudeMeters>21.3999996185302734375</AltitudeMeters>
            <DistanceMeters>53123.031058965</DistanceMeters>
          </Trackpoint>
          <Trackpoint>
            <Time>2021-03-13T10:01:32.000Z</Time>
            <Position>
              <LatitudeDegrees>36.74820165149867534637451171875</LatitudeDegrees>
              <LongitudeDegrees>-3.882162608206272125244140625</LongitudeDegrees>
            </Position>
            <AltitudeMeters>21.200000762939453125</AltitudeMeters>
            <DistanceMeters>53128.845575816</DistanceMeters>
          </Trackpoint>
          <Trackpoint>
            <Time>2021-03-13T10:01:33.000Z</Time>
            <Position>
              <LatitudeDegrees>36.74814918078482151031494140625</LatitudeDegrees>
              <LongitudeDegrees>-3.882110305130481719970703125</LongitudeDegrees>
            </Position>
            <AltitudeMeters>21.200000762939453125</AltitudeMeters>
            <DistanceMeters>53136.31953413</DistanceMeters>
          </Trackpoint>
          <Trackpoint>
            <Time>2021-03-13T10:01:35.000Z</Time>
            <Position>
              <LatitudeDegrees>36.74807089380919933319091796875</LatitudeDegrees>
              <LongitudeDegrees>-3.88196940533816814422607421875</LongitudeDegrees>
            </Position>
            <AltitudeMeters>20.6000003814697265625</AltitudeMeters>
            <DistanceMeters>53151.610864989</DistanceMeters>
          </Trackpoint>
          <Trackpoint>
            <Time>2021-03-13T10:01:37.000Z</Time>
            <Position>
              <LatitudeDegrees>36.74804457463324069976806640625</LatitudeDegrees>
              <LongitudeDegrees>-3.88179522939026355743408203125</LongitudeDegrees>
            </Position>
            <AltitudeMeters>20</AltitudeMeters>
            <DistanceMeters>53167.418181184</DistanceMeters>
          </Trackpoint>
          <Trackpoint>
            <Time>2021-03-13T10:01:39.000Z</Time>
            <Position>
              <LatitudeDegrees>36.7480299063026905059814453125</LatitudeDegrees>
              <LongitudeDegrees>-3.8816172815859317779541015625</LongitudeDegrees>
            </Position>
            <AltitudeMeters>19.799999237060546875</AltitudeMeters>
            <DistanceMeters>53183.371918509</DistanceMeters>
          </Trackpoint>
          <Trackpoint>
            <Time>2021-03-13T10:01:42.000Z</Time>
            <Position>
              <LatitudeDegrees>36.74800165928900241851806640625</LatitudeDegrees>
              <LongitudeDegrees>-3.88135953806340694427490234375</LongitudeDegrees>
            </Position>
            <AltitudeMeters>19.200000762939453125</AltitudeMeters>
            <DistanceMeters>53206.572647523</DistanceMeters>
          </Trackpoint>
          <Trackpoint>
            <Time>2021-03-13T10:01:45.000Z</Time>
            <Position>
              <LatitudeDegrees>36.74797047860920429229736328125</LatitudeDegrees>
              <LongitudeDegrees>-3.88111428357660770416259765625</LongitudeDegrees>
            </Position>
            <AltitudeMeters>19</AltitudeMeters>
            <DistanceMeters>53228.719173256</DistanceMeters>
          </Trackpoint>
          <Trackpoint>
            <Time>2021-03-13T10:01:47.000Z</Time>
            <Position>
              <LatitudeDegrees>36.7479474283754825592041015625</LatitudeDegrees>
              <LongitudeDegrees>-3.88096533715724945068359375</LongitudeDegrees>
            </Position>
            <AltitudeMeters>18.799999237060546875</AltitudeMeters>
            <DistanceMeters>53242.248387923</DistanceMeters>
          </Trackpoint>
          <Trackpoint>
            <Time>2021-03-13T10:01:52.000Z</Time>
            <Position>
              <LatitudeDegrees>36.74790023826062679290771484375</LatitudeDegrees>
              <LongitudeDegrees>-3.8807334937155246734619140625</LongitudeDegrees>
            </Position>
            <AltitudeMeters>18.799999237060546875</AltitudeMeters>
            <DistanceMeters>53263.581409102</DistanceMeters>
          </Trackpoint>
          <Trackpoint>
            <Time>2021-03-13T10:01:54.000Z</Time>
            <Position>
              <LatitudeDegrees>36.74789017997682094573974609375</LatitudeDegrees>
              <LongitudeDegrees>-3.880673311650753021240234375</LongitudeDegrees>
            </Position>
            <AltitudeMeters>19.200000762939453125</AltitudeMeters>
            <DistanceMeters>53269.063388162</DistanceMeters>
          </Trackpoint>
          <Trackpoint>
            <Time>2021-03-13T10:01:56.000Z</Time>
            <Position>
              <LatitudeDegrees>36.74786084331572055816650390625</LatitudeDegrees>
              <LongitudeDegrees>-3.88058940880000591278076171875</LongitudeDegrees>
            </Position>
            <AltitudeMeters>19</AltitudeMeters>
            <DistanceMeters>53277.227947201</DistanceMeters>
          </Trackpoint>
          <Trackpoint>
            <Time>2021-03-13T10:01:58.000Z</Time>
            <Position>
              <LatitudeDegrees>36.74781993962824344635009765625</LatitudeDegrees>
              <LongitudeDegrees>-3.88048865832388401031494140625</LongitudeDegrees>
            </Position>
            <AltitudeMeters>19</AltitudeMeters>
            <DistanceMeters>53287.300330675</DistanceMeters>
          </Trackpoint>
          <Trackpoint>
            <Time>2021-03-13T10:02:00.000Z</Time>
            <Position>
              <LatitudeDegrees>36.74779973924160003662109375</LatitudeDegrees>
              <LongitudeDegrees>-3.88036946766078472137451171875</LongitudeDegrees>
            </Position>
            <AltitudeMeters>19.200000762939453125</AltitudeMeters>
            <DistanceMeters>53298.16500551</DistanceMeters>
          </Trackpoint>
          <Trackpoint>
            <Time>2021-03-13T10:02:02.000Z</Time>
            <Position>
              <LatitudeDegrees>36.74782245419919490814208984375</LatitudeDegrees>
              <LongitudeDegrees>-3.8802431523799896240234375</LongitudeDegrees>
            </Position>
            <AltitudeMeters>19.6000003814697265625</AltitudeMeters>
            <DistanceMeters>53309.710653542</DistanceMeters>
          </Trackpoint>
          <Trackpoint>
            <Time>2021-03-13T10:02:04.000Z</Time>
            <Position>
              <LatitudeDegrees>36.7478553950786590576171875</LatitudeDegrees>
              <LongitudeDegrees>-3.8801236264407634735107421875</LongitudeDegrees>
            </Position>
            <AltitudeMeters>19.799999237060546875</AltitudeMeters>
            <DistanceMeters>53320.983241342</DistanceMeters>
          </Trackpoint>
          <Trackpoint>
            <Time>2021-03-13T10:02:06.000Z</Time>
            <Position>
              <LatitudeDegrees>36.747861765325069427490234375</LatitudeDegrees>
              <LongitudeDegrees>-3.880002088844776153564453125</LongitudeDegrees>
            </Position>
            <AltitudeMeters>20.3999996185302734375</AltitudeMeters>
            <DistanceMeters>53331.844591105</DistanceMeters>
          </Trackpoint>
          <Trackpoint>
            <Time>2021-03-13T10:02:08.000Z</Time>
            <Position>
              <LatitudeDegrees>36.74785229377448558807373046875</LatitudeDegrees>
              <LongitudeDegrees>-3.87989220209419727325439453125</LongitudeDegrees>
            </Position>
            <AltitudeMeters>21.200000762939453125</AltitudeMeters>
            <DistanceMeters>53341.700835947</DistanceMeters>
          </Trackpoint>
          <Trackpoint>
            <Time>2021-03-13T10:02:09.000Z</Time>
            <Position>
              <LatitudeDegrees>36.74784542061388492584228515625</LatitudeDegrees>
              <LongitudeDegrees>-3.87983738444745540618896484375</LongitudeDegrees>
            </Position>
            <AltitudeMeters>21.6000003814697265625</AltitudeMeters>
            <DistanceMeters>53346.649529443</DistanceMeters>
          </Trackpoint>
          <Trackpoint>
            <Time>2021-03-13T10:02:13.000Z</Time>
            <Position>
              <LatitudeDegrees>36.7477898485958576202392578125</LatitudeDegrees>
              <LongitudeDegrees>-3.87961124069988727569580078125</LongitudeDegrees>
            </Position>
            <AltitudeMeters>22.200000762939453125</AltitudeMeters>
            <DistanceMeters>53367.74503198</DistanceMeters>
          </Trackpoint>
          <Trackpoint>
            <Time>2021-03-13T10:02:14.000Z</Time>
            <Position>
              <LatitudeDegrees>36.74778574146330356597900390625</LatitudeDegrees>
              <LongitudeDegrees>-3.879547454416751861572265625</LongitudeDegrees>
            </Position>
            <AltitudeMeters>22.3999996185302734375</AltitudeMeters>
            <DistanceMeters>53373.452175375</DistanceMeters>
          </Trackpoint>
          <Trackpoint>
            <Time>2021-03-13T10:02:15.000Z</Time>
            <Position>
              <LatitudeDegrees>36.74778691492974758148193359375</LatitudeDegrees>
              <LongitudeDegrees>-3.87948467396199703216552734375</LongitudeDegrees>
            </Position>
            <AltitudeMeters>22.6000003814697265625</AltitudeMeters>
            <DistanceMeters>53379.053111508</DistanceMeters>
          </Trackpoint>
          <Trackpoint>
            <Time>2021-03-13T10:02:18.000Z</Time>
            <Position>
              <LatitudeDegrees>36.7478163354098796844482421875</LatitudeDegrees>
              <LongitudeDegrees>-3.87929658405482769012451171875</LongitudeDegrees>
            </Position>
            <AltitudeMeters>23.3999996185302734375</AltitudeMeters>
            <DistanceMeters>53396.144452675</DistanceMeters>
          </Trackpoint>
          <Trackpoint>
            <Time>2021-03-13T10:02:19.000Z</Time>
            <Position>
              <LatitudeDegrees>36.7478334344923496246337890625</LatitudeDegrees>
              <LongitudeDegrees>-3.879234306514263153076171875</LongitudeDegrees>
            </Position>
            <AltitudeMeters>23.6000003814697265625</AltitudeMeters>
            <DistanceMeters>53402.014612103</DistanceMeters>
          </Trackpoint>
          <Trackpoint>
            <Time>2021-03-13T10:02:20.000Z</Time>
            <Position>
              <LatitudeDegrees>36.7478562332689762115478515625</LatitudeDegrees>
              <LongitudeDegrees>-3.879174292087554931640625</LongitudeDegrees>
            </Position>
            <AltitudeMeters>23.799999237060546875</AltitudeMeters>
            <DistanceMeters>53407.93760518</DistanceMeters>
          </Trackpoint>
          <Trackpoint>
            <Time>2021-03-13T10:02:23.000Z</Time>
            <Position>
              <LatitudeDegrees>36.74794415943324565887451171875</LatitudeDegrees>
              <LongitudeDegrees>-3.8790212385356426239013671875</LongitudeDegrees>
            </Position>
            <AltitudeMeters>24.6000003814697265625</AltitudeMeters>
            <DistanceMeters>53424.733156913</DistanceMeters>
          </Trackpoint>
          <Trackpoint>
            <Time>2021-03-13T10:02:24.000Z</Time>
            <Position>
              <LatitudeDegrees>36.74798556603491306304931640625</LatitudeDegrees>
              <LongitudeDegrees>-3.8789769820868968963623046875</LongitudeDegrees>
            </Position>
            <AltitudeMeters>24.799999237060546875</AltitudeMeters>
            <DistanceMeters>53430.801488788</DistanceMeters>
          </Trackpoint>
          <Trackpoint>
            <Time>2021-03-13T10:02:25.000Z</Time>
            <Position>
              <LatitudeDegrees>36.74803015775978565216064453125</LatitudeDegrees>
              <LongitudeDegrees>-3.87893917970359325408935546875</LongitudeDegrees>
            </Position>
            <AltitudeMeters>25.3999996185302734375</AltitudeMeters>
            <DistanceMeters>53436.800979158</DistanceMeters>
          </Trackpoint>
          <Trackpoint>
            <Time>2021-03-13T10:02:28.000Z</Time>
            <Position>
              <LatitudeDegrees>36.74816208891570568084716796875</LatitudeDegrees>
              <LongitudeDegrees>-3.8788475655019283294677734375</LongitudeDegrees>
            </Position>
            <AltitudeMeters>25.799999237060546875</AltitudeMeters>
            <DistanceMeters>53453.604862352</DistanceMeters>
          </Trackpoint>
          <Trackpoint>
            <Time>2021-03-13T10:02:30.000Z</Time>
            <Position>
              <LatitudeDegrees>36.74823668785393238067626953125</LatitudeDegrees>
              <LongitudeDegrees>-3.87880775146186351776123046875</LongitudeDegrees>
            </Position>
            <AltitudeMeters>26.3999996185302734375</AltitudeMeters>
            <DistanceMeters>53462.634900574</DistanceMeters>
          </Trackpoint>
          <Trackpoint>
            <Time>2021-03-13T10:02:32.000Z</Time>
            <Position>
              <LatitudeDegrees>36.748229227960109710693359375</LatitudeDegrees>
              <LongitudeDegrees>-3.8787639141082763671875</LongitudeDegrees>
            </Position>
            <AltitudeMeters>27</AltitudeMeters>
            <DistanceMeters>53466.630545097</DistanceMeters>
          </Trackpoint>
          <Trackpoint>
            <Time>2021-03-13T10:02:34.000Z</Time>
            <Position>
              <LatitudeDegrees>36.74814465455710887908935546875</LatitudeDegrees>
              <LongitudeDegrees>-3.8787188194692134857177734375</LongitudeDegrees>
            </Position>
            <AltitudeMeters>27.200000762939453125</AltitudeMeters>
            <DistanceMeters>53476.866117719</DistanceMeters>
          </Trackpoint>
          <Trackpoint>
            <Time>2021-03-13T10:02:36.000Z</Time>
            <Position>
              <LatitudeDegrees>36.74806050024926662445068359375</LatitudeDegrees>
              <LongitudeDegrees>-3.8786571286618709564208984375</LongitudeDegrees>
            </Position>
            <AltitudeMeters>27.3999996185302734375</AltitudeMeters>
            <DistanceMeters>53487.728714503</DistanceMeters>
          </Trackpoint>
          <Trackpoint>
            <Time>2021-03-13T10:02:37.000Z</Time>
            <Position>
              <LatitudeDegrees>36.74801641143858432769775390625</LatitudeDegrees>
              <LongitudeDegrees>-3.8786172308027744293212890625</LongitudeDegrees>
            </Position>
            <AltitudeMeters>27.3999996185302734375</AltitudeMeters>
            <DistanceMeters>53493.789601483</DistanceMeters>
          </Trackpoint>
          <Trackpoint>
            <Time>2021-03-13T10:02:40.000Z</Time>
            <Position>
              <LatitudeDegrees>36.7478875815868377685546875</LatitudeDegrees>
              <LongitudeDegrees>-3.878495693206787109375</LongitudeDegrees>
            </Position>
            <AltitudeMeters>27.6000003814697265625</AltitudeMeters>
            <DistanceMeters>53511.764225403</DistanceMeters>
          </Trackpoint>
          <Trackpoint>
            <Time>2021-03-13T10:02:41.000Z</Time>
            <Position>
              <LatitudeDegrees>36.74785547889769077301025390625</LatitudeDegrees>
              <LongitudeDegrees>-3.87844162993133068084716796875</LongitudeDegrees>
            </Position>
            <AltitudeMeters>27.6000003814697265625</AltitudeMeters>
            <DistanceMeters>53517.7667253</DistanceMeters>
          </Trackpoint>
          <Trackpoint>
            <Time>2021-03-13T10:02:43.000Z</Time>
            <Position>
              <LatitudeDegrees>36.74780317582190036773681640625</LatitudeDegrees>
              <LongitudeDegrees>-3.8783305697143077850341796875</LongitudeDegrees>
            </Position>
            <AltitudeMeters>27.3999996185302734375</AltitudeMeters>
            <DistanceMeters>53529.255136735</DistanceMeters>
          </Trackpoint>
          <Trackpoint>
            <Time>2021-03-13T10:02:44.000Z</Time>
            <Position>
              <LatitudeDegrees>36.7477811314165592193603515625</LatitudeDegrees>
              <LongitudeDegrees>-3.87826301157474517822265625</LongitudeDegrees>
            </Position>
            <AltitudeMeters>27.3999996185302734375</AltitudeMeters>
            <DistanceMeters>53535.760130065</DistanceMeters>
          </Trackpoint>
          <Trackpoint>
            <Time>2021-03-13T10:02:47.000Z</Time>
            <Position>
              <LatitudeDegrees>36.74771935679018497467041015625</LatitudeDegrees>
              <LongitudeDegrees>-3.87803276069462299346923828125</LongitudeDegrees>
            </Position>
            <AltitudeMeters>27.200000762939453125</AltitudeMeters>
            <DistanceMeters>53557.415590345</DistanceMeters>
          </Trackpoint>
          <Trackpoint>
            <Time>2021-03-13T10:02:50.000Z</Time>
            <Position>
              <LatitudeDegrees>36.74766286276280879974365234375</LatitudeDegrees>
              <LongitudeDegrees>-3.87780242599546909332275390625</LongitudeDegrees>
            </Position>
            <AltitudeMeters>27</AltitudeMeters>
            <DistanceMeters>53578.898564464</DistanceMeters>
          </Trackpoint>
          <Trackpoint>
            <Time>2021-03-13T10:02:53.000Z</Time>
            <Position>
              <LatitudeDegrees>36.74759513698518276214599609375</LatitudeDegrees>
              <LongitudeDegrees>-3.877564631402492523193359375</LongitudeDegrees>
            </Position>
            <AltitudeMeters>26.3999996185302734375</AltitudeMeters>
            <DistanceMeters>53601.405657309</DistanceMeters>
          </Trackpoint>
          <Trackpoint>
            <Time>2021-03-13T10:02:54.000Z</Time>
            <Position>
              <LatitudeDegrees>36.74756915308535099029541015625</LatitudeDegrees>
              <LongitudeDegrees>-3.877480141818523406982421875</LongitudeDegrees>
            </Position>
            <AltitudeMeters>25.799999237060546875</AltitudeMeters>
            <DistanceMeters>53609.476776901</DistanceMeters>
          </Trackpoint>
          <Trackpoint>
            <Time>2021-03-13T10:02:57.000Z</Time>
            <Position>
              <LatitudeDegrees>36.74749170430004596710205078125</LatitudeDegrees>
              <LongitudeDegrees>-3.87725450098514556884765625</LongitudeDegrees>
            </Position>
            <AltitudeMeters>24.799999237060546875</AltitudeMeters>
            <DistanceMeters>53631.368836585</DistanceMeters>
          </Trackpoint>
          <Trackpoint>
            <Time>2021-03-13T10:02:58.000Z</Time>
            <Position>
              <LatitudeDegrees>36.74746655859053134918212890625</LatitudeDegrees>
              <LongitudeDegrees>-3.87717814184725284576416015625</LongitudeDegrees>
            </Position>
            <AltitudeMeters>24.6000003814697265625</AltitudeMeters>
            <DistanceMeters>53638.732027399</DistanceMeters>
          </Trackpoint>
          <Trackpoint>
            <Time>2021-03-13T10:02:59.000Z</Time>
            <Position>
              <LatitudeDegrees>36.747457422316074371337890625</LatitudeDegrees>
              <LongitudeDegrees>-3.87709851376712322235107421875</LongitudeDegrees>
            </Position>
            <AltitudeMeters>24.3999996185302734375</AltitudeMeters>
            <DistanceMeters>53645.906387003</DistanceMeters>
          </Trackpoint>
          <Trackpoint>
            <Time>2021-03-13T10:03:01.000Z</Time>
            <Position>
              <LatitudeDegrees>36.74746220000088214874267578125</LatitudeDegrees>
              <LongitudeDegrees>-3.876944370567798614501953125</LongitudeDegrees>
            </Position>
            <AltitudeMeters>23.799999237060546875</AltitudeMeters>
            <DistanceMeters>53659.663945008</DistanceMeters>
          </Trackpoint>
          <Trackpoint>
            <Time>2021-03-13T10:03:02.000Z</Time>
            <Position>
              <LatitudeDegrees>36.74746102653443813323974609375</LatitudeDegrees>
              <LongitudeDegrees>-3.8768741302192211151123046875</LongitudeDegrees>
            </Position>
            <AltitudeMeters>23.6000003814697265625</AltitudeMeters>
            <DistanceMeters>53665.929946315</DistanceMeters>
          </Trackpoint>
          <Trackpoint>
            <Time>2021-03-13T10:03:03.000Z</Time>
            <Position>
              <LatitudeDegrees>36.74746957607567310333251953125</LatitudeDegrees>
              <LongitudeDegrees>-3.87677161954343318939208984375</LongitudeDegrees>
            </Position>
            <AltitudeMeters>23.3999996185302734375</AltitudeMeters>
            <DistanceMeters>53675.121540041</DistanceMeters>
          </Trackpoint>
          <Trackpoint>
            <Time>2021-03-13T10:03:07.000Z</Time>
            <Position>
              <LatitudeDegrees>36.74748902209103107452392578125</LatitudeDegrees>
              <LongitudeDegrees>-3.87652619741857051849365234375</LongitudeDegrees>
            </Position>
            <AltitudeMeters>23.200000762939453125</AltitudeMeters>
            <DistanceMeters>53697.116067889</DistanceMeters>
          </Trackpoint>
          <Trackpoint>
            <Time>2021-03-13T10:03:09.000Z</Time>
            <Position>
              <LatitudeDegrees>36.74748365767300128936767578125</LatitudeDegrees>
              <LongitudeDegrees>-3.87645729817450046539306640625</LongitudeDegrees>
            </Position>
            <AltitudeMeters>23.200000762939453125</AltitudeMeters>
            <DistanceMeters>53703.290611009</DistanceMeters>
          </Trackpoint>
          <Trackpoint>
            <Time>2021-03-13T10:03:11.000Z</Time>
            <Position>
              <LatitudeDegrees>36.74743219278752803802490234375</LatitudeDegrees>
              <LongitudeDegrees>-3.87641002424061298370361328125</LongitudeDegrees>
            </Position>
            <AltitudeMeters>23.200000762939453125</AltitudeMeters>
            <DistanceMeters>53710.403663681</DistanceMeters>
          </Trackpoint>
          <Trackpoint>
            <Time>2021-03-13T10:03:15.000Z</Time>
            <Position>
              <LatitudeDegrees>36.74738173373043537139892578125</LatitudeDegrees>
              <LongitudeDegrees>-3.8763336651027202606201171875</LongitudeDegrees>
            </Position>
            <AltitudeMeters>23</AltitudeMeters>
            <DistanceMeters>53719.230412774</DistanceMeters>
          </Trackpoint>
          <Trackpoint>
            <Time>2021-03-13T10:03:16.000Z</Time>
            <Position>
              <LatitudeDegrees>36.747359521687030792236328125</LatitudeDegrees>
              <LongitudeDegrees>-3.8763252831995487213134765625</LongitudeDegrees>
            </Position>
            <AltitudeMeters>22.799999237060546875</AltitudeMeters>
            <DistanceMeters>53721.813671664</DistanceMeters>
          </Trackpoint>
          <Trackpoint>
            <Time>2021-03-13T10:03:18.000Z</Time>
            <Position>
              <LatitudeDegrees>36.74729414284229278564453125</LatitudeDegrees>
              <LongitudeDegrees>-3.87628815136849880218505859375</LongitudeDegrees>
            </Position>
            <AltitudeMeters>22.799999237060546875</AltitudeMeters>
            <DistanceMeters>53729.808349961</DistanceMeters>
          </Trackpoint>
          <Trackpoint>
            <Time>2021-03-13T10:03:20.000Z</Time>
            <Position>
              <LatitudeDegrees>36.74720822833478450775146484375</LatitudeDegrees>
              <LongitudeDegrees>-3.87623283080756664276123046875</LongitudeDegrees>
            </Position>
            <AltitudeMeters>22.3999996185302734375</AltitudeMeters>
            <DistanceMeters>53740.567791397</DistanceMeters>
          </Trackpoint>
          <Trackpoint>
            <Time>2021-03-13T10:03:22.000Z</Time>
            <Position>
              <LatitudeDegrees>36.74710747785866260528564453125</LatitudeDegrees>
              <LongitudeDegrees>-3.8761998899281024932861328125</LongitudeDegrees>
            </Position>
            <AltitudeMeters>22.3999996185302734375</AltitudeMeters>
            <DistanceMeters>53752.160271617</DistanceMeters>
          </Trackpoint>
          <Trackpoint>
            <Time>2021-03-13T10:03:24.000Z</Time>
            <Position>
              <LatitudeDegrees>36.74700438044965267181396484375</LatitudeDegrees>
              <LongitudeDegrees>-3.876183293759822845458984375</LongitudeDegrees>
            </Position>
            <AltitudeMeters>21.3999996185302734375</AltitudeMeters>
            <DistanceMeters>53763.730139948</DistanceMeters>
          </Trackpoint>
          <Trackpoint>
            <Time>2021-03-13T10:03:25.000Z</Time>
            <Position>
              <LatitudeDegrees>36.74695744179189205169677734375</LatitudeDegrees>
              <LongitudeDegrees>-3.8761774264276027679443359375</LongitudeDegrees>
            </Position>
            <AltitudeMeters>21.200000762939453125</AltitudeMeters>
            <DistanceMeters>53768.979882161</DistanceMeters>
          </Trackpoint>
          <Trackpoint>
            <Time>2021-03-13T10:03:26.000Z</Time>
            <Position>
              <LatitudeDegrees>36.74691335298120975494384765625</LatitudeDegrees>
              <LongitudeDegrees>-3.876175247132778167724609375</LongitudeDegrees>
            </Position>
            <AltitudeMeters>21</AltitudeMeters>
            <DistanceMeters>53773.891026038</DistanceMeters>
          </Trackpoint>
          <Trackpoint>
            <Time>2021-03-13T10:03:27.000Z</Time>
            <Position>
              <LatitudeDegrees>36.74687194637954235076904296875</LatitudeDegrees>
              <LongitudeDegrees>-3.87617357075214385986328125</LongitudeDegrees>
            </Position>
            <AltitudeMeters>20.799999237060546875</AltitudeMeters>
            <DistanceMeters>53778.503493936</DistanceMeters>
          </Trackpoint>
          <Trackpoint>
            <Time>2021-03-13T10:03:29.000Z</Time>
            <Position>
              <LatitudeDegrees>36.746791899204254150390625</LatitudeDegrees>
              <LongitudeDegrees>-3.87616896070539951324462890625</LongitudeDegrees>
            </Position>
            <AltitudeMeters>20.200000762939453125</AltitudeMeters>
            <DistanceMeters>53787.421840941</DistanceMeters>
          </Trackpoint>
          <Trackpoint>
            <Time>2021-03-13T10:03:31.000Z</Time>
            <Position>
              <LatitudeDegrees>36.74672626890242099761962890625</LatitudeDegrees>
              <LongitudeDegrees>-3.8761683739721775054931640625</LongitudeDegrees>
            </Position>
            <AltitudeMeters>20</AltitudeMeters>
            <DistanceMeters>53794.725928265</DistanceMeters>
          </Trackpoint>
          <Trackpoint>
            <Time>2021-03-13T10:03:37.000Z</Time>
            <Position>
              <LatitudeDegrees>36.74648344516754150390625</LatitudeDegrees>
              <LongitudeDegrees>-3.87614297680556774139404296875</LongitudeDegrees>
            </Position>
            <AltitudeMeters>19.3999996185302734375</AltitudeMeters>
            <DistanceMeters>53821.847524771</DistanceMeters>
          </Trackpoint>
          <Trackpoint>
            <Time>2021-03-13T10:03:38.000Z</Time>
            <Position>
              <LatitudeDegrees>36.74644229002296924591064453125</LatitudeDegrees>
              <LongitudeDegrees>-3.87613895349204540252685546875</LongitudeDegrees>
            </Position>
            <AltitudeMeters>19.200000762939453125</AltitudeMeters>
            <DistanceMeters>53826.442339101</DistanceMeters>
          </Trackpoint>
          <Trackpoint>
            <Time>2021-03-13T10:03:40.000Z</Time>
            <Position>
              <LatitudeDegrees>36.746355704963207244873046875</LatitudeDegrees>
              <LongitudeDegrees>-3.87612705118954181671142578125</LongitudeDegrees>
            </Position>
            <AltitudeMeters>18.6000003814697265625</AltitudeMeters>
            <DistanceMeters>53836.137858467</DistanceMeters>
          </Trackpoint>
          <Trackpoint>
            <Time>2021-03-13T10:03:42.000Z</Time>
            <Position>
              <LatitudeDegrees>36.7462653480470180511474609375</LatitudeDegrees>
              <LongitudeDegrees>-3.87611347250640392303466796875</LongitudeDegrees>
            </Position>
            <AltitudeMeters>18</AltitudeMeters>
            <DistanceMeters>53846.267010878</DistanceMeters>
          </Trackpoint>
          <Trackpoint>
            <Time>2021-03-13T10:03:45.000Z</Time>
            <Position>
              <LatitudeDegrees>36.7461174912750720977783203125</LatitudeDegrees>
              <LongitudeDegrees>-3.87608748860657215118408203125</LongitudeDegrees>
            </Position>
            <AltitudeMeters>17.6000003814697265625</AltitudeMeters>
            <DistanceMeters>53862.886365504</DistanceMeters>
          </Trackpoint>
          <Trackpoint>
            <Time>2021-03-13T10:03:47.000Z</Time>
            <Position>
              <LatitudeDegrees>36.7460261285305023193359375</LatitudeDegrees>
              <LongitudeDegrees>-3.87605245225131511688232421875</LongitudeDegrees>
            </Position>
            <AltitudeMeters>17.3999996185302734375</AltitudeMeters>
            <DistanceMeters>53873.524265579</DistanceMeters>
          </Trackpoint>
          <Trackpoint>
            <Time>2021-03-13T10:03:48.000Z</Time>
            <Position>
              <LatitudeDegrees>36.7459830455482006072998046875</LatitudeDegrees>
              <LongitudeDegrees>-3.87602965347468852996826171875</LongitudeDegrees>
            </Position>
            <AltitudeMeters>17.200000762939453125</AltitudeMeters>
            <DistanceMeters>53878.732561811</DistanceMeters>
          </Trackpoint>
          <Trackpoint>
            <Time>2021-03-13T10:03:49.000Z</Time>
            <Position>
              <LatitudeDegrees>36.74595194868743419647216796875</LatitudeDegrees>
              <LongitudeDegrees>-3.87601976282894611358642578125</LongitudeDegrees>
            </Position>
            <AltitudeMeters>16.6000003814697265625</AltitudeMeters>
            <DistanceMeters>53882.303341549</DistanceMeters>
          </Trackpoint>
          <Trackpoint>
            <Time>2021-03-13T10:03:52.000Z</Time>
            <Position>
              <LatitudeDegrees>36.74585538916289806365966796875</LatitudeDegrees>
              <LongitudeDegrees>-3.87595765292644500732421875</LongitudeDegrees>
            </Position>
            <AltitudeMeters>16</AltitudeMeters>
            <DistanceMeters>53894.393787259</DistanceMeters>
          </Trackpoint>
          <Trackpoint>
            <Time>2021-03-13T10:03:54.000Z</Time>
            <Position>
              <LatitudeDegrees>36.7458187602460384368896484375</LatitudeDegrees>
              <LongitudeDegrees>-3.87592286802828311920166015625</LongitudeDegrees>
            </Position>
            <AltitudeMeters>15.6000003814697265625</AltitudeMeters>
            <DistanceMeters>53899.516423509</DistanceMeters>
          </Trackpoint>
          <Trackpoint>
            <Time>2021-03-13T10:03:55.000Z</Time>
            <Position>
              <LatitudeDegrees>36.74579721875488758087158203125</LatitudeDegrees>
              <LongitudeDegrees>-3.87589973397552967071533203125</LongitudeDegrees>
            </Position>
            <AltitudeMeters>15.6000003814697265625</AltitudeMeters>
            <DistanceMeters>53902.679542966</DistanceMeters>
          </Trackpoint>
          <Trackpoint>
            <Time>2021-03-13T10:03:57.000Z</Time>
            <Position>
              <LatitudeDegrees>36.7457208596169948577880859375</LatitudeDegrees>
              <LongitudeDegrees>-3.8758532144129276275634765625</LongitudeDegrees>
            </Position>
            <AltitudeMeters>15.3999996185302734375</AltitudeMeters>
            <DistanceMeters>53912.137446394</DistanceMeters>
          </Trackpoint>
          <Trackpoint>
            <Time>2021-03-13T10:03:59.000Z</Time>
            <Position>
              <LatitudeDegrees>36.74565020017325878143310546875</LatitudeDegrees>
              <LongitudeDegrees>-3.87587442062795162200927734375</LongitudeDegrees>
            </Position>
            <AltitudeMeters>15.19999980926513671875</AltitudeMeters>
            <DistanceMeters>53920.226447192</DistanceMeters>
          </Trackpoint>
          <Trackpoint>
            <Time>2021-03-13T10:04:00.000Z</Time>
            <Position>
              <LatitudeDegrees>36.7456115595996379852294921875</LatitudeDegrees>
              <LongitudeDegrees>-3.875915743410587310791015625</LongitudeDegrees>
            </Position>
            <AltitudeMeters>15.19999980926513671875</AltitudeMeters>
            <DistanceMeters>53925.89070898</DistanceMeters>
          </Trackpoint>
          <Trackpoint>
            <Time>2021-03-13T10:04:01.000Z</Time>
            <Position>
              <LatitudeDegrees>36.7455693148076534271240234375</LatitudeDegrees>
              <LongitudeDegrees>-3.875935859978199005126953125</LongitudeDegrees>
            </Position>
            <AltitudeMeters>15</AltitudeMeters>
            <DistanceMeters>53930.922640453</DistanceMeters>
          </Trackpoint>
          <Trackpoint>
            <Time>2021-03-13T10:04:03.000Z</Time>
            <Position>
              <LatitudeDegrees>36.7454761080443859100341796875</LatitudeDegrees>
              <LongitudeDegrees>-3.875926472246646881103515625</LongitudeDegrees>
            </Position>
            <AltitudeMeters>14.80000019073486328125</AltitudeMeters>
            <DistanceMeters>53941.330560371</DistanceMeters>
          </Trackpoint>
          <Trackpoint>
            <Time>2021-03-13T10:04:05.000Z</Time>
            <Position>
              <LatitudeDegrees>36.74539807252585887908935546875</LatitudeDegrees>
              <LongitudeDegrees>-3.8758867420256137847900390625</LongitudeDegrees>
            </Position>
            <AltitudeMeters>14.3999996185302734375</AltitudeMeters>
            <DistanceMeters>53950.711290351</DistanceMeters>
          </Trackpoint>
          <Trackpoint>
            <Time>2021-03-13T10:04:06.000Z</Time>
            <Position>
              <LatitudeDegrees>36.74536303617060184478759765625</LatitudeDegrees>
              <LongitudeDegrees>-3.8759028352797031402587890625</LongitudeDegrees>
            </Position>
            <AltitudeMeters>14.19999980926513671875</AltitudeMeters>
            <DistanceMeters>53954.866468585</DistanceMeters>
          </Trackpoint>
          <Trackpoint>
            <Time>2021-03-13T10:04:09.000Z</Time>
            <Position>
              <LatitudeDegrees>36.7453114874660968780517578125</LatitudeDegrees>
              <LongitudeDegrees>-3.87597911059856414794921875</LongitudeDegrees>
            </Position>
            <AltitudeMeters>14</AltitudeMeters>
            <DistanceMeters>53963.765556764</DistanceMeters>
          </Trackpoint>
          <Trackpoint>
            <Time>2021-03-13T10:04:11.000Z</Time>
            <Position>
              <LatitudeDegrees>36.74527502618730068206787109375</LatitudeDegrees>
              <LongitudeDegrees>-3.8760282285511493682861328125</LongitudeDegrees>
            </Position>
            <AltitudeMeters>14</AltitudeMeters>
            <DistanceMeters>53969.737137114</DistanceMeters>
          </Trackpoint>
          <Trackpoint>
            <Time>2021-03-13T10:04:13.000Z</Time>
            <Position>
              <LatitudeDegrees>36.74522708170115947723388671875</LatitudeDegrees>
              <LongitudeDegrees>-3.87603568844497203826904296875</LongitudeDegrees>
            </Position>
            <AltitudeMeters>13.6000003814697265625</AltitudeMeters>
            <DistanceMeters>53975.114339433</DistanceMeters>
          </Trackpoint>
          <Trackpoint>
            <Time>2021-03-13T10:04:14.000Z</Time>
            <Position>
              <LatitudeDegrees>36.74519020132720470428466796875</LatitudeDegrees>
              <LongitudeDegrees>-3.87603233568370342254638671875</LongitudeDegrees>
            </Position>
            <AltitudeMeters>13.19999980926513671875</AltitudeMeters>
            <DistanceMeters>53979.230213994</DistanceMeters>
          </Trackpoint>
          <Trackpoint>
            <Time>2021-03-13T10:04:17.000Z</Time>
            <Position>
              <LatitudeDegrees>36.74506480805575847625732421875</LatitudeDegrees>
              <LongitudeDegrees>-3.8759896717965602874755859375</LongitudeDegrees>
            </Position>
            <AltitudeMeters>13</AltitudeMeters>
            <DistanceMeters>53993.696139181</DistanceMeters>
          </Trackpoint>
          <Trackpoint>
            <Time>2021-03-13T10:04:20.000Z</Time>
            <Position>
              <LatitudeDegrees>36.74495785497128963470458984375</LatitudeDegrees>
              <LongitudeDegrees>-3.87593259103596210479736328125</LongitudeDegrees>
            </Position>
            <AltitudeMeters>13</AltitudeMeters>
            <DistanceMeters>54006.643158492</DistanceMeters>
          </Trackpoint>
          <Trackpoint>
            <Time>2021-03-13T10:04:23.000Z</Time>
            <Position>
              <LatitudeDegrees>36.74483698792755603790283203125</LatitudeDegrees>
              <LongitudeDegrees>-3.87587743811309337615966796875</LongitudeDegrees>
            </Position>
            <AltitudeMeters>12.3999996185302734375</AltitudeMeters>
            <DistanceMeters>54020.966682388</DistanceMeters>
          </Trackpoint>
          <Trackpoint>
            <Time>2021-03-13T10:04:26.000Z</Time>
            <Position>
              <LatitudeDegrees>36.7447331361472606658935546875</LatitudeDegrees>
              <LongitudeDegrees>-3.87580669485032558441162109375</LongitudeDegrees>
            </Position>
            <AltitudeMeters>12.3999996185302734375</AltitudeMeters>
            <DistanceMeters>54034.136027405</DistanceMeters>
          </Trackpoint>
          <Trackpoint>
            <Time>2021-03-13T10:04:28.000Z</Time>
            <Position>
              <LatitudeDegrees>36.74465912394225597381591796875</LatitudeDegrees>
              <LongitudeDegrees>-3.8757563196122646331787109375</LongitudeDegrees>
            </Position>
            <AltitudeMeters>12.19999980926513671875</AltitudeMeters>
            <DistanceMeters>54043.519163626</DistanceMeters>
          </Trackpoint>
          <Trackpoint>
            <Time>2021-03-13T10:04:32.000Z</Time>
            <Position>
              <LatitudeDegrees>36.7445256002247333526611328125</LatitudeDegrees>
              <LongitudeDegrees>-3.87565481476485729217529296875</LongitudeDegrees>
            </Position>
            <AltitudeMeters>12</AltitudeMeters>
            <DistanceMeters>54060.920732046</DistanceMeters>
          </Trackpoint>
          <Trackpoint>
            <Time>2021-03-13T10:04:37.000Z</Time>
            <Position>
              <LatitudeDegrees>36.7444236762821674346923828125</LatitudeDegrees>
              <LongitudeDegrees>-3.87554082088172435760498046875</LongitudeDegrees>
            </Position>
            <AltitudeMeters>11.80000019073486328125</AltitudeMeters>
            <DistanceMeters>54076.154080478</DistanceMeters>
          </Trackpoint>
          <Trackpoint>
            <Time>2021-03-13T10:04:44.000Z</Time>
            <Position>
              <LatitudeDegrees>36.744355447590351104736328125</LatitudeDegrees>
              <LongitudeDegrees>-3.87538877315819263458251953125</LongitudeDegrees>
            </Position>
            <AltitudeMeters>11.6000003814697265625</AltitudeMeters>
            <DistanceMeters>54091.696396102</DistanceMeters>
          </Trackpoint>
          <Trackpoint>
            <Time>2021-03-13T10:04:46.000Z</Time>
            <Position>
              <LatitudeDegrees>36.7443579621613025665283203125</LatitudeDegrees>
              <LongitudeDegrees>-3.87536446563899517059326171875</LongitudeDegrees>
            </Position>
            <AltitudeMeters>11.3999996185302734375</AltitudeMeters>
            <DistanceMeters>54093.884075355</DistanceMeters>
          </Trackpoint>
          <Trackpoint>
            <Time>2021-03-13T10:16:48.000Z</Time>
            <Position>
              <LatitudeDegrees>36.744368858635425567626953125</LatitudeDegrees>
              <LongitudeDegrees>-3.87537787668406963348388671875</LongitudeDegrees>
            </Position>
            <AltitudeMeters>12</AltitudeMeters>
            <DistanceMeters>54095.589268779</DistanceMeters>
          </Trackpoint>
          <Trackpoint>
            <Time>2021-03-13T10:16:49.000Z</Time>
            <Position>
              <LatitudeDegrees>36.744369529187679290771484375</LatitudeDegrees>
              <LongitudeDegrees>-3.875377960503101348876953125</LongitudeDegrees>
            </Position>
            <AltitudeMeters>12</AltitudeMeters>
            <DistanceMeters>54095.684295494</DistanceMeters>
          </Trackpoint>
          <Trackpoint>
            <Time>2021-03-13T10:21:36.000Z</Time>
            <Position>
              <LatitudeDegrees>36.74801054410636425018310546875</LatitudeDegrees>
              <LongitudeDegrees>-3.88100565411150455474853515625</LongitudeDegrees>
            </Position>
            <AltitudeMeters>24.799999237060546875</AltitudeMeters>
            <DistanceMeters>54740.775034273</DistanceMeters>
          </Trackpoint>
          <Trackpoint>
            <Time>2021-03-13T10:21:37.000Z</Time>
            <Position>
              <LatitudeDegrees>36.74801766872406005859375</LatitudeDegrees>
              <LongitudeDegrees>-3.88108871877193450927734375</LongitudeDegrees>
            </Position>
            <AltitudeMeters>24.6000003814697265625</AltitudeMeters>
            <DistanceMeters>54748.226001322</DistanceMeters>
          </Trackpoint>
          <Trackpoint>
            <Time>2021-03-13T10:21:41.000Z</Time>
            <Position>
              <LatitudeDegrees>36.74805278889834880828857421875</LatitudeDegrees>
              <LongitudeDegrees>-3.881435059010982513427734375</LongitudeDegrees>
            </Position>
            <AltitudeMeters>24</AltitudeMeters>
            <DistanceMeters>54779.360268392</DistanceMeters>
          </Trackpoint>
          <Trackpoint>
            <Time>2021-03-13T10:21:46.000Z</Time>
            <Position>
              <LatitudeDegrees>36.74810123629868030548095703125</LatitudeDegrees>
              <LongitudeDegrees>-3.88186949305236339569091796875</LongitudeDegrees>
            </Position>
            <AltitudeMeters>24</AltitudeMeters>
            <DistanceMeters>54818.478047392</DistanceMeters>
          </Trackpoint>
          <Trackpoint>
            <Time>2021-03-13T10:21:48.000Z</Time>
            <Position>
              <LatitudeDegrees>36.7481690458953380584716796875</LatitudeDegrees>
              <LongitudeDegrees>-3.88201408088207244873046875</LongitudeDegrees>
            </Position>
            <AltitudeMeters>24</AltitudeMeters>
            <DistanceMeters>54833.419317413</DistanceMeters>
          </Trackpoint>
          <Trackpoint>
            <Time>2021-03-13T10:21:49.000Z</Time>
            <Position>
              <LatitudeDegrees>36.7482233606278896331787109375</LatitudeDegrees>
              <LongitudeDegrees>-3.882065378129482269287109375</LongitudeDegrees>
            </Position>
            <AltitudeMeters>24.200000762939453125</AltitudeMeters>
            <DistanceMeters>54841.001234495</DistanceMeters>
          </Trackpoint>
          <Trackpoint>
            <Time>2021-03-13T10:21:52.000Z</Time>
            <Position>
              <LatitudeDegrees>36.7483819462358951568603515625</LatitudeDegrees>
              <LongitudeDegrees>-3.88219689019024372100830078125</LongitudeDegrees>
            </Position>
            <AltitudeMeters>24.200000762939453125</AltitudeMeters>
            <DistanceMeters>54862.193683198</DistanceMeters>
          </Trackpoint>
          <Trackpoint>
            <Time>2021-03-13T10:21:54.000Z</Time>
            <Position>
              <LatitudeDegrees>36.74847959540784358978271484375</LatitudeDegrees>
              <LongitudeDegrees>-3.882276602089405059814453125</LongitudeDegrees>
            </Position>
            <AltitudeMeters>24.3999996185302734375</AltitudeMeters>
            <DistanceMeters>54875.180744753</DistanceMeters>
          </Trackpoint>
          <Trackpoint>
            <Time>2021-03-13T10:21:57.000Z</Time>
            <Position>
              <LatitudeDegrees>36.74862409941852092742919921875</LatitudeDegrees>
              <LongitudeDegrees>-3.8823934458196163177490234375</LongitudeDegrees>
            </Position>
            <AltitudeMeters>25</AltitudeMeters>
            <DistanceMeters>54894.345067572</DistanceMeters>
          </Trackpoint>
          <Trackpoint>
            <Time>2021-03-13T10:22:00.000Z</Time>
            <Position>
              <LatitudeDegrees>36.74877581186592578887939453125</LatitudeDegrees>
              <LongitudeDegrees>-3.88248288072645664215087890625</LongitudeDegrees>
            </Position>
            <AltitudeMeters>26</AltitudeMeters>
            <DistanceMeters>54913.019932561</DistanceMeters>
          </Trackpoint>
          <Trackpoint>
            <Time>2021-03-13T10:22:02.000Z</Time>
            <Position>
              <LatitudeDegrees>36.7488845251500606536865234375</LatitudeDegrees>
              <LongitudeDegrees>-3.88252093456685543060302734375</LongitudeDegrees>
            </Position>
            <AltitudeMeters>26.6000003814697265625</AltitudeMeters>
            <DistanceMeters>54925.587193082</DistanceMeters>
          </Trackpoint>
          <Trackpoint>
            <Time>2021-03-13T10:22:04.000Z</Time>
            <Position>
              <LatitudeDegrees>36.74900094978511333465576171875</LatitudeDegrees>
              <LongitudeDegrees>-3.88253686018288135528564453125</LongitudeDegrees>
            </Position>
            <AltitudeMeters>27.200000762939453125</AltitudeMeters>
            <DistanceMeters>54938.622835702</DistanceMeters>
          </Trackpoint>
          <Trackpoint>
            <Time>2021-03-13T10:22:05.000Z</Time>
            <Position>
              <LatitudeDegrees>36.74906062893569469451904296875</LatitudeDegrees>
              <LongitudeDegrees>-3.882532082498073577880859375</LongitudeDegrees>
            </Position>
            <AltitudeMeters>27.200000762939453125</AltitudeMeters>
            <DistanceMeters>54945.278777035</DistanceMeters>
          </Trackpoint>
          <Trackpoint>
            <Time>2021-03-13T10:22:08.000Z</Time>
            <Position>
              <LatitudeDegrees>36.7492419295012950897216796875</LatitudeDegrees>
              <LongitudeDegrees>-3.88251724652945995330810546875</LongitudeDegrees>
            </Position>
            <AltitudeMeters>27.6000003814697265625</AltitudeMeters>
            <DistanceMeters>54965.501390665</DistanceMeters>
          </Trackpoint>
          <Trackpoint>
            <Time>2021-03-13T10:22:10.000Z</Time>
            <Position>
              <LatitudeDegrees>36.74935298971831798553466796875</LatitudeDegrees>
              <LongitudeDegrees>-3.882562257349491119384765625</LongitudeDegrees>
            </Position>
            <AltitudeMeters>27.6000003814697265625</AltitudeMeters>
            <DistanceMeters>54978.49818296</DistanceMeters>
          </Trackpoint>
          <Trackpoint>
            <Time>2021-03-13T10:22:12.000Z</Time>
            <Position>
              <LatitudeDegrees>36.7494276724755764007568359375</LatitudeDegrees>
              <LongitudeDegrees>-3.88266476802527904510498046875</LongitudeDegrees>
            </Position>
            <AltitudeMeters>28</AltitudeMeters>
            <DistanceMeters>54990.854579381</DistanceMeters>
          </Trackpoint>
          <Trackpoint>
            <Time>2021-03-13T10:22:13.000Z</Time>
            <Position>
              <LatitudeDegrees>36.7494471184909343719482421875</LatitudeDegrees>
              <LongitudeDegrees>-3.88272964395582675933837890625</LongitudeDegrees>
            </Position>
            <AltitudeMeters>28.200000762939453125</AltitudeMeters>
            <DistanceMeters>54997.031315815</DistanceMeters>
          </Trackpoint>
          <Trackpoint>
            <Time>2021-03-13T10:22:14.000Z</Time>
            <Position>
              <LatitudeDegrees>36.74945239908993244171142578125</LatitudeDegrees>
              <LongitudeDegrees>-3.88279988430440425872802734375</LongitudeDegrees>
            </Position>
            <AltitudeMeters>28.200000762939453125</AltitudeMeters>
            <DistanceMeters>55003.322486219</DistanceMeters>
          </Trackpoint>
          <Trackpoint>
            <Time>2021-03-13T10:22:16.000Z</Time>
            <Position>
              <LatitudeDegrees>36.74941769801080226898193359375</LatitudeDegrees>
              <LongitudeDegrees>-3.8829392753541469573974609375</LongitudeDegrees>
            </Position>
            <AltitudeMeters>28.6000003814697265625</AltitudeMeters>
            <DistanceMeters>55016.339758762</DistanceMeters>
          </Trackpoint>
          <Trackpoint>
            <Time>2021-03-13T10:22:18.000Z</Time>
            <Position>
              <LatitudeDegrees>36.7493287660181522369384765625</LatitudeDegrees>
              <LongitudeDegrees>-3.88304815627634525299072265625</LongitudeDegrees>
            </Position>
            <AltitudeMeters>29</AltitudeMeters>
            <DistanceMeters>55030.205846446</DistanceMeters>
          </Trackpoint>
          <Trackpoint>
            <Time>2021-03-13T10:22:19.000Z</Time>
            <Position>
              <LatitudeDegrees>36.749273948371410369873046875</LatitudeDegrees>
              <LongitudeDegrees>-3.883090317249298095703125</LongitudeDegrees>
            </Position>
            <AltitudeMeters>29</AltitudeMeters>
            <DistanceMeters>55037.373909989</DistanceMeters>
          </Trackpoint>
          <Trackpoint>
            <Time>2021-03-13T10:22:21.000Z</Time>
            <Position>
              <LatitudeDegrees>36.74916389398276805877685546875</LatitudeDegrees>
              <LongitudeDegrees>-3.8831803388893604278564453125</LongitudeDegrees>
            </Position>
            <AltitudeMeters>29</AltitudeMeters>
            <DistanceMeters>55052.019743385</DistanceMeters>
          </Trackpoint>
          <Trackpoint>
            <Time>2021-03-13T10:22:23.000Z</Time>
            <Position>
              <LatitudeDegrees>36.74907387234270572662353515625</LatitudeDegrees>
              <LongitudeDegrees>-3.883306570351123809814453125</LongitudeDegrees>
            </Position>
            <AltitudeMeters>29</AltitudeMeters>
            <DistanceMeters>55067.090393096</DistanceMeters>
          </Trackpoint>
          <Trackpoint>
            <Time>2021-03-13T10:22:28.000Z</Time>
            <Position>
              <LatitudeDegrees>36.7488590441644191741943359375</LatitudeDegrees>
              <LongitudeDegrees>-3.88367411680519580841064453125</LongitudeDegrees>
            </Position>
            <AltitudeMeters>28.3999996185302734375</AltitudeMeters>
            <DistanceMeters>55107.663573101</DistanceMeters>
          </Trackpoint>
          <Trackpoint>
            <Time>2021-03-13T10:22:30.000Z</Time>
            <Position>
              <LatitudeDegrees>36.74877111800014972686767578125</LatitudeDegrees>
              <LongitudeDegrees>-3.883828930556774139404296875</LongitudeDegrees>
            </Position>
            <AltitudeMeters>28</AltitudeMeters>
            <DistanceMeters>55124.586867831</DistanceMeters>
          </Trackpoint>
          <Trackpoint>
            <Time>2021-03-13T10:22:34.000Z</Time>
            <Position>
              <LatitudeDegrees>36.74858705140650272369384765625</LatitudeDegrees>
              <LongitudeDegrees>-3.88413344509899616241455078125</LongitudeDegrees>
            </Position>
            <AltitudeMeters>26.799999237060546875</AltitudeMeters>
            <DistanceMeters>55158.605369808</DistanceMeters>
          </Trackpoint>
          <Trackpoint>
            <Time>2021-03-13T10:22:35.000Z</Time>
            <Position>
              <LatitudeDegrees>36.748537011444568634033203125</LatitudeDegrees>
              <LongitudeDegrees>-3.88421223498880863189697265625</LongitudeDegrees>
            </Position>
            <AltitudeMeters>26.6000003814697265625</AltitudeMeters>
            <DistanceMeters>55167.571682906</DistanceMeters>
          </Trackpoint>
          <Trackpoint>
            <Time>2021-03-13T10:22:38.000Z</Time>
            <Position>
              <LatitudeDegrees>36.74838504754006862640380859375</LatitudeDegrees>
              <LongitudeDegrees>-3.88445933349430561065673828125</LongitudeDegrees>
            </Position>
            <AltitudeMeters>26.200000762939453125</AltitudeMeters>
            <DistanceMeters>55195.351357723</DistanceMeters>
          </Trackpoint>
          <Trackpoint>
            <Time>2021-03-13T10:22:40.000Z</Time>
            <Position>
              <LatitudeDegrees>36.7482843808829784393310546875</LatitudeDegrees>
              <LongitudeDegrees>-3.88463669456541538238525390625</LongitudeDegrees>
            </Position>
            <AltitudeMeters>25.6000003814697265625</AltitudeMeters>
            <DistanceMeters>55214.735177025</DistanceMeters>
          </Trackpoint>
          <Trackpoint>
            <Time>2021-03-13T10:22:43.000Z</Time>
            <Position>
              <LatitudeDegrees>36.7481331713497638702392578125</LatitudeDegrees>
              <LongitudeDegrees>-3.884913213551044464111328125</LongitudeDegrees>
            </Position>
            <AltitudeMeters>24.3999996185302734375</AltitudeMeters>
            <DistanceMeters>55244.591415336</DistanceMeters>
          </Trackpoint>
          <Trackpoint>
            <Time>2021-03-13T10:22:47.000Z</Time>
            <Position>
              <LatitudeDegrees>36.7479326762259006500244140625</LatitudeDegrees>
              <LongitudeDegrees>-3.88530255295336246490478515625</LongitudeDegrees>
            </Position>
            <AltitudeMeters>23.200000762939453125</AltitudeMeters>
            <DistanceMeters>55285.866495979</DistanceMeters>
          </Trackpoint>
          <Trackpoint>
            <Time>2021-03-13T10:22:50.000Z</Time>
            <Position>
              <LatitudeDegrees>36.74779496155679225921630859375</LatitudeDegrees>
              <LongitudeDegrees>-3.88561494648456573486328125</LongitudeDegrees>
            </Position>
            <AltitudeMeters>22</AltitudeMeters>
            <DistanceMeters>55317.664967795</DistanceMeters>
          </Trackpoint>
          <Trackpoint>
            <Time>2021-03-13T10:22:52.000Z</Time>
            <Position>
              <LatitudeDegrees>36.74771801568567752838134765625</LatitudeDegrees>
              <LongitudeDegrees>-3.8858340494334697723388671875</LongitudeDegrees>
            </Position>
            <AltitudeMeters>20.799999237060546875</AltitudeMeters>
            <DistanceMeters>55338.999682071</DistanceMeters>
          </Trackpoint>
          <Trackpoint>
            <Time>2021-03-13T10:22:54.000Z</Time>
            <Position>
              <LatitudeDegrees>36.74764291383326053619384765625</LatitudeDegrees>
              <LongitudeDegrees>-3.88604971580207347869873046875</LongitudeDegrees>
            </Position>
            <AltitudeMeters>19.6000003814697265625</AltitudeMeters>
            <DistanceMeters>55359.971541866</DistanceMeters>
          </Trackpoint>
          <Trackpoint>
            <Time>2021-03-13T10:22:57.000Z</Time>
            <Position>
              <LatitudeDegrees>36.74753822386264801025390625</LatitudeDegrees>
              <LongitudeDegrees>-3.88637669384479522705078125</LongitudeDegrees>
            </Position>
            <AltitudeMeters>18.3999996185302734375</AltitudeMeters>
            <DistanceMeters>55391.374384542</DistanceMeters>
          </Trackpoint>
          <Trackpoint>
            <Time>2021-03-13T10:22:58.000Z</Time>
            <Position>
              <LatitudeDegrees>36.7475082166492938995361328125</LatitudeDegrees>
              <LongitudeDegrees>-3.8864901848137378692626953125</LongitudeDegrees>
            </Position>
            <AltitudeMeters>18.200000762939453125</AltitudeMeters>
            <DistanceMeters>55402.032637761</DistanceMeters>
          </Trackpoint>
          <Trackpoint>
            <Time>2021-03-13T10:23:01.000Z</Time>
            <Position>
              <LatitudeDegrees>36.74742825329303741455078125</LatitudeDegrees>
              <LongitudeDegrees>-3.88683292083442211151123046875</LongitudeDegrees>
            </Position>
            <AltitudeMeters>17.3999996185302734375</AltitudeMeters>
            <DistanceMeters>55433.868430823</DistanceMeters>
          </Trackpoint>
          <Trackpoint>
            <Time>2021-03-13T10:23:03.000Z</Time>
            <Position>
              <LatitudeDegrees>36.747382991015911102294921875</LatitudeDegrees>
              <LongitudeDegrees>-3.887058310210704803466796875</LongitudeDegrees>
            </Position>
            <AltitudeMeters>16.6000003814697265625</AltitudeMeters>
            <DistanceMeters>55454.591445697</DistanceMeters>
          </Trackpoint>
          <Trackpoint>
            <Time>2021-03-13T10:23:05.000Z</Time>
            <Position>
              <LatitudeDegrees>36.74734250642359256744384765625</LatitudeDegrees>
              <LongitudeDegrees>-3.88728319667279720306396484375</LongitudeDegrees>
            </Position>
            <AltitudeMeters>16.200000762939453125</AltitudeMeters>
            <DistanceMeters>55475.147549343</DistanceMeters>
          </Trackpoint>
          <Trackpoint>
            <Time>2021-03-13T10:23:07.000Z</Time>
            <Position>
              <LatitudeDegrees>36.74730646423995494842529296875</LatitudeDegrees>
              <LongitudeDegrees>-3.88750431127846240997314453125</LongitudeDegrees>
            </Position>
            <AltitudeMeters>15.80000019073486328125</AltitudeMeters>
            <DistanceMeters>55495.271237082</DistanceMeters>
          </Trackpoint>
          <Trackpoint>
            <Time>2021-03-13T10:23:14.000Z</Time>
            <Position>
              <LatitudeDegrees>36.7471793107688426971435546875</LatitudeDegrees>
              <LongitudeDegrees>-3.8882725127041339874267578125</LongitudeDegrees>
            </Position>
            <AltitudeMeters>15.19999980926513671875</AltitudeMeters>
            <DistanceMeters>55565.229230414</DistanceMeters>
          </Trackpoint>
          <Trackpoint>
            <Time>2021-03-13T10:23:16.000Z</Time>
            <Position>
              <LatitudeDegrees>36.74714318476617336273193359375</LatitudeDegrees>
              <LongitudeDegrees>-3.8884951360523700714111328125</LongitudeDegrees>
            </Position>
            <AltitudeMeters>15</AltitudeMeters>
            <DistanceMeters>55585.487089484</DistanceMeters>
          </Trackpoint>
          <Trackpoint>
            <Time>2021-03-13T10:23:18.000Z</Time>
            <Position>
              <LatitudeDegrees>36.74710932187736034393310546875</LatitudeDegrees>
              <LongitudeDegrees>-3.88871423900127410888671875</LongitudeDegrees>
            </Position>
            <AltitudeMeters>14.80000019073486328125</AltitudeMeters>
            <DistanceMeters>55605.387870691</DistanceMeters>
          </Trackpoint>
          <Trackpoint>
            <Time>2021-03-13T10:23:23.000Z</Time>
            <Position>
              <LatitudeDegrees>36.7470327951014041900634765625</LatitudeDegrees>
              <LongitudeDegrees>-3.88924372382462024688720703125</LongitudeDegrees>
            </Position>
            <AltitudeMeters>14</AltitudeMeters>
            <DistanceMeters>55653.37175102</DistanceMeters>
          </Trackpoint>
          <Trackpoint>
            <Time>2021-03-13T10:23:25.000Z</Time>
            <Position>
              <LatitudeDegrees>36.74700446426868438720703125</LatitudeDegrees>
              <LongitudeDegrees>-3.88944782316684722900390625</LongitudeDegrees>
            </Position>
            <AltitudeMeters>13.6000003814697265625</AltitudeMeters>
            <DistanceMeters>55671.845345122</DistanceMeters>
          </Trackpoint>
          <Trackpoint>
            <Time>2021-03-13T10:23:27.000Z</Time>
            <Position>
              <LatitudeDegrees>36.74697504378855228424072265625</LatitudeDegrees>
              <LongitudeDegrees>-3.88964152894914150238037109375</LongitudeDegrees>
            </Position>
            <AltitudeMeters>13.19999980926513671875</AltitudeMeters>
            <DistanceMeters>55689.428368958</DistanceMeters>
          </Trackpoint>
          <Trackpoint>
            <Time>2021-03-13T10:23:30.000Z</Time>
            <Position>
              <LatitudeDegrees>36.74693330191075801849365234375</LatitudeDegrees>
              <LongitudeDegrees>-3.88992232270538806915283203125</LongitudeDegrees>
            </Position>
            <AltitudeMeters>12.80000019073486328125</AltitudeMeters>
            <DistanceMeters>55714.898010329</DistanceMeters>
          </Trackpoint>
          <Trackpoint>
            <Time>2021-03-13T10:23:32.000Z</Time>
            <Position>
              <LatitudeDegrees>36.74690430052578449249267578125</LatitudeDegrees>
              <LongitudeDegrees>-3.89010136015713214874267578125</LongitudeDegrees>
            </Position>
            <AltitudeMeters>12.6000003814697265625</AltitudeMeters>
            <DistanceMeters>55731.188372097</DistanceMeters>
          </Trackpoint>
          <Trackpoint>
            <Time>2021-03-13T10:23:35.000Z</Time>
            <Position>
              <LatitudeDegrees>36.746859289705753326416015625</LatitudeDegrees>
              <LongitudeDegrees>-3.89035382308065891265869140625</LongitudeDegrees>
            </Position>
            <AltitudeMeters>12.19999980926513671875</AltitudeMeters>
            <DistanceMeters>55754.255018239</DistanceMeters>
          </Trackpoint>
          <Trackpoint>
            <Time>2021-03-13T10:23:36.000Z</Time>
            <Position>
              <LatitudeDegrees>36.74684763886034488677978515625</LatitudeDegrees>
              <LongitudeDegrees>-3.8904323615133762359619140625</LongitudeDegrees>
            </Position>
            <AltitudeMeters>12.19999980926513671875</AltitudeMeters>
            <DistanceMeters>55761.377585856</DistanceMeters>
          </Trackpoint>
          <Trackpoint>
            <Time>2021-03-13T10:23:37.000Z</Time>
            <Position>
              <LatitudeDegrees>36.7468467168509960174560546875</LatitudeDegrees>
              <LongitudeDegrees>-3.890511654317378997802734375</LongitudeDegrees>
            </Position>
            <AltitudeMeters>11.80000019073486328125</AltitudeMeters>
            <DistanceMeters>55768.449897602</DistanceMeters>
          </Trackpoint>
          <Trackpoint>
            <Time>2021-03-13T10:23:38.000Z</Time>
            <Position>
              <LatitudeDegrees>36.7468581162393093109130859375</LatitudeDegrees>
              <LongitudeDegrees>-3.89059044420719146728515625</LongitudeDegrees>
            </Position>
            <AltitudeMeters>11.80000019073486328125</AltitudeMeters>
            <DistanceMeters>55775.590192526</DistanceMeters>
          </Trackpoint>
          <Trackpoint>
            <Time>2021-03-13T10:23:40.000Z</Time>
            <Position>
              <LatitudeDegrees>36.7469154484570026397705078125</LatitudeDegrees>
              <LongitudeDegrees>-3.89073000289499759674072265625</LongitudeDegrees>
            </Position>
            <AltitudeMeters>11.6000003814697265625</AltitudeMeters>
            <DistanceMeters>55789.576885347</DistanceMeters>
          </Trackpoint>
          <Trackpoint>
            <Time>2021-03-13T10:23:41.000Z</Time>
            <Position>
              <LatitudeDegrees>36.74695811234414577484130859375</LatitudeDegrees>
              <LongitudeDegrees>-3.89078867621719837188720703125</LongitudeDegrees>
            </Position>
            <AltitudeMeters>11.6000003814697265625</AltitudeMeters>
            <DistanceMeters>55796.642171087</DistanceMeters>
          </Trackpoint>
          <Trackpoint>
            <Time>2021-03-13T10:23:45.000Z</Time>
            <Position>
              <LatitudeDegrees>36.7471256665885448455810546875</LatitudeDegrees>
              <LongitudeDegrees>-3.89098296873271465301513671875</LongitudeDegrees>
            </Position>
            <AltitudeMeters>11.3999996185302734375</AltitudeMeters>
            <DistanceMeters>55822.098868359</DistanceMeters>
          </Trackpoint>
          <Trackpoint>
            <Time>2021-03-13T10:23:50.000Z</Time>
            <Position>
              <LatitudeDegrees>36.7472513951361179351806640625</LatitudeDegrees>
              <LongitudeDegrees>-3.8911672867834568023681640625</LongitudeDegrees>
            </Position>
            <AltitudeMeters>11.6000003814697265625</AltitudeMeters>
            <DistanceMeters>55843.687089113</DistanceMeters>
          </Trackpoint>
          <Trackpoint>
            <Time>2021-03-13T10:23:53.000Z</Time>
            <Position>
              <LatitudeDegrees>36.74722985364496707916259765625</LatitudeDegrees>
              <LongitudeDegrees>-3.89122537337243556976318359375</LongitudeDegrees>
            </Position>
            <AltitudeMeters>11.6000003814697265625</AltitudeMeters>
            <DistanceMeters>55849.39581453</DistanceMeters>
          </Trackpoint>
          <Trackpoint>
            <Time>2021-03-13T10:39:35.000Z</Time>
            <Position>
              <LatitudeDegrees>36.7466854490339756011962890625</LatitudeDegrees>
              <LongitudeDegrees>-3.8913443125784397125244140625</LongitudeDegrees>
            </Position>
            <AltitudeMeters>15.6000003814697265625</AltitudeMeters>
            <DistanceMeters>55910.910622455</DistanceMeters>
          </Trackpoint>
          <Trackpoint>
            <Time>2021-03-13T10:39:36.000Z</Time>
            <Position>
              <LatitudeDegrees>36.74668335355818271636962890625</LatitudeDegrees>
              <LongitudeDegrees>-3.89137976802885532379150390625</LongitudeDegrees>
            </Position>
            <AltitudeMeters>15.3999996185302734375</AltitudeMeters>
            <DistanceMeters>55914.082294752</DistanceMeters>
          </Trackpoint>
          <Trackpoint>
            <Time>2021-03-13T10:39:41.000Z</Time>
            <Position>
              <LatitudeDegrees>36.74664529971778392791748046875</LatitudeDegrees>
              <LongitudeDegrees>-3.89158864505589008331298828125</LongitudeDegrees>
            </Position>
            <AltitudeMeters>15</AltitudeMeters>
            <DistanceMeters>55933.186209784</DistanceMeters>
          </Trackpoint>
          <Trackpoint>
            <Time>2021-03-13T10:39:46.000Z</Time>
            <Position>
              <LatitudeDegrees>36.74660372547805309295654296875</LatitudeDegrees>
              <LongitudeDegrees>-3.8918579556047916412353515625</LongitudeDegrees>
            </Position>
            <AltitudeMeters>14.3999996185302734375</AltitudeMeters>
            <DistanceMeters>55957.646130365</DistanceMeters>
          </Trackpoint>
          <Trackpoint>
            <Time>2021-03-13T10:39:48.000Z</Time>
            <Position>
              <LatitudeDegrees>36.74657790921628475189208984375</LatitudeDegrees>
              <LongitudeDegrees>-3.89198527671396732330322265625</LongitudeDegrees>
            </Position>
            <AltitudeMeters>14.19999980926513671875</AltitudeMeters>
            <DistanceMeters>55969.358727059</DistanceMeters>
          </Trackpoint>
          <Trackpoint>
            <Time>2021-03-13T10:39:53.000Z</Time>
            <Position>
              <LatitudeDegrees>36.74654203467071056365966796875</LatitudeDegrees>
              <LongitudeDegrees>-3.892210163176059722900390625</LongitudeDegrees>
            </Position>
            <AltitudeMeters>14</AltitudeMeters>
            <DistanceMeters>55989.808687946</DistanceMeters>
          </Trackpoint>
          <Trackpoint>
            <Time>2021-03-13T10:39:56.000Z</Time>
            <Position>
              <LatitudeDegrees>36.746507585048675537109375</LatitudeDegrees>
              <LongitudeDegrees>-3.892469666898250579833984375</LongitudeDegrees>
            </Position>
            <AltitudeMeters>14</AltitudeMeters>
            <DistanceMeters>56013.267972012</DistanceMeters>
          </Trackpoint>
          <Trackpoint>
            <Time>2021-03-13T10:40:02.000Z</Time>
            <Position>
              <LatitudeDegrees>36.74644245766103267669677734375</LatitudeDegrees>
              <LongitudeDegrees>-3.89285062439739704132080078125</LongitudeDegrees>
            </Position>
            <AltitudeMeters>13.3999996185302734375</AltitudeMeters>
            <DistanceMeters>56048.008262409</DistanceMeters>
          </Trackpoint>
          <Trackpoint>
            <Time>2021-03-13T10:40:03.000Z</Time>
            <Position>
              <LatitudeDegrees>36.74643172882497310638427734375</LatitudeDegrees>
              <LongitudeDegrees>-3.89292002655565738677978515625</LongitudeDegrees>
            </Position>
            <AltitudeMeters>13.19999980926513671875</AltitudeMeters>
            <DistanceMeters>56054.311621542</DistanceMeters>
          </Trackpoint>
          <Trackpoint>
            <Time>2021-03-13T10:40:05.000Z</Time>
            <Position>
              <LatitudeDegrees>36.74640976823866367340087890625</LatitudeDegrees>
              <LongitudeDegrees>-3.89306117780506610870361328125</LongitudeDegrees>
            </Position>
            <AltitudeMeters>12.80000019073486328125</AltitudeMeters>
            <DistanceMeters>56067.135299724</DistanceMeters>
          </Trackpoint>
          <Trackpoint>
            <Time>2021-03-13T10:40:09.000Z</Time>
            <Position>
              <LatitudeDegrees>36.7463642545044422149658203125</LatitudeDegrees>
              <LongitudeDegrees>-3.893352448940277099609375</LongitudeDegrees>
            </Position>
            <AltitudeMeters>12.3999996185302734375</AltitudeMeters>
            <DistanceMeters>56093.601561828</DistanceMeters>
          </Trackpoint>
          <Trackpoint>
            <Time>2021-03-13T10:40:10.000Z</Time>
            <Position>
              <LatitudeDegrees>36.746349334716796875</LatitudeDegrees>
              <LongitudeDegrees>-3.89342897571623325347900390625</LongitudeDegrees>
            </Position>
            <AltitudeMeters>12.19999980926513671875</AltitudeMeters>
            <DistanceMeters>56100.624543925</DistanceMeters>
          </Trackpoint>
          <Trackpoint>
            <Time>2021-03-13T10:40:12.000Z</Time>
            <Position>
              <LatitudeDegrees>36.746322847902774810791015625</LatitudeDegrees>
              <LongitudeDegrees>-3.8935826160013675689697265625</LongitudeDegrees>
            </Position>
            <AltitudeMeters>11.80000019073486328125</AltitudeMeters>
            <DistanceMeters>56114.640903763</DistanceMeters>
          </Trackpoint>
          <Trackpoint>
            <Time>2021-03-13T10:40:16.000Z</Time>
            <Position>
              <LatitudeDegrees>36.74627297557890415191650390625</LatitudeDegrees>
              <LongitudeDegrees>-3.89389568008482456207275390625</LongitudeDegrees>
            </Position>
            <AltitudeMeters>11</AltitudeMeters>
            <DistanceMeters>56143.108027261</DistanceMeters>
          </Trackpoint>
          <Trackpoint>
            <Time>2021-03-13T10:40:21.000Z</Time>
            <Position>
              <LatitudeDegrees>36.74620994366705417633056640625</LatitudeDegrees>
              <LongitudeDegrees>-3.8942980952560901641845703125</LongitudeDegrees>
            </Position>
            <AltitudeMeters>10.3999996185302734375</AltitudeMeters>
            <DistanceMeters>56179.676894905</DistanceMeters>
          </Trackpoint>
          <Trackpoint>
            <Time>2021-03-13T10:40:25.000Z</Time>
            <Position>
              <LatitudeDegrees>36.74615881405770778656005859375</LatitudeDegrees>
              <LongitudeDegrees>-3.894608058035373687744140625</LongitudeDegrees>
            </Position>
            <AltitudeMeters>10</AltitudeMeters>
            <DistanceMeters>56207.90062895</DistanceMeters>
          </Trackpoint>
          <Trackpoint>
            <Time>2021-03-13T10:40:27.000Z</Time>
            <Position>
              <LatitudeDegrees>36.746130399405956268310546875</LatitudeDegrees>
              <LongitudeDegrees>-3.89476220123469829559326171875</LongitudeDegrees>
            </Position>
            <AltitudeMeters>9.6000003814697265625</AltitudeMeters>
            <DistanceMeters>56222.007215872</DistanceMeters>
          </Trackpoint>
          <Trackpoint>
            <Time>2021-03-13T10:40:29.000Z</Time>
            <Position>
              <LatitudeDegrees>36.7461054213345050811767578125</LatitudeDegrees>
              <LongitudeDegrees>-3.89491860754787921905517578125</LongitudeDegrees>
            </Position>
            <AltitudeMeters>9</AltitudeMeters>
            <DistanceMeters>56236.230781974</DistanceMeters>
          </Trackpoint>
          <Trackpoint>
            <Time>2021-03-13T10:40:32.000Z</Time>
            <Position>
              <LatitudeDegrees>36.746067367494106292724609375</LatitudeDegrees>
              <LongitudeDegrees>-3.89514743350446224212646484375</LongitudeDegrees>
            </Position>
            <AltitudeMeters>8.3999996185302734375</AltitudeMeters>
            <DistanceMeters>56257.073500548</DistanceMeters>
          </Trackpoint>
          <Trackpoint>
            <Time>2021-03-13T10:40:34.000Z</Time>
            <Position>
              <LatitudeDegrees>36.74603844992816448211669921875</LatitudeDegrees>
              <LongitudeDegrees>-3.895299732685089111328125</LongitudeDegrees>
            </Position>
            <AltitudeMeters>8.19999980926513671875</AltitudeMeters>
            <DistanceMeters>56271.03240414</DistanceMeters>
          </Trackpoint>
          <Trackpoint>
            <Time>2021-03-13T10:40:38.000Z</Time>
            <Position>
              <LatitudeDegrees>36.74598430283367633819580078125</LatitudeDegrees>
              <LongitudeDegrees>-3.895633332431316375732421875</LongitudeDegrees>
            </Position>
            <AltitudeMeters>8</AltitudeMeters>
            <DistanceMeters>56301.388940522</DistanceMeters>
          </Trackpoint>
          <Trackpoint>
            <Time>2021-03-13T10:40:39.000Z</Time>
            <Position>
              <LatitudeDegrees>36.74597256816923618316650390625</LatitudeDegrees>
              <LongitudeDegrees>-3.8957226835191249847412109375</LongitudeDegrees>
            </Position>
            <AltitudeMeters>7.80000019073486328125</AltitudeMeters>
            <DistanceMeters>56309.464534128</DistanceMeters>
          </Trackpoint>
          <Trackpoint>
            <Time>2021-03-13T10:40:43.000Z</Time>
            <Position>
              <LatitudeDegrees>36.74591875635087490081787109375</LatitudeDegrees>
              <LongitudeDegrees>-3.8960787467658519744873046875</LongitudeDegrees>
            </Position>
            <AltitudeMeters>7</AltitudeMeters>
            <DistanceMeters>56341.780324085</DistanceMeters>
          </Trackpoint>
          <Trackpoint>
            <Time>2021-03-13T10:40:45.000Z</Time>
            <Position>
              <LatitudeDegrees>36.745890341699123382568359375</LatitudeDegrees>
              <LongitudeDegrees>-3.8962581194937229156494140625</LongitudeDegrees>
            </Position>
            <AltitudeMeters>6.599999904632568359375</AltitudeMeters>
            <DistanceMeters>56358.087583855</DistanceMeters>
          </Trackpoint>
          <Trackpoint>
            <Time>2021-03-13T10:40:46.000Z</Time>
            <Position>
              <LatitudeDegrees>36.7458759248256683349609375</LatitudeDegrees>
              <LongitudeDegrees>-3.89634705148637294769287109375</LongitudeDegrees>
            </Position>
            <AltitudeMeters>6.400000095367431640625</AltitudeMeters>
            <DistanceMeters>56366.179932981</DistanceMeters>
          </Trackpoint>
          <Trackpoint>
            <Time>2021-03-13T10:40:50.000Z</Time>
            <Position>
              <LatitudeDegrees>36.7458195984363555908203125</LatitudeDegrees>
              <LongitudeDegrees>-3.8967016898095607757568359375</LongitudeDegrees>
            </Position>
            <AltitudeMeters>6</AltitudeMeters>
            <DistanceMeters>56398.423968885</DistanceMeters>
          </Trackpoint>
          <Trackpoint>
            <Time>2021-03-13T10:40:52.000Z</Time>
            <Position>
              <LatitudeDegrees>36.745789758861064910888671875</LatitudeDegrees>
              <LongitudeDegrees>-3.89687611721456050872802734375</LongitudeDegrees>
            </Position>
            <AltitudeMeters>6</AltitudeMeters>
            <DistanceMeters>56414.331225157</DistanceMeters>
          </Trackpoint>
          <Trackpoint>
            <Time>2021-03-13T10:40:54.000Z</Time>
            <Position>
              <LatitudeDegrees>36.7457610927522182464599609375</LatitudeDegrees>
              <LongitudeDegrees>-3.89704576693475246429443359375</LongitudeDegrees>
            </Position>
            <AltitudeMeters>6</AltitudeMeters>
            <DistanceMeters>56429.794322976</DistanceMeters>
          </Trackpoint>
          <Trackpoint>
            <Time>2021-03-13T10:40:56.000Z</Time>
            <Position>
              <LatitudeDegrees>36.74573133699595928192138671875</LatitudeDegrees>
              <LongitudeDegrees>-3.89721943996846675872802734375</LongitudeDegrees>
            </Position>
            <AltitudeMeters>5.80000019073486328125</AltitudeMeters>
            <DistanceMeters>56445.633882437</DistanceMeters>
          </Trackpoint>
          <Trackpoint>
            <Time>2021-03-13T10:41:04.000Z</Time>
            <Position>
              <LatitudeDegrees>36.7456152476370334625244140625</LatitudeDegrees>
              <LongitudeDegrees>-3.89789678156375885009765625</LongitudeDegrees>
            </Position>
            <AltitudeMeters>6</AltitudeMeters>
            <DistanceMeters>56507.409725503</DistanceMeters>
          </Trackpoint>
          <Trackpoint>
            <Time>2021-03-13T10:41:07.000Z</Time>
            <Position>
              <LatitudeDegrees>36.745574176311492919921875</LatitudeDegrees>
              <LongitudeDegrees>-3.89814631082117557525634765625</LongitudeDegrees>
            </Position>
            <AltitudeMeters>6.19999980926513671875</AltitudeMeters>
            <DistanceMeters>56530.129060872</DistanceMeters>
          </Trackpoint>
          <Trackpoint>
            <Time>2021-03-13T10:41:08.000Z</Time>
            <Position>
              <LatitudeDegrees>36.7455616034567356109619140625</LatitudeDegrees>
              <LongitudeDegrees>-3.89822795055806636810302734375</LongitudeDegrees>
            </Position>
            <AltitudeMeters>6.19999980926513671875</AltitudeMeters>
            <DistanceMeters>56537.543580775</DistanceMeters>
          </Trackpoint>
          <Trackpoint>
            <Time>2021-03-13T10:41:11.000Z</Time>
            <Position>
              <LatitudeDegrees>36.74551206640899181365966796875</LatitudeDegrees>
              <LongitudeDegrees>-3.8984848558902740478515625</LongitudeDegrees>
            </Position>
            <AltitudeMeters>6.599999904632568359375</AltitudeMeters>
            <DistanceMeters>56561.110205938</DistanceMeters>
          </Trackpoint>
          <Trackpoint>
            <Time>2021-03-13T10:41:13.000Z</Time>
            <Position>
              <LatitudeDegrees>36.74548633396625518798828125</LatitudeDegrees>
              <LongitudeDegrees>-3.89863313175737857818603515625</LongitudeDegrees>
            </Position>
            <AltitudeMeters>6.599999904632568359375</AltitudeMeters>
            <DistanceMeters>56574.641422808</DistanceMeters>
          </Trackpoint>
          <Trackpoint>
            <Time>2021-03-13T10:41:17.000Z</Time>
            <Position>
              <LatitudeDegrees>36.74542975611984729766845703125</LatitudeDegrees>
              <LongitudeDegrees>-3.89895751141011714935302734375</LongitudeDegrees>
            </Position>
            <AltitudeMeters>7</AltitudeMeters>
            <DistanceMeters>56604.249221798</DistanceMeters>
          </Trackpoint>
          <Trackpoint>
            <Time>2021-03-13T10:41:21.000Z</Time>
            <Position>
              <LatitudeDegrees>36.74538952298462390899658203125</LatitudeDegrees>
              <LongitudeDegrees>-3.89922489412128925323486328125</LongitudeDegrees>
            </Position>
            <AltitudeMeters>7.19999980926513671875</AltitudeMeters>
            <DistanceMeters>56628.513061023</DistanceMeters>
          </Trackpoint>
          <Trackpoint>
            <Time>2021-03-13T10:41:25.000Z</Time>
            <Position>
              <LatitudeDegrees>36.7453248985111713409423828125</LatitudeDegrees>
              <LongitudeDegrees>-3.89963041059672832489013671875</LongitudeDegrees>
            </Position>
            <AltitudeMeters>7.400000095367431640625</AltitudeMeters>
            <DistanceMeters>56665.388079275</DistanceMeters>
          </Trackpoint>
          <Trackpoint>
            <Time>2021-03-13T10:41:30.000Z</Time>
            <Position>
              <LatitudeDegrees>36.7452548258006572723388671875</LatitudeDegrees>
              <LongitudeDegrees>-3.900058306753635406494140625</LongitudeDegrees>
            </Position>
            <AltitudeMeters>7.599999904632568359375</AltitudeMeters>
            <DistanceMeters>56704.339528336</DistanceMeters>
          </Trackpoint>
          <Trackpoint>
            <Time>2021-03-13T10:41:32.000Z</Time>
            <Position>
              <LatitudeDegrees>36.74522641114890575408935546875</LatitudeDegrees>
              <LongitudeDegrees>-3.90023139305412769317626953125</LongitudeDegrees>
            </Position>
            <AltitudeMeters>7.599999904632568359375</AltitudeMeters>
            <DistanceMeters>56720.097353124</DistanceMeters>
          </Trackpoint>
          <Trackpoint>
            <Time>2021-03-13T10:41:33.000Z</Time>
            <Position>
              <LatitudeDegrees>36.7452119104564189910888671875</LatitudeDegrees>
              <LongitudeDegrees>-3.9003166370093822479248046875</LongitudeDegrees>
            </Position>
            <AltitudeMeters>7.80000019073486328125</AltitudeMeters>
            <DistanceMeters>56727.869818075</DistanceMeters>
          </Trackpoint>
          <Trackpoint>
            <Time>2021-03-13T10:41:40.000Z</Time>
            <Position>
              <LatitudeDegrees>36.74511208198964595794677734375</LatitudeDegrees>
              <LongitudeDegrees>-3.90090965665876865386962890625</LongitudeDegrees>
            </Position>
            <AltitudeMeters>7.80000019073486328125</AltitudeMeters>
            <DistanceMeters>56781.91387571</DistanceMeters>
          </Trackpoint>
          <Trackpoint>
            <Time>2021-03-13T10:41:48.000Z</Time>
            <Position>
              <LatitudeDegrees>36.74500915221869945526123046875</LatitudeDegrees>
              <LongitudeDegrees>-3.901565372943878173828125</LongitudeDegrees>
            </Position>
            <AltitudeMeters>8.19999980926513671875</AltitudeMeters>
            <DistanceMeters>56841.506764074</DistanceMeters>
          </Trackpoint>
          <Trackpoint>
            <Time>2021-03-13T10:41:50.000Z</Time>
            <Position>
              <LatitudeDegrees>36.74498551525175571441650390625</LatitudeDegrees>
              <LongitudeDegrees>-3.9017249643802642822265625</LongitudeDegrees>
            </Position>
            <AltitudeMeters>8.3999996185302734375</AltitudeMeters>
            <DistanceMeters>56855.981425855</DistanceMeters>
          </Trackpoint>
          <Trackpoint>
            <Time>2021-03-13T10:41:52.000Z</Time>
            <Position>
              <LatitudeDegrees>36.744960956275463104248046875</LatitudeDegrees>
              <LongitudeDegrees>-3.9018796943128108978271484375</LongitudeDegrees>
            </Position>
            <AltitudeMeters>8.80000019073486328125</AltitudeMeters>
            <DistanceMeters>56870.049552433</DistanceMeters>
          </Trackpoint>
          <Trackpoint>
            <Time>2021-03-13T10:41:58.000Z</Time>
            <Position>
              <LatitudeDegrees>36.74488627351820468902587890625</LatitudeDegrees>
              <LongitudeDegrees>-3.90232603065669536590576171875</LongitudeDegrees>
            </Position>
            <AltitudeMeters>9.80000019073486328125</AltitudeMeters>
            <DistanceMeters>56910.715657233</DistanceMeters>
          </Trackpoint>
          <Trackpoint>
            <Time>2021-03-13T10:41:59.000Z</Time>
            <Position>
              <LatitudeDegrees>36.7448754608631134033203125</LatitudeDegrees>
              <LongitudeDegrees>-3.90239878557622432708740234375</LongitudeDegrees>
            </Position>
            <AltitudeMeters>10</AltitudeMeters>
            <DistanceMeters>56917.315739715</DistanceMeters>
          </Trackpoint>
          <Trackpoint>
            <Time>2021-03-13T10:42:04.000Z</Time>
            <Position>
              <LatitudeDegrees>36.74481268040835857391357421875</LatitudeDegrees>
              <LongitudeDegrees>-3.90274613164365291595458984375</LongitudeDegrees>
            </Position>
            <AltitudeMeters>11</AltitudeMeters>
            <DistanceMeters>56949.072865806</DistanceMeters>
          </Trackpoint>
          <Trackpoint>
            <Time>2021-03-13T10:42:07.000Z</Time>
            <Position>
              <LatitudeDegrees>36.7447763867676258087158203125</LatitudeDegrees>
              <LongitudeDegrees>-3.90294495038688182830810546875</LongitudeDegrees>
            </Position>
            <AltitudeMeters>12</AltitudeMeters>
            <DistanceMeters>56967.259499359</DistanceMeters>
          </Trackpoint>
          <Trackpoint>
            <Time>2021-03-13T10:42:09.000Z</Time>
            <Position>
              <LatitudeDegrees>36.74474679864943027496337890625</LatitudeDegrees>
              <LongitudeDegrees>-3.90307218767702579498291015625</LongitudeDegrees>
            </Position>
            <AltitudeMeters>12.6000003814697265625</AltitudeMeters>
            <DistanceMeters>56979.075336693</DistanceMeters>
          </Trackpoint>
          <Trackpoint>
            <Time>2021-03-13T10:42:11.000Z</Time>
            <Position>
              <LatitudeDegrees>36.74470539204776287078857421875</LatitudeDegrees>
              <LongitudeDegrees>-3.90319355763494968414306640625</LongitudeDegrees>
            </Position>
            <AltitudeMeters>12.80000019073486328125</AltitudeMeters>
            <DistanceMeters>56990.840242631</DistanceMeters>
          </Trackpoint>
          <Trackpoint>
            <Time>2021-03-13T10:42:12.000Z</Time>
            <Position>
              <LatitudeDegrees>36.744682006537914276123046875</LatitudeDegrees>
              <LongitudeDegrees>-3.9032496325671672821044921875</LongitudeDegrees>
            </Position>
            <AltitudeMeters>13.19999980926513671875</AltitudeMeters>
            <DistanceMeters>56996.478138434</DistanceMeters>
          </Trackpoint>
          <Trackpoint>
            <Time>2021-03-13T10:42:15.000Z</Time>
            <Position>
              <LatitudeDegrees>36.74459089525043964385986328125</LatitudeDegrees>
              <LongitudeDegrees>-3.903423137962818145751953125</LongitudeDegrees>
            </Position>
            <AltitudeMeters>14.3999996185302734375</AltitudeMeters>
            <DistanceMeters>57014.979573723</DistanceMeters>
          </Trackpoint>
          <Trackpoint>
            <Time>2021-03-13T10:42:16.000Z</Time>
            <Position>
              <LatitudeDegrees>36.7445648275315761566162109375</LatitudeDegrees>
              <LongitudeDegrees>-3.903463371098041534423828125</LongitudeDegrees>
            </Position>
            <AltitudeMeters>14.3999996185302734375</AltitudeMeters>
            <DistanceMeters>57019.593998959</DistanceMeters>
          </Trackpoint>
          <Trackpoint>
            <Time>2021-03-13T10:42:19.000Z</Time>
            <Position>
              <LatitudeDegrees>36.74445862881839275360107421875</LatitudeDegrees>
              <LongitudeDegrees>-3.90360108576714992523193359375</LongitudeDegrees>
            </Position>
            <AltitudeMeters>15.6000003814697265625</AltitudeMeters>
            <DistanceMeters>57036.640107013</DistanceMeters>
          </Trackpoint>
          <Trackpoint>
            <Time>2021-03-13T10:42:22.000Z</Time>
            <Position>
              <LatitudeDegrees>36.74436978064477443695068359375</LatitudeDegrees>
              <LongitudeDegrees>-3.90375363640487194061279296875</LongitudeDegrees>
            </Position>
            <AltitudeMeters>16.6000003814697265625</AltitudeMeters>
            <DistanceMeters>57053.460103892</DistanceMeters>
          </Trackpoint>
          <Trackpoint>
            <Time>2021-03-13T10:42:24.000Z</Time>
            <Position>
              <LatitudeDegrees>36.74431261606514453887939453125</LatitudeDegrees>
              <LongitudeDegrees>-3.90386930666863918304443359375</LongitudeDegrees>
            </Position>
            <AltitudeMeters>17</AltitudeMeters>
            <DistanceMeters>57065.580760378</DistanceMeters>
          </Trackpoint>
          <Trackpoint>
            <Time>2021-03-13T10:42:26.000Z</Time>
            <Position>
              <LatitudeDegrees>36.74424438737332820892333984375</LatitudeDegrees>
              <LongitudeDegrees>-3.903925381600856781005859375</LongitudeDegrees>
            </Position>
            <AltitudeMeters>17.3999996185302734375</AltitudeMeters>
            <DistanceMeters>57074.673580619</DistanceMeters>
          </Trackpoint>
          <Trackpoint>
            <Time>2021-03-13T10:42:29.000Z</Time>
            <Position>
              <LatitudeDegrees>36.74410508014261722564697265625</LatitudeDegrees>
              <LongitudeDegrees>-3.90398246236145496368408203125</LongitudeDegrees>
            </Position>
            <AltitudeMeters>17.6000003814697265625</AltitudeMeters>
            <DistanceMeters>57090.993294913</DistanceMeters>
          </Trackpoint>
          <Trackpoint>
            <Time>2021-03-13T10:42:30.000Z</Time>
            <Position>
              <LatitudeDegrees>36.7440645955502986907958984375</LatitudeDegrees>
              <LongitudeDegrees>-3.9040113799273967742919921875</LongitudeDegrees>
            </Position>
            <AltitudeMeters>17.6000003814697265625</AltitudeMeters>
            <DistanceMeters>57096.18422432</DistanceMeters>
          </Trackpoint>
          <Trackpoint>
            <Time>2021-03-13T10:42:37.000Z</Time>
            <Position>
              <LatitudeDegrees>36.7438094504177570343017578125</LatitudeDegrees>
              <LongitudeDegrees>-3.90430248342454433441162109375</LongitudeDegrees>
            </Position>
            <AltitudeMeters>18.799999237060546875</AltitudeMeters>
            <DistanceMeters>57134.661830578</DistanceMeters>
          </Trackpoint>
          <Trackpoint>
            <Time>2021-03-13T10:42:44.000Z</Time>
            <Position>
              <LatitudeDegrees>36.743624545633792877197265625</LatitudeDegrees>
              <LongitudeDegrees>-3.90464614145457744598388671875</LongitudeDegrees>
            </Position>
            <AltitudeMeters>19.799999237060546875</AltitudeMeters>
            <DistanceMeters>57171.58065692</DistanceMeters>
          </Trackpoint>
          <Trackpoint>
            <Time>2021-03-13T10:42:45.000Z</Time>
            <Position>
              <LatitudeDegrees>36.743603087961673736572265625</LatitudeDegrees>
              <LongitudeDegrees>-3.904700540006160736083984375</LongitudeDegrees>
            </Position>
            <AltitudeMeters>20</AltitudeMeters>
            <DistanceMeters>57176.988837538</DistanceMeters>
          </Trackpoint>
          <Trackpoint>
            <Time>2021-03-13T10:42:49.000Z</Time>
            <Position>
              <LatitudeDegrees>36.74353636801242828369140625</LatitudeDegrees>
              <LongitudeDegrees>-3.90493162907660007476806640625</LongitudeDegrees>
            </Position>
            <AltitudeMeters>21</AltitudeMeters>
            <DistanceMeters>57198.896153733</DistanceMeters>
          </Trackpoint>
          <Trackpoint>
            <Time>2021-03-13T10:42:53.000Z</Time>
            <Position>
              <LatitudeDegrees>36.74350191839039325714111328125</LatitudeDegrees>
              <LongitudeDegrees>-3.9051716029644012451171875</LongitudeDegrees>
            </Position>
            <AltitudeMeters>21.200000762939453125</AltitudeMeters>
            <DistanceMeters>57220.639628209</DistanceMeters>
          </Trackpoint>
          <Trackpoint>
            <Time>2021-03-13T10:43:00.000Z</Time>
            <Position>
              <LatitudeDegrees>36.74349454231560230255126953125</LatitudeDegrees>
              <LongitudeDegrees>-3.90558063983917236328125</LongitudeDegrees>
            </Position>
            <AltitudeMeters>22</AltitudeMeters>
            <DistanceMeters>57257.130381455</DistanceMeters>
          </Trackpoint>
          <Trackpoint>
            <Time>2021-03-13T10:43:01.000Z</Time>
            <Position>
              <LatitudeDegrees>36.74349906854331493377685546875</LatitudeDegrees>
              <LongitudeDegrees>-3.90564241446554660797119140625</LongitudeDegrees>
            </Position>
            <AltitudeMeters>22.200000762939453125</AltitudeMeters>
            <DistanceMeters>57262.662372874</DistanceMeters>
          </Trackpoint>
          <Trackpoint>
            <Time>2021-03-13T10:43:10.000Z</Time>
            <Position>
              <LatitudeDegrees>36.743570901453495025634765625</LatitudeDegrees>
              <LongitudeDegrees>-3.90623954124748706817626953125</LongitudeDegrees>
            </Position>
            <AltitudeMeters>22.799999237060546875</AltitudeMeters>
            <DistanceMeters>57316.516117144</DistanceMeters>
          </Trackpoint>
          <Trackpoint>
            <Time>2021-03-13T10:43:17.000Z</Time>
            <Position>
              <LatitudeDegrees>36.743562519550323486328125</LatitudeDegrees>
              <LongitudeDegrees>-3.9067371748387813568115234375</LongitudeDegrees>
            </Position>
            <AltitudeMeters>22.799999237060546875</AltitudeMeters>
            <DistanceMeters>57360.909359912</DistanceMeters>
          </Trackpoint>
          <Trackpoint>
            <Time>2021-03-13T10:43:22.000Z</Time>
            <Position>
              <LatitudeDegrees>36.743482388556003570556640625</LatitudeDegrees>
              <LongitudeDegrees>-3.90710170380771160125732421875</LongitudeDegrees>
            </Position>
            <AltitudeMeters>22.3999996185302734375</AltitudeMeters>
            <DistanceMeters>57394.622556166</DistanceMeters>
          </Trackpoint>
          <Trackpoint>
            <Time>2021-03-13T10:43:24.000Z</Time>
            <Position>
              <LatitudeDegrees>36.74344961531460285186767578125</LatitudeDegrees>
              <LongitudeDegrees>-3.90724503435194492340087890625</LongitudeDegrees>
            </Position>
            <AltitudeMeters>22.200000762939453125</AltitudeMeters>
            <DistanceMeters>57407.916110845</DistanceMeters>
          </Trackpoint>
          <Trackpoint>
            <Time>2021-03-13T10:43:25.000Z</Time>
            <Position>
              <LatitudeDegrees>36.74343922175467014312744140625</LatitudeDegrees>
              <LongitudeDegrees>-3.90731996856629848480224609375</LongitudeDegrees>
            </Position>
            <AltitudeMeters>22.200000762939453125</AltitudeMeters>
            <DistanceMeters>57414.698382545</DistanceMeters>
          </Trackpoint>
          <Trackpoint>
            <Time>2021-03-13T10:43:27.000Z</Time>
            <Position>
              <LatitudeDegrees>36.7434366233646869659423828125</LatitudeDegrees>
              <LongitudeDegrees>-3.90747788362205028533935546875</LongitudeDegrees>
            </Position>
            <AltitudeMeters>22</AltitudeMeters>
            <DistanceMeters>57428.785431914</DistanceMeters>
          </Trackpoint>
          <Trackpoint>
            <Time>2021-03-13T10:43:28.000Z</Time>
            <Position>
              <LatitudeDegrees>36.74344676546752452850341796875</LatitudeDegrees>
              <LongitudeDegrees>-3.90755809843540191650390625</LongitudeDegrees>
            </Position>
            <AltitudeMeters>22</AltitudeMeters>
            <DistanceMeters>57436.028063622</DistanceMeters>
          </Trackpoint>
          <Trackpoint>
            <Time>2021-03-13T10:43:30.000Z</Time>
            <Position>
              <LatitudeDegrees>36.74346939660608768463134765625</LatitudeDegrees>
              <LongitudeDegrees>-3.90771743841469287872314453125</LongitudeDegrees>
            </Position>
            <AltitudeMeters>22</AltitudeMeters>
            <DistanceMeters>57450.460866656</DistanceMeters>
          </Trackpoint>
          <Trackpoint>
            <Time>2021-03-13T10:43:32.000Z</Time>
            <Position>
              <LatitudeDegrees>36.74345782957971096038818359375</LatitudeDegrees>
              <LongitudeDegrees>-3.9078779518604278564453125</LongitudeDegrees>
            </Position>
            <AltitudeMeters>22</AltitudeMeters>
            <DistanceMeters>57464.834737013</DistanceMeters>
          </Trackpoint>
          <Trackpoint>
            <Time>2021-03-13T10:43:33.000Z</Time>
            <Position>
              <LatitudeDegrees>36.74343301914632320404052734375</LatitudeDegrees>
              <LongitudeDegrees>-3.90795431099832057952880859375</LongitudeDegrees>
            </Position>
            <AltitudeMeters>22.200000762939453125</AltitudeMeters>
            <DistanceMeters>57472.183196521</DistanceMeters>
          </Trackpoint>
          <Trackpoint>
            <Time>2021-03-13T10:43:34.000Z</Time>
            <Position>
              <LatitudeDegrees>36.7433975636959075927734375</LatitudeDegrees>
              <LongitudeDegrees>-3.908025138080120086669921875</LongitudeDegrees>
            </Position>
            <AltitudeMeters>22.200000762939453125</AltitudeMeters>
            <DistanceMeters>57479.63113312</DistanceMeters>
          </Trackpoint>
          <Trackpoint>
            <Time>2021-03-13T10:43:37.000Z</Time>
            <Position>
              <LatitudeDegrees>36.74326119013130664825439453125</LatitudeDegrees>
              <LongitudeDegrees>-3.90822655521333217620849609375</LongitudeDegrees>
            </Position>
            <AltitudeMeters>22.200000762939453125</AltitudeMeters>
            <DistanceMeters>57503.149045064</DistanceMeters>
          </Trackpoint>
          <Trackpoint>
            <Time>2021-03-13T10:43:42.000Z</Time>
            <Position>
              <LatitudeDegrees>36.74305750988423824310302734375</LatitudeDegrees>
              <LongitudeDegrees>-3.9086073450744152069091796875</LongitudeDegrees>
            </Position>
            <AltitudeMeters>21.6000003814697265625</AltitudeMeters>
            <DistanceMeters>57543.98256714</DistanceMeters>
          </Trackpoint>
          <Trackpoint>
            <Time>2021-03-13T10:43:45.000Z</Time>
            <Position>
              <LatitudeDegrees>36.742972433567047119140625</LatitudeDegrees>
              <LongitudeDegrees>-3.90887162648141384124755859375</LongitudeDegrees>
            </Position>
            <AltitudeMeters>20.6000003814697265625</AltitudeMeters>
            <DistanceMeters>57569.38457833</DistanceMeters>
          </Trackpoint>
          <Trackpoint>
            <Time>2021-03-13T10:43:48.000Z</Time>
            <Position>
              <LatitudeDegrees>36.74291417934000492095947265625</LatitudeDegrees>
              <LongitudeDegrees>-3.90915107913315296173095703125</LongitudeDegrees>
            </Position>
            <AltitudeMeters>19.799999237060546875</AltitudeMeters>
            <DistanceMeters>57595.138045177</DistanceMeters>
          </Trackpoint>
          <Trackpoint>
            <Time>2021-03-13T10:43:49.000Z</Time>
            <Position>
              <LatitudeDegrees>36.7428986728191375732421875</LatitudeDegrees>
              <LongitudeDegrees>-3.90924529172480106353759765625</LongitudeDegrees>
            </Position>
            <AltitudeMeters>19.3999996185302734375</AltitudeMeters>
            <DistanceMeters>57603.715752497</DistanceMeters>
          </Trackpoint>
          <Trackpoint>
            <Time>2021-03-13T10:43:52.000Z</Time>
            <Position>
              <LatitudeDegrees>36.74287386238574981689453125</LatitudeDegrees>
              <LongitudeDegrees>-3.9095427654683589935302734375</LongitudeDegrees>
            </Position>
            <AltitudeMeters>18.3999996185302734375</AltitudeMeters>
            <DistanceMeters>57630.390683868</DistanceMeters>
          </Trackpoint>
          <Trackpoint>
            <Time>2021-03-13T10:43:53.000Z</Time>
            <Position>
              <LatitudeDegrees>36.74287042580544948577880859375</LatitudeDegrees>
              <LongitudeDegrees>-3.9096446894109249114990234375</LongitudeDegrees>
            </Position>
            <AltitudeMeters>18.200000762939453125</AltitudeMeters>
            <DistanceMeters>57639.489460754</DistanceMeters>
          </Trackpoint>
          <Trackpoint>
            <Time>2021-03-13T10:43:54.000Z</Time>
            <Position>
              <LatitudeDegrees>36.74287386238574981689453125</LatitudeDegrees>
              <LongitudeDegrees>-3.90974720008671283721923828125</LongitudeDegrees>
            </Position>
            <AltitudeMeters>17.6000003814697265625</AltitudeMeters>
            <DistanceMeters>57648.640686298</DistanceMeters>
          </Trackpoint>
          <Trackpoint>
            <Time>2021-03-13T10:43:57.000Z</Time>
            <Position>
              <LatitudeDegrees>36.7428998462855815887451171875</LatitudeDegrees>
              <LongitudeDegrees>-3.910068310797214508056640625</LongitudeDegrees>
            </Position>
            <AltitudeMeters>17</AltitudeMeters>
            <DistanceMeters>57677.426096048</DistanceMeters>
          </Trackpoint>
          <Trackpoint>
            <Time>2021-03-13T10:44:02.000Z</Time>
            <Position>
              <LatitudeDegrees>36.74295826815068721771240234375</LatitudeDegrees>
              <LongitudeDegrees>-3.91063216142356395721435546875</LongitudeDegrees>
            </Position>
            <AltitudeMeters>15.6000003814697265625</AltitudeMeters>
            <DistanceMeters>57728.134224267</DistanceMeters>
          </Trackpoint>
          <Trackpoint>
            <Time>2021-03-13T10:44:03.000Z</Time>
            <Position>
              <LatitudeDegrees>36.74296799115836620330810546875</LatitudeDegrees>
              <LongitudeDegrees>-3.91074984334409236907958984375</LongitudeDegrees>
            </Position>
            <AltitudeMeters>15.19999980926513671875</AltitudeMeters>
            <DistanceMeters>57738.685613392</DistanceMeters>
          </Trackpoint>
          <Trackpoint>
            <Time>2021-03-13T10:44:05.000Z</Time>
            <Position>
              <LatitudeDegrees>36.74298995174467563629150390625</LatitudeDegrees>
              <LongitudeDegrees>-3.91099342145025730133056640625</LongitudeDegrees>
            </Position>
            <AltitudeMeters>14.19999980926513671875</AltitudeMeters>
            <DistanceMeters>57760.547128113</DistanceMeters>
          </Trackpoint>
          <Trackpoint>
            <Time>2021-03-13T10:44:07.000Z</Time>
            <Position>
              <LatitudeDegrees>36.7430158518254756927490234375</LatitudeDegrees>
              <LongitudeDegrees>-3.91124051995575428009033203125</LongitudeDegrees>
            </Position>
            <AltitudeMeters>13.3999996185302734375</AltitudeMeters>
            <DistanceMeters>57782.77342767</DistanceMeters>
          </Trackpoint>
          <Trackpoint>
            <Time>2021-03-13T10:44:08.000Z</Time>
            <Position>
              <LatitudeDegrees>36.74302884377539157867431640625</LatitudeDegrees>
              <LongitudeDegrees>-3.911366499960422515869140625</LongitudeDegrees>
            </Position>
            <AltitudeMeters>13.19999980926513671875</AltitudeMeters>
            <DistanceMeters>57794.102349794</DistanceMeters>
          </Trackpoint>
          <Trackpoint>
            <Time>2021-03-13T10:44:12.000Z</Time>
            <Position>
              <LatitudeDegrees>36.74306455068290233612060546875</LatitudeDegrees>
              <LongitudeDegrees>-3.91187687404453754425048828125</LongitudeDegrees>
            </Position>
            <AltitudeMeters>11.3999996185302734375</AltitudeMeters>
            <DistanceMeters>57839.795478761</DistanceMeters>
          </Trackpoint>
          <Trackpoint>
            <Time>2021-03-13T10:44:14.000Z</Time>
            <Position>
              <LatitudeDegrees>36.7430641315877437591552734375</LatitudeDegrees>
              <LongitudeDegrees>-3.9121032692492008209228515625</LongitudeDegrees>
            </Position>
            <AltitudeMeters>10.6000003814697265625</AltitudeMeters>
            <DistanceMeters>57859.987258065</DistanceMeters>
          </Trackpoint>
          <Trackpoint>
            <Time>2021-03-13T10:44:15.000Z</Time>
            <Position>
              <LatitudeDegrees>36.7430554144084453582763671875</LatitudeDegrees>
              <LongitudeDegrees>-3.91225397586822509765625</LongitudeDegrees>
            </Position>
            <AltitudeMeters>9.3999996185302734375</AltitudeMeters>
            <DistanceMeters>57873.463305978</DistanceMeters>
          </Trackpoint>
          <Trackpoint>
            <Time>2021-03-13T10:44:17.000Z</Time>
            <Position>
              <LatitudeDegrees>36.74302280880510807037353515625</LatitudeDegrees>
              <LongitudeDegrees>-3.9124774374067783355712890625</LongitudeDegrees>
            </Position>
            <AltitudeMeters>8.3999996185302734375</AltitudeMeters>
            <DistanceMeters>57893.721610799</DistanceMeters>
          </Trackpoint>
          <Trackpoint>
            <Time>2021-03-13T10:44:18.000Z</Time>
            <Position>
              <LatitudeDegrees>36.74299858510494232177734375</LatitudeDegrees>
              <LongitudeDegrees>-3.912600986659526824951171875</LongitudeDegrees>
            </Position>
            <AltitudeMeters>8</AltitudeMeters>
            <DistanceMeters>57905.066065369</DistanceMeters>
          </Trackpoint>
          <Trackpoint>
            <Time>2021-03-13T10:44:22.000Z</Time>
            <Position>
              <LatitudeDegrees>36.7428458668291568756103515625</LatitudeDegrees>
              <LongitudeDegrees>-3.91307917423546314239501953125</LongitudeDegrees>
            </Position>
            <AltitudeMeters>7.19999980926513671875</AltitudeMeters>
            <DistanceMeters>57950.977836673</DistanceMeters>
          </Trackpoint>
          <Trackpoint>
            <Time>2021-03-13T10:44:23.000Z</Time>
            <Position>
              <LatitudeDegrees>36.74278610385954380035400390625</LatitudeDegrees>
              <LongitudeDegrees>-3.9132120274007320404052734375</LongitudeDegrees>
            </Position>
            <AltitudeMeters>6.80000019073486328125</AltitudeMeters>
            <DistanceMeters>57964.566324563</DistanceMeters>
          </Trackpoint>
          <Trackpoint>
            <Time>2021-03-13T10:44:26.000Z</Time>
            <Position>
              <LatitudeDegrees>36.74261058680713176727294921875</LatitudeDegrees>
              <LongitudeDegrees>-3.91351704485714435577392578125</LongitudeDegrees>
            </Position>
            <AltitudeMeters>5.80000019073486328125</AltitudeMeters>
            <DistanceMeters>57998.058354896</DistanceMeters>
          </Trackpoint>
          <Trackpoint>
            <Time>2021-03-13T10:44:27.000Z</Time>
            <Position>
              <LatitudeDegrees>36.74254604615271091461181640625</LatitudeDegrees>
              <LongitudeDegrees>-3.91361452639102935791015625</LongitudeDegrees>
            </Position>
            <AltitudeMeters>5.599999904632568359375</AltitudeMeters>
            <DistanceMeters>58009.336548758</DistanceMeters>
          </Trackpoint>
          <Trackpoint>
            <Time>2021-03-13T10:44:32.000Z</Time>
            <Position>
              <LatitudeDegrees>36.74223147332668304443359375</LatitudeDegrees>
              <LongitudeDegrees>-3.91409656964242458343505859375</LongitudeDegrees>
            </Position>
            <AltitudeMeters>5.19999980926513671875</AltitudeMeters>
            <DistanceMeters>58064.783069078</DistanceMeters>
          </Trackpoint>
          <Trackpoint>
            <Time>2021-03-13T10:44:36.000Z</Time>
            <Position>
              <LatitudeDegrees>36.74201865680515766143798828125</LatitudeDegrees>
              <LongitudeDegrees>-3.91449605114758014678955078125</LongitudeDegrees>
            </Position>
            <AltitudeMeters>5</AltitudeMeters>
            <DistanceMeters>58107.568101935</DistanceMeters>
          </Trackpoint>
          <Trackpoint>
            <Time>2021-03-13T10:44:42.000Z</Time>
            <Position>
              <LatitudeDegrees>36.7417863942682743072509765625</LatitudeDegrees>
              <LongitudeDegrees>-3.915127627551555633544921875</LongitudeDegrees>
            </Position>
            <AltitudeMeters>5</AltitudeMeters>
            <DistanceMeters>58169.547377823</DistanceMeters>
          </Trackpoint>
          <Trackpoint>
            <Time>2021-03-13T10:44:43.000Z</Time>
            <Position>
              <LatitudeDegrees>36.7417585663497447967529296875</LatitudeDegrees>
              <LongitudeDegrees>-3.91521312296390533447265625</LongitudeDegrees>
            </Position>
            <AltitudeMeters>5</AltitudeMeters>
            <DistanceMeters>58177.776932692</DistanceMeters>
          </Trackpoint>
          <Trackpoint>
            <Time>2021-03-13T10:44:47.000Z</Time>
            <Position>
              <LatitudeDegrees>36.74160576425492763519287109375</LatitudeDegrees>
              <LongitudeDegrees>-3.91565828584134578704833984375</LongitudeDegrees>
            </Position>
            <AltitudeMeters>5</AltitudeMeters>
            <DistanceMeters>58220.970520572</DistanceMeters>
          </Trackpoint>
          <Trackpoint>
            <Time>2021-03-13T10:44:53.000Z</Time>
            <Position>
              <LatitudeDegrees>36.7414128966629505157470703125</LatitudeDegrees>
              <LongitudeDegrees>-3.9162811450660228729248046875</LongitudeDegrees>
            </Position>
            <AltitudeMeters>5</AltitudeMeters>
            <DistanceMeters>58280.527258202</DistanceMeters>
          </Trackpoint>
          <Trackpoint>
            <Time>2021-03-13T10:44:57.000Z</Time>
            <Position>
              <LatitudeDegrees>36.74134961329400539398193359375</LatitudeDegrees>
              <LongitudeDegrees>-3.91667760908603668212890625</LongitudeDegrees>
            </Position>
            <AltitudeMeters>5.19999980926513671875</AltitudeMeters>
            <DistanceMeters>58316.583103571</DistanceMeters>
          </Trackpoint>
          <Trackpoint>
            <Time>2021-03-13T10:45:04.000Z</Time>
            <Position>
              <LatitudeDegrees>36.74130435101687908172607421875</LatitudeDegrees>
              <LongitudeDegrees>-3.9173486642539501190185546875</LongitudeDegrees>
            </Position>
            <AltitudeMeters>5</AltitudeMeters>
            <DistanceMeters>58376.647053498</DistanceMeters>
          </Trackpoint>
          <Trackpoint>
            <Time>2021-03-13T10:45:11.000Z</Time>
            <Position>
              <LatitudeDegrees>36.74125649034976959228515625</LatitudeDegrees>
              <LongitudeDegrees>-3.9180497266352176666259765625</LongitudeDegrees>
            </Position>
            <AltitudeMeters>4.80000019073486328125</AltitudeMeters>
            <DistanceMeters>58439.40218053</DistanceMeters>
          </Trackpoint>
          <Trackpoint>
            <Time>2021-03-13T10:45:13.000Z</Time>
            <Position>
              <LatitudeDegrees>36.74123645760118961334228515625</LatitudeDegrees>
              <LongitudeDegrees>-3.918249048292636871337890625</LongitudeDegrees>
            </Position>
            <AltitudeMeters>4.400000095367431640625</AltitudeMeters>
            <DistanceMeters>58457.3191897</DistanceMeters>
          </Trackpoint>
          <Trackpoint>
            <Time>2021-03-13T10:45:20.000Z</Time>
            <Position>
              <LatitudeDegrees>36.74118918366730213165283203125</LatitudeDegrees>
              <LongitudeDegrees>-3.91896687448024749755859375</LongitudeDegrees>
            </Position>
            <AltitudeMeters>4.599999904632568359375</AltitudeMeters>
            <DistanceMeters>58521.559005741</DistanceMeters>
          </Trackpoint>
          <Trackpoint>
            <Time>2021-03-13T10:45:23.000Z</Time>
            <Position>
              <LatitudeDegrees>36.74117191694676876068115234375</LatitudeDegrees>
              <LongitudeDegrees>-3.91930625773966312408447265625</LongitudeDegrees>
            </Position>
            <AltitudeMeters>4.599999904632568359375</AltitudeMeters>
            <DistanceMeters>58551.890098007</DistanceMeters>
          </Trackpoint>
          <Trackpoint>
            <Time>2021-03-13T10:45:30.000Z</Time>
            <Position>
              <LatitudeDegrees>36.741127073764801025390625</LatitudeDegrees>
              <LongitudeDegrees>-3.92004637978971004486083984375</LongitudeDegrees>
            </Position>
            <AltitudeMeters>5</AltitudeMeters>
            <DistanceMeters>58618.091057219</DistanceMeters>
          </Trackpoint>
          <Trackpoint>
            <Time>2021-03-13T10:45:33.000Z</Time>
            <Position>
              <LatitudeDegrees>36.74110603518784046173095703125</LatitudeDegrees>
              <LongitudeDegrees>-3.92037511803209781646728515625</LongitudeDegrees>
            </Position>
            <AltitudeMeters>5.19999980926513671875</AltitudeMeters>
            <DistanceMeters>58647.505164111</DistanceMeters>
          </Trackpoint>
          <Trackpoint>
            <Time>2021-03-13T10:45:40.000Z</Time>
            <Position>
              <LatitudeDegrees>36.74102313816547393798828125</LatitudeDegrees>
              <LongitudeDegrees>-3.9210936985909938812255859375</LongitudeDegrees>
            </Position>
            <AltitudeMeters>5.19999980926513671875</AltitudeMeters>
            <DistanceMeters>58712.257206815</DistanceMeters>
          </Trackpoint>
          <Trackpoint>
            <Time>2021-03-13T10:45:41.000Z</Time>
            <Position>
              <LatitudeDegrees>36.74100327305495738983154296875</LatitudeDegrees>
              <LongitudeDegrees>-3.92119302414357662200927734375</LongitudeDegrees>
            </Position>
            <AltitudeMeters>5.19999980926513671875</AltitudeMeters>
            <DistanceMeters>58721.387686853</DistanceMeters>
          </Trackpoint>
          <Trackpoint>
            <Time>2021-03-13T10:45:47.000Z</Time>
            <Position>
              <LatitudeDegrees>36.74081266857683658599853515625</LatitudeDegrees>
              <LongitudeDegrees>-3.92179937101900577545166015625</LongitudeDegrees>
            </Position>
            <AltitudeMeters>5.19999980926513671875</AltitudeMeters>
            <DistanceMeters>58779.480961245</DistanceMeters>
          </Trackpoint>
          <Trackpoint>
            <Time>2021-03-13T10:45:51.000Z</Time>
            <Position>
              <LatitudeDegrees>36.7406590282917022705078125</LatitudeDegrees>
              <LongitudeDegrees>-3.9221300370991230010986328125</LongitudeDegrees>
            </Position>
            <AltitudeMeters>5.400000095367431640625</AltitudeMeters>
            <DistanceMeters>58813.572647606</DistanceMeters>
          </Trackpoint>
          <Trackpoint>
            <Time>2021-03-13T10:45:55.000Z</Time>
            <Position>
              <LatitudeDegrees>36.74046465195715427398681640625</LatitudeDegrees>
              <LongitudeDegrees>-3.922492973506450653076171875</LongitudeDegrees>
            </Position>
            <AltitudeMeters>5.599999904632568359375</AltitudeMeters>
            <DistanceMeters>58852.507633327</DistanceMeters>
          </Trackpoint>
          <Trackpoint>
            <Time>2021-03-13T10:46:01.000Z</Time>
            <Position>
              <LatitudeDegrees>36.74021000973880290985107421875</LatitudeDegrees>
              <LongitudeDegrees>-3.92297208309173583984375</LongitudeDegrees>
            </Position>
            <AltitudeMeters>6.599999904632568359375</AltitudeMeters>
            <DistanceMeters>58903.785090937</DistanceMeters>
          </Trackpoint>
          <Trackpoint>
            <Time>2021-03-13T10:46:03.000Z</Time>
            <Position>
              <LatitudeDegrees>36.74011655151844024658203125</LatitudeDegrees>
              <LongitudeDegrees>-3.92313846386969089508056640625</LongitudeDegrees>
            </Position>
            <AltitudeMeters>6.599999904632568359375</AltitudeMeters>
            <DistanceMeters>58921.907559871</DistanceMeters>
          </Trackpoint>
          <Trackpoint>
            <Time>2021-03-13T10:46:11.000Z</Time>
            <Position>
              <LatitudeDegrees>36.7397589795291423797607421875</LatitudeDegrees>
              <LongitudeDegrees>-3.92378454096615314483642578125</LongitudeDegrees>
            </Position>
            <AltitudeMeters>7.400000095367431640625</AltitudeMeters>
            <DistanceMeters>58991.940443218</DistanceMeters>
          </Trackpoint>
          <Trackpoint>
            <Time>2021-03-13T10:46:14.000Z</Time>
            <Position>
              <LatitudeDegrees>36.73964574001729488372802734375</LatitudeDegrees>
              <LongitudeDegrees>-3.92400003969669342041015625</LongitudeDegrees>
            </Position>
            <AltitudeMeters>7.400000095367431640625</AltitudeMeters>
            <DistanceMeters>59014.925124906</DistanceMeters>
          </Trackpoint>
          <Trackpoint>
            <Time>2021-03-13T10:46:21.000Z</Time>
            <Position>
              <LatitudeDegrees>36.73936444334685802459716796875</LatitudeDegrees>
              <LongitudeDegrees>-3.92452131025493144989013671875</LongitudeDegrees>
            </Position>
            <AltitudeMeters>7.599999904632568359375</AltitudeMeters>
            <DistanceMeters>59070.978080475</DistanceMeters>
          </Trackpoint>
          <Trackpoint>
            <Time>2021-03-13T10:46:28.000Z</Time>
            <Position>
              <LatitudeDegrees>36.73908197320997714996337890625</LatitudeDegrees>
              <LongitudeDegrees>-3.925018608570098876953125</LongitudeDegrees>
            </Position>
            <AltitudeMeters>8</AltitudeMeters>
            <DistanceMeters>59125.346151647</DistanceMeters>
          </Trackpoint>
          <Trackpoint>
            <Time>2021-03-13T10:46:32.000Z</Time>
            <Position>
              <LatitudeDegrees>36.7389013431966304779052734375</LatitudeDegrees>
              <LongitudeDegrees>-3.92528154887259006500244140625</LongitudeDegrees>
            </Position>
            <AltitudeMeters>8.3999996185302734375</AltitudeMeters>
            <DistanceMeters>59156.236704216</DistanceMeters>
          </Trackpoint>
          <Trackpoint>
            <Time>2021-03-13T10:46:35.000Z</Time>
            <Position>
              <LatitudeDegrees>36.73874770291149616241455078125</LatitudeDegrees>
              <LongitudeDegrees>-3.92547466792166233062744140625</LongitudeDegrees>
            </Position>
            <AltitudeMeters>8.3999996185302734375</AltitudeMeters>
            <DistanceMeters>59180.508729621</DistanceMeters>
          </Trackpoint>
          <Trackpoint>
            <Time>2021-03-13T10:46:39.000Z</Time>
            <Position>
              <LatitudeDegrees>36.7385134287178516387939453125</LatitudeDegrees>
              <LongitudeDegrees>-3.92570969648659229278564453125</LongitudeDegrees>
            </Position>
            <AltitudeMeters>9</AltitudeMeters>
            <DistanceMeters>59213.965691169</DistanceMeters>
          </Trackpoint>
          <Trackpoint>
            <Time>2021-03-13T10:46:42.000Z</Time>
            <Position>
              <LatitudeDegrees>36.7383169569075107574462890625</LatitudeDegrees>
              <LongitudeDegrees>-3.9258728921413421630859375</LongitudeDegrees>
            </Position>
            <AltitudeMeters>9.19999980926513671875</AltitudeMeters>
            <DistanceMeters>59240.235207189</DistanceMeters>
          </Trackpoint>
          <Trackpoint>
            <Time>2021-03-13T10:46:43.000Z</Time>
            <Position>
              <LatitudeDegrees>36.73825032077729701995849609375</LatitudeDegrees>
              <LongitudeDegrees>-3.92592561431229114532470703125</LongitudeDegrees>
            </Position>
            <AltitudeMeters>9.19999980926513671875</AltitudeMeters>
            <DistanceMeters>59249.017855593</DistanceMeters>
          </Trackpoint>
          <Trackpoint>
            <Time>2021-03-13T10:46:44.000Z</Time>
            <Position>
              <LatitudeDegrees>36.73818209208548069000244140625</LatitudeDegrees>
              <LongitudeDegrees>-3.925978504121303558349609375</LongitudeDegrees>
            </Position>
            <AltitudeMeters>9.3999996185302734375</AltitudeMeters>
            <DistanceMeters>59257.957945447</DistanceMeters>
          </Trackpoint>
          <Trackpoint>
            <Time>2021-03-13T10:46:50.000Z</Time>
            <Position>
              <LatitudeDegrees>36.73776987008750438690185546875</LatitudeDegrees>
              <LongitudeDegrees>-3.9263059012591838836669921875</LongitudeDegrees>
            </Position>
            <AltitudeMeters>10.19999980926513671875</AltitudeMeters>
            <DistanceMeters>59312.344034566</DistanceMeters>
          </Trackpoint>
          <Trackpoint>
            <Time>2021-03-13T10:46:51.000Z</Time>
            <Position>
              <LatitudeDegrees>36.7377094365656375885009765625</LatitudeDegrees>
              <LongitudeDegrees>-3.92636901699006557464599609375</LongitudeDegrees>
            </Position>
            <AltitudeMeters>10.19999980926513671875</AltitudeMeters>
            <DistanceMeters>59321.115365782</DistanceMeters>
          </Trackpoint>
          <Trackpoint>
            <Time>2021-03-13T10:46:54.000Z</Time>
            <Position>
              <LatitudeDegrees>36.73755906522274017333984375</LatitudeDegrees>
              <LongitudeDegrees>-3.92658594064414501190185546875</LongitudeDegrees>
            </Position>
            <AltitudeMeters>10.3999996185302734375</AltitudeMeters>
            <DistanceMeters>59346.698209262</DistanceMeters>
          </Trackpoint>
          <Trackpoint>
            <Time>2021-03-13T10:46:55.000Z</Time>
            <Position>
              <LatitudeDegrees>36.73751673661172389984130859375</LatitudeDegrees>
              <LongitudeDegrees>-3.92666523344814777374267578125</LongitudeDegrees>
            </Position>
            <AltitudeMeters>10.6000003814697265625</AltitudeMeters>
            <DistanceMeters>59355.196063186</DistanceMeters>
          </Trackpoint>
          <Trackpoint>
            <Time>2021-03-13T10:46:58.000Z</Time>
            <Position>
              <LatitudeDegrees>36.73741866834461688995361328125</LatitudeDegrees>
              <LongitudeDegrees>-3.92692104913294315338134765625</LongitudeDegrees>
            </Position>
            <AltitudeMeters>10.6000003814697265625</AltitudeMeters>
            <DistanceMeters>59380.490132573</DistanceMeters>
          </Trackpoint>
          <Trackpoint>
            <Time>2021-03-13T10:46:59.000Z</Time>
            <Position>
              <LatitudeDegrees>36.7373979650437831878662109375</LatitudeDegrees>
              <LongitudeDegrees>-3.9270083047449588775634765625</LongitudeDegrees>
            </Position>
            <AltitudeMeters>10.80000019073486328125</AltitudeMeters>
            <DistanceMeters>59388.606993896</DistanceMeters>
          </Trackpoint>
          <Trackpoint>
            <Time>2021-03-13T10:47:06.000Z</Time>
            <Position>
              <LatitudeDegrees>36.7373131401836872100830078125</LatitudeDegrees>
              <LongitudeDegrees>-3.92764876596629619598388671875</LongitudeDegrees>
            </Position>
            <AltitudeMeters>10.80000019073486328125</AltitudeMeters>
            <DistanceMeters>59446.508370314</DistanceMeters>
          </Trackpoint>
          <Trackpoint>
            <Time>2021-03-13T10:47:13.000Z</Time>
            <Position>
              <LatitudeDegrees>36.73723041079938411712646484375</LatitudeDegrees>
              <LongitudeDegrees>-3.92834831960499286651611328125</LongitudeDegrees>
            </Position>
            <AltitudeMeters>10.6000003814697265625</AltitudeMeters>
            <DistanceMeters>59509.581488499</DistanceMeters>
          </Trackpoint>
          <Trackpoint>
            <Time>2021-03-13T10:47:14.000Z</Time>
            <Position>
              <LatitudeDegrees>36.737209372222423553466796875</LatitudeDegrees>
              <LongitudeDegrees>-3.92844219692051410675048828125</LongitudeDegrees>
            </Position>
            <AltitudeMeters>10.6000003814697265625</AltitudeMeters>
            <DistanceMeters>59518.27578375</DistanceMeters>
          </Trackpoint>
          <Trackpoint>
            <Time>2021-03-13T10:47:21.000Z</Time>
            <Position>
              <LatitudeDegrees>36.73699068836867809295654296875</LatitudeDegrees>
              <LongitudeDegrees>-3.92908056266605854034423828125</LongitudeDegrees>
            </Position>
            <AltitudeMeters>10</AltitudeMeters>
            <DistanceMeters>59580.199670752</DistanceMeters>
          </Trackpoint>
          <Trackpoint>
            <Time>2021-03-13T10:47:25.000Z</Time>
            <Position>
              <LatitudeDegrees>36.736847944557666778564453125</LatitudeDegrees>
              <LongitudeDegrees>-3.92947099171578884124755859375</LongitudeDegrees>
            </Position>
            <AltitudeMeters>10</AltitudeMeters>
            <DistanceMeters>59618.477393823</DistanceMeters>
          </Trackpoint>
          <Trackpoint>
            <Time>2021-03-13T10:47:26.000Z</Time>
            <Position>
              <LatitudeDegrees>36.73681869171559810638427734375</LatitudeDegrees>
              <LongitudeDegrees>-3.92957341857254505157470703125</LongitudeDegrees>
            </Position>
            <AltitudeMeters>9.80000019073486328125</AltitudeMeters>
            <DistanceMeters>59628.176637938</DistanceMeters>
          </Trackpoint>
          <Trackpoint>
            <Time>2021-03-13T10:47:29.000Z</Time>
            <Position>
              <LatitudeDegrees>36.73674426041543483734130859375</LatitudeDegrees>
              <LongitudeDegrees>-3.92987131141126155853271484375</LongitudeDegrees>
            </Position>
            <AltitudeMeters>9.3999996185302734375</AltitudeMeters>
            <DistanceMeters>59656.009084969</DistanceMeters>
          </Trackpoint>
          <Trackpoint>
            <Time>2021-03-13T10:47:33.000Z</Time>
            <Position>
              <LatitudeDegrees>36.73665675334632396697998046875</LatitudeDegrees>
              <LongitudeDegrees>-3.93033131025731563568115234375</LongitudeDegrees>
            </Position>
            <AltitudeMeters>8.3999996185302734375</AltitudeMeters>
            <DistanceMeters>59698.179538305</DistanceMeters>
          </Trackpoint>
          <Trackpoint>
            <Time>2021-03-13T10:47:35.000Z</Time>
            <Position>
              <LatitudeDegrees>36.73662138171494007110595703125</LatitudeDegrees>
              <LongitudeDegrees>-3.93055628053843975067138671875</LongitudeDegrees>
            </Position>
            <AltitudeMeters>8</AltitudeMeters>
            <DistanceMeters>59718.628616034</DistanceMeters>
          </Trackpoint>
          <Trackpoint>
            <Time>2021-03-13T10:47:38.000Z</Time>
            <Position>
              <LatitudeDegrees>36.73656404949724674224853515625</LatitudeDegrees>
              <LongitudeDegrees>-3.9308778941631317138671875</LongitudeDegrees>
            </Position>
            <AltitudeMeters>7.599999904632568359375</AltitudeMeters>
            <DistanceMeters>59748.016616498</DistanceMeters>
          </Trackpoint>
          <Trackpoint>
            <Time>2021-03-13T10:47:41.000Z</Time>
            <Position>
              <LatitudeDegrees>36.73650227487087249755859375</LatitudeDegrees>
              <LongitudeDegrees>-3.9311863481998443603515625</LongitudeDegrees>
            </Position>
            <AltitudeMeters>7</AltitudeMeters>
            <DistanceMeters>59776.375683271</DistanceMeters>
          </Trackpoint>
          <Trackpoint>
            <Time>2021-03-13T10:47:42.000Z</Time>
            <Position>
              <LatitudeDegrees>36.736475788056850433349609375</LatitudeDegrees>
              <LongitudeDegrees>-3.93128651194274425506591796875</LongitudeDegrees>
            </Position>
            <AltitudeMeters>6.80000019073486328125</AltitudeMeters>
            <DistanceMeters>59785.783807914</DistanceMeters>
          </Trackpoint>
          <Trackpoint>
            <Time>2021-03-13T10:47:46.000Z</Time>
            <Position>
              <LatitudeDegrees>36.7363460361957550048828125</LatitudeDegrees>
              <LongitudeDegrees>-3.9316770248115062713623046875</LongitudeDegrees>
            </Position>
            <AltitudeMeters>6.19999980926513671875</AltitudeMeters>
            <DistanceMeters>59823.491576834</DistanceMeters>
          </Trackpoint>
          <Trackpoint>
            <Time>2021-03-13T10:47:48.000Z</Time>
            <Position>
              <LatitudeDegrees>36.73626624047756195068359375</LatitudeDegrees>
              <LongitudeDegrees>-3.93186285160481929779052734375</LongitudeDegrees>
            </Position>
            <AltitudeMeters>6.19999980926513671875</AltitudeMeters>
            <DistanceMeters>59842.296304791</DistanceMeters>
          </Trackpoint>
          <Trackpoint>
            <Time>2021-03-13T10:47:51.000Z</Time>
            <Position>
              <LatitudeDegrees>36.7361353151500225067138671875</LatitudeDegrees>
              <LongitudeDegrees>-3.932142890989780426025390625</LongitudeDegrees>
            </Position>
            <AltitudeMeters>6</AltitudeMeters>
            <DistanceMeters>59871.214731088</DistanceMeters>
          </Trackpoint>
          <Trackpoint>
            <Time>2021-03-13T10:47:55.000Z</Time>
            <Position>
              <LatitudeDegrees>36.73594680614769458770751953125</LatitudeDegrees>
              <LongitudeDegrees>-3.932490237057209014892578125</LongitudeDegrees>
            </Position>
            <AltitudeMeters>5.80000019073486328125</AltitudeMeters>
            <DistanceMeters>59908.633060991</DistanceMeters>
          </Trackpoint>
          <Trackpoint>
            <Time>2021-03-13T10:48:00.000Z</Time>
            <Position>
              <LatitudeDegrees>36.73574077896773815155029296875</LatitudeDegrees>
              <LongitudeDegrees>-3.93288577906787395477294921875</LongitudeDegrees>
            </Position>
            <AltitudeMeters>5.80000019073486328125</AltitudeMeters>
            <DistanceMeters>59950.71187299</DistanceMeters>
          </Trackpoint>
          <Trackpoint>
            <Time>2021-03-13T10:48:06.000Z</Time>
            <Position>
              <LatitudeDegrees>36.73552536405622959136962890625</LatitudeDegrees>
              <LongitudeDegrees>-3.93330269493162631988525390625</LongitudeDegrees>
            </Position>
            <AltitudeMeters>6.19999980926513671875</AltitudeMeters>
            <DistanceMeters>59994.959029665</DistanceMeters>
          </Trackpoint>
          <Trackpoint>
            <Time>2021-03-13T10:48:09.000Z</Time>
            <Position>
              <LatitudeDegrees>36.73543919809162616729736328125</LatitudeDegrees>
              <LongitudeDegrees>-3.933537304401397705078125</LongitudeDegrees>
            </Position>
            <AltitudeMeters>7</AltitudeMeters>
            <DistanceMeters>60017.978650554</DistanceMeters>
          </Trackpoint>
          <Trackpoint>
            <Time>2021-03-13T10:48:12.000Z</Time>
            <Position>
              <LatitudeDegrees>36.7353785969316959381103515625</LatitudeDegrees>
              <LongitudeDegrees>-3.93379957415163516998291015625</LongitudeDegrees>
            </Position>
            <AltitudeMeters>7.19999980926513671875</AltitudeMeters>
            <DistanceMeters>60042.325525879</DistanceMeters>
          </Trackpoint>
          <Trackpoint>
            <Time>2021-03-13T10:48:16.000Z</Time>
            <Position>
              <LatitudeDegrees>36.7353267967700958251953125</LatitudeDegrees>
              <LongitudeDegrees>-3.9341689646244049072265625</LongitudeDegrees>
            </Position>
            <AltitudeMeters>7.400000095367431640625</AltitudeMeters>
            <DistanceMeters>60075.774929337</DistanceMeters>
          </Trackpoint>
          <Trackpoint>
            <Time>2021-03-13T10:48:17.000Z</Time>
            <Position>
              <LatitudeDegrees>36.7352941073477268218994140625</LatitudeDegrees>
              <LongitudeDegrees>-3.93424431793391704559326171875</LongitudeDegrees>
            </Position>
            <AltitudeMeters>7.400000095367431640625</AltitudeMeters>
            <DistanceMeters>60083.417936894</DistanceMeters>
          </Trackpoint>
          <Trackpoint>
            <Time>2021-03-13T10:48:23.000Z</Time>
            <Position>
              <LatitudeDegrees>36.73501641489565372467041015625</LatitudeDegrees>
              <LongitudeDegrees>-3.93467447720468044281005859375</LongitudeDegrees>
            </Position>
            <AltitudeMeters>7.80000019073486328125</AltitudeMeters>
            <DistanceMeters>60132.687615907</DistanceMeters>
          </Trackpoint>
          <Trackpoint>
            <Time>2021-03-13T10:48:28.000Z</Time>
            <Position>
              <LatitudeDegrees>36.7348428256809711456298828125</LatitudeDegrees>
              <LongitudeDegrees>-3.9351196400821208953857421875</LongitudeDegrees>
            </Position>
            <AltitudeMeters>7.599999904632568359375</AltitudeMeters>
            <DistanceMeters>60176.846520873</DistanceMeters>
          </Trackpoint>
          <Trackpoint>
            <Time>2021-03-13T10:48:35.000Z</Time>
            <Position>
              <LatitudeDegrees>36.7346755228936672210693359375</LatitudeDegrees>
              <LongitudeDegrees>-3.93580888397991657257080078125</LongitudeDegrees>
            </Position>
            <AltitudeMeters>6.80000019073486328125</AltitudeMeters>
            <DistanceMeters>60241.084439215</DistanceMeters>
          </Trackpoint>
          <Trackpoint>
            <Time>2021-03-13T10:48:40.000Z</Time>
            <Position>
              <LatitudeDegrees>36.734537221491336822509765625</LatitudeDegrees>
              <LongitudeDegrees>-3.9363423921167850494384765625</LongitudeDegrees>
            </Position>
            <AltitudeMeters>6.400000095367431640625</AltitudeMeters>
            <DistanceMeters>60291.100457422</DistanceMeters>
          </Trackpoint>
          <Trackpoint>
            <Time>2021-03-13T10:48:42.000Z</Time>
            <Position>
              <LatitudeDegrees>36.7344760335981845855712890625</LatitudeDegrees>
              <LongitudeDegrees>-3.9365454018115997314453125</LongitudeDegrees>
            </Position>
            <AltitudeMeters>6</AltitudeMeters>
            <DistanceMeters>60310.446738936</DistanceMeters>
          </Trackpoint>
          <Trackpoint>
            <Time>2021-03-13T10:48:47.000Z</Time>
            <Position>
              <LatitudeDegrees>36.73429238609969615936279296875</LatitudeDegrees>
              <LongitudeDegrees>-3.93703146837651729583740234375</LongitudeDegrees>
            </Position>
            <AltitudeMeters>5.19999980926513671875</AltitudeMeters>
            <DistanceMeters>60358.380157867</DistanceMeters>
          </Trackpoint>
          <Trackpoint>
            <Time>2021-03-13T10:48:50.000Z</Time>
            <Position>
              <LatitudeDegrees>36.73417747020721435546875</LatitudeDegrees>
              <LongitudeDegrees>-3.9373259246349334716796875</LongitudeDegrees>
            </Position>
            <AltitudeMeters>4.599999904632568359375</AltitudeMeters>
            <DistanceMeters>60387.594343549</DistanceMeters>
          </Trackpoint>
          <Trackpoint>
            <Time>2021-03-13T10:48:52.000Z</Time>
            <Position>
              <LatitudeDegrees>36.73410815186798572540283203125</LatitudeDegrees>
              <LongitudeDegrees>-3.937517702579498291015625</LongitudeDegrees>
            </Position>
            <AltitudeMeters>4.400000095367431640625</AltitudeMeters>
            <DistanceMeters>60406.360375395</DistanceMeters>
          </Trackpoint>
          <Trackpoint>
            <Time>2021-03-13T10:48:57.000Z</Time>
            <Position>
              <LatitudeDegrees>36.73393783159554004669189453125</LatitudeDegrees>
              <LongitudeDegrees>-3.93798616714775562286376953125</LongitudeDegrees>
            </Position>
            <AltitudeMeters>3.7999999523162841796875</AltitudeMeters>
            <DistanceMeters>60452.246275563</DistanceMeters>
          </Trackpoint>
          <Trackpoint>
            <Time>2021-03-13T10:49:00.000Z</Time>
            <Position>
              <LatitudeDegrees>36.7338373325765132904052734375</LatitudeDegrees>
              <LongitudeDegrees>-3.9382890053093433380126953125</LongitudeDegrees>
            </Position>
            <AltitudeMeters>3.7999999523162841796875</AltitudeMeters>
            <DistanceMeters>60481.483788907</DistanceMeters>
          </Trackpoint>
          <Trackpoint>
            <Time>2021-03-13T10:49:01.000Z</Time>
            <Position>
              <LatitudeDegrees>36.733803637325763702392578125</LatitudeDegrees>
              <LongitudeDegrees>-3.93839336000382900238037109375</LongitudeDegrees>
            </Position>
            <AltitudeMeters>3.7999999523162841796875</AltitudeMeters>
            <DistanceMeters>60491.519797708</DistanceMeters>
          </Trackpoint>
          <Trackpoint>
            <Time>2021-03-13T10:49:05.000Z</Time>
            <Position>
              <LatitudeDegrees>36.73366826958954334259033203125</LatitudeDegrees>
              <LongitudeDegrees>-3.938812874257564544677734375</LongitudeDegrees>
            </Position>
            <AltitudeMeters>3.7999999523162841796875</AltitudeMeters>
            <DistanceMeters>60531.85972924</DistanceMeters>
          </Trackpoint>
          <Trackpoint>
            <Time>2021-03-13T10:49:06.000Z</Time>
            <Position>
              <LatitudeDegrees>36.73363423906266689300537109375</LatitudeDegrees>
              <LongitudeDegrees>-3.9389179833233356475830078125</LongitudeDegrees>
            </Position>
            <AltitudeMeters>3.7999999523162841796875</AltitudeMeters>
            <DistanceMeters>60541.971929082</DistanceMeters>
          </Trackpoint>
          <Trackpoint>
            <Time>2021-03-13T10:49:10.000Z</Time>
            <Position>
              <LatitudeDegrees>36.73351119272410869598388671875</LatitudeDegrees>
              <LongitudeDegrees>-3.93932442180812358856201171875</LongitudeDegrees>
            </Position>
            <AltitudeMeters>3.7999999523162841796875</AltitudeMeters>
            <DistanceMeters>60580.726871021</DistanceMeters>
          </Trackpoint>
          <Trackpoint>
            <Time>2021-03-13T10:49:14.000Z</Time>
            <Position>
              <LatitudeDegrees>36.73339552246034145355224609375</LatitudeDegrees>
              <LongitudeDegrees>-3.9397092349827289581298828125</LongitudeDegrees>
            </Position>
            <AltitudeMeters>3.7999999523162841796875</AltitudeMeters>
            <DistanceMeters>60617.387236506</DistanceMeters>
          </Trackpoint>
          <Trackpoint>
            <Time>2021-03-13T10:49:18.000Z</Time>
            <Position>
              <LatitudeDegrees>36.73327381722629070281982421875</LatitudeDegrees>
              <LongitudeDegrees>-3.9400885999202728271484375</LongitudeDegrees>
            </Position>
            <AltitudeMeters>3.7999999523162841796875</AltitudeMeters>
            <DistanceMeters>60653.837383383</DistanceMeters>
          </Trackpoint>
          <Trackpoint>
            <Time>2021-03-13T10:49:22.000Z</Time>
            <Position>
              <LatitudeDegrees>36.73314808867871761322021484375</LatitudeDegrees>
              <LongitudeDegrees>-3.94050543196499347686767578125</LongitudeDegrees>
            </Position>
            <AltitudeMeters>3.599999904632568359375</AltitudeMeters>
            <DistanceMeters>60693.565255854</DistanceMeters>
          </Trackpoint>
          <Trackpoint>
            <Time>2021-03-13T10:49:26.000Z</Time>
            <Position>
              <LatitudeDegrees>36.733024455606937408447265625</LatitudeDegrees>
              <LongitudeDegrees>-3.94091027788817882537841796875</LongitudeDegrees>
            </Position>
            <AltitudeMeters>3.400000095367431640625</AltitudeMeters>
            <DistanceMeters>60732.210881002</DistanceMeters>
          </Trackpoint>
          <Trackpoint>
            <Time>2021-03-13T10:49:27.000Z</Time>
            <Position>
              <LatitudeDegrees>36.732994616031646728515625</LatitudeDegrees>
              <LongitudeDegrees>-3.94100549630820751190185546875</LongitudeDegrees>
            </Position>
            <AltitudeMeters>3.400000095367431640625</AltitudeMeters>
            <DistanceMeters>60741.330475513</DistanceMeters>
          </Trackpoint>
          <Trackpoint>
            <Time>2021-03-13T10:49:34.000Z</Time>
            <Position>
              <LatitudeDegrees>36.73279370181262493133544921875</LatitudeDegrees>
              <LongitudeDegrees>-3.9416940696537494659423828125</LongitudeDegrees>
            </Position>
            <AltitudeMeters>3.400000095367431640625</AltitudeMeters>
            <DistanceMeters>60806.696008557</DistanceMeters>
          </Trackpoint>
          <Trackpoint>
            <Time>2021-03-13T10:49:38.000Z</Time>
            <Position>
              <LatitudeDegrees>36.73267400823533535003662109375</LatitudeDegrees>
              <LongitudeDegrees>-3.9420787990093231201171875</LongitudeDegrees>
            </Position>
            <AltitudeMeters>3.400000095367431640625</AltitudeMeters>
            <DistanceMeters>60843.509264492</DistanceMeters>
          </Trackpoint>
          <Trackpoint>
            <Time>2021-03-13T10:49:45.000Z</Time>
            <Position>
              <LatitudeDegrees>36.7324730940163135528564453125</LatitudeDegrees>
              <LongitudeDegrees>-3.942752368748188018798828125</LongitudeDegrees>
            </Position>
            <AltitudeMeters>3.400000095367431640625</AltitudeMeters>
            <DistanceMeters>60907.619134355</DistanceMeters>
          </Trackpoint>
          <Trackpoint>
            <Time>2021-03-13T10:49:46.000Z</Time>
            <Position>
              <LatitudeDegrees>36.73244275152683258056640625</LatitudeDegrees>
              <LongitudeDegrees>-3.94285236485302448272705078125</LongitudeDegrees>
            </Position>
            <AltitudeMeters>3.400000095367431640625</AltitudeMeters>
            <DistanceMeters>60917.15690087</DistanceMeters>
          </Trackpoint>
          <Trackpoint>
            <Time>2021-03-13T10:49:48.000Z</Time>
            <Position>
              <LatitudeDegrees>36.7323825694620609283447265625</LatitudeDegrees>
              <LongitudeDegrees>-3.943048752844333648681640625</LongitudeDegrees>
            </Position>
            <AltitudeMeters>3.400000095367431640625</AltitudeMeters>
            <DistanceMeters>60935.91186202</DistanceMeters>
          </Trackpoint>
          <Trackpoint>
            <Time>2021-03-13T10:49:53.000Z</Time>
            <Position>
              <LatitudeDegrees>36.7322476208209991455078125</LatitudeDegrees>
              <LongitudeDegrees>-3.94351336173713207244873046875</LongitudeDegrees>
            </Position>
            <AltitudeMeters>3.400000095367431640625</AltitudeMeters>
            <DistanceMeters>60979.993504231</DistanceMeters>
          </Trackpoint>
          <Trackpoint>
            <Time>2021-03-13T10:50:00.000Z</Time>
            <Position>
              <LatitudeDegrees>36.732057519257068634033203125</LatitudeDegrees>
              <LongitudeDegrees>-3.9442059583961963653564453125</LongitudeDegrees>
            </Position>
            <AltitudeMeters>3.599999904632568359375</AltitudeMeters>
            <DistanceMeters>61045.297187065</DistanceMeters>
          </Trackpoint>
          <Trackpoint>
            <Time>2021-03-13T10:50:03.000Z</Time>
            <Position>
              <LatitudeDegrees>36.73198300413787364959716796875</LatitudeDegrees>
              <LongitudeDegrees>-3.944483064115047454833984375</LongitudeDegrees>
            </Position>
            <AltitudeMeters>3.599999904632568359375</AltitudeMeters>
            <DistanceMeters>61071.369857713</DistanceMeters>
          </Trackpoint>
          <Trackpoint>
            <Time>2021-03-13T10:50:09.000Z</Time>
            <Position>
              <LatitudeDegrees>36.73182760365307331085205078125</LatitudeDegrees>
              <LongitudeDegrees>-3.94507574848830699920654296875</LongitudeDegrees>
            </Position>
            <AltitudeMeters>3.7999999523162841796875</AltitudeMeters>
            <DistanceMeters>61126.996048348</DistanceMeters>
          </Trackpoint>
          <Trackpoint>
            <Time>2021-03-13T10:50:12.000Z</Time>
            <Position>
              <LatitudeDegrees>36.731745712459087371826171875</LatitudeDegrees>
              <LongitudeDegrees>-3.9453881420195102691650390625</LongitudeDegrees>
            </Position>
            <AltitudeMeters>3.7999999523162841796875</AltitudeMeters>
            <DistanceMeters>61156.31498535</DistanceMeters>
          </Trackpoint>
          <Trackpoint>
            <Time>2021-03-13T10:50:19.000Z</Time>
            <Position>
              <LatitudeDegrees>36.73157396726310253143310546875</LatitudeDegrees>
              <LongitudeDegrees>-3.9460241608321666717529296875</LongitudeDegrees>
            </Position>
            <AltitudeMeters>3.599999904632568359375</AltitudeMeters>
            <DistanceMeters>61216.183172912</DistanceMeters>
          </Trackpoint>
          <Trackpoint>
            <Time>2021-03-13T10:50:22.000Z</Time>
            <Position>
              <LatitudeDegrees>36.7314964346587657928466796875</LatitudeDegrees>
              <LongitudeDegrees>-3.9463145099580287933349609375</LongitudeDegrees>
            </Position>
            <AltitudeMeters>3.7999999523162841796875</AltitudeMeters>
            <DistanceMeters>61243.483142312</DistanceMeters>
          </Trackpoint>
          <Trackpoint>
            <Time>2021-03-13T10:50:29.000Z</Time>
            <Position>
              <LatitudeDegrees>36.731327958405017852783203125</LatitudeDegrees>
              <LongitudeDegrees>-3.94695195369422435760498046875</LongitudeDegrees>
            </Position>
            <AltitudeMeters>3.7999999523162841796875</AltitudeMeters>
            <DistanceMeters>61303.35706124</DistanceMeters>
          </Trackpoint>
          <Trackpoint>
            <Time>2021-03-13T10:50:31.000Z</Time>
            <Position>
              <LatitudeDegrees>36.73127858899533748626708984375</LatitudeDegrees>
              <LongitudeDegrees>-3.947141133248805999755859375</LongitudeDegrees>
            </Position>
            <AltitudeMeters>3.7999999523162841796875</AltitudeMeters>
            <DistanceMeters>61321.104937916</DistanceMeters>
          </Trackpoint>
          <Trackpoint>
            <Time>2021-03-13T10:50:38.000Z</Time>
            <Position>
              <LatitudeDegrees>36.731092594563961029052734375</LatitudeDegrees>
              <LongitudeDegrees>-3.947835825383663177490234375</LongitudeDegrees>
            </Position>
            <AltitudeMeters>3.599999904632568359375</AltitudeMeters>
            <DistanceMeters>61386.439933258</DistanceMeters>
          </Trackpoint>
          <Trackpoint>
            <Time>2021-03-13T10:50:41.000Z</Time>
            <Position>
              <LatitudeDegrees>36.73102143220603466033935546875</LatitudeDegrees>
              <LongitudeDegrees>-3.94810915924608707427978515625</LongitudeDegrees>
            </Position>
            <AltitudeMeters>3.7999999523162841796875</AltitudeMeters>
            <DistanceMeters>61412.076372631</DistanceMeters>
          </Trackpoint>
          <Trackpoint>
            <Time>2021-03-13T10:50:48.000Z</Time>
            <Position>
              <LatitudeDegrees>36.730839125812053680419921875</LatitudeDegrees>
              <LongitudeDegrees>-3.94879496656358242034912109375</LongitudeDegrees>
            </Position>
            <AltitudeMeters>3.7999999523162841796875</AltitudeMeters>
            <DistanceMeters>61476.529988573</DistanceMeters>
          </Trackpoint>
          <Trackpoint>
            <Time>2021-03-13T10:50:49.000Z</Time>
            <Position>
              <LatitudeDegrees>36.7308181710541248321533203125</LatitudeDegrees>
              <LongitudeDegrees>-3.9488699845969676971435546875</LongitudeDegrees>
            </Position>
            <AltitudeMeters>3.7999999523162841796875</AltitudeMeters>
            <DistanceMeters>61483.616968549</DistanceMeters>
          </Trackpoint>
          <Trackpoint>
            <Time>2021-03-13T10:50:56.000Z</Time>
            <Position>
              <LatitudeDegrees>36.73064843751490116119384765625</LatitudeDegrees>
              <LongitudeDegrees>-3.94952938891947269439697265625</LongitudeDegrees>
            </Position>
            <AltitudeMeters>4</AltitudeMeters>
            <DistanceMeters>61545.397489034</DistanceMeters>
          </Trackpoint>
          <Trackpoint>
            <Time>2021-03-13T10:50:59.000Z</Time>
            <Position>
              <LatitudeDegrees>36.7305700667202472686767578125</LatitudeDegrees>
              <LongitudeDegrees>-3.9498127810657024383544921875</LongitudeDegrees>
            </Position>
            <AltitudeMeters>4.19999980926513671875</AltitudeMeters>
            <DistanceMeters>61572.139870456</DistanceMeters>
          </Trackpoint>
          <Trackpoint>
            <Time>2021-03-13T10:51:03.000Z</Time>
            <Position>
              <LatitudeDegrees>36.730463616549968719482421875</LatitudeDegrees>
              <LongitudeDegrees>-3.95021888427436351776123046875</LongitudeDegrees>
            </Position>
            <AltitudeMeters>4.400000095367431640625</AltitudeMeters>
            <DistanceMeters>61610.254231501</DistanceMeters>
          </Trackpoint>
          <Trackpoint>
            <Time>2021-03-13T10:51:08.000Z</Time>
            <Position>
              <LatitudeDegrees>36.7303404025733470916748046875</LatitudeDegrees>
              <LongitudeDegrees>-3.95067200995981693267822265625</LongitudeDegrees>
            </Position>
            <AltitudeMeters>4.80000019073486328125</AltitudeMeters>
            <DistanceMeters>61652.937836822</DistanceMeters>
          </Trackpoint>
          <Trackpoint>
            <Time>2021-03-13T10:51:10.000Z</Time>
            <Position>
              <LatitudeDegrees>36.730301342904567718505859375</LatitudeDegrees>
              <LongitudeDegrees>-3.95082749426364898681640625</LongitudeDegrees>
            </Position>
            <AltitudeMeters>5</AltitudeMeters>
            <DistanceMeters>61667.472886477</DistanceMeters>
          </Trackpoint>
          <Trackpoint>
            <Time>2021-03-13T10:51:15.000Z</Time>
            <Position>
              <LatitudeDegrees>36.7301999218761920928955078125</LatitudeDegrees>
              <LongitudeDegrees>-3.95122823305428028106689453125</LongitudeDegrees>
            </Position>
            <AltitudeMeters>5.80000019073486328125</AltitudeMeters>
            <DistanceMeters>61704.960413425</DistanceMeters>
          </Trackpoint>
          <Trackpoint>
            <Time>2021-03-13T10:51:17.000Z</Time>
            <Position>
              <LatitudeDegrees>36.7301662266254425048828125</LatitudeDegrees>
              <LongitudeDegrees>-3.95137910731136798858642578125</LongitudeDegrees>
            </Position>
            <AltitudeMeters>6.599999904632568359375</AltitudeMeters>
            <DistanceMeters>61718.931602795</DistanceMeters>
          </Trackpoint>
          <Trackpoint>
            <Time>2021-03-13T10:51:18.000Z</Time>
            <Position>
              <LatitudeDegrees>36.73014602623879909515380859375</LatitudeDegrees>
              <LongitudeDegrees>-3.951471559703350067138671875</LongitudeDegrees>
            </Position>
            <AltitudeMeters>7</AltitudeMeters>
            <DistanceMeters>61727.480310806</DistanceMeters>
          </Trackpoint>
          <Trackpoint>
            <Time>2021-03-13T10:51:22.000Z</Time>
            <Position>
              <LatitudeDegrees>36.730084083974361419677734375</LatitudeDegrees>
              <LongitudeDegrees>-3.95177557133138179779052734375</LongitudeDegrees>
            </Position>
            <AltitudeMeters>7.599999904632568359375</AltitudeMeters>
            <DistanceMeters>61755.462088239</DistanceMeters>
          </Trackpoint>
          <Trackpoint>
            <Time>2021-03-13T10:51:23.000Z</Time>
            <Position>
              <LatitudeDegrees>36.7300643026828765869140625</LatitudeDegrees>
              <LongitudeDegrees>-3.951873220503330230712890625</LongitudeDegrees>
            </Position>
            <AltitudeMeters>8</AltitudeMeters>
            <DistanceMeters>61764.4460085</DistanceMeters>
          </Trackpoint>
          <Trackpoint>
            <Time>2021-03-13T10:51:26.000Z</Time>
            <Position>
              <LatitudeDegrees>36.73002398572862148284912109375</LatitudeDegrees>
              <LongitudeDegrees>-3.95210011862218379974365234375</LongitudeDegrees>
            </Position>
            <AltitudeMeters>8.6000003814697265625</AltitudeMeters>
            <DistanceMeters>61785.177518778</DistanceMeters>
          </Trackpoint>
          <Trackpoint>
            <Time>2021-03-13T10:51:28.000Z</Time>
            <Position>
              <LatitudeDegrees>36.7299947328865528106689453125</LatitudeDegrees>
              <LongitudeDegrees>-3.95228720270097255706787109375</LongitudeDegrees>
            </Position>
            <AltitudeMeters>9.3999996185302734375</AltitudeMeters>
            <DistanceMeters>61802.180663412</DistanceMeters>
          </Trackpoint>
          <Trackpoint>
            <Time>2021-03-13T10:51:35.000Z</Time>
            <Position>
              <LatitudeDegrees>36.7299213074147701263427734375</LatitudeDegrees>
              <LongitudeDegrees>-3.9528882689774036407470703125</LongitudeDegrees>
            </Position>
            <AltitudeMeters>10.3999996185302734375</AltitudeMeters>
            <DistanceMeters>61856.41769654</DistanceMeters>
          </Trackpoint>
          <Trackpoint>
            <Time>2021-03-13T10:51:42.000Z</Time>
            <Position>
              <LatitudeDegrees>36.72988149337470531463623046875</LatitudeDegrees>
              <LongitudeDegrees>-3.9534701406955718994140625</LongitudeDegrees>
            </Position>
            <AltitudeMeters>11.3999996185302734375</AltitudeMeters>
            <DistanceMeters>61908.512100595</DistanceMeters>
          </Trackpoint>
          <Trackpoint>
            <Time>2021-03-13T10:51:43.000Z</Time>
            <Position>
              <LatitudeDegrees>36.729888953268527984619140625</LatitudeDegrees>
              <LongitudeDegrees>-3.9535568095743656158447265625</LongitudeDegrees>
            </Position>
            <AltitudeMeters>11.3999996185302734375</AltitudeMeters>
            <DistanceMeters>61916.288050175</DistanceMeters>
          </Trackpoint>
          <Trackpoint>
            <Time>2021-03-13T10:51:46.000Z</Time>
            <Position>
              <LatitudeDegrees>36.72993530519306659698486328125</LatitudeDegrees>
              <LongitudeDegrees>-3.95384405739605426788330078125</LongitudeDegrees>
            </Position>
            <AltitudeMeters>11.80000019073486328125</AltitudeMeters>
            <DistanceMeters>61942.426097608</DistanceMeters>
          </Trackpoint>
          <Trackpoint>
            <Time>2021-03-13T10:51:47.000Z</Time>
            <Position>
              <LatitudeDegrees>36.72993480227887630462646484375</LatitudeDegrees>
              <LongitudeDegrees>-3.953934498131275177001953125</LongitudeDegrees>
            </Position>
            <AltitudeMeters>11.80000019073486328125</AltitudeMeters>
            <DistanceMeters>61950.493860062</DistanceMeters>
          </Trackpoint>
          <Trackpoint>
            <Time>2021-03-13T10:51:48.000Z</Time>
            <Position>
              <LatitudeDegrees>36.72991770319640636444091796875</LatitudeDegrees>
              <LongitudeDegrees>-3.95402602851390838623046875</LongitudeDegrees>
            </Position>
            <AltitudeMeters>12</AltitudeMeters>
            <DistanceMeters>61958.87670295</DistanceMeters>
          </Trackpoint>
          <Trackpoint>
            <Time>2021-03-13T10:51:51.000Z</Time>
            <Position>
              <LatitudeDegrees>36.7298391647636890411376953125</LatitudeDegrees>
              <LongitudeDegrees>-3.9542753063142299652099609375</LongitudeDegrees>
            </Position>
            <AltitudeMeters>12</AltitudeMeters>
            <DistanceMeters>61982.770017137</DistanceMeters>
          </Trackpoint>
          <Trackpoint>
            <Time>2021-03-13T10:51:53.000Z</Time>
            <Position>
              <LatitudeDegrees>36.7297855205833911895751953125</LatitudeDegrees>
              <LongitudeDegrees>-3.95447873510420322418212890625</LongitudeDegrees>
            </Position>
            <AltitudeMeters>12</AltitudeMeters>
            <DistanceMeters>62001.87393217</DistanceMeters>
          </Trackpoint>
          <Trackpoint>
            <Time>2021-03-13T10:51:56.000Z</Time>
            <Position>
              <LatitudeDegrees>36.729745455086231231689453125</LatitudeDegrees>
              <LongitudeDegrees>-3.95476019941270351409912109375</LongitudeDegrees>
            </Position>
            <AltitudeMeters>12</AltitudeMeters>
            <DistanceMeters>62027.37493127</DistanceMeters>
          </Trackpoint>
          <Trackpoint>
            <Time>2021-03-13T10:52:03.000Z</Time>
            <Position>
              <LatitudeDegrees>36.7296812497079372406005859375</LatitudeDegrees>
              <LongitudeDegrees>-3.95546377636492252349853515625</LongitudeDegrees>
            </Position>
            <AltitudeMeters>11.6000003814697265625</AltitudeMeters>
            <DistanceMeters>62090.542898777</DistanceMeters>
          </Trackpoint>
          <Trackpoint>
            <Time>2021-03-13T10:52:04.000Z</Time>
            <Position>
              <LatitudeDegrees>36.7296718619763851165771484375</LatitudeDegrees>
              <LongitudeDegrees>-3.9555731602013111114501953125</LongitudeDegrees>
            </Position>
            <AltitudeMeters>11.3999996185302734375</AltitudeMeters>
            <DistanceMeters>62100.355988769</DistanceMeters>
          </Trackpoint>
          <Trackpoint>
            <Time>2021-03-13T10:52:10.000Z</Time>
            <Position>
              <LatitudeDegrees>36.729609668254852294921875</LatitudeDegrees>
              <LongitudeDegrees>-3.95625016652047634124755859375</LongitudeDegrees>
            </Position>
            <AltitudeMeters>10.6000003814697265625</AltitudeMeters>
            <DistanceMeters>62161.143679967</DistanceMeters>
          </Trackpoint>
          <Trackpoint>
            <Time>2021-03-13T10:52:12.000Z</Time>
            <Position>
              <LatitudeDegrees>36.72959156334400177001953125</LatitudeDegrees>
              <LongitudeDegrees>-3.956461139023303985595703125</LongitudeDegrees>
            </Position>
            <AltitudeMeters>10.3999996185302734375</AltitudeMeters>
            <DistanceMeters>62180.070940537</DistanceMeters>
          </Trackpoint>
          <Trackpoint>
            <Time>2021-03-13T10:52:13.000Z</Time>
            <Position>
              <LatitudeDegrees>36.729581169784069061279296875</LatitudeDegrees>
              <LongitudeDegrees>-3.9565763063728809356689453125</LongitudeDegrees>
            </Position>
            <AltitudeMeters>10.3999996185302734375</AltitudeMeters>
            <DistanceMeters>62190.410091612</DistanceMeters>
          </Trackpoint>
          <Trackpoint>
            <Time>2021-03-13T10:52:20.000Z</Time>
            <Position>
              <LatitudeDegrees>36.7295384220778942108154296875</LatitudeDegrees>
              <LongitudeDegrees>-3.9573229663074016571044921875</LongitudeDegrees>
            </Position>
            <AltitudeMeters>10</AltitudeMeters>
            <DistanceMeters>62257.185614652</DistanceMeters>
          </Trackpoint>
          <Trackpoint>
            <Time>2021-03-13T10:52:26.000Z</Time>
            <Position>
              <LatitudeDegrees>36.72958862967789173126220703125</LatitudeDegrees>
              <LongitudeDegrees>-3.95792017690837383270263671875</LongitudeDegrees>
            </Position>
            <AltitudeMeters>10.6000003814697265625</AltitudeMeters>
            <DistanceMeters>62310.752031095</DistanceMeters>
          </Trackpoint>
          <Trackpoint>
            <Time>2021-03-13T10:52:32.000Z</Time>
            <Position>
              <LatitudeDegrees>36.72970153391361236572265625</LatitudeDegrees>
              <LongitudeDegrees>-3.95845678634941577911376953125</LongitudeDegrees>
            </Position>
            <AltitudeMeters>11</AltitudeMeters>
            <DistanceMeters>62360.242250476</DistanceMeters>
          </Trackpoint>
          <Trackpoint>
            <Time>2021-03-13T10:52:34.000Z</Time>
            <Position>
              <LatitudeDegrees>36.7297456227242946624755859375</LatitudeDegrees>
              <LongitudeDegrees>-3.958641104400157928466796875</LongitudeDegrees>
            </Position>
            <AltitudeMeters>11.3999996185302734375</AltitudeMeters>
            <DistanceMeters>62377.401086173</DistanceMeters>
          </Trackpoint>
          <Trackpoint>
            <Time>2021-03-13T10:52:40.000Z</Time>
            <Position>
              <LatitudeDegrees>36.72990479506552219390869140625</LatitudeDegrees>
              <LongitudeDegrees>-3.95922188647091388702392578125</LongitudeDegrees>
            </Position>
            <AltitudeMeters>12.19999980926513671875</AltitudeMeters>
            <DistanceMeters>62432.154783027</DistanceMeters>
          </Trackpoint>
          <Trackpoint>
            <Time>2021-03-13T10:52:43.000Z</Time>
            <Position>
              <LatitudeDegrees>36.72998090274631977081298828125</LatitudeDegrees>
              <LongitudeDegrees>-3.9594506286084651947021484375</LongitudeDegrees>
            </Position>
            <AltitudeMeters>12.6000003814697265625</AltitudeMeters>
            <DistanceMeters>62454.248034307</DistanceMeters>
          </Trackpoint>
          <Trackpoint>
            <Time>2021-03-13T10:52:44.000Z</Time>
            <Position>
              <LatitudeDegrees>36.73002339899539947509765625</LatitudeDegrees>
              <LongitudeDegrees>-3.9595193602144718170166015625</LongitudeDegrees>
            </Position>
            <AltitudeMeters>12.6000003814697265625</AltitudeMeters>
            <DistanceMeters>62461.991399699</DistanceMeters>
          </Trackpoint>
          <Trackpoint>
            <Time>2021-03-13T10:52:45.000Z</Time>
            <Position>
              <LatitudeDegrees>36.73007905483245849609375</LatitudeDegrees>
              <LongitudeDegrees>-3.95958784036338329315185546875</LongitudeDegrees>
            </Position>
            <AltitudeMeters>12.80000019073486328125</AltitudeMeters>
            <DistanceMeters>62470.691405489</DistanceMeters>
          </Trackpoint>
          <Trackpoint>
            <Time>2021-03-13T10:52:47.000Z</Time>
            <Position>
              <LatitudeDegrees>36.73015424050390720367431640625</LatitudeDegrees>
              <LongitudeDegrees>-3.959656991064548492431640625</LongitudeDegrees>
            </Position>
            <AltitudeMeters>13</AltitudeMeters>
            <DistanceMeters>62481.087171689</DistanceMeters>
          </Trackpoint>
          <Trackpoint>
            <Time>2021-03-13T10:52:50.000Z</Time>
            <Position>
              <LatitudeDegrees>36.73026387579739093780517578125</LatitudeDegrees>
              <LongitudeDegrees>-3.95976352505385875701904296875</LongitudeDegrees>
            </Position>
            <AltitudeMeters>13.80000019073486328125</AltitudeMeters>
            <DistanceMeters>62496.553481042</DistanceMeters>
          </Trackpoint>
          <Trackpoint>
            <Time>2021-03-13T10:52:52.000Z</Time>
            <Position>
              <LatitudeDegrees>36.730314083397388458251953125</LatitudeDegrees>
              <LongitudeDegrees>-3.95990819670259952545166015625</LongitudeDegrees>
            </Position>
            <AltitudeMeters>14</AltitudeMeters>
            <DistanceMeters>62510.616150565</DistanceMeters>
          </Trackpoint>
          <Trackpoint>
            <Time>2021-03-13T10:52:54.000Z</Time>
            <Position>
              <LatitudeDegrees>36.73028298653662204742431640625</LatitudeDegrees>
              <LongitudeDegrees>-3.9600668661296367645263671875</LongitudeDegrees>
            </Position>
            <AltitudeMeters>14</AltitudeMeters>
            <DistanceMeters>62525.186879005</DistanceMeters>
          </Trackpoint>
          <Trackpoint>
            <Time>2021-03-13T10:52:55.000Z</Time>
            <Position>
              <LatitudeDegrees>36.73024736344814300537109375</LatitudeDegrees>
              <LongitudeDegrees>-3.96016686223447322845458984375</LongitudeDegrees>
            </Position>
            <AltitudeMeters>14.19999980926513671875</AltitudeMeters>
            <DistanceMeters>62534.948301373</DistanceMeters>
          </Trackpoint>
          <Trackpoint>
            <Time>2021-03-13T10:52:56.000Z</Time>
            <Position>
              <LatitudeDegrees>36.730227582156658172607421875</LatitudeDegrees>
              <LongitudeDegrees>-3.96026342175900936126708984375</LongitudeDegrees>
            </Position>
            <AltitudeMeters>14.19999980926513671875</AltitudeMeters>
            <DistanceMeters>62543.838760254</DistanceMeters>
          </Trackpoint>
          <Trackpoint>
            <Time>2021-03-13T10:52:58.000Z</Time>
            <Position>
              <LatitudeDegrees>36.7302440106868743896484375</LatitudeDegrees>
              <LongitudeDegrees>-3.96044279448688030242919921875</LongitudeDegrees>
            </Position>
            <AltitudeMeters>14</AltitudeMeters>
            <DistanceMeters>62559.943475576</DistanceMeters>
          </Trackpoint>
          <Trackpoint>
            <Time>2021-03-13T10:52:59.000Z</Time>
            <Position>
              <LatitudeDegrees>36.73026924021542072296142578125</LatitudeDegrees>
              <LongitudeDegrees>-3.96054220385849475860595703125</LongitudeDegrees>
            </Position>
            <AltitudeMeters>14</AltitudeMeters>
            <DistanceMeters>62569.244935806</DistanceMeters>
          </Trackpoint>
          <Trackpoint>
            <Time>2021-03-13T10:53:04.000Z</Time>
            <Position>
              <LatitudeDegrees>36.730423383414745330810546875</LatitudeDegrees>
              <LongitudeDegrees>-3.96106607280671596527099609375</LongitudeDegrees>
            </Position>
            <AltitudeMeters>12.80000019073486328125</AltitudeMeters>
            <DistanceMeters>62619.025966016</DistanceMeters>
          </Trackpoint>
          <Trackpoint>
            <Time>2021-03-13T10:53:05.000Z</Time>
            <Position>
              <LatitudeDegrees>36.73045330680906772613525390625</LatitudeDegrees>
              <LongitudeDegrees>-3.96117017604410648345947265625</LongitudeDegrees>
            </Position>
            <AltitudeMeters>12.80000019073486328125</AltitudeMeters>
            <DistanceMeters>62628.891368386</DistanceMeters>
          </Trackpoint>
          <Trackpoint>
            <Time>2021-03-13T10:53:11.000Z</Time>
            <Position>
              <LatitudeDegrees>36.73062429763376712799072265625</LatitudeDegrees>
              <LongitudeDegrees>-3.96180803887546062469482421875</LongitudeDegrees>
            </Position>
            <AltitudeMeters>11.80000019073486328125</AltitudeMeters>
            <DistanceMeters>62688.889583309</DistanceMeters>
          </Trackpoint>
          <Trackpoint>
            <Time>2021-03-13T10:53:12.000Z</Time>
            <Position>
              <LatitudeDegrees>36.73065195791423320770263671875</LatitudeDegrees>
              <LongitudeDegrees>-3.9619098789989948272705078125</LongitudeDegrees>
            </Position>
            <AltitudeMeters>11.6000003814697265625</AltitudeMeters>
            <DistanceMeters>62698.481634648</DistanceMeters>
          </Trackpoint>
          <Trackpoint>
            <Time>2021-03-13T10:53:17.000Z</Time>
            <Position>
              <LatitudeDegrees>36.7307755909860134124755859375</LatitudeDegrees>
              <LongitudeDegrees>-3.9624037407338619232177734375</LongitudeDegrees>
            </Position>
            <AltitudeMeters>11</AltitudeMeters>
            <DistanceMeters>62744.634887973</DistanceMeters>
          </Trackpoint>
          <Trackpoint>
            <Time>2021-03-13T10:53:19.000Z</Time>
            <Position>
              <LatitudeDegrees>36.730823032557964324951171875</LatitudeDegrees>
              <LongitudeDegrees>-3.96257883869111537933349609375</LongitudeDegrees>
            </Position>
            <AltitudeMeters>11</AltitudeMeters>
            <DistanceMeters>62761.122502151</DistanceMeters>
          </Trackpoint>
          <Trackpoint>
            <Time>2021-03-13T10:53:26.000Z</Time>
            <Position>
              <LatitudeDegrees>36.73099779523909091949462890625</LatitudeDegrees>
              <LongitudeDegrees>-3.9632174558937549591064453125</LongitudeDegrees>
            </Position>
            <AltitudeMeters>10.6000003814697265625</AltitudeMeters>
            <DistanceMeters>62821.318531797</DistanceMeters>
          </Trackpoint>
          <Trackpoint>
            <Time>2021-03-13T10:53:27.000Z</Time>
            <Position>
              <LatitudeDegrees>36.7310233600437641143798828125</LatitudeDegrees>
              <LongitudeDegrees>-3.96331544034183025360107421875</LongitudeDegrees>
            </Position>
            <AltitudeMeters>10.3999996185302734375</AltitudeMeters>
            <DistanceMeters>62830.510125523</DistanceMeters>
          </Trackpoint>
          <Trackpoint>
            <Time>2021-03-13T10:53:29.000Z</Time>
            <Position>
              <LatitudeDegrees>36.73107993789017200469970703125</LatitudeDegrees>
              <LongitudeDegrees>-3.96352347917854785919189453125</LongitudeDegrees>
            </Position>
            <AltitudeMeters>10.19999980926513671875</AltitudeMeters>
            <DistanceMeters>62850.107297542</DistanceMeters>
          </Trackpoint>
          <Trackpoint>
            <Time>2021-03-13T10:53:33.000Z</Time>
            <Position>
              <LatitudeDegrees>36.73119946382939815521240234375</LatitudeDegrees>
              <LongitudeDegrees>-3.96395162679255008697509765625</LongitudeDegrees>
            </Position>
            <AltitudeMeters>10</AltitudeMeters>
            <DistanceMeters>62890.550068791</DistanceMeters>
          </Trackpoint>
          <Trackpoint>
            <Time>2021-03-13T10:53:37.000Z</Time>
            <Position>
              <LatitudeDegrees>36.73131261952221393585205078125</LatitudeDegrees>
              <LongitudeDegrees>-3.96438513882458209991455078125</LongitudeDegrees>
            </Position>
            <AltitudeMeters>9.3999996185302734375</AltitudeMeters>
            <DistanceMeters>62931.219726302</DistanceMeters>
          </Trackpoint>
          <Trackpoint>
            <Time>2021-03-13T10:53:43.000Z</Time>
            <Position>
              <LatitudeDegrees>36.73148143105208873748779296875</LatitudeDegrees>
              <LongitudeDegrees>-3.964995928108692169189453125</LongitudeDegrees>
            </Position>
            <AltitudeMeters>9.3999996185302734375</AltitudeMeters>
            <DistanceMeters>62988.852625575</DistanceMeters>
          </Trackpoint>
          <Trackpoint>
            <Time>2021-03-13T10:53:50.000Z</Time>
            <Position>
              <LatitudeDegrees>36.73165326006710529327392578125</LatitudeDegrees>
              <LongitudeDegrees>-3.9656715095043182373046875</LongitudeDegrees>
            </Position>
            <AltitudeMeters>9.80000019073486328125</AltitudeMeters>
            <DistanceMeters>63052.07817706</DistanceMeters>
          </Trackpoint>
          <Trackpoint>
            <Time>2021-03-13T10:53:52.000Z</Time>
            <Position>
              <LatitudeDegrees>36.7317063175141811370849609375</LatitudeDegrees>
              <LongitudeDegrees>-3.965870998799800872802734375</LongitudeDegrees>
            </Position>
            <AltitudeMeters>9.80000019073486328125</AltitudeMeters>
            <DistanceMeters>63070.82760041</DistanceMeters>
          </Trackpoint>
          <Trackpoint>
            <Time>2021-03-13T10:53:58.000Z</Time>
            <Position>
              <LatitudeDegrees>36.7318692617118358612060546875</LatitudeDegrees>
              <LongitudeDegrees>-3.96647273562848567962646484375</LongitudeDegrees>
            </Position>
            <AltitudeMeters>10.3999996185302734375</AltitudeMeters>
            <DistanceMeters>63127.484962903</DistanceMeters>
          </Trackpoint>
          <Trackpoint>
            <Time>2021-03-13T10:54:00.000Z</Time>
            <Position>
              <LatitudeDegrees>36.731926761567592620849609375</LatitudeDegrees>
              <LongitudeDegrees>-3.96667876280844211578369140625</LongitudeDegrees>
            </Position>
            <AltitudeMeters>10.6000003814697265625</AltitudeMeters>
            <DistanceMeters>63146.945264697</DistanceMeters>
          </Trackpoint>
          <Trackpoint>
            <Time>2021-03-13T10:54:07.000Z</Time>
            <Position>
              <LatitudeDegrees>36.73212868161499500274658203125</LatitudeDegrees>
              <LongitudeDegrees>-3.9674063958227634429931640625</LongitudeDegrees>
            </Position>
            <AltitudeMeters>10.19999980926513671875</AltitudeMeters>
            <DistanceMeters>63215.63242492</DistanceMeters>
          </Trackpoint>
          <Trackpoint>
            <Time>2021-03-13T10:54:11.000Z</Time>
            <Position>
              <LatitudeDegrees>36.7322410829365253448486328125</LatitudeDegrees>
              <LongitudeDegrees>-3.96780009381473064422607421875</LongitudeDegrees>
            </Position>
            <AltitudeMeters>9.80000019073486328125</AltitudeMeters>
            <DistanceMeters>63252.912944306</DistanceMeters>
          </Trackpoint>
          <Trackpoint>
            <Time>2021-03-13T10:54:17.000Z</Time>
            <Position>
              <LatitudeDegrees>36.73242439515888690948486328125</LatitudeDegrees>
              <LongitudeDegrees>-3.9684075303375720977783203125</LongitudeDegrees>
            </Position>
            <AltitudeMeters>9.6000003814697265625</AltitudeMeters>
            <DistanceMeters>63310.811279499</DistanceMeters>
          </Trackpoint>
          <Trackpoint>
            <Time>2021-03-13T10:54:19.000Z</Time>
            <Position>
              <LatitudeDegrees>36.73248223029077053070068359375</LatitudeDegrees>
              <LongitudeDegrees>-3.96861598826944828033447265625</LongitudeDegrees>
            </Position>
            <AltitudeMeters>9.3999996185302734375</AltitudeMeters>
            <DistanceMeters>63330.488464709</DistanceMeters>
          </Trackpoint>
          <Trackpoint>
            <Time>2021-03-13T10:54:26.000Z</Time>
            <Position>
              <LatitudeDegrees>36.73268523998558521270751953125</LatitudeDegrees>
              <LongitudeDegrees>-3.9693416096270084381103515625</LongitudeDegrees>
            </Position>
            <AltitudeMeters>9</AltitudeMeters>
            <DistanceMeters>63399.045481041</DistanceMeters>
          </Trackpoint>
          <Trackpoint>
            <Time>2021-03-13T10:54:28.000Z</Time>
            <Position>
              <LatitudeDegrees>36.73274709843099117279052734375</LatitudeDegrees>
              <LongitudeDegrees>-3.9695514924824237823486328125</LongitudeDegrees>
            </Position>
            <AltitudeMeters>8.80000019073486328125</AltitudeMeters>
            <DistanceMeters>63418.993170594</DistanceMeters>
          </Trackpoint>
          <Trackpoint>
            <Time>2021-03-13T10:54:31.000Z</Time>
            <Position>
              <LatitudeDegrees>36.73283393494784832000732421875</LatitudeDegrees>
              <LongitudeDegrees>-3.9698557555675506591796875</LongitudeDegrees>
            </Position>
            <AltitudeMeters>8.6000003814697265625</AltitudeMeters>
            <DistanceMeters>63447.803352241</DistanceMeters>
          </Trackpoint>
          <Trackpoint>
            <Time>2021-03-13T10:54:32.000Z</Time>
            <Position>
              <LatitudeDegrees>36.73286377452313899993896484375</LatitudeDegrees>
              <LongitudeDegrees>-3.96995658986270427703857421875</LongitudeDegrees>
            </Position>
            <AltitudeMeters>8.3999996185302734375</AltitudeMeters>
            <DistanceMeters>63457.391166288</DistanceMeters>
          </Trackpoint>
          <Trackpoint>
            <Time>2021-03-13T10:54:35.000Z</Time>
            <Position>
              <LatitudeDegrees>36.73294625245034694671630859375</LatitudeDegrees>
              <LongitudeDegrees>-3.97025615908205509185791015625</LongitudeDegrees>
            </Position>
            <AltitudeMeters>8.19999980926513671875</AltitudeMeters>
            <DistanceMeters>63485.64591807</DistanceMeters>
          </Trackpoint>
          <Trackpoint>
            <Time>2021-03-13T10:54:36.000Z</Time>
            <Position>
              <LatitudeDegrees>36.73296972177922725677490234375</LatitudeDegrees>
              <LongitudeDegrees>-3.97035665810108184814453125</LongitudeDegrees>
            </Position>
            <AltitudeMeters>8.19999980926513671875</AltitudeMeters>
            <DistanceMeters>63494.983713214</DistanceMeters>
          </Trackpoint>
          <Trackpoint>
            <Time>2021-03-13T10:54:43.000Z</Time>
            <Position>
              <LatitudeDegrees>36.73316367901861667633056640625</LatitudeDegrees>
              <LongitudeDegrees>-3.97108043543994426727294921875</LongitudeDegrees>
            </Position>
            <AltitudeMeters>7.80000019073486328125</AltitudeMeters>
            <DistanceMeters>63563.058864341</DistanceMeters>
          </Trackpoint>
          <Trackpoint>
            <Time>2021-03-13T10:54:47.000Z</Time>
            <Position>
              <LatitudeDegrees>36.73327968455851078033447265625</LatitudeDegrees>
              <LongitudeDegrees>-3.97149031050503253936767578125</LongitudeDegrees>
            </Position>
            <AltitudeMeters>7.400000095367431640625</AltitudeMeters>
            <DistanceMeters>63601.833024388</DistanceMeters>
          </Trackpoint>
          <Trackpoint>
            <Time>2021-03-13T10:54:48.000Z</Time>
            <Position>
              <LatitudeDegrees>36.73330910503864288330078125</LatitudeDegrees>
              <LongitudeDegrees>-3.9715965092182159423828125</LongitudeDegrees>
            </Position>
            <AltitudeMeters>7.19999980926513671875</AltitudeMeters>
            <DistanceMeters>63611.855527586</DistanceMeters>
          </Trackpoint>
          <Trackpoint>
            <Time>2021-03-13T10:54:54.000Z</Time>
            <Position>
              <LatitudeDegrees>36.7334805987775325775146484375</LatitudeDegrees>
              <LongitudeDegrees>-3.9722360484302043914794921875</LongitudeDegrees>
            </Position>
            <AltitudeMeters>6.599999904632568359375</AltitudeMeters>
            <DistanceMeters>63672.011340807</DistanceMeters>
          </Trackpoint>
          <Trackpoint>
            <Time>2021-03-13T10:54:57.000Z</Time>
            <Position>
              <LatitudeDegrees>36.73357221297919750213623046875</LatitudeDegrees>
              <LongitudeDegrees>-3.97256411612033843994140625</LongitudeDegrees>
            </Position>
            <AltitudeMeters>6.400000095367431640625</AltitudeMeters>
            <DistanceMeters>63703.000833055</DistanceMeters>
          </Trackpoint>
          <Trackpoint>
            <Time>2021-03-13T10:55:01.000Z</Time>
            <Position>
              <LatitudeDegrees>36.7336921580135822296142578125</LatitudeDegrees>
              <LongitudeDegrees>-3.973001651465892791748046875</LongitudeDegrees>
            </Position>
            <AltitudeMeters>6.19999980926513671875</AltitudeMeters>
            <DistanceMeters>63744.249214156</DistanceMeters>
          </Trackpoint>
          <Trackpoint>
            <Time>2021-03-13T10:55:02.000Z</Time>
            <Position>
              <LatitudeDegrees>36.73372828401625156402587890625</LatitudeDegrees>
              <LongitudeDegrees>-3.97313584573566913604736328125</LongitudeDegrees>
            </Position>
            <AltitudeMeters>6.19999980926513671875</AltitudeMeters>
            <DistanceMeters>63756.876687769</DistanceMeters>
          </Trackpoint>
          <Trackpoint>
            <Time>2021-03-13T10:55:07.000Z</Time>
            <Position>
              <LatitudeDegrees>36.73387832008302211761474609375</LatitudeDegrees>
              <LongitudeDegrees>-3.97368519566953182220458984375</LongitudeDegrees>
            </Position>
            <AltitudeMeters>5.80000019073486328125</AltitudeMeters>
            <DistanceMeters>63808.64601728</DistanceMeters>
          </Trackpoint>
          <Trackpoint>
            <Time>2021-03-13T10:55:12.000Z</Time>
            <Position>
              <LatitudeDegrees>36.73402215354144573211669921875</LatitudeDegrees>
              <LongitudeDegrees>-3.97422465495765209197998046875</LongitudeDegrees>
            </Position>
            <AltitudeMeters>6</AltitudeMeters>
            <DistanceMeters>63859.358775354</DistanceMeters>
          </Trackpoint>
          <Trackpoint>
            <Time>2021-03-13T10:55:18.000Z</Time>
            <Position>
              <LatitudeDegrees>36.73420202918350696563720703125</LatitudeDegrees>
              <LongitudeDegrees>-3.974868468940258026123046875</LongitudeDegrees>
            </Position>
            <AltitudeMeters>6.19999980926513671875</AltitudeMeters>
            <DistanceMeters>63920.176540703</DistanceMeters>
          </Trackpoint>
          <Trackpoint>
            <Time>2021-03-13T10:55:20.000Z</Time>
            <Position>
              <LatitudeDegrees>36.7342567630112171173095703125</LatitudeDegrees>
              <LongitudeDegrees>-3.975066952407360076904296875</LongitudeDegrees>
            </Position>
            <AltitudeMeters>6.19999980926513671875</AltitudeMeters>
            <DistanceMeters>63938.899938571</DistanceMeters>
          </Trackpoint>
          <Trackpoint>
            <Time>2021-03-13T10:55:26.000Z</Time>
            <Position>
              <LatitudeDegrees>36.734436638653278350830078125</LatitudeDegrees>
              <LongitudeDegrees>-3.97571713663637638092041015625</LongitudeDegrees>
            </Position>
            <AltitudeMeters>5.80000019073486328125</AltitudeMeters>
            <DistanceMeters>64000.254310356</DistanceMeters>
          </Trackpoint>
          <Trackpoint>
            <Time>2021-03-13T10:55:29.000Z</Time>
            <Position>
              <LatitudeDegrees>36.7345192842185497283935546875</LatitudeDegrees>
              <LongitudeDegrees>-3.97601570002734661102294921875</LongitudeDegrees>
            </Position>
            <AltitudeMeters>5.80000019073486328125</AltitudeMeters>
            <DistanceMeters>64028.429691105</DistanceMeters>
          </Trackpoint>
          <Trackpoint>
            <Time>2021-03-13T10:55:34.000Z</Time>
            <Position>
              <LatitudeDegrees>36.73470075242221355438232421875</LatitudeDegrees>
              <LongitudeDegrees>-3.9765010960400104522705078125</LongitudeDegrees>
            </Position>
            <AltitudeMeters>5.400000095367431640625</AltitudeMeters>
            <DistanceMeters>64076.205925187</DistanceMeters>
          </Trackpoint>
          <Trackpoint>
            <Time>2021-03-13T10:55:35.000Z</Time>
            <Position>
              <LatitudeDegrees>36.73472841270267963409423828125</LatitudeDegrees>
              <LongitudeDegrees>-3.97657929919660091400146484375</LongitudeDegrees>
            </Position>
            <AltitudeMeters>5.19999980926513671875</AltitudeMeters>
            <DistanceMeters>64083.831782011</DistanceMeters>
          </Trackpoint>
          <Trackpoint>
            <Time>2021-03-13T10:55:37.000Z</Time>
            <Position>
              <LatitudeDegrees>36.7347704060375690460205078125</LatitudeDegrees>
              <LongitudeDegrees>-3.97679052315652370452880859375</LongitudeDegrees>
            </Position>
            <AltitudeMeters>5.19999980926513671875</AltitudeMeters>
            <DistanceMeters>64103.243765166</DistanceMeters>
          </Trackpoint>
          <Trackpoint>
            <Time>2021-03-13T10:55:39.000Z</Time>
            <Position>
              <LatitudeDegrees>36.73480452038347721099853515625</LatitudeDegrees>
              <LongitudeDegrees>-3.97701884619891643524169921875</LongitudeDegrees>
            </Position>
            <AltitudeMeters>5</AltitudeMeters>
            <DistanceMeters>64123.960896564</DistanceMeters>
          </Trackpoint>
          <Trackpoint>
            <Time>2021-03-13T10:55:44.000Z</Time>
            <Position>
              <LatitudeDegrees>36.7349608428776264190673828125</LatitudeDegrees>
              <LongitudeDegrees>-3.9776008017361164093017578125</LongitudeDegrees>
            </Position>
            <AltitudeMeters>4.400000095367431640625</AltitudeMeters>
            <DistanceMeters>64178.708903322</DistanceMeters>
          </Trackpoint>
          <Trackpoint>
            <Time>2021-03-13T10:55:45.000Z</Time>
            <Position>
              <LatitudeDegrees>36.7349910177290439605712890625</LatitudeDegrees>
              <LongitudeDegrees>-3.97771337069571018218994140625</LongitudeDegrees>
            </Position>
            <AltitudeMeters>4.19999980926513671875</AltitudeMeters>
            <DistanceMeters>64189.297028702</DistanceMeters>
          </Trackpoint>
          <Trackpoint>
            <Time>2021-03-13T10:55:52.000Z</Time>
            <Position>
              <LatitudeDegrees>36.73520031385123729705810546875</LatitudeDegrees>
              <LongitudeDegrees>-3.97846204228699207305908203125</LongitudeDegrees>
            </Position>
            <AltitudeMeters>3.599999904632568359375</AltitudeMeters>
            <DistanceMeters>64260.023721164</DistanceMeters>
          </Trackpoint>
          <Trackpoint>
            <Time>2021-03-13T10:55:54.000Z</Time>
            <Position>
              <LatitudeDegrees>36.7352572269737720489501953125</LatitudeDegrees>
              <LongitudeDegrees>-3.9786679856479167938232421875</LongitudeDegrees>
            </Position>
            <AltitudeMeters>3.599999904632568359375</AltitudeMeters>
            <DistanceMeters>64279.455232079</DistanceMeters>
          </Trackpoint>
          <Trackpoint>
            <Time>2021-03-13T10:56:00.000Z</Time>
            <Position>
              <LatitudeDegrees>36.73542310483753681182861328125</LatitudeDegrees>
              <LongitudeDegrees>-3.97931766696274280548095703125</LongitudeDegrees>
            </Position>
            <AltitudeMeters>3.7999999523162841796875</AltitudeMeters>
            <DistanceMeters>64340.275595731</DistanceMeters>
          </Trackpoint>
          <Trackpoint>
            <Time>2021-03-13T10:56:04.000Z</Time>
            <Position>
              <LatitudeDegrees>36.73553575761616230010986328125</LatitudeDegrees>
              <LongitudeDegrees>-3.9797519333660602569580078125</LongitudeDegrees>
            </Position>
            <AltitudeMeters>3.7999999523162841796875</AltitudeMeters>
            <DistanceMeters>64380.990079554</DistanceMeters>
          </Trackpoint>
          <Trackpoint>
            <Time>2021-03-13T10:56:10.000Z</Time>
            <Position>
              <LatitudeDegrees>36.73572217114269733428955078125</LatitudeDegrees>
              <LongitudeDegrees>-3.98040899075567722320556640625</LongitudeDegrees>
            </Position>
            <AltitudeMeters>3.599999904632568359375</AltitudeMeters>
            <DistanceMeters>64443.162392222</DistanceMeters>
          </Trackpoint>
          <Trackpoint>
            <Time>2021-03-13T10:56:14.000Z</Time>
            <Position>
              <LatitudeDegrees>36.73583985306322574615478515625</LatitudeDegrees>
              <LongitudeDegrees>-3.980829678475856781005859375</LongitudeDegrees>
            </Position>
            <AltitudeMeters>3.599999904632568359375</AltitudeMeters>
            <DistanceMeters>64482.907194807</DistanceMeters>
          </Trackpoint>
          <Trackpoint>
            <Time>2021-03-13T10:56:20.000Z</Time>
            <Position>
              <LatitudeDegrees>36.73601788468658924102783203125</LatitudeDegrees>
              <LongitudeDegrees>-3.98146159015595912933349609375</LongitudeDegrees>
            </Position>
            <AltitudeMeters>3.599999904632568359375</AltitudeMeters>
            <DistanceMeters>64542.653838721</DistanceMeters>
          </Trackpoint>
          <Trackpoint>
            <Time>2021-03-13T10:56:24.000Z</Time>
            <Position>
              <LatitudeDegrees>36.736137829720973968505859375</LatitudeDegrees>
              <LongitudeDegrees>-3.98190164007246494293212890625</LongitudeDegrees>
            </Position>
            <AltitudeMeters>3.7999999523162841796875</AltitudeMeters>
            <DistanceMeters>64584.113156746</DistanceMeters>
          </Trackpoint>
          <Trackpoint>
            <Time>2021-03-13T10:56:30.000Z</Time>
            <Position>
              <LatitudeDegrees>36.7363190464675426483154296875</LatitudeDegrees>
              <LongitudeDegrees>-3.98256196640431880950927734375</LongitudeDegrees>
            </Position>
            <AltitudeMeters>4</AltitudeMeters>
            <DistanceMeters>64646.370233386</DistanceMeters>
          </Trackpoint>
          <Trackpoint>
            <Time>2021-03-13T10:56:33.000Z</Time>
            <Position>
              <LatitudeDegrees>36.73640462569892406463623046875</LatitudeDegrees>
              <LongitudeDegrees>-3.982881568372249603271484375</LongitudeDegrees>
            </Position>
            <AltitudeMeters>3.599999904632568359375</AltitudeMeters>
            <DistanceMeters>64676.426929275</DistanceMeters>
          </Trackpoint>
          <Trackpoint>
            <Time>2021-03-13T10:56:40.000Z</Time>
            <Position>
              <LatitudeDegrees>36.73660059459507465362548828125</LatitudeDegrees>
              <LongitudeDegrees>-3.98360014893114566802978515625</LongitudeDegrees>
            </Position>
            <AltitudeMeters>4</AltitudeMeters>
            <DistanceMeters>64744.131646062</DistanceMeters>
          </Trackpoint>
          <Trackpoint>
            <Time>2021-03-13T10:56:43.000Z</Time>
            <Position>
              <LatitudeDegrees>36.7366905324161052703857421875</LatitudeDegrees>
              <LongitudeDegrees>-3.98392260074615478515625</LongitudeDegrees>
            </Position>
            <AltitudeMeters>4.19999980926513671875</AltitudeMeters>
            <DistanceMeters>64774.585595416</DistanceMeters>
          </Trackpoint>
          <Trackpoint>
            <Time>2021-03-13T10:56:49.000Z</Time>
            <Position>
              <LatitudeDegrees>36.73685967922210693359375</LatitudeDegrees>
              <LongitudeDegrees>-3.9845004491508007049560546875</LongitudeDegrees>
            </Position>
            <AltitudeMeters>5.19999980926513671875</AltitudeMeters>
            <DistanceMeters>64829.458401156</DistanceMeters>
          </Trackpoint>
          <Trackpoint>
            <Time>2021-03-13T10:56:52.000Z</Time>
            <Position>
              <LatitudeDegrees>36.736941151320934295654296875</LatitudeDegrees>
              <LongitudeDegrees>-3.9847867749631404876708984375</LongitudeDegrees>
            </Position>
            <AltitudeMeters>5.599999904632568359375</AltitudeMeters>
            <DistanceMeters>64856.559513636</DistanceMeters>
          </Trackpoint>
          <Trackpoint>
            <Time>2021-03-13T10:56:56.000Z</Time>
            <Position>
              <LatitudeDegrees>36.7370425723493099212646484375</LatitudeDegrees>
              <LongitudeDegrees>-3.98514761589467525482177734375</LongitudeDegrees>
            </Position>
            <AltitudeMeters>6.599999904632568359375</AltitudeMeters>
            <DistanceMeters>64890.667485993</DistanceMeters>
          </Trackpoint>
          <Trackpoint>
            <Time>2021-03-13T10:56:58.000Z</Time>
            <Position>
              <LatitudeDegrees>36.73709445632994174957275390625</LatitudeDegrees>
              <LongitudeDegrees>-3.9853057824075222015380859375</LongitudeDegrees>
            </Position>
            <AltitudeMeters>7.19999980926513671875</AltitudeMeters>
            <DistanceMeters>64905.911500793</DistanceMeters>
          </Trackpoint>
          <Trackpoint>
            <Time>2021-03-13T10:56:59.000Z</Time>
            <Position>
              <LatitudeDegrees>36.7371346056461334228515625</LatitudeDegrees>
              <LongitudeDegrees>-3.9853896014392375946044921875</LongitudeDegrees>
            </Position>
            <AltitudeMeters>7.19999980926513671875</AltitudeMeters>
            <DistanceMeters>64914.621879791</DistanceMeters>
          </Trackpoint>
          <Trackpoint>
            <Time>2021-03-13T10:57:00.000Z</Time>
            <Position>
              <LatitudeDegrees>36.7371820472180843353271484375</LatitudeDegrees>
              <LongitudeDegrees>-3.98548699915409088134765625</LongitudeDegrees>
            </Position>
            <AltitudeMeters>7.400000095367431640625</AltitudeMeters>
            <DistanceMeters>64924.787961873</DistanceMeters>
          </Trackpoint>
          <Trackpoint>
            <Time>2021-03-13T10:57:02.000Z</Time>
            <Position>
              <LatitudeDegrees>36.737213395535945892333984375</LatitudeDegrees>
              <LongitudeDegrees>-3.9856541343033313751220703125</LongitudeDegrees>
            </Position>
            <AltitudeMeters>7.599999904632568359375</AltitudeMeters>
            <DistanceMeters>64940.098178211</DistanceMeters>
          </Trackpoint>
          <Trackpoint>
            <Time>2021-03-13T10:57:04.000Z</Time>
            <Position>
              <LatitudeDegrees>36.7372417263686656951904296875</LatitudeDegrees>
              <LongitudeDegrees>-3.9858744107186794281005859375</LongitudeDegrees>
            </Position>
            <AltitudeMeters>7.599999904632568359375</AltitudeMeters>
            <DistanceMeters>64959.997144317</DistanceMeters>
          </Trackpoint>
          <Trackpoint>
            <Time>2021-03-13T10:57:06.000Z</Time>
            <Position>
              <LatitudeDegrees>36.73728908412158489227294921875</LatitudeDegrees>
              <LongitudeDegrees>-3.9860568009316921234130859375</LongitudeDegrees>
            </Position>
            <AltitudeMeters>7.599999904632568359375</AltitudeMeters>
            <DistanceMeters>64977.097728972</DistanceMeters>
          </Trackpoint>
          <Trackpoint>
            <Time>2021-03-13T10:57:13.000Z</Time>
            <Position>
              <LatitudeDegrees>36.73748907633125782012939453125</LatitudeDegrees>
              <LongitudeDegrees>-3.98679013364017009735107421875</LongitudeDegrees>
            </Position>
            <AltitudeMeters>7.599999904632568359375</AltitudeMeters>
            <DistanceMeters>65046.191756892</DistanceMeters>
          </Trackpoint>
          <Trackpoint>
            <Time>2021-03-13T10:57:19.000Z</Time>
            <Position>
              <LatitudeDegrees>36.7376656830310821533203125</LatitudeDegrees>
              <LongitudeDegrees>-3.98747778497636318206787109375</LongitudeDegrees>
            </Position>
            <AltitudeMeters>7.19999980926513671875</AltitudeMeters>
            <DistanceMeters>65110.60010401</DistanceMeters>
          </Trackpoint>
          <Trackpoint>
            <Time>2021-03-13T10:57:21.000Z</Time>
            <Position>
              <LatitudeDegrees>36.7377265356481075286865234375</LatitudeDegrees>
              <LongitudeDegrees>-3.9877006597816944122314453125</LongitudeDegrees>
            </Position>
            <AltitudeMeters>6.599999904632568359375</AltitudeMeters>
            <DistanceMeters>65131.601652854</DistanceMeters>
          </Trackpoint>
          <Trackpoint>
            <Time>2021-03-13T10:57:22.000Z</Time>
            <Position>
              <LatitudeDegrees>36.73775662668049335479736328125</LatitudeDegrees>
              <LongitudeDegrees>-3.987814486026763916015625</LongitudeDegrees>
            </Position>
            <AltitudeMeters>6.599999904632568359375</AltitudeMeters>
            <DistanceMeters>65142.292897292</DistanceMeters>
          </Trackpoint>
          <Trackpoint>
            <Time>2021-03-13T10:57:27.000Z</Time>
            <Position>
              <LatitudeDegrees>36.73791437409818172454833984375</LatitudeDegrees>
              <LongitudeDegrees>-3.98838235996663570404052734375</LongitudeDegrees>
            </Position>
            <AltitudeMeters>5.400000095367431640625</AltitudeMeters>
            <DistanceMeters>65195.901357246</DistanceMeters>
          </Trackpoint>
          <Trackpoint>
            <Time>2021-03-13T10:57:31.000Z</Time>
            <Position>
              <LatitudeDegrees>36.7380541004240512847900390625</LatitudeDegrees>
              <LongitudeDegrees>-3.9888892136514186859130859375</LongitudeDegrees>
            </Position>
            <AltitudeMeters>4.599999904632568359375</AltitudeMeters>
            <DistanceMeters>65243.710372919</DistanceMeters>
          </Trackpoint>
          <Trackpoint>
            <Time>2021-03-13T10:57:34.000Z</Time>
            <Position>
              <LatitudeDegrees>36.738152168691158294677734375</LatitudeDegrees>
              <LongitudeDegrees>-3.98922624997794628143310546875</LongitudeDegrees>
            </Position>
            <AltitudeMeters>4.19999980926513671875</AltitudeMeters>
            <DistanceMeters>65275.692474459</DistanceMeters>
          </Trackpoint>
          <Trackpoint>
            <Time>2021-03-13T10:57:38.000Z</Time>
            <Position>
              <LatitudeDegrees>36.738290973007678985595703125</LatitudeDegrees>
              <LongitudeDegrees>-3.9897126518189907073974609375</LongitudeDegrees>
            </Position>
            <AltitudeMeters>3.7999999523162841796875</AltitudeMeters>
            <DistanceMeters>65321.745639979</DistanceMeters>
          </Trackpoint>
          <Trackpoint>
            <Time>2021-03-13T10:57:40.000Z</Time>
            <Position>
              <LatitudeDegrees>36.73835626803338527679443359375</LatitudeDegrees>
              <LongitudeDegrees>-3.98993485607206821441650390625</LongitudeDegrees>
            </Position>
            <AltitudeMeters>3.599999904632568359375</AltitudeMeters>
            <DistanceMeters>65342.85526367</DistanceMeters>
          </Trackpoint>
          <Trackpoint>
            <Time>2021-03-13T10:57:45.000Z</Time>
            <Position>
              <LatitudeDegrees>36.73849155195057392120361328125</LatitudeDegrees>
              <LongitudeDegrees>-3.99048797786235809326171875</LongitudeDegrees>
            </Position>
            <AltitudeMeters>3.400000095367431640625</AltitudeMeters>
            <DistanceMeters>65394.43735382</DistanceMeters>
          </Trackpoint>
          <Trackpoint>
            <Time>2021-03-13T10:57:49.000Z</Time>
            <Position>
              <LatitudeDegrees>36.73862365074455738067626953125</LatitudeDegrees>
              <LongitudeDegrees>-3.99097102694213390350341796875</LongitudeDegrees>
            </Position>
            <AltitudeMeters>3.2000000476837158203125</AltitudeMeters>
            <DistanceMeters>65439.962192148</DistanceMeters>
          </Trackpoint>
          <Trackpoint>
            <Time>2021-03-13T10:57:53.000Z</Time>
            <Position>
              <LatitudeDegrees>36.7387390695512294769287109375</LatitudeDegrees>
              <LongitudeDegrees>-3.99139364250004291534423828125</LongitudeDegrees>
            </Position>
            <AltitudeMeters>3</AltitudeMeters>
            <DistanceMeters>65479.785982345</DistanceMeters>
          </Trackpoint>
          <Trackpoint>
            <Time>2021-03-13T10:57:55.000Z</Time>
            <Position>
              <LatitudeDegrees>36.73876748420298099517822265625</LatitudeDegrees>
              <LongitudeDegrees>-3.99155943654477596282958984375</LongitudeDegrees>
            </Position>
            <AltitudeMeters>3</AltitudeMeters>
            <DistanceMeters>65494.908073995</DistanceMeters>
          </Trackpoint>
          <Trackpoint>
            <Time>2021-03-13T10:57:57.000Z</Time>
            <Position>
              <LatitudeDegrees>36.7388067953288555145263671875</LatitudeDegrees>
              <LongitudeDegrees>-3.99169673211872577667236328125</LongitudeDegrees>
            </Position>
            <AltitudeMeters>3</AltitudeMeters>
            <DistanceMeters>65507.912159567</DistanceMeters>
          </Trackpoint>
          <Trackpoint>
            <Time>2021-03-13T10:58:01.000Z</Time>
            <Position>
              <LatitudeDegrees>36.7388512194156646728515625</LatitudeDegrees>
              <LongitudeDegrees>-3.9918493665754795074462890625</LongitudeDegrees>
            </Position>
            <AltitudeMeters>3</AltitudeMeters>
            <DistanceMeters>65522.396176136</DistanceMeters>
          </Trackpoint>
          <Trackpoint>
            <Time>2021-03-13T10:58:05.000Z</Time>
            <Position>
              <LatitudeDegrees>36.73885951749980449676513671875</LatitudeDegrees>
              <LongitudeDegrees>-3.99188649840652942657470703125</LongitudeDegrees>
            </Position>
            <AltitudeMeters>3</AltitudeMeters>
            <DistanceMeters>65525.834252642</DistanceMeters>
          </Trackpoint>
          <Trackpoint>
            <Time>2021-03-13T10:58:15.000Z</Time>
            <Position>
              <LatitudeDegrees>36.73885951749980449676513671875</LatitudeDegrees>
              <LongitudeDegrees>-3.99188649840652942657470703125</LongitudeDegrees>
            </Position>
            <AltitudeMeters>2.7999999523162841796875</AltitudeMeters>
            <DistanceMeters>65525.834252642</DistanceMeters>
          </Trackpoint>
          <Trackpoint>
            <Time>2021-03-13T10:58:31.000Z</Time>
            <Position>
              <LatitudeDegrees>36.7388839088380336761474609375</LatitudeDegrees>
              <LongitudeDegrees>-3.99194098077714443206787109375</LongitudeDegrees>
            </Position>
            <AltitudeMeters>2.7999999523162841796875</AltitudeMeters>
            <DistanceMeters>65531.399606378</DistanceMeters>
          </Trackpoint>
          <Trackpoint>
            <Time>2021-03-13T10:58:32.000Z</Time>
            <Position>
              <LatitudeDegrees>36.73890260048210620880126953125</LatitudeDegrees>
              <LongitudeDegrees>-3.99196964688599109649658203125</LongitudeDegrees>
            </Position>
            <AltitudeMeters>2.599999904632568359375</AltitudeMeters>
            <DistanceMeters>65534.696910131</DistanceMeters>
          </Trackpoint>
          <Trackpoint>
            <Time>2021-03-13T10:58:33.000Z</Time>
            <Position>
              <LatitudeDegrees>36.73891701735556125640869140625</LatitudeDegrees>
              <LongitudeDegrees>-3.99200786836445331573486328125</LongitudeDegrees>
            </Position>
            <AltitudeMeters>2.599999904632568359375</AltitudeMeters>
            <DistanceMeters>65538.464572558</DistanceMeters>
          </Trackpoint>
          <Trackpoint>
            <Time>2021-03-13T10:58:35.000Z</Time>
            <Position>
              <LatitudeDegrees>36.73894903622567653656005859375</LatitudeDegrees>
              <LongitudeDegrees>-3.99211348034441471099853515625</LongitudeDegrees>
            </Position>
            <AltitudeMeters>2.400000095367431640625</AltitudeMeters>
            <DistanceMeters>65548.536507763</DistanceMeters>
          </Trackpoint>
          <Trackpoint>
            <Time>2021-03-13T10:58:36.000Z</Time>
            <Position>
              <LatitudeDegrees>36.73897200264036655426025390625</LatitudeDegrees>
              <LongitudeDegrees>-3.9921819604933261871337890625</LongitudeDegrees>
            </Position>
            <AltitudeMeters>2.400000095367431640625</AltitudeMeters>
            <DistanceMeters>65555.157081081</DistanceMeters>
          </Trackpoint>
          <Trackpoint>
            <Time>2021-03-13T10:58:37.000Z</Time>
            <Position>
              <LatitudeDegrees>36.738996393978595733642578125</LatitudeDegrees>
              <LongitudeDegrees>-3.99225731380283832550048828125</LongitudeDegrees>
            </Position>
            <AltitudeMeters>2.400000095367431640625</AltitudeMeters>
            <DistanceMeters>65562.406566918</DistanceMeters>
          </Trackpoint>
          <Trackpoint>
            <Time>2021-03-13T10:58:39.000Z</Time>
            <Position>
              <LatitudeDegrees>36.739035286009311676025390625</LatitudeDegrees>
              <LongitudeDegrees>-3.99242310784757137298583984375</LongitudeDegrees>
            </Position>
            <AltitudeMeters>2.400000095367431640625</AltitudeMeters>
            <DistanceMeters>65577.814966247</DistanceMeters>
          </Trackpoint>
          <Trackpoint>
            <Time>2021-03-13T10:58:44.000Z</Time>
            <Position>
              <LatitudeDegrees>36.739147938787937164306640625</LatitudeDegrees>
              <LongitudeDegrees>-3.9928313903510570526123046875</LongitudeDegrees>
            </Position>
            <AltitudeMeters>2.2000000476837158203125</AltitudeMeters>
            <DistanceMeters>65616.32951749</DistanceMeters>
          </Trackpoint>
          <Trackpoint>
            <Time>2021-03-13T10:58:45.000Z</Time>
            <Position>
              <LatitudeDegrees>36.73917149193584918975830078125</LatitudeDegrees>
              <LongitudeDegrees>-3.992916382849216461181640625</LongitudeDegrees>
            </Position>
            <AltitudeMeters>2.400000095367431640625</AltitudeMeters>
            <DistanceMeters>65624.351258245</DistanceMeters>
          </Trackpoint>
          <Trackpoint>
            <Time>2021-03-13T10:58:48.000Z</Time>
            <Position>
              <LatitudeDegrees>36.73925153911113739013671875</LatitudeDegrees>
              <LongitudeDegrees>-3.99319105781614780426025390625</LongitudeDegrees>
            </Position>
            <AltitudeMeters>2.599999904632568359375</AltitudeMeters>
            <DistanceMeters>65650.420118846</DistanceMeters>
          </Trackpoint>
          <Trackpoint>
            <Time>2021-03-13T10:58:56.000Z</Time>
            <Position>
              <LatitudeDegrees>36.73944340087473392486572265625</LatitudeDegrees>
              <LongitudeDegrees>-3.993892036378383636474609375</LongitudeDegrees>
            </Position>
            <AltitudeMeters>2.7999999523162841796875</AltitudeMeters>
            <DistanceMeters>65716.489112048</DistanceMeters>
          </Trackpoint>
          <Trackpoint>
            <Time>2021-03-13T10:58:59.000Z</Time>
            <Position>
              <LatitudeDegrees>36.73951682634651660919189453125</LatitudeDegrees>
              <LongitudeDegrees>-3.99416863918304443359375</LongitudeDegrees>
            </Position>
            <AltitudeMeters>2.7999999523162841796875</AltitudeMeters>
            <DistanceMeters>65742.478527548</DistanceMeters>
          </Trackpoint>
          <Trackpoint>
            <Time>2021-03-13T10:59:06.000Z</Time>
            <Position>
              <LatitudeDegrees>36.739677675068378448486328125</LatitudeDegrees>
              <LongitudeDegrees>-3.99483541958034038543701171875</LongitudeDegrees>
            </Position>
            <AltitudeMeters>3.7999999523162841796875</AltitudeMeters>
            <DistanceMeters>65804.587045928</DistanceMeters>
          </Trackpoint>
          <Trackpoint>
            <Time>2021-03-13T10:59:10.000Z</Time>
            <Position>
              <LatitudeDegrees>36.73976526595652103424072265625</LatitudeDegrees>
              <LongitudeDegrees>-3.99519651196897029876708984375</LongitudeDegrees>
            </Position>
            <AltitudeMeters>4.19999980926513671875</AltitudeMeters>
            <DistanceMeters>65838.237238584</DistanceMeters>
          </Trackpoint>
          <Trackpoint>
            <Time>2021-03-13T10:59:12.000Z</Time>
            <Position>
              <LatitudeDegrees>36.73979845829308032989501953125</LatitudeDegrees>
              <LongitudeDegrees>-3.9953486435115337371826171875</LongitudeDegrees>
            </Position>
            <AltitudeMeters>4.19999980926513671875</AltitudeMeters>
            <DistanceMeters>65852.299908107</DistanceMeters>
          </Trackpoint>
          <Trackpoint>
            <Time>2021-03-13T10:59:13.000Z</Time>
            <Position>
              <LatitudeDegrees>36.73981840722262859344482421875</LatitudeDegrees>
              <LongitudeDegrees>-3.99542114697396755218505859375</LongitudeDegrees>
            </Position>
            <AltitudeMeters>4.400000095367431640625</AltitudeMeters>
            <DistanceMeters>65859.137210627</DistanceMeters>
          </Trackpoint>
          <Trackpoint>
            <Time>2021-03-13T10:59:15.000Z</Time>
            <Position>
              <LatitudeDegrees>36.73986886627972126007080078125</LatitudeDegrees>
              <LongitudeDegrees>-3.995550312101840972900390625</LongitudeDegrees>
            </Position>
            <AltitudeMeters>4.400000095367431640625</AltitudeMeters>
            <DistanceMeters>65871.953492869</DistanceMeters>
          </Trackpoint>
          <Trackpoint>
            <Time>2021-03-13T10:59:17.000Z</Time>
            <Position>
              <LatitudeDegrees>36.73994757235050201416015625</LatitudeDegrees>
              <LongitudeDegrees>-3.99571484886109828948974609375</LongitudeDegrees>
            </Position>
            <AltitudeMeters>4.599999904632568359375</AltitudeMeters>
            <DistanceMeters>65889.044569863</DistanceMeters>
          </Trackpoint>
          <Trackpoint>
            <Time>2021-03-13T10:59:19.000Z</Time>
            <Position>
              <LatitudeDegrees>36.739947907626628875732421875</LatitudeDegrees>
              <LongitudeDegrees>-3.99587159045040607452392578125</LongitudeDegrees>
            </Position>
            <AltitudeMeters>4.599999904632568359375</AltitudeMeters>
            <DistanceMeters>65903.025127958</DistanceMeters>
          </Trackpoint>
          <Trackpoint>
            <Time>2021-03-13T10:59:20.000Z</Time>
            <Position>
              <LatitudeDegrees>36.73993692733347415924072265625</LatitudeDegrees>
              <LongitudeDegrees>-3.99598021991550922393798828125</LongitudeDegrees>
            </Position>
            <AltitudeMeters>4.599999904632568359375</AltitudeMeters>
            <DistanceMeters>65912.791174619</DistanceMeters>
          </Trackpoint>
          <Trackpoint>
            <Time>2021-03-13T10:59:22.000Z</Time>
            <Position>
              <LatitudeDegrees>36.73995519988238811492919921875</LatitudeDegrees>
              <LongitudeDegrees>-3.99617518298327922821044921875</LongitudeDegrees>
            </Position>
            <AltitudeMeters>4.80000019073486328125</AltitudeMeters>
            <DistanceMeters>65930.298799096</DistanceMeters>
          </Trackpoint>
          <Trackpoint>
            <Time>2021-03-13T10:59:28.000Z</Time>
            <Position>
              <LatitudeDegrees>36.74006533809006214141845703125</LatitudeDegrees>
              <LongitudeDegrees>-3.9967930130660533905029296875</LongitudeDegrees>
            </Position>
            <AltitudeMeters>4.400000095367431640625</AltitudeMeters>
            <DistanceMeters>65986.751865966</DistanceMeters>
          </Trackpoint>
          <Trackpoint>
            <Time>2021-03-13T10:59:35.000Z</Time>
            <Position>
              <LatitudeDegrees>36.7401938326656818389892578125</LatitudeDegrees>
              <LongitudeDegrees>-3.99750195443630218505859375</LongitudeDegrees>
            </Position>
            <AltitudeMeters>3.7999999523162841796875</AltitudeMeters>
            <DistanceMeters>66051.581399972</DistanceMeters>
          </Trackpoint>
          <Trackpoint>
            <Time>2021-03-13T10:59:36.000Z</Time>
            <Position>
              <LatitudeDegrees>36.74021503888070583343505859375</LatitudeDegrees>
              <LongitudeDegrees>-3.99761184118688106536865234375</LongitudeDegrees>
            </Position>
            <AltitudeMeters>3.599999904632568359375</AltitudeMeters>
            <DistanceMeters>66061.662296772</DistanceMeters>
          </Trackpoint>
          <Trackpoint>
            <Time>2021-03-13T10:59:42.000Z</Time>
            <Position>
              <LatitudeDegrees>36.74033992923796176910400390625</LatitudeDegrees>
              <LongitudeDegrees>-3.998280465602874755859375</LongitudeDegrees>
            </Position>
            <AltitudeMeters>3.400000095367431640625</AltitudeMeters>
            <DistanceMeters>66122.897116304</DistanceMeters>
          </Trackpoint>
          <Trackpoint>
            <Time>2021-03-13T10:59:44.000Z</Time>
            <Position>
              <LatitudeDegrees>36.74038234166800975799560546875</LatitudeDegrees>
              <LongitudeDegrees>-3.99853133596479892730712890625</LongitudeDegrees>
            </Position>
            <AltitudeMeters>3.2000000476837158203125</AltitudeMeters>
            <DistanceMeters>66145.765409137</DistanceMeters>
          </Trackpoint>
          <Trackpoint>
            <Time>2021-03-13T10:59:46.000Z</Time>
            <Position>
              <LatitudeDegrees>36.7404221557080745697021484375</LatitudeDegrees>
              <LongitudeDegrees>-3.99875144474208354949951171875</LongitudeDegrees>
            </Position>
            <AltitudeMeters>3.2000000476837158203125</AltitudeMeters>
            <DistanceMeters>66165.891116054</DistanceMeters>
          </Trackpoint>
          <Trackpoint>
            <Time>2021-03-13T10:59:52.000Z</Time>
            <Position>
              <LatitudeDegrees>36.74055106937885284423828125</LatitudeDegrees>
              <LongitudeDegrees>-3.99942451156675815582275390625</LongitudeDegrees>
            </Position>
            <AltitudeMeters>3</AltitudeMeters>
            <DistanceMeters>66227.61424058</DistanceMeters>
          </Trackpoint>
          <Trackpoint>
            <Time>2021-03-13T10:59:55.000Z</Time>
            <Position>
              <LatitudeDegrees>36.7406162805855274200439453125</LatitudeDegrees>
              <LongitudeDegrees>-3.999751321971416473388671875</LongitudeDegrees>
            </Position>
            <AltitudeMeters>3.2000000476837158203125</AltitudeMeters>
            <DistanceMeters>66257.653205588</DistanceMeters>
          </Trackpoint>
          <Trackpoint>
            <Time>2021-03-13T10:59:59.000Z</Time>
            <Position>
              <LatitudeDegrees>36.7406903766095638275146484375</LatitudeDegrees>
              <LongitudeDegrees>-4.00017653591930866241455078125</LongitudeDegrees>
            </Position>
            <AltitudeMeters>4</AltitudeMeters>
            <DistanceMeters>66296.465307982</DistanceMeters>
          </Trackpoint>
          <Trackpoint>
            <Time>2021-03-13T11:00:01.000Z</Time>
            <Position>
              <LatitudeDegrees>36.74073438160121440887451171875</LatitudeDegrees>
              <LongitudeDegrees>-4.000392369925975799560546875</LongitudeDegrees>
            </Position>
            <AltitudeMeters>4.400000095367431640625</AltitudeMeters>
            <DistanceMeters>66316.329301042</DistanceMeters>
          </Trackpoint>
          <Trackpoint>
            <Time>2021-03-13T11:00:02.000Z</Time>
            <Position>
              <LatitudeDegrees>36.74075500108301639556884765625</LatitudeDegrees>
              <LongitudeDegrees>-4.0005026757717132568359375</LongitudeDegrees>
            </Position>
            <AltitudeMeters>4.599999904632568359375</AltitudeMeters>
            <DistanceMeters>66326.431673237</DistanceMeters>
          </Trackpoint>
          <Trackpoint>
            <Time>2021-03-13T11:00:06.000Z</Time>
            <Position>
              <LatitudeDegrees>36.740837059915065765380859375</LatitudeDegrees>
              <LongitudeDegrees>-4.00094926357269287109375</LongitudeDegrees>
            </Position>
            <AltitudeMeters>4.80000019073486328125</AltitudeMeters>
            <DistanceMeters>66367.297359056</DistanceMeters>
          </Trackpoint>
          <Trackpoint>
            <Time>2021-03-13T11:00:10.000Z</Time>
            <Position>
              <LatitudeDegrees>36.7409257404506206512451171875</LatitudeDegrees>
              <LongitudeDegrees>-4.00141001679003238677978515625</LongitudeDegrees>
            </Position>
            <AltitudeMeters>5.400000095367431640625</AltitudeMeters>
            <DistanceMeters>66409.561498483</DistanceMeters>
          </Trackpoint>
          <Trackpoint>
            <Time>2021-03-13T11:00:11.000Z</Time>
            <Position>
              <LatitudeDegrees>36.74094862304627895355224609375</LatitudeDegrees>
              <LongitudeDegrees>-4.0015304647386074066162109375</LongitudeDegrees>
            </Position>
            <AltitudeMeters>5.80000019073486328125</AltitudeMeters>
            <DistanceMeters>66420.602604949</DistanceMeters>
          </Trackpoint>
          <Trackpoint>
            <Time>2021-03-13T11:00:16.000Z</Time>
            <Position>
              <LatitudeDegrees>36.74106110818684101104736328125</LatitudeDegrees>
              <LongitudeDegrees>-4.00214997120201587677001953125</LongitudeDegrees>
            </Position>
            <AltitudeMeters>6</AltitudeMeters>
            <DistanceMeters>66477.257975152</DistanceMeters>
          </Trackpoint>
          <Trackpoint>
            <Time>2021-03-13T11:00:22.000Z</Time>
            <Position>
              <LatitudeDegrees>36.741199493408203125</LatitudeDegrees>
              <LongitudeDegrees>-4.002845250070095062255859375</LongitudeDegrees>
            </Position>
            <AltitudeMeters>5.80000019073486328125</AltitudeMeters>
            <DistanceMeters>66541.15508544</DistanceMeters>
          </Trackpoint>
          <Trackpoint>
            <Time>2021-03-13T11:00:23.000Z</Time>
            <Position>
              <LatitudeDegrees>36.7412303388118743896484375</LatitudeDegrees>
              <LongitudeDegrees>-4.0029858984053134918212890625</LongitudeDegrees>
            </Position>
            <AltitudeMeters>5.599999904632568359375</AltitudeMeters>
            <DistanceMeters>66554.160906904</DistanceMeters>
          </Trackpoint>
          <Trackpoint>
            <Time>2021-03-13T11:00:29.000Z</Time>
            <Position>
              <LatitudeDegrees>36.7413751780986785888671875</LatitudeDegrees>
              <LongitudeDegrees>-4.0036810934543609619140625</LongitudeDegrees>
            </Position>
            <AltitudeMeters>4.80000019073486328125</AltitudeMeters>
            <DistanceMeters>66618.227661208</DistanceMeters>
          </Trackpoint>
          <Trackpoint>
            <Time>2021-03-13T11:00:32.000Z</Time>
            <Position>
              <LatitudeDegrees>36.74142521806061267852783203125</LatitudeDegrees>
              <LongitudeDegrees>-4.00401041842997074127197265625</LongitudeDegrees>
            </Position>
            <AltitudeMeters>4.599999904632568359375</AltitudeMeters>
            <DistanceMeters>66648.123947538</DistanceMeters>
          </Trackpoint>
          <Trackpoint>
            <Time>2021-03-13T11:00:38.000Z</Time>
            <Position>
              <LatitudeDegrees>36.7414571531116962432861328125</LatitudeDegrees>
              <LongitudeDegrees>-4.0047232992947101593017578125</LongitudeDegrees>
            </Position>
            <AltitudeMeters>4.599999904632568359375</AltitudeMeters>
            <DistanceMeters>66711.805885879</DistanceMeters>
          </Trackpoint>
          <Trackpoint>
            <Time>2021-03-13T11:00:44.000Z</Time>
            <Position>
              <LatitudeDegrees>36.74139202572405338287353515625</LatitudeDegrees>
              <LongitudeDegrees>-4.0054138004779815673828125</LongitudeDegrees>
            </Position>
            <AltitudeMeters>4.599999904632568359375</AltitudeMeters>
            <DistanceMeters>66773.817497643</DistanceMeters>
          </Trackpoint>
          <Trackpoint>
            <Time>2021-03-13T11:00:50.000Z</Time>
            <Position>
              <LatitudeDegrees>36.74123243428766727447509765625</LatitudeDegrees>
              <LongitudeDegrees>-4.006117545068264007568359375</LongitudeDegrees>
            </Position>
            <AltitudeMeters>4.80000019073486328125</AltitudeMeters>
            <DistanceMeters>66839.050274399</DistanceMeters>
          </Trackpoint>
          <Trackpoint>
            <Time>2021-03-13T11:00:56.000Z</Time>
            <Position>
              <LatitudeDegrees>36.74106873571872711181640625</LatitudeDegrees>
              <LongitudeDegrees>-4.00674895383417606353759765625</LongitudeDegrees>
            </Position>
            <AltitudeMeters>5.19999980926513671875</AltitudeMeters>
            <DistanceMeters>66898.240705373</DistanceMeters>
          </Trackpoint>
          <Trackpoint>
            <Time>2021-03-13T11:00:58.000Z</Time>
            <Position>
              <LatitudeDegrees>36.74100612290203571319580078125</LatitudeDegrees>
              <LongitudeDegrees>-4.00699219666421413421630859375</LongitudeDegrees>
            </Position>
            <AltitudeMeters>5.19999980926513671875</AltitudeMeters>
            <DistanceMeters>66921.027707275</DistanceMeters>
          </Trackpoint>
          <Trackpoint>
            <Time>2021-03-13T11:01:03.000Z</Time>
            <Position>
              <LatitudeDegrees>36.74093194305896759033203125</LatitudeDegrees>
              <LongitudeDegrees>-4.007588066160678863525390625</LongitudeDegrees>
            </Position>
            <AltitudeMeters>5.400000095367431640625</AltitudeMeters>
            <DistanceMeters>66974.811736302</DistanceMeters>
          </Trackpoint>
          <Trackpoint>
            <Time>2021-03-13T11:01:08.000Z</Time>
            <Position>
              <LatitudeDegrees>36.7409532330930233001708984375</LatitudeDegrees>
              <LongitudeDegrees>-4.0081300400197505950927734375</LongitudeDegrees>
            </Position>
            <AltitudeMeters>5.400000095367431640625</AltitudeMeters>
            <DistanceMeters>67023.209355964</DistanceMeters>
          </Trackpoint>
          <Trackpoint>
            <Time>2021-03-13T11:01:10.000Z</Time>
            <Position>
              <LatitudeDegrees>36.7409830726683139801025390625</LatitudeDegrees>
              <LongitudeDegrees>-4.0083503164350986480712890625</LongitudeDegrees>
            </Position>
            <AltitudeMeters>5.400000095367431640625</AltitudeMeters>
            <DistanceMeters>67043.135078061</DistanceMeters>
          </Trackpoint>
          <Trackpoint>
            <Time>2021-03-13T11:01:13.000Z</Time>
            <Position>
              <LatitudeDegrees>36.74105792306363582611083984375</LatitudeDegrees>
              <LongitudeDegrees>-4.0086995065212249755859375</LongitudeDegrees>
            </Position>
            <AltitudeMeters>5.599999904632568359375</AltitudeMeters>
            <DistanceMeters>67075.374912879</DistanceMeters>
          </Trackpoint>
          <Trackpoint>
            <Time>2021-03-13T11:01:18.000Z</Time>
            <Position>
              <LatitudeDegrees>36.7412744276225566864013671875</LatitudeDegrees>
              <LongitudeDegrees>-4.0092515386641025543212890625</LongitudeDegrees>
            </Position>
            <AltitudeMeters>6</AltitudeMeters>
            <DistanceMeters>67130.191985475</DistanceMeters>
          </Trackpoint>
          <Trackpoint>
            <Time>2021-03-13T11:01:23.000Z</Time>
            <Position>
              <LatitudeDegrees>36.74157156608998775482177734375</LatitudeDegrees>
              <LongitudeDegrees>-4.00975168682634830474853515625</LongitudeDegrees>
            </Position>
            <AltitudeMeters>6.599999904632568359375</AltitudeMeters>
            <DistanceMeters>67185.723047639</DistanceMeters>
          </Trackpoint>
          <Trackpoint>
            <Time>2021-03-13T11:01:24.000Z</Time>
            <Position>
              <LatitudeDegrees>36.74163174815475940704345703125</LatitudeDegrees>
              <LongitudeDegrees>-4.00984573177993297576904296875</LongitudeDegrees>
            </Position>
            <AltitudeMeters>6.599999904632568359375</AltitudeMeters>
            <DistanceMeters>67196.457281446</DistanceMeters>
          </Trackpoint>
          <Trackpoint>
            <Time>2021-03-13T11:01:30.000Z</Time>
            <Position>
              <LatitudeDegrees>36.7419731430709362030029296875</LatitudeDegrees>
              <LongitudeDegrees>-4.01041704230010509490966796875</LongitudeDegrees>
            </Position>
            <AltitudeMeters>6.80000019073486328125</AltitudeMeters>
            <DistanceMeters>67260.020706803</DistanceMeters>
          </Trackpoint>
          <Trackpoint>
            <Time>2021-03-13T11:01:31.000Z</Time>
            <Position>
              <LatitudeDegrees>36.742015890777111053466796875</LatitudeDegrees>
              <LongitudeDegrees>-4.010527767241001129150390625</LongitudeDegrees>
            </Position>
            <AltitudeMeters>6.80000019073486328125</AltitudeMeters>
            <DistanceMeters>67270.982605692</DistanceMeters>
          </Trackpoint>
          <Trackpoint>
            <Time>2021-03-13T11:01:37.000Z</Time>
            <Position>
              <LatitudeDegrees>36.74221747554838657379150390625</LatitudeDegrees>
              <LongitudeDegrees>-4.0112380497157573699951171875</LongitudeDegrees>
            </Position>
            <AltitudeMeters>6.599999904632568359375</AltitudeMeters>
            <DistanceMeters>67338.188868019</DistanceMeters>
          </Trackpoint>
          <Trackpoint>
            <Time>2021-03-13T11:01:43.000Z</Time>
            <Position>
              <LatitudeDegrees>36.74234068952500820159912109375</LatitudeDegrees>
              <LongitudeDegrees>-4.01196735911071300506591796875</LongitudeDegrees>
            </Position>
            <AltitudeMeters>6.19999980926513671875</AltitudeMeters>
            <DistanceMeters>67404.665946931</DistanceMeters>
          </Trackpoint>
          <Trackpoint>
            <Time>2021-03-13T11:01:44.000Z</Time>
            <Position>
              <LatitudeDegrees>36.74235812388360500335693359375</LatitudeDegrees>
              <LongitudeDegrees>-4.012092836201190948486328125</LongitudeDegrees>
            </Position>
            <AltitudeMeters>6.19999980926513671875</AltitudeMeters>
            <DistanceMeters>67416.023925276</DistanceMeters>
          </Trackpoint>
          <Trackpoint>
            <Time>2021-03-13T11:01:49.000Z</Time>
            <Position>
              <LatitudeDegrees>36.7424002848565578460693359375</LatitudeDegrees>
              <LongitudeDegrees>-4.0127286873757839202880859375</LongitudeDegrees>
            </Position>
            <AltitudeMeters>5.80000019073486328125</AltitudeMeters>
            <DistanceMeters>67472.929298775</DistanceMeters>
          </Trackpoint>
          <Trackpoint>
            <Time>2021-03-13T11:01:53.000Z</Time>
            <Position>
              <LatitudeDegrees>36.742423586547374725341796875</LatitudeDegrees>
              <LongitudeDegrees>-4.01324727572500705718994140625</LongitudeDegrees>
            </Position>
            <AltitudeMeters>5.400000095367431640625</AltitudeMeters>
            <DistanceMeters>67519.254992591</DistanceMeters>
          </Trackpoint>
          <Trackpoint>
            <Time>2021-03-13T11:01:56.000Z</Time>
            <Position>
              <LatitudeDegrees>36.74243674613535404205322265625</LatitudeDegrees>
              <LongitudeDegrees>-4.01363904587924480438232421875</LongitudeDegrees>
            </Position>
            <AltitudeMeters>5.19999980926513671875</AltitudeMeters>
            <DistanceMeters>67554.227534734</DistanceMeters>
          </Trackpoint>
          <Trackpoint>
            <Time>2021-03-13T11:02:01.000Z</Time>
            <Position>
              <LatitudeDegrees>36.742498017847537994384765625</LatitudeDegrees>
              <LongitudeDegrees>-4.01427992619574069976806640625</LongitudeDegrees>
            </Position>
            <AltitudeMeters>4.80000019073486328125</AltitudeMeters>
            <DistanceMeters>67611.792864167</DistanceMeters>
          </Trackpoint>
          <Trackpoint>
            <Time>2021-03-13T11:02:02.000Z</Time>
            <Position>
              <LatitudeDegrees>36.74252919852733612060546875</LatitudeDegrees>
              <LongitudeDegrees>-4.01440163142979145050048828125</LongitudeDegrees>
            </Position>
            <AltitudeMeters>4.599999904632568359375</AltitudeMeters>
            <DistanceMeters>67623.18854446</DistanceMeters>
          </Trackpoint>
          <Trackpoint>
            <Time>2021-03-13T11:02:05.000Z</Time>
            <Position>
              <LatitudeDegrees>36.742643527686595916748046875</LatitudeDegrees>
              <LongitudeDegrees>-4.01478569023311138153076171875</LongitudeDegrees>
            </Position>
            <AltitudeMeters>4.599999904632568359375</AltitudeMeters>
            <DistanceMeters>67659.729745092</DistanceMeters>
          </Trackpoint>
          <Trackpoint>
            <Time>2021-03-13T11:02:07.000Z</Time>
            <Position>
              <LatitudeDegrees>36.74272793345153331756591796875</LatitudeDegrees>
              <LongitudeDegrees>-4.01499439962208271026611328125</LongitudeDegrees>
            </Position>
            <AltitudeMeters>4.19999980926513671875</AltitudeMeters>
            <DistanceMeters>67680.58026068</DistanceMeters>
          </Trackpoint>
          <Trackpoint>
            <Time>2021-03-13T11:02:08.000Z</Time>
            <Position>
              <LatitudeDegrees>36.74277923069894313812255859375</LatitudeDegrees>
              <LongitudeDegrees>-4.01510931551456451416015625</LongitudeDegrees>
            </Position>
            <AltitudeMeters>4.19999980926513671875</AltitudeMeters>
            <DistanceMeters>67692.312500673</DistanceMeters>
          </Trackpoint>
          <Trackpoint>
            <Time>2021-03-13T11:02:12.000Z</Time>
            <Position>
              <LatitudeDegrees>36.742974109947681427001953125</LatitudeDegrees>
              <LongitudeDegrees>-4.015567637979984283447265625</LongitudeDegrees>
            </Position>
            <AltitudeMeters>3.599999904632568359375</AltitudeMeters>
            <DistanceMeters>67738.588266559</DistanceMeters>
          </Trackpoint>
          <Trackpoint>
            <Time>2021-03-13T11:02:16.000Z</Time>
            <Position>
              <LatitudeDegrees>36.7431596852838993072509765625</LatitudeDegrees>
              <LongitudeDegrees>-4.01601866818964481353759765625</LongitudeDegrees>
            </Position>
            <AltitudeMeters>3.400000095367431640625</AltitudeMeters>
            <DistanceMeters>67783.808204093</DistanceMeters>
          </Trackpoint>
          <Trackpoint>
            <Time>2021-03-13T11:02:22.000Z</Time>
            <Position>
              <LatitudeDegrees>36.74339949153363704681396484375</LatitudeDegrees>
              <LongitudeDegrees>-4.0166763961315155029296875</LongitudeDegrees>
            </Position>
            <AltitudeMeters>3.400000095367431640625</AltitudeMeters>
            <DistanceMeters>67848.256986337</DistanceMeters>
          </Trackpoint>
          <Trackpoint>
            <Time>2021-03-13T11:02:28.000Z</Time>
            <Position>
              <LatitudeDegrees>36.74355086870491504669189453125</LatitudeDegrees>
              <LongitudeDegrees>-4.01743018068373203277587890625</LongitudeDegrees>
            </Position>
            <AltitudeMeters>3.599999904632568359375</AltitudeMeters>
            <DistanceMeters>67917.565148951</DistanceMeters>
          </Trackpoint>
          <Trackpoint>
            <Time>2021-03-13T11:02:34.000Z</Time>
            <Position>
              <LatitudeDegrees>36.74363653175532817840576171875</LatitudeDegrees>
              <LongitudeDegrees>-4.01813912205398082733154296875</LongitudeDegrees>
            </Position>
            <AltitudeMeters>4</AltitudeMeters>
            <DistanceMeters>67981.509443414</DistanceMeters>
          </Trackpoint>
          <Trackpoint>
            <Time>2021-03-13T11:02:36.000Z</Time>
            <Position>
              <LatitudeDegrees>36.7436656169593334197998046875</LatitudeDegrees>
              <LongitudeDegrees>-4.0183723904192447662353515625</LongitudeDegrees>
            </Position>
            <AltitudeMeters>4.400000095367431640625</AltitudeMeters>
            <DistanceMeters>68002.564670151</DistanceMeters>
          </Trackpoint>
          <Trackpoint>
            <Time>2021-03-13T11:02:42.000Z</Time>
            <Position>
              <LatitudeDegrees>36.74375421367585659027099609375</LatitudeDegrees>
              <LongitudeDegrees>-4.0190687589347362518310546875</LongitudeDegrees>
            </Position>
            <AltitudeMeters>4.400000095367431640625</AltitudeMeters>
            <DistanceMeters>68065.450604253</DistanceMeters>
          </Trackpoint>
          <Trackpoint>
            <Time>2021-03-13T11:02:46.000Z</Time>
            <Position>
              <LatitudeDegrees>36.74381087534129619598388671875</LatitudeDegrees>
              <LongitudeDegrees>-4.0195383131504058837890625</LongitudeDegrees>
            </Position>
            <AltitudeMeters>4.400000095367431640625</AltitudeMeters>
            <DistanceMeters>68107.801613259</DistanceMeters>
          </Trackpoint>
          <Trackpoint>
            <Time>2021-03-13T11:02:52.000Z</Time>
            <Position>
              <LatitudeDegrees>36.743903495371341705322265625</LatitudeDegrees>
              <LongitudeDegrees>-4.0202437341213226318359375</LongitudeDegrees>
            </Position>
            <AltitudeMeters>4</AltitudeMeters>
            <DistanceMeters>68171.555828404</DistanceMeters>
          </Trackpoint>
          <Trackpoint>
            <Time>2021-03-13T11:02:55.000Z</Time>
            <Position>
              <LatitudeDegrees>36.74394515343010425567626953125</LatitudeDegrees>
              <LongitudeDegrees>-4.02061463333666324615478515625</LongitudeDegrees>
            </Position>
            <AltitudeMeters>3.599999904632568359375</AltitudeMeters>
            <DistanceMeters>68204.959036417</DistanceMeters>
          </Trackpoint>
          <Trackpoint>
            <Time>2021-03-13T11:03:00.000Z</Time>
            <Position>
              <LatitudeDegrees>36.744001396000385284423828125</LatitudeDegrees>
              <LongitudeDegrees>-4.02116515673696994781494140625</LongitudeDegrees>
            </Position>
            <AltitudeMeters>3.400000095367431640625</AltitudeMeters>
            <DistanceMeters>68254.456553734</DistanceMeters>
          </Trackpoint>
          <Trackpoint>
            <Time>2021-03-13T11:03:03.000Z</Time>
            <Position>
              <LatitudeDegrees>36.74403349868953227996826171875</LatitudeDegrees>
              <LongitudeDegrees>-4.02145047672092914581298828125</LongitudeDegrees>
            </Position>
            <AltitudeMeters>3</AltitudeMeters>
            <DistanceMeters>68280.153154869</DistanceMeters>
          </Trackpoint>
          <Trackpoint>
            <Time>2021-03-13T11:03:05.000Z</Time>
            <Position>
              <LatitudeDegrees>36.74406065605580806732177734375</LatitudeDegrees>
              <LongitudeDegrees>-4.0216438472270965576171875</LongitudeDegrees>
            </Position>
            <AltitudeMeters>2.7999999523162841796875</AltitudeMeters>
            <DistanceMeters>68297.662326616</DistanceMeters>
          </Trackpoint>
          <Trackpoint>
            <Time>2021-03-13T11:03:06.000Z</Time>
            <Position>
              <LatitudeDegrees>36.74407415091991424560546875</LatitudeDegrees>
              <LongitudeDegrees>-4.02174702845513820648193359375</LongitudeDegrees>
            </Position>
            <AltitudeMeters>2.7999999523162841796875</AltitudeMeters>
            <DistanceMeters>68306.986573288</DistanceMeters>
          </Trackpoint>
          <Trackpoint>
            <Time>2021-03-13T11:03:09.000Z</Time>
            <Position>
              <LatitudeDegrees>36.744117401540279388427734375</LatitudeDegrees>
              <LongitudeDegrees>-4.0220849029719829559326171875</LongitudeDegrees>
            </Position>
            <AltitudeMeters>2.400000095367431640625</AltitudeMeters>
            <DistanceMeters>68337.503023336</DistanceMeters>
          </Trackpoint>
          <Trackpoint>
            <Time>2021-03-13T11:03:12.000Z</Time>
            <Position>
              <LatitudeDegrees>36.74416408874094486236572265625</LatitudeDegrees>
              <LongitudeDegrees>-4.02243820019066333770751953125</LongitudeDegrees>
            </Position>
            <AltitudeMeters>2.400000095367431640625</AltitudeMeters>
            <DistanceMeters>68369.438644886</DistanceMeters>
          </Trackpoint>
          <Trackpoint>
            <Time>2021-03-13T11:03:15.000Z</Time>
            <Position>
              <LatitudeDegrees>36.7442084290087223052978515625</LatitudeDegrees>
              <LongitudeDegrees>-4.02280231006443500518798828125</LongitudeDegrees>
            </Position>
            <AltitudeMeters>2.599999904632568359375</AltitudeMeters>
            <DistanceMeters>68402.28573903</DistanceMeters>
          </Trackpoint>
          <Trackpoint>
            <Time>2021-03-13T11:03:22.000Z</Time>
            <Position>
              <LatitudeDegrees>36.74431345425546169281005859375</LatitudeDegrees>
              <LongitudeDegrees>-4.0235748700797557830810546875</LongitudeDegrees>
            </Position>
            <AltitudeMeters>2.7999999523162841796875</AltitudeMeters>
            <DistanceMeters>68472.173219938</DistanceMeters>
          </Trackpoint>
          <Trackpoint>
            <Time>2021-03-13T11:03:25.000Z</Time>
            <Position>
              <LatitudeDegrees>36.74435846507549285888671875</LatitudeDegrees>
              <LongitudeDegrees>-4.02387837879359722137451171875</LongitudeDegrees>
            </Position>
            <AltitudeMeters>3</AltitudeMeters>
            <DistanceMeters>68499.702280321</DistanceMeters>
          </Trackpoint>
          <Trackpoint>
            <Time>2021-03-13T11:03:28.000Z</Time>
            <Position>
              <LatitudeDegrees>36.74439291469752788543701171875</LatitudeDegrees>
              <LongitudeDegrees>-4.02416713535785675048828125</LongitudeDegrees>
            </Position>
            <AltitudeMeters>3.2000000476837158203125</AltitudeMeters>
            <DistanceMeters>68525.739600058</DistanceMeters>
          </Trackpoint>
          <Trackpoint>
            <Time>2021-03-13T11:03:33.000Z</Time>
            <Position>
              <LatitudeDegrees>36.74441236071288585662841796875</LatitudeDegrees>
              <LongitudeDegrees>-4.0246806107461452484130859375</LongitudeDegrees>
            </Position>
            <AltitudeMeters>3.599999904632568359375</AltitudeMeters>
            <DistanceMeters>68571.586419946</DistanceMeters>
          </Trackpoint>
          <Trackpoint>
            <Time>2021-03-13T11:03:39.000Z</Time>
            <Position>
              <LatitudeDegrees>36.7443251051008701324462890625</LatitudeDegrees>
              <LongitudeDegrees>-4.02529207058250904083251953125</LongitudeDegrees>
            </Position>
            <AltitudeMeters>4</AltitudeMeters>
            <DistanceMeters>68626.979251569</DistanceMeters>
          </Trackpoint>
          <Trackpoint>
            <Time>2021-03-13T11:03:40.000Z</Time>
            <Position>
              <LatitudeDegrees>36.74431026913225650787353515625</LatitudeDegrees>
              <LongitudeDegrees>-4.025394916534423828125</LongitudeDegrees>
            </Position>
            <AltitudeMeters>4.19999980926513671875</AltitudeMeters>
            <DistanceMeters>68636.299623632</DistanceMeters>
          </Trackpoint>
          <Trackpoint>
            <Time>2021-03-13T11:03:47.000Z</Time>
            <Position>
              <LatitudeDegrees>36.74419292248785495758056640625</LatitudeDegrees>
              <LongitudeDegrees>-4.0261169336736202239990234375</LongitudeDegrees>
            </Position>
            <AltitudeMeters>4.19999980926513671875</AltitudeMeters>
            <DistanceMeters>68702.005906956</DistanceMeters>
          </Trackpoint>
          <Trackpoint>
            <Time>2021-03-13T11:03:53.000Z</Time>
            <Position>
              <LatitudeDegrees>36.7441378533840179443359375</LatitudeDegrees>
              <LongitudeDegrees>-4.02679762803018093109130859375</LongitudeDegrees>
            </Position>
            <AltitudeMeters>3.7999999523162841796875</AltitudeMeters>
            <DistanceMeters>68763.024305813</DistanceMeters>
          </Trackpoint>
          <Trackpoint>
            <Time>2021-03-13T11:03:59.000Z</Time>
            <Position>
              <LatitudeDegrees>36.74410541541874408721923828125</LatitudeDegrees>
              <LongitudeDegrees>-4.02754361741244792938232421875</LongitudeDegrees>
            </Position>
            <AltitudeMeters>3.2000000476837158203125</AltitudeMeters>
            <DistanceMeters>68829.655585138</DistanceMeters>
          </Trackpoint>
          <Trackpoint>
            <Time>2021-03-13T11:04:02.000Z</Time>
            <Position>
              <LatitudeDegrees>36.74405939877033233642578125</LatitudeDegrees>
              <LongitudeDegrees>-4.027894400060176849365234375</LongitudeDegrees>
            </Position>
            <AltitudeMeters>3.2000000476837158203125</AltitudeMeters>
            <DistanceMeters>68861.357499716</DistanceMeters>
          </Trackpoint>
          <Trackpoint>
            <Time>2021-03-13T11:04:03.000Z</Time>
            <Position>
              <LatitudeDegrees>36.74403148703277111053466796875</LatitudeDegrees>
              <LongitudeDegrees>-4.02800294570624828338623046875</LongitudeDegrees>
            </Position>
            <AltitudeMeters>3</AltitudeMeters>
            <DistanceMeters>68871.524470015</DistanceMeters>
          </Trackpoint>
          <Trackpoint>
            <Time>2021-03-13T11:04:08.000Z</Time>
            <Position>
              <LatitudeDegrees>36.74382043071091175079345703125</LatitudeDegrees>
              <LongitudeDegrees>-4.02852765284478664398193359375</LongitudeDegrees>
            </Position>
            <AltitudeMeters>3.2000000476837158203125</AltitudeMeters>
            <DistanceMeters>68923.887121409</DistanceMeters>
          </Trackpoint>
          <Trackpoint>
            <Time>2021-03-13T11:04:13.000Z</Time>
            <Position>
              <LatitudeDegrees>36.743497811257839202880859375</LatitudeDegrees>
              <LongitudeDegrees>-4.028929732739925384521484375</LongitudeDegrees>
            </Position>
            <AltitudeMeters>3.2000000476837158203125</AltitudeMeters>
            <DistanceMeters>68974.635657567</DistanceMeters>
          </Trackpoint>
          <Trackpoint>
            <Time>2021-03-13T11:04:20.000Z</Time>
            <Position>
              <LatitudeDegrees>36.7430480383336544036865234375</LatitudeDegrees>
              <LongitudeDegrees>-4.02946189977228641510009765625</LongitudeDegrees>
            </Position>
            <AltitudeMeters>4.400000095367431640625</AltitudeMeters>
            <DistanceMeters>69043.62001272</DistanceMeters>
          </Trackpoint>
          <Trackpoint>
            <Time>2021-03-13T11:04:24.000Z</Time>
            <Position>
              <LatitudeDegrees>36.742882244288921356201171875</LatitudeDegrees>
              <LongitudeDegrees>-4.029826931655406951904296875</LongitudeDegrees>
            </Position>
            <AltitudeMeters>5</AltitudeMeters>
            <DistanceMeters>69081.043048217</DistanceMeters>
          </Trackpoint>
          <Trackpoint>
            <Time>2021-03-13T11:04:29.000Z</Time>
            <Position>
              <LatitudeDegrees>36.74279364757239818572998046875</LatitudeDegrees>
              <LongitudeDegrees>-4.03033043257892131805419921875</LongitudeDegrees>
            </Position>
            <AltitudeMeters>6.19999980926513671875</AltitudeMeters>
            <DistanceMeters>69127.02007199</DistanceMeters>
          </Trackpoint>
          <Trackpoint>
            <Time>2021-03-13T11:04:33.000Z</Time>
            <Position>
              <LatitudeDegrees>36.7427757941186428070068359375</LatitudeDegrees>
              <LongitudeDegrees>-4.03071583248674869537353515625</LongitudeDegrees>
            </Position>
            <AltitudeMeters>7</AltitudeMeters>
            <DistanceMeters>69161.451228751</DistanceMeters>
          </Trackpoint>
          <Trackpoint>
            <Time>2021-03-13T11:04:37.000Z</Time>
            <Position>
              <LatitudeDegrees>36.74274637363851070404052734375</LatitudeDegrees>
              <LongitudeDegrees>-4.0310924313962459564208984375</LongitudeDegrees>
            </Position>
            <AltitudeMeters>7.80000019073486328125</AltitudeMeters>
            <DistanceMeters>69195.19922753</DistanceMeters>
          </Trackpoint>
          <Trackpoint>
            <Time>2021-03-13T11:04:38.000Z</Time>
            <Position>
              <LatitudeDegrees>36.7427392490208148956298828125</LatitudeDegrees>
              <LongitudeDegrees>-4.0311886556446552276611328125</LongitudeDegrees>
            </Position>
            <AltitudeMeters>8.3999996185302734375</AltitudeMeters>
            <DistanceMeters>69203.817893832</DistanceMeters>
          </Trackpoint>
          <Trackpoint>
            <Time>2021-03-13T11:04:42.000Z</Time>
            <Position>
              <LatitudeDegrees>36.74270756542682647705078125</LatitudeDegrees>
              <LongitudeDegrees>-4.03157430700957775115966796875</LongitudeDegrees>
            </Position>
            <AltitudeMeters>9.3999996185302734375</AltitudeMeters>
            <DistanceMeters>69238.394301117</DistanceMeters>
          </Trackpoint>
          <Trackpoint>
            <Time>2021-03-13T11:04:46.000Z</Time>
            <Position>
              <LatitudeDegrees>36.742677055299282073974609375</LatitudeDegrees>
              <LongitudeDegrees>-4.031980074942111968994140625</LongitudeDegrees>
            </Position>
            <AltitudeMeters>9.80000019073486328125</AltitudeMeters>
            <DistanceMeters>69274.743727319</DistanceMeters>
          </Trackpoint>
          <Trackpoint>
            <Time>2021-03-13T11:04:51.000Z</Time>
            <Position>
              <LatitudeDegrees>36.74264377914369106292724609375</LatitudeDegrees>
              <LongitudeDegrees>-4.0325361303985118865966796875</LongitudeDegrees>
            </Position>
            <AltitudeMeters>9.80000019073486328125</AltitudeMeters>
            <DistanceMeters>69324.476301232</DistanceMeters>
          </Trackpoint>
          <Trackpoint>
            <Time>2021-03-13T11:04:56.000Z</Time>
            <Position>
              <LatitudeDegrees>36.7426473833620548248291015625</LatitudeDegrees>
              <LongitudeDegrees>-4.0331205166876316070556640625</LongitudeDegrees>
            </Position>
            <AltitudeMeters>9.3999996185302734375</AltitudeMeters>
            <DistanceMeters>69376.599125397</DistanceMeters>
          </Trackpoint>
          <Trackpoint>
            <Time>2021-03-13T11:05:00.000Z</Time>
            <Position>
              <LatitudeDegrees>36.74276414327323436737060546875</LatitudeDegrees>
              <LongitudeDegrees>-4.03360205702483654022216796875</LongitudeDegrees>
            </Position>
            <AltitudeMeters>9.19999980926513671875</AltitudeMeters>
            <DistanceMeters>69421.4706554</DistanceMeters>
          </Trackpoint>
          <Trackpoint>
            <Time>2021-03-13T11:05:03.000Z</Time>
            <Position>
              <LatitudeDegrees>36.7428974993526935577392578125</LatitudeDegrees>
              <LongitudeDegrees>-4.03396599926054477691650390625</LongitudeDegrees>
            </Position>
            <AltitudeMeters>8</AltitudeMeters>
            <DistanceMeters>69457.163023276</DistanceMeters>
          </Trackpoint>
          <Trackpoint>
            <Time>2021-03-13T11:05:05.000Z</Time>
            <Position>
              <LatitudeDegrees>36.742992885410785675048828125</LatitudeDegrees>
              <LongitudeDegrees>-4.03421125374734401702880859375</LongitudeDegrees>
            </Position>
            <AltitudeMeters>7.400000095367431640625</AltitudeMeters>
            <DistanceMeters>69481.477609532</DistanceMeters>
          </Trackpoint>
          <Trackpoint>
            <Time>2021-03-13T11:05:07.000Z</Time>
            <Position>
              <LatitudeDegrees>36.74309120513498783111572265625</LatitudeDegrees>
              <LongitudeDegrees>-4.0344562567770481109619140625</LongitudeDegrees>
            </Position>
            <AltitudeMeters>6.599999904632568359375</AltitudeMeters>
            <DistanceMeters>69505.91629313</DistanceMeters>
          </Trackpoint>
          <Trackpoint>
            <Time>2021-03-13T11:05:11.000Z</Time>
            <Position>
              <LatitudeDegrees>36.74326890148222446441650390625</LatitudeDegrees>
              <LongitudeDegrees>-4.03493025340139865875244140625</LongitudeDegrees>
            </Position>
            <AltitudeMeters>5.599999904632568359375</AltitudeMeters>
            <DistanceMeters>69552.589309863</DistanceMeters>
          </Trackpoint>
          <Trackpoint>
            <Time>2021-03-13T11:05:13.000Z</Time>
            <Position>
              <LatitudeDegrees>36.74334299750626087188720703125</LatitudeDegrees>
              <LongitudeDegrees>-4.03516679070889949798583984375</LongitudeDegrees>
            </Position>
            <AltitudeMeters>5.400000095367431640625</AltitudeMeters>
            <DistanceMeters>69575.240577233</DistanceMeters>
          </Trackpoint>
          <Trackpoint>
            <Time>2021-03-13T11:05:17.000Z</Time>
            <Position>
              <LatitudeDegrees>36.7434520460665225982666015625</LatitudeDegrees>
              <LongitudeDegrees>-4.0356350876390933990478515625</LongitudeDegrees>
            </Position>
            <AltitudeMeters>4.400000095367431640625</AltitudeMeters>
            <DistanceMeters>69618.735208567</DistanceMeters>
          </Trackpoint>
          <Trackpoint>
            <Time>2021-03-13T11:05:18.000Z</Time>
            <Position>
              <LatitudeDegrees>36.74347467720508575439453125</LatitudeDegrees>
              <LongitudeDegrees>-4.03575084172189235687255859375</LongitudeDegrees>
            </Position>
            <AltitudeMeters>4.19999980926513671875</AltitudeMeters>
            <DistanceMeters>69629.362067746</DistanceMeters>
          </Trackpoint>
          <Trackpoint>
            <Time>2021-03-13T11:05:20.000Z</Time>
            <Position>
              <LatitudeDegrees>36.74351801164448261260986328125</LatitudeDegrees>
              <LongitudeDegrees>-4.035959802567958831787109375</LongitudeDegrees>
            </Position>
            <AltitudeMeters>4</AltitudeMeters>
            <DistanceMeters>69648.61289467</DistanceMeters>
          </Trackpoint>
          <Trackpoint>
            <Time>2021-03-13T11:05:21.000Z</Time>
            <Position>
              <LatitudeDegrees>36.7435529641807079315185546875</LatitudeDegrees>
              <LongitudeDegrees>-4.0360518358647823333740234375</LongitudeDegrees>
            </Position>
            <AltitudeMeters>3.7999999523162841796875</AltitudeMeters>
            <DistanceMeters>69657.695778484</DistanceMeters>
          </Trackpoint>
          <Trackpoint>
            <Time>2021-03-13T11:05:22.000Z</Time>
            <Position>
              <LatitudeDegrees>36.74360199831426143646240234375</LatitudeDegrees>
              <LongitudeDegrees>-4.03613322414457798004150390625</LongitudeDegrees>
            </Position>
            <AltitudeMeters>3.599999904632568359375</AltitudeMeters>
            <DistanceMeters>69666.777668059</DistanceMeters>
          </Trackpoint>
          <Trackpoint>
            <Time>2021-03-13T11:05:24.000Z</Time>
            <Position>
              <LatitudeDegrees>36.74372822977602481842041015625</LatitudeDegrees>
              <LongitudeDegrees>-4.03624453581869602203369140625</LongitudeDegrees>
            </Position>
            <AltitudeMeters>3.400000095367431640625</AltitudeMeters>
            <DistanceMeters>69683.980915583</DistanceMeters>
          </Trackpoint>
          <Trackpoint>
            <Time>2021-03-13T11:05:26.000Z</Time>
            <Position>
              <LatitudeDegrees>36.7438248731195926666259765625</LatitudeDegrees>
              <LongitudeDegrees>-4.03639054857194423675537109375</LongitudeDegrees>
            </Position>
            <AltitudeMeters>3.400000095367431640625</AltitudeMeters>
            <DistanceMeters>69700.871095422</DistanceMeters>
          </Trackpoint>
          <Trackpoint>
            <Time>2021-03-13T11:05:28.000Z</Time>
            <Position>
              <LatitudeDegrees>36.74380500800907611846923828125</LatitudeDegrees>
              <LongitudeDegrees>-4.036565981805324554443359375</LongitudeDegrees>
            </Position>
            <AltitudeMeters>3.2000000476837158203125</AltitudeMeters>
            <DistanceMeters>69716.672983722</DistanceMeters>
          </Trackpoint>
          <Trackpoint>
            <Time>2021-03-13T11:05:30.000Z</Time>
            <Position>
              <LatitudeDegrees>36.74373661167919635772705078125</LatitudeDegrees>
              <LongitudeDegrees>-4.036735631525516510009765625</LongitudeDegrees>
            </Position>
            <AltitudeMeters>3</AltitudeMeters>
            <DistanceMeters>69733.610679215</DistanceMeters>
          </Trackpoint>
          <Trackpoint>
            <Time>2021-03-13T11:05:31.000Z</Time>
            <Position>
              <LatitudeDegrees>36.7437206022441387176513671875</LatitudeDegrees>
              <LongitudeDegrees>-4.036834202706813812255859375</LongitudeDegrees>
            </Position>
            <AltitudeMeters>3</AltitudeMeters>
            <DistanceMeters>69742.580516511</DistanceMeters>
          </Trackpoint>
          <Trackpoint>
            <Time>2021-03-13T11:05:32.000Z</Time>
            <Position>
              <LatitudeDegrees>36.7437246255576610565185546875</LatitudeDegrees>
              <LongitudeDegrees>-4.03693981468677520751953125</LongitudeDegrees>
            </Position>
            <AltitudeMeters>3</AltitudeMeters>
            <DistanceMeters>69752.010691102</DistanceMeters>
          </Trackpoint>
          <Trackpoint>
            <Time>2021-03-13T11:05:34.000Z</Time>
            <Position>
              <LatitudeDegrees>36.74376477487385272979736328125</LatitudeDegrees>
              <LongitudeDegrees>-4.03715631924569606781005859375</LongitudeDegrees>
            </Position>
            <AltitudeMeters>2.7999999523162841796875</AltitudeMeters>
            <DistanceMeters>69771.830994975</DistanceMeters>
          </Trackpoint>
          <Trackpoint>
            <Time>2021-03-13T11:05:36.000Z</Time>
            <Position>
              <LatitudeDegrees>36.74381640739738941192626953125</LatitudeDegrees>
              <LongitudeDegrees>-4.03737391345202922821044921875</LongitudeDegrees>
            </Position>
            <AltitudeMeters>2.400000095367431640625</AltitudeMeters>
            <DistanceMeters>69792.071015923</DistanceMeters>
          </Trackpoint>
          <Trackpoint>
            <Time>2021-03-13T11:05:40.000Z</Time>
            <Position>
              <LatitudeDegrees>36.743916906416416168212890625</LatitudeDegrees>
              <LongitudeDegrees>-4.0378499217331409454345703125</LongitudeDegrees>
            </Position>
            <AltitudeMeters>2.2000000476837158203125</AltitudeMeters>
            <DistanceMeters>69835.974283537</DistanceMeters>
          </Trackpoint>
          <Trackpoint>
            <Time>2021-03-13T11:05:44.000Z</Time>
            <Position>
              <LatitudeDegrees>36.74401489086449146270751953125</LatitudeDegrees>
              <LongitudeDegrees>-4.03834017924964427947998046875</LongitudeDegrees>
            </Position>
            <AltitudeMeters>2.2000000476837158203125</AltitudeMeters>
            <DistanceMeters>69881.038993366</DistanceMeters>
          </Trackpoint>
          <Trackpoint>
            <Time>2021-03-13T11:05:46.000Z</Time>
            <Position>
              <LatitudeDegrees>36.74406652338802814483642578125</LatitudeDegrees>
              <LongitudeDegrees>-4.03858761303126811981201171875</LongitudeDegrees>
            </Position>
            <AltitudeMeters>2</AltitudeMeters>
            <DistanceMeters>69903.843227015</DistanceMeters>
          </Trackpoint>
          <Trackpoint>
            <Time>2021-03-13T11:05:52.000Z</Time>
            <Position>
              <LatitudeDegrees>36.74421035684645175933837890625</LatitudeDegrees>
              <LongitudeDegrees>-4.03929839842021465301513671875</LongitudeDegrees>
            </Position>
            <AltitudeMeters>2.400000095367431640625</AltitudeMeters>
            <DistanceMeters>69969.22685486</DistanceMeters>
          </Trackpoint>
          <Trackpoint>
            <Time>2021-03-13T11:05:54.000Z</Time>
            <Position>
              <LatitudeDegrees>36.74425863660871982574462890625</LatitudeDegrees>
              <LongitudeDegrees>-4.0395207703113555908203125</LongitudeDegrees>
            </Position>
            <AltitudeMeters>2.400000095367431640625</AltitudeMeters>
            <DistanceMeters>69989.774830047</DistanceMeters>
          </Trackpoint>
          <Trackpoint>
            <Time>2021-03-13T11:06:00.000Z</Time>
            <Position>
              <LatitudeDegrees>36.7443908192217350006103515625</LatitudeDegrees>
              <LongitudeDegrees>-4.04019492678344249725341796875</LongitudeDegrees>
            </Position>
            <AltitudeMeters>2.400000095367431640625</AltitudeMeters>
            <DistanceMeters>70051.675088824</DistanceMeters>
          </Trackpoint>
          <Trackpoint>
            <Time>2021-03-13T11:06:01.000Z</Time>
            <Position>
              <LatitudeDegrees>36.74441604875028133392333984375</LatitudeDegrees>
              <LongitudeDegrees>-4.04031629674136638641357421875</LongitudeDegrees>
            </Position>
            <AltitudeMeters>2.2000000476837158203125</AltitudeMeters>
            <DistanceMeters>70062.858404913</DistanceMeters>
          </Trackpoint>
          <Trackpoint>
            <Time>2021-03-13T11:06:06.000Z</Time>
            <Position>
              <LatitudeDegrees>36.7445450462400913238525390625</LatitudeDegrees>
              <LongitudeDegrees>-4.0409297682344913482666015625</LongitudeDegrees>
            </Position>
            <AltitudeMeters>2</AltitudeMeters>
            <DistanceMeters>70119.424927412</DistanceMeters>
          </Trackpoint>
          <Trackpoint>
            <Time>2021-03-13T11:06:12.000Z</Time>
            <Position>
              <LatitudeDegrees>36.74468594603240489959716796875</LatitudeDegrees>
              <LongitudeDegrees>-4.041606523096561431884765625</LongitudeDegrees>
            </Position>
            <AltitudeMeters>2</AltitudeMeters>
            <DistanceMeters>70181.787073003</DistanceMeters>
          </Trackpoint>
          <Trackpoint>
            <Time>2021-03-13T11:06:13.000Z</Time>
            <Position>
              <LatitudeDegrees>36.74471561796963214874267578125</LatitudeDegrees>
              <LongitudeDegrees>-4.0417408011853694915771484375</LongitudeDegrees>
            </Position>
            <AltitudeMeters>2.2000000476837158203125</AltitudeMeters>
            <DistanceMeters>70194.210157825</DistanceMeters>
          </Trackpoint>
          <Trackpoint>
            <Time>2021-03-13T11:06:19.000Z</Time>
            <Position>
              <LatitudeDegrees>36.74486515112221240997314453125</LatitudeDegrees>
              <LongitudeDegrees>-4.04244177974760532379150390625</LongitudeDegrees>
            </Position>
            <AltitudeMeters>2.400000095367431640625</AltitudeMeters>
            <DistanceMeters>70258.905975253</DistanceMeters>
          </Trackpoint>
          <Trackpoint>
            <Time>2021-03-13T11:06:23.000Z</Time>
            <Position>
              <LatitudeDegrees>36.744960956275463104248046875</LatitudeDegrees>
              <LongitudeDegrees>-4.0429032035171985626220703125</LongitudeDegrees>
            </Position>
            <AltitudeMeters>2.400000095367431640625</AltitudeMeters>
            <DistanceMeters>70301.418085287</DistanceMeters>
          </Trackpoint>
          <Trackpoint>
            <Time>2021-03-13T11:06:29.000Z</Time>
            <Position>
              <LatitudeDegrees>36.745111830532550811767578125</LatitudeDegrees>
              <LongitudeDegrees>-4.0435720793902873992919921875</LongitudeDegrees>
            </Position>
            <AltitudeMeters>2.400000095367431640625</AltitudeMeters>
            <DistanceMeters>70363.391533097</DistanceMeters>
          </Trackpoint>
          <Trackpoint>
            <Time>2021-03-13T11:06:31.000Z</Time>
            <Position>
              <LatitudeDegrees>36.74517142586410045623779296875</LatitudeDegrees>
              <LongitudeDegrees>-4.04381297528743743896484375</LongitudeDegrees>
            </Position>
            <AltitudeMeters>2.400000095367431640625</AltitudeMeters>
            <DistanceMeters>70385.876950151</DistanceMeters>
          </Trackpoint>
          <Trackpoint>
            <Time>2021-03-13T11:06:37.000Z</Time>
            <Position>
              <LatitudeDegrees>36.7453114874660968780517578125</LatitudeDegrees>
              <LongitudeDegrees>-4.04450506903231143951416015625</LongitudeDegrees>
            </Position>
            <AltitudeMeters>2.599999904632568359375</AltitudeMeters>
            <DistanceMeters>70449.54073555</DistanceMeters>
          </Trackpoint>
          <Trackpoint>
            <Time>2021-03-13T11:06:39.000Z</Time>
            <Position>
              <LatitudeDegrees>36.74534912221133708953857421875</LatitudeDegrees>
              <LongitudeDegrees>-4.04469500295817852020263671875</LongitudeDegrees>
            </Position>
            <AltitudeMeters>2.599999904632568359375</AltitudeMeters>
            <DistanceMeters>70466.990497087</DistanceMeters>
          </Trackpoint>
          <Trackpoint>
            <Time>2021-03-13T11:06:42.000Z</Time>
            <Position>
              <LatitudeDegrees>36.74538130871951580047607421875</LatitudeDegrees>
              <LongitudeDegrees>-4.0448836795985698699951171875</LongitudeDegrees>
            </Position>
            <AltitudeMeters>2.7999999523162841796875</AltitudeMeters>
            <DistanceMeters>70484.195056824</DistanceMeters>
          </Trackpoint>
          <Trackpoint>
            <Time>2021-03-13T11:06:46.000Z</Time>
            <Position>
              <LatitudeDegrees>36.74541064538061618804931640625</LatitudeDegrees>
              <LongitudeDegrees>-4.0450013615190982818603515625</LongitudeDegrees>
            </Position>
            <AltitudeMeters>3</AltitudeMeters>
            <DistanceMeters>70495.18698217</DistanceMeters>
          </Trackpoint>
          <Trackpoint>
            <Time>2021-03-13T11:06:52.000Z</Time>
            <Position>
              <LatitudeDegrees>36.74542472697794437408447265625</LatitudeDegrees>
              <LongitudeDegrees>-4.04506556689739227294921875</LongitudeDegrees>
            </Position>
            <AltitudeMeters>3</AltitudeMeters>
            <DistanceMeters>70501.122920031</DistanceMeters>
          </Trackpoint>
          <Trackpoint>
            <Time>2021-03-13T11:06:58.000Z</Time>
            <Position>
              <LatitudeDegrees>36.745452471077442169189453125</LatitudeDegrees>
              <LongitudeDegrees>-4.04522490687668323516845703125</LongitudeDegrees>
            </Position>
            <AltitudeMeters>3</AltitudeMeters>
            <DistanceMeters>70515.665422921</DistanceMeters>
          </Trackpoint>
          <Trackpoint>
            <Time>2021-03-13T11:07:03.000Z</Time>
            <Position>
              <LatitudeDegrees>36.74551558680832386016845703125</LatitudeDegrees>
              <LongitudeDegrees>-4.04547301121056079864501953125</LongitudeDegrees>
            </Position>
            <AltitudeMeters>3</AltitudeMeters>
            <DistanceMeters>70538.881326365</DistanceMeters>
          </Trackpoint>
          <Trackpoint>
            <Time>2021-03-13T11:07:07.000Z</Time>
            <Position>
              <LatitudeDegrees>36.74558767117559909820556640625</LatitudeDegrees>
              <LongitudeDegrees>-4.04577777720987796783447265625</LongitudeDegrees>
            </Position>
            <AltitudeMeters>2.7999999523162841796875</AltitudeMeters>
            <DistanceMeters>70567.221759483</DistanceMeters>
          </Trackpoint>
          <Trackpoint>
            <Time>2021-03-13T11:07:13.000Z</Time>
            <Position>
              <LatitudeDegrees>36.7456859908998012542724609375</LatitudeDegrees>
              <LongitudeDegrees>-4.046288318932056427001953125</LongitudeDegrees>
            </Position>
            <AltitudeMeters>2.599999904632568359375</AltitudeMeters>
            <DistanceMeters>70614.051711065</DistanceMeters>
          </Trackpoint>
          <Trackpoint>
            <Time>2021-03-13T11:07:16.000Z</Time>
            <Position>
              <LatitudeDegrees>36.7457614280283451080322265625</LatitudeDegrees>
              <LongitudeDegrees>-4.04649795033037662506103515625</LongitudeDegrees>
            </Position>
            <AltitudeMeters>2.599999904632568359375</AltitudeMeters>
            <DistanceMeters>70634.546882837</DistanceMeters>
          </Trackpoint>
          <Trackpoint>
            <Time>2021-03-13T11:07:18.000Z</Time>
            <Position>
              <LatitudeDegrees>36.74582672305405139923095703125</LatitudeDegrees>
              <LongitudeDegrees>-4.046634323894977569580078125</LongitudeDegrees>
            </Position>
            <AltitudeMeters>2.7999999523162841796875</AltitudeMeters>
            <DistanceMeters>70648.715745159</DistanceMeters>
          </Trackpoint>
          <Trackpoint>
            <Time>2021-03-13T11:07:20.000Z</Time>
            <Position>
              <LatitudeDegrees>36.74584616906940937042236328125</LatitudeDegrees>
              <LongitudeDegrees>-4.0467957593500614166259765625</LongitudeDegrees>
            </Position>
            <AltitudeMeters>2.7999999523162841796875</AltitudeMeters>
            <DistanceMeters>70663.275624094</DistanceMeters>
          </Trackpoint>
          <Trackpoint>
            <Time>2021-03-13T11:07:21.000Z</Time>
            <Position>
              <LatitudeDegrees>36.74583829008042812347412109375</LatitudeDegrees>
              <LongitudeDegrees>-4.04687765054404735565185546875</LongitudeDegrees>
            </Position>
            <AltitudeMeters>3</AltitudeMeters>
            <DistanceMeters>70670.632066721</DistanceMeters>
          </Trackpoint>
          <Trackpoint>
            <Time>2021-03-13T11:07:22.000Z</Time>
            <Position>
              <LatitudeDegrees>36.7458348535001277923583984375</LatitudeDegrees>
              <LongitudeDegrees>-4.04696113429963588714599609375</LongitudeDegrees>
            </Position>
            <AltitudeMeters>3.2000000476837158203125</AltitudeMeters>
            <DistanceMeters>70678.087879929</DistanceMeters>
          </Trackpoint>
          <Trackpoint>
            <Time>2021-03-13T11:07:25.000Z</Time>
            <Position>
              <LatitudeDegrees>36.74586595036089420318603515625</LatitudeDegrees>
              <LongitudeDegrees>-4.0471945703029632568359375</LongitudeDegrees>
            </Position>
            <AltitudeMeters>3.2000000476837158203125</AltitudeMeters>
            <DistanceMeters>70699.192797618</DistanceMeters>
          </Trackpoint>
          <Trackpoint>
            <Time>2021-03-13T11:07:26.000Z</Time>
            <Position>
              <LatitudeDegrees>36.745887659490108489990234375</LatitudeDegrees>
              <LongitudeDegrees>-4.0472956560552120208740234375</LongitudeDegrees>
            </Position>
            <AltitudeMeters>3.2000000476837158203125</AltitudeMeters>
            <DistanceMeters>70708.526240041</DistanceMeters>
          </Trackpoint>
          <Trackpoint>
            <Time>2021-03-13T11:07:28.000Z</Time>
            <Position>
              <LatitudeDegrees>36.745923869311809539794921875</LatitudeDegrees>
              <LongitudeDegrees>-4.04746270738542079925537109375</LongitudeDegrees>
            </Position>
            <AltitudeMeters>3.400000095367431640625</AltitudeMeters>
            <DistanceMeters>70723.960111445</DistanceMeters>
          </Trackpoint>
          <Trackpoint>
            <Time>2021-03-13T11:07:29.000Z</Time>
            <Position>
              <LatitudeDegrees>36.7459374479949474334716796875</LatitudeDegrees>
              <LongitudeDegrees>-4.04752917587757110595703125</LongitudeDegrees>
            </Position>
            <AltitudeMeters>3.599999904632568359375</AltitudeMeters>
            <DistanceMeters>70730.07735239</DistanceMeters>
          </Trackpoint>
          <Trackpoint>
            <Time>2021-03-13T11:07:30.000Z</Time>
            <Position>
              <LatitudeDegrees>36.7459612525999546051025390625</LatitudeDegrees>
              <LongitudeDegrees>-4.0476312674582004547119140625</LongitudeDegrees>
            </Position>
            <AltitudeMeters>3.599999904632568359375</AltitudeMeters>
            <DistanceMeters>70739.560047219</DistanceMeters>
          </Trackpoint>
          <Trackpoint>
            <Time>2021-03-13T11:07:38.000Z</Time>
            <Position>
              <LatitudeDegrees>36.74610466696321964263916015625</LatitudeDegrees>
              <LongitudeDegrees>-4.04831707477569580078125</LongitudeDegrees>
            </Position>
            <AltitudeMeters>4.400000095367431640625</AltitudeMeters>
            <DistanceMeters>70802.772814734</DistanceMeters>
          </Trackpoint>
          <Trackpoint>
            <Time>2021-03-13T11:07:42.000Z</Time>
            <Position>
              <LatitudeDegrees>36.74617691896855831146240234375</LatitudeDegrees>
              <LongitudeDegrees>-4.04865796677768230438232421875</LongitudeDegrees>
            </Position>
            <AltitudeMeters>4.400000095367431640625</AltitudeMeters>
            <DistanceMeters>70834.220914871</DistanceMeters>
          </Trackpoint>
          <Trackpoint>
            <Time>2021-03-13T11:07:46.000Z</Time>
            <Position>
              <LatitudeDegrees>36.746249757707118988037109375</LatitudeDegrees>
              <LongitudeDegrees>-4.0489978529512882232666015625</LongitudeDegrees>
            </Position>
            <AltitudeMeters>5.19999980926513671875</AltitudeMeters>
            <DistanceMeters>70865.599161875</DistanceMeters>
          </Trackpoint>
          <Trackpoint>
            <Time>2021-03-13T11:07:50.000Z</Time>
            <Position>
              <LatitudeDegrees>36.7463319003582000732421875</LatitudeDegrees>
              <LongitudeDegrees>-4.049366824328899383544921875</LongitudeDegrees>
            </Position>
            <AltitudeMeters>5.400000095367431640625</AltitudeMeters>
            <DistanceMeters>70899.75250863</DistanceMeters>
          </Trackpoint>
          <Trackpoint>
            <Time>2021-03-13T11:07:51.000Z</Time>
            <Position>
              <LatitudeDegrees>36.74635008908808231353759765625</LatitudeDegrees>
              <LongitudeDegrees>-4.0494601987302303314208984375</LongitudeDegrees>
            </Position>
            <AltitudeMeters>5.400000095367431640625</AltitudeMeters>
            <DistanceMeters>70908.322843618</DistanceMeters>
          </Trackpoint>
          <Trackpoint>
            <Time>2021-03-13T11:07:52.000Z</Time>
            <Position>
              <LatitudeDegrees>36.74637221731245517730712890625</LatitudeDegrees>
              <LongitudeDegrees>-4.04957075603306293487548828125</LongitudeDegrees>
            </Position>
            <AltitudeMeters>5.599999904632568359375</AltitudeMeters>
            <DistanceMeters>70918.485816331</DistanceMeters>
          </Trackpoint>
          <Trackpoint>
            <Time>2021-03-13T11:08:00.000Z</Time>
            <Position>
              <LatitudeDegrees>36.74652107991278171539306640625</LatitudeDegrees>
              <LongitudeDegrees>-4.0502863191068172454833984375</LongitudeDegrees>
            </Position>
            <AltitudeMeters>6.19999980926513671875</AltitudeMeters>
            <DistanceMeters>70984.419292512</DistanceMeters>
          </Trackpoint>
          <Trackpoint>
            <Time>2021-03-13T11:08:04.000Z</Time>
            <Position>
              <LatitudeDegrees>36.7465999536216259002685546875</LatitudeDegrees>
              <LongitudeDegrees>-4.0506671927869319915771484375</LongitudeDegrees>
            </Position>
            <AltitudeMeters>6.19999980926513671875</AltitudeMeters>
            <DistanceMeters>71019.503587863</DistanceMeters>
          </Trackpoint>
          <Trackpoint>
            <Time>2021-03-13T11:08:06.000Z</Time>
            <Position>
              <LatitudeDegrees>36.7466297931969165802001953125</LatitudeDegrees>
              <LongitudeDegrees>-4.050837345421314239501953125</LongitudeDegrees>
            </Position>
            <AltitudeMeters>6.400000095367431640625</AltitudeMeters>
            <DistanceMeters>71035.038058014</DistanceMeters>
          </Trackpoint>
          <Trackpoint>
            <Time>2021-03-13T11:08:09.000Z</Time>
            <Position>
              <LatitudeDegrees>36.74669735133647918701171875</LatitudeDegrees>
              <LongitudeDegrees>-4.0511426143348217010498046875</LongitudeDegrees>
            </Position>
            <AltitudeMeters>6.400000095367431640625</AltitudeMeters>
            <DistanceMeters>71063.282900615</DistanceMeters>
          </Trackpoint>
          <Trackpoint>
            <Time>2021-03-13T11:08:17.000Z</Time>
            <Position>
              <LatitudeDegrees>36.74684998579323291778564453125</LatitudeDegrees>
              <LongitudeDegrees>-4.0518782101571559906005859375</LongitudeDegrees>
            </Position>
            <AltitudeMeters>5.80000019073486328125</AltitudeMeters>
            <DistanceMeters>71131.050874007</DistanceMeters>
          </Trackpoint>
          <Trackpoint>
            <Time>2021-03-13T11:08:18.000Z</Time>
            <Position>
              <LatitudeDegrees>36.7468683421611785888671875</LatitudeDegrees>
              <LongitudeDegrees>-4.05196647159755229949951171875</LongitudeDegrees>
            </Position>
            <AltitudeMeters>5.599999904632568359375</AltitudeMeters>
            <DistanceMeters>71139.183295533</DistanceMeters>
          </Trackpoint>
          <Trackpoint>
            <Time>2021-03-13T11:08:20.000Z</Time>
            <Position>
              <LatitudeDegrees>36.74691435880959033966064453125</LatitudeDegrees>
              <LongitudeDegrees>-4.05211298726499080657958984375</LongitudeDegrees>
            </Position>
            <AltitudeMeters>5.599999904632568359375</AltitudeMeters>
            <DistanceMeters>71153.218647956</DistanceMeters>
          </Trackpoint>
          <Trackpoint>
            <Time>2021-03-13T11:08:22.000Z</Time>
            <Position>
              <LatitudeDegrees>36.747006811201572418212890625</LatitudeDegrees>
              <LongitudeDegrees>-4.0522802062332630157470703125</LongitudeDegrees>
            </Position>
            <AltitudeMeters>5.19999980926513671875</AltitudeMeters>
            <DistanceMeters>71171.337877776</DistanceMeters>
          </Trackpoint>
          <Trackpoint>
            <Time>2021-03-13T11:08:23.000Z</Time>
            <Position>
              <LatitudeDegrees>36.7470374889671802520751953125</LatitudeDegrees>
              <LongitudeDegrees>-4.05234265141189098358154296875</LongitudeDegrees>
            </Position>
            <AltitudeMeters>5</AltitudeMeters>
            <DistanceMeters>71177.869884451</DistanceMeters>
          </Trackpoint>
          <Trackpoint>
            <Time>2021-03-13T11:08:25.000Z</Time>
            <Position>
              <LatitudeDegrees>36.747068502008914947509765625</LatitudeDegrees>
              <LongitudeDegrees>-4.05253660865128040313720703125</LongitudeDegrees>
            </Position>
            <AltitudeMeters>4.80000019073486328125</AltitudeMeters>
            <DistanceMeters>71195.508542387</DistanceMeters>
          </Trackpoint>
          <Trackpoint>
            <Time>2021-03-13T11:08:28.000Z</Time>
            <Position>
              <LatitudeDegrees>36.7470633052289485931396484375</LatitudeDegrees>
              <LongitudeDegrees>-4.0528164803981781005859375</LongitudeDegrees>
            </Position>
            <AltitudeMeters>4.80000019073486328125</AltitudeMeters>
            <DistanceMeters>71220.475444016</DistanceMeters>
          </Trackpoint>
          <Trackpoint>
            <Time>2021-03-13T11:08:29.000Z</Time>
            <Position>
              <LatitudeDegrees>36.747081577777862548828125</LatitudeDegrees>
              <LongitudeDegrees>-4.05291144736111164093017578125</LongitudeDegrees>
            </Position>
            <AltitudeMeters>4.80000019073486328125</AltitudeMeters>
            <DistanceMeters>71229.185823013</DistanceMeters>
          </Trackpoint>
          <Trackpoint>
            <Time>2021-03-13T11:08:30.000Z</Time>
            <Position>
              <LatitudeDegrees>36.7470988444983959197998046875</LatitudeDegrees>
              <LongitudeDegrees>-4.05298856087028980255126953125</LongitudeDegrees>
            </Position>
            <AltitudeMeters>4.599999904632568359375</AltitudeMeters>
            <DistanceMeters>71236.32738249</DistanceMeters>
          </Trackpoint>
          <Trackpoint>
            <Time>2021-03-13T11:08:37.000Z</Time>
            <Position>
              <LatitudeDegrees>36.74724443815648555755615234375</LatitudeDegrees>
              <LongitudeDegrees>-4.05368660576641559600830078125</LongitudeDegrees>
            </Position>
            <AltitudeMeters>4.599999904632568359375</AltitudeMeters>
            <DistanceMeters>71300.656607981</DistanceMeters>
          </Trackpoint>
          <Trackpoint>
            <Time>2021-03-13T11:08:39.000Z</Time>
            <Position>
              <LatitudeDegrees>36.74728467129170894622802734375</LatitudeDegrees>
              <LongitudeDegrees>-4.0538784675300121307373046875</LongitudeDegrees>
            </Position>
            <AltitudeMeters>4.400000095367431640625</AltitudeMeters>
            <DistanceMeters>71318.343834115</DistanceMeters>
          </Trackpoint>
          <Trackpoint>
            <Time>2021-03-13T11:08:44.000Z</Time>
            <Position>
              <LatitudeDegrees>36.747376956045627593994140625</LatitudeDegrees>
              <LongitudeDegrees>-4.05433972366154193878173828125</LongitudeDegrees>
            </Position>
            <AltitudeMeters>4</AltitudeMeters>
            <DistanceMeters>71360.743642355</DistanceMeters>
          </Trackpoint>
          <Trackpoint>
            <Time>2021-03-13T11:08:52.000Z</Time>
            <Position>
              <LatitudeDegrees>36.7475162632763385772705078125</LatitudeDegrees>
              <LongitudeDegrees>-4.0549976192414760589599609375</LongitudeDegrees>
            </Position>
            <AltitudeMeters>4</AltitudeMeters>
            <DistanceMeters>71421.431573928</DistanceMeters>
          </Trackpoint>
          <Trackpoint>
            <Time>2021-03-13T11:08:53.000Z</Time>
            <Position>
              <LatitudeDegrees>36.7475363798439502716064453125</LatitudeDegrees>
              <LongitudeDegrees>-4.05508889816701412200927734375</LongitudeDegrees>
            </Position>
            <AltitudeMeters>4</AltitudeMeters>
            <DistanceMeters>71429.874525038</DistanceMeters>
          </Trackpoint>
          <Trackpoint>
            <Time>2021-03-13T11:08:55.000Z</Time>
            <Position>
              <LatitudeDegrees>36.74758474342525005340576171875</LatitudeDegrees>
              <LongitudeDegrees>-4.05520607717335224151611328125</LongitudeDegrees>
            </Position>
            <AltitudeMeters>4</AltitudeMeters>
            <DistanceMeters>71441.629832768</DistanceMeters>
          </Trackpoint>
          <Trackpoint>
            <Time>2021-03-13T11:08:56.000Z</Time>
            <Position>
              <LatitudeDegrees>36.747626401484012603759765625</LatitudeDegrees>
              <LongitudeDegrees>-4.05526072718203067779541015625</LongitudeDegrees>
            </Position>
            <AltitudeMeters>3.7999999523162841796875</AltitudeMeters>
            <DistanceMeters>71448.355952228</DistanceMeters>
          </Trackpoint>
          <Trackpoint>
            <Time>2021-03-13T11:08:58.000Z</Time>
            <Position>
              <LatitudeDegrees>36.7477373778820037841796875</LatitudeDegrees>
              <LongitudeDegrees>-4.05538360588252544403076171875</LongitudeDegrees>
            </Position>
            <AltitudeMeters>3.599999904632568359375</AltitudeMeters>
            <DistanceMeters>71464.868193994</DistanceMeters>
          </Trackpoint>
          <Trackpoint>
            <Time>2021-03-13T11:08:59.000Z</Time>
            <Position>
              <LatitudeDegrees>36.7477777786552906036376953125</LatitudeDegrees>
              <LongitudeDegrees>-4.055451415479183197021484375</LongitudeDegrees>
            </Position>
            <AltitudeMeters>3.599999904632568359375</AltitudeMeters>
            <DistanceMeters>71472.403518849</DistanceMeters>
          </Trackpoint>
          <Trackpoint>
            <Time>2021-03-13T11:09:00.000Z</Time>
            <Position>
              <LatitudeDegrees>36.7478082887828350067138671875</LatitudeDegrees>
              <LongitudeDegrees>-4.0555300377309322357177734375</LongitudeDegrees>
            </Position>
            <AltitudeMeters>3.599999904632568359375</AltitudeMeters>
            <DistanceMeters>71480.19397094</DistanceMeters>
          </Trackpoint>
          <Trackpoint>
            <Time>2021-03-13T11:09:02.000Z</Time>
            <Position>
              <LatitudeDegrees>36.7478263936936855316162109375</LatitudeDegrees>
              <LongitudeDegrees>-4.05569918453693389892578125</LongitudeDegrees>
            </Position>
            <AltitudeMeters>3.599999904632568359375</AltitudeMeters>
            <DistanceMeters>71495.413085921</DistanceMeters>
          </Trackpoint>
          <Trackpoint>
            <Time>2021-03-13T11:09:04.000Z</Time>
            <Position>
              <LatitudeDegrees>36.747808121144771575927734375</LatitudeDegrees>
              <LongitudeDegrees>-4.0558834187686443328857421875</LongitudeDegrees>
            </Position>
            <AltitudeMeters>3.400000095367431640625</AltitudeMeters>
            <DistanceMeters>71511.969565031</DistanceMeters>
          </Trackpoint>
          <Trackpoint>
            <Time>2021-03-13T11:09:06.000Z</Time>
            <Position>
              <LatitudeDegrees>36.7477794550359249114990234375</LatitudeDegrees>
              <LongitudeDegrees>-4.05606404878199100494384765625</LongitudeDegrees>
            </Position>
            <AltitudeMeters>3.400000095367431640625</AltitudeMeters>
            <DistanceMeters>71528.39187495</DistanceMeters>
          </Trackpoint>
          <Trackpoint>
            <Time>2021-03-13T11:09:08.000Z</Time>
            <Position>
              <LatitudeDegrees>36.7477972246706485748291015625</LatitudeDegrees>
              <LongitudeDegrees>-4.05625381506979465484619140625</LongitudeDegrees>
            </Position>
            <AltitudeMeters>3.400000095367431640625</AltitudeMeters>
            <DistanceMeters>71545.431094939</DistanceMeters>
          </Trackpoint>
          <Trackpoint>
            <Time>2021-03-13T11:09:09.000Z</Time>
            <Position>
              <LatitudeDegrees>36.7478190176188945770263671875</LatitudeDegrees>
              <LongitudeDegrees>-4.05634819529950618743896484375</LongitudeDegrees>
            </Position>
            <AltitudeMeters>3.2000000476837158203125</AltitudeMeters>
            <DistanceMeters>71554.190578916</DistanceMeters>
          </Trackpoint>
          <Trackpoint>
            <Time>2021-03-13T11:09:14.000Z</Time>
            <Position>
              <LatitudeDegrees>36.74792580306529998779296875</LatitudeDegrees>
              <LongitudeDegrees>-4.056833423674106597900390625</LongitudeDegrees>
            </Position>
            <AltitudeMeters>3</AltitudeMeters>
            <DistanceMeters>71599.067542149</DistanceMeters>
          </Trackpoint>
          <Trackpoint>
            <Time>2021-03-13T11:09:21.000Z</Time>
            <Position>
              <LatitudeDegrees>36.7480510286986827850341796875</LatitudeDegrees>
              <LongitudeDegrees>-4.05745175667107105255126953125</LongitudeDegrees>
            </Position>
            <AltitudeMeters>2.7999999523162841796875</AltitudeMeters>
            <DistanceMeters>71655.94672646</DistanceMeters>
          </Trackpoint>
          <Trackpoint>
            <Time>2021-03-13T11:09:23.000Z</Time>
            <Position>
              <LatitudeDegrees>36.74809151329100131988525390625</LatitudeDegrees>
              <LongitudeDegrees>-4.05762408860027790069580078125</LongitudeDegrees>
            </Position>
            <AltitudeMeters>2.7999999523162841796875</AltitudeMeters>
            <DistanceMeters>71671.962604565</DistanceMeters>
          </Trackpoint>
          <Trackpoint>
            <Time>2021-03-13T11:09:25.000Z</Time>
            <Position>
              <LatitudeDegrees>36.74815085716545581817626953125</LatitudeDegrees>
              <LongitudeDegrees>-4.05777680687606334686279296875</LongitudeDegrees>
            </Position>
            <AltitudeMeters>2.7999999523162841796875</AltitudeMeters>
            <DistanceMeters>71687.09961747</DistanceMeters>
          </Trackpoint>
          <Trackpoint>
            <Time>2021-03-13T11:09:26.000Z</Time>
            <Position>
              <LatitudeDegrees>36.7481717281043529510498046875</LatitudeDegrees>
              <LongitudeDegrees>-4.05784117989242076873779296875</LongitudeDegrees>
            </Position>
            <AltitudeMeters>2.7999999523162841796875</AltitudeMeters>
            <DistanceMeters>71693.293143504</DistanceMeters>
          </Trackpoint>
          <Trackpoint>
            <Time>2021-03-13T11:09:28.000Z</Time>
            <Position>
              <LatitudeDegrees>36.74819511361420154571533203125</LatitudeDegrees>
              <LongitudeDegrees>-4.0580151043832302093505859375</LongitudeDegrees>
            </Position>
            <AltitudeMeters>2.7999999523162841796875</AltitudeMeters>
            <DistanceMeters>71709.021141282</DistanceMeters>
          </Trackpoint>
          <Trackpoint>
            <Time>2021-03-13T11:09:33.000Z</Time>
            <Position>
              <LatitudeDegrees>36.7482431419193744659423828125</LatitudeDegrees>
              <LongitudeDegrees>-4.05848658643662929534912109375</LongitudeDegrees>
            </Position>
            <AltitudeMeters>3</AltitudeMeters>
            <DistanceMeters>71751.407743048</DistanceMeters>
          </Trackpoint>
          <Trackpoint>
            <Time>2021-03-13T11:09:41.000Z</Time>
            <Position>
              <LatitudeDegrees>36.748393513262271881103515625</LatitudeDegrees>
              <LongitudeDegrees>-4.0592308156192302703857421875</LongitudeDegrees>
            </Position>
            <AltitudeMeters>5.400000095367431640625</AltitudeMeters>
            <DistanceMeters>71819.858051993</DistanceMeters>
          </Trackpoint>
          <Trackpoint>
            <Time>2021-03-13T11:09:42.000Z</Time>
            <Position>
              <LatitudeDegrees>36.74840457737445831298828125</LatitudeDegrees>
              <LongitudeDegrees>-4.0593002177774906158447265625</LongitudeDegrees>
            </Position>
            <AltitudeMeters>2.599999904632568359375</AltitudeMeters>
            <DistanceMeters>71826.170000762</DistanceMeters>
          </Trackpoint>
          <Trackpoint>
            <Time>2021-03-13T11:09:45.000Z</Time>
            <Position>
              <LatitudeDegrees>36.7484530247747898101806640625</LatitudeDegrees>
              <LongitudeDegrees>-4.05955678783357143402099609375</LongitudeDegrees>
            </Position>
            <AltitudeMeters>2.599999904632568359375</AltitudeMeters>
            <DistanceMeters>71849.678695718</DistanceMeters>
          </Trackpoint>
          <Trackpoint>
            <Time>2021-03-13T11:09:49.000Z</Time>
            <Position>
              <LatitudeDegrees>36.74851546995341777801513671875</LatitudeDegrees>
              <LongitudeDegrees>-4.05986440367996692657470703125</LongitudeDegrees>
            </Position>
            <AltitudeMeters>2.2000000476837158203125</AltitudeMeters>
            <DistanceMeters>71877.979431756</DistanceMeters>
          </Trackpoint>
          <Trackpoint>
            <Time>2021-03-13T11:09:55.000Z</Time>
            <Position>
              <LatitudeDegrees>36.74861974082887172698974609375</LatitudeDegrees>
              <LongitudeDegrees>-4.0604029409587383270263671875</LongitudeDegrees>
            </Position>
            <AltitudeMeters>2.400000095367431640625</AltitudeMeters>
            <DistanceMeters>71927.389942354</DistanceMeters>
          </Trackpoint>
          <Trackpoint>
            <Time>2021-03-13T11:10:03.000Z</Time>
            <Position>
              <LatitudeDegrees>36.74876558594405651092529296875</LatitudeDegrees>
              <LongitudeDegrees>-4.06115186400711536407470703125</LongitudeDegrees>
            </Position>
            <AltitudeMeters>2.400000095367431640625</AltitudeMeters>
            <DistanceMeters>71996.12520256</DistanceMeters>
          </Trackpoint>
          <Trackpoint>
            <Time>2021-03-13T11:10:04.000Z</Time>
            <Position>
              <LatitudeDegrees>36.74878553487360477447509765625</LatitudeDegrees>
              <LongitudeDegrees>-4.06124599277973175048828125</LongitudeDegrees>
            </Position>
            <AltitudeMeters>2.400000095367431640625</AltitudeMeters>
            <DistanceMeters>72004.808585444</DistanceMeters>
          </Trackpoint>
          <Trackpoint>
            <Time>2021-03-13T11:10:08.000Z</Time>
            <Position>
              <LatitudeDegrees>36.7488613910973072052001953125</LatitudeDegrees>
              <LongitudeDegrees>-4.0616047382354736328125</LongitudeDegrees>
            </Position>
            <AltitudeMeters>2.400000095367431640625</AltitudeMeters>
            <DistanceMeters>72037.897809805</DistanceMeters>
          </Trackpoint>
          <Trackpoint>
            <Time>2021-03-13T11:10:11.000Z</Time>
            <Position>
              <LatitudeDegrees>36.7489121854305267333984375</LatitudeDegrees>
              <LongitudeDegrees>-4.06187019310891628265380859375</LongitudeDegrees>
            </Position>
            <AltitudeMeters>2.2000000476837158203125</AltitudeMeters>
            <DistanceMeters>72062.237266147</DistanceMeters>
          </Trackpoint>
          <Trackpoint>
            <Time>2021-03-13T11:10:19.000Z</Time>
            <Position>
              <LatitudeDegrees>36.7490504868328571319580078125</LatitudeDegrees>
              <LongitudeDegrees>-4.06259891577064990997314453125</LongitudeDegrees>
            </Position>
            <AltitudeMeters>2.2000000476837158203125</AltitudeMeters>
            <DistanceMeters>72129.024620794</DistanceMeters>
          </Trackpoint>
          <Trackpoint>
            <Time>2021-03-13T11:10:20.000Z</Time>
            <Position>
              <LatitudeDegrees>36.74906783737242221832275390625</LatitudeDegrees>
              <LongitudeDegrees>-4.0626905299723148345947265625</LongitudeDegrees>
            </Position>
            <AltitudeMeters>2.2000000476837158203125</AltitudeMeters>
            <DistanceMeters>72137.420380243</DistanceMeters>
          </Trackpoint>
          <Trackpoint>
            <Time>2021-03-13T11:10:26.000Z</Time>
            <Position>
              <LatitudeDegrees>36.7491742037236690521240234375</LatitudeDegrees>
              <LongitudeDegrees>-4.0632417239248752593994140625</LongitudeDegrees>
            </Position>
            <AltitudeMeters>2.599999904632568359375</AltitudeMeters>
            <DistanceMeters>72187.982629623</DistanceMeters>
          </Trackpoint>
          <Trackpoint>
            <Time>2021-03-13T11:10:28.000Z</Time>
            <Position>
              <LatitudeDegrees>36.74921032972633838653564453125</LatitudeDegrees>
              <LongitudeDegrees>-4.0634167380630970001220703125</LongitudeDegrees>
            </Position>
            <AltitudeMeters>2.599999904632568359375</AltitudeMeters>
            <DistanceMeters>72204.10079637</DistanceMeters>
          </Trackpoint>
          <Trackpoint>
            <Time>2021-03-13T11:10:33.000Z</Time>
            <Position>
              <LatitudeDegrees>36.7492801509797573089599609375</LatitudeDegrees>
              <LongitudeDegrees>-4.06382351182401180267333984375</LongitudeDegrees>
            </Position>
            <AltitudeMeters>3</AltitudeMeters>
            <DistanceMeters>72241.20091001</DistanceMeters>
          </Trackpoint>
          <Trackpoint>
            <Time>2021-03-13T11:10:36.000Z</Time>
            <Position>
              <LatitudeDegrees>36.7493089847266674041748046875</LatitudeDegrees>
              <LongitudeDegrees>-4.0640815906226634979248046875</LongitudeDegrees>
            </Position>
            <AltitudeMeters>3</AltitudeMeters>
            <DistanceMeters>72264.43936223</DistanceMeters>
          </Trackpoint>
          <Trackpoint>
            <Time>2021-03-13T11:10:38.000Z</Time>
            <Position>
              <LatitudeDegrees>36.749323904514312744140625</LatitudeDegrees>
              <LongitudeDegrees>-4.0642284415662288665771484375</LongitudeDegrees>
            </Position>
            <AltitudeMeters>3</AltitudeMeters>
            <DistanceMeters>72277.640211264</DistanceMeters>
          </Trackpoint>
          <Trackpoint>
            <Time>2021-03-13T11:10:39.000Z</Time>
            <Position>
              <LatitudeDegrees>36.74933102913200855255126953125</LatitudeDegrees>
              <LongitudeDegrees>-4.06428317539393901824951171875</LongitudeDegrees>
            </Position>
            <AltitudeMeters>3.2000000476837158203125</AltitudeMeters>
            <DistanceMeters>72282.585253934</DistanceMeters>
          </Trackpoint>
          <Trackpoint>
            <Time>2021-03-13T11:10:42.000Z</Time>
            <Position>
              <LatitudeDegrees>36.74934125505387783050537109375</LatitudeDegrees>
              <LongitudeDegrees>-4.06437386758625507354736328125</LongitudeDegrees>
            </Position>
            <AltitudeMeters>3</AltitudeMeters>
            <DistanceMeters>72290.753130327</DistanceMeters>
          </Trackpoint>
          <Trackpoint>
            <Time>2021-03-13T11:10:47.000Z</Time>
            <Position>
              <LatitudeDegrees>36.7493455298244953155517578125</LatitudeDegrees>
              <LongitudeDegrees>-4.0644545853137969970703125</LongitudeDegrees>
            </Position>
            <AltitudeMeters>3</AltitudeMeters>
            <DistanceMeters>72297.967654609</DistanceMeters>
          </Trackpoint>
          <Trackpoint>
            <Time>2021-03-13T11:10:52.000Z</Time>
            <Position>
              <LatitudeDegrees>36.74936925061047077178955078125</LatitudeDegrees>
              <LongitudeDegrees>-4.06462465412914752960205078125</LongitudeDegrees>
            </Position>
            <AltitudeMeters>2.7999999523162841796875</AltitudeMeters>
            <DistanceMeters>72313.36256891</DistanceMeters>
          </Trackpoint>
          <Trackpoint>
            <Time>2021-03-13T11:10:56.000Z</Time>
            <Position>
              <LatitudeDegrees>36.74938090145587921142578125</LatitudeDegrees>
              <LongitudeDegrees>-4.0648663043975830078125</LongitudeDegrees>
            </Position>
            <AltitudeMeters>2.599999904632568359375</AltitudeMeters>
            <DistanceMeters>72334.952253621</DistanceMeters>
          </Trackpoint>
          <Trackpoint>
            <Time>2021-03-13T11:11:02.000Z</Time>
            <Position>
              <LatitudeDegrees>36.74942088313400745391845703125</LatitudeDegrees>
              <LongitudeDegrees>-4.065310545265674591064453125</LongitudeDegrees>
            </Position>
            <AltitudeMeters>2.2000000476837158203125</AltitudeMeters>
            <DistanceMeters>72374.819556201</DistanceMeters>
          </Trackpoint>
          <Trackpoint>
            <Time>2021-03-13T11:11:08.000Z</Time>
            <Position>
              <LatitudeDegrees>36.749442256987094879150390625</LatitudeDegrees>
              <LongitudeDegrees>-4.065618999302387237548828125</LongitudeDegrees>
            </Position>
            <AltitudeMeters>2</AltitudeMeters>
            <DistanceMeters>72402.430663275</DistanceMeters>
          </Trackpoint>
          <Trackpoint>
            <Time>2021-03-13T11:11:11.000Z</Time>
            <Position>
              <LatitudeDegrees>36.74945239908993244171142578125</LatitudeDegrees>
              <LongitudeDegrees>-4.06567155383527278900146484375</LongitudeDegrees>
            </Position>
            <AltitudeMeters>2</AltitudeMeters>
            <DistanceMeters>72407.251805958</DistanceMeters>
          </Trackpoint>
          <Trackpoint>
            <Time>2021-03-13T11:11:13.000Z</Time>
            <Position>
              <LatitudeDegrees>36.7494538240134716033935546875</LatitudeDegrees>
              <LongitudeDegrees>-4.065679349005222320556640625</LongitudeDegrees>
            </Position>
            <AltitudeMeters>2.2000000476837158203125</AltitudeMeters>
            <DistanceMeters>72407.962920774</DistanceMeters>
          </Trackpoint>
          <Trackpoint>
            <Time>2021-03-13T11:11:21.000Z</Time>
            <Position>
              <LatitudeDegrees>36.74945466220378875732421875</LatitudeDegrees>
              <LongitudeDegrees>-4.0656832046806812286376953125</LongitudeDegrees>
            </Position>
            <AltitudeMeters>2.2000000476837158203125</AltitudeMeters>
            <DistanceMeters>72408.318478181</DistanceMeters>
          </Trackpoint>
          <Trackpoint>
            <Time>2021-03-13T11:11:27.000Z</Time>
            <Position>
              <LatitudeDegrees>36.74945466220378875732421875</LatitudeDegrees>
              <LongitudeDegrees>-4.0656832046806812286376953125</LongitudeDegrees>
            </Position>
            <AltitudeMeters>2</AltitudeMeters>
            <DistanceMeters>72408.318478181</DistanceMeters>
          </Trackpoint>
          <Trackpoint>
            <Time>2021-03-13T11:11:36.000Z</Time>
            <Position>
              <LatitudeDegrees>36.74945491366088390350341796875</LatitudeDegrees>
              <LongitudeDegrees>-4.065686725080013275146484375</LongitudeDegrees>
            </Position>
            <AltitudeMeters>2</AltitudeMeters>
            <DistanceMeters>72408.633646138</DistanceMeters>
          </Trackpoint>
          <Trackpoint>
            <Time>2021-03-13T11:11:37.000Z</Time>
            <Position>
              <LatitudeDegrees>36.749457679688930511474609375</LatitudeDegrees>
              <LongitudeDegrees>-4.065717570483684539794921875</LongitudeDegrees>
            </Position>
            <AltitudeMeters>2</AltitudeMeters>
            <DistanceMeters>72411.40086583</DistanceMeters>
          </Trackpoint>
          <Trackpoint>
            <Time>2021-03-13T11:11:39.000Z</Time>
            <Position>
              <LatitudeDegrees>36.7494682408869266510009765625</LatitudeDegrees>
              <LongitudeDegrees>-4.06579560600221157073974609375</LongitudeDegrees>
            </Position>
            <AltitudeMeters>2</AltitudeMeters>
            <DistanceMeters>72418.458478859</DistanceMeters>
          </Trackpoint>
          <Trackpoint>
            <Time>2021-03-13T11:11:42.000Z</Time>
            <Position>
              <LatitudeDegrees>36.7494749464094638824462890625</LatitudeDegrees>
              <LongitudeDegrees>-4.06597011722624301910400390625</LongitudeDegrees>
            </Position>
            <AltitudeMeters>2</AltitudeMeters>
            <DistanceMeters>72434.039672818</DistanceMeters>
          </Trackpoint>
          <Trackpoint>
            <Time>2021-03-13T11:11:43.000Z</Time>
            <Position>
              <LatitudeDegrees>36.74948257394134998321533203125</LatitudeDegrees>
              <LongitudeDegrees>-4.0660459734499454498291015625</LongitudeDegrees>
            </Position>
            <AltitudeMeters>2</AltitudeMeters>
            <DistanceMeters>72440.857798186</DistanceMeters>
          </Trackpoint>
          <Trackpoint>
            <Time>2021-03-13T11:11:45.000Z</Time>
            <Position>
              <LatitudeDegrees>36.74949296750128269195556640625</LatitudeDegrees>
              <LongitudeDegrees>-4.06619944609701633453369140625</LongitudeDegrees>
            </Position>
            <AltitudeMeters>2</AltitudeMeters>
            <DistanceMeters>72454.593021412</DistanceMeters>
          </Trackpoint>
          <Trackpoint>
            <Time>2021-03-13T11:11:48.000Z</Time>
            <Position>
              <LatitudeDegrees>36.7495047859847545623779296875</LatitudeDegrees>
              <LongitudeDegrees>-4.06642978079617023468017578125</LongitudeDegrees>
            </Position>
            <AltitudeMeters>2</AltitudeMeters>
            <DistanceMeters>72475.17678168</DistanceMeters>
          </Trackpoint>
          <Trackpoint>
            <Time>2021-03-13T11:11:55.000Z</Time>
            <Position>
              <LatitudeDegrees>36.749542169272899627685546875</LatitudeDegrees>
              <LongitudeDegrees>-4.06696957536041736602783203125</LongitudeDegrees>
            </Position>
            <AltitudeMeters>2</AltitudeMeters>
            <DistanceMeters>72523.496067217</DistanceMeters>
          </Trackpoint>
          <Trackpoint>
            <Time>2021-03-13T11:12:03.000Z</Time>
            <Position>
              <LatitudeDegrees>36.7495815642178058624267578125</LatitudeDegrees>
              <LongitudeDegrees>-4.06759679317474365234375</LongitudeDegrees>
            </Position>
            <AltitudeMeters>2</AltitudeMeters>
            <DistanceMeters>72579.60393066</DistanceMeters>
          </Trackpoint>
          <Trackpoint>
            <Time>2021-03-13T11:12:08.000Z</Time>
            <Position>
              <LatitudeDegrees>36.74960327334702014923095703125</LatitudeDegrees>
              <LongitudeDegrees>-4.06793634407222270965576171875</LongitudeDegrees>
            </Position>
            <AltitudeMeters>2</AltitudeMeters>
            <DistanceMeters>72609.981877136</DistanceMeters>
          </Trackpoint>
          <Trackpoint>
            <Time>2021-03-13T11:12:14.000Z</Time>
            <Position>
              <LatitudeDegrees>36.74963713623583316802978515625</LatitudeDegrees>
              <LongitudeDegrees>-4.06840740703046321868896484375</LongitudeDegrees>
            </Position>
            <AltitudeMeters>2</AltitudeMeters>
            <DistanceMeters>72652.160680824</DistanceMeters>
          </Trackpoint>
          <Trackpoint>
            <Time>2021-03-13T11:12:15.000Z</Time>
            <Position>
              <LatitudeDegrees>36.74964241683483123779296875</LatitudeDegrees>
              <LongitudeDegrees>-4.0684941597282886505126953125</LongitudeDegrees>
            </Position>
            <AltitudeMeters>2.2000000476837158203125</AltitudeMeters>
            <DistanceMeters>72659.920355413</DistanceMeters>
          </Trackpoint>
          <Trackpoint>
            <Time>2021-03-13T11:12:17.000Z</Time>
            <Position>
              <LatitudeDegrees>36.74965255893766880035400390625</LatitudeDegrees>
              <LongitudeDegrees>-4.068653248250484466552734375</LongitudeDegrees>
            </Position>
            <AltitudeMeters>2.2000000476837158203125</AltitudeMeters>
            <DistanceMeters>72674.152806881</DistanceMeters>
          </Trackpoint>
          <Trackpoint>
            <Time>2021-03-13T11:12:19.000Z</Time>
            <Position>
              <LatitudeDegrees>36.7496667243540287017822265625</LatitudeDegrees>
              <LongitudeDegrees>-4.06877101399004459381103515625</LongitudeDegrees>
            </Position>
            <AltitudeMeters>2.2000000476837158203125</AltitudeMeters>
            <DistanceMeters>72684.772865957</DistanceMeters>
          </Trackpoint>
          <Trackpoint>
            <Time>2021-03-13T11:12:23.000Z</Time>
            <Position>
              <LatitudeDegrees>36.74968357197940349578857421875</LatitudeDegrees>
              <LongitudeDegrees>-4.06896346248686313629150390625</LongitudeDegrees>
            </Position>
            <AltitudeMeters>2.2000000476837158203125</AltitudeMeters>
            <DistanceMeters>72702.037941208</DistanceMeters>
          </Trackpoint>
          <Trackpoint>
            <Time>2021-03-13T11:12:24.000Z</Time>
            <Position>
              <LatitudeDegrees>36.74968826584517955780029296875</LatitudeDegrees>
              <LongitudeDegrees>-4.06902917660772800445556640625</LongitudeDegrees>
            </Position>
            <AltitudeMeters>2.2000000476837158203125</AltitudeMeters>
            <DistanceMeters>72707.921929064</DistanceMeters>
          </Trackpoint>
          <Trackpoint>
            <Time>2021-03-13T11:12:27.000Z</Time>
            <Position>
              <LatitudeDegrees>36.74970167689025402069091796875</LatitudeDegrees>
              <LongitudeDegrees>-4.06924542970955371856689453125</LongitudeDegrees>
            </Position>
            <AltitudeMeters>2.2000000476837158203125</AltitudeMeters>
            <DistanceMeters>72727.265176399</DistanceMeters>
          </Trackpoint>
          <Trackpoint>
            <Time>2021-03-13T11:12:29.000Z</Time>
            <Position>
              <LatitudeDegrees>36.7497109808027744293212890625</LatitudeDegrees>
              <LongitudeDegrees>-4.06941524706780910491943359375</LongitudeDegrees>
            </Position>
            <AltitudeMeters>2.2000000476837158203125</AltitudeMeters>
            <DistanceMeters>72742.445080572</DistanceMeters>
          </Trackpoint>
          <Trackpoint>
            <Time>2021-03-13T11:12:32.000Z</Time>
            <Position>
              <LatitudeDegrees>36.74973361194133758544921875</LatitudeDegrees>
              <LongitudeDegrees>-4.06968019902706146240234375</LongitudeDegrees>
            </Position>
            <AltitudeMeters>2.2000000476837158203125</AltitudeMeters>
            <DistanceMeters>72766.207840096</DistanceMeters>
          </Trackpoint>
          <Trackpoint>
            <Time>2021-03-13T11:12:33.000Z</Time>
            <Position>
              <LatitudeDegrees>36.74974274821579456329345703125</LatitudeDegrees>
              <LongitudeDegrees>-4.06979084014892578125</LongitudeDegrees>
            </Position>
            <AltitudeMeters>2</AltitudeMeters>
            <DistanceMeters>72776.127099792</DistanceMeters>
          </Trackpoint>
          <Trackpoint>
            <Time>2021-03-13T11:12:40.000Z</Time>
            <Position>
              <LatitudeDegrees>36.7497981525957584381103515625</LatitudeDegrees>
              <LongitudeDegrees>-4.0704578720033168792724609375</LongitudeDegrees>
            </Position>
            <AltitudeMeters>2</AltitudeMeters>
            <DistanceMeters>72835.932734549</DistanceMeters>
          </Trackpoint>
          <Trackpoint>
            <Time>2021-03-13T11:12:47.000Z</Time>
            <Position>
              <LatitudeDegrees>36.74985372461378574371337890625</LatitudeDegrees>
              <LongitudeDegrees>-4.07111777924001216888427734375</LongitudeDegrees>
            </Position>
            <AltitudeMeters>2</AltitudeMeters>
            <DistanceMeters>72895.108365379</DistanceMeters>
          </Trackpoint>
          <Trackpoint>
            <Time>2021-03-13T11:12:49.000Z</Time>
            <Position>
              <LatitudeDegrees>36.74987375736236572265625</LatitudeDegrees>
              <LongitudeDegrees>-4.0713076293468475341796875</LongitudeDegrees>
            </Position>
            <AltitudeMeters>2</AltitudeMeters>
            <DistanceMeters>72912.185699738</DistanceMeters>
          </Trackpoint>
          <Trackpoint>
            <Time>2021-03-13T11:12:57.000Z</Time>
            <Position>
              <LatitudeDegrees>36.7499051056802272796630859375</LatitudeDegrees>
              <LongitudeDegrees>-4.072072394192218780517578125</LongitudeDegrees>
            </Position>
            <AltitudeMeters>2.599999904632568359375</AltitudeMeters>
            <DistanceMeters>72980.477585356</DistanceMeters>
          </Trackpoint>
          <Trackpoint>
            <Time>2021-03-13T11:13:04.000Z</Time>
            <Position>
              <LatitudeDegrees>36.7499671317636966705322265625</LatitudeDegrees>
              <LongitudeDegrees>-4.07275132834911346435546875</LongitudeDegrees>
            </Position>
            <AltitudeMeters>2.7999999523162841796875</AltitudeMeters>
            <DistanceMeters>73041.418092071</DistanceMeters>
          </Trackpoint>
          <Trackpoint>
            <Time>2021-03-13T11:13:06.000Z</Time>
            <Position>
              <LatitudeDegrees>36.74994257278740406036376953125</LatitudeDegrees>
              <LongitudeDegrees>-4.0729358978569507598876953125</LongitudeDegrees>
            </Position>
            <AltitudeMeters>2.7999999523162841796875</AltitudeMeters>
            <DistanceMeters>73058.10387395</DistanceMeters>
          </Trackpoint>
          <Trackpoint>
            <Time>2021-03-13T11:13:07.000Z</Time>
            <Position>
              <LatitudeDegrees>36.74991424195468425750732421875</LatitudeDegrees>
              <LongitudeDegrees>-4.0730026178061962127685546875</LongitudeDegrees>
            </Position>
            <AltitudeMeters>2.7999999523162841796875</AltitudeMeters>
            <DistanceMeters>73064.838043825</DistanceMeters>
          </Trackpoint>
          <Trackpoint>
            <Time>2021-03-13T11:13:11.000Z</Time>
            <Position>
              <LatitudeDegrees>36.74981131218373775482177734375</LatitudeDegrees>
              <LongitudeDegrees>-4.07322264276444911956787109375</LongitudeDegrees>
            </Position>
            <AltitudeMeters>3</AltitudeMeters>
            <DistanceMeters>73087.559565131</DistanceMeters>
          </Trackpoint>
          <Trackpoint>
            <Time>2021-03-13T11:13:17.000Z</Time>
            <Position>
              <LatitudeDegrees>36.749680303037166595458984375</LatitudeDegrees>
              <LongitudeDegrees>-4.07366487197577953338623046875</LongitudeDegrees>
            </Position>
            <AltitudeMeters>2.7999999523162841796875</AltitudeMeters>
            <DistanceMeters>73129.607570877</DistanceMeters>
          </Trackpoint>
          <Trackpoint>
            <Time>2021-03-13T11:13:25.000Z</Time>
            <Position>
              <LatitudeDegrees>36.74952532164752483367919921875</LatitudeDegrees>
              <LongitudeDegrees>-4.07435788773000240325927734375</LongitudeDegrees>
            </Position>
            <AltitudeMeters>2.599999904632568359375</AltitudeMeters>
            <DistanceMeters>73193.77389799</DistanceMeters>
          </Trackpoint>
          <Trackpoint>
            <Time>2021-03-13T11:13:26.000Z</Time>
            <Position>
              <LatitudeDegrees>36.7495047859847545623779296875</LatitudeDegrees>
              <LongitudeDegrees>-4.07443164847791194915771484375</LongitudeDegrees>
            </Position>
            <AltitudeMeters>2.7999999523162841796875</AltitudeMeters>
            <DistanceMeters>73200.737482591</DistanceMeters>
          </Trackpoint>
          <Trackpoint>
            <Time>2021-03-13T11:13:33.000Z</Time>
            <Position>
              <LatitudeDegrees>36.74934871494770050048828125</LatitudeDegrees>
              <LongitudeDegrees>-4.07511091791093349456787109375</LongitudeDegrees>
            </Position>
            <AltitudeMeters>2.599999904632568359375</AltitudeMeters>
            <DistanceMeters>73263.757391277</DistanceMeters>
          </Trackpoint>
          <Trackpoint>
            <Time>2021-03-13T11:13:34.000Z</Time>
            <Position>
              <LatitudeDegrees>36.749323904514312744140625</LatitudeDegrees>
              <LongitudeDegrees>-4.0752298571169376373291015625</LongitudeDegrees>
            </Position>
            <AltitudeMeters>2.599999904632568359375</AltitudeMeters>
            <DistanceMeters>73274.718878273</DistanceMeters>
          </Trackpoint>
          <Trackpoint>
            <Time>2021-03-13T11:13:39.000Z</Time>
            <Position>
              <LatitudeDegrees>36.7492077313363552093505859375</LatitudeDegrees>
              <LongitudeDegrees>-4.07572749070823192596435546875</LongitudeDegrees>
            </Position>
            <AltitudeMeters>2.599999904632568359375</AltitudeMeters>
            <DistanceMeters>73320.944076259</DistanceMeters>
          </Trackpoint>
          <Trackpoint>
            <Time>2021-03-13T11:13:44.000Z</Time>
            <Position>
              <LatitudeDegrees>36.74909868277609348297119140625</LatitudeDegrees>
              <LongitudeDegrees>-4.0762080252170562744140625</LongitudeDegrees>
            </Position>
            <AltitudeMeters>3</AltitudeMeters>
            <DistanceMeters>73365.484750641</DistanceMeters>
          </Trackpoint>
          <Trackpoint>
            <Time>2021-03-13T11:13:50.000Z</Time>
            <Position>
              <LatitudeDegrees>36.748955436050891876220703125</LatitudeDegrees>
              <LongitudeDegrees>-4.0768063254654407501220703125</LongitudeDegrees>
            </Position>
            <AltitudeMeters>3.2000000476837158203125</AltitudeMeters>
            <DistanceMeters>73421.173729476</DistanceMeters>
          </Trackpoint>
          <Trackpoint>
            <Time>2021-03-13T11:13:57.000Z</Time>
            <Position>
              <LatitudeDegrees>36.74878218211233615875244140625</LatitudeDegrees>
              <LongitudeDegrees>-4.0774775482714176177978515625</LongitudeDegrees>
            </Position>
            <AltitudeMeters>3.400000095367431640625</AltitudeMeters>
            <DistanceMeters>73484.064258436</DistanceMeters>
          </Trackpoint>
          <Trackpoint>
            <Time>2021-03-13T11:13:59.000Z</Time>
            <Position>
              <LatitudeDegrees>36.74872937612235546112060546875</LatitudeDegrees>
              <LongitudeDegrees>-4.07768231816589832305908203125</LongitudeDegrees>
            </Position>
            <AltitudeMeters>3.599999904632568359375</AltitudeMeters>
            <DistanceMeters>73503.248831814</DistanceMeters>
          </Trackpoint>
          <Trackpoint>
            <Time>2021-03-13T11:14:02.000Z</Time>
            <Position>
              <LatitudeDegrees>36.74866198562085628509521484375</LatitudeDegrees>
              <LongitudeDegrees>-4.07794274389743804931640625</LongitudeDegrees>
            </Position>
            <AltitudeMeters>3.7999999523162841796875</AltitudeMeters>
            <DistanceMeters>73527.655347803</DistanceMeters>
          </Trackpoint>
          <Trackpoint>
            <Time>2021-03-13T11:14:05.000Z</Time>
            <Position>
              <LatitudeDegrees>36.74860029481351375579833984375</LatitudeDegrees>
              <LongitudeDegrees>-4.07822177745401859283447265625</LongitudeDegrees>
            </Position>
            <AltitudeMeters>4</AltitudeMeters>
            <DistanceMeters>73553.470102913</DistanceMeters>
          </Trackpoint>
          <Trackpoint>
            <Time>2021-03-13T11:14:06.000Z</Time>
            <Position>
              <LatitudeDegrees>36.74860113300383090972900390625</LatitudeDegrees>
              <LongitudeDegrees>-4.07830878160893917083740234375</LongitudeDegrees>
            </Position>
            <AltitudeMeters>4</AltitudeMeters>
            <DistanceMeters>73561.229777503</DistanceMeters>
          </Trackpoint>
          <Trackpoint>
            <Time>2021-03-13T11:14:08.000Z</Time>
            <Position>
              <LatitudeDegrees>36.74862124957144260406494140625</LatitudeDegrees>
              <LongitudeDegrees>-4.07846904359757900238037109375</LongitudeDegrees>
            </Position>
            <AltitudeMeters>4.19999980926513671875</AltitudeMeters>
            <DistanceMeters>73575.696326907</DistanceMeters>
          </Trackpoint>
          <Trackpoint>
            <Time>2021-03-13T11:14:10.000Z</Time>
            <Position>
              <LatitudeDegrees>36.74857716076076030731201171875</LatitudeDegrees>
              <LongitudeDegrees>-4.0786523558199405670166015625</LongitudeDegrees>
            </Position>
            <AltitudeMeters>4.19999980926513671875</AltitudeMeters>
            <DistanceMeters>73592.765463278</DistanceMeters>
          </Trackpoint>
          <Trackpoint>
            <Time>2021-03-13T11:14:12.000Z</Time>
            <Position>
              <LatitudeDegrees>36.74849619157612323760986328125</LatitudeDegrees>
              <LongitudeDegrees>-4.0787690319120883941650390625</LongitudeDegrees>
            </Position>
            <AltitudeMeters>4.19999980926513671875</AltitudeMeters>
            <DistanceMeters>73606.531223489</DistanceMeters>
          </Trackpoint>
          <Trackpoint>
            <Time>2021-03-13T11:14:13.000Z</Time>
            <Position>
              <LatitudeDegrees>36.74845822155475616455078125</LatitudeDegrees>
              <LongitudeDegrees>-4.0788446366786956787109375</LongitudeDegrees>
            </Position>
            <AltitudeMeters>4.19999980926513671875</AltitudeMeters>
            <DistanceMeters>73614.489675359</DistanceMeters>
          </Trackpoint>
          <Trackpoint>
            <Time>2021-03-13T11:14:19.000Z</Time>
            <Position>
              <LatitudeDegrees>36.7483283020555973052978515625</LatitudeDegrees>
              <LongitudeDegrees>-4.07937772572040557861328125</LongitudeDegrees>
            </Position>
            <AltitudeMeters>4.599999904632568359375</AltitudeMeters>
            <DistanceMeters>73664.182559805</DistanceMeters>
          </Trackpoint>
          <Trackpoint>
            <Time>2021-03-13T11:14:20.000Z</Time>
            <Position>
              <LatitudeDegrees>36.7483011446893215179443359375</LatitudeDegrees>
              <LongitudeDegrees>-4.07949574291706085205078125</LongitudeDegrees>
            </Position>
            <AltitudeMeters>4.599999904632568359375</AltitudeMeters>
            <DistanceMeters>73675.132919849</DistanceMeters>
          </Trackpoint>
          <Trackpoint>
            <Time>2021-03-13T11:14:26.000Z</Time>
            <Position>
              <LatitudeDegrees>36.74815638922154903411865234375</LatitudeDegrees>
              <LongitudeDegrees>-4.08012145198881626129150390625</LongitudeDegrees>
            </Position>
            <AltitudeMeters>4.400000095367431640625</AltitudeMeters>
            <DistanceMeters>73733.215001411</DistanceMeters>
          </Trackpoint>
          <Trackpoint>
            <Time>2021-03-13T11:14:33.000Z</Time>
            <Position>
              <LatitudeDegrees>36.74799025990068912506103515625</LatitudeDegrees>
              <LongitudeDegrees>-4.0808524377644062042236328125</LongitudeDegrees>
            </Position>
            <AltitudeMeters>3.7999999523162841796875</AltitudeMeters>
            <DistanceMeters>73800.978310897</DistanceMeters>
          </Trackpoint>
          <Trackpoint>
            <Time>2021-03-13T11:14:35.000Z</Time>
            <Position>
              <LatitudeDegrees>36.747939549386501312255859375</LatitudeDegrees>
              <LongitudeDegrees>-4.0810683555901050567626953125</LongitudeDegrees>
            </Position>
            <AltitudeMeters>3.599999904632568359375</AltitudeMeters>
            <DistanceMeters>73821.044929167</DistanceMeters>
          </Trackpoint>
          <Trackpoint>
            <Time>2021-03-13T11:14:36.000Z</Time>
            <Position>
              <LatitudeDegrees>36.74791130237281322479248046875</LatitudeDegrees>
              <LongitudeDegrees>-4.0811957605183124542236328125</LongitudeDegrees>
            </Position>
            <AltitudeMeters>3.400000095367431640625</AltitudeMeters>
            <DistanceMeters>73832.833987931</DistanceMeters>
          </Trackpoint>
          <Trackpoint>
            <Time>2021-03-13T11:14:43.000Z</Time>
            <Position>
              <LatitudeDegrees>36.74775137566030025482177734375</LatitudeDegrees>
              <LongitudeDegrees>-4.08190964721143245697021484375</LongitudeDegrees>
            </Position>
            <AltitudeMeters>3</AltitudeMeters>
            <DistanceMeters>73898.942537129</DistanceMeters>
          </Trackpoint>
          <Trackpoint>
            <Time>2021-03-13T11:14:46.000Z</Time>
            <Position>
              <LatitudeDegrees>36.7476721666753292083740234375</LatitudeDegrees>
              <LongitudeDegrees>-4.0822485275566577911376953125</LongitudeDegrees>
            </Position>
            <AltitudeMeters>2.7999999523162841796875</AltitudeMeters>
            <DistanceMeters>73930.424932058</DistanceMeters>
          </Trackpoint>
          <Trackpoint>
            <Time>2021-03-13T11:14:53.000Z</Time>
            <Position>
              <LatitudeDegrees>36.74748097546398639678955078125</LatitudeDegrees>
              <LongitudeDegrees>-4.082994349300861358642578125</LongitudeDegrees>
            </Position>
            <AltitudeMeters>2.7999999523162841796875</AltitudeMeters>
            <DistanceMeters>74000.261356847</DistanceMeters>
          </Trackpoint>
          <Trackpoint>
            <Time>2021-03-13T11:14:55.000Z</Time>
            <Position>
              <LatitudeDegrees>36.747419536113739013671875</LatitudeDegrees>
              <LongitudeDegrees>-4.0831826068460941314697265625</LongitudeDegrees>
            </Position>
            <AltitudeMeters>3</AltitudeMeters>
            <DistanceMeters>74018.39005322</DistanceMeters>
          </Trackpoint>
          <Trackpoint>
            <Time>2021-03-13T11:15:01.000Z</Time>
            <Position>
              <LatitudeDegrees>36.7471578530967235565185546875</LatitudeDegrees>
              <LongitudeDegrees>-4.0837891213595867156982421875</LongitudeDegrees>
            </Position>
            <AltitudeMeters>3</AltitudeMeters>
            <DistanceMeters>74079.8246587</DistanceMeters>
          </Trackpoint>
          <Trackpoint>
            <Time>2021-03-13T11:15:08.000Z</Time>
            <Position>
              <LatitudeDegrees>36.7468168772757053375244140625</LatitudeDegrees>
              <LongitudeDegrees>-4.0844331867992877960205078125</LongitudeDegrees>
            </Position>
            <AltitudeMeters>3</AltitudeMeters>
            <DistanceMeters>74148.670381982</DistanceMeters>
          </Trackpoint>
          <Trackpoint>
            <Time>2021-03-13T11:15:10.000Z</Time>
            <Position>
              <LatitudeDegrees>36.74673330970108509063720703125</LatitudeDegrees>
              <LongitudeDegrees>-4.084590263664722442626953125</LongitudeDegrees>
            </Position>
            <AltitudeMeters>3</AltitudeMeters>
            <DistanceMeters>74165.486083388</DistanceMeters>
          </Trackpoint>
          <Trackpoint>
            <Time>2021-03-13T11:15:13.000Z</Time>
            <Position>
              <LatitudeDegrees>36.74660079181194305419921875</LatitudeDegrees>
              <LongitudeDegrees>-4.08484716899693012237548828125</LongitudeDegrees>
            </Position>
            <AltitudeMeters>3.2000000476837158203125</AltitudeMeters>
            <DistanceMeters>74192.735066225</DistanceMeters>
          </Trackpoint>
          <Trackpoint>
            <Time>2021-03-13T11:15:16.000Z</Time>
            <Position>
              <LatitudeDegrees>36.7464980296790599822998046875</LatitudeDegrees>
              <LongitudeDegrees>-4.08511237241327762603759765625</LongitudeDegrees>
            </Position>
            <AltitudeMeters>3.2000000476837158203125</AltitudeMeters>
            <DistanceMeters>74219.007847642</DistanceMeters>
          </Trackpoint>
          <Trackpoint>
            <Time>2021-03-13T11:15:18.000Z</Time>
            <Position>
              <LatitudeDegrees>36.746469028294086456298828125</LatitudeDegrees>
              <LongitudeDegrees>-4.08531504683196544647216796875</LongitudeDegrees>
            </Position>
            <AltitudeMeters>3.2000000476837158203125</AltitudeMeters>
            <DistanceMeters>74237.369408962</DistanceMeters>
          </Trackpoint>
          <Trackpoint>
            <Time>2021-03-13T11:15:19.000Z</Time>
            <Position>
              <LatitudeDegrees>36.74646760337054729461669921875</LatitudeDegrees>
              <LongitudeDegrees>-4.08541713841259479522705078125</LongitudeDegrees>
            </Position>
            <AltitudeMeters>3.2000000476837158203125</AltitudeMeters>
            <DistanceMeters>74246.476121984</DistanceMeters>
          </Trackpoint>
          <Trackpoint>
            <Time>2021-03-13T11:15:20.000Z</Time>
            <Position>
              <LatitudeDegrees>36.74646190367639064788818359375</LatitudeDegrees>
              <LongitudeDegrees>-4.0855201520025730133056640625</LongitudeDegrees>
            </Position>
            <AltitudeMeters>3.2000000476837158203125</AltitudeMeters>
            <DistanceMeters>74255.68538243</DistanceMeters>
          </Trackpoint>
          <Trackpoint>
            <Time>2021-03-13T11:15:22.000Z</Time>
            <Position>
              <LatitudeDegrees>36.74641245044767856597900390625</LatitudeDegrees>
              <LongitudeDegrees>-4.085693992674350738525390625</LongitudeDegrees>
            </Position>
            <AltitudeMeters>3.2000000476837158203125</AltitudeMeters>
            <DistanceMeters>74272.13735834</DistanceMeters>
          </Trackpoint>
          <Trackpoint>
            <Time>2021-03-13T11:15:25.000Z</Time>
            <Position>
              <LatitudeDegrees>36.74623793922364711761474609375</LatitudeDegrees>
              <LongitudeDegrees>-4.0858624689280986785888671875</LongitudeDegrees>
            </Position>
            <AltitudeMeters>3.2000000476837158203125</AltitudeMeters>
            <DistanceMeters>74296.694180915</DistanceMeters>
          </Trackpoint>
          <Trackpoint>
            <Time>2021-03-13T11:15:26.000Z</Time>
            <Position>
              <LatitudeDegrees>36.74618379212915897369384765625</LatitudeDegrees>
              <LongitudeDegrees>-4.085918962955474853515625</LongitudeDegrees>
            </Position>
            <AltitudeMeters>3.2000000476837158203125</AltitudeMeters>
            <DistanceMeters>74304.548700777</DistanceMeters>
          </Trackpoint>
          <Trackpoint>
            <Time>2021-03-13T11:15:28.000Z</Time>
            <Position>
              <LatitudeDegrees>36.74610986374318599700927734375</LatitudeDegrees>
              <LongitudeDegrees>-4.08605567179620265960693359375</LongitudeDegrees>
            </Position>
            <AltitudeMeters>3</AltitudeMeters>
            <DistanceMeters>74319.257903053</DistanceMeters>
          </Trackpoint>
          <Trackpoint>
            <Time>2021-03-13T11:15:31.000Z</Time>
            <Position>
              <LatitudeDegrees>36.746013052761554718017578125</LatitudeDegrees>
              <LongitudeDegrees>-4.0862363018095493316650390625</LongitudeDegrees>
            </Position>
            <AltitudeMeters>3</AltitudeMeters>
            <DistanceMeters>74338.638694053</DistanceMeters>
          </Trackpoint>
          <Trackpoint>
            <Time>2021-03-13T11:15:33.000Z</Time>
            <Position>
              <LatitudeDegrees>36.74596468918025493621826171875</LatitudeDegrees>
              <LongitudeDegrees>-4.08629992045462131500244140625</LongitudeDegrees>
            </Position>
            <AltitudeMeters>3</AltitudeMeters>
            <DistanceMeters>74346.459802531</DistanceMeters>
          </Trackpoint>
          <Trackpoint>
            <Time>2021-03-13T11:15:34.000Z</Time>
            <Position>
              <LatitudeDegrees>36.7459444887936115264892578125</LatitudeDegrees>
              <LongitudeDegrees>-4.08631148748099803924560546875</LongitudeDegrees>
            </Position>
            <AltitudeMeters>3</AltitudeMeters>
            <DistanceMeters>74348.934149279</DistanceMeters>
          </Trackpoint>
          <Trackpoint>
            <Time>2021-03-13T11:15:36.000Z</Time>
            <Position>
              <LatitudeDegrees>36.74589612521231174468994140625</LatitudeDegrees>
              <LongitudeDegrees>-4.086333028972148895263671875</LongitudeDegrees>
            </Position>
            <AltitudeMeters>3</AltitudeMeters>
            <DistanceMeters>74354.649988375</DistanceMeters>
          </Trackpoint>
          <Trackpoint>
            <Time>2021-03-13T11:15:38.000Z</Time>
            <Position>
              <LatitudeDegrees>36.74585379660129547119140625</LatitudeDegrees>
              <LongitudeDegrees>-4.08642078749835491180419921875</LongitudeDegrees>
            </Position>
            <AltitudeMeters>3</AltitudeMeters>
            <DistanceMeters>74363.785412093</DistanceMeters>
          </Trackpoint>
          <Trackpoint>
            <Time>2021-03-13T11:15:39.000Z</Time>
            <Position>
              <LatitudeDegrees>36.745829991996288299560546875</LatitudeDegrees>
              <LongitudeDegrees>-4.086473844945430755615234375</LongitudeDegrees>
            </Position>
            <AltitudeMeters>3</AltitudeMeters>
            <DistanceMeters>74369.209431733</DistanceMeters>
          </Trackpoint>
          <Trackpoint>
            <Time>2021-03-13T11:15:41.000Z</Time>
            <Position>
              <LatitudeDegrees>36.7457664571702480316162109375</LatitudeDegrees>
              <LongitudeDegrees>-4.08659689128398895263671875</LongitudeDegrees>
            </Position>
            <AltitudeMeters>3</AltitudeMeters>
            <DistanceMeters>74382.265147835</DistanceMeters>
          </Trackpoint>
          <Trackpoint>
            <Time>2021-03-13T11:15:43.000Z</Time>
            <Position>
              <LatitudeDegrees>36.74567417241632938385009765625</LatitudeDegrees>
              <LongitudeDegrees>-4.0867281518876552581787109375</LongitudeDegrees>
            </Position>
            <AltitudeMeters>3</AltitudeMeters>
            <DistanceMeters>74397.839095738</DistanceMeters>
          </Trackpoint>
          <Trackpoint>
            <Time>2021-03-13T11:15:44.000Z</Time>
            <Position>
              <LatitudeDegrees>36.745623461902141571044921875</LatitudeDegrees>
              <LongitudeDegrees>-4.08679864369332790374755859375</LongitudeDegrees>
            </Position>
            <AltitudeMeters>2.7999999523162841796875</AltitudeMeters>
            <DistanceMeters>74406.288461653</DistanceMeters>
          </Trackpoint>
          <Trackpoint>
            <Time>2021-03-13T11:15:47.000Z</Time>
            <Position>
              <LatitudeDegrees>36.7454888485372066497802734375</LatitudeDegrees>
              <LongitudeDegrees>-4.08704356290400028228759765625</LongitudeDegrees>
            </Position>
            <AltitudeMeters>2.7999999523162841796875</AltitudeMeters>
            <DistanceMeters>74432.776551044</DistanceMeters>
          </Trackpoint>
          <Trackpoint>
            <Time>2021-03-13T11:15:50.000Z</Time>
            <Position>
              <LatitudeDegrees>36.7453614436089992523193359375</LatitudeDegrees>
              <LongitudeDegrees>-4.087287895381450653076171875</LongitudeDegrees>
            </Position>
            <AltitudeMeters>2.7999999523162841796875</AltitudeMeters>
            <DistanceMeters>74458.77551972</DistanceMeters>
          </Trackpoint>
          <Trackpoint>
            <Time>2021-03-13T11:15:51.000Z</Time>
            <Position>
              <LatitudeDegrees>36.74531928263604640960693359375</LatitudeDegrees>
              <LongitudeDegrees>-4.087371043860912322998046875</LongitudeDegrees>
            </Position>
            <AltitudeMeters>2.599999904632568359375</AltitudeMeters>
            <DistanceMeters>74467.550967965</DistanceMeters>
          </Trackpoint>
          <Trackpoint>
            <Time>2021-03-13T11:15:52.000Z</Time>
            <Position>
              <LatitudeDegrees>36.745274104177951812744140625</LatitudeDegrees>
              <LongitudeDegrees>-4.08745762892067432403564453125</LongitudeDegrees>
            </Position>
            <AltitudeMeters>2.599999904632568359375</AltitudeMeters>
            <DistanceMeters>74476.766109792</DistanceMeters>
          </Trackpoint>
          <Trackpoint>
            <Time>2021-03-13T11:15:59.000Z</Time>
            <Position>
              <LatitudeDegrees>36.74494855105876922607421875</LatitudeDegrees>
              <LongitudeDegrees>-4.0880789794027805328369140625</LongitudeDegrees>
            </Position>
            <AltitudeMeters>2.599999904632568359375</AltitudeMeters>
            <DistanceMeters>74542.977162131</DistanceMeters>
          </Trackpoint>
          <Trackpoint>
            <Time>2021-03-13T11:16:06.000Z</Time>
            <Position>
              <LatitudeDegrees>36.74462190829217433929443359375</LatitudeDegrees>
              <LongitudeDegrees>-4.08869479782879352569580078125</LongitudeDegrees>
            </Position>
            <AltitudeMeters>2.599999904632568359375</AltitudeMeters>
            <DistanceMeters>74608.842946616</DistanceMeters>
          </Trackpoint>
          <Trackpoint>
            <Time>2021-03-13T11:16:07.000Z</Time>
            <Position>
              <LatitudeDegrees>36.74458553083240985870361328125</LatitudeDegrees>
              <LongitudeDegrees>-4.08876554109156131744384765625</LongitudeDegrees>
            </Position>
            <AltitudeMeters>2.7999999523162841796875</AltitudeMeters>
            <DistanceMeters>74616.339825686</DistanceMeters>
          </Trackpoint>
          <Trackpoint>
            <Time>2021-03-13T11:16:11.000Z</Time>
            <Position>
              <LatitudeDegrees>36.7444746382534503936767578125</LatitudeDegrees>
              <LongitudeDegrees>-4.0889761783182621002197265625</LongitudeDegrees>
            </Position>
            <AltitudeMeters>2.7999999523162841796875</AltitudeMeters>
            <DistanceMeters>74638.818012832</DistanceMeters>
          </Trackpoint>
          <Trackpoint>
            <Time>2021-03-13T11:16:16.000Z</Time>
            <Position>
              <LatitudeDegrees>36.7444005422294139862060546875</LatitudeDegrees>
              <LongitudeDegrees>-4.0891230292618274688720703125</LongitudeDegrees>
            </Position>
            <AltitudeMeters>3.2000000476837158203125</AltitudeMeters>
            <DistanceMeters>74654.295411447</DistanceMeters>
          </Trackpoint>
          <Trackpoint>
            <Time>2021-03-13T11:16:20.000Z</Time>
            <Position>
              <LatitudeDegrees>36.7443884722888469696044921875</LatitudeDegrees>
              <LongitudeDegrees>-4.0891441516578197479248046875</LongitudeDegrees>
            </Position>
            <AltitudeMeters>3.2000000476837158203125</AltitudeMeters>
            <DistanceMeters>74656.607511197</DistanceMeters>
          </Trackpoint>
          <Trackpoint>
            <Time>2021-03-13T11:16:34.000Z</Time>
            <Position>
              <LatitudeDegrees>36.7443871311843395233154296875</LatitudeDegrees>
              <LongitudeDegrees>-4.08914574421942234039306640625</LongitudeDegrees>
            </Position>
            <AltitudeMeters>3.599999904632568359375</AltitudeMeters>
            <DistanceMeters>74656.84027816</DistanceMeters>
          </Trackpoint>
          <Trackpoint>
            <Time>2021-03-13T11:16:37.000Z</Time>
            <Position>
              <LatitudeDegrees>36.74434865824878215789794921875</LatitudeDegrees>
              <LongitudeDegrees>-4.08921539783477783203125</LongitudeDegrees>
            </Position>
            <AltitudeMeters>3.599999904632568359375</AltitudeMeters>
            <DistanceMeters>74664.385183852</DistanceMeters>
          </Trackpoint>
          <Trackpoint>
            <Time>2021-03-13T11:16:39.000Z</Time>
            <Position>
              <LatitudeDegrees>36.7443197406828403472900390625</LatitudeDegrees>
              <LongitudeDegrees>-4.08927499316632747650146484375</LongitudeDegrees>
            </Position>
            <AltitudeMeters>3.400000095367431640625</AltitudeMeters>
            <DistanceMeters>74670.598361525</DistanceMeters>
          </Trackpoint>
          <Trackpoint>
            <Time>2021-03-13T11:16:42.000Z</Time>
            <Position>
              <LatitudeDegrees>36.7442895658314228057861328125</LatitudeDegrees>
              <LongitudeDegrees>-4.08940273337066173553466796875</LongitudeDegrees>
            </Position>
            <AltitudeMeters>3.400000095367431640625</AltitudeMeters>
            <DistanceMeters>74682.476320708</DistanceMeters>
          </Trackpoint>
          <Trackpoint>
            <Time>2021-03-13T11:16:43.000Z</Time>
            <Position>
              <LatitudeDegrees>36.74426802434027194976806640625</LatitudeDegrees>
              <LongitudeDegrees>-4.089458473026752471923828125</LongitudeDegrees>
            </Position>
            <AltitudeMeters>3.2000000476837158203125</AltitudeMeters>
            <DistanceMeters>74687.995237979</DistanceMeters>
          </Trackpoint>
          <Trackpoint>
            <Time>2021-03-13T11:16:44.000Z</Time>
            <Position>
              <LatitudeDegrees>36.74423684366047382354736328125</LatitudeDegrees>
              <LongitudeDegrees>-4.08951505087316036224365234375</LongitudeDegrees>
            </Position>
            <AltitudeMeters>3.2000000476837158203125</AltitudeMeters>
            <DistanceMeters>74694.119118079</DistanceMeters>
          </Trackpoint>
          <Trackpoint>
            <Time>2021-03-13T11:16:47.000Z</Time>
            <Position>
              <LatitudeDegrees>36.744099967181682586669921875</LatitudeDegrees>
              <LongitudeDegrees>-4.08970247022807598114013671875</LongitudeDegrees>
            </Position>
            <AltitudeMeters>3</AltitudeMeters>
            <DistanceMeters>74716.735675734</DistanceMeters>
          </Trackpoint>
          <Trackpoint>
            <Time>2021-03-13T11:16:52.000Z</Time>
            <Position>
              <LatitudeDegrees>36.74389134161174297332763671875</LatitudeDegrees>
              <LongitudeDegrees>-4.0900638140738010406494140625</LongitudeDegrees>
            </Position>
            <AltitudeMeters>2.7999999523162841796875</AltitudeMeters>
            <DistanceMeters>74756.457410678</DistanceMeters>
          </Trackpoint>
          <Trackpoint>
            <Time>2021-03-13T11:16:56.000Z</Time>
            <Position>
              <LatitudeDegrees>36.74373778514564037322998046875</LatitudeDegrees>
              <LongitudeDegrees>-4.09034301526844501495361328125</LongitudeDegrees>
            </Position>
            <AltitudeMeters>2.7999999523162841796875</AltitudeMeters>
            <DistanceMeters>74786.660063909</DistanceMeters>
          </Trackpoint>
          <Trackpoint>
            <Time>2021-03-13T11:16:58.000Z</Time>
            <Position>
              <LatitudeDegrees>36.7436525411903858184814453125</LatitudeDegrees>
              <LongitudeDegrees>-4.0904798917472362518310546875</LongitudeDegrees>
            </Position>
            <AltitudeMeters>3</AltitudeMeters>
            <DistanceMeters>74802.12170172</DistanceMeters>
          </Trackpoint>
          <Trackpoint>
            <Time>2021-03-13T11:17:01.000Z</Time>
            <Position>
              <LatitudeDegrees>36.74355539493262767791748046875</LatitudeDegrees>
              <LongitudeDegrees>-4.09066848456859588623046875</LongitudeDegrees>
            </Position>
            <AltitudeMeters>3</AltitudeMeters>
            <DistanceMeters>74822.117544407</DistanceMeters>
          </Trackpoint>
          <Trackpoint>
            <Time>2021-03-13T11:17:03.000Z</Time>
            <Position>
              <LatitudeDegrees>36.7435066960752010345458984375</LatitudeDegrees>
              <LongitudeDegrees>-4.09076412208378314971923828125</LongitudeDegrees>
            </Position>
            <AltitudeMeters>3.2000000476837158203125</AltitudeMeters>
            <DistanceMeters>74832.223491398</DistanceMeters>
          </Trackpoint>
          <Trackpoint>
            <Time>2021-03-13T11:17:09.000Z</Time>
            <Position>
              <LatitudeDegrees>36.74335054121911525726318359375</LatitudeDegrees>
              <LongitudeDegrees>-4.09103569574654102325439453125</LongitudeDegrees>
            </Position>
            <AltitudeMeters>3.2000000476837158203125</AltitudeMeters>
            <DistanceMeters>74862.035387575</DistanceMeters>
          </Trackpoint>
          <Trackpoint>
            <Time>2021-03-13T11:17:10.000Z</Time>
            <Position>
              <LatitudeDegrees>36.74332355149090290069580078125</LatitudeDegrees>
              <LongitudeDegrees>-4.09107961691915988922119140625</LongitudeDegrees>
            </Position>
            <AltitudeMeters>3.2000000476837158203125</AltitudeMeters>
            <DistanceMeters>74866.971291368</DistanceMeters>
          </Trackpoint>
          <Trackpoint>
            <Time>2021-03-13T11:17:11.000Z</Time>
            <Position>
              <LatitudeDegrees>36.74330142326653003692626953125</LatitudeDegrees>
              <LongitudeDegrees>-4.0911252982914447784423828125</LongitudeDegrees>
            </Position>
            <AltitudeMeters>3.2000000476837158203125</AltitudeMeters>
            <DistanceMeters>74871.732120274</DistanceMeters>
          </Trackpoint>
          <Trackpoint>
            <Time>2021-03-13T11:17:16.000Z</Time>
            <Position>
              <LatitudeDegrees>36.743185333907604217529296875</LatitudeDegrees>
              <LongitudeDegrees>-4.09136585891246795654296875</LongitudeDegrees>
            </Position>
            <AltitudeMeters>3.400000095367431640625</AltitudeMeters>
            <DistanceMeters>74896.77792472</DistanceMeters>
          </Trackpoint>
          <Trackpoint>
            <Time>2021-03-13T11:17:17.000Z</Time>
            <Position>
              <LatitudeDegrees>36.74315826036036014556884765625</LatitudeDegrees>
              <LongitudeDegrees>-4.09142361022531986236572265625</LongitudeDegrees>
            </Position>
            <AltitudeMeters>3.400000095367431640625</AltitudeMeters>
            <DistanceMeters>74902.745723434</DistanceMeters>
          </Trackpoint>
          <Trackpoint>
            <Time>2021-03-13T11:17:22.000Z</Time>
            <Position>
              <LatitudeDegrees>36.7429796420037746429443359375</LatitudeDegrees>
              <LongitudeDegrees>-4.09173239953815937042236328125</LongitudeDegrees>
            </Position>
            <AltitudeMeters>3.400000095367431640625</AltitudeMeters>
            <DistanceMeters>74936.712423994</DistanceMeters>
          </Trackpoint>
          <Trackpoint>
            <Time>2021-03-13T11:17:28.000Z</Time>
            <Position>
              <LatitudeDegrees>36.74274469725787639617919921875</LatitudeDegrees>
              <LongitudeDegrees>-4.092205055058002471923828125</LongitudeDegrees>
            </Position>
            <AltitudeMeters>3.400000095367431640625</AltitudeMeters>
            <DistanceMeters>74986.320191662</DistanceMeters>
          </Trackpoint>
          <Trackpoint>
            <Time>2021-03-13T11:17:30.000Z</Time>
            <Position>
              <LatitudeDegrees>36.7426644824445247650146484375</LatitudeDegrees>
              <LongitudeDegrees>-4.09235953353345394134521484375</LongitudeDegrees>
            </Position>
            <AltitudeMeters>3.400000095367431640625</AltitudeMeters>
            <DistanceMeters>75002.737552037</DistanceMeters>
          </Trackpoint>
          <Trackpoint>
            <Time>2021-03-13T11:17:33.000Z</Time>
            <Position>
              <LatitudeDegrees>36.74253699369728565216064453125</LatitudeDegrees>
              <LongitudeDegrees>-4.09258232451975345611572265625</LongitudeDegrees>
            </Position>
            <AltitudeMeters>3.400000095367431640625</AltitudeMeters>
            <DistanceMeters>75027.154425445</DistanceMeters>
          </Trackpoint>
          <Trackpoint>
            <Time>2021-03-13T11:17:37.000Z</Time>
            <Position>
              <LatitudeDegrees>36.74238025210797786712646484375</LatitudeDegrees>
              <LongitudeDegrees>-4.0928590111434459686279296875</LongitudeDegrees>
            </Position>
            <AltitudeMeters>3.599999904632568359375</AltitudeMeters>
            <DistanceMeters>75057.375908728</DistanceMeters>
          </Trackpoint>
          <Trackpoint>
            <Time>2021-03-13T11:17:40.000Z</Time>
            <Position>
              <LatitudeDegrees>36.742276735603809356689453125</LatitudeDegrees>
              <LongitudeDegrees>-4.0930407308042049407958984375</LongitudeDegrees>
            </Position>
            <AltitudeMeters>3.7999999523162841796875</AltitudeMeters>
            <DistanceMeters>75077.261256285</DistanceMeters>
          </Trackpoint>
          <Trackpoint>
            <Time>2021-03-13T11:17:43.000Z</Time>
            <Position>
              <LatitudeDegrees>36.74219367094337940216064453125</LatitudeDegrees>
              <LongitudeDegrees>-4.09320007078349590301513671875</LongitudeDegrees>
            </Position>
            <AltitudeMeters>3.7999999523162841796875</AltitudeMeters>
            <DistanceMeters>75094.215470905</DistanceMeters>
          </Trackpoint>
          <Trackpoint>
            <Time>2021-03-13T11:17:47.000Z</Time>
            <Position>
              <LatitudeDegrees>36.74210851080715656280517578125</LatitudeDegrees>
              <LongitudeDegrees>-4.09335630945861339569091796875</LongitudeDegrees>
            </Position>
            <AltitudeMeters>4</AltitudeMeters>
            <DistanceMeters>75111.068452671</DistanceMeters>
          </Trackpoint>
          <Trackpoint>
            <Time>2021-03-13T11:17:51.000Z</Time>
            <Position>
              <LatitudeDegrees>36.7420723848044872283935546875</LatitudeDegrees>
              <LongitudeDegrees>-4.09343644045293331146240234375</LongitudeDegrees>
            </Position>
            <AltitudeMeters>4.19999980926513671875</AltitudeMeters>
            <DistanceMeters>75119.269428793</DistanceMeters>
          </Trackpoint>
          <Trackpoint>
            <Time>2021-03-13T11:17:57.000Z</Time>
            <Position>
              <LatitudeDegrees>36.7420723848044872283935546875</LatitudeDegrees>
              <LongitudeDegrees>-4.09343644045293331146240234375</LongitudeDegrees>
            </Position>
            <AltitudeMeters>4.400000095367431640625</AltitudeMeters>
            <DistanceMeters>75119.269428793</DistanceMeters>
          </Trackpoint>
          <Trackpoint>
            <Time>2021-03-13T11:18:01.000Z</Time>
            <Position>
              <LatitudeDegrees>36.7420723848044872283935546875</LatitudeDegrees>
              <LongitudeDegrees>-4.09343644045293331146240234375</LongitudeDegrees>
            </Position>
            <AltitudeMeters>4.400000095367431640625</AltitudeMeters>
            <DistanceMeters>75119.269428793</DistanceMeters>
          </Trackpoint>
          <Trackpoint>
            <Time>2021-03-13T11:18:08.000Z</Time>
            <Position>
              <LatitudeDegrees>36.74205050803720951080322265625</LatitudeDegrees>
              <LongitudeDegrees>-4.09346602857112884521484375</LongitudeDegrees>
            </Position>
            <AltitudeMeters>4</AltitudeMeters>
            <DistanceMeters>75122.860382588</DistanceMeters>
          </Trackpoint>
          <Trackpoint>
            <Time>2021-03-13T11:18:10.000Z</Time>
            <Position>
              <LatitudeDegrees>36.742012202739715576171875</LatitudeDegrees>
              <LongitudeDegrees>-4.093525707721710205078125</LongitudeDegrees>
            </Position>
            <AltitudeMeters>4</AltitudeMeters>
            <DistanceMeters>75129.6804943</DistanceMeters>
          </Trackpoint>
          <Trackpoint>
            <Time>2021-03-13T11:18:14.000Z</Time>
            <Position>
              <LatitudeDegrees>36.741907931864261627197265625</LatitudeDegrees>
              <LongitudeDegrees>-4.093713462352752685546875</LongitudeDegrees>
            </Position>
            <AltitudeMeters>3.7999999523162841796875</AltitudeMeters>
            <DistanceMeters>75150.055250109</DistanceMeters>
          </Trackpoint>
          <Trackpoint>
            <Time>2021-03-13T11:18:18.000Z</Time>
            <Position>
              <LatitudeDegrees>36.74179502762854099273681640625</LatitudeDegrees>
              <LongitudeDegrees>-4.0939137898385524749755859375</LongitudeDegrees>
            </Position>
            <AltitudeMeters>3.7999999523162841796875</AltitudeMeters>
            <DistanceMeters>75171.899409499</DistanceMeters>
          </Trackpoint>
          <Trackpoint>
            <Time>2021-03-13T11:18:20.000Z</Time>
            <Position>
              <LatitudeDegrees>36.7417238652706146240234375</LatitudeDegrees>
              <LongitudeDegrees>-4.09402971155941486358642578125</LongitudeDegrees>
            </Position>
            <AltitudeMeters>3.7999999523162841796875</AltitudeMeters>
            <DistanceMeters>75184.923963851</DistanceMeters>
          </Trackpoint>
          <Trackpoint>
            <Time>2021-03-13T11:18:22.000Z</Time>
            <Position>
              <LatitudeDegrees>36.74165119417011737823486328125</LatitudeDegrees>
              <LongitudeDegrees>-4.09416700713336467742919921875</LongitudeDegrees>
            </Position>
            <AltitudeMeters>3.599999904632568359375</AltitudeMeters>
            <DistanceMeters>75199.599362421</DistanceMeters>
          </Trackpoint>
          <Trackpoint>
            <Time>2021-03-13T11:18:25.000Z</Time>
            <Position>
              <LatitudeDegrees>36.7415280640125274658203125</LatitudeDegrees>
              <LongitudeDegrees>-4.094380326569080352783203125</LongitudeDegrees>
            </Position>
            <AltitudeMeters>3.7999999523162841796875</AltitudeMeters>
            <DistanceMeters>75223.047288436</DistanceMeters>
          </Trackpoint>
          <Trackpoint>
            <Time>2021-03-13T11:18:28.000Z</Time>
            <Position>
              <LatitudeDegrees>36.74139873124659061431884765625</LatitudeDegrees>
              <LongitudeDegrees>-4.0946205519139766693115234375</LongitudeDegrees>
            </Position>
            <AltitudeMeters>3.7999999523162841796875</AltitudeMeters>
            <DistanceMeters>75248.859944643</DistanceMeters>
          </Trackpoint>
          <Trackpoint>
            <Time>2021-03-13T11:18:30.000Z</Time>
            <Position>
              <LatitudeDegrees>36.7412965558469295501708984375</LatitudeDegrees>
              <LongitudeDegrees>-4.09477704204618930816650390625</LongitudeDegrees>
            </Position>
            <AltitudeMeters>3.7999999523162841796875</AltitudeMeters>
            <DistanceMeters>75266.864184536</DistanceMeters>
          </Trackpoint>
          <Trackpoint>
            <Time>2021-03-13T11:18:35.000Z</Time>
            <Position>
              <LatitudeDegrees>36.74113176763057708740234375</LatitudeDegrees>
              <LongitudeDegrees>-4.09511567093431949615478515625</LongitudeDegrees>
            </Position>
            <AltitudeMeters>3.7999999523162841796875</AltitudeMeters>
            <DistanceMeters>75302.20006984</DistanceMeters>
          </Trackpoint>
          <Trackpoint>
            <Time>2021-03-13T11:18:38.000Z</Time>
            <Position>
              <LatitudeDegrees>36.74111492000520229339599609375</LatitudeDegrees>
              <LongitudeDegrees>-4.095159508287906646728515625</LongitudeDegrees>
            </Position>
            <AltitudeMeters>3.7999999523162841796875</AltitudeMeters>
            <DistanceMeters>75306.536037916</DistanceMeters>
          </Trackpoint>
          <Trackpoint>
            <Time>2021-03-13T11:18:45.000Z</Time>
            <Position>
              <LatitudeDegrees>36.74110888503491878509521484375</LatitudeDegrees>
              <LongitudeDegrees>-4.0951660461723804473876953125</LongitudeDegrees>
            </Position>
            <AltitudeMeters>4</AltitudeMeters>
            <DistanceMeters>75307.427467513</DistanceMeters>
          </Trackpoint>
          <Trackpoint>
            <Time>2021-03-13T11:18:50.000Z</Time>
            <Position>
              <LatitudeDegrees>36.74108642153441905975341796875</LatitudeDegrees>
              <LongitudeDegrees>-4.095238633453845977783203125</LongitudeDegrees>
            </Position>
            <AltitudeMeters>4</AltitudeMeters>
            <DistanceMeters>75314.367671239</DistanceMeters>
          </Trackpoint>
          <Trackpoint>
            <Time>2021-03-13T11:18:52.000Z</Time>
            <Position>
              <LatitudeDegrees>36.74106462858617305755615234375</LatitudeDegrees>
              <LongitudeDegrees>-4.09528381191194057464599609375</LongitudeDegrees>
            </Position>
            <AltitudeMeters>4</AltitudeMeters>
            <DistanceMeters>75319.070293615</DistanceMeters>
          </Trackpoint>
          <Trackpoint>
            <Time>2021-03-13T11:18:53.000Z</Time>
            <Position>
              <LatitudeDegrees>36.74103629775345325469970703125</LatitudeDegrees>
              <LongitudeDegrees>-4.095331169664859771728515625</LongitudeDegrees>
            </Position>
            <AltitudeMeters>4</AltitudeMeters>
            <DistanceMeters>75324.340636596</DistanceMeters>
          </Trackpoint>
          <Trackpoint>
            <Time>2021-03-13T11:18:55.000Z</Time>
            <Position>
              <LatitudeDegrees>36.740963123738765716552734375</LatitudeDegrees>
              <LongitudeDegrees>-4.09546385519206523895263671875</LongitudeDegrees>
            </Position>
            <AltitudeMeters>3.7999999523162841796875</AltitudeMeters>
            <DistanceMeters>75338.70633766</DistanceMeters>
          </Trackpoint>
          <Trackpoint>
            <Time>2021-03-13T11:18:59.000Z</Time>
            <Position>
              <LatitudeDegrees>36.7408134229481220245361328125</LatitudeDegrees>
              <LongitudeDegrees>-4.09573785960674285888671875</LongitudeDegrees>
            </Position>
            <AltitudeMeters>3.7999999523162841796875</AltitudeMeters>
            <DistanceMeters>75368.284690492</DistanceMeters>
          </Trackpoint>
          <Trackpoint>
            <Time>2021-03-13T11:19:03.000Z</Time>
            <Position>
              <LatitudeDegrees>36.74059708602726459503173828125</LatitudeDegrees>
              <LongitudeDegrees>-4.096056707203388214111328125</LongitudeDegrees>
            </Position>
            <AltitudeMeters>3.400000095367431640625</AltitudeMeters>
            <DistanceMeters>75405.547887144</DistanceMeters>
          </Trackpoint>
          <Trackpoint>
            <Time>2021-03-13T11:19:04.000Z</Time>
            <Position>
              <LatitudeDegrees>36.7405455373227596282958984375</LatitudeDegrees>
              <LongitudeDegrees>-4.09615687094628810882568359375</LongitudeDegrees>
            </Position>
            <AltitudeMeters>3.400000095367431640625</AltitudeMeters>
            <DistanceMeters>75416.165395059</DistanceMeters>
          </Trackpoint>
          <Trackpoint>
            <Time>2021-03-13T11:19:10.000Z</Time>
            <Position>
              <LatitudeDegrees>36.740322411060333251953125</LatitudeDegrees>
              <LongitudeDegrees>-4.09662608988583087921142578125</LongitudeDegrees>
            </Position>
            <AltitudeMeters>3.7999999523162841796875</AltitudeMeters>
            <DistanceMeters>75464.829836371</DistanceMeters>
          </Trackpoint>
          <Trackpoint>
            <Time>2021-03-13T11:19:16.000Z</Time>
            <Position>
              <LatitudeDegrees>36.7400962673127651214599609375</LatitudeDegrees>
              <LongitudeDegrees>-4.09709128551185131072998046875</LongitudeDegrees>
            </Position>
            <AltitudeMeters>4</AltitudeMeters>
            <DistanceMeters>75513.359561668</DistanceMeters>
          </Trackpoint>
          <Trackpoint>
            <Time>2021-03-13T11:19:22.000Z</Time>
            <Position>
              <LatitudeDegrees>36.7398914135992527008056640625</LatitudeDegrees>
              <LongitudeDegrees>-4.09751373343169689178466796875</LongitudeDegrees>
            </Position>
            <AltitudeMeters>4.19999980926513671875</AltitudeMeters>
            <DistanceMeters>75557.400522598</DistanceMeters>
          </Trackpoint>
          <Trackpoint>
            <Time>2021-03-13T11:19:25.000Z</Time>
            <Position>
              <LatitudeDegrees>36.73980734311044216156005859375</LatitudeDegrees>
              <LongitudeDegrees>-4.09773115999996662139892578125</LongitudeDegrees>
            </Position>
            <AltitudeMeters>4.19999980926513671875</AltitudeMeters>
            <DistanceMeters>75578.932829603</DistanceMeters>
          </Trackpoint>
          <Trackpoint>
            <Time>2021-03-13T11:19:26.000Z</Time>
            <Position>
              <LatitudeDegrees>36.73978253267705440521240234375</LatitudeDegrees>
              <LongitudeDegrees>-4.097804836928844451904296875</LongitudeDegrees>
            </Position>
            <AltitudeMeters>4.19999980926513671875</AltitudeMeters>
            <DistanceMeters>75586.061733462</DistanceMeters>
          </Trackpoint>
          <Trackpoint>
            <Time>2021-03-13T11:19:28.000Z</Time>
            <Position>
              <LatitudeDegrees>36.73968077637255191802978515625</LatitudeDegrees>
              <LongitudeDegrees>-4.09793165512382984161376953125</LongitudeDegrees>
            </Position>
            <AltitudeMeters>4.19999980926513671875</AltitudeMeters>
            <DistanceMeters>75602.0685879</DistanceMeters>
          </Trackpoint>
          <Trackpoint>
            <Time>2021-03-13T11:19:30.000Z</Time>
            <Position>
              <LatitudeDegrees>36.73961229622364044189453125</LatitudeDegrees>
              <LongitudeDegrees>-4.09808185882866382598876953125</LongitudeDegrees>
            </Position>
            <AltitudeMeters>4.19999980926513671875</AltitudeMeters>
            <DistanceMeters>75617.48196784</DistanceMeters>
          </Trackpoint>
          <Trackpoint>
            <Time>2021-03-13T11:19:37.000Z</Time>
            <Position>
              <LatitudeDegrees>36.739365197718143463134765625</LatitudeDegrees>
              <LongitudeDegrees>-4.09860514104366302490234375</LongitudeDegrees>
            </Position>
            <AltitudeMeters>4.599999904632568359375</AltitudeMeters>
            <DistanceMeters>75671.65561341</DistanceMeters>
          </Trackpoint>
          <Trackpoint>
            <Time>2021-03-13T11:19:41.000Z</Time>
            <Position>
              <LatitudeDegrees>36.73927157185971736907958984375</LatitudeDegrees>
              <LongitudeDegrees>-4.09881242550909519195556640625</LongitudeDegrees>
            </Position>
            <AltitudeMeters>4.80000019073486328125</AltitudeMeters>
            <DistanceMeters>75692.878719051</DistanceMeters>
          </Trackpoint>
          <Trackpoint>
            <Time>2021-03-13T11:19:45.000Z</Time>
            <Position>
              <LatitudeDegrees>36.73919026739895343780517578125</LatitudeDegrees>
              <LongitudeDegrees>-4.0989311970770359039306640625</LongitudeDegrees>
            </Position>
            <AltitudeMeters>5</AltitudeMeters>
            <DistanceMeters>75706.811074316</DistanceMeters>
          </Trackpoint>
          <Trackpoint>
            <Time>2021-03-13T11:19:48.000Z</Time>
            <Position>
              <LatitudeDegrees>36.73907459713518619537353515625</LatitudeDegrees>
              <LongitudeDegrees>-4.0990824066102504730224609375</LongitudeDegrees>
            </Position>
            <AltitudeMeters>5</AltitudeMeters>
            <DistanceMeters>75725.456177774</DistanceMeters>
          </Trackpoint>
          <Trackpoint>
            <Time>2021-03-13T11:19:49.000Z</Time>
            <Position>
              <LatitudeDegrees>36.7390498705208301544189453125</LatitudeDegrees>
              <LongitudeDegrees>-4.099129177629947662353515625</LongitudeDegrees>
            </Position>
            <AltitudeMeters>5</AltitudeMeters>
            <DistanceMeters>75730.452992896</DistanceMeters>
          </Trackpoint>
          <Trackpoint>
            <Time>2021-03-13T11:19:55.000Z</Time>
            <Position>
              <LatitudeDegrees>36.73886789940297603607177734375</LatitudeDegrees>
              <LongitudeDegrees>-4.099516756832599639892578125</LongitudeDegrees>
            </Position>
            <AltitudeMeters>5</AltitudeMeters>
            <DistanceMeters>75770.518897222</DistanceMeters>
          </Trackpoint>
          <Trackpoint>
            <Time>2021-03-13T11:19:57.000Z</Time>
            <Position>
              <LatitudeDegrees>36.7388289235532283782958984375</LatitudeDegrees>
              <LongitudeDegrees>-4.099657572805881500244140625</LongitudeDegrees>
            </Position>
            <AltitudeMeters>5</AltitudeMeters>
            <DistanceMeters>75783.807016531</DistanceMeters>
          </Trackpoint>
          <Trackpoint>
            <Time>2021-03-13T11:19:58.000Z</Time>
            <Position>
              <LatitudeDegrees>36.738797910511493682861328125</LatitudeDegrees>
              <LongitudeDegrees>-4.0997315011918544769287109375</LongitudeDegrees>
            </Position>
            <AltitudeMeters>5</AltitudeMeters>
            <DistanceMeters>75791.250101845</DistanceMeters>
          </Trackpoint>
          <Trackpoint>
            <Time>2021-03-13T11:19:59.000Z</Time>
            <Position>
              <LatitudeDegrees>36.73875331878662109375</LatitudeDegrees>
              <LongitudeDegrees>-4.099799059331417083740234375</LongitudeDegrees>
            </Position>
            <AltitudeMeters>5</AltitudeMeters>
            <DistanceMeters>75799.056764763</DistanceMeters>
          </Trackpoint>
          <Trackpoint>
            <Time>2021-03-13T11:20:02.000Z</Time>
            <Position>
              <LatitudeDegrees>36.73860219307243824005126953125</LatitudeDegrees>
              <LongitudeDegrees>-4.0999963693320751190185546875</LongitudeDegrees>
            </Position>
            <AltitudeMeters>5</AltitudeMeters>
            <DistanceMeters>75823.401043701</DistanceMeters>
          </Trackpoint>
          <Trackpoint>
            <Time>2021-03-13T11:20:09.000Z</Time>
            <Position>
              <LatitudeDegrees>36.73835727386176586151123046875</LatitudeDegrees>
              <LongitudeDegrees>-4.1004701144993305206298828125</LongitudeDegrees>
            </Position>
            <AltitudeMeters>5.19999980926513671875</AltitudeMeters>
            <DistanceMeters>75873.686519697</DistanceMeters>
          </Trackpoint>
          <Trackpoint>
            <Time>2021-03-13T11:20:13.000Z</Time>
            <Position>
              <LatitudeDegrees>36.73822098411619663238525390625</LatitudeDegrees>
              <LongitudeDegrees>-4.1007470525801181793212890625</LongitudeDegrees>
            </Position>
            <AltitudeMeters>5.400000095367431640625</AltitudeMeters>
            <DistanceMeters>75902.673873375</DistanceMeters>
          </Trackpoint>
          <Trackpoint>
            <Time>2021-03-13T11:20:15.000Z</Time>
            <Position>
              <LatitudeDegrees>36.73814789392054080963134765625</LatitudeDegrees>
              <LongitudeDegrees>-4.100891388952732086181640625</LongitudeDegrees>
            </Position>
            <AltitudeMeters>5.400000095367431640625</AltitudeMeters>
            <DistanceMeters>75917.902478801</DistanceMeters>
          </Trackpoint>
          <Trackpoint>
            <Time>2021-03-13T11:20:16.000Z</Time>
            <Position>
              <LatitudeDegrees>36.7381097562611103057861328125</LatitudeDegrees>
              <LongitudeDegrees>-4.10096255131065845489501953125</LongitudeDegrees>
            </Position>
            <AltitudeMeters>5.599999904632568359375</AltitudeMeters>
            <DistanceMeters>75925.537802863</DistanceMeters>
          </Trackpoint>
          <Trackpoint>
            <Time>2021-03-13T11:20:22.000Z</Time>
            <Position>
              <LatitudeDegrees>36.7378837801516056060791015625</LatitudeDegrees>
              <LongitudeDegrees>-4.10140268504619598388671875</LongitudeDegrees>
            </Position>
            <AltitudeMeters>5.80000019073486328125</AltitudeMeters>
            <DistanceMeters>75972.161554128</DistanceMeters>
          </Trackpoint>
          <Trackpoint>
            <Time>2021-03-13T11:20:23.000Z</Time>
            <Position>
              <LatitudeDegrees>36.73784882761538028717041015625</LatitudeDegrees>
              <LongitudeDegrees>-4.10147669725120067596435546875</LongitudeDegrees>
            </Position>
            <AltitudeMeters>5.80000019073486328125</AltitudeMeters>
            <DistanceMeters>75979.824031341</DistanceMeters>
          </Trackpoint>
          <Trackpoint>
            <Time>2021-03-13T11:20:31.000Z</Time>
            <Position>
              <LatitudeDegrees>36.73756577074527740478515625</LatitudeDegrees>
              <LongitudeDegrees>-4.10208488814532756805419921875</LongitudeDegrees>
            </Position>
            <AltitudeMeters>5.80000019073486328125</AltitudeMeters>
            <DistanceMeters>76042.556634945</DistanceMeters>
          </Trackpoint>
          <Trackpoint>
            <Time>2021-03-13T11:20:37.000Z</Time>
            <Position>
              <LatitudeDegrees>36.73735312186181545257568359375</LatitudeDegrees>
              <LongitudeDegrees>-4.1025256924331188201904296875</LongitudeDegrees>
            </Position>
            <AltitudeMeters>5.599999904632568359375</AltitudeMeters>
            <DistanceMeters>76088.448536942</DistanceMeters>
          </Trackpoint>
          <Trackpoint>
            <Time>2021-03-13T11:20:39.000Z</Time>
            <Position>
              <LatitudeDegrees>36.73733233474195003509521484375</LatitudeDegrees>
              <LongitudeDegrees>-4.10269240848720073699951171875</LongitudeDegrees>
            </Position>
            <AltitudeMeters>5.599999904632568359375</AltitudeMeters>
            <DistanceMeters>76103.497900625</DistanceMeters>
          </Trackpoint>
          <Trackpoint>
            <Time>2021-03-13T11:20:40.000Z</Time>
            <Position>
              <LatitudeDegrees>36.73733719624578952789306640625</LatitudeDegrees>
              <LongitudeDegrees>-4.102780334651470184326171875</LongitudeDegrees>
            </Position>
            <AltitudeMeters>5.599999904632568359375</AltitudeMeters>
            <DistanceMeters>76111.359315459</DistanceMeters>
          </Trackpoint>
          <Trackpoint>
            <Time>2021-03-13T11:20:41.000Z</Time>
            <Position>
              <LatitudeDegrees>36.737336777150630950927734375</LatitudeDegrees>
              <LongitudeDegrees>-4.10286557860672473907470703125</LongitudeDegrees>
            </Position>
            <AltitudeMeters>5.599999904632568359375</AltitudeMeters>
            <DistanceMeters>76118.962046502</DistanceMeters>
          </Trackpoint>
          <Trackpoint>
            <Time>2021-03-13T11:20:43.000Z</Time>
            <Position>
              <LatitudeDegrees>36.73728757537901401519775390625</LatitudeDegrees>
              <LongitudeDegrees>-4.103016369044780731201171875</LongitudeDegrees>
            </Position>
            <AltitudeMeters>5.599999904632568359375</AltitudeMeters>
            <DistanceMeters>76133.484043792</DistanceMeters>
          </Trackpoint>
          <Trackpoint>
            <Time>2021-03-13T11:20:45.000Z</Time>
            <Position>
              <LatitudeDegrees>36.73717592842876911163330078125</LatitudeDegrees>
              <LongitudeDegrees>-4.10311519168317317962646484375</LongitudeDegrees>
            </Position>
            <AltitudeMeters>5.599999904632568359375</AltitudeMeters>
            <DistanceMeters>76148.71917047</DistanceMeters>
          </Trackpoint>
          <Trackpoint>
            <Time>2021-03-13T11:20:46.000Z</Time>
            <Position>
              <LatitudeDegrees>36.73711557872593402862548828125</LatitudeDegrees>
              <LongitudeDegrees>-4.10315240733325481414794921875</LongitudeDegrees>
            </Position>
            <AltitudeMeters>5.599999904632568359375</AltitudeMeters>
            <DistanceMeters>76156.211832564</DistanceMeters>
          </Trackpoint>
          <Trackpoint>
            <Time>2021-03-13T11:20:47.000Z</Time>
            <Position>
              <LatitudeDegrees>36.737061180174350738525390625</LatitudeDegrees>
              <LongitudeDegrees>-4.1031979210674762725830078125</LongitudeDegrees>
            </Position>
            <AltitudeMeters>5.80000019073486328125</AltitudeMeters>
            <DistanceMeters>76163.501069136</DistanceMeters>
          </Trackpoint>
          <Trackpoint>
            <Time>2021-03-13T11:20:49.000Z</Time>
            <Position>
              <LatitudeDegrees>36.7369738407433032989501953125</LatitudeDegrees>
              <LongitudeDegrees>-4.10333345644176006317138671875</LongitudeDegrees>
            </Position>
            <AltitudeMeters>6</AltitudeMeters>
            <DistanceMeters>76179.014016542</DistanceMeters>
          </Trackpoint>
          <Trackpoint>
            <Time>2021-03-13T11:20:57.000Z</Time>
            <Position>
              <LatitudeDegrees>36.7367321066558361053466796875</LatitudeDegrees>
              <LongitudeDegrees>-4.1039589978754520416259765625</LongitudeDegrees>
            </Position>
            <AltitudeMeters>6</AltitudeMeters>
            <DistanceMeters>76240.958461515</DistanceMeters>
          </Trackpoint>
          <Trackpoint>
            <Time>2021-03-13T11:20:59.000Z</Time>
            <Position>
              <LatitudeDegrees>36.73667217604815959930419921875</LatitudeDegrees>
              <LongitudeDegrees>-4.10411850549280643463134765625</LongitudeDegrees>
            </Position>
            <AltitudeMeters>6</AltitudeMeters>
            <DistanceMeters>76256.671811897</DistanceMeters>
          </Trackpoint>
          <Trackpoint>
            <Time>2021-03-13T11:21:07.000Z</Time>
            <Position>
              <LatitudeDegrees>36.73643815331161022186279296875</LatitudeDegrees>
              <LongitudeDegrees>-4.10474832169711589813232421875</LongitudeDegrees>
            </Position>
            <AltitudeMeters>6.400000095367431640625</AltitudeMeters>
            <DistanceMeters>76318.594094799</DistanceMeters>
          </Trackpoint>
          <Trackpoint>
            <Time>2021-03-13T11:21:08.000Z</Time>
            <Position>
              <LatitudeDegrees>36.73641066066920757293701171875</LatitudeDegrees>
              <LongitudeDegrees>-4.1048243455588817596435546875</LongitudeDegrees>
            </Position>
            <AltitudeMeters>6.400000095367431640625</AltitudeMeters>
            <DistanceMeters>76326.032932641</DistanceMeters>
          </Trackpoint>
          <Trackpoint>
            <Time>2021-03-13T11:21:10.000Z</Time>
            <Position>
              <LatitudeDegrees>36.73636070452630519866943359375</LatitudeDegrees>
              <LongitudeDegrees>-4.1049718670547008514404296875</LongitudeDegrees>
            </Position>
            <AltitudeMeters>6.599999904632568359375</AltitudeMeters>
            <DistanceMeters>76340.318264194</DistanceMeters>
          </Trackpoint>
          <Trackpoint>
            <Time>2021-03-13T11:21:12.000Z</Time>
            <Position>
              <LatitudeDegrees>36.7363116703927516937255859375</LatitudeDegrees>
              <LongitudeDegrees>-4.1051230765879154205322265625</LongitudeDegrees>
            </Position>
            <AltitudeMeters>6.80000019073486328125</AltitudeMeters>
            <DistanceMeters>76354.868216501</DistanceMeters>
          </Trackpoint>
          <Trackpoint>
            <Time>2021-03-13T11:21:14.000Z</Time>
            <Position>
              <LatitudeDegrees>36.7362985946238040924072265625</LatitudeDegrees>
              <LongitudeDegrees>-4.1052819974720478057861328125</LongitudeDegrees>
            </Position>
            <AltitudeMeters>7</AltitudeMeters>
            <DistanceMeters>76369.117788387</DistanceMeters>
          </Trackpoint>
          <Trackpoint>
            <Time>2021-03-13T11:21:16.000Z</Time>
            <Position>
              <LatitudeDegrees>36.7363140173256397247314453125</LatitudeDegrees>
              <LongitudeDegrees>-4.10544888116419315338134765625</LongitudeDegrees>
            </Position>
            <AltitudeMeters>6.80000019073486328125</AltitudeMeters>
            <DistanceMeters>76384.101907336</DistanceMeters>
          </Trackpoint>
          <Trackpoint>
            <Time>2021-03-13T11:21:18.000Z</Time>
            <Position>
              <LatitudeDegrees>36.736285686492919921875</LatitudeDegrees>
              <LongitudeDegrees>-4.1056192852556705474853515625</LongitudeDegrees>
            </Position>
            <AltitudeMeters>7</AltitudeMeters>
            <DistanceMeters>76399.625328995</DistanceMeters>
          </Trackpoint>
          <Trackpoint>
            <Time>2021-03-13T11:21:20.000Z</Time>
            <Position>
              <LatitudeDegrees>36.736184097826480865478515625</LatitudeDegrees>
              <LongitudeDegrees>-4.10575046204030513763427734375</LongitudeDegrees>
            </Position>
            <AltitudeMeters>7</AltitudeMeters>
            <DistanceMeters>76415.896277989</DistanceMeters>
          </Trackpoint>
          <Trackpoint>
            <Time>2021-03-13T11:21:21.000Z</Time>
            <Position>
              <LatitudeDegrees>36.7361202277243137359619140625</LatitudeDegrees>
              <LongitudeDegrees>-4.10580393858253955841064453125</LongitudeDegrees>
            </Position>
            <AltitudeMeters>6.80000019073486328125</AltitudeMeters>
            <DistanceMeters>76424.457124935</DistanceMeters>
          </Trackpoint>
          <Trackpoint>
            <Time>2021-03-13T11:21:22.000Z</Time>
            <Position>
              <LatitudeDegrees>36.73606381751596927642822265625</LatitudeDegrees>
              <LongitudeDegrees>-4.10586663521826267242431640625</LongitudeDegrees>
            </Position>
            <AltitudeMeters>6.80000019073486328125</AltitudeMeters>
            <DistanceMeters>76432.865244134</DistanceMeters>
          </Trackpoint>
          <Trackpoint>
            <Time>2021-03-13T11:21:24.000Z</Time>
            <Position>
              <LatitudeDegrees>36.73598050139844417572021484375</LatitudeDegrees>
              <LongitudeDegrees>-4.10602354444563388824462890625</LongitudeDegrees>
            </Position>
            <AltitudeMeters>6.599999904632568359375</AltitudeMeters>
            <DistanceMeters>76449.654073937</DistanceMeters>
          </Trackpoint>
          <Trackpoint>
            <Time>2021-03-13T11:21:30.000Z</Time>
            <Position>
              <LatitudeDegrees>36.73579693771898746490478515625</LatitudeDegrees>
              <LongitudeDegrees>-4.10652260296046733856201171875</LongitudeDegrees>
            </Position>
            <AltitudeMeters>6.599999904632568359375</AltitudeMeters>
            <DistanceMeters>76498.633501134</DistanceMeters>
          </Trackpoint>
          <Trackpoint>
            <Time>2021-03-13T11:21:38.000Z</Time>
            <Position>
              <LatitudeDegrees>36.735541038215160369873046875</LatitudeDegrees>
              <LongitudeDegrees>-4.10718829371035099029541015625</LongitudeDegrees>
            </Position>
            <AltitudeMeters>7.400000095367431640625</AltitudeMeters>
            <DistanceMeters>76564.489413813</DistanceMeters>
          </Trackpoint>
          <Trackpoint>
            <Time>2021-03-13T11:21:40.000Z</Time>
            <Position>
              <LatitudeDegrees>36.73547255806624889373779296875</LatitudeDegrees>
              <LongitudeDegrees>-4.10735861398279666900634765625</LongitudeDegrees>
            </Position>
            <AltitudeMeters>7.400000095367431640625</AltitudeMeters>
            <DistanceMeters>76581.486715533</DistanceMeters>
          </Trackpoint>
          <Trackpoint>
            <Time>2021-03-13T11:21:48.000Z</Time>
            <Position>
              <LatitudeDegrees>36.73518128693103790283203125</LatitudeDegrees>
              <LongitudeDegrees>-4.1080396436154842376708984375</LongitudeDegrees>
            </Position>
            <AltitudeMeters>7.400000095367431640625</AltitudeMeters>
            <DistanceMeters>76650.342668842</DistanceMeters>
          </Trackpoint>
          <Trackpoint>
            <Time>2021-03-13T11:21:54.000Z</Time>
            <Position>
              <LatitudeDegrees>36.73495757393538951873779296875</LatitudeDegrees>
              <LongitudeDegrees>-4.10853040404617786407470703125</LongitudeDegrees>
            </Position>
            <AltitudeMeters>7.400000095367431640625</AltitudeMeters>
            <DistanceMeters>76700.703868992</DistanceMeters>
          </Trackpoint>
          <Trackpoint>
            <Time>2021-03-13T11:21:56.000Z</Time>
            <Position>
              <LatitudeDegrees>36.734889261424541473388671875</LatitudeDegrees>
              <LongitudeDegrees>-4.10869016312062740325927734375</LongitudeDegrees>
            </Position>
            <AltitudeMeters>7.400000095367431640625</AltitudeMeters>
            <DistanceMeters>76716.85561529</DistanceMeters>
          </Trackpoint>
          <Trackpoint>
            <Time>2021-03-13T11:22:04.000Z</Time>
            <Position>
              <LatitudeDegrees>36.73461190424859523773193359375</LatitudeDegrees>
              <LongitudeDegrees>-4.10933808423578739166259765625</LongitudeDegrees>
            </Position>
            <AltitudeMeters>7.599999904632568359375</AltitudeMeters>
            <DistanceMeters>76782.377482352</DistanceMeters>
          </Trackpoint>
          <Trackpoint>
            <Time>2021-03-13T11:22:10.000Z</Time>
            <Position>
              <LatitudeDegrees>36.734411828219890594482421875</LatitudeDegrees>
              <LongitudeDegrees>-4.1098491288721561431884765625</LongitudeDegrees>
            </Position>
            <AltitudeMeters>7.80000019073486328125</AltitudeMeters>
            <DistanceMeters>76833.110891553</DistanceMeters>
          </Trackpoint>
          <Trackpoint>
            <Time>2021-03-13T11:22:12.000Z</Time>
            <Position>
              <LatitudeDegrees>36.73434720374643802642822265625</LatitudeDegrees>
              <LongitudeDegrees>-4.1100253164768218994140625</LongitudeDegrees>
            </Position>
            <AltitudeMeters>8.19999980926513671875</AltitudeMeters>
            <DistanceMeters>76850.39452424</DistanceMeters>
          </Trackpoint>
          <Trackpoint>
            <Time>2021-03-13T11:22:17.000Z</Time>
            <Position>
              <LatitudeDegrees>36.73417520709335803985595703125</LatitudeDegrees>
              <LongitudeDegrees>-4.11046679131686687469482421875</LongitudeDegrees>
            </Position>
            <AltitudeMeters>8.80000019073486328125</AltitudeMeters>
            <DistanceMeters>76894.180293503</DistanceMeters>
          </Trackpoint>
          <Trackpoint>
            <Time>2021-03-13T11:22:19.000Z</Time>
            <Position>
              <LatitudeDegrees>36.73411619849503040313720703125</LatitudeDegrees>
              <LongitudeDegrees>-4.110637865960597991943359375</LongitudeDegrees>
            </Position>
            <AltitudeMeters>9.19999980926513671875</AltitudeMeters>
            <DistanceMeters>76910.793398464</DistanceMeters>
          </Trackpoint>
          <Trackpoint>
            <Time>2021-03-13T11:22:26.000Z</Time>
            <Position>
              <LatitudeDegrees>36.7338923178613185882568359375</LatitudeDegrees>
              <LongitudeDegrees>-4.111254774034023284912109375</LongitudeDegrees>
            </Position>
            <AltitudeMeters>9.3999996185302734375</AltitudeMeters>
            <DistanceMeters>76971.200498797</DistanceMeters>
          </Trackpoint>
          <Trackpoint>
            <Time>2021-03-13T11:22:29.000Z</Time>
            <Position>
              <LatitudeDegrees>36.73379517160356044769287109375</LatitudeDegrees>
              <LongitudeDegrees>-4.1115271858870983123779296875</LongitudeDegrees>
            </Position>
            <AltitudeMeters>9.3999996185302734375</AltitudeMeters>
            <DistanceMeters>76997.796607123</DistanceMeters>
          </Trackpoint>
          <Trackpoint>
            <Time>2021-03-13T11:22:34.000Z</Time>
            <Position>
              <LatitudeDegrees>36.7336291261017322540283203125</LatitudeDegrees>
              <LongitudeDegrees>-4.11199229769408702850341796875</LongitudeDegrees>
            </Position>
            <AltitudeMeters>9.19999980926513671875</AltitudeMeters>
            <DistanceMeters>77043.214605126</DistanceMeters>
          </Trackpoint>
          <Trackpoint>
            <Time>2021-03-13T11:22:39.000Z</Time>
            <Position>
              <LatitudeDegrees>36.73347213305532932281494140625</LatitudeDegrees>
              <LongitudeDegrees>-4.11246034316718578338623046875</LongitudeDegrees>
            </Position>
            <AltitudeMeters>8.80000019073486328125</AltitudeMeters>
            <DistanceMeters>77088.47356568</DistanceMeters>
          </Trackpoint>
          <Trackpoint>
            <Time>2021-03-13T11:22:44.000Z</Time>
            <Position>
              <LatitudeDegrees>36.73331421799957752227783203125</LatitudeDegrees>
              <LongitudeDegrees>-4.112969376146793365478515625</LongitudeDegrees>
            </Position>
            <AltitudeMeters>8.6000003814697265625</AltitudeMeters>
            <DistanceMeters>77137.162772684</DistanceMeters>
          </Trackpoint>
          <Trackpoint>
            <Time>2021-03-13T11:22:47.000Z</Time>
            <Position>
              <LatitudeDegrees>36.73323056660592555999755859375</LatitudeDegrees>
              <LongitudeDegrees>-4.113277830183506011962890625</LongitudeDegrees>
            </Position>
            <AltitudeMeters>8.19999980926513671875</AltitudeMeters>
            <DistanceMeters>77166.20972076</DistanceMeters>
          </Trackpoint>
          <Trackpoint>
            <Time>2021-03-13T11:22:48.000Z</Time>
            <Position>
              <LatitudeDegrees>36.73320181667804718017578125</LatitudeDegrees>
              <LongitudeDegrees>-4.1133821010589599609375</LongitudeDegrees>
            </Position>
            <AltitudeMeters>7.80000019073486328125</AltitudeMeters>
            <DistanceMeters>77176.045329991</DistanceMeters>
          </Trackpoint>
          <Trackpoint>
            <Time>2021-03-13T11:22:52.000Z</Time>
            <Position>
              <LatitudeDegrees>36.7330963723361492156982421875</LatitudeDegrees>
              <LongitudeDegrees>-4.113804213702678680419921875</LongitudeDegrees>
            </Position>
            <AltitudeMeters>7</AltitudeMeters>
            <DistanceMeters>77215.484736525</DistanceMeters>
          </Trackpoint>
          <Trackpoint>
            <Time>2021-03-13T11:22:53.000Z</Time>
            <Position>
              <LatitudeDegrees>36.73306795768439769744873046875</LatitudeDegrees>
              <LongitudeDegrees>-4.113910831511020660400390625</LongitudeDegrees>
            </Position>
            <AltitudeMeters>6.599999904632568359375</AltitudeMeters>
            <DistanceMeters>77225.507690204</DistanceMeters>
          </Trackpoint>
          <Trackpoint>
            <Time>2021-03-13T11:22:55.000Z</Time>
            <Position>
              <LatitudeDegrees>36.7330065183341503143310546875</LatitudeDegrees>
              <LongitudeDegrees>-4.114121384918689727783203125</LongitudeDegrees>
            </Position>
            <AltitudeMeters>6.400000095367431640625</AltitudeMeters>
            <DistanceMeters>77245.49540248</DistanceMeters>
          </Trackpoint>
          <Trackpoint>
            <Time>2021-03-13T11:23:02.000Z</Time>
            <Position>
              <LatitudeDegrees>36.73277509398758411407470703125</LatitudeDegrees>
              <LongitudeDegrees>-4.1148457489907741546630859375</LongitudeDegrees>
            </Position>
            <AltitudeMeters>5.80000019073486328125</AltitudeMeters>
            <DistanceMeters>77315.054438125</DistanceMeters>
          </Trackpoint>
          <Trackpoint>
            <Time>2021-03-13T11:23:04.000Z</Time>
            <Position>
              <LatitudeDegrees>36.73270636238157749176025390625</LatitudeDegrees>
              <LongitudeDegrees>-4.11505051888525485992431640625</LongitudeDegrees>
            </Position>
            <AltitudeMeters>5.80000019073486328125</AltitudeMeters>
            <DistanceMeters>77334.857421734</DistanceMeters>
          </Trackpoint>
          <Trackpoint>
            <Time>2021-03-13T11:23:06.000Z</Time>
            <Position>
              <LatitudeDegrees>36.73263846896588802337646484375</LatitudeDegrees>
              <LongitudeDegrees>-4.11525503732264041900634765625</LongitudeDegrees>
            </Position>
            <AltitudeMeters>5.599999904632568359375</AltitudeMeters>
            <DistanceMeters>77354.603780914</DistanceMeters>
          </Trackpoint>
          <Trackpoint>
            <Time>2021-03-13T11:23:12.000Z</Time>
            <Position>
              <LatitudeDegrees>36.7324300110340118408203125</LatitudeDegrees>
              <LongitudeDegrees>-4.1158545948565006256103515625</LongitudeDegrees>
            </Position>
            <AltitudeMeters>5.19999980926513671875</AltitudeMeters>
            <DistanceMeters>77412.90110187</DistanceMeters>
          </Trackpoint>
          <Trackpoint>
            <Time>2021-03-13T11:23:15.000Z</Time>
            <Position>
              <LatitudeDegrees>36.732312329113483428955078125</LatitudeDegrees>
              <LongitudeDegrees>-4.11615525372326374053955078125</LongitudeDegrees>
            </Position>
            <AltitudeMeters>5.19999980926513671875</AltitudeMeters>
            <DistanceMeters>77442.747962699</DistanceMeters>
          </Trackpoint>
          <Trackpoint>
            <Time>2021-03-13T11:23:20.000Z</Time>
            <Position>
              <LatitudeDegrees>36.73211694695055484771728515625</LatitudeDegrees>
              <LongitudeDegrees>-4.11668381653726100921630859375</LongitudeDegrees>
            </Position>
            <AltitudeMeters>4.80000019073486328125</AltitudeMeters>
            <DistanceMeters>77494.670128122</DistanceMeters>
          </Trackpoint>
          <Trackpoint>
            <Time>2021-03-13T11:23:27.000Z</Time>
            <Position>
              <LatitudeDegrees>36.7318702675402164459228515625</LatitudeDegrees>
              <LongitudeDegrees>-4.11738404072821140289306640625</LongitudeDegrees>
            </Position>
            <AltitudeMeters>4.80000019073486328125</AltitudeMeters>
            <DistanceMeters>77562.899639912</DistanceMeters>
          </Trackpoint>
          <Trackpoint>
            <Time>2021-03-13T11:23:30.000Z</Time>
            <Position>
              <LatitudeDegrees>36.73176423646509647369384765625</LatitudeDegrees>
              <LongitudeDegrees>-4.11768210120499134063720703125</LongitudeDegrees>
            </Position>
            <AltitudeMeters>4.80000019073486328125</AltitudeMeters>
            <DistanceMeters>77591.988681547</DistanceMeters>
          </Trackpoint>
          <Trackpoint>
            <Time>2021-03-13T11:23:34.000Z</Time>
            <Position>
              <LatitudeDegrees>36.73162912018597126007080078125</LatitudeDegrees>
              <LongitudeDegrees>-4.11805643700063228607177734375</LongitudeDegrees>
            </Position>
            <AltitudeMeters>4.599999904632568359375</AltitudeMeters>
            <DistanceMeters>77628.610601398</DistanceMeters>
          </Trackpoint>
          <Trackpoint>
            <Time>2021-03-13T11:23:41.000Z</Time>
            <Position>
              <LatitudeDegrees>36.7313750647008419036865234375</LatitudeDegrees>
              <LongitudeDegrees>-4.1187738440930843353271484375</LongitudeDegrees>
            </Position>
            <AltitudeMeters>4.599999904632568359375</AltitudeMeters>
            <DistanceMeters>77698.574080355</DistanceMeters>
          </Trackpoint>
          <Trackpoint>
            <Time>2021-03-13T11:23:42.000Z</Time>
            <Position>
              <LatitudeDegrees>36.731348074972629547119140625</LatitudeDegrees>
              <LongitudeDegrees>-4.11885623820126056671142578125</LongitudeDegrees>
            </Position>
            <AltitudeMeters>4.599999904632568359375</AltitudeMeters>
            <DistanceMeters>77706.514357033</DistanceMeters>
          </Trackpoint>
          <Trackpoint>
            <Time>2021-03-13T11:23:49.000Z</Time>
            <Position>
              <LatitudeDegrees>36.731103993952274322509765625</LatitudeDegrees>
              <LongitudeDegrees>-4.11956987343728542327880859375</LongitudeDegrees>
            </Position>
            <AltitudeMeters>4.400000095367431640625</AltitudeMeters>
            <DistanceMeters>77775.727213016</DistanceMeters>
          </Trackpoint>
          <Trackpoint>
            <Time>2021-03-13T11:23:54.000Z</Time>
            <Position>
              <LatitudeDegrees>36.73093828372657299041748046875</LatitudeDegrees>
              <LongitudeDegrees>-4.120041690766811370849609375</LongitudeDegrees>
            </Position>
            <AltitudeMeters>4</AltitudeMeters>
            <DistanceMeters>77821.678697161</DistanceMeters>
          </Trackpoint>
          <Trackpoint>
            <Time>2021-03-13T11:24:01.000Z</Time>
            <Position>
              <LatitudeDegrees>36.73068816773593425750732421875</LatitudeDegrees>
              <LongitudeDegrees>-4.12072976119816303253173828125</LongitudeDegrees>
            </Position>
            <AltitudeMeters>4</AltitudeMeters>
            <DistanceMeters>77889.075083805</DistanceMeters>
          </Trackpoint>
          <Trackpoint>
            <Time>2021-03-13T11:24:04.000Z</Time>
            <Position>
              <LatitudeDegrees>36.73057702369987964630126953125</LatitudeDegrees>
              <LongitudeDegrees>-4.12105799652636051177978515625</LongitudeDegrees>
            </Position>
            <AltitudeMeters>4</AltitudeMeters>
            <DistanceMeters>77920.860916073</DistanceMeters>
          </Trackpoint>
          <Trackpoint>
            <Time>2021-03-13T11:24:10.000Z</Time>
            <Position>
              <LatitudeDegrees>36.7303638719022274017333984375</LatitudeDegrees>
              <LongitudeDegrees>-4.12166099064052104949951171875</LongitudeDegrees>
            </Position>
            <AltitudeMeters>3.7999999523162841796875</AltitudeMeters>
            <DistanceMeters>77979.649820961</DistanceMeters>
          </Trackpoint>
          <Trackpoint>
            <Time>2021-03-13T11:24:14.000Z</Time>
            <Position>
              <LatitudeDegrees>36.7302173562347888946533203125</LatitudeDegrees>
              <LongitudeDegrees>-4.12207321263849735260009765625</LongitudeDegrees>
            </Position>
            <AltitudeMeters>3.7999999523162841796875</AltitudeMeters>
            <DistanceMeters>78019.875427209</DistanceMeters>
          </Trackpoint>
          <Trackpoint>
            <Time>2021-03-13T11:24:18.000Z</Time>
            <Position>
              <LatitudeDegrees>36.73007209785282611846923828125</LatitudeDegrees>
              <LongitudeDegrees>-4.1224853508174419403076171875</LongitudeDegrees>
            </Position>
            <AltitudeMeters>3.599999904632568359375</AltitudeMeters>
            <DistanceMeters>78060.037903415</DistanceMeters>
          </Trackpoint>
          <Trackpoint>
            <Time>2021-03-13T11:24:23.000Z</Time>
            <Position>
              <LatitudeDegrees>36.7298914678394794464111328125</LatitudeDegrees>
              <LongitudeDegrees>-4.12300326861441135406494140625</LongitudeDegrees>
            </Position>
            <AltitudeMeters>3.400000095367431640625</AltitudeMeters>
            <DistanceMeters>78110.423304091</DistanceMeters>
          </Trackpoint>
          <Trackpoint>
            <Time>2021-03-13T11:24:30.000Z</Time>
            <Position>
              <LatitudeDegrees>36.72963607124984264373779296875</LatitudeDegrees>
              <LongitudeDegrees>-4.123710282146930694580078125</LongitudeDegrees>
            </Position>
            <AltitudeMeters>3.599999904632568359375</AltitudeMeters>
            <DistanceMeters>78179.602295292</DistanceMeters>
          </Trackpoint>
          <Trackpoint>
            <Time>2021-03-13T11:24:33.000Z</Time>
            <Position>
              <LatitudeDegrees>36.7295256815850734710693359375</LatitudeDegrees>
              <LongitudeDegrees>-4.124004654586315155029296875</LongitudeDegrees>
            </Position>
            <AltitudeMeters>3.7999999523162841796875</AltitudeMeters>
            <DistanceMeters>78208.594009891</DistanceMeters>
          </Trackpoint>
          <Trackpoint>
            <Time>2021-03-13T11:24:40.000Z</Time>
            <Position>
              <LatitudeDegrees>36.72927682287991046905517578125</LatitudeDegrees>
              <LongitudeDegrees>-4.124681912362575531005859375</LongitudeDegrees>
            </Position>
            <AltitudeMeters>4.400000095367431640625</AltitudeMeters>
            <DistanceMeters>78275.055669465</DistanceMeters>
          </Trackpoint>
          <Trackpoint>
            <Time>2021-03-13T11:24:41.000Z</Time>
            <Position>
              <LatitudeDegrees>36.729242540895938873291015625</LatitudeDegrees>
              <LongitudeDegrees>-4.1247742809355258941650390625</LongitudeDegrees>
            </Position>
            <AltitudeMeters>4.599999904632568359375</AltitudeMeters>
            <DistanceMeters>78284.136067475</DistanceMeters>
          </Trackpoint>
          <Trackpoint>
            <Time>2021-03-13T11:24:43.000Z</Time>
            <Position>
              <LatitudeDegrees>36.729207672178745269775390625</LatitudeDegrees>
              <LongitudeDegrees>-4.124867655336856842041015625</LongitudeDegrees>
            </Position>
            <AltitudeMeters>4.599999904632568359375</AltitudeMeters>
            <DistanceMeters>78293.325696134</DistanceMeters>
          </Trackpoint>
          <Trackpoint>
            <Time>2021-03-13T11:24:50.000Z</Time>
            <Position>
              <LatitudeDegrees>36.72893014736473560333251953125</LatitudeDegrees>
              <LongitudeDegrees>-4.125614650547504425048828125</LongitudeDegrees>
            </Position>
            <AltitudeMeters>5.19999980926513671875</AltitudeMeters>
            <DistanceMeters>78366.772924993</DistanceMeters>
          </Trackpoint>
          <Trackpoint>
            <Time>2021-03-13T11:24:52.000Z</Time>
            <Position>
              <LatitudeDegrees>36.728858314454555511474609375</LatitudeDegrees>
              <LongitudeDegrees>-4.12580500356853008270263671875</LongitudeDegrees>
            </Position>
            <AltitudeMeters>5.400000095367431640625</AltitudeMeters>
            <DistanceMeters>78385.541122081</DistanceMeters>
          </Trackpoint>
          <Trackpoint>
            <Time>2021-03-13T11:24:56.000Z</Time>
            <Position>
              <LatitudeDegrees>36.72875295393168926239013671875</LatitudeDegrees>
              <LongitudeDegrees>-4.126082360744476318359375</LongitudeDegrees>
            </Position>
            <AltitudeMeters>5.599999904632568359375</AltitudeMeters>
            <DistanceMeters>78412.921186294</DistanceMeters>
          </Trackpoint>
          <Trackpoint>
            <Time>2021-03-13T11:25:02.000Z</Time>
            <Position>
              <LatitudeDegrees>36.72852949239313602447509765625</LatitudeDegrees>
              <LongitudeDegrees>-4.1267306171357631683349609375</LongitudeDegrees>
            </Position>
            <AltitudeMeters>6.400000095367431640625</AltitudeMeters>
            <DistanceMeters>78475.871346154</DistanceMeters>
          </Trackpoint>
          <Trackpoint>
            <Time>2021-03-13T11:25:06.000Z</Time>
            <Position>
              <LatitudeDegrees>36.728392951190471649169921875</LatitudeDegrees>
              <LongitudeDegrees>-4.1271356306970119476318359375</LongitudeDegrees>
            </Position>
            <AltitudeMeters>6.80000019073486328125</AltitudeMeters>
            <DistanceMeters>78515.067302906</DistanceMeters>
          </Trackpoint>
          <Trackpoint>
            <Time>2021-03-13T11:25:09.000Z</Time>
            <Position>
              <LatitudeDegrees>36.7282905243337154388427734375</LatitudeDegrees>
              <LongitudeDegrees>-4.127422459423542022705078125</LongitudeDegrees>
            </Position>
            <AltitudeMeters>7</AltitudeMeters>
            <DistanceMeters>78543.079076547</DistanceMeters>
          </Trackpoint>
          <Trackpoint>
            <Time>2021-03-13T11:25:16.000Z</Time>
            <Position>
              <LatitudeDegrees>36.72805943526327610015869140625</LatitudeDegrees>
              <LongitudeDegrees>-4.12806929089128971099853515625</LongitudeDegrees>
            </Position>
            <AltitudeMeters>7.80000019073486328125</AltitudeMeters>
            <DistanceMeters>78606.253619569</DistanceMeters>
          </Trackpoint>
          <Trackpoint>
            <Time>2021-03-13T11:25:18.000Z</Time>
            <Position>
              <LatitudeDegrees>36.72798760235309600830078125</LatitudeDegrees>
              <LongitudeDegrees>-4.12826693616807460784912109375</LongitudeDegrees>
            </Position>
            <AltitudeMeters>7.80000019073486328125</AltitudeMeters>
            <DistanceMeters>78625.612965961</DistanceMeters>
          </Trackpoint>
          <Trackpoint>
            <Time>2021-03-13T11:25:25.000Z</Time>
            <Position>
              <LatitudeDegrees>36.72775601036846637725830078125</LatitudeDegrees>
              <LongitudeDegrees>-4.12892625667154788970947265625</LongitudeDegrees>
            </Position>
            <AltitudeMeters>8.19999980926513671875</AltitudeMeters>
            <DistanceMeters>78689.829443438</DistanceMeters>
          </Trackpoint>
          <Trackpoint>
            <Time>2021-03-13T11:25:27.000Z</Time>
            <Position>
              <LatitudeDegrees>36.72768493182957172393798828125</LatitudeDegrees>
              <LongitudeDegrees>-4.12912490777671337127685546875</LongitudeDegrees>
            </Position>
            <AltitudeMeters>8.19999980926513671875</AltitudeMeters>
            <DistanceMeters>78709.236308933</DistanceMeters>
          </Trackpoint>
          <Trackpoint>
            <Time>2021-03-13T11:25:33.000Z</Time>
            <Position>
              <LatitudeDegrees>36.72746029682457447052001953125</LatitudeDegrees>
              <LongitudeDegrees>-4.12974969483911991119384765625</LongitudeDegrees>
            </Position>
            <AltitudeMeters>7.400000095367431640625</AltitudeMeters>
            <DistanceMeters>78770.322744984</DistanceMeters>
          </Trackpoint>
          <Trackpoint>
            <Time>2021-03-13T11:25:36.000Z</Time>
            <Position>
              <LatitudeDegrees>36.72734278254210948944091796875</LatitudeDegrees>
              <LongitudeDegrees>-4.13007558323442935943603515625</LongitudeDegrees>
            </Position>
            <AltitudeMeters>6.599999904632568359375</AltitudeMeters>
            <DistanceMeters>78802.20133973</DistanceMeters>
          </Trackpoint>
          <Trackpoint>
            <Time>2021-03-13T11:25:39.000Z</Time>
            <Position>
              <LatitudeDegrees>36.72722359187901020050048828125</LatitudeDegrees>
              <LongitudeDegrees>-4.13041002117097377777099609375</LongitudeDegrees>
            </Position>
            <AltitudeMeters>5.599999904632568359375</AltitudeMeters>
            <DistanceMeters>78834.852109474</DistanceMeters>
          </Trackpoint>
          <Trackpoint>
            <Time>2021-03-13T11:25:45.000Z</Time>
            <Position>
              <LatitudeDegrees>36.72698370181024074554443359375</LatitudeDegrees>
              <LongitudeDegrees>-4.13106967695057392120361328125</LongitudeDegrees>
            </Position>
            <AltitudeMeters>4.599999904632568359375</AltitudeMeters>
            <DistanceMeters>78899.47251113</DistanceMeters>
          </Trackpoint>
          <Trackpoint>
            <Time>2021-03-13T11:25:46.000Z</Time>
            <Position>
              <LatitudeDegrees>36.72694690525531768798828125</LatitudeDegrees>
              <LongitudeDegrees>-4.1311730258166790008544921875</LongitudeDegrees>
            </Position>
            <AltitudeMeters>4.400000095367431640625</AltitudeMeters>
            <DistanceMeters>78909.560571474</DistanceMeters>
          </Trackpoint>
          <Trackpoint>
            <Time>2021-03-13T11:25:51.000Z</Time>
            <Position>
              <LatitudeDegrees>36.726773567497730255126953125</LatitudeDegrees>
              <LongitudeDegrees>-4.13167141377925872802734375</LongitudeDegrees>
            </Position>
            <AltitudeMeters>4.400000095367431640625</AltitudeMeters>
            <DistanceMeters>78958.026338515</DistanceMeters>
          </Trackpoint>
          <Trackpoint>
            <Time>2021-03-13T11:25:57.000Z</Time>
            <Position>
              <LatitudeDegrees>36.72655974514782428741455078125</LatitudeDegrees>
              <LongitudeDegrees>-4.132252447307109832763671875</LongitudeDegrees>
            </Position>
            <AltitudeMeters>4.400000095367431640625</AltitudeMeters>
            <DistanceMeters>79015.061844287</DistanceMeters>
          </Trackpoint>
          <Trackpoint>
            <Time>2021-03-13T11:26:04.000Z</Time>
            <Position>
              <LatitudeDegrees>36.72631650231778621673583984375</LatitudeDegrees>
              <LongitudeDegrees>-4.13290665484964847564697265625</LongitudeDegrees>
            </Position>
            <AltitudeMeters>4.400000095367431640625</AltitudeMeters>
            <DistanceMeters>79079.396544086</DistanceMeters>
          </Trackpoint>
          <Trackpoint>
            <Time>2021-03-13T11:26:09.000Z</Time>
            <Position>
              <LatitudeDegrees>36.726146601140499114990234375</LatitudeDegrees>
              <LongitudeDegrees>-4.13336916826665401458740234375</LongitudeDegrees>
            </Position>
            <AltitudeMeters>4.400000095367431640625</AltitudeMeters>
            <DistanceMeters>79124.783913244</DistanceMeters>
          </Trackpoint>
          <Trackpoint>
            <Time>2021-03-13T11:26:16.000Z</Time>
            <Position>
              <LatitudeDegrees>36.72591517679393291473388671875</LatitudeDegrees>
              <LongitudeDegrees>-4.1340191848576068878173828125</LongitudeDegrees>
            </Position>
            <AltitudeMeters>4.400000095367431640625</AltitudeMeters>
            <DistanceMeters>79188.23472413</DistanceMeters>
          </Trackpoint>
          <Trackpoint>
            <Time>2021-03-13T11:26:19.000Z</Time>
            <Position>
              <LatitudeDegrees>36.725818701088428497314453125</LatitudeDegrees>
              <LongitudeDegrees>-4.13430844433605670928955078125</LongitudeDegrees>
            </Position>
            <AltitudeMeters>4.400000095367431640625</AltitudeMeters>
            <DistanceMeters>79216.184211657</DistanceMeters>
          </Trackpoint>
          <Trackpoint>
            <Time>2021-03-13T11:26:26.000Z</Time>
            <Position>
              <LatitudeDegrees>36.72556481324136257171630859375</LatitudeDegrees>
              <LongitudeDegrees>-4.13500414229929447174072265625</LongitudeDegrees>
            </Position>
            <AltitudeMeters>4.19999980926513671875</AltitudeMeters>
            <DistanceMeters>79284.377450304</DistanceMeters>
          </Trackpoint>
          <Trackpoint>
            <Time>2021-03-13T11:26:29.000Z</Time>
            <Position>
              <LatitudeDegrees>36.725461296737194061279296875</LatitudeDegrees>
              <LongitudeDegrees>-4.135286025702953338623046875</LongitudeDegrees>
            </Position>
            <AltitudeMeters>4</AltitudeMeters>
            <DistanceMeters>79312.0378971</DistanceMeters>
          </Trackpoint>
          <Trackpoint>
            <Time>2021-03-13T11:26:34.000Z</Time>
            <Position>
              <LatitudeDegrees>36.72528603114187717437744140625</LatitudeDegrees>
              <LongitudeDegrees>-4.13576044142246246337890625</LongitudeDegrees>
            </Position>
            <AltitudeMeters>4</AltitudeMeters>
            <DistanceMeters>79358.639757415</DistanceMeters>
          </Trackpoint>
          <Trackpoint>
            <Time>2021-03-13T11:26:39.000Z</Time>
            <Position>
              <LatitudeDegrees>36.7251131124794483184814453125</LatitudeDegrees>
              <LongitudeDegrees>-4.13622186519205570220947265625</LongitudeDegrees>
            </Position>
            <AltitudeMeters>4.19999980926513671875</AltitudeMeters>
            <DistanceMeters>79404.080316059</DistanceMeters>
          </Trackpoint>
          <Trackpoint>
            <Time>2021-03-13T11:26:42.000Z</Time>
            <Position>
              <LatitudeDegrees>36.7250132001936435699462890625</LatitudeDegrees>
              <LongitudeDegrees>-4.13649695925414562225341796875</LongitudeDegrees>
            </Position>
            <AltitudeMeters>4.19999980926513671875</AltitudeMeters>
            <DistanceMeters>79431.023364241</DistanceMeters>
          </Trackpoint>
          <Trackpoint>
            <Time>2021-03-13T11:26:49.000Z</Time>
            <Position>
              <LatitudeDegrees>36.724765934050083160400390625</LatitudeDegrees>
              <LongitudeDegrees>-4.1371868737041950225830078125</LongitudeDegrees>
            </Position>
            <AltitudeMeters>4.400000095367431640625</AltitudeMeters>
            <DistanceMeters>79498.443729858</DistanceMeters>
          </Trackpoint>
          <Trackpoint>
            <Time>2021-03-13T11:26:51.000Z</Time>
            <Position>
              <LatitudeDegrees>36.72470013611018657684326171875</LatitudeDegrees>
              <LongitudeDegrees>-4.1373756341636180877685546875</LongitudeDegrees>
            </Position>
            <AltitudeMeters>4.400000095367431640625</AltitudeMeters>
            <DistanceMeters>79516.806766496</DistanceMeters>
          </Trackpoint>
          <Trackpoint>
            <Time>2021-03-13T11:26:58.000Z</Time>
            <Position>
              <LatitudeDegrees>36.7244730703532695770263671875</LatitudeDegrees>
              <LongitudeDegrees>-4.13803352974355220794677734375</LongitudeDegrees>
            </Position>
            <AltitudeMeters>5.19999980926513671875</AltitudeMeters>
            <DistanceMeters>79580.708116308</DistanceMeters>
          </Trackpoint>
          <Trackpoint>
            <Time>2021-03-13T11:27:03.000Z</Time>
            <Position>
              <LatitudeDegrees>36.72430082224309444427490234375</LatitudeDegrees>
              <LongitudeDegrees>-4.13851238787174224853515625</LongitudeDegrees>
            </Position>
            <AltitudeMeters>5.400000095367431640625</AltitudeMeters>
            <DistanceMeters>79627.532282725</DistanceMeters>
          </Trackpoint>
          <Trackpoint>
            <Time>2021-03-13T11:27:06.000Z</Time>
            <Position>
              <LatitudeDegrees>36.72420074231922626495361328125</LatitudeDegrees>
              <LongitudeDegrees>-4.13879259489476680755615234375</LongitudeDegrees>
            </Position>
            <AltitudeMeters>5.599999904632568359375</AltitudeMeters>
            <DistanceMeters>79654.899316548</DistanceMeters>
          </Trackpoint>
          <Trackpoint>
            <Time>2021-03-13T11:27:12.000Z</Time>
            <Position>
              <LatitudeDegrees>36.7240051925182342529296875</LatitudeDegrees>
              <LongitudeDegrees>-4.13932300172746181488037109375</LongitudeDegrees>
            </Position>
            <AltitudeMeters>5.19999980926513671875</AltitudeMeters>
            <DistanceMeters>79706.983145752</DistanceMeters>
          </Trackpoint>
          <Trackpoint>
            <Time>2021-03-13T11:27:16.000Z</Time>
            <Position>
              <LatitudeDegrees>36.7238715849816799163818359375</LatitudeDegrees>
              <LongitudeDegrees>-4.139701612293720245361328125</LongitudeDegrees>
            </Position>
            <AltitudeMeters>4.80000019073486328125</AltitudeMeters>
            <DistanceMeters>79743.888272359</DistanceMeters>
          </Trackpoint>
          <Trackpoint>
            <Time>2021-03-13T11:27:21.000Z</Time>
            <Position>
              <LatitudeDegrees>36.7236945591866970062255859375</LatitudeDegrees>
              <LongitudeDegrees>-4.14019103161990642547607421875</LongitudeDegrees>
            </Position>
            <AltitudeMeters>4.400000095367431640625</AltitudeMeters>
            <DistanceMeters>79791.790031666</DistanceMeters>
          </Trackpoint>
          <Trackpoint>
            <Time>2021-03-13T11:27:28.000Z</Time>
            <Position>
              <LatitudeDegrees>36.7234518192708492279052734375</LatitudeDegrees>
              <LongitudeDegrees>-4.14086895994842052459716796875</LongitudeDegrees>
            </Position>
            <AltitudeMeters>3.7999999523162841796875</AltitudeMeters>
            <DistanceMeters>79858.029581965</DistanceMeters>
          </Trackpoint>
          <Trackpoint>
            <Time>2021-03-13T11:27:30.000Z</Time>
            <Position>
              <LatitudeDegrees>36.723383925855159759521484375</LatitudeDegrees>
              <LongitudeDegrees>-4.1410596482455730438232421875</LongitudeDegrees>
            </Position>
            <AltitudeMeters>3.599999904632568359375</AltitudeMeters>
            <DistanceMeters>79876.643906106</DistanceMeters>
          </Trackpoint>
          <Trackpoint>
            <Time>2021-03-13T11:27:33.000Z</Time>
            <Position>
              <LatitudeDegrees>36.723279654979705810546875</LatitudeDegrees>
              <LongitudeDegrees>-4.14134186692535877227783203125</LongitudeDegrees>
            </Position>
            <AltitudeMeters>3.599999904632568359375</AltitudeMeters>
            <DistanceMeters>79904.366962689</DistanceMeters>
          </Trackpoint>
          <Trackpoint>
            <Time>2021-03-13T11:27:40.000Z</Time>
            <Position>
              <LatitudeDegrees>36.7230347357690334320068359375</LatitudeDegrees>
              <LongitudeDegrees>-4.14202298037707805633544921875</LongitudeDegrees>
            </Position>
            <AltitudeMeters>3.599999904632568359375</AltitudeMeters>
            <DistanceMeters>79970.965233967</DistanceMeters>
          </Trackpoint>
          <Trackpoint>
            <Time>2021-03-13T11:27:43.000Z</Time>
            <Position>
              <LatitudeDegrees>36.7229344882071018218994140625</LatitudeDegrees>
              <LongitudeDegrees>-4.14230511523783206939697265625</LongitudeDegrees>
            </Position>
            <AltitudeMeters>3.599999904632568359375</AltitudeMeters>
            <DistanceMeters>79998.497410362</DistanceMeters>
          </Trackpoint>
          <Trackpoint>
            <Time>2021-03-13T11:27:47.000Z</Time>
            <Position>
              <LatitudeDegrees>36.72279744409024715423583984375</LatitudeDegrees>
              <LongitudeDegrees>-4.142690263688564300537109375</LongitudeDegrees>
            </Position>
            <AltitudeMeters>3.400000095367431640625</AltitudeMeters>
            <DistanceMeters>80036.091016256</DistanceMeters>
          </Trackpoint>
          <Trackpoint>
            <Time>2021-03-13T11:27:51.000Z</Time>
            <Position>
              <LatitudeDegrees>36.72265495173633098602294921875</LatitudeDegrees>
              <LongitudeDegrees>-4.1430808603763580322265625</LongitudeDegrees>
            </Position>
            <AltitudeMeters>3.400000095367431640625</AltitudeMeters>
            <DistanceMeters>80074.376523547</DistanceMeters>
          </Trackpoint>
          <Trackpoint>
            <Time>2021-03-13T11:27:57.000Z</Time>
            <Position>
              <LatitudeDegrees>36.72245831228792667388916015625</LatitudeDegrees>
              <LongitudeDegrees>-4.14361805655062198638916015625</LongitudeDegrees>
            </Position>
            <AltitudeMeters>3.599999904632568359375</AltitudeMeters>
            <DistanceMeters>80127.062302638</DistanceMeters>
          </Trackpoint>
          <Trackpoint>
            <Time>2021-03-13T11:28:01.000Z</Time>
            <Position>
              <LatitudeDegrees>36.72231984324753284454345703125</LatitudeDegrees>
              <LongitudeDegrees>-4.14401225745677947998046875</LongitudeDegrees>
            </Position>
            <AltitudeMeters>4</AltitudeMeters>
            <DistanceMeters>80165.459210337</DistanceMeters>
          </Trackpoint>
          <Trackpoint>
            <Time>2021-03-13T11:28:02.000Z</Time>
            <Position>
              <LatitudeDegrees>36.72228614799678325653076171875</LatitudeDegrees>
              <LongitudeDegrees>-4.14410839788615703582763671875</LongitudeDegrees>
            </Position>
            <AltitudeMeters>4.19999980926513671875</AltitudeMeters>
            <DistanceMeters>80174.820668123</DistanceMeters>
          </Trackpoint>
          <Trackpoint>
            <Time>2021-03-13T11:28:05.000Z</Time>
            <Position>
              <LatitudeDegrees>36.722184978425502777099609375</LatitudeDegrees>
              <LongitudeDegrees>-4.1443919576704502105712890625</LongitudeDegrees>
            </Position>
            <AltitudeMeters>4.599999904632568359375</AltitudeMeters>
            <DistanceMeters>80202.510806997</DistanceMeters>
          </Trackpoint>
          <Trackpoint>
            <Time>2021-03-13T11:28:06.000Z</Time>
            <Position>
              <LatitudeDegrees>36.72214935533702373504638671875</LatitudeDegrees>
              <LongitudeDegrees>-4.14448759518563747406005859375</LongitudeDegrees>
            </Position>
            <AltitudeMeters>4.80000019073486328125</AltitudeMeters>
            <DistanceMeters>80211.918931641</DistanceMeters>
          </Trackpoint>
          <Trackpoint>
            <Time>2021-03-13T11:28:10.000Z</Time>
            <Position>
              <LatitudeDegrees>36.7220131494104862213134765625</LatitudeDegrees>
              <LongitudeDegrees>-4.144850783050060272216796875</LongitudeDegrees>
            </Position>
            <AltitudeMeters>5.599999904632568359375</AltitudeMeters>
            <DistanceMeters>80247.691409791</DistanceMeters>
          </Trackpoint>
          <Trackpoint>
            <Time>2021-03-13T11:28:11.000Z</Time>
            <Position>
              <LatitudeDegrees>36.72197618521749973297119140625</LatitudeDegrees>
              <LongitudeDegrees>-4.1449397988617420196533203125</LongitudeDegrees>
            </Position>
            <AltitudeMeters>6</AltitudeMeters>
            <DistanceMeters>80256.635538995</DistanceMeters>
          </Trackpoint>
          <Trackpoint>
            <Time>2021-03-13T11:28:15.000Z</Time>
            <Position>
              <LatitudeDegrees>36.7218334414064884185791015625</LatitudeDegrees>
              <LongitudeDegrees>-4.14527499116957187652587890625</LongitudeDegrees>
            </Position>
            <AltitudeMeters>7.19999980926513671875</AltitudeMeters>
            <DistanceMeters>80290.497865658</DistanceMeters>
          </Trackpoint>
          <Trackpoint>
            <Time>2021-03-13T11:28:20.000Z</Time>
            <Position>
              <LatitudeDegrees>36.72163671813905239105224609375</LatitudeDegrees>
              <LongitudeDegrees>-4.1457256861031055450439453125</LongitudeDegrees>
            </Position>
            <AltitudeMeters>7.599999904632568359375</AltitudeMeters>
            <DistanceMeters>80336.281417123</DistanceMeters>
          </Trackpoint>
          <Trackpoint>
            <Time>2021-03-13T11:28:22.000Z</Time>
            <Position>
              <LatitudeDegrees>36.7215642146766185760498046875</LatitudeDegrees>
              <LongitudeDegrees>-4.14590178988873958587646484375</LongitudeDegrees>
            </Position>
            <AltitudeMeters>8</AltitudeMeters>
            <DistanceMeters>80353.94360897</DistanceMeters>
          </Trackpoint>
          <Trackpoint>
            <Time>2021-03-13T11:28:27.000Z</Time>
            <Position>
              <LatitudeDegrees>36.7214005999267101287841796875</LatitudeDegrees>
              <LongitudeDegrees>-4.146329350769519805908203125</LongitudeDegrees>
            </Position>
            <AltitudeMeters>9</AltitudeMeters>
            <DistanceMeters>80396.21223498</DistanceMeters>
          </Trackpoint>
          <Trackpoint>
            <Time>2021-03-13T11:28:28.000Z</Time>
            <Position>
              <LatitudeDegrees>36.7213685810565948486328125</LatitudeDegrees>
              <LongitudeDegrees>-4.14642431773245334625244140625</LongitudeDegrees>
            </Position>
            <AltitudeMeters>9.19999980926513671875</AltitudeMeters>
            <DistanceMeters>80405.403828705</DistanceMeters>
          </Trackpoint>
          <Trackpoint>
            <Time>2021-03-13T11:28:34.000Z</Time>
            <Position>
              <LatitudeDegrees>36.7212198860943317413330078125</LatitudeDegrees>
              <LongitudeDegrees>-4.14702932350337505340576171875</LongitudeDegrees>
            </Position>
            <AltitudeMeters>9.6000003814697265625</AltitudeMeters>
            <DistanceMeters>80461.859454833</DistanceMeters>
          </Trackpoint>
          <Trackpoint>
            <Time>2021-03-13T11:28:38.000Z</Time>
            <Position>
              <LatitudeDegrees>36.72119264490902423858642578125</LatitudeDegrees>
              <LongitudeDegrees>-4.147422015666961669921875</LongitudeDegrees>
            </Position>
            <AltitudeMeters>10.19999980926513671875</AltitudeMeters>
            <DistanceMeters>80497.024475354</DistanceMeters>
          </Trackpoint>
          <Trackpoint>
            <Time>2021-03-13T11:28:42.000Z</Time>
            <Position>
              <LatitudeDegrees>36.72116515226662158966064453125</LatitudeDegrees>
              <LongitudeDegrees>-4.14788176305592060089111328125</LongitudeDegrees>
            </Position>
            <AltitudeMeters>10.80000019073486328125</AltitudeMeters>
            <DistanceMeters>80538.154689565</DistanceMeters>
          </Trackpoint>
          <Trackpoint>
            <Time>2021-03-13T11:28:48.000Z</Time>
            <Position>
              <LatitudeDegrees>36.72112374566495418548583984375</LatitudeDegrees>
              <LongitudeDegrees>-4.14849431253969669342041015625</LongitudeDegrees>
            </Position>
            <AltitudeMeters>11.19999980926513671875</AltitudeMeters>
            <DistanceMeters>80592.997042555</DistanceMeters>
          </Trackpoint>
          <Trackpoint>
            <Time>2021-03-13T11:28:50.000Z</Time>
            <Position>
              <LatitudeDegrees>36.72109742648899555206298828125</LatitudeDegrees>
              <LongitudeDegrees>-4.14870888926088809967041015625</LongitudeDegrees>
            </Position>
            <AltitudeMeters>11.19999980926513671875</AltitudeMeters>
            <DistanceMeters>80612.363384363</DistanceMeters>
          </Trackpoint>
          <Trackpoint>
            <Time>2021-03-13T11:28:51.000Z</Time>
            <Position>
              <LatitudeDegrees>36.721082590520381927490234375</LatitudeDegrees>
              <LongitudeDegrees>-4.1488072089850902557373046875</LongitudeDegrees>
            </Position>
            <AltitudeMeters>11.3999996185302734375</AltitudeMeters>
            <DistanceMeters>80621.289322099</DistanceMeters>
          </Trackpoint>
          <Trackpoint>
            <Time>2021-03-13T11:28:58.000Z</Time>
            <Position>
              <LatitudeDegrees>36.72095376066863536834716796875</LatitudeDegrees>
              <LongitudeDegrees>-4.1495208442211151123046875</LongitudeDegrees>
            </Position>
            <AltitudeMeters>11.19999980926513671875</AltitudeMeters>
            <DistanceMeters>80686.550885635</DistanceMeters>
          </Trackpoint>
          <Trackpoint>
            <Time>2021-03-13T11:28:59.000Z</Time>
            <Position>
              <LatitudeDegrees>36.7209342308342456817626953125</LatitudeDegrees>
              <LongitudeDegrees>-4.149629138410091400146484375</LongitudeDegrees>
            </Position>
            <AltitudeMeters>11.19999980926513671875</AltitudeMeters>
            <DistanceMeters>80696.453745332</DistanceMeters>
          </Trackpoint>
          <Trackpoint>
            <Time>2021-03-13T11:29:04.000Z</Time>
            <Position>
              <LatitudeDegrees>36.72082208096981048583984375</LatitudeDegrees>
              <LongitudeDegrees>-4.1501771472394466400146484375</LongitudeDegrees>
            </Position>
            <AltitudeMeters>10.6000003814697265625</AltitudeMeters>
            <DistanceMeters>80746.912662225</DistanceMeters>
          </Trackpoint>
          <Trackpoint>
            <Time>2021-03-13T11:29:07.000Z</Time>
            <Position>
              <LatitudeDegrees>36.72075812704861164093017578125</LatitudeDegrees>
              <LongitudeDegrees>-4.15048652328550815582275390625</LongitudeDegrees>
            </Position>
            <AltitudeMeters>10.3999996185302734375</AltitudeMeters>
            <DistanceMeters>80775.416875214</DistanceMeters>
          </Trackpoint>
          <Trackpoint>
            <Time>2021-03-13T11:29:09.000Z</Time>
            <Position>
              <LatitudeDegrees>36.72072510235011577606201171875</LatitudeDegrees>
              <LongitudeDegrees>-4.15069162845611572265625</LongitudeDegrees>
            </Position>
            <AltitudeMeters>10.19999980926513671875</AltitudeMeters>
            <DistanceMeters>80794.080857342</DistanceMeters>
          </Trackpoint>
          <Trackpoint>
            <Time>2021-03-13T11:29:12.000Z</Time>
            <Position>
              <LatitudeDegrees>36.7206790857017040252685546875</LatitudeDegrees>
              <LongitudeDegrees>-4.15101240389049053192138671875</LongitudeDegrees>
            </Position>
            <AltitudeMeters>9.3999996185302734375</AltitudeMeters>
            <DistanceMeters>80823.153441596</DistanceMeters>
          </Trackpoint>
          <Trackpoint>
            <Time>2021-03-13T11:29:15.000Z</Time>
            <Position>
              <LatitudeDegrees>36.72065444290637969970703125</LatitudeDegrees>
              <LongitudeDegrees>-4.151359833776950836181640625</LongitudeDegrees>
            </Position>
            <AltitudeMeters>8.80000019073486328125</AltitudeMeters>
            <DistanceMeters>80854.270446703</DistanceMeters>
          </Trackpoint>
          <Trackpoint>
            <Time>2021-03-13T11:29:17.000Z</Time>
            <Position>
              <LatitudeDegrees>36.72065712511539459228515625</LatitudeDegrees>
              <LongitudeDegrees>-4.1515993885695934295654296875</LongitudeDegrees>
            </Position>
            <AltitudeMeters>8.6000003814697265625</AltitudeMeters>
            <DistanceMeters>80875.644487675</DistanceMeters>
          </Trackpoint>
          <Trackpoint>
            <Time>2021-03-13T11:29:19.000Z</Time>
            <Position>
              <LatitudeDegrees>36.7206727154552936553955078125</LatitudeDegrees>
              <LongitudeDegrees>-4.1518421284854412078857421875</LongitudeDegrees>
            </Position>
            <AltitudeMeters>8.19999980926513671875</AltitudeMeters>
            <DistanceMeters>80897.370096889</DistanceMeters>
          </Trackpoint>
          <Trackpoint>
            <Time>2021-03-13T11:29:23.000Z</Time>
            <Position>
              <LatitudeDegrees>36.72070800326764583587646484375</LatitudeDegrees>
              <LongitudeDegrees>-4.1523276083171367645263671875</LongitudeDegrees>
            </Position>
            <AltitudeMeters>7.80000019073486328125</AltitudeMeters>
            <DistanceMeters>80940.859952848</DistanceMeters>
          </Trackpoint>
          <Trackpoint>
            <Time>2021-03-13T11:29:24.000Z</Time>
            <Position>
              <LatitudeDegrees>36.7207176424562931060791015625</LatitudeDegrees>
              <LongitudeDegrees>-4.1524498164653778076171875</LongitudeDegrees>
            </Position>
            <AltitudeMeters>7.599999904632568359375</AltitudeMeters>
            <DistanceMeters>80951.815671724</DistanceMeters>
          </Trackpoint>
          <Trackpoint>
            <Time>2021-03-13T11:29:28.000Z</Time>
            <Position>
              <LatitudeDegrees>36.7207501642405986785888671875</LatitudeDegrees>
              <LongitudeDegrees>-4.1529485397040843963623046875</LongitudeDegrees>
            </Position>
            <AltitudeMeters>7</AltitudeMeters>
            <DistanceMeters>80996.456386212</DistanceMeters>
          </Trackpoint>
          <Trackpoint>
            <Time>2021-03-13T11:29:30.000Z</Time>
            <Position>
              <LatitudeDegrees>36.720763742923736572265625</LatitudeDegrees>
              <LongitudeDegrees>-4.1532023437321186065673828125</LongitudeDegrees>
            </Position>
            <AltitudeMeters>6.80000019073486328125</AltitudeMeters>
            <DistanceMeters>81019.15007079</DistanceMeters>
          </Trackpoint>
          <Trackpoint>
            <Time>2021-03-13T11:29:33.000Z</Time>
            <Position>
              <LatitudeDegrees>36.72078612260520458221435546875</LatitudeDegrees>
              <LongitudeDegrees>-4.15357626043260097503662109375</LongitudeDegrees>
            </Position>
            <AltitudeMeters>6.19999980926513671875</AltitudeMeters>
            <DistanceMeters>81052.601903821</DistanceMeters>
          </Trackpoint>
          <Trackpoint>
            <Time>2021-03-13T11:29:37.000Z</Time>
            <Position>
              <LatitudeDegrees>36.720806658267974853515625</LatitudeDegrees>
              <LongitudeDegrees>-4.154052101075649261474609375</LongitudeDegrees>
            </Position>
            <AltitudeMeters>5.80000019073486328125</AltitudeMeters>
            <DistanceMeters>81095.115500711</DistanceMeters>
          </Trackpoint>
          <Trackpoint>
            <Time>2021-03-13T11:29:40.000Z</Time>
            <Position>
              <LatitudeDegrees>36.72081009484827518463134765625</LatitudeDegrees>
              <LongitudeDegrees>-4.15439215488731861114501953125</LongitudeDegrees>
            </Position>
            <AltitudeMeters>5.400000095367431640625</AltitudeMeters>
            <DistanceMeters>81125.455969607</DistanceMeters>
          </Trackpoint>
          <Trackpoint>
            <Time>2021-03-13T11:29:44.000Z</Time>
            <Position>
              <LatitudeDegrees>36.72081260941922664642333984375</LatitudeDegrees>
              <LongitudeDegrees>-4.15482952259480953216552734375</LongitudeDegrees>
            </Position>
            <AltitudeMeters>5.400000095367431640625</AltitudeMeters>
            <DistanceMeters>81164.476789688</DistanceMeters>
          </Trackpoint>
          <Trackpoint>
            <Time>2021-03-13T11:29:47.000Z</Time>
            <Position>
              <LatitudeDegrees>36.7208074964582920074462890625</LatitudeDegrees>
              <LongitudeDegrees>-4.15519111789762973785400390625</LongitudeDegrees>
            </Position>
            <AltitudeMeters>5.400000095367431640625</AltitudeMeters>
            <DistanceMeters>81196.741682881</DistanceMeters>
          </Trackpoint>
          <Trackpoint>
            <Time>2021-03-13T11:29:52.000Z</Time>
            <Position>
              <LatitudeDegrees>36.7207900620996952056884765625</LatitudeDegrees>
              <LongitudeDegrees>-4.15574247948825359344482421875</LongitudeDegrees>
            </Position>
            <AltitudeMeters>5.599999904632568359375</AltitudeMeters>
            <DistanceMeters>81245.96964836</DistanceMeters>
          </Trackpoint>
          <Trackpoint>
            <Time>2021-03-13T11:29:57.000Z</Time>
            <Position>
              <LatitudeDegrees>36.72076181508600711822509765625</LatitudeDegrees>
              <LongitudeDegrees>-4.15635469369590282440185546875</LongitudeDegrees>
            </Position>
            <AltitudeMeters>5.80000019073486328125</AltitudeMeters>
            <DistanceMeters>81300.678798216</DistanceMeters>
          </Trackpoint>
          <Trackpoint>
            <Time>2021-03-13T11:30:03.000Z</Time>
            <Position>
              <LatitudeDegrees>36.72072627581655979156494140625</LatitudeDegrees>
              <LongitudeDegrees>-4.15704251267015933990478515625</LongitudeDegrees>
            </Position>
            <AltitudeMeters>5.400000095367431640625</AltitudeMeters>
            <DistanceMeters>81362.169967577</DistanceMeters>
          </Trackpoint>
          <Trackpoint>
            <Time>2021-03-13T11:30:07.000Z</Time>
            <Position>
              <LatitudeDegrees>36.7207116074860095977783203125</LatitudeDegrees>
              <LongitudeDegrees>-4.15754710324108600616455078125</LongitudeDegrees>
            </Position>
            <AltitudeMeters>5.19999980926513671875</AltitudeMeters>
            <DistanceMeters>81407.216639576</DistanceMeters>
          </Trackpoint>
          <Trackpoint>
            <Time>2021-03-13T11:30:09.000Z</Time>
            <Position>
              <LatitudeDegrees>36.72071286477148532867431640625</LatitudeDegrees>
              <LongitudeDegrees>-4.1577594168484210968017578125</LongitudeDegrees>
            </Position>
            <AltitudeMeters>5.19999980926513671875</AltitudeMeters>
            <DistanceMeters>81426.158684277</DistanceMeters>
          </Trackpoint>
          <Trackpoint>
            <Time>2021-03-13T11:30:12.000Z</Time>
            <Position>
              <LatitudeDegrees>36.720747314393520355224609375</LatitudeDegrees>
              <LongitudeDegrees>-4.15810190141201019287109375</LongitudeDegrees>
            </Position>
            <AltitudeMeters>5</AltitudeMeters>
            <DistanceMeters>81456.95320502</DistanceMeters>
          </Trackpoint>
          <Trackpoint>
            <Time>2021-03-13T11:30:14.000Z</Time>
            <Position>
              <LatitudeDegrees>36.720806993544101715087890625</LatitudeDegrees>
              <LongitudeDegrees>-4.158312790095806121826171875</LongitudeDegrees>
            </Position>
            <AltitudeMeters>5</AltitudeMeters>
            <DistanceMeters>81476.906099804</DistanceMeters>
          </Trackpoint>
          <Trackpoint>
            <Time>2021-03-13T11:30:16.000Z</Time>
            <Position>
              <LatitudeDegrees>36.72087698243558406829833984375</LatitudeDegrees>
              <LongitudeDegrees>-4.15851588360965251922607421875</LongitudeDegrees>
            </Position>
            <AltitudeMeters>5</AltitudeMeters>
            <DistanceMeters>81496.628664873</DistanceMeters>
          </Trackpoint>
          <Trackpoint>
            <Time>2021-03-13T11:30:18.000Z</Time>
            <Position>
              <LatitudeDegrees>36.720851920545101165771484375</LatitudeDegrees>
              <LongitudeDegrees>-4.158751666545867919921875</LongitudeDegrees>
            </Position>
            <AltitudeMeters>5</AltitudeMeters>
            <DistanceMeters>81517.848153598</DistanceMeters>
          </Trackpoint>
          <Trackpoint>
            <Time>2021-03-13T11:30:21.000Z</Time>
            <Position>
              <LatitudeDegrees>36.7206821031868457794189453125</LatitudeDegrees>
              <LongitudeDegrees>-4.15902500040829181671142578125</LongitudeDegrees>
            </Position>
            <AltitudeMeters>4.599999904632568359375</AltitudeMeters>
            <DistanceMeters>81548.700973214</DistanceMeters>
          </Trackpoint>
          <Trackpoint>
            <Time>2021-03-13T11:30:25.000Z</Time>
            <Position>
              <LatitudeDegrees>36.7205516807734966278076171875</LatitudeDegrees>
              <LongitudeDegrees>-4.15944837033748626708984375</LongitudeDegrees>
            </Position>
            <AltitudeMeters>4.19999980926513671875</AltitudeMeters>
            <DistanceMeters>81589.165508442</DistanceMeters>
          </Trackpoint>
          <Trackpoint>
            <Time>2021-03-13T11:30:28.000Z</Time>
            <Position>
              <LatitudeDegrees>36.72046132385730743408203125</LatitudeDegrees>
              <LongitudeDegrees>-4.1598419845104217529296875</LongitudeDegrees>
            </Position>
            <AltitudeMeters>4</AltitudeMeters>
            <DistanceMeters>81625.693609344</DistanceMeters>
          </Trackpoint>
          <Trackpoint>
            <Time>2021-03-13T11:30:31.000Z</Time>
            <Position>
              <LatitudeDegrees>36.72039586119353771209716796875</LatitudeDegrees>
              <LongitudeDegrees>-4.160191677510738372802734375</LongitudeDegrees>
            </Position>
            <AltitudeMeters>3.7999999523162841796875</AltitudeMeters>
            <DistanceMeters>81657.73100326</DistanceMeters>
          </Trackpoint>
          <Trackpoint>
            <Time>2021-03-13T11:30:34.000Z</Time>
            <Position>
              <LatitudeDegrees>36.720326207578182220458984375</LatitudeDegrees>
              <LongitudeDegrees>-4.1605529375374317169189453125</LongitudeDegrees>
            </Position>
            <AltitudeMeters>3.599999904632568359375</AltitudeMeters>
            <DistanceMeters>81690.880483838</DistanceMeters>
          </Trackpoint>
          <Trackpoint>
            <Time>2021-03-13T11:30:39.000Z</Time>
            <Position>
              <LatitudeDegrees>36.72022285871207714080810546875</LatitudeDegrees>
              <LongitudeDegrees>-4.161127768456935882568359375</LongitudeDegrees>
            </Position>
            <AltitudeMeters>3.400000095367431640625</AltitudeMeters>
            <DistanceMeters>81743.438590394</DistanceMeters>
          </Trackpoint>
          <Trackpoint>
            <Time>2021-03-13T11:30:45.000Z</Time>
            <Position>
              <LatitudeDegrees>36.72010081820189952850341796875</LatitudeDegrees>
              <LongitudeDegrees>-4.16179052554070949554443359375</LongitudeDegrees>
            </Position>
            <AltitudeMeters>3.7999999523162841796875</AltitudeMeters>
            <DistanceMeters>81804.107175499</DistanceMeters>
          </Trackpoint>
          <Trackpoint>
            <Time>2021-03-13T11:30:46.000Z</Time>
            <Position>
              <LatitudeDegrees>36.72007936052978038787841796875</LatitudeDegrees>
              <LongitudeDegrees>-4.161903597414493560791015625</LongitudeDegrees>
            </Position>
            <AltitudeMeters>3.7999999523162841796875</AltitudeMeters>
            <DistanceMeters>81814.473801747</DistanceMeters>
          </Trackpoint>
          <Trackpoint>
            <Time>2021-03-13T11:30:52.000Z</Time>
            <Position>
              <LatitudeDegrees>36.719950698316097259521484375</LatitudeDegrees>
              <LongitudeDegrees>-4.162603653967380523681640625</LongitudeDegrees>
            </Position>
            <AltitudeMeters>4</AltitudeMeters>
            <DistanceMeters>81878.550703498</DistanceMeters>
          </Trackpoint>
          <Trackpoint>
            <Time>2021-03-13T11:30:58.000Z</Time>
            <Position>
              <LatitudeDegrees>36.71982622705399990081787109375</LatitudeDegrees>
              <LongitudeDegrees>-4.16327579878270626068115234375</LongitudeDegrees>
            </Position>
            <AltitudeMeters>4.19999980926513671875</AltitudeMeters>
            <DistanceMeters>81940.096330688</DistanceMeters>
          </Trackpoint>
          <Trackpoint>
            <Time>2021-03-13T11:31:04.000Z</Time>
            <Position>
              <LatitudeDegrees>36.71970552764832973480224609375</LatitudeDegrees>
              <LongitudeDegrees>-4.16393302381038665771484375</LongitudeDegrees>
            </Position>
            <AltitudeMeters>4.599999904632568359375</AltitudeMeters>
            <DistanceMeters>82000.25079289</DistanceMeters>
          </Trackpoint>
          <Trackpoint>
            <Time>2021-03-13T11:31:06.000Z</Time>
            <Position>
              <LatitudeDegrees>36.71967015601694583892822265625</LatitudeDegrees>
              <LongitudeDegrees>-4.16413486003875732421875</LongitudeDegrees>
            </Position>
            <AltitudeMeters>4.80000019073486328125</AltitudeMeters>
            <DistanceMeters>82018.683281225</DistanceMeters>
          </Trackpoint>
          <Trackpoint>
            <Time>2021-03-13T11:31:12.000Z</Time>
            <Position>
              <LatitudeDegrees>36.71954258345067501068115234375</LatitudeDegrees>
              <LongitudeDegrees>-4.1648263670504093170166015625</LongitudeDegrees>
            </Position>
            <AltitudeMeters>5</AltitudeMeters>
            <DistanceMeters>82081.990046957</DistanceMeters>
          </Trackpoint>
          <Trackpoint>
            <Time>2021-03-13T11:31:15.000Z</Time>
            <Position>
              <LatitudeDegrees>36.7194875143468379974365234375</LatitudeDegrees>
              <LongitudeDegrees>-4.1651354916393756866455078125</LongitudeDegrees>
            </Position>
            <AltitudeMeters>5.19999980926513671875</AltitudeMeters>
            <DistanceMeters>82110.242082052</DistanceMeters>
          </Trackpoint>
          <Trackpoint>
            <Time>2021-03-13T11:31:21.000Z</Time>
            <Position>
              <LatitudeDegrees>36.7193681560456752777099609375</LatitudeDegrees>
              <LongitudeDegrees>-4.16579456068575382232666015625</LongitudeDegrees>
            </Position>
            <AltitudeMeters>6</AltitudeMeters>
            <DistanceMeters>82170.524081711</DistanceMeters>
          </Trackpoint>
          <Trackpoint>
            <Time>2021-03-13T11:31:24.000Z</Time>
            <Position>
              <LatitudeDegrees>36.71930973418056964874267578125</LatitudeDegrees>
              <LongitudeDegrees>-4.1661171801388263702392578125</LongitudeDegrees>
            </Position>
            <AltitudeMeters>6</AltitudeMeters>
            <DistanceMeters>82200.032439531</DistanceMeters>
          </Trackpoint>
          <Trackpoint>
            <Time>2021-03-13T11:31:31.000Z</Time>
            <Position>
              <LatitudeDegrees>36.71917386353015899658203125</LatitudeDegrees>
              <LongitudeDegrees>-4.16682687588036060333251953125</LongitudeDegrees>
            </Position>
            <AltitudeMeters>5.80000019073486328125</AltitudeMeters>
            <DistanceMeters>82265.13010857</DistanceMeters>
          </Trackpoint>
          <Trackpoint>
            <Time>2021-03-13T11:31:33.000Z</Time>
            <Position>
              <LatitudeDegrees>36.71912969090044498443603515625</LatitudeDegrees>
              <LongitudeDegrees>-4.16706525720655918121337890625</LongitudeDegrees>
            </Position>
            <AltitudeMeters>5.599999904632568359375</AltitudeMeters>
            <DistanceMeters>82286.958760469</DistanceMeters>
          </Trackpoint>
          <Trackpoint>
            <Time>2021-03-13T11:31:39.000Z</Time>
            <Position>
              <LatitudeDegrees>36.7190164513885974884033203125</LatitudeDegrees>
              <LongitudeDegrees>-4.1677000187337398529052734375</LongitudeDegrees>
            </Position>
            <AltitudeMeters>5.400000095367431640625</AltitudeMeters>
            <DistanceMeters>82344.976052244</DistanceMeters>
          </Trackpoint>
          <Trackpoint>
            <Time>2021-03-13T11:31:41.000Z</Time>
            <Position>
              <LatitudeDegrees>36.7189799062907695770263671875</LatitudeDegrees>
              <LongitudeDegrees>-4.1679095663130283355712890625</LongitudeDegrees>
            </Position>
            <AltitudeMeters>5.19999980926513671875</AltitudeMeters>
            <DistanceMeters>82364.108543164</DistanceMeters>
          </Trackpoint>
          <Trackpoint>
            <Time>2021-03-13T11:31:46.000Z</Time>
            <Position>
              <LatitudeDegrees>36.7188823409378528594970703125</LatitudeDegrees>
              <LongitudeDegrees>-4.168442152440547943115234375</LongitudeDegrees>
            </Position>
            <AltitudeMeters>4.80000019073486328125</AltitudeMeters>
            <DistanceMeters>82412.849374416</DistanceMeters>
          </Trackpoint>
          <Trackpoint>
            <Time>2021-03-13T11:31:50.000Z</Time>
            <Position>
              <LatitudeDegrees>36.71880464069545269012451171875</LatitudeDegrees>
              <LongitudeDegrees>-4.16887901723384857177734375</LongitudeDegrees>
            </Position>
            <AltitudeMeters>4.599999904632568359375</AltitudeMeters>
            <DistanceMeters>82452.77326267</DistanceMeters>
          </Trackpoint>
          <Trackpoint>
            <Time>2021-03-13T11:31:57.000Z</Time>
            <Position>
              <LatitudeDegrees>36.7186593823134899139404296875</LatitudeDegrees>
              <LongitudeDegrees>-4.1696382500231266021728515625</LongitudeDegrees>
            </Position>
            <AltitudeMeters>4.400000095367431640625</AltitudeMeters>
            <DistanceMeters>82522.41286918</DistanceMeters>
          </Trackpoint>
          <Trackpoint>
            <Time>2021-03-13T11:31:59.000Z</Time>
            <Position>
              <LatitudeDegrees>36.71862275339663028717041015625</LatitudeDegrees>
              <LongitudeDegrees>-4.1698558442294597625732421875</LongitudeDegrees>
            </Position>
            <AltitudeMeters>4.400000095367431640625</AltitudeMeters>
            <DistanceMeters>82542.249567774</DistanceMeters>
          </Trackpoint>
          <Trackpoint>
            <Time>2021-03-13T11:32:05.000Z</Time>
            <Position>
              <LatitudeDegrees>36.718504987657070159912109375</LatitudeDegrees>
              <LongitudeDegrees>-4.1705064475536346435546875</LongitudeDegrees>
            </Position>
            <AltitudeMeters>4.19999980926513671875</AltitudeMeters>
            <DistanceMeters>82601.756325178</DistanceMeters>
          </Trackpoint>
          <Trackpoint>
            <Time>2021-03-13T11:32:09.000Z</Time>
            <Position>
              <LatitudeDegrees>36.718423180282115936279296875</LatitudeDegrees>
              <LongitudeDegrees>-4.170951358973979949951171875</LongitudeDegrees>
            </Position>
            <AltitudeMeters>4.599999904632568359375</AltitudeMeters>
            <DistanceMeters>82642.48123181</DistanceMeters>
          </Trackpoint>
          <Trackpoint>
            <Time>2021-03-13T11:32:13.000Z</Time>
            <Position>
              <LatitudeDegrees>36.71834296546876430511474609375</LatitudeDegrees>
              <LongitudeDegrees>-4.17141093872487545013427734375</LongitudeDegrees>
            </Position>
            <AltitudeMeters>5</AltitudeMeters>
            <DistanceMeters>82684.444753435</DistanceMeters>
          </Trackpoint>
          <Trackpoint>
            <Time>2021-03-13T11:32:17.000Z</Time>
            <Position>
              <LatitudeDegrees>36.7182652652263641357421875</LatitudeDegrees>
              <LongitudeDegrees>-4.17186607606709003448486328125</LongitudeDegrees>
            </Position>
            <AltitudeMeters>5</AltitudeMeters>
            <DistanceMeters>82725.961967357</DistanceMeters>
          </Trackpoint>
          <Trackpoint>
            <Time>2021-03-13T11:32:23.000Z</Time>
            <Position>
              <LatitudeDegrees>36.718151606619358062744140625</LatitudeDegrees>
              <LongitudeDegrees>-4.17253528721630573272705078125</LongitudeDegrees>
            </Position>
            <AltitudeMeters>5.599999904632568359375</AltitudeMeters>
            <DistanceMeters>82786.993239934</DistanceMeters>
          </Trackpoint>
          <Trackpoint>
            <Time>2021-03-13T11:32:26.000Z</Time>
            <Position>
              <LatitudeDegrees>36.71809435822069644927978515625</LatitudeDegrees>
              <LongitudeDegrees>-4.17287341319024562835693359375</LongitudeDegrees>
            </Position>
            <AltitudeMeters>6</AltitudeMeters>
            <DistanceMeters>82817.825857852</DistanceMeters>
          </Trackpoint>
          <Trackpoint>
            <Time>2021-03-13T11:32:28.000Z</Time>
            <Position>
              <LatitudeDegrees>36.71805462799966335296630859375</LatitudeDegrees>
              <LongitudeDegrees>-4.1731023229658603668212890625</LongitudeDegrees>
            </Position>
            <AltitudeMeters>6.400000095367431640625</AltitudeMeters>
            <DistanceMeters>82838.722230182</DistanceMeters>
          </Trackpoint>
          <Trackpoint>
            <Time>2021-03-13T11:32:34.000Z</Time>
            <Position>
              <LatitudeDegrees>36.7179207690060138702392578125</LatitudeDegrees>
              <LongitudeDegrees>-4.17380497790873050689697265625</LongitudeDegrees>
            </Position>
            <AltitudeMeters>6.80000019073486328125</AltitudeMeters>
            <DistanceMeters>82903.15805072</DistanceMeters>
          </Trackpoint>
          <Trackpoint>
            <Time>2021-03-13T11:32:36.000Z</Time>
            <Position>
              <LatitudeDegrees>36.7178704775869846343994140625</LatitudeDegrees>
              <LongitudeDegrees>-4.17403824627399444580078125</LongitudeDegrees>
            </Position>
            <AltitudeMeters>6.80000019073486328125</AltitudeMeters>
            <DistanceMeters>82924.709430767</DistanceMeters>
          </Trackpoint>
          <Trackpoint>
            <Time>2021-03-13T11:32:42.000Z</Time>
            <Position>
              <LatitudeDegrees>36.7177395522594451904296875</LatitudeDegrees>
              <LongitudeDegrees>-4.17470653541386127471923828125</LongitudeDegrees>
            </Position>
            <AltitudeMeters>7.599999904632568359375</AltitudeMeters>
            <DistanceMeters>82986.088082286</DistanceMeters>
          </Trackpoint>
          <Trackpoint>
            <Time>2021-03-13T11:32:48.000Z</Time>
            <Position>
              <LatitudeDegrees>36.7176082916557788848876953125</LatitudeDegrees>
              <LongitudeDegrees>-4.1753858886659145355224609375</LongitudeDegrees>
            </Position>
            <AltitudeMeters>8.19999980926513671875</AltitudeMeters>
            <DistanceMeters>83048.434877123</DistanceMeters>
          </Trackpoint>
          <Trackpoint>
            <Time>2021-03-13T11:32:52.000Z</Time>
            <Position>
              <LatitudeDegrees>36.71751986257731914520263671875</LatitudeDegrees>
              <LongitudeDegrees>-4.1758623160421848297119140625</LongitudeDegrees>
            </Position>
            <AltitudeMeters>8.3999996185302734375</AltitudeMeters>
            <DistanceMeters>83092.065697369</DistanceMeters>
          </Trackpoint>
          <Trackpoint>
            <Time>2021-03-13T11:32:58.000Z</Time>
            <Position>
              <LatitudeDegrees>36.717389523983001708984375</LatitudeDegrees>
              <LongitudeDegrees>-4.1766123287379741668701171875</LongitudeDegrees>
            </Position>
            <AltitudeMeters>8</AltitudeMeters>
            <DistanceMeters>83160.535461989</DistanceMeters>
          </Trackpoint>
          <Trackpoint>
            <Time>2021-03-13T11:33:01.000Z</Time>
            <Position>
              <LatitudeDegrees>36.71732657589018344879150390625</LatitudeDegrees>
              <LongitudeDegrees>-4.17698062956333160400390625</LongitudeDegrees>
            </Position>
            <AltitudeMeters>8</AltitudeMeters>
            <DistanceMeters>83194.133554139</DistanceMeters>
          </Trackpoint>
          <Trackpoint>
            <Time>2021-03-13T11:33:07.000Z</Time>
            <Position>
              <LatitudeDegrees>36.71719581820070743560791015625</LatitudeDegrees>
              <LongitudeDegrees>-4.17769887484610080718994140625</LongitudeDegrees>
            </Position>
            <AltitudeMeters>8</AltitudeMeters>
            <DistanceMeters>83259.84670865</DistanceMeters>
          </Trackpoint>
          <Trackpoint>
            <Time>2021-03-13T11:33:12.000Z</Time>
            <Position>
              <LatitudeDegrees>36.7170762084424495697021484375</LatitudeDegrees>
              <LongitudeDegrees>-4.178338162600994110107421875</LongitudeDegrees>
            </Position>
            <AltitudeMeters>7.80000019073486328125</AltitudeMeters>
            <DistanceMeters>83318.416630456</DistanceMeters>
          </Trackpoint>
          <Trackpoint>
            <Time>2021-03-13T11:33:18.000Z</Time>
            <Position>
              <LatitudeDegrees>36.7169508151710033416748046875</LatitudeDegrees>
              <LongitudeDegrees>-4.17906814254820346832275390625</LongitudeDegrees>
            </Position>
            <AltitudeMeters>7.599999904632568359375</AltitudeMeters>
            <DistanceMeters>83385.023646731</DistanceMeters>
          </Trackpoint>
          <Trackpoint>
            <Time>2021-03-13T11:33:22.000Z</Time>
            <Position>
              <LatitudeDegrees>36.71686045825481414794921875</LatitudeDegrees>
              <LongitudeDegrees>-4.17955144308507442474365234375</LongitudeDegrees>
            </Position>
            <AltitudeMeters>7.400000095367431640625</AltitudeMeters>
            <DistanceMeters>83429.30079339</DistanceMeters>
          </Trackpoint>
          <Trackpoint>
            <Time>2021-03-13T11:33:25.000Z</Time>
            <Position>
              <LatitudeDegrees>36.716809831559658050537109375</LatitudeDegrees>
              <LongitudeDegrees>-4.17988755740225315093994140625</LongitudeDegrees>
            </Position>
            <AltitudeMeters>7.400000095367431640625</AltitudeMeters>
            <DistanceMeters>83459.81369233</DistanceMeters>
          </Trackpoint>
          <Trackpoint>
            <Time>2021-03-13T11:33:26.000Z</Time>
            <Position>
              <LatitudeDegrees>36.7168133519589900970458984375</LatitudeDegrees>
              <LongitudeDegrees>-4.17999819852411746978759765625</LongitudeDegrees>
            </Position>
            <AltitudeMeters>7.19999980926513671875</AltitudeMeters>
            <DistanceMeters>83469.692815075</DistanceMeters>
          </Trackpoint>
          <Trackpoint>
            <Time>2021-03-13T11:33:28.000Z</Time>
            <Position>
              <LatitudeDegrees>36.71682517044246196746826171875</LatitudeDegrees>
              <LongitudeDegrees>-4.180220067501068115234375</LongitudeDegrees>
            </Position>
            <AltitudeMeters>7.19999980926513671875</AltitudeMeters>
            <DistanceMeters>83489.531789642</DistanceMeters>
          </Trackpoint>
          <Trackpoint>
            <Time>2021-03-13T11:33:29.000Z</Time>
            <Position>
              <LatitudeDegrees>36.71680086292326450347900390625</LatitudeDegrees>
              <LongitudeDegrees>-4.18032743968069553375244140625</LongitudeDegrees>
            </Position>
            <AltitudeMeters>7.19999980926513671875</AltitudeMeters>
            <DistanceMeters>83499.486489984</DistanceMeters>
          </Trackpoint>
          <Trackpoint>
            <Time>2021-03-13T11:33:30.000Z</Time>
            <Position>
              <LatitudeDegrees>36.71675660647451877593994140625</LatitudeDegrees>
              <LongitudeDegrees>-4.180433638393878936767578125</LongitudeDegrees>
            </Position>
            <AltitudeMeters>7.19999980926513671875</AltitudeMeters>
            <DistanceMeters>83510.165057553</DistanceMeters>
          </Trackpoint>
          <Trackpoint>
            <Time>2021-03-13T11:33:32.000Z</Time>
            <Position>
              <LatitudeDegrees>36.71666759066283702850341796875</LatitudeDegrees>
              <LongitudeDegrees>-4.18065282516181468963623046875</LongitudeDegrees>
            </Position>
            <AltitudeMeters>7.19999980926513671875</AltitudeMeters>
            <DistanceMeters>83532.087619641</DistanceMeters>
          </Trackpoint>
          <Trackpoint>
            <Time>2021-03-13T11:33:36.000Z</Time>
            <Position>
              <LatitudeDegrees>36.71656139194965362548828125</LatitudeDegrees>
              <LongitudeDegrees>-4.1811761073768138885498046875</LongitudeDegrees>
            </Position>
            <AltitudeMeters>6.599999904632568359375</AltitudeMeters>
            <DistanceMeters>83580.247885992</DistanceMeters>
          </Trackpoint>
          <Trackpoint>
            <Time>2021-03-13T11:33:38.000Z</Time>
            <Position>
              <LatitudeDegrees>36.716509424149990081787109375</LatitudeDegrees>
              <LongitudeDegrees>-4.181427061557769775390625</LongitudeDegrees>
            </Position>
            <AltitudeMeters>6.599999904632568359375</AltitudeMeters>
            <DistanceMeters>83603.373179226</DistanceMeters>
          </Trackpoint>
          <Trackpoint>
            <Time>2021-03-13T11:33:43.000Z</Time>
            <Position>
              <LatitudeDegrees>36.7163836956024169921875</LatitudeDegrees>
              <LongitudeDegrees>-4.1821128688752651214599609375</LongitudeDegrees>
            </Position>
            <AltitudeMeters>6</AltitudeMeters>
            <DistanceMeters>83666.140895707</DistanceMeters>
          </Trackpoint>
          <Trackpoint>
            <Time>2021-03-13T11:33:47.000Z</Time>
            <Position>
              <LatitudeDegrees>36.7162980325520038604736328125</LatitudeDegrees>
              <LongitudeDegrees>-4.18259407393634319305419921875</LongitudeDegrees>
            </Position>
            <AltitudeMeters>5.599999904632568359375</AltitudeMeters>
            <DistanceMeters>83710.120199518</DistanceMeters>
          </Trackpoint>
          <Trackpoint>
            <Time>2021-03-13T11:33:49.000Z</Time>
            <Position>
              <LatitudeDegrees>36.716256625950336456298828125</LatitudeDegrees>
              <LongitudeDegrees>-4.1828273423016071319580078125</LongitudeDegrees>
            </Position>
            <AltitudeMeters>5.400000095367431640625</AltitudeMeters>
            <DistanceMeters>83731.436494144</DistanceMeters>
          </Trackpoint>
          <Trackpoint>
            <Time>2021-03-13T11:33:55.000Z</Time>
            <Position>
              <LatitudeDegrees>36.7161293886601924896240234375</LatitudeDegrees>
              <LongitudeDegrees>-4.18351155705749988555908203125</LongitudeDegrees>
            </Position>
            <AltitudeMeters>5.400000095367431640625</AltitudeMeters>
            <DistanceMeters>83794.103568317</DistanceMeters>
          </Trackpoint>
          <Trackpoint>
            <Time>2021-03-13T11:33:57.000Z</Time>
            <Position>
              <LatitudeDegrees>36.71608789823949337005615234375</LatitudeDegrees>
              <LongitudeDegrees>-4.18374381959438323974609375</LongitudeDegrees>
            </Position>
            <AltitudeMeters>5.400000095367431640625</AltitudeMeters>
            <DistanceMeters>83815.334331275</DistanceMeters>
          </Trackpoint>
          <Trackpoint>
            <Time>2021-03-13T11:34:03.000Z</Time>
            <Position>
              <LatitudeDegrees>36.71596921049058437347412109375</LatitudeDegrees>
              <LongitudeDegrees>-4.18448050506412982940673828125</LongitudeDegrees>
            </Position>
            <AltitudeMeters>5.19999980926513671875</AltitudeMeters>
            <DistanceMeters>83882.376200201</DistanceMeters>
          </Trackpoint>
          <Trackpoint>
            <Time>2021-03-13T11:34:04.000Z</Time>
            <Position>
              <LatitudeDegrees>36.7159513570368289947509765625</LatitudeDegrees>
              <LongitudeDegrees>-4.18460489250719547271728515625</LongitudeDegrees>
            </Position>
            <AltitudeMeters>5.19999980926513671875</AltitudeMeters>
            <DistanceMeters>83893.650390018</DistanceMeters>
          </Trackpoint>
          <Trackpoint>
            <Time>2021-03-13T11:34:10.000Z</Time>
            <Position>
              <LatitudeDegrees>36.71585303731262683868408203125</LatitudeDegrees>
              <LongitudeDegrees>-4.185315929353237152099609375</LongitudeDegrees>
            </Position>
            <AltitudeMeters>5</AltitudeMeters>
            <DistanceMeters>83958.026482967</DistanceMeters>
          </Trackpoint>
          <Trackpoint>
            <Time>2021-03-13T11:34:13.000Z</Time>
            <Position>
              <LatitudeDegrees>36.71581146307289600372314453125</LatitudeDegrees>
              <LongitudeDegrees>-4.185674674808979034423828125</LongitudeDegrees>
            </Position>
            <AltitudeMeters>5</AltitudeMeters>
            <DistanceMeters>83990.366853621</DistanceMeters>
          </Trackpoint>
          <Trackpoint>
            <Time>2021-03-13T11:34:19.000Z</Time>
            <Position>
              <LatitudeDegrees>36.7157414741814136505126953125</LatitudeDegrees>
              <LongitudeDegrees>-4.1864178143441677093505859375</LongitudeDegrees>
            </Position>
            <AltitudeMeters>5</AltitudeMeters>
            <DistanceMeters>84057.126485206</DistanceMeters>
          </Trackpoint>
          <Trackpoint>
            <Time>2021-03-13T11:34:22.000Z</Time>
            <Position>
              <LatitudeDegrees>36.7157213576138019561767578125</LatitudeDegrees>
              <LongitudeDegrees>-4.1867604665458202362060546875</LongitudeDegrees>
            </Position>
            <AltitudeMeters>5.400000095367431640625</AltitudeMeters>
            <DistanceMeters>84087.779929294</DistanceMeters>
          </Trackpoint>
          <Trackpoint>
            <Time>2021-03-13T11:34:28.000Z</Time>
            <Position>
              <LatitudeDegrees>36.7156687192618846893310546875</LatitudeDegrees>
              <LongitudeDegrees>-4.1874678991734981536865234375</LongitudeDegrees>
            </Position>
            <AltitudeMeters>5.400000095367431640625</AltitudeMeters>
            <DistanceMeters>84151.169087326</DistanceMeters>
          </Trackpoint>
          <Trackpoint>
            <Time>2021-03-13T11:34:30.000Z</Time>
            <Position>
              <LatitudeDegrees>36.7156620137393474578857421875</LatitudeDegrees>
              <LongitudeDegrees>-4.18773083947598934173583984375</LongitudeDegrees>
            </Position>
            <AltitudeMeters>5.599999904632568359375</AltitudeMeters>
            <DistanceMeters>84174.640878136</DistanceMeters>
          </Trackpoint>
          <Trackpoint>
            <Time>2021-03-13T11:34:34.000Z</Time>
            <Position>
              <LatitudeDegrees>36.7156791128218173980712890625</LatitudeDegrees>
              <LongitudeDegrees>-4.1881833784282207489013671875</LongitudeDegrees>
            </Position>
            <AltitudeMeters>5.599999904632568359375</AltitudeMeters>
            <DistanceMeters>84215.061650286</DistanceMeters>
          </Trackpoint>
          <Trackpoint>
            <Time>2021-03-13T11:34:36.000Z</Time>
            <Position>
              <LatitudeDegrees>36.71570115722715854644775390625</LatitudeDegrees>
              <LongitudeDegrees>-4.1884195804595947265625</LongitudeDegrees>
            </Position>
            <AltitudeMeters>5.599999904632568359375</AltitudeMeters>
            <DistanceMeters>84236.278372718</DistanceMeters>
          </Trackpoint>
          <Trackpoint>
            <Time>2021-03-13T11:34:42.000Z</Time>
            <Position>
              <LatitudeDegrees>36.715814061462879180908203125</LatitudeDegrees>
              <LongitudeDegrees>-4.18912307359278202056884765625</LongitudeDegrees>
            </Position>
            <AltitudeMeters>5.400000095367431640625</AltitudeMeters>
            <DistanceMeters>84300.290274795</DistanceMeters>
          </Trackpoint>
          <Trackpoint>
            <Time>2021-03-13T11:34:43.000Z</Time>
            <Position>
              <LatitudeDegrees>36.7158333398401737213134765625</LatitudeDegrees>
              <LongitudeDegrees>-4.18923689983785152435302734375</LongitudeDegrees>
            </Position>
            <AltitudeMeters>5.400000095367431640625</AltitudeMeters>
            <DistanceMeters>84310.670393876</DistanceMeters>
          </Trackpoint>
          <Trackpoint>
            <Time>2021-03-13T11:34:49.000Z</Time>
            <Position>
              <LatitudeDegrees>36.71595915220677852630615234375</LatitudeDegrees>
              <LongitudeDegrees>-4.1899338550865650177001953125</LongitudeDegrees>
            </Position>
            <AltitudeMeters>4.80000019073486328125</AltitudeMeters>
            <DistanceMeters>84374.410443558</DistanceMeters>
          </Trackpoint>
          <Trackpoint>
            <Time>2021-03-13T11:34:51.000Z</Time>
            <Position>
              <LatitudeDegrees>36.71599812805652618408203125</LatitudeDegrees>
              <LongitudeDegrees>-4.1901697218418121337890625</LongitudeDegrees>
            </Position>
            <AltitudeMeters>4.80000019073486328125</AltitudeMeters>
            <DistanceMeters>84395.897410502</DistanceMeters>
          </Trackpoint>
          <Trackpoint>
            <Time>2021-03-13T11:34:57.000Z</Time>
            <Position>
              <LatitudeDegrees>36.71609208919107913970947265625</LatitudeDegrees>
              <LongitudeDegrees>-4.1908816806972026824951171875</LongitudeDegrees>
            </Position>
            <AltitudeMeters>5</AltitudeMeters>
            <DistanceMeters>84460.273924261</DistanceMeters>
          </Trackpoint>
          <Trackpoint>
            <Time>2021-03-13T11:34:59.000Z</Time>
            <Position>
              <LatitudeDegrees>36.7161166481673717498779296875</LatitudeDegrees>
              <LongitudeDegrees>-4.19111729599535465240478515625</LongitudeDegrees>
            </Position>
            <AltitudeMeters>5</AltitudeMeters>
            <DistanceMeters>84481.472550496</DistanceMeters>
          </Trackpoint>
          <Trackpoint>
            <Time>2021-03-13T11:35:00.000Z</Time>
            <Position>
              <LatitudeDegrees>36.71612511388957500457763671875</LatitudeDegrees>
              <LongitudeDegrees>-4.1912313736975193023681640625</LongitudeDegrees>
            </Position>
            <AltitudeMeters>5.19999980926513671875</AltitudeMeters>
            <DistanceMeters>84491.693997774</DistanceMeters>
          </Trackpoint>
          <Trackpoint>
            <Time>2021-03-13T11:35:06.000Z</Time>
            <Position>
              <LatitudeDegrees>36.71616015024483203887939453125</LatitudeDegrees>
              <LongitudeDegrees>-4.191902764141559600830078125</LongitudeDegrees>
            </Position>
            <AltitudeMeters>5.19999980926513671875</AltitudeMeters>
            <DistanceMeters>84551.72245673</DistanceMeters>
          </Trackpoint>
          <Trackpoint>
            <Time>2021-03-13T11:35:09.000Z</Time>
            <Position>
              <LatitudeDegrees>36.7161595635116100311279296875</LatitudeDegrees>
              <LongitudeDegrees>-4.19222018681466579437255859375</LongitudeDegrees>
            </Position>
            <AltitudeMeters>5</AltitudeMeters>
            <DistanceMeters>84580.04296855</DistanceMeters>
          </Trackpoint>
          <Trackpoint>
            <Time>2021-03-13T11:35:12.000Z</Time>
            <Position>
              <LatitudeDegrees>36.71616618521511554718017578125</LatitudeDegrees>
              <LongitudeDegrees>-4.192515313625335693359375</LongitudeDegrees>
            </Position>
            <AltitudeMeters>5</AltitudeMeters>
            <DistanceMeters>84606.384572602</DistanceMeters>
          </Trackpoint>
          <Trackpoint>
            <Time>2021-03-13T11:35:13.000Z</Time>
            <Position>
              <LatitudeDegrees>36.7161887325346469879150390625</LatitudeDegrees>
              <LongitudeDegrees>-4.19260625727474689483642578125</LongitudeDegrees>
            </Position>
            <AltitudeMeters>5</AltitudeMeters>
            <DistanceMeters>84614.878174942</DistanceMeters>
          </Trackpoint>
          <Trackpoint>
            <Time>2021-03-13T11:35:14.000Z</Time>
            <Position>
              <LatitudeDegrees>36.71622703783214092254638671875</LatitudeDegrees>
              <LongitudeDegrees>-4.1926874779164791107177734375</LongitudeDegrees>
            </Position>
            <AltitudeMeters>5</AltitudeMeters>
            <DistanceMeters>84623.28575714</DistanceMeters>
          </Trackpoint>
          <Trackpoint>
            <Time>2021-03-13T11:35:16.000Z</Time>
            <Position>
              <LatitudeDegrees>36.7162831127643585205078125</LatitudeDegrees>
              <LongitudeDegrees>-4.192856959998607635498046875</LongitudeDegrees>
            </Position>
            <AltitudeMeters>5.19999980926513671875</AltitudeMeters>
            <DistanceMeters>84639.644158203</DistanceMeters>
          </Trackpoint>
          <Trackpoint>
            <Time>2021-03-13T11:35:18.000Z</Time>
            <Position>
              <LatitudeDegrees>36.71622879803180694580078125</LatitudeDegrees>
              <LongitudeDegrees>-4.193016551434993743896484375</LongitudeDegrees>
            </Position>
            <AltitudeMeters>5.19999980926513671875</AltitudeMeters>
            <DistanceMeters>84655.112802798</DistanceMeters>
          </Trackpoint>
          <Trackpoint>
            <Time>2021-03-13T11:35:20.000Z</Time>
            <Position>
              <LatitudeDegrees>36.71616769395768642425537109375</LatitudeDegrees>
              <LongitudeDegrees>-4.19317446649074554443359375</LongitudeDegrees>
            </Position>
            <AltitudeMeters>5.19999980926513671875</AltitudeMeters>
            <DistanceMeters>84670.757617339</DistanceMeters>
          </Trackpoint>
          <Trackpoint>
            <Time>2021-03-13T11:35:21.000Z</Time>
            <Position>
              <LatitudeDegrees>36.7161635868251323699951171875</LatitudeDegrees>
              <LongitudeDegrees>-4.1932730376720428466796875</LongitudeDegrees>
            </Position>
            <AltitudeMeters>5.19999980926513671875</AltitudeMeters>
            <DistanceMeters>84679.564907311</DistanceMeters>
          </Trackpoint>
          <Trackpoint>
            <Time>2021-03-13T11:35:23.000Z</Time>
            <Position>
              <LatitudeDegrees>36.71616082079708576202392578125</LatitudeDegrees>
              <LongitudeDegrees>-4.19348023831844329833984375</LongitudeDegrees>
            </Position>
            <AltitudeMeters>5.19999980926513671875</AltitudeMeters>
            <DistanceMeters>84698.053892515</DistanceMeters>
          </Trackpoint>
          <Trackpoint>
            <Time>2021-03-13T11:35:25.000Z</Time>
            <Position>
              <LatitudeDegrees>36.7161585576832294464111328125</LatitudeDegrees>
              <LongitudeDegrees>-4.19370328076183795928955078125</LongitudeDegrees>
            </Position>
            <AltitudeMeters>5.19999980926513671875</AltitudeMeters>
            <DistanceMeters>84717.955127472</DistanceMeters>
          </Trackpoint>
          <Trackpoint>
            <Time>2021-03-13T11:35:26.000Z</Time>
            <Position>
              <LatitudeDegrees>36.71615797095000743865966796875</LatitudeDegrees>
              <LongitudeDegrees>-4.19382221996784210205078125</LongitudeDegrees>
            </Position>
            <AltitudeMeters>5.19999980926513671875</AltitudeMeters>
            <DistanceMeters>84728.566680292</DistanceMeters>
          </Trackpoint>
          <Trackpoint>
            <Time>2021-03-13T11:35:28.000Z</Time>
            <Position>
              <LatitudeDegrees>36.71616442501544952392578125</LatitudeDegrees>
              <LongitudeDegrees>-4.1940657980740070343017578125</LongitudeDegrees>
            </Position>
            <AltitudeMeters>5</AltitudeMeters>
            <DistanceMeters>84750.310985354</DistanceMeters>
          </Trackpoint>
          <Trackpoint>
            <Time>2021-03-13T11:35:31.000Z</Time>
            <Position>
              <LatitudeDegrees>36.71617037616670131683349609375</LatitudeDegrees>
              <LongitudeDegrees>-4.19444491155445575714111328125</LongitudeDegrees>
            </Position>
            <AltitudeMeters>5.400000095367431640625</AltitudeMeters>
            <DistanceMeters>84784.142097205</DistanceMeters>
          </Trackpoint>
          <Trackpoint>
            <Time>2021-03-13T11:35:33.000Z</Time>
            <Position>
              <LatitudeDegrees>36.71617004089057445526123046875</LatitudeDegrees>
              <LongitudeDegrees>-4.19469301588833332061767578125</LongitudeDegrees>
            </Position>
            <AltitudeMeters>5.400000095367431640625</AltitudeMeters>
            <DistanceMeters>84806.278019099</DistanceMeters>
          </Trackpoint>
          <Trackpoint>
            <Time>2021-03-13T11:35:39.000Z</Time>
            <Position>
              <LatitudeDegrees>36.7161431349813938140869140625</LatitudeDegrees>
              <LongitudeDegrees>-4.1953663341701030731201171875</LongitudeDegrees>
            </Position>
            <AltitudeMeters>5.400000095367431640625</AltitudeMeters>
            <DistanceMeters>84866.426401344</DistanceMeters>
          </Trackpoint>
          <Trackpoint>
            <Time>2021-03-13T11:35:40.000Z</Time>
            <Position>
              <LatitudeDegrees>36.716139614582061767578125</LatitudeDegrees>
              <LongitudeDegrees>-4.1954752989113330841064453125</LongitudeDegrees>
            </Position>
            <AltitudeMeters>5.400000095367431640625</AltitudeMeters>
            <DistanceMeters>84876.156320225</DistanceMeters>
          </Trackpoint>
          <Trackpoint>
            <Time>2021-03-13T11:35:46.000Z</Time>
            <Position>
              <LatitudeDegrees>36.7161126248538494110107421875</LatitudeDegrees>
              <LongitudeDegrees>-4.1961834020912647247314453125</LongitudeDegrees>
            </Position>
            <AltitudeMeters>5.400000095367431640625</AltitudeMeters>
            <DistanceMeters>84939.405004839</DistanceMeters>
          </Trackpoint>
          <Trackpoint>
            <Time>2021-03-13T11:35:48.000Z</Time>
            <Position>
              <LatitudeDegrees>36.7160975374281406402587890625</LatitudeDegrees>
              <LongitudeDegrees>-4.19640124775469303131103515625</LongitudeDegrees>
            </Position>
            <AltitudeMeters>5.400000095367431640625</AltitudeMeters>
            <DistanceMeters>84958.91396847</DistanceMeters>
          </Trackpoint>
          <Trackpoint>
            <Time>2021-03-13T11:35:54.000Z</Time>
            <Position>
              <LatitudeDegrees>36.71608571894466876983642578125</LatitudeDegrees>
              <LongitudeDegrees>-4.1970775835216045379638671875</LongitudeDegrees>
            </Position>
            <AltitudeMeters>5.400000095367431640625</AltitudeMeters>
            <DistanceMeters>85019.271418714</DistanceMeters>
          </Trackpoint>
          <Trackpoint>
            <Time>2021-03-13T11:35:55.000Z</Time>
            <Position>
              <LatitudeDegrees>36.71608395874500274658203125</LatitudeDegrees>
              <LongitudeDegrees>-4.19719417579472064971923828125</LongitudeDegrees>
            </Position>
            <AltitudeMeters>5.400000095367431640625</AltitudeMeters>
            <DistanceMeters>85029.67586759</DistanceMeters>
          </Trackpoint>
          <Trackpoint>
            <Time>2021-03-13T11:36:01.000Z</Time>
            <Position>
              <LatitudeDegrees>36.7160187475383281707763671875</LatitudeDegrees>
              <LongitudeDegrees>-4.19790546409785747528076171875</LongitudeDegrees>
            </Position>
            <AltitudeMeters>5</AltitudeMeters>
            <DistanceMeters>85093.551210561</DistanceMeters>
          </Trackpoint>
          <Trackpoint>
            <Time>2021-03-13T11:36:07.000Z</Time>
            <Position>
              <LatitudeDegrees>36.7158289812505245208740234375</LatitudeDegrees>
              <LongitudeDegrees>-4.19856143184006214141845703125</LongitudeDegrees>
            </Position>
            <AltitudeMeters>5</AltitudeMeters>
            <DistanceMeters>85155.77172513</DistanceMeters>
          </Trackpoint>
          <Trackpoint>
            <Time>2021-03-13T11:36:13.000Z</Time>
            <Position>
              <LatitudeDegrees>36.715635359287261962890625</LatitudeDegrees>
              <LongitudeDegrees>-4.1992250271141529083251953125</LongitudeDegrees>
            </Position>
            <AltitudeMeters>5.19999980926513671875</AltitudeMeters>
            <DistanceMeters>85218.778521484</DistanceMeters>
          </Trackpoint>
          <Trackpoint>
            <Time>2021-03-13T11:36:14.000Z</Time>
            <Position>
              <LatitudeDegrees>36.71560526825487613677978515625</LatitudeDegrees>
              <LongitudeDegrees>-4.19932971708476543426513671875</LongitudeDegrees>
            </Position>
            <AltitudeMeters>5.19999980926513671875</AltitudeMeters>
            <DistanceMeters>85228.701876946</DistanceMeters>
          </Trackpoint>
          <Trackpoint>
            <Time>2021-03-13T11:36:21.000Z</Time>
            <Position>
              <LatitudeDegrees>36.71541751362383365631103515625</LatitudeDegrees>
              <LongitudeDegrees>-4.20004452578723430633544921875</LongitudeDegrees>
            </Position>
            <AltitudeMeters>5.400000095367431640625</AltitudeMeters>
            <DistanceMeters>85295.814557041</DistanceMeters>
          </Trackpoint>
          <Trackpoint>
            <Time>2021-03-13T11:36:22.000Z</Time>
            <Position>
              <LatitudeDegrees>36.71538683585822582244873046875</LatitudeDegrees>
              <LongitudeDegrees>-4.20016757212579250335693359375</LongitudeDegrees>
            </Position>
            <AltitudeMeters>5.400000095367431640625</AltitudeMeters>
            <DistanceMeters>85307.312004108</DistanceMeters>
          </Trackpoint>
          <Trackpoint>
            <Time>2021-03-13T11:36:29.000Z</Time>
            <Position>
              <LatitudeDegrees>36.71522355638444423675537109375</LatitudeDegrees>
              <LongitudeDegrees>-4.20087911188602447509765625</LongitudeDegrees>
            </Position>
            <AltitudeMeters>5.599999904632568359375</AltitudeMeters>
            <DistanceMeters>85373.346614233</DistanceMeters>
          </Trackpoint>
          <Trackpoint>
            <Time>2021-03-13T11:36:30.000Z</Time>
            <Position>
              <LatitudeDegrees>36.7152077145874500274658203125</LatitudeDegrees>
              <LongitudeDegrees>-4.20098296366631984710693359375</LongitudeDegrees>
            </Position>
            <AltitudeMeters>5.599999904632568359375</AltitudeMeters>
            <DistanceMeters>85382.778703775</DistanceMeters>
          </Trackpoint>
          <Trackpoint>
            <Time>2021-03-13T11:36:37.000Z</Time>
            <Position>
              <LatitudeDegrees>36.71513085253536701202392578125</LatitudeDegrees>
              <LongitudeDegrees>-4.2017233371734619140625</LongitudeDegrees>
            </Position>
            <AltitudeMeters>5.80000019073486328125</AltitudeMeters>
            <DistanceMeters>85449.387753606</DistanceMeters>
          </Trackpoint>
          <Trackpoint>
            <Time>2021-03-13T11:36:40.000Z</Time>
            <Position>
              <LatitudeDegrees>36.71511836349964141845703125</LatitudeDegrees>
              <LongitudeDegrees>-4.202037155628204345703125</LongitudeDegrees>
            </Position>
            <AltitudeMeters>6</AltitudeMeters>
            <DistanceMeters>85477.421600702</DistanceMeters>
          </Trackpoint>
          <Trackpoint>
            <Time>2021-03-13T11:36:46.000Z</Time>
            <Position>
              <LatitudeDegrees>36.71512372791767120361328125</LatitudeDegrees>
              <LongitudeDegrees>-4.20273528434336185455322265625</LongitudeDegrees>
            </Position>
            <AltitudeMeters>6.400000095367431640625</AltitudeMeters>
            <DistanceMeters>85539.712608621</DistanceMeters>
          </Trackpoint>
          <Trackpoint>
            <Time>2021-03-13T11:36:48.000Z</Time>
            <Position>
              <LatitudeDegrees>36.71512649394571781158447265625</LatitudeDegrees>
              <LongitudeDegrees>-4.20296411029994487762451171875</LongitudeDegrees>
            </Position>
            <AltitudeMeters>6.400000095367431640625</AltitudeMeters>
            <DistanceMeters>85560.131194013</DistanceMeters>
          </Trackpoint>
          <Trackpoint>
            <Time>2021-03-13T11:36:54.000Z</Time>
            <Position>
              <LatitudeDegrees>36.7151252366602420806884765625</LatitudeDegrees>
              <LongitudeDegrees>-4.20368277467787265777587890625</LongitudeDegrees>
            </Position>
            <AltitudeMeters>6.400000095367431640625</AltitudeMeters>
            <DistanceMeters>85624.25176782</DistanceMeters>
          </Trackpoint>
          <Trackpoint>
            <Time>2021-03-13T11:36:57.000Z</Time>
            <Position>
              <LatitudeDegrees>36.71512448228895664215087890625</LatitudeDegrees>
              <LongitudeDegrees>-4.2040385864675045013427734375</LongitudeDegrees>
            </Position>
            <AltitudeMeters>6.599999904632568359375</AltitudeMeters>
            <DistanceMeters>85655.998086847</DistanceMeters>
          </Trackpoint>
          <Trackpoint>
            <Time>2021-03-13T11:37:01.000Z</Time>
            <Position>
              <LatitudeDegrees>36.7151242308318614959716796875</LatitudeDegrees>
              <LongitudeDegrees>-4.20451484620571136474609375</LongitudeDegrees>
            </Position>
            <AltitudeMeters>6.599999904632568359375</AltitudeMeters>
            <DistanceMeters>85698.490756751</DistanceMeters>
          </Trackpoint>
          <Trackpoint>
            <Time>2021-03-13T11:37:08.000Z</Time>
            <Position>
              <LatitudeDegrees>36.7151297628879547119140625</LatitudeDegrees>
              <LongitudeDegrees>-4.20519788749516010284423828125</LongitudeDegrees>
            </Position>
            <AltitudeMeters>6.599999904632568359375</AltitudeMeters>
            <DistanceMeters>85759.436004995</DistanceMeters>
          </Trackpoint>
          <Trackpoint>
            <Time>2021-03-13T11:37:09.000Z</Time>
            <Position>
              <LatitudeDegrees>36.7151289246976375579833984375</LatitudeDegrees>
              <LongitudeDegrees>-4.2053126357495784759521484375</LongitudeDegrees>
            </Position>
            <AltitudeMeters>6.599999904632568359375</AltitudeMeters>
            <DistanceMeters>85769.675105908</DistanceMeters>
          </Trackpoint>
          <Trackpoint>
            <Time>2021-03-13T11:37:15.000Z</Time>
            <Position>
              <LatitudeDegrees>36.71510637737810611724853515625</LatitudeDegrees>
              <LongitudeDegrees>-4.206009842455387115478515625</LongitudeDegrees>
            </Position>
            <AltitudeMeters>6.400000095367431640625</AltitudeMeters>
            <DistanceMeters>85831.931602366</DistanceMeters>
          </Trackpoint>
          <Trackpoint>
            <Time>2021-03-13T11:37:18.000Z</Time>
            <Position>
              <LatitudeDegrees>36.71509028412401676177978515625</LatitudeDegrees>
              <LongitudeDegrees>-4.20624344609677791595458984375</LongitudeDegrees>
            </Position>
            <AltitudeMeters>6.599999904632568359375</AltitudeMeters>
            <DistanceMeters>85852.851297028</DistanceMeters>
          </Trackpoint>
          <Trackpoint>
            <Time>2021-03-13T11:37:19.000Z</Time>
            <Position>
              <LatitudeDegrees>36.71507368795573711395263671875</LatitudeDegrees>
              <LongitudeDegrees>-4.206454753875732421875</LongitudeDegrees>
            </Position>
            <AltitudeMeters>6.599999904632568359375</AltitudeMeters>
            <DistanceMeters>85871.795248518</DistanceMeters>
          </Trackpoint>
          <Trackpoint>
            <Time>2021-03-13T11:37:25.000Z</Time>
            <Position>
              <LatitudeDegrees>36.71501509845256805419921875</LatitudeDegrees>
              <LongitudeDegrees>-4.20716143213212490081787109375</LongitudeDegrees>
            </Position>
            <AltitudeMeters>7.19999980926513671875</AltitudeMeters>
            <DistanceMeters>85935.182625842</DistanceMeters>
          </Trackpoint>
          <Trackpoint>
            <Time>2021-03-13T11:37:27.000Z</Time>
            <Position>
              <LatitudeDegrees>36.714991964399814605712890625</LatitudeDegrees>
              <LongitudeDegrees>-4.207424707710742950439453125</LongitudeDegrees>
            </Position>
            <AltitudeMeters>7.19999980926513671875</AltitudeMeters>
            <DistanceMeters>85958.813154129</DistanceMeters>
          </Trackpoint>
          <Trackpoint>
            <Time>2021-03-13T11:37:33.000Z</Time>
            <Position>
              <LatitudeDegrees>36.71491317451000213623046875</LatitudeDegrees>
              <LongitudeDegrees>-4.20816273428499698638916015625</LongitudeDegrees>
            </Position>
            <AltitudeMeters>7</AltitudeMeters>
            <DistanceMeters>86025.242604956</DistanceMeters>
          </Trackpoint>
          <Trackpoint>
            <Time>2021-03-13T11:37:37.000Z</Time>
            <Position>
              <LatitudeDegrees>36.71485240571200847625732421875</LatitudeDegrees>
              <LongitudeDegrees>-4.20866933651268482208251953125</LongitudeDegrees>
            </Position>
            <AltitudeMeters>6.599999904632568359375</AltitudeMeters>
            <DistanceMeters>86070.945811655</DistanceMeters>
          </Trackpoint>
          <Trackpoint>
            <Time>2021-03-13T11:37:43.000Z</Time>
            <Position>
              <LatitudeDegrees>36.7147705145180225372314453125</LatitudeDegrees>
              <LongitudeDegrees>-4.20940451323986053466796875</LongitudeDegrees>
            </Position>
            <AltitudeMeters>6.19999980926513671875</AltitudeMeters>
            <DistanceMeters>86137.169955489</DistanceMeters>
          </Trackpoint>
          <Trackpoint>
            <Time>2021-03-13T11:37:46.000Z</Time>
            <Position>
              <LatitudeDegrees>36.7147265933454036712646484375</LatitudeDegrees>
              <LongitudeDegrees>-4.20977742411196231842041015625</LongitudeDegrees>
            </Position>
            <AltitudeMeters>5.80000019073486328125</AltitudeMeters>
            <DistanceMeters>86170.799075962</DistanceMeters>
          </Trackpoint>
          <Trackpoint>
            <Time>2021-03-13T11:37:49.000Z</Time>
            <Position>
              <LatitudeDegrees>36.71468761749565601348876953125</LatitudeDegrees>
              <LongitudeDegrees>-4.21012225560843944549560546875</LongitudeDegrees>
            </Position>
            <AltitudeMeters>5.599999904632568359375</AltitudeMeters>
            <DistanceMeters>86201.870050723</DistanceMeters>
          </Trackpoint>
          <Trackpoint>
            <Time>2021-03-13T11:37:55.000Z</Time>
            <Position>
              <LatitudeDegrees>36.7145985178649425506591796875</LatitudeDegrees>
              <LongitudeDegrees>-4.2108564265072345733642578125</LongitudeDegrees>
            </Position>
            <AltitudeMeters>5.400000095367431640625</AltitudeMeters>
            <DistanceMeters>86268.120846843</DistanceMeters>
          </Trackpoint>
          <Trackpoint>
            <Time>2021-03-13T11:37:56.000Z</Time>
            <Position>
              <LatitudeDegrees>36.7145854420959949493408203125</LatitudeDegrees>
              <LongitudeDegrees>-4.21098005957901477813720703125</LongitudeDegrees>
            </Position>
            <AltitudeMeters>5.400000095367431640625</AltitudeMeters>
            <DistanceMeters>86279.247497194</DistanceMeters>
          </Trackpoint>
          <Trackpoint>
            <Time>2021-03-13T11:38:02.000Z</Time>
            <Position>
              <LatitudeDegrees>36.71450254507362842559814453125</LatitudeDegrees>
              <LongitudeDegrees>-4.21172001399099826812744140625</LongitudeDegrees>
            </Position>
            <AltitudeMeters>5.400000095367431640625</AltitudeMeters>
            <DistanceMeters>86345.909668621</DistanceMeters>
          </Trackpoint>
          <Trackpoint>
            <Time>2021-03-13T11:38:03.000Z</Time>
            <Position>
              <LatitudeDegrees>36.7144882120192050933837890625</LatitudeDegrees>
              <LongitudeDegrees>-4.2118464969098567962646484375</LongitudeDegrees>
            </Position>
            <AltitudeMeters>5.400000095367431640625</AltitudeMeters>
            <DistanceMeters>86357.307329772</DistanceMeters>
          </Trackpoint>
          <Trackpoint>
            <Time>2021-03-13T11:38:09.000Z</Time>
            <Position>
              <LatitudeDegrees>36.7144027166068553924560546875</LatitudeDegrees>
              <LongitudeDegrees>-4.2126270197331905364990234375</LongitudeDegrees>
            </Position>
            <AltitudeMeters>5.599999904632568359375</AltitudeMeters>
            <DistanceMeters>86427.594602035</DistanceMeters>
          </Trackpoint>
          <Trackpoint>
            <Time>2021-03-13T11:38:10.000Z</Time>
            <Position>
              <LatitudeDegrees>36.71438888646662235260009765625</LatitudeDegrees>
              <LongitudeDegrees>-4.21275517903268337249755859375</LongitudeDegrees>
            </Position>
            <AltitudeMeters>5.599999904632568359375</AltitudeMeters>
            <DistanceMeters>86439.13242622</DistanceMeters>
          </Trackpoint>
          <Trackpoint>
            <Time>2021-03-13T11:38:16.000Z</Time>
            <Position>
              <LatitudeDegrees>36.71429081819951534271240234375</LatitudeDegrees>
              <LongitudeDegrees>-4.213550873100757598876953125</LongitudeDegrees>
            </Position>
            <AltitudeMeters>6</AltitudeMeters>
            <DistanceMeters>86510.960554386</DistanceMeters>
          </Trackpoint>
          <Trackpoint>
            <Time>2021-03-13T11:38:18.000Z</Time>
            <Position>
              <LatitudeDegrees>36.71426014043390750885009765625</LatitudeDegrees>
              <LongitudeDegrees>-4.21381942927837371826171875</LongitudeDegrees>
            </Position>
            <AltitudeMeters>6.19999980926513671875</AltitudeMeters>
            <DistanceMeters>86535.163841747</DistanceMeters>
          </Trackpoint>
          <Trackpoint>
            <Time>2021-03-13T11:38:23.000Z</Time>
            <Position>
              <LatitudeDegrees>36.714210100471973419189453125</LatitudeDegrees>
              <LongitudeDegrees>-4.21447548083961009979248046875</LongitudeDegrees>
            </Position>
            <AltitudeMeters>6.19999980926513671875</AltitudeMeters>
            <DistanceMeters>86593.962960262</DistanceMeters>
          </Trackpoint>
          <Trackpoint>
            <Time>2021-03-13T11:38:24.000Z</Time>
            <Position>
              <LatitudeDegrees>36.714202053844928741455078125</LatitudeDegrees>
              <LongitudeDegrees>-4.21461042948067188262939453125</LongitudeDegrees>
            </Position>
            <AltitudeMeters>6.19999980926513671875</AltitudeMeters>
            <DistanceMeters>86606.036963496</DistanceMeters>
          </Trackpoint>
          <Trackpoint>
            <Time>2021-03-13T11:38:29.000Z</Time>
            <Position>
              <LatitudeDegrees>36.71419543214142322540283203125</LatitudeDegrees>
              <LongitudeDegrees>-4.21529841609299182891845703125</LongitudeDegrees>
            </Position>
            <AltitudeMeters>6</AltitudeMeters>
            <DistanceMeters>86667.42539777</DistanceMeters>
          </Trackpoint>
          <Trackpoint>
            <Time>2021-03-13T11:38:31.000Z</Time>
            <Position>
              <LatitudeDegrees>36.7141955159604549407958984375</LatitudeDegrees>
              <LongitudeDegrees>-4.2155640386044979095458984375</LongitudeDegrees>
            </Position>
            <AltitudeMeters>6</AltitudeMeters>
            <DistanceMeters>86691.12499175</DistanceMeters>
          </Trackpoint>
          <Trackpoint>
            <Time>2021-03-13T11:38:36.000Z</Time>
            <Position>
              <LatitudeDegrees>36.71420616097748279571533203125</LatitudeDegrees>
              <LongitudeDegrees>-4.2161739058792591094970703125</LongitudeDegrees>
            </Position>
            <AltitudeMeters>6</AltitudeMeters>
            <DistanceMeters>86745.551910524</DistanceMeters>
          </Trackpoint>
          <Trackpoint>
            <Time>2021-03-13T11:38:42.000Z</Time>
            <Position>
              <LatitudeDegrees>36.71420984901487827301025390625</LatitudeDegrees>
              <LongitudeDegrees>-4.21693707816302776336669921875</LongitudeDegrees>
            </Position>
            <AltitudeMeters>6.599999904632568359375</AltitudeMeters>
            <DistanceMeters>86813.645563622</DistanceMeters>
          </Trackpoint>
          <Trackpoint>
            <Time>2021-03-13T11:38:43.000Z</Time>
            <Position>
              <LatitudeDegrees>36.71421018429100513458251953125</LatitudeDegrees>
              <LongitudeDegrees>-4.2170627228915691375732421875</LongitudeDegrees>
            </Position>
            <AltitudeMeters>6.80000019073486328125</AltitudeMeters>
            <DistanceMeters>86824.856299724</DistanceMeters>
          </Trackpoint>
          <Trackpoint>
            <Time>2021-03-13T11:38:49.000Z</Time>
            <Position>
              <LatitudeDegrees>36.71420666389167308807373046875</LatitudeDegrees>
              <LongitudeDegrees>-4.217777363955974578857421875</LongitudeDegrees>
            </Position>
            <AltitudeMeters>7.400000095367431640625</AltitudeMeters>
            <DistanceMeters>86888.619720733</DistanceMeters>
          </Trackpoint>
          <Trackpoint>
            <Time>2021-03-13T11:38:50.000Z</Time>
            <Position>
              <LatitudeDegrees>36.7141995392739772796630859375</LatitudeDegrees>
              <LongitudeDegrees>-4.21789948828518390655517578125</LongitudeDegrees>
            </Position>
            <AltitudeMeters>7.599999904632568359375</AltitudeMeters>
            <DistanceMeters>86899.544900386</DistanceMeters>
          </Trackpoint>
          <Trackpoint>
            <Time>2021-03-13T11:38:52.000Z</Time>
            <Position>
              <LatitudeDegrees>36.714179925620555877685546875</LatitudeDegrees>
              <LongitudeDegrees>-4.2181470058858394622802734375</LongitudeDegrees>
            </Position>
            <AltitudeMeters>7.80000019073486328125</AltitudeMeters>
            <DistanceMeters>86921.736842822</DistanceMeters>
          </Trackpoint>
          <Trackpoint>
            <Time>2021-03-13T11:38:57.000Z</Time>
            <Position>
              <LatitudeDegrees>36.71410893090069293975830078125</LatitudeDegrees>
              <LongitudeDegrees>-4.21878956258296966552734375</LongitudeDegrees>
            </Position>
            <AltitudeMeters>8.19999980926513671875</AltitudeMeters>
            <DistanceMeters>86979.609594209</DistanceMeters>
          </Trackpoint>
          <Trackpoint>
            <Time>2021-03-13T11:39:03.000Z</Time>
            <Position>
              <LatitudeDegrees>36.714014969766139984130859375</LatitudeDegrees>
              <LongitudeDegrees>-4.21943672932684421539306640625</LongitudeDegrees>
            </Position>
            <AltitudeMeters>8.19999980926513671875</AltitudeMeters>
            <DistanceMeters>87038.291033276</DistanceMeters>
          </Trackpoint>
          <Trackpoint>
            <Time>2021-03-13T11:39:05.000Z</Time>
            <Position>
              <LatitudeDegrees>36.71395453624427318572998046875</LatitudeDegrees>
              <LongitudeDegrees>-4.21980611979961395263671875</LongitudeDegrees>
            </Position>
            <AltitudeMeters>8</AltitudeMeters>
            <DistanceMeters>87071.928611051</DistanceMeters>
          </Trackpoint>
          <Trackpoint>
            <Time>2021-03-13T11:39:10.000Z</Time>
            <Position>
              <LatitudeDegrees>36.71385227702558040618896484375</LatitudeDegrees>
              <LongitudeDegrees>-4.2204242013394832611083984375</LongitudeDegrees>
            </Position>
            <AltitudeMeters>6.80000019073486328125</AltitudeMeters>
            <DistanceMeters>87128.238013481</DistanceMeters>
          </Trackpoint>
          <Trackpoint>
            <Time>2021-03-13T11:39:14.000Z</Time>
            <Position>
              <LatitudeDegrees>36.713773906230926513671875</LatitudeDegrees>
              <LongitudeDegrees>-4.2209177277982234954833984375</LongitudeDegrees>
            </Position>
            <AltitudeMeters>6.19999980926513671875</AltitudeMeters>
            <DistanceMeters>87173.127651691</DistanceMeters>
          </Trackpoint>
          <Trackpoint>
            <Time>2021-03-13T11:39:19.000Z</Time>
            <Position>
              <LatitudeDegrees>36.71370483934879302978515625</LatitudeDegrees>
              <LongitudeDegrees>-4.2215691693127155303955078125</LongitudeDegrees>
            </Position>
            <AltitudeMeters>5.80000019073486328125</AltitudeMeters>
            <DistanceMeters>87231.757517287</DistanceMeters>
          </Trackpoint>
          <Trackpoint>
            <Time>2021-03-13T11:39:20.000Z</Time>
            <Position>
              <LatitudeDegrees>36.713695116341114044189453125</LatitudeDegrees>
              <LongitudeDegrees>-4.221707470715045928955078125</LongitudeDegrees>
            </Position>
            <AltitudeMeters>5.599999904632568359375</AltitudeMeters>
            <DistanceMeters>87244.144204853</DistanceMeters>
          </Trackpoint>
          <Trackpoint>
            <Time>2021-03-13T11:39:26.000Z</Time>
            <Position>
              <LatitudeDegrees>36.71364658512175083160400390625</LatitudeDegrees>
              <LongitudeDegrees>-4.22250165604054927825927734375</LongitudeDegrees>
            </Position>
            <AltitudeMeters>5.19999980926513671875</AltitudeMeters>
            <DistanceMeters>87315.209703045</DistanceMeters>
          </Trackpoint>
          <Trackpoint>
            <Time>2021-03-13T11:39:27.000Z</Time>
            <Position>
              <LatitudeDegrees>36.71364272944629192352294921875</LatitudeDegrees>
              <LongitudeDegrees>-4.22262118197977542877197265625</LongitudeDegrees>
            </Position>
            <AltitudeMeters>5</AltitudeMeters>
            <DistanceMeters>87325.883195651</DistanceMeters>
          </Trackpoint>
          <Trackpoint>
            <Time>2021-03-13T11:39:31.000Z</Time>
            <Position>
              <LatitudeDegrees>36.7136185057461261749267578125</LatitudeDegrees>
              <LongitudeDegrees>-4.22308051027357578277587890625</LongitudeDegrees>
            </Position>
            <AltitudeMeters>5</AltitudeMeters>
            <DistanceMeters>87366.95452872</DistanceMeters>
          </Trackpoint>
          <Trackpoint>
            <Time>2021-03-13T11:39:34.000Z</Time>
            <Position>
              <LatitudeDegrees>36.71359931118786334991455078125</LatitudeDegrees>
              <LongitudeDegrees>-4.223411343991756439208984375</LongitudeDegrees>
            </Position>
            <AltitudeMeters>5</AltitudeMeters>
            <DistanceMeters>87396.549820487</DistanceMeters>
          </Trackpoint>
          <Trackpoint>
            <Time>2021-03-13T11:39:39.000Z</Time>
            <Position>
              <LatitudeDegrees>36.71356779523193836212158203125</LatitudeDegrees>
              <LongitudeDegrees>-4.2239606939256191253662109375</LongitudeDegrees>
            </Position>
            <AltitudeMeters>4.80000019073486328125</AltitudeMeters>
            <DistanceMeters>87445.690118229</DistanceMeters>
          </Trackpoint>
          <Trackpoint>
            <Time>2021-03-13T11:39:42.000Z</Time>
            <Position>
              <LatitudeDegrees>36.71354868449270725250244140625</LatitudeDegrees>
              <LongitudeDegrees>-4.22426437027752399444580078125</LongitudeDegrees>
            </Position>
            <AltitudeMeters>5</AltitudeMeters>
            <DistanceMeters>87472.868423053</DistanceMeters>
          </Trackpoint>
          <Trackpoint>
            <Time>2021-03-13T11:39:44.000Z</Time>
            <Position>
              <LatitudeDegrees>36.71355790458619594573974609375</LatitudeDegrees>
              <LongitudeDegrees>-4.2244260571897029876708984375</LongitudeDegrees>
            </Position>
            <AltitudeMeters>5</AltitudeMeters>
            <DistanceMeters>87487.331226749</DistanceMeters>
          </Trackpoint>
          <Trackpoint>
            <Time>2021-03-13T11:39:45.000Z</Time>
            <Position>
              <LatitudeDegrees>36.71357718296349048614501953125</LatitudeDegrees>
              <LongitudeDegrees>-4.224488250911235809326171875</LongitudeDegrees>
            </Position>
            <AltitudeMeters>5</AltitudeMeters>
            <DistanceMeters>87493.280081226</DistanceMeters>
          </Trackpoint>
          <Trackpoint>
            <Time>2021-03-13T11:39:47.000Z</Time>
            <Position>
              <LatitudeDegrees>36.71361490152776241302490234375</LatitudeDegrees>
              <LongitudeDegrees>-4.224669970571994781494140625</LongitudeDegrees>
            </Position>
            <AltitudeMeters>5.19999980926513671875</AltitudeMeters>
            <DistanceMeters>87510.028522785</DistanceMeters>
          </Trackpoint>
          <Trackpoint>
            <Time>2021-03-13T11:39:48.000Z</Time>
            <Position>
              <LatitudeDegrees>36.71358816325664520263671875</LatitudeDegrees>
              <LongitudeDegrees>-4.22475211322307586669921875</LongitudeDegrees>
            </Position>
            <AltitudeMeters>5</AltitudeMeters>
            <DistanceMeters>87517.939175713</DistanceMeters>
          </Trackpoint>
          <Trackpoint>
            <Time>2021-03-13T11:39:50.000Z</Time>
            <Position>
              <LatitudeDegrees>36.7135276459157466888427734375</LatitudeDegrees>
              <LongitudeDegrees>-4.22489150427281856536865234375</LongitudeDegrees>
            </Position>
            <AltitudeMeters>5</AltitudeMeters>
            <DistanceMeters>87532.083160779</DistanceMeters>
          </Trackpoint>
          <Trackpoint>
            <Time>2021-03-13T11:39:52.000Z</Time>
            <Position>
              <LatitudeDegrees>36.7134961299598217010498046875</LatitudeDegrees>
              <LongitudeDegrees>-4.22508412040770053863525390625</LongitudeDegrees>
            </Position>
            <AltitudeMeters>5</AltitudeMeters>
            <DistanceMeters>87549.623506686</DistanceMeters>
          </Trackpoint>
          <Trackpoint>
            <Time>2021-03-13T11:39:56.000Z</Time>
            <Position>
              <LatitudeDegrees>36.71346587128937244415283203125</LatitudeDegrees>
              <LongitudeDegrees>-4.22549835406243801116943359375</LongitudeDegrees>
            </Position>
            <AltitudeMeters>4.80000019073486328125</AltitudeMeters>
            <DistanceMeters>87586.736031524</DistanceMeters>
          </Trackpoint>
          <Trackpoint>
            <Time>2021-03-13T11:39:59.000Z</Time>
            <Position>
              <LatitudeDegrees>36.71345405280590057373046875</LatitudeDegrees>
              <LongitudeDegrees>-4.22579809091985225677490234375</LongitudeDegrees>
            </Position>
            <AltitudeMeters>4.599999904632568359375</AltitudeMeters>
            <DistanceMeters>87613.511989944</DistanceMeters>
          </Trackpoint>
          <Trackpoint>
            <Time>2021-03-13T11:40:00.000Z</Time>
            <Position>
              <LatitudeDegrees>36.71344759874045848846435546875</LatitudeDegrees>
              <LongitudeDegrees>-4.22591007314622402191162109375</LongitudeDegrees>
            </Position>
            <AltitudeMeters>4.80000019073486328125</AltitudeMeters>
            <DistanceMeters>87623.529085803</DistanceMeters>
          </Trackpoint>
          <Trackpoint>
            <Time>2021-03-13T11:40:02.000Z</Time>
            <Position>
              <LatitudeDegrees>36.713434942066669464111328125</LatitudeDegrees>
              <LongitudeDegrees>-4.2261649668216705322265625</LongitudeDegrees>
            </Position>
            <AltitudeMeters>5</AltitudeMeters>
            <DistanceMeters>87646.315295127</DistanceMeters>
          </Trackpoint>
          <Trackpoint>
            <Time>2021-03-13T11:40:08.000Z</Time>
            <Position>
              <LatitudeDegrees>36.71340283937752246856689453125</LatitudeDegrees>
              <LongitudeDegrees>-4.22685521654784679412841796875</LongitudeDegrees>
            </Position>
            <AltitudeMeters>5.19999980926513671875</AltitudeMeters>
            <DistanceMeters>87708.005420244</DistanceMeters>
          </Trackpoint>
          <Trackpoint>
            <Time>2021-03-13T11:40:09.000Z</Time>
            <Position>
              <LatitudeDegrees>36.71340283937752246856689453125</LatitudeDegrees>
              <LongitudeDegrees>-4.22685521654784679412841796875</LongitudeDegrees>
            </Position>
            <AltitudeMeters>5.19999980926513671875</AltitudeMeters>
            <DistanceMeters>87708.005420244</DistanceMeters>
          </Trackpoint>
          <Trackpoint>
            <Time>2021-03-13T11:40:11.000Z</Time>
            <Position>
              <LatitudeDegrees>36.713387668132781982421875</LatitudeDegrees>
              <LongitudeDegrees>-4.2272056639194488525390625</LongitudeDegrees>
            </Position>
            <AltitudeMeters>5.400000095367431640625</AltitudeMeters>
            <DistanceMeters>87739.319282045</DistanceMeters>
          </Trackpoint>
          <Trackpoint>
            <Time>2021-03-13T11:40:16.000Z</Time>
            <Position>
              <LatitudeDegrees>36.71340602450072765350341796875</LatitudeDegrees>
              <LongitudeDegrees>-4.22776699997484683990478515625</LongitudeDegrees>
            </Position>
            <AltitudeMeters>5.599999904632568359375</AltitudeMeters>
            <DistanceMeters>87789.445491065</DistanceMeters>
          </Trackpoint>
          <Trackpoint>
            <Time>2021-03-13T11:40:19.000Z</Time>
            <Position>
              <LatitudeDegrees>36.71346972696483135223388671875</LatitudeDegrees>
              <LongitudeDegrees>-4.22806975431740283966064453125</LongitudeDegrees>
            </Position>
            <AltitudeMeters>6</AltitudeMeters>
            <DistanceMeters>87817.373323468</DistanceMeters>
          </Trackpoint>
          <Trackpoint>
            <Time>2021-03-13T11:40:21.000Z</Time>
            <Position>
              <LatitudeDegrees>36.713546924293041229248046875</LatitudeDegrees>
              <LongitudeDegrees>-4.2282981611788272857666015625</LongitudeDegrees>
            </Position>
            <AltitudeMeters>6</AltitudeMeters>
            <DistanceMeters>87839.489859834</DistanceMeters>
          </Trackpoint>
          <Trackpoint>
            <Time>2021-03-13T11:40:26.000Z</Time>
            <Position>
              <LatitudeDegrees>36.71377700753509998321533203125</LatitudeDegrees>
              <LongitudeDegrees>-4.22875656746327877044677734375</LongitudeDegrees>
            </Position>
            <AltitudeMeters>6.599999904632568359375</AltitudeMeters>
            <DistanceMeters>87887.746124539</DistanceMeters>
          </Trackpoint>
          <Trackpoint>
            <Time>2021-03-13T11:40:28.000Z</Time>
            <Position>
              <LatitudeDegrees>36.71382780186831951141357421875</LatitudeDegrees>
              <LongitudeDegrees>-4.22891532070934772491455078125</LongitudeDegrees>
            </Position>
            <AltitudeMeters>6.80000019073486328125</AltitudeMeters>
            <DistanceMeters>87902.996950057</DistanceMeters>
          </Trackpoint>
          <Trackpoint>
            <Time>2021-03-13T11:40:29.000Z</Time>
            <Position>
              <LatitudeDegrees>36.7138315737247467041015625</LatitudeDegrees>
              <LongitudeDegrees>-4.2289786040782928466796875</LongitudeDegrees>
            </Position>
            <AltitudeMeters>7</AltitudeMeters>
            <DistanceMeters>87908.658820011</DistanceMeters>
          </Trackpoint>
          <Trackpoint>
            <Time>2021-03-13T11:40:32.000Z</Time>
            <Position>
              <LatitudeDegrees>36.7138099484145641326904296875</LatitudeDegrees>
              <LongitudeDegrees>-4.2290900833904743194580078125</LongitudeDegrees>
            </Position>
            <AltitudeMeters>7.599999904632568359375</AltitudeMeters>
            <DistanceMeters>87918.892186833</DistanceMeters>
          </Trackpoint>
          <Trackpoint>
            <Time>2021-03-13T11:40:34.000Z</Time>
            <Position>
              <LatitudeDegrees>36.71379393897950649261474609375</LatitudeDegrees>
              <LongitudeDegrees>-4.22912947833538055419921875</LongitudeDegrees>
            </Position>
            <AltitudeMeters>8.19999980926513671875</AltitudeMeters>
            <DistanceMeters>87922.830926648</DistanceMeters>
          </Trackpoint>
          <Trackpoint>
            <Time>2021-03-13T11:40:37.000Z</Time>
            <Position>
              <LatitudeDegrees>36.71377885155379772186279296875</LatitudeDegrees>
              <LongitudeDegrees>-4.22917532734572887420654296875</LongitudeDegrees>
            </Position>
            <AltitudeMeters>8.6000003814697265625</AltitudeMeters>
            <DistanceMeters>87927.252477903</DistanceMeters>
          </Trackpoint>
          <Trackpoint>
            <Time>2021-03-13T11:40:41.000Z</Time>
            <Position>
              <LatitudeDegrees>36.7137700505554676055908203125</LatitudeDegrees>
              <LongitudeDegrees>-4.2291930131614208221435546875</LongitudeDegrees>
            </Position>
            <AltitudeMeters>8.6000003814697265625</AltitudeMeters>
            <DistanceMeters>87929.109757958</DistanceMeters>
          </Trackpoint>
          <Trackpoint>
            <Time>2021-03-13T11:40:42.000Z</Time>
            <Position>
              <LatitudeDegrees>36.7137700505554676055908203125</LatitudeDegrees>
              <LongitudeDegrees>-4.2291930131614208221435546875</LongitudeDegrees>
            </Position>
            <AltitudeMeters>8.6000003814697265625</AltitudeMeters>
            <DistanceMeters>87929.109757958</DistanceMeters>
          </Trackpoint>
          <Trackpoint>
            <Time>2021-03-13T11:40:48.000Z</Time>
            <Position>
              <LatitudeDegrees>36.7137123830616474151611328125</LatitudeDegrees>
              <LongitudeDegrees>-4.22928680665791034698486328125</LongitudeDegrees>
            </Position>
            <AltitudeMeters>8.3999996185302734375</AltitudeMeters>
            <DistanceMeters>87939.65643903</DistanceMeters>
          </Trackpoint>
          <Trackpoint>
            <Time>2021-03-13T11:40:49.000Z</Time>
            <Position>
              <LatitudeDegrees>36.7136795260012149810791015625</LatitudeDegrees>
              <LongitudeDegrees>-4.2293153889477252960205078125</LongitudeDegrees>
            </Position>
            <AltitudeMeters>8.19999980926513671875</AltitudeMeters>
            <DistanceMeters>87944.11459989</DistanceMeters>
          </Trackpoint>
          <Trackpoint>
            <Time>2021-03-13T11:40:52.000Z</Time>
            <Position>
              <LatitudeDegrees>36.71355153433978557586669921875</LatitudeDegrees>
              <LongitudeDegrees>-4.229407422244548797607421875</LongitudeDegrees>
            </Position>
            <AltitudeMeters>8.19999980926513671875</AltitudeMeters>
            <DistanceMeters>87960.557242279</DistanceMeters>
          </Trackpoint>
          <Trackpoint>
            <Time>2021-03-13T11:40:53.000Z</Time>
            <Position>
              <LatitudeDegrees>36.713502667844295501708984375</LatitudeDegrees>
              <LongitudeDegrees>-4.229446314275264739990234375</LongitudeDegrees>
            </Position>
            <AltitudeMeters>8.19999980926513671875</AltitudeMeters>
            <DistanceMeters>87967.007869555</DistanceMeters>
          </Trackpoint>
          <Trackpoint>
            <Time>2021-03-13T11:40:55.000Z</Time>
            <Position>
              <LatitudeDegrees>36.71341474168002605438232421875</LatitudeDegrees>
              <LongitudeDegrees>-4.2295410297811031341552734375</LongitudeDegrees>
            </Position>
            <AltitudeMeters>7.80000019073486328125</AltitudeMeters>
            <DistanceMeters>87979.938138901</DistanceMeters>
          </Trackpoint>
          <Trackpoint>
            <Time>2021-03-13T11:40:56.000Z</Time>
            <Position>
              <LatitudeDegrees>36.713369227945804595947265625</LatitudeDegrees>
              <LongitudeDegrees>-4.2296080850064754486083984375</LongitudeDegrees>
            </Position>
            <AltitudeMeters>7.80000019073486328125</AltitudeMeters>
            <DistanceMeters>87987.777698855</DistanceMeters>
          </Trackpoint>
          <Trackpoint>
            <Time>2021-03-13T11:40:57.000Z</Time>
            <Position>
              <LatitudeDegrees>36.71332874335348606109619140625</LatitudeDegrees>
              <LongitudeDegrees>-4.22968645580112934112548828125</LongitudeDegrees>
            </Position>
            <AltitudeMeters>7.80000019073486328125</AltitudeMeters>
            <DistanceMeters>87996.096743624</DistanceMeters>
          </Trackpoint>
          <Trackpoint>
            <Time>2021-03-13T11:40:59.000Z</Time>
            <Position>
              <LatitudeDegrees>36.71326520852744579315185546875</LatitudeDegrees>
              <LongitudeDegrees>-4.2298669181764125823974609375</LongitudeDegrees>
            </Position>
            <AltitudeMeters>7.599999904632568359375</AltitudeMeters>
            <DistanceMeters>88013.682591857</DistanceMeters>
          </Trackpoint>
          <Trackpoint>
            <Time>2021-03-13T11:41:03.000Z</Time>
            <Position>
              <LatitudeDegrees>36.7132294178009033203125</LatitudeDegrees>
              <LongitudeDegrees>-4.230270087718963623046875</LongitudeDegrees>
            </Position>
            <AltitudeMeters>7</AltitudeMeters>
            <DistanceMeters>88049.874922934</DistanceMeters>
          </Trackpoint>
          <Trackpoint>
            <Time>2021-03-13T11:41:09.000Z</Time>
            <Position>
              <LatitudeDegrees>36.713232435286045074462890625</LatitudeDegrees>
              <LongitudeDegrees>-4.2309022508561611175537109375</LongitudeDegrees>
            </Position>
            <AltitudeMeters>6.80000019073486328125</AltitudeMeters>
            <DistanceMeters>88106.279982221</DistanceMeters>
          </Trackpoint>
          <Trackpoint>
            <Time>2021-03-13T11:41:15.000Z</Time>
            <Position>
              <LatitudeDegrees>36.7132079601287841796875</LatitudeDegrees>
              <LongitudeDegrees>-4.23155277036130428314208984375</LongitudeDegrees>
            </Position>
            <AltitudeMeters>7.80000019073486328125</AltitudeMeters>
            <DistanceMeters>88164.38584597</DistanceMeters>
          </Trackpoint>
          <Trackpoint>
            <Time>2021-03-13T11:41:16.000Z</Time>
            <Position>
              <LatitudeDegrees>36.7131994105875492095947265625</LatitudeDegrees>
              <LongitudeDegrees>-4.23166274093091487884521484375</LongitudeDegrees>
            </Position>
            <AltitudeMeters>7.80000019073486328125</AltitudeMeters>
            <DistanceMeters>88174.244838963</DistanceMeters>
          </Trackpoint>
          <Trackpoint>
            <Time>2021-03-13T11:41:20.000Z</Time>
            <Position>
              <LatitudeDegrees>36.71315842308104038238525390625</LatitudeDegrees>
              <LongitudeDegrees>-4.23208518885076045989990234375</LongitudeDegrees>
            </Position>
            <AltitudeMeters>8.3999996185302734375</AltitudeMeters>
            <DistanceMeters>88212.212500774</DistanceMeters>
          </Trackpoint>
          <Trackpoint>
            <Time>2021-03-13T11:41:23.000Z</Time>
            <Position>
              <LatitudeDegrees>36.71312975697219371795654296875</LatitudeDegrees>
              <LongitudeDegrees>-4.23239775002002716064453125</LongitudeDegrees>
            </Position>
            <AltitudeMeters>8.80000019073486328125</AltitudeMeters>
            <DistanceMeters>88240.282562231</DistanceMeters>
          </Trackpoint>
          <Trackpoint>
            <Time>2021-03-13T11:41:29.000Z</Time>
            <Position>
              <LatitudeDegrees>36.7130854167044162750244140625</LatitudeDegrees>
              <LongitudeDegrees>-4.23306033946573734283447265625</LongitudeDegrees>
            </Position>
            <AltitudeMeters>9.19999980926513671875</AltitudeMeters>
            <DistanceMeters>88299.607093864</DistanceMeters>
          </Trackpoint>
          <Trackpoint>
            <Time>2021-03-13T11:41:30.000Z</Time>
            <Position>
              <LatitudeDegrees>36.713076196610927581787109375</LatitudeDegrees>
              <LongitudeDegrees>-4.23317919485270977020263671875</LongitudeDegrees>
            </Position>
            <AltitudeMeters>9.19999980926513671875</AltitudeMeters>
            <DistanceMeters>88310.26111005</DistanceMeters>
          </Trackpoint>
          <Trackpoint>
            <Time>2021-03-13T11:41:36.000Z</Time>
            <Position>
              <LatitudeDegrees>36.71303034760057926177978515625</LatitudeDegrees>
              <LongitudeDegrees>-4.23391881398856639862060546875</LongitudeDegrees>
            </Position>
            <AltitudeMeters>8.6000003814697265625</AltitudeMeters>
            <DistanceMeters>88376.449859977</DistanceMeters>
          </Trackpoint>
          <Trackpoint>
            <Time>2021-03-13T11:41:37.000Z</Time>
            <Position>
              <LatitudeDegrees>36.7130230553448200225830078125</LatitudeDegrees>
              <LongitudeDegrees>-4.2340427823364734649658203125</LongitudeDegrees>
            </Position>
            <AltitudeMeters>8.6000003814697265625</AltitudeMeters>
            <DistanceMeters>88387.540336578</DistanceMeters>
          </Trackpoint>
          <Trackpoint>
            <Time>2021-03-13T11:41:43.000Z</Time>
            <Position>
              <LatitudeDegrees>36.7129650525748729705810546875</LatitudeDegrees>
              <LongitudeDegrees>-4.234810061752796173095703125</LongitudeDegrees>
            </Position>
            <AltitudeMeters>8.19999980926513671875</AltitudeMeters>
            <DistanceMeters>88456.303967871</DistanceMeters>
          </Trackpoint>
          <Trackpoint>
            <Time>2021-03-13T11:41:44.000Z</Time>
            <Position>
              <LatitudeDegrees>36.71295809559524059295654296875</LatitudeDegrees>
              <LongitudeDegrees>-4.23493377864360809326171875</LongitudeDegrees>
            </Position>
            <AltitudeMeters>8</AltitudeMeters>
            <DistanceMeters>88467.369582927</DistanceMeters>
          </Trackpoint>
          <Trackpoint>
            <Time>2021-03-13T11:41:48.000Z</Time>
            <Position>
              <LatitudeDegrees>36.71292490325868129730224609375</LatitudeDegrees>
              <LongitudeDegrees>-4.23541313968598842620849609375</LongitudeDegrees>
            </Position>
            <AltitudeMeters>7.400000095367431640625</AltitudeMeters>
            <DistanceMeters>88510.299367013</DistanceMeters>
          </Trackpoint>
          <Trackpoint>
            <Time>2021-03-13T11:41:50.000Z</Time>
            <Position>
              <LatitudeDegrees>36.7129130847752094268798828125</LatitudeDegrees>
              <LongitudeDegrees>-4.23564263619482517242431640625</LongitudeDegrees>
            </Position>
            <AltitudeMeters>7.19999980926513671875</AltitudeMeters>
            <DistanceMeters>88530.818317137</DistanceMeters>
          </Trackpoint>
          <Trackpoint>
            <Time>2021-03-13T11:41:56.000Z</Time>
            <Position>
              <LatitudeDegrees>36.7128705047070980072021484375</LatitudeDegrees>
              <LongitudeDegrees>-4.23636012710630893707275390625</LongitudeDegrees>
            </Position>
            <AltitudeMeters>6.80000019073486328125</AltitudeMeters>
            <DistanceMeters>88595.011095889</DistanceMeters>
          </Trackpoint>
          <Trackpoint>
            <Time>2021-03-13T11:41:58.000Z</Time>
            <Position>
              <LatitudeDegrees>36.71285918913781642913818359375</LatitudeDegrees>
              <LongitudeDegrees>-4.2365999333560466766357421875</LongitudeDegrees>
            </Position>
            <AltitudeMeters>7</AltitudeMeters>
            <DistanceMeters>88616.444623573</DistanceMeters>
          </Trackpoint>
          <Trackpoint>
            <Time>2021-03-13T11:42:04.000Z</Time>
            <Position>
              <LatitudeDegrees>36.71281225048005580902099609375</LatitudeDegrees>
              <LongitudeDegrees>-4.2373578250408172607421875</LongitudeDegrees>
            </Position>
            <AltitudeMeters>6.80000019073486328125</AltitudeMeters>
            <DistanceMeters>88684.268538839</DistanceMeters>
          </Trackpoint>
          <Trackpoint>
            <Time>2021-03-13T11:42:06.000Z</Time>
            <Position>
              <LatitudeDegrees>36.71279531903564929962158203125</LatitudeDegrees>
              <LongitudeDegrees>-4.23760400153696537017822265625</LongitudeDegrees>
            </Position>
            <AltitudeMeters>6.80000019073486328125</AltitudeMeters>
            <DistanceMeters>88706.314326971</DistanceMeters>
          </Trackpoint>
          <Trackpoint>
            <Time>2021-03-13T11:42:12.000Z</Time>
            <Position>
              <LatitudeDegrees>36.71275190077722072601318359375</LatitudeDegrees>
              <LongitudeDegrees>-4.23835049383342266082763671875</LongitudeDegrees>
            </Position>
            <AltitudeMeters>7</AltitudeMeters>
            <DistanceMeters>88773.094785737</DistanceMeters>
          </Trackpoint>
          <Trackpoint>
            <Time>2021-03-13T11:42:15.000Z</Time>
            <Position>
              <LatitudeDegrees>36.7127310298383235931396484375</LatitudeDegrees>
              <LongitudeDegrees>-4.23872365616261959075927734375</LongitudeDegrees>
            </Position>
            <AltitudeMeters>7.19999980926513671875</AltitudeMeters>
            <DistanceMeters>88806.470949241</DistanceMeters>
          </Trackpoint>
          <Trackpoint>
            <Time>2021-03-13T11:42:21.000Z</Time>
            <Position>
              <LatitudeDegrees>36.71267889440059661865234375</LatitudeDegrees>
              <LongitudeDegrees>-4.23948624171316623687744140625</LongitudeDegrees>
            </Position>
            <AltitudeMeters>7.599999904632568359375</AltitudeMeters>
            <DistanceMeters>88874.759264619</DistanceMeters>
          </Trackpoint>
          <Trackpoint>
            <Time>2021-03-13T11:42:25.000Z</Time>
            <Position>
              <LatitudeDegrees>36.71264930628240108489990234375</LatitudeDegrees>
              <LongitudeDegrees>-4.23998328857123851776123046875</LongitudeDegrees>
            </Position>
            <AltitudeMeters>7.80000019073486328125</AltitudeMeters>
            <DistanceMeters>88919.230142526</DistanceMeters>
          </Trackpoint>
          <Trackpoint>
            <Time>2021-03-13T11:42:31.000Z</Time>
            <Position>
              <LatitudeDegrees>36.71261695213615894317626953125</LatitudeDegrees>
              <LongitudeDegrees>-4.2406882904469966888427734375</LongitudeDegrees>
            </Position>
            <AltitudeMeters>8</AltitudeMeters>
            <DistanceMeters>88982.236652241</DistanceMeters>
          </Trackpoint>
          <Trackpoint>
            <Time>2021-03-13T11:42:33.000Z</Time>
            <Position>
              <LatitudeDegrees>36.7126058042049407958984375</LatitudeDegrees>
              <LongitudeDegrees>-4.240917451679706573486328125</LongitudeDegrees>
            </Position>
            <AltitudeMeters>8</AltitudeMeters>
            <DistanceMeters>89002.721026583</DistanceMeters>
          </Trackpoint>
          <Trackpoint>
            <Time>2021-03-13T11:42:39.000Z</Time>
            <Position>
              <LatitudeDegrees>36.71256716363131999969482421875</LatitudeDegrees>
              <LongitudeDegrees>-4.241616837680339813232421875</LongitudeDegrees>
            </Position>
            <AltitudeMeters>8</AltitudeMeters>
            <DistanceMeters>89065.271490624</DistanceMeters>
          </Trackpoint>
          <Trackpoint>
            <Time>2021-03-13T11:42:40.000Z</Time>
            <Position>
              <LatitudeDegrees>36.71256230212748050689697265625</LatitudeDegrees>
              <LongitudeDegrees>-4.24173451960086822509765625</LongitudeDegrees>
            </Position>
            <AltitudeMeters>8.19999980926513671875</AltitudeMeters>
            <DistanceMeters>89075.785585727</DistanceMeters>
          </Trackpoint>
          <Trackpoint>
            <Time>2021-03-13T11:42:42.000Z</Time>
            <Position>
              <LatitudeDegrees>36.71254889108240604400634765625</LatitudeDegrees>
              <LongitudeDegrees>-4.241976924240589141845703125</LongitudeDegrees>
            </Position>
            <AltitudeMeters>8.3999996185302734375</AltitudeMeters>
            <DistanceMeters>89097.465217846</DistanceMeters>
          </Trackpoint>
          <Trackpoint>
            <Time>2021-03-13T11:42:48.000Z</Time>
            <Position>
              <LatitudeDegrees>36.71250932849943637847900390625</LatitudeDegrees>
              <LongitudeDegrees>-4.24271545372903347015380859375</LongitudeDegrees>
            </Position>
            <AltitudeMeters>8</AltitudeMeters>
            <DistanceMeters>89163.507280297</DistanceMeters>
          </Trackpoint>
          <Trackpoint>
            <Time>2021-03-13T11:42:49.000Z</Time>
            <Position>
              <LatitudeDegrees>36.712502203881740570068359375</LatitudeDegrees>
              <LongitudeDegrees>-4.242835231125354766845703125</LongitudeDegrees>
            </Position>
            <AltitudeMeters>8</AltitudeMeters>
            <DistanceMeters>89174.223833484</DistanceMeters>
          </Trackpoint>
          <Trackpoint>
            <Time>2021-03-13T11:42:52.000Z</Time>
            <Position>
              <LatitudeDegrees>36.7124770581722259521484375</LatitudeDegrees>
              <LongitudeDegrees>-4.24319204874336719512939453125</LongitudeDegrees>
            </Position>
            <AltitudeMeters>7.599999904632568359375</AltitudeMeters>
            <DistanceMeters>89206.183621764</DistanceMeters>
          </Trackpoint>
          <Trackpoint>
            <Time>2021-03-13T11:42:55.000Z</Time>
            <Position>
              <LatitudeDegrees>36.7124540917575359344482421875</LatitudeDegrees>
              <LongitudeDegrees>-4.243529252707958221435546875</LongitudeDegrees>
            </Position>
            <AltitudeMeters>7.19999980926513671875</AltitudeMeters>
            <DistanceMeters>89236.378949026</DistanceMeters>
          </Trackpoint>
          <Trackpoint>
            <Time>2021-03-13T11:42:56.000Z</Time>
            <Position>
              <LatitudeDegrees>36.71244881115853786468505859375</LatitudeDegrees>
              <LongitudeDegrees>-4.243635199964046478271484375</LongitudeDegrees>
            </Position>
            <AltitudeMeters>7.19999980926513671875</AltitudeMeters>
            <DistanceMeters>89245.850209734</DistanceMeters>
          </Trackpoint>
          <Trackpoint>
            <Time>2021-03-13T11:43:01.000Z</Time>
            <Position>
              <LatitudeDegrees>36.71242802403867244720458984375</LatitudeDegrees>
              <LongitudeDegrees>-4.24406862817704677581787109375</LongitudeDegrees>
            </Position>
            <AltitudeMeters>7.19999980926513671875</AltitudeMeters>
            <DistanceMeters>89284.591868139</DistanceMeters>
          </Trackpoint>
          <Trackpoint>
            <Time>2021-03-13T11:43:05.000Z</Time>
            <Position>
              <LatitudeDegrees>36.71242232434451580047607421875</LatitudeDegrees>
              <LongitudeDegrees>-4.2443297244608402252197265625</LongitudeDegrees>
            </Position>
            <AltitudeMeters>7</AltitudeMeters>
            <DistanceMeters>89307.896867126</DistanceMeters>
          </Trackpoint>
          <Trackpoint>
            <Time>2021-03-13T11:43:07.000Z</Time>
            <Position>
              <LatitudeDegrees>36.7124473862349987030029296875</LatitudeDegrees>
              <LongitudeDegrees>-4.2444598115980625152587890625</LongitudeDegrees>
            </Position>
            <AltitudeMeters>7.19999980926513671875</AltitudeMeters>
            <DistanceMeters>89319.834355822</DistanceMeters>
          </Trackpoint>
          <Trackpoint>
            <Time>2021-03-13T11:43:09.000Z</Time>
            <Position>
              <LatitudeDegrees>36.7124745436012744903564453125</LatitudeDegrees>
              <LongitudeDegrees>-4.24459266476333141326904296875</LongitudeDegrees>
            </Position>
            <AltitudeMeters>7.400000095367431640625</AltitudeMeters>
            <DistanceMeters>89332.068099606</DistanceMeters>
          </Trackpoint>
          <Trackpoint>
            <Time>2021-03-13T11:43:10.000Z</Time>
            <Position>
              <LatitudeDegrees>36.71246607787907123565673828125</LatitudeDegrees>
              <LongitudeDegrees>-4.2446606419980525970458984375</LongitudeDegrees>
            </Position>
            <AltitudeMeters>7.400000095367431640625</AltitudeMeters>
            <DistanceMeters>89338.206707673</DistanceMeters>
          </Trackpoint>
          <Trackpoint>
            <Time>2021-03-13T11:43:11.000Z</Time>
            <Position>
              <LatitudeDegrees>36.71244294382631778717041015625</LatitudeDegrees>
              <LongitudeDegrees>-4.2447246797382831573486328125</LongitudeDegrees>
            </Position>
            <AltitudeMeters>7.400000095367431640625</AltitudeMeters>
            <DistanceMeters>89344.4734295</DistanceMeters>
          </Trackpoint>
          <Trackpoint>
            <Time>2021-03-13T11:43:14.000Z</Time>
            <Position>
              <LatitudeDegrees>36.71238192357122898101806640625</LatitudeDegrees>
              <LongitudeDegrees>-4.2449114285409450531005859375</LongitudeDegrees>
            </Position>
            <AltitudeMeters>7.400000095367431640625</AltitudeMeters>
            <DistanceMeters>89362.466882777</DistanceMeters>
          </Trackpoint>
          <Trackpoint>
            <Time>2021-03-13T11:43:17.000Z</Time>
            <Position>
              <LatitudeDegrees>36.71237454749643802642822265625</LatitudeDegrees>
              <LongitudeDegrees>-4.24504570662975311279296875</LongitudeDegrees>
            </Position>
            <AltitudeMeters>7.400000095367431640625</AltitudeMeters>
            <DistanceMeters>89374.47639488</DistanceMeters>
          </Trackpoint>
          <Trackpoint>
            <Time>2021-03-13T11:43:22.000Z</Time>
            <Position>
              <LatitudeDegrees>36.71234923414885997772216796875</LatitudeDegrees>
              <LongitudeDegrees>-4.24535793252289295196533203125</LongitudeDegrees>
            </Position>
            <AltitudeMeters>7.400000095367431640625</AltitudeMeters>
            <DistanceMeters>89402.476722148</DistanceMeters>
          </Trackpoint>
          <Trackpoint>
            <Time>2021-03-13T11:43:25.000Z</Time>
            <Position>
              <LatitudeDegrees>36.7123333923518657684326171875</LatitudeDegrees>
              <LongitudeDegrees>-4.2455896921455860137939453125</LongitudeDegrees>
            </Position>
            <AltitudeMeters>7.400000095367431640625</AltitudeMeters>
            <DistanceMeters>89423.230434737</DistanceMeters>
          </Trackpoint>
          <Trackpoint>
            <Time>2021-03-13T11:43:27.000Z</Time>
            <Position>
              <LatitudeDegrees>36.71232542954385280609130859375</LatitudeDegrees>
              <LongitudeDegrees>-4.2457533068954944610595703125</LongitudeDegrees>
            </Position>
            <AltitudeMeters>7.400000095367431640625</AltitudeMeters>
            <DistanceMeters>89437.855907406</DistanceMeters>
          </Trackpoint>
          <Trackpoint>
            <Time>2021-03-13T11:43:32.000Z</Time>
            <Position>
              <LatitudeDegrees>36.71230078674852848052978515625</LatitudeDegrees>
              <LongitudeDegrees>-4.24619277007877826690673828125</LongitudeDegrees>
            </Position>
            <AltitudeMeters>8</AltitudeMeters>
            <DistanceMeters>89477.162751841</DistanceMeters>
          </Trackpoint>
          <Trackpoint>
            <Time>2021-03-13T11:43:34.000Z</Time>
            <Position>
              <LatitudeDegrees>36.7122888006269931793212890625</LatitudeDegrees>
              <LongitudeDegrees>-4.24637901596724987030029296875</LongitudeDegrees>
            </Position>
            <AltitudeMeters>8.19999980926513671875</AltitudeMeters>
            <DistanceMeters>89493.833915352</DistanceMeters>
          </Trackpoint>
          <Trackpoint>
            <Time>2021-03-13T11:43:35.000Z</Time>
            <Position>
              <LatitudeDegrees>36.71228284947574138641357421875</LatitudeDegrees>
              <LongitudeDegrees>-4.24647130072116851806640625</LongitudeDegrees>
            </Position>
            <AltitudeMeters>8.3999996185302734375</AltitudeMeters>
            <DistanceMeters>89502.094683336</DistanceMeters>
          </Trackpoint>
          <Trackpoint>
            <Time>2021-03-13T11:43:39.000Z</Time>
            <Position>
              <LatitudeDegrees>36.71225384809076786041259765625</LatitudeDegrees>
              <LongitudeDegrees>-4.24684152938425540924072265625</LongitudeDegrees>
            </Position>
            <AltitudeMeters>8.80000019073486328125</AltitudeMeters>
            <DistanceMeters>89535.285815676</DistanceMeters>
          </Trackpoint>
          <Trackpoint>
            <Time>2021-03-13T11:43:44.000Z</Time>
            <Position>
              <LatitudeDegrees>36.71221612952649593353271484375</LatitudeDegrees>
              <LongitudeDegrees>-4.2473143525421619415283203125</LongitudeDegrees>
            </Position>
            <AltitudeMeters>9</AltitudeMeters>
            <DistanceMeters>89577.681790202</DistanceMeters>
          </Trackpoint>
          <Trackpoint>
            <Time>2021-03-13T11:43:45.000Z</Time>
            <Position>
              <LatitudeDegrees>36.71220950782299041748046875</LatitudeDegrees>
              <LongitudeDegrees>-4.2474343813955783843994140625</LongitudeDegrees>
            </Position>
            <AltitudeMeters>9.19999980926513671875</AltitudeMeters>
            <DistanceMeters>89588.416865217</DistanceMeters>
          </Trackpoint>
          <Trackpoint>
            <Time>2021-03-13T11:43:48.000Z</Time>
            <Position>
              <LatitudeDegrees>36.7121945880353450775146484375</LatitudeDegrees>
              <LongitudeDegrees>-4.24772925674915313720703125</LongitudeDegrees>
            </Position>
            <AltitudeMeters>9.80000019073486328125</AltitudeMeters>
            <DistanceMeters>89614.779543446</DistanceMeters>
          </Trackpoint>
          <Trackpoint>
            <Time>2021-03-13T11:43:52.000Z</Time>
            <Position>
              <LatitudeDegrees>36.71217405237257480621337890625</LatitudeDegrees>
              <LongitudeDegrees>-4.24811976961791515350341796875</LongitudeDegrees>
            </Position>
            <AltitudeMeters>10.80000019073486328125</AltitudeMeters>
            <DistanceMeters>89649.697949795</DistanceMeters>
          </Trackpoint>
          <Trackpoint>
            <Time>2021-03-13T11:43:55.000Z</Time>
            <Position>
              <LatitudeDegrees>36.71216047368943691253662109375</LatitudeDegrees>
              <LongitudeDegrees>-4.248457141220569610595703125</LongitudeDegrees>
            </Position>
            <AltitudeMeters>11</AltitudeMeters>
            <DistanceMeters>89679.838050828</DistanceMeters>
          </Trackpoint>
          <Trackpoint>
            <Time>2021-03-13T11:43:58.000Z</Time>
            <Position>
              <LatitudeDegrees>36.7121442966163158416748046875</LatitudeDegrees>
              <LongitudeDegrees>-4.24876534380018711090087890625</LongitudeDegrees>
            </Position>
            <AltitudeMeters>11.19999980926513671875</AltitudeMeters>
            <DistanceMeters>89707.396289508</DistanceMeters>
          </Trackpoint>
          <Trackpoint>
            <Time>2021-03-13T11:44:04.000Z</Time>
            <Position>
              <LatitudeDegrees>36.71209819614887237548828125</LatitudeDegrees>
              <LongitudeDegrees>-4.24948451109230518341064453125</LongitudeDegrees>
            </Position>
            <AltitudeMeters>11.19999980926513671875</AltitudeMeters>
            <DistanceMeters>89771.768875595</DistanceMeters>
          </Trackpoint>
          <Trackpoint>
            <Time>2021-03-13T11:44:06.000Z</Time>
            <Position>
              <LatitudeDegrees>36.7120849527418613433837890625</LatitudeDegrees>
              <LongitudeDegrees>-4.249714426696300506591796875</LongitudeDegrees>
            </Position>
            <AltitudeMeters>11</AltitudeMeters>
            <DistanceMeters>89792.336178068</DistanceMeters>
          </Trackpoint>
          <Trackpoint>
            <Time>2021-03-13T11:44:12.000Z</Time>
            <Position>
              <LatitudeDegrees>36.71204413287341594696044921875</LatitudeDegrees>
              <LongitudeDegrees>-4.25040685571730136871337890625</LongitudeDegrees>
            </Position>
            <AltitudeMeters>10.19999980926513671875</AltitudeMeters>
            <DistanceMeters>89854.285141964</DistanceMeters>
          </Trackpoint>
          <Trackpoint>
            <Time>2021-03-13T11:44:14.000Z</Time>
            <Position>
              <LatitudeDegrees>36.7120344936847686767578125</LatitudeDegrees>
              <LongitudeDegrees>-4.2506459914147853851318359375</LongitudeDegrees>
            </Position>
            <AltitudeMeters>9.6000003814697265625</AltitudeMeters>
            <DistanceMeters>89875.649041042</DistanceMeters>
          </Trackpoint>
          <Trackpoint>
            <Time>2021-03-13T11:44:15.000Z</Time>
            <Position>
              <LatitudeDegrees>36.7120279558002948760986328125</LatitudeDegrees>
              <LongitudeDegrees>-4.25076493062078952789306640625</LongitudeDegrees>
            </Position>
            <AltitudeMeters>9.19999980926513671875</AltitudeMeters>
            <DistanceMeters>89886.286092223</DistanceMeters>
          </Trackpoint>
          <Trackpoint>
            <Time>2021-03-13T11:44:20.000Z</Time>
            <Position>
              <LatitudeDegrees>36.7119927518069744110107421875</LatitudeDegrees>
              <LongitudeDegrees>-4.25136339850723743438720703125</LongitudeDegrees>
            </Position>
            <AltitudeMeters>8.6000003814697265625</AltitudeMeters>
            <DistanceMeters>89939.82814372</DistanceMeters>
          </Trackpoint>
          <Trackpoint>
            <Time>2021-03-13T11:44:24.000Z</Time>
            <Position>
              <LatitudeDegrees>36.711966097354888916015625</LatitudeDegrees>
              <LongitudeDegrees>-4.2518417537212371826171875</LongitudeDegrees>
            </Position>
            <AltitudeMeters>7.599999904632568359375</AltitudeMeters>
            <DistanceMeters>89982.612437871</DistanceMeters>
          </Trackpoint>
          <Trackpoint>
            <Time>2021-03-13T11:44:25.000Z</Time>
            <Position>
              <LatitudeDegrees>36.71196006238460540771484375</LatitudeDegrees>
              <LongitudeDegrees>-4.25195968709886074066162109375</LongitudeDegrees>
            </Position>
            <AltitudeMeters>7.400000095367431640625</AltitudeMeters>
            <DistanceMeters>89993.156550028</DistanceMeters>
          </Trackpoint>
          <Trackpoint>
            <Time>2021-03-13T11:44:31.000Z</Time>
            <Position>
              <LatitudeDegrees>36.71192175708711147308349609375</LatitudeDegrees>
              <LongitudeDegrees>-4.252632670104503631591796875</LongitudeDegrees>
            </Position>
            <AltitudeMeters>6.80000019073486328125</AltitudeMeters>
            <DistanceMeters>90053.3548298</DistanceMeters>
          </Trackpoint>
          <Trackpoint>
            <Time>2021-03-13T11:44:33.000Z</Time>
            <Position>
              <LatitudeDegrees>36.7119112797081470489501953125</LatitudeDegrees>
              <LongitudeDegrees>-4.25287549383938312530517578125</LongitudeDegrees>
            </Position>
            <AltitudeMeters>6.80000019073486328125</AltitudeMeters>
            <DistanceMeters>90075.052156947</DistanceMeters>
          </Trackpoint>
          <Trackpoint>
            <Time>2021-03-13T11:44:40.000Z</Time>
            <Position>
              <LatitudeDegrees>36.7118723876774311065673828125</LatitudeDegrees>
              <LongitudeDegrees>-4.25364126451313495635986328125</LongitudeDegrees>
            </Position>
            <AltitudeMeters>7.19999980926513671875</AltitudeMeters>
            <DistanceMeters>90143.515327043</DistanceMeters>
          </Trackpoint>
          <Trackpoint>
            <Time>2021-03-13T11:44:45.000Z</Time>
            <Position>
              <LatitudeDegrees>36.7118435539305210113525390625</LatitudeDegrees>
              <LongitudeDegrees>-4.254130013287067413330078125</LongitudeDegrees>
            </Position>
            <AltitudeMeters>7.599999904632568359375</AltitudeMeters>
            <DistanceMeters>90187.242073849</DistanceMeters>
          </Trackpoint>
          <Trackpoint>
            <Time>2021-03-13T11:44:49.000Z</Time>
            <Position>
              <LatitudeDegrees>36.71184514649212360382080078125</LatitudeDegrees>
              <LongitudeDegrees>-4.2544490285217761993408203125</LongitudeDegrees>
            </Position>
            <AltitudeMeters>7.599999904632568359375</AltitudeMeters>
            <DistanceMeters>90215.706976785</DistanceMeters>
          </Trackpoint>
          <Trackpoint>
            <Time>2021-03-13T11:44:50.000Z</Time>
            <Position>
              <LatitudeDegrees>36.71185771934688091278076171875</LatitudeDegrees>
              <LongitudeDegrees>-4.25452404655516147613525390625</LongitudeDegrees>
            </Position>
            <AltitudeMeters>7.599999904632568359375</AltitudeMeters>
            <DistanceMeters>90222.545599885</DistanceMeters>
          </Trackpoint>
          <Trackpoint>
            <Time>2021-03-13T11:44:51.000Z</Time>
            <Position>
              <LatitudeDegrees>36.7118743993341922760009765625</LatitudeDegrees>
              <LongitudeDegrees>-4.25458037294447422027587890625</LongitudeDegrees>
            </Position>
            <AltitudeMeters>7.599999904632568359375</AltitudeMeters>
            <DistanceMeters>90227.902612386</DistanceMeters>
          </Trackpoint>
          <Trackpoint>
            <Time>2021-03-13T11:44:53.000Z</Time>
            <Position>
              <LatitudeDegrees>36.71190180815756320953369140625</LatitudeDegrees>
              <LongitudeDegrees>-4.2547494359314441680908203125</LongitudeDegrees>
            </Position>
            <AltitudeMeters>7.400000095367431640625</AltitudeMeters>
            <DistanceMeters>90243.292833474</DistanceMeters>
          </Trackpoint>
          <Trackpoint>
            <Time>2021-03-13T11:44:54.000Z</Time>
            <Position>
              <LatitudeDegrees>36.71188822947442531585693359375</LatitudeDegrees>
              <LongitudeDegrees>-4.2548295669257640838623046875</LongitudeDegrees>
            </Position>
            <AltitudeMeters>7.400000095367431640625</AltitudeMeters>
            <DistanceMeters>90250.600010905</DistanceMeters>
          </Trackpoint>
          <Trackpoint>
            <Time>2021-03-13T11:45:00.000Z</Time>
            <Position>
              <LatitudeDegrees>36.71181379817426204681396484375</LatitudeDegrees>
              <LongitudeDegrees>-4.255341701209545135498046875</LongitudeDegrees>
            </Position>
            <AltitudeMeters>7.400000095367431640625</AltitudeMeters>
            <DistanceMeters>90297.040374142</DistanceMeters>
          </Trackpoint>
          <Trackpoint>
            <Time>2021-03-13T11:45:07.000Z</Time>
            <Position>
              <LatitudeDegrees>36.71179871074855327606201171875</LatitudeDegrees>
              <LongitudeDegrees>-4.256081990897655487060546875</LongitudeDegrees>
            </Position>
            <AltitudeMeters>7</AltitudeMeters>
            <DistanceMeters>90363.114492514</DistanceMeters>
          </Trackpoint>
          <Trackpoint>
            <Time>2021-03-13T11:45:12.000Z</Time>
            <Position>
              <LatitudeDegrees>36.71179510653018951416015625</LatitudeDegrees>
              <LongitudeDegrees>-4.25664869137108325958251953125</LongitudeDegrees>
            </Position>
            <AltitudeMeters>6.80000019073486328125</AltitudeMeters>
            <DistanceMeters>90413.680313632</DistanceMeters>
          </Trackpoint>
          <Trackpoint>
            <Time>2021-03-13T11:45:13.000Z</Time>
            <Position>
              <LatitudeDegrees>36.71179871074855327606201171875</LatitudeDegrees>
              <LongitudeDegrees>-4.2567922733724117279052734375</LongitudeDegrees>
            </Position>
            <AltitudeMeters>6.80000019073486328125</AltitudeMeters>
            <DistanceMeters>90426.498004954</DistanceMeters>
          </Trackpoint>
          <Trackpoint>
            <Time>2021-03-13T11:45:17.000Z</Time>
            <Position>
              <LatitudeDegrees>36.71182134188711643218994140625</LatitudeDegrees>
              <LongitudeDegrees>-4.2572445608675479888916015625</LongitudeDegrees>
            </Position>
            <AltitudeMeters>6.400000095367431640625</AltitudeMeters>
            <DistanceMeters>90466.932067332</DistanceMeters>
          </Trackpoint>
          <Trackpoint>
            <Time>2021-03-13T11:45:21.000Z</Time>
            <Position>
              <LatitudeDegrees>36.71185922808945178985595703125</LatitudeDegrees>
              <LongitudeDegrees>-4.25771243870258331298828125</LongitudeDegrees>
            </Position>
            <AltitudeMeters>6.400000095367431640625</AltitudeMeters>
            <DistanceMeters>90508.89106975</DistanceMeters>
          </Trackpoint>
          <Trackpoint>
            <Time>2021-03-13T11:45:27.000Z</Time>
            <Position>
              <LatitudeDegrees>36.71193055808544158935546875</LatitudeDegrees>
              <LongitudeDegrees>-4.2583861760795116424560546875</LongitudeDegrees>
            </Position>
            <AltitudeMeters>6.19999980926513671875</AltitudeMeters>
            <DistanceMeters>90569.527496308</DistanceMeters>
          </Trackpoint>
          <Trackpoint>
            <Time>2021-03-13T11:45:31.000Z</Time>
            <Position>
              <LatitudeDegrees>36.71198143623769283294677734375</LatitudeDegrees>
              <LongitudeDegrees>-4.25877668894827365875244140625</LongitudeDegrees>
            </Position>
            <AltitudeMeters>6.19999980926513671875</AltitudeMeters>
            <DistanceMeters>90604.828353936</DistanceMeters>
          </Trackpoint>
          <Trackpoint>
            <Time>2021-03-13T11:45:37.000Z</Time>
            <Position>
              <LatitudeDegrees>36.71207296662032604217529296875</LatitudeDegrees>
              <LongitudeDegrees>-4.25935202278196811676025390625</LongitudeDegrees>
            </Position>
            <AltitudeMeters>5.80000019073486328125</AltitudeMeters>
            <DistanceMeters>90657.163750724</DistanceMeters>
          </Trackpoint>
          <Trackpoint>
            <Time>2021-03-13T11:45:44.000Z</Time>
            <Position>
              <LatitudeDegrees>36.71216399408876895904541015625</LatitudeDegrees>
              <LongitudeDegrees>-4.26007680594921112060546875</LongitudeDegrees>
            </Position>
            <AltitudeMeters>5.400000095367431640625</AltitudeMeters>
            <DistanceMeters>90722.621501161</DistanceMeters>
          </Trackpoint>
          <Trackpoint>
            <Time>2021-03-13T11:45:45.000Z</Time>
            <Position>
              <LatitudeDegrees>36.71217455528676509857177734375</LatitudeDegrees>
              <LongitudeDegrees>-4.260162301361560821533203125</LongitudeDegrees>
            </Position>
            <AltitudeMeters>5.400000095367431640625</AltitudeMeters>
            <DistanceMeters>90730.340338144</DistanceMeters>
          </Trackpoint>
          <Trackpoint>
            <Time>2021-03-13T11:45:52.000Z</Time>
            <Position>
              <LatitudeDegrees>36.7122609727084636688232421875</LatitudeDegrees>
              <LongitudeDegrees>-4.2608870007097721099853515625</LongitudeDegrees>
            </Position>
            <AltitudeMeters>5.400000095367431640625</AltitudeMeters>
            <DistanceMeters>90795.713123522</DistanceMeters>
          </Trackpoint>
          <Trackpoint>
            <Time>2021-03-13T11:45:58.000Z</Time>
            <Position>
              <LatitudeDegrees>36.7123400978744029998779296875</LatitudeDegrees>
              <LongitudeDegrees>-4.26152662374079227447509765625</LongitudeDegrees>
            </Position>
            <AltitudeMeters>5.80000019073486328125</AltitudeMeters>
            <DistanceMeters>90853.458880499</DistanceMeters>
          </Trackpoint>
          <Trackpoint>
            <Time>2021-03-13T11:46:02.000Z</Time>
            <Position>
              <LatitudeDegrees>36.712388880550861358642578125</LatitudeDegrees>
              <LongitudeDegrees>-4.26191571168601512908935546875</LongitudeDegrees>
            </Position>
            <AltitudeMeters>5.599999904632568359375</AltitudeMeters>
            <DistanceMeters>90888.597056067</DistanceMeters>
          </Trackpoint>
          <Trackpoint>
            <Time>2021-03-13T11:46:08.000Z</Time>
            <Position>
              <LatitudeDegrees>36.71245903708040714263916015625</LatitudeDegrees>
              <LongitudeDegrees>-4.26256044767796993255615234375</LongitudeDegrees>
            </Position>
            <AltitudeMeters>6.19999980926513671875</AltitudeMeters>
            <DistanceMeters>90946.650990567</DistanceMeters>
          </Trackpoint>
          <Trackpoint>
            <Time>2021-03-13T11:46:09.000Z</Time>
            <Position>
              <LatitudeDegrees>36.7124701850116252899169921875</LatitudeDegrees>
              <LongitudeDegrees>-4.26266388036310672760009765625</LongitudeDegrees>
            </Position>
            <AltitudeMeters>6.19999980926513671875</AltitudeMeters>
            <DistanceMeters>90955.962638864</DistanceMeters>
          </Trackpoint>
          <Trackpoint>
            <Time>2021-03-13T11:46:16.000Z</Time>
            <Position>
              <LatitudeDegrees>36.71254612505435943603515625</LatitudeDegrees>
              <LongitudeDegrees>-4.2633613385260105133056640625</LongitudeDegrees>
            </Position>
            <AltitudeMeters>6</AltitudeMeters>
            <DistanceMeters>91018.76444209</DistanceMeters>
          </Trackpoint>
          <Trackpoint>
            <Time>2021-03-13T11:46:17.000Z</Time>
            <Position>
              <LatitudeDegrees>36.71255878172814846038818359375</LatitudeDegrees>
              <LongitudeDegrees>-4.26346468739211559295654296875</LongitudeDegrees>
            </Position>
            <AltitudeMeters>6</AltitudeMeters>
            <DistanceMeters>91028.093045774</DistanceMeters>
          </Trackpoint>
          <Trackpoint>
            <Time>2021-03-13T11:46:23.000Z</Time>
            <Position>
              <LatitudeDegrees>36.7126405052840709686279296875</LatitudeDegrees>
              <LongitudeDegrees>-4.26407388411462306976318359375</LongitudeDegrees>
            </Position>
            <AltitudeMeters>6</AltitudeMeters>
            <DistanceMeters>91083.204280126</DistanceMeters>
          </Trackpoint>
          <Trackpoint>
            <Time>2021-03-13T11:46:24.000Z</Time>
            <Position>
              <LatitudeDegrees>36.7126540839672088623046875</LatitudeDegrees>
              <LongitudeDegrees>-4.26416910253465175628662109375</LongitudeDegrees>
            </Position>
            <AltitudeMeters>6</AltitudeMeters>
            <DistanceMeters>91091.833417415</DistanceMeters>
          </Trackpoint>
          <Trackpoint>
            <Time>2021-03-13T11:46:32.000Z</Time>
            <Position>
              <LatitudeDegrees>36.712734885513782501220703125</LatitudeDegrees>
              <LongitudeDegrees>-4.26488994620740413665771484375</LongitudeDegrees>
            </Position>
            <AltitudeMeters>6.19999980926513671875</AltitudeMeters>
            <DistanceMeters>91156.775956044</DistanceMeters>
          </Trackpoint>
          <Trackpoint>
            <Time>2021-03-13T11:46:33.000Z</Time>
            <Position>
              <LatitudeDegrees>36.71274720691144466400146484375</LatitudeDegrees>
              <LongitudeDegrees>-4.26499673165380954742431640625</LongitudeDegrees>
            </Position>
            <AltitudeMeters>6</AltitudeMeters>
            <DistanceMeters>91166.402307609</DistanceMeters>
          </Trackpoint>
          <Trackpoint>
            <Time>2021-03-13T11:46:40.000Z</Time>
            <Position>
              <LatitudeDegrees>36.71283069066703319549560546875</LatitudeDegrees>
              <LongitudeDegrees>-4.26559687592089176177978515625</LongitudeDegrees>
            </Position>
            <AltitudeMeters>6</AltitudeMeters>
            <DistanceMeters>91220.749945683</DistanceMeters>
          </Trackpoint>
          <Trackpoint>
            <Time>2021-03-13T11:46:48.000Z</Time>
            <Position>
              <LatitudeDegrees>36.712918616831302642822265625</LatitudeDegrees>
              <LongitudeDegrees>-4.266351498663425445556640625</LongitudeDegrees>
            </Position>
            <AltitudeMeters>6.19999980926513671875</AltitudeMeters>
            <DistanceMeters>91288.788077774</DistanceMeters>
          </Trackpoint>
          <Trackpoint>
            <Time>2021-03-13T11:46:51.000Z</Time>
            <Position>
              <LatitudeDegrees>36.71293831430375576019287109375</LatitudeDegrees>
              <LongitudeDegrees>-4.2665880359709262847900390625</LongitudeDegrees>
            </Position>
            <AltitudeMeters>6.400000095367431640625</AltitudeMeters>
            <DistanceMeters>91310.006289792</DistanceMeters>
          </Trackpoint>
          <Trackpoint>
            <Time>2021-03-13T11:46:59.000Z</Time>
            <Position>
              <LatitudeDegrees>36.71301953494548797607421875</LatitudeDegrees>
              <LongitudeDegrees>-4.2672912776470184326171875</LongitudeDegrees>
            </Position>
            <AltitudeMeters>6.599999904632568359375</AltitudeMeters>
            <DistanceMeters>91373.400148651</DistanceMeters>
          </Trackpoint>
          <Trackpoint>
            <Time>2021-03-13T11:47:04.000Z</Time>
            <Position>
              <LatitudeDegrees>36.71307812444865703582763671875</LatitudeDegrees>
              <LongitudeDegrees>-4.2677480913698673248291015625</LongitudeDegrees>
            </Position>
            <AltitudeMeters>6.80000019073486328125</AltitudeMeters>
            <DistanceMeters>91414.677307632</DistanceMeters>
          </Trackpoint>
          <Trackpoint>
            <Time>2021-03-13T11:47:07.000Z</Time>
            <Position>
              <LatitudeDegrees>36.71311165206134319305419921875</LatitudeDegrees>
              <LongitudeDegrees>-4.26803936250507831573486328125</LongitudeDegrees>
            </Position>
            <AltitudeMeters>6.599999904632568359375</AltitudeMeters>
            <DistanceMeters>91440.932210325</DistanceMeters>
          </Trackpoint>
          <Trackpoint>
            <Time>2021-03-13T11:47:11.000Z</Time>
            <Position>
              <LatitudeDegrees>36.71315389685332775115966796875</LatitudeDegrees>
              <LongitudeDegrees>-4.26842006854712963104248046875</LongitudeDegrees>
            </Position>
            <AltitudeMeters>7</AltitudeMeters>
            <DistanceMeters>91475.224085089</DistanceMeters>
          </Trackpoint>
          <Trackpoint>
            <Time>2021-03-13T11:47:16.000Z</Time>
            <Position>
              <LatitudeDegrees>36.71322028152644634246826171875</LatitudeDegrees>
              <LongitudeDegrees>-4.26893941126763820648193359375</LongitudeDegrees>
            </Position>
            <AltitudeMeters>7</AltitudeMeters>
            <DistanceMeters>91522.147079655</DistanceMeters>
          </Trackpoint>
          <Trackpoint>
            <Time>2021-03-13T11:47:22.000Z</Time>
            <Position>
              <LatitudeDegrees>36.71330125071108341217041015625</LatitudeDegrees>
              <LongitudeDegrees>-4.2695792019367218017578125</LongitudeDegrees>
            </Position>
            <AltitudeMeters>7.80000019073486328125</AltitudeMeters>
            <DistanceMeters>91579.938636768</DistanceMeters>
          </Trackpoint>
          <Trackpoint>
            <Time>2021-03-13T11:47:26.000Z</Time>
            <Position>
              <LatitudeDegrees>36.7133499495685100555419921875</LatitudeDegrees>
              <LongitudeDegrees>-4.2699600756168365478515625</LongitudeDegrees>
            </Position>
            <AltitudeMeters>8.19999980926513671875</AltitudeMeters>
            <DistanceMeters>91614.351167698</DistanceMeters>
          </Trackpoint>
          <Trackpoint>
            <Time>2021-03-13T11:47:29.000Z</Time>
            <Position>
              <LatitudeDegrees>36.71339110471308231353759765625</LatitudeDegrees>
              <LongitudeDegrees>-4.27028638310730457305908203125</LongitudeDegrees>
            </Position>
            <AltitudeMeters>9</AltitudeMeters>
            <DistanceMeters>91643.823852908</DistanceMeters>
          </Trackpoint>
          <Trackpoint>
            <Time>2021-03-13T11:47:33.000Z</Time>
            <Position>
              <LatitudeDegrees>36.713424883782863616943359375</LatitudeDegrees>
              <LongitudeDegrees>-4.2707122676074504852294921875</LongitudeDegrees>
            </Position>
            <AltitudeMeters>9.3999996185302734375</AltitudeMeters>
            <DistanceMeters>91682.008278046</DistanceMeters>
          </Trackpoint>
          <Trackpoint>
            <Time>2021-03-13T11:47:34.000Z</Time>
            <Position>
              <LatitudeDegrees>36.71343536116182804107666015625</LatitudeDegrees>
              <LongitudeDegrees>-4.2708222381770610809326171875</LongitudeDegrees>
            </Position>
            <AltitudeMeters>9.6000003814697265625</AltitudeMeters>
            <DistanceMeters>91691.889228734</DistanceMeters>
          </Trackpoint>
          <Trackpoint>
            <Time>2021-03-13T11:47:40.000Z</Time>
            <Position>
              <LatitudeDegrees>36.71351230703294277191162109375</LatitudeDegrees>
              <LongitudeDegrees>-4.27152120508253574371337890625</LongitudeDegrees>
            </Position>
            <AltitudeMeters>9.3999996185302734375</AltitudeMeters>
            <DistanceMeters>91754.838814799</DistanceMeters>
          </Trackpoint>
          <Trackpoint>
            <Time>2021-03-13T11:47:46.000Z</Time>
            <Position>
              <LatitudeDegrees>36.71360031701624393463134765625</LatitudeDegrees>
              <LongitudeDegrees>-4.2722374387085437774658203125</LongitudeDegrees>
            </Position>
            <AltitudeMeters>8.19999980926513671875</AltitudeMeters>
            <DistanceMeters>91819.490091693</DistanceMeters>
          </Trackpoint>
          <Trackpoint>
            <Time>2021-03-13T11:47:47.000Z</Time>
            <Position>
              <LatitudeDegrees>36.71362093649804592132568359375</LatitudeDegrees>
              <LongitudeDegrees>-4.27238420583307743072509765625</LongitudeDegrees>
            </Position>
            <AltitudeMeters>7.80000019073486328125</AltitudeMeters>
            <DistanceMeters>91832.785004867</DistanceMeters>
          </Trackpoint>
          <Trackpoint>
            <Time>2021-03-13T11:47:50.000Z</Time>
            <Position>
              <LatitudeDegrees>36.7136674560606479644775390625</LatitudeDegrees>
              <LongitudeDegrees>-4.27273021079599857330322265625</LongitudeDegrees>
            </Position>
            <AltitudeMeters>7.19999980926513671875</AltitudeMeters>
            <DistanceMeters>91864.087906571</DistanceMeters>
          </Trackpoint>
          <Trackpoint>
            <Time>2021-03-13T11:47:53.000Z</Time>
            <Position>
              <LatitudeDegrees>36.7137130536139011383056640625</LatitudeDegrees>
              <LongitudeDegrees>-4.273130781948566436767578125</LongitudeDegrees>
            </Position>
            <AltitudeMeters>6.80000019073486328125</AltitudeMeters>
            <DistanceMeters>91900.18667804</DistanceMeters>
          </Trackpoint>
          <Trackpoint>
            <Time>2021-03-13T11:47:54.000Z</Time>
            <Position>
              <LatitudeDegrees>36.71372218988835811614990234375</LatitudeDegrees>
              <LongitudeDegrees>-4.27322809584438800811767578125</LongitudeDegrees>
            </Position>
            <AltitudeMeters>6.599999904632568359375</AltitudeMeters>
            <DistanceMeters>91908.929135762</DistanceMeters>
          </Trackpoint>
          <Trackpoint>
            <Time>2021-03-13T11:47:59.000Z</Time>
            <Position>
              <LatitudeDegrees>36.71379745937883853912353515625</LatitudeDegrees>
              <LongitudeDegrees>-4.27383343689143657684326171875</LongitudeDegrees>
            </Position>
            <AltitudeMeters>5.80000019073486328125</AltitudeMeters>
            <DistanceMeters>91963.585607375</DistanceMeters>
          </Trackpoint>
          <Trackpoint>
            <Time>2021-03-13T11:48:00.000Z</Time>
            <Position>
              <LatitudeDegrees>36.71380969695746898651123046875</LatitudeDegrees>
              <LongitudeDegrees>-4.2739498615264892578125</LongitudeDegrees>
            </Position>
            <AltitudeMeters>5.599999904632568359375</AltitudeMeters>
            <DistanceMeters>91974.062275699</DistanceMeters>
          </Trackpoint>
          <Trackpoint>
            <Time>2021-03-13T11:48:06.000Z</Time>
            <Position>
              <LatitudeDegrees>36.7138977907598018646240234375</LatitudeDegrees>
              <LongitudeDegrees>-4.2746417038142681121826171875</LongitudeDegrees>
            </Position>
            <AltitudeMeters>5.19999980926513671875</AltitudeMeters>
            <DistanceMeters>92036.564503345</DistanceMeters>
          </Trackpoint>
          <Trackpoint>
            <Time>2021-03-13T11:48:08.000Z</Time>
            <Position>
              <LatitudeDegrees>36.71392637304961681365966796875</LatitudeDegrees>
              <LongitudeDegrees>-4.2748924903571605682373046875</LongitudeDegrees>
            </Position>
            <AltitudeMeters>5.19999980926513671875</AltitudeMeters>
            <DistanceMeters>92059.165484169</DistanceMeters>
          </Trackpoint>
          <Trackpoint>
            <Time>2021-03-13T11:48:11.000Z</Time>
            <Position>
              <LatitudeDegrees>36.71395151875913143157958984375</LatitudeDegrees>
              <LongitudeDegrees>-4.27514822222292423248291015625</LongitudeDegrees>
            </Position>
            <AltitudeMeters>5.19999980926513671875</AltitudeMeters>
            <DistanceMeters>92082.153701448</DistanceMeters>
          </Trackpoint>
          <Trackpoint>
            <Time>2021-03-13T11:48:12.000Z</Time>
            <Position>
              <LatitudeDegrees>36.71396962366998195648193359375</LatitudeDegrees>
              <LongitudeDegrees>-4.27524201571941375732421875</LongitudeDegrees>
            </Position>
            <AltitudeMeters>5.19999980926513671875</AltitudeMeters>
            <DistanceMeters>92090.761884026</DistanceMeters>
          </Trackpoint>
          <Trackpoint>
            <Time>2021-03-13T11:48:14.000Z</Time>
            <Position>
              <LatitudeDegrees>36.71399745158851146697998046875</LatitudeDegrees>
              <LongitudeDegrees>-4.27537604235112667083740234375</LongitudeDegrees>
            </Position>
            <AltitudeMeters>5.19999980926513671875</AltitudeMeters>
            <DistanceMeters>92103.114625898</DistanceMeters>
          </Trackpoint>
          <Trackpoint>
            <Time>2021-03-13T11:48:17.000Z</Time>
            <Position>
              <LatitudeDegrees>36.71403584070503711700439453125</LatitudeDegrees>
              <LongitudeDegrees>-4.27565080113708972930908203125</LongitudeDegrees>
            </Position>
            <AltitudeMeters>5.19999980926513671875</AltitudeMeters>
            <DistanceMeters>92127.998927416</DistanceMeters>
          </Trackpoint>
          <Trackpoint>
            <Time>2021-03-13T11:48:22.000Z</Time>
            <Position>
              <LatitudeDegrees>36.71409568749368190765380859375</LatitudeDegrees>
              <LongitudeDegrees>-4.2761367000639438629150390625</LongitudeDegrees>
            </Position>
            <AltitudeMeters>5.19999980926513671875</AltitudeMeters>
            <DistanceMeters>92171.860936565</DistanceMeters>
          </Trackpoint>
          <Trackpoint>
            <Time>2021-03-13T11:48:27.000Z</Time>
            <Position>
              <LatitudeDegrees>36.7141412012279033660888671875</LatitudeDegrees>
              <LongitudeDegrees>-4.2766225151717662811279296875</LongitudeDegrees>
            </Position>
            <AltitudeMeters>5</AltitudeMeters>
            <DistanceMeters>92215.501793485</DistanceMeters>
          </Trackpoint>
          <Trackpoint>
            <Time>2021-03-13T11:48:31.000Z</Time>
            <Position>
              <LatitudeDegrees>36.7141673527657985687255859375</LatitudeDegrees>
              <LongitudeDegrees>-4.27697262726724147796630859375</LongitudeDegrees>
            </Position>
            <AltitudeMeters>5</AltitudeMeters>
            <DistanceMeters>92246.87500391</DistanceMeters>
          </Trackpoint>
          <Trackpoint>
            <Time>2021-03-13T11:48:36.000Z</Time>
            <Position>
              <LatitudeDegrees>36.7142204940319061279296875</LatitudeDegrees>
              <LongitudeDegrees>-4.27742659114301204681396484375</LongitudeDegrees>
            </Position>
            <AltitudeMeters>5.400000095367431640625</AltitudeMeters>
            <DistanceMeters>92287.8084712</DistanceMeters>
          </Trackpoint>
          <Trackpoint>
            <Time>2021-03-13T11:48:37.000Z</Time>
            <Position>
              <LatitudeDegrees>36.71422912739217281341552734375</LatitudeDegrees>
              <LongitudeDegrees>-4.27753455005586147308349609375</LongitudeDegrees>
            </Position>
            <AltitudeMeters>5.400000095367431640625</AltitudeMeters>
            <DistanceMeters>92297.488144396</DistanceMeters>
          </Trackpoint>
          <Trackpoint>
            <Time>2021-03-13T11:48:45.000Z</Time>
            <Position>
              <LatitudeDegrees>36.714307330548763275146484375</LatitudeDegrees>
              <LongitudeDegrees>-4.2781932838261127471923828125</LongitudeDegrees>
            </Position>
            <AltitudeMeters>5.599999904632568359375</AltitudeMeters>
            <DistanceMeters>92356.903174855</DistanceMeters>
          </Trackpoint>
          <Trackpoint>
            <Time>2021-03-13T11:48:46.000Z</Time>
            <Position>
              <LatitudeDegrees>36.71431638300418853759765625</LatitudeDegrees>
              <LongitudeDegrees>-4.2782757617533206939697265625</LongitudeDegrees>
            </Position>
            <AltitudeMeters>5.599999904632568359375</AltitudeMeters>
            <DistanceMeters>92364.331079477</DistanceMeters>
          </Trackpoint>
          <Trackpoint>
            <Time>2021-03-13T11:48:49.000Z</Time>
            <Position>
              <LatitudeDegrees>36.7143514193594455718994140625</LatitudeDegrees>
              <LongitudeDegrees>-4.27853719331324100494384765625</LongitudeDegrees>
            </Position>
            <AltitudeMeters>5.599999904632568359375</AltitudeMeters>
            <DistanceMeters>92387.980706848</DistanceMeters>
          </Trackpoint>
          <Trackpoint>
            <Time>2021-03-13T11:48:51.000Z</Time>
            <Position>
              <LatitudeDegrees>36.7143765650689601898193359375</LatitudeDegrees>
              <LongitudeDegrees>-4.278710782527923583984375</LongitudeDegrees>
            </Position>
            <AltitudeMeters>5.599999904632568359375</AltitudeMeters>
            <DistanceMeters>92403.71960951</DistanceMeters>
          </Trackpoint>
          <Trackpoint>
            <Time>2021-03-13T11:48:58.000Z</Time>
            <Position>
              <LatitudeDegrees>36.714444123208522796630859375</LatitudeDegrees>
              <LongitudeDegrees>-4.27934990264475345611572265625</LongitudeDegrees>
            </Position>
            <AltitudeMeters>5.599999904632568359375</AltitudeMeters>
            <DistanceMeters>92461.237074736</DistanceMeters>
          </Trackpoint>
          <Trackpoint>
            <Time>2021-03-13T11:49:01.000Z</Time>
            <Position>
              <LatitudeDegrees>36.714467592537403106689453125</LatitudeDegrees>
              <LongitudeDegrees>-4.2795945703983306884765625</LongitudeDegrees>
            </Position>
            <AltitudeMeters>5.599999904632568359375</AltitudeMeters>
            <DistanceMeters>92483.222568405</DistanceMeters>
          </Trackpoint>
          <Trackpoint>
            <Time>2021-03-13T11:49:04.000Z</Time>
            <Position>
              <LatitudeDegrees>36.7145019583404064178466796875</LatitudeDegrees>
              <LongitudeDegrees>-4.27986186929047107696533203125</LongitudeDegrees>
            </Position>
            <AltitudeMeters>5.19999980926513671875</AltitudeMeters>
            <DistanceMeters>92507.376370359</DistanceMeters>
          </Trackpoint>
          <Trackpoint>
            <Time>2021-03-13T11:49:05.000Z</Time>
            <Position>
              <LatitudeDegrees>36.714514195919036865234375</LatitudeDegrees>
              <LongitudeDegrees>-4.279951639473438262939453125</LongitudeDegrees>
            </Position>
            <AltitudeMeters>5.19999980926513671875</AltitudeMeters>
            <DistanceMeters>92515.501015508</DistanceMeters>
          </Trackpoint>
          <Trackpoint>
            <Time>2021-03-13T11:49:12.000Z</Time>
            <Position>
              <LatitudeDegrees>36.71459206379950046539306640625</LatitudeDegrees>
              <LongitudeDegrees>-4.28062864579260349273681640625</LongitudeDegrees>
            </Position>
            <AltitudeMeters>5.19999980926513671875</AltitudeMeters>
            <DistanceMeters>92576.523705907</DistanceMeters>
          </Trackpoint>
          <Trackpoint>
            <Time>2021-03-13T11:49:16.000Z</Time>
            <Position>
              <LatitudeDegrees>36.7146508209407329559326171875</LatitudeDegrees>
              <LongitudeDegrees>-4.28091681562364101409912109375</LongitudeDegrees>
            </Position>
            <AltitudeMeters>5.400000095367431640625</AltitudeMeters>
            <DistanceMeters>92603.053524005</DistanceMeters>
          </Trackpoint>
          <Trackpoint>
            <Time>2021-03-13T11:49:19.000Z</Time>
            <Position>
              <LatitudeDegrees>36.71467470936477184295654296875</LatitudeDegrees>
              <LongitudeDegrees>-4.2810662649571895599365234375</LongitudeDegrees>
            </Position>
            <AltitudeMeters>5.400000095367431640625</AltitudeMeters>
            <DistanceMeters>92616.650316091</DistanceMeters>
          </Trackpoint>
          <Trackpoint>
            <Time>2021-03-13T11:49:22.000Z</Time>
            <Position>
              <LatitudeDegrees>36.71471829526126384735107421875</LatitudeDegrees>
              <LongitudeDegrees>-4.28128846921026706695556640625</LongitudeDegrees>
            </Position>
            <AltitudeMeters>5.599999904632568359375</AltitudeMeters>
            <DistanceMeters>92637.060497043</DistanceMeters>
          </Trackpoint>
          <Trackpoint>
            <Time>2021-03-13T11:49:23.000Z</Time>
            <Position>
              <LatitudeDegrees>36.7147299461066722869873046875</LatitudeDegrees>
              <LongitudeDegrees>-4.28136826492846012115478515625</LongitudeDegrees>
            </Position>
            <AltitudeMeters>5.599999904632568359375</AltitudeMeters>
            <DistanceMeters>92644.297516</DistanceMeters>
          </Trackpoint>
          <Trackpoint>
            <Time>2021-03-13T11:49:28.000Z</Time>
            <Position>
              <LatitudeDegrees>36.7147856019437313079833984375</LatitudeDegrees>
              <LongitudeDegrees>-4.2817993462085723876953125</LongitudeDegrees>
            </Position>
            <AltitudeMeters>5.599999904632568359375</AltitudeMeters>
            <DistanceMeters>92683.255223942</DistanceMeters>
          </Trackpoint>
          <Trackpoint>
            <Time>2021-03-13T11:49:33.000Z</Time>
            <Position>
              <LatitudeDegrees>36.71483346261084079742431640625</LatitudeDegrees>
              <LongitudeDegrees>-4.28223378024995326995849609375</LongitudeDegrees>
            </Position>
            <AltitudeMeters>5.80000019073486328125</AltitudeMeters>
            <DistanceMeters>92722.380620028</DistanceMeters>
          </Trackpoint>
          <Trackpoint>
            <Time>2021-03-13T11:49:34.000Z</Time>
            <Position>
              <LatitudeDegrees>36.71484075486660003662109375</LatitudeDegrees>
              <LongitudeDegrees>-4.282313324511051177978515625</LongitudeDegrees>
            </Position>
            <AltitudeMeters>5.80000019073486328125</AltitudeMeters>
            <DistanceMeters>92729.523443833</DistanceMeters>
          </Trackpoint>
          <Trackpoint>
            <Time>2021-03-13T11:49:36.000Z</Time>
            <Position>
              <LatitudeDegrees>36.7148479633033275604248046875</LatitudeDegrees>
              <LongitudeDegrees>-4.2824636958539485931396484375</LongitudeDegrees>
            </Position>
            <AltitudeMeters>5.599999904632568359375</AltitudeMeters>
            <DistanceMeters>92742.963930404</DistanceMeters>
          </Trackpoint>
          <Trackpoint>
            <Time>2021-03-13T11:49:41.000Z</Time>
            <Position>
              <LatitudeDegrees>36.71486866660416126251220703125</LatitudeDegrees>
              <LongitudeDegrees>-4.28286761976778507232666015625</LongitudeDegrees>
            </Position>
            <AltitudeMeters>5.599999904632568359375</AltitudeMeters>
            <DistanceMeters>92779.076582481</DistanceMeters>
          </Trackpoint>
          <Trackpoint>
            <Time>2021-03-13T11:49:48.000Z</Time>
            <Position>
              <LatitudeDegrees>36.71493940986692905426025390625</LatitudeDegrees>
              <LongitudeDegrees>-4.2835023812949657440185546875</LongitudeDegrees>
            </Position>
            <AltitudeMeters>5.599999904632568359375</AltitudeMeters>
            <DistanceMeters>92836.255981374</DistanceMeters>
          </Trackpoint>
          <Trackpoint>
            <Time>2021-03-13T11:49:56.000Z</Time>
            <Position>
              <LatitudeDegrees>36.7150306887924671173095703125</LatitudeDegrees>
              <LongitudeDegrees>-4.28422733210027217864990234375</LongitudeDegrees>
            </Position>
            <AltitudeMeters>5</AltitudeMeters>
            <DistanceMeters>92901.730421966</DistanceMeters>
          </Trackpoint>
          <Trackpoint>
            <Time>2021-03-13T11:49:57.000Z</Time>
            <Position>
              <LatitudeDegrees>36.7150451056659221649169921875</LatitudeDegrees>
              <LongitudeDegrees>-4.28431936539709568023681640625</LongitudeDegrees>
            </Position>
            <AltitudeMeters>5</AltitudeMeters>
            <DistanceMeters>92910.097091111</DistanceMeters>
          </Trackpoint>
          <Trackpoint>
            <Time>2021-03-13T11:50:01.000Z</Time>
            <Position>
              <LatitudeDegrees>36.7150782980024814605712890625</LatitudeDegrees>
              <LongitudeDegrees>-4.28463854826986789703369140625</LongitudeDegrees>
            </Position>
            <AltitudeMeters>5</AltitudeMeters>
            <DistanceMeters>92938.813717672</DistanceMeters>
          </Trackpoint>
          <Trackpoint>
            <Time>2021-03-13T11:50:06.000Z</Time>
            <Position>
              <LatitudeDegrees>36.71511040069162845611572265625</LatitudeDegrees>
              <LongitudeDegrees>-4.28493820130825042724609375</LongitudeDegrees>
            </Position>
            <AltitudeMeters>5.19999980926513671875</AltitudeMeters>
            <DistanceMeters>92965.787080257</DistanceMeters>
          </Trackpoint>
          <Trackpoint>
            <Time>2021-03-13T11:50:10.000Z</Time>
            <Position>
              <LatitudeDegrees>36.7151363007724285125732421875</LatitudeDegrees>
              <LongitudeDegrees>-4.28507122211158275604248046875</LongitudeDegrees>
            </Position>
            <AltitudeMeters>5.599999904632568359375</AltitudeMeters>
            <DistanceMeters>92978.000878309</DistanceMeters>
          </Trackpoint>
          <Trackpoint>
            <Time>2021-03-13T11:50:17.000Z</Time>
            <Position>
              <LatitudeDegrees>36.71517292968928813934326171875</LatitudeDegrees>
              <LongitudeDegrees>-4.2852803505957126617431640625</LongitudeDegrees>
            </Position>
            <AltitudeMeters>5.599999904632568359375</AltitudeMeters>
            <DistanceMeters>92997.099829536</DistanceMeters>
          </Trackpoint>
          <Trackpoint>
            <Time>2021-03-13T11:50:21.000Z</Time>
            <Position>
              <LatitudeDegrees>36.71520411036908626556396484375</LatitudeDegrees>
              <LongitudeDegrees>-4.285431392490863800048828125</LongitudeDegrees>
            </Position>
            <AltitudeMeters>5.599999904632568359375</AltitudeMeters>
            <DistanceMeters>93011.015323033</DistanceMeters>
          </Trackpoint>
          <Trackpoint>
            <Time>2021-03-13T11:50:24.000Z</Time>
            <Position>
              <LatitudeDegrees>36.715227663516998291015625</LatitudeDegrees>
              <LongitudeDegrees>-4.2855646647512912750244140625</LongitudeDegrees>
            </Position>
            <AltitudeMeters>5.599999904632568359375</AltitudeMeters>
            <DistanceMeters>93023.191356667</DistanceMeters>
          </Trackpoint>
          <Trackpoint>
            <Time>2021-03-13T11:50:27.000Z</Time>
            <Position>
              <LatitudeDegrees>36.71524484641849994659423828125</LatitudeDegrees>
              <LongitudeDegrees>-4.28565929643809795379638671875</LongitudeDegrees>
            </Position>
            <AltitudeMeters>5.400000095367431640625</AltitudeMeters>
            <DistanceMeters>93031.848180819</DistanceMeters>
          </Trackpoint>
          <Trackpoint>
            <Time>2021-03-13T11:50:28.000Z</Time>
            <Position>
              <LatitudeDegrees>36.71524576842784881591796875</LatitudeDegrees>
              <LongitudeDegrees>-4.28569399751722812652587890625</LongitudeDegrees>
            </Position>
            <AltitudeMeters>5.400000095367431640625</AltitudeMeters>
            <DistanceMeters>93034.94640148</DistanceMeters>
          </Trackpoint>
          <Trackpoint>
            <Time>2021-03-13T11:50:30.000Z</Time>
            <Position>
              <LatitudeDegrees>36.71525649726390838623046875</LatitudeDegrees>
              <LongitudeDegrees>-4.285785444080829620361328125</LongitudeDegrees>
            </Position>
            <AltitudeMeters>5.400000095367431640625</AltitudeMeters>
            <DistanceMeters>93043.192399031</DistanceMeters>
          </Trackpoint>
          <Trackpoint>
            <Time>2021-03-13T11:50:31.000Z</Time>
            <Position>
              <LatitudeDegrees>36.7152630351483821868896484375</LatitudeDegrees>
              <LongitudeDegrees>-4.2858414351940155029296875</LongitudeDegrees>
            </Position>
            <AltitudeMeters>5.400000095367431640625</AltitudeMeters>
            <DistanceMeters>93048.241349992</DistanceMeters>
          </Trackpoint>
          <Trackpoint>
            <Time>2021-03-13T11:50:34.000Z</Time>
            <Position>
              <LatitudeDegrees>36.71528038568794727325439453125</LatitudeDegrees>
              <LongitudeDegrees>-4.28604687564074993133544921875</LongitudeDegrees>
            </Position>
            <AltitudeMeters>5.19999980926513671875</AltitudeMeters>
            <DistanceMeters>93066.672613536</DistanceMeters>
          </Trackpoint>
          <Trackpoint>
            <Time>2021-03-13T11:50:36.000Z</Time>
            <Position>
              <LatitudeDegrees>36.71529580838978290557861328125</LatitudeDegrees>
              <LongitudeDegrees>-4.28623815067112445831298828125</LongitudeDegrees>
            </Position>
            <AltitudeMeters>5</AltitudeMeters>
            <DistanceMeters>93083.824869671</DistanceMeters>
          </Trackpoint>
          <Trackpoint>
            <Time>2021-03-13T11:50:40.000Z</Time>
            <Position>
              <LatitudeDegrees>36.7153334431350231170654296875</LatitudeDegrees>
              <LongitudeDegrees>-4.28661382757127285003662109375</LongitudeDegrees>
            </Position>
            <AltitudeMeters>4.80000019073486328125</AltitudeMeters>
            <DistanceMeters>93117.604026401</DistanceMeters>
          </Trackpoint>
          <Trackpoint>
            <Time>2021-03-13T11:50:43.000Z</Time>
            <Position>
              <LatitudeDegrees>36.71532757580280303955078125</LatitudeDegrees>
              <LongitudeDegrees>-4.28690082393586635589599609375</LongitudeDegrees>
            </Position>
            <AltitudeMeters>5</AltitudeMeters>
            <DistanceMeters>93143.218265295</DistanceMeters>
          </Trackpoint>
          <Trackpoint>
            <Time>2021-03-13T11:50:50.000Z</Time>
            <Position>
              <LatitudeDegrees>36.71542522497475147247314453125</LatitudeDegrees>
              <LongitudeDegrees>-4.2875813506543636322021484375</LongitudeDegrees>
            </Position>
            <AltitudeMeters>5</AltitudeMeters>
            <DistanceMeters>93204.900924682</DistanceMeters>
          </Trackpoint>
          <Trackpoint>
            <Time>2021-03-13T11:50:53.000Z</Time>
            <Position>
              <LatitudeDegrees>36.71545766294002532958984375</LatitudeDegrees>
              <LongitudeDegrees>-4.28777824155986309051513671875</LongitudeDegrees>
            </Position>
            <AltitudeMeters>5.19999980926513671875</AltitudeMeters>
            <DistanceMeters>93222.835061483</DistanceMeters>
          </Trackpoint>
          <Trackpoint>
            <Time>2021-03-13T11:50:54.000Z</Time>
            <Position>
              <LatitudeDegrees>36.7154668830335140228271484375</LatitudeDegrees>
              <LongitudeDegrees>-4.28784613497555255889892578125</LongitudeDegrees>
            </Position>
            <AltitudeMeters>5</AltitudeMeters>
            <DistanceMeters>93228.978815998</DistanceMeters>
          </Trackpoint>
          <Trackpoint>
            <Time>2021-03-13T11:50:57.000Z</Time>
            <Position>
              <LatitudeDegrees>36.71548976562917232513427734375</LatitudeDegrees>
              <LongitudeDegrees>-4.2880235798656940460205078125</LongitudeDegrees>
            </Position>
            <AltitudeMeters>5</AltitudeMeters>
            <DistanceMeters>93245.014415669</DistanceMeters>
          </Trackpoint>
          <Trackpoint>
            <Time>2021-03-13T11:51:00.000Z</Time>
            <Position>
              <LatitudeDegrees>36.715537123382091522216796875</LatitudeDegrees>
              <LongitudeDegrees>-4.2882458679378032684326171875</LongitudeDegrees>
            </Position>
            <AltitudeMeters>5</AltitudeMeters>
            <DistanceMeters>93265.535786116</DistanceMeters>
          </Trackpoint>
          <Trackpoint>
            <Time>2021-03-13T11:51:06.000Z</Time>
            <Position>
              <LatitudeDegrees>36.71566955745220184326171875</LatitudeDegrees>
              <LongitudeDegrees>-4.28873679600656032562255859375</LongitudeDegrees>
            </Position>
            <AltitudeMeters>4.80000019073486328125</AltitudeMeters>
            <DistanceMeters>93311.75062941</DistanceMeters>
          </Trackpoint>
          <Trackpoint>
            <Time>2021-03-13T11:51:12.000Z</Time>
            <Position>
              <LatitudeDegrees>36.7157803662121295928955078125</LatitudeDegrees>
              <LongitudeDegrees>-4.28920970298349857330322265625</LongitudeDegrees>
            </Position>
            <AltitudeMeters>4.80000019073486328125</AltitudeMeters>
            <DistanceMeters>93355.709293157</DistanceMeters>
          </Trackpoint>
          <Trackpoint>
            <Time>2021-03-13T11:51:17.000Z</Time>
            <Position>
              <LatitudeDegrees>36.7158621735870838165283203125</LatitudeDegrees>
              <LongitudeDegrees>-4.2895214259624481201171875</LongitudeDegrees>
            </Position>
            <AltitudeMeters>5.19999980926513671875</AltitudeMeters>
            <DistanceMeters>93384.974127175</DistanceMeters>
          </Trackpoint>
          <Trackpoint>
            <Time>2021-03-13T11:51:20.000Z</Time>
            <Position>
              <LatitudeDegrees>36.71588237397372722625732421875</LatitudeDegrees>
              <LongitudeDegrees>-4.28959024138748645782470703125</LongitudeDegrees>
            </Position>
            <AltitudeMeters>5.80000019073486328125</AltitudeMeters>
            <DistanceMeters>93391.513732824</DistanceMeters>
          </Trackpoint>
          <Trackpoint>
            <Time>2021-03-13T11:51:23.000Z</Time>
            <Position>
              <LatitudeDegrees>36.71588237397372722625732421875</LatitudeDegrees>
              <LongitudeDegrees>-4.28959024138748645782470703125</LongitudeDegrees>
            </Position>
            <AltitudeMeters>6.19999980926513671875</AltitudeMeters>
            <DistanceMeters>93391.513732824</DistanceMeters>
          </Trackpoint>
          <Trackpoint>
            <Time>2021-03-13T11:51:25.000Z</Time>
            <Position>
              <LatitudeDegrees>36.71588237397372722625732421875</LatitudeDegrees>
              <LongitudeDegrees>-4.28959024138748645782470703125</LongitudeDegrees>
            </Position>
            <AltitudeMeters>6.400000095367431640625</AltitudeMeters>
            <DistanceMeters>93391.513732824</DistanceMeters>
          </Trackpoint>
          <Trackpoint>
            <Time>2021-03-13T11:51:37.000Z</Time>
            <Position>
              <LatitudeDegrees>36.71588757075369358062744140625</LatitudeDegrees>
              <LongitudeDegrees>-4.28961136378347873687744140625</LongitudeDegrees>
            </Position>
            <AltitudeMeters>6.19999980926513671875</AltitudeMeters>
            <DistanceMeters>93393.484248713</DistanceMeters>
          </Trackpoint>
          <Trackpoint>
            <Time>2021-03-13T11:51:40.000Z</Time>
            <Position>
              <LatitudeDegrees>36.71590466983616352081298828125</LatitudeDegrees>
              <LongitudeDegrees>-4.289691410958766937255859375</LongitudeDegrees>
            </Position>
            <AltitudeMeters>6.19999980926513671875</AltitudeMeters>
            <DistanceMeters>93400.875592467</DistanceMeters>
          </Trackpoint>
          <Trackpoint>
            <Time>2021-03-13T11:51:43.000Z</Time>
            <Position>
              <LatitudeDegrees>36.71593283303081989288330078125</LatitudeDegrees>
              <LongitudeDegrees>-4.28983700461685657501220703125</LongitudeDegrees>
            </Position>
            <AltitudeMeters>6.19999980926513671875</AltitudeMeters>
            <DistanceMeters>93414.238254313</DistanceMeters>
          </Trackpoint>
          <Trackpoint>
            <Time>2021-03-13T11:51:48.000Z</Time>
            <Position>
              <LatitudeDegrees>36.71600424684584140777587890625</LatitudeDegrees>
              <LongitudeDegrees>-4.2901368252933025360107421875</LongitudeDegrees>
            </Position>
            <AltitudeMeters>6.80000019073486328125</AltitudeMeters>
            <DistanceMeters>93442.144414789</DistanceMeters>
          </Trackpoint>
          <Trackpoint>
            <Time>2021-03-13T11:51:49.000Z</Time>
            <Position>
              <LatitudeDegrees>36.7160221002995967864990234375</LatitudeDegrees>
              <LongitudeDegrees>-4.290201030671596527099609375</LongitudeDegrees>
            </Position>
            <AltitudeMeters>7</AltitudeMeters>
            <DistanceMeters>93448.206791478</DistanceMeters>
          </Trackpoint>
          <Trackpoint>
            <Time>2021-03-13T11:51:52.000Z</Time>
            <Position>
              <LatitudeDegrees>36.7160747386515140533447265625</LatitudeDegrees>
              <LongitudeDegrees>-4.290411584079265594482421875</LongitudeDegrees>
            </Position>
            <AltitudeMeters>7.400000095367431640625</AltitudeMeters>
            <DistanceMeters>93467.884894488</DistanceMeters>
          </Trackpoint>
          <Trackpoint>
            <Time>2021-03-13T11:51:53.000Z</Time>
            <Position>
              <LatitudeDegrees>36.71609460376203060150146484375</LatitudeDegrees>
              <LongitudeDegrees>-4.29048174060881137847900390625</LongitudeDegrees>
            </Position>
            <AltitudeMeters>7.400000095367431640625</AltitudeMeters>
            <DistanceMeters>93474.523175369</DistanceMeters>
          </Trackpoint>
          <Trackpoint>
            <Time>2021-03-13T11:51:54.000Z</Time>
            <Position>
              <LatitudeDegrees>36.7161141335964202880859375</LatitudeDegrees>
              <LongitudeDegrees>-4.29055315442383289337158203125</LongitudeDegrees>
            </Position>
            <AltitudeMeters>7.599999904632568359375</AltitudeMeters>
            <DistanceMeters>93481.254662841</DistanceMeters>
          </Trackpoint>
          <Trackpoint>
            <Time>2021-03-13T11:51:57.000Z</Time>
            <Position>
              <LatitudeDegrees>36.716152019798755645751953125</LatitudeDegrees>
              <LongitudeDegrees>-4.29078566841781139373779296875</LongitudeDegrees>
            </Position>
            <AltitudeMeters>8.6000003814697265625</AltitudeMeters>
            <DistanceMeters>93502.423663139</DistanceMeters>
          </Trackpoint>
          <Trackpoint>
            <Time>2021-03-13T11:51:59.000Z</Time>
            <Position>
              <LatitudeDegrees>36.71617657877504825592041015625</LatitudeDegrees>
              <LongitudeDegrees>-4.2909498699009418487548828125</LongitudeDegrees>
            </Position>
            <AltitudeMeters>9.3999996185302734375</AltitudeMeters>
            <DistanceMeters>93517.326809123</DistanceMeters>
          </Trackpoint>
          <Trackpoint>
            <Time>2021-03-13T11:52:01.000Z</Time>
            <Position>
              <LatitudeDegrees>36.71620063483715057373046875</LatitudeDegrees>
              <LongitudeDegrees>-4.29111222736537456512451171875</LongitudeDegrees>
            </Position>
            <AltitudeMeters>9.80000019073486328125</AltitudeMeters>
            <DistanceMeters>93532.05748246</DistanceMeters>
          </Trackpoint>
          <Trackpoint>
            <Time>2021-03-13T11:52:02.000Z</Time>
            <Position>
              <LatitudeDegrees>36.716204993426799774169921875</LatitudeDegrees>
              <LongitudeDegrees>-4.29119688458740711212158203125</LongitudeDegrees>
            </Position>
            <AltitudeMeters>9.80000019073486328125</AltitudeMeters>
            <DistanceMeters>93539.626287184</DistanceMeters>
          </Trackpoint>
          <Trackpoint>
            <Time>2021-03-13T11:52:04.000Z</Time>
            <Position>
              <LatitudeDegrees>36.71622301451861858367919921875</LatitudeDegrees>
              <LongitudeDegrees>-4.2913646064698696136474609375</LongitudeDegrees>
            </Position>
            <AltitudeMeters>9.80000019073486328125</AltitudeMeters>
            <DistanceMeters>93554.724474153</DistanceMeters>
          </Trackpoint>
          <Trackpoint>
            <Time>2021-03-13T11:52:11.000Z</Time>
            <Position>
              <LatitudeDegrees>36.71627313829958438873291015625</LatitudeDegrees>
              <LongitudeDegrees>-4.2919201590120792388916015625</LongitudeDegrees>
            </Position>
            <AltitudeMeters>10.19999980926513671875</AltitudeMeters>
            <DistanceMeters>93604.60408614</DistanceMeters>
          </Trackpoint>
          <Trackpoint>
            <Time>2021-03-13T11:52:14.000Z</Time>
            <Position>
              <LatitudeDegrees>36.7162852920591831207275390625</LatitudeDegrees>
              <LongitudeDegrees>-4.29210506379604339599609375</LongitudeDegrees>
            </Position>
            <AltitudeMeters>10.80000019073486328125</AltitudeMeters>
            <DistanceMeters>93621.156746937</DistanceMeters>
          </Trackpoint>
          <Trackpoint>
            <Time>2021-03-13T11:52:16.000Z</Time>
            <Position>
              <LatitudeDegrees>36.71628939919173717498779296875</LatitudeDegrees>
              <LongitudeDegrees>-4.29222442209720611572265625</LongitudeDegrees>
            </Position>
            <AltitudeMeters>11.19999980926513671875</AltitudeMeters>
            <DistanceMeters>93631.815423766</DistanceMeters>
          </Trackpoint>
          <Trackpoint>
            <Time>2021-03-13T11:52:18.000Z</Time>
            <Position>
              <LatitudeDegrees>36.7162857949733734130859375</LatitudeDegrees>
              <LongitudeDegrees>-4.292343445122241973876953125</LongitudeDegrees>
            </Position>
            <AltitudeMeters>12</AltitudeMeters>
            <DistanceMeters>93642.442282945</DistanceMeters>
          </Trackpoint>
          <Trackpoint>
            <Time>2021-03-13T11:52:21.000Z</Time>
            <Position>
              <LatitudeDegrees>36.71628789044916629791259765625</LatitudeDegrees>
              <LongitudeDegrees>-4.292527176439762115478515625</LongitudeDegrees>
            </Position>
            <AltitudeMeters>13.19999980926513671875</AltitudeMeters>
            <DistanceMeters>93658.836525693</DistanceMeters>
          </Trackpoint>
          <Trackpoint>
            <Time>2021-03-13T11:52:24.000Z</Time>
            <Position>
              <LatitudeDegrees>36.71628353185951709747314453125</LatitudeDegrees>
              <LongitudeDegrees>-4.292693473398685455322265625</LongitudeDegrees>
            </Position>
            <AltitudeMeters>14</AltitudeMeters>
            <DistanceMeters>93673.681693782</DistanceMeters>
          </Trackpoint>
          <Trackpoint>
            <Time>2021-03-13T11:52:25.000Z</Time>
            <Position>
              <LatitudeDegrees>36.71628110110759735107421875</LatitudeDegrees>
              <LongitudeDegrees>-4.29274435155093669891357421875</LongitudeDegrees>
            </Position>
            <AltitudeMeters>14.3999996185302734375</AltitudeMeters>
            <DistanceMeters>93678.229096894</DistanceMeters>
          </Trackpoint>
          <Trackpoint>
            <Time>2021-03-13T11:52:28.000Z</Time>
            <Position>
              <LatitudeDegrees>36.71628537587821483612060546875</LatitudeDegrees>
              <LongitudeDegrees>-4.2929072119295597076416015625</LongitudeDegrees>
            </Position>
            <AltitudeMeters>15.3999996185302734375</AltitudeMeters>
            <DistanceMeters>93692.767252528</DistanceMeters>
          </Trackpoint>
          <Trackpoint>
            <Time>2021-03-13T11:52:29.000Z</Time>
            <Position>
              <LatitudeDegrees>36.71628671698272228240966796875</LatitudeDegrees>
              <LongitudeDegrees>-4.29296395741403102874755859375</LongitudeDegrees>
            </Position>
            <AltitudeMeters>15.6000003814697265625</AltitudeMeters>
            <DistanceMeters>93697.831382967</DistanceMeters>
          </Trackpoint>
          <Trackpoint>
            <Time>2021-03-13T11:52:31.000Z</Time>
            <Position>
              <LatitudeDegrees>36.716287136077880859375</LatitudeDegrees>
              <LongitudeDegrees>-4.29307392798364162445068359375</LongitudeDegrees>
            </Position>
            <AltitudeMeters>16.799999237060546875</AltitudeMeters>
            <DistanceMeters>93707.642632372</DistanceMeters>
          </Trackpoint>
          <Trackpoint>
            <Time>2021-03-13T11:52:32.000Z</Time>
            <Position>
              <LatitudeDegrees>36.7162795923650264739990234375</LatitudeDegrees>
              <LongitudeDegrees>-4.29314576089382171630859375</LongitudeDegrees>
            </Position>
            <AltitudeMeters>17.200000762939453125</AltitudeMeters>
            <DistanceMeters>93714.106544787</DistanceMeters>
          </Trackpoint>
          <Trackpoint>
            <Time>2021-03-13T11:52:35.000Z</Time>
            <Position>
              <LatitudeDegrees>36.7162375152111053466796875</LatitudeDegrees>
              <LongitudeDegrees>-4.29330945946276187896728515625</LongitudeDegrees>
            </Position>
            <AltitudeMeters>17.799999237060546875</AltitudeMeters>
            <DistanceMeters>93729.443868262</DistanceMeters>
          </Trackpoint>
          <Trackpoint>
            <Time>2021-03-13T11:52:38.000Z</Time>
            <Position>
              <LatitudeDegrees>36.7161756567656993865966796875</LatitudeDegrees>
              <LongitudeDegrees>-4.2934869043529033660888671875</LongitudeDegrees>
            </Position>
            <AltitudeMeters>18.200000762939453125</AltitudeMeters>
            <DistanceMeters>93746.707897429</DistanceMeters>
          </Trackpoint>
          <Trackpoint>
            <Time>2021-03-13T11:52:40.000Z</Time>
            <Position>
              <LatitudeDegrees>36.7161189951002597808837890625</LatitudeDegrees>
              <LongitudeDegrees>-4.29358606226742267608642578125</LongitudeDegrees>
            </Position>
            <AltitudeMeters>18.799999237060546875</AltitudeMeters>
            <DistanceMeters>93757.572572265</DistanceMeters>
          </Trackpoint>
          <Trackpoint>
            <Time>2021-03-13T11:52:41.000Z</Time>
            <Position>
              <LatitudeDegrees>36.71608865261077880859375</LatitudeDegrees>
              <LongitudeDegrees>-4.2936307378113269805908203125</LongitudeDegrees>
            </Position>
            <AltitudeMeters>19.200000762939453125</AltitudeMeters>
            <DistanceMeters>93762.795584895</DistanceMeters>
          </Trackpoint>
          <Trackpoint>
            <Time>2021-03-13T11:52:45.000Z</Time>
            <Position>
              <LatitudeDegrees>36.71594942919909954071044921875</LatitudeDegrees>
              <LongitudeDegrees>-4.29380265064537525177001953125</LongitudeDegrees>
            </Position>
            <AltitudeMeters>20.3999996185302734375</AltitudeMeters>
            <DistanceMeters>93784.598780631</DistanceMeters>
          </Trackpoint>
          <Trackpoint>
            <Time>2021-03-13T11:52:48.000Z</Time>
            <Position>
              <LatitudeDegrees>36.71583912335336208343505859375</LatitudeDegrees>
              <LongitudeDegrees>-4.293929301202297210693359375</LongitudeDegrees>
            </Position>
            <AltitudeMeters>21</AltitudeMeters>
            <DistanceMeters>93801.28456251</DistanceMeters>
          </Trackpoint>
          <Trackpoint>
            <Time>2021-03-13T11:52:49.000Z</Time>
            <Position>
              <LatitudeDegrees>36.715798638761043548583984375</LatitudeDegrees>
              <LongitudeDegrees>-4.29397062398493289947509765625</LongitudeDegrees>
            </Position>
            <AltitudeMeters>21.200000762939453125</AltitudeMeters>
            <DistanceMeters>93807.107614721</DistanceMeters>
          </Trackpoint>
          <Trackpoint>
            <Time>2021-03-13T11:52:50.000Z</Time>
            <Position>
              <LatitudeDegrees>36.71576033346354961395263671875</LatitudeDegrees>
              <LongitudeDegrees>-4.29401219822466373443603515625</LongitudeDegrees>
            </Position>
            <AltitudeMeters>21.799999237060546875</AltitudeMeters>
            <DistanceMeters>93812.759108363</DistanceMeters>
          </Trackpoint>
          <Trackpoint>
            <Time>2021-03-13T11:52:53.000Z</Time>
            <Position>
              <LatitudeDegrees>36.71565338037908077239990234375</LatitudeDegrees>
              <LongitudeDegrees>-4.29413138888776302337646484375</LongitudeDegrees>
            </Position>
            <AltitudeMeters>23</AltitudeMeters>
            <DistanceMeters>93828.721050816</DistanceMeters>
          </Trackpoint>
          <Trackpoint>
            <Time>2021-03-13T11:52:57.000Z</Time>
            <Position>
              <LatitudeDegrees>36.71551398932933807373046875</LatitudeDegrees>
              <LongitudeDegrees>-4.294294416904449462890625</LongitudeDegrees>
            </Position>
            <AltitudeMeters>23.799999237060546875</AltitudeMeters>
            <DistanceMeters>93849.987936078</DistanceMeters>
          </Trackpoint>
          <Trackpoint>
            <Time>2021-03-13T11:52:58.000Z</Time>
            <Position>
              <LatitudeDegrees>36.715481467545032501220703125</LatitudeDegrees>
              <LongitudeDegrees>-4.2943386733531951904296875</LongitudeDegrees>
            </Position>
            <AltitudeMeters>24.3999996185302734375</AltitudeMeters>
            <DistanceMeters>93855.344948579</DistanceMeters>
          </Trackpoint>
          <Trackpoint>
            <Time>2021-03-13T11:53:03.000Z</Time>
            <Position>
              <LatitudeDegrees>36.71531994827091693878173828125</LatitudeDegrees>
              <LongitudeDegrees>-4.29457311518490314483642578125</LongitudeDegrees>
            </Position>
            <AltitudeMeters>25.799999237060546875</AltitudeMeters>
            <DistanceMeters>93882.925951096</DistanceMeters>
          </Trackpoint>
          <Trackpoint>
            <Time>2021-03-13T11:53:04.000Z</Time>
            <Position>
              <LatitudeDegrees>36.71529547311365604400634765625</LatitudeDegrees>
              <LongitudeDegrees>-4.29462424479424953460693359375</LongitudeDegrees>
            </Position>
            <AltitudeMeters>26</AltitudeMeters>
            <DistanceMeters>93888.238955798</DistanceMeters>
          </Trackpoint>
          <Trackpoint>
            <Time>2021-03-13T11:53:05.000Z</Time>
            <Position>
              <LatitudeDegrees>36.7152737639844417572021484375</LatitudeDegrees>
              <LongitudeDegrees>-4.29467671550810337066650390625</LongitudeDegrees>
            </Position>
            <AltitudeMeters>26.799999237060546875</AltitudeMeters>
            <DistanceMeters>93893.507585125</DistanceMeters>
          </Trackpoint>
          <Trackpoint>
            <Time>2021-03-13T11:53:08.000Z</Time>
            <Position>
              <LatitudeDegrees>36.715209223330020904541015625</LatitudeDegrees>
              <LongitudeDegrees>-4.29483161307871341705322265625</LongitudeDegrees>
            </Position>
            <AltitudeMeters>28</AltitudeMeters>
            <DistanceMeters>93909.083272389</DistanceMeters>
          </Trackpoint>
          <Trackpoint>
            <Time>2021-03-13T11:53:11.000Z</Time>
            <Position>
              <LatitudeDegrees>36.71515113674104213714599609375</LatitudeDegrees>
              <LongitudeDegrees>-4.29498977959156036376953125</LongitudeDegrees>
            </Position>
            <AltitudeMeters>28.3999996185302734375</AltitudeMeters>
            <DistanceMeters>93924.605821463</DistanceMeters>
          </Trackpoint>
          <Trackpoint>
            <Time>2021-03-13T11:53:15.000Z</Time>
            <Position>
              <LatitudeDegrees>36.71506874263286590576171875</LatitudeDegrees>
              <LongitudeDegrees>-4.29521315731108188629150390625</LongitudeDegrees>
            </Position>
            <AltitudeMeters>29</AltitudeMeters>
            <DistanceMeters>93946.544647879</DistanceMeters>
          </Trackpoint>
          <Trackpoint>
            <Time>2021-03-13T11:53:16.000Z</Time>
            <Position>
              <LatitudeDegrees>36.71505005098879337310791015625</LatitudeDegrees>
              <LongitudeDegrees>-4.2952719144523143768310546875</LongitudeDegrees>
            </Position>
            <AltitudeMeters>29.3999996185302734375</AltitudeMeters>
            <DistanceMeters>93952.18414513</DistanceMeters>
          </Trackpoint>
          <Trackpoint>
            <Time>2021-03-13T11:53:18.000Z</Time>
            <Position>
              <LatitudeDegrees>36.71501702629029750823974609375</LatitudeDegrees>
              <LongitudeDegrees>-4.29539085365831851959228515625</LongitudeDegrees>
            </Position>
            <AltitudeMeters>30</AltitudeMeters>
            <DistanceMeters>93963.415000296</DistanceMeters>
          </Trackpoint>
          <Trackpoint>
            <Time>2021-03-13T11:53:19.000Z</Time>
            <Position>
              <LatitudeDegrees>36.71499791555106639862060546875</LatitudeDegrees>
              <LongitudeDegrees>-4.29544885642826557159423828125</LongitudeDegrees>
            </Position>
            <AltitudeMeters>30.3999996185302734375</AltitudeMeters>
            <DistanceMeters>93969.009483736</DistanceMeters>
          </Trackpoint>
          <Trackpoint>
            <Time>2021-03-13T11:53:23.000Z</Time>
            <Position>
              <LatitudeDegrees>36.71492365188896656036376953125</LatitudeDegrees>
              <LongitudeDegrees>-4.2956893332302570343017578125</LongitudeDegrees>
            </Position>
            <AltitudeMeters>31.200000762939453125</AltitudeMeters>
            <DistanceMeters>93992.00241429</DistanceMeters>
          </Trackpoint>
          <Trackpoint>
            <Time>2021-03-13T11:53:27.000Z</Time>
            <Position>
              <LatitudeDegrees>36.71485223807394504547119140625</LatitudeDegrees>
              <LongitudeDegrees>-4.2959485016763210296630859375</LongitudeDegrees>
            </Position>
            <AltitudeMeters>31.6000003814697265625</AltitudeMeters>
            <DistanceMeters>94016.453842291</DistanceMeters>
          </Trackpoint>
          <Trackpoint>
            <Time>2021-03-13T11:53:34.000Z</Time>
            <Position>
              <LatitudeDegrees>36.7147785611450672149658203125</LatitudeDegrees>
              <LongitudeDegrees>-4.29646742530167102813720703125</LongitudeDegrees>
            </Position>
            <AltitudeMeters>32.200000762939453125</AltitudeMeters>
            <DistanceMeters>94063.473920941</DistanceMeters>
          </Trackpoint>
          <Trackpoint>
            <Time>2021-03-13T11:53:40.000Z</Time>
            <Position>
              <LatitudeDegrees>36.714717708528041839599609375</LatitudeDegrees>
              <LongitudeDegrees>-4.29697805084288120269775390625</LongitudeDegrees>
            </Position>
            <AltitudeMeters>32.40000152587890625</AltitudeMeters>
            <DistanceMeters>94109.533654652</DistanceMeters>
          </Trackpoint>
          <Trackpoint>
            <Time>2021-03-13T11:53:48.000Z</Time>
            <Position>
              <LatitudeDegrees>36.7146307043731212615966796875</LatitudeDegrees>
              <LongitudeDegrees>-4.29771683178842067718505859375</LongitudeDegrees>
            </Position>
            <AltitudeMeters>32.200000762939453125</AltitudeMeters>
            <DistanceMeters>94176.156802096</DistanceMeters>
          </Trackpoint>
          <Trackpoint>
            <Time>2021-03-13T11:53:55.000Z</Time>
            <Position>
              <LatitudeDegrees>36.71455300413072109222412109375</LatitudeDegrees>
              <LongitudeDegrees>-4.298363663256168365478515625</LongitudeDegrees>
            </Position>
            <AltitudeMeters>32</AltitudeMeters>
            <DistanceMeters>94234.512954202</DistanceMeters>
          </Trackpoint>
          <Trackpoint>
            <Time>2021-03-13T11:54:02.000Z</Time>
            <Position>
              <LatitudeDegrees>36.71449449844658374786376953125</LatitudeDegrees>
              <LongitudeDegrees>-4.299041926860809326171875</LongitudeDegrees>
            </Position>
            <AltitudeMeters>32.200000762939453125</AltitudeMeters>
            <DistanceMeters>94295.378584746</DistanceMeters>
          </Trackpoint>
          <Trackpoint>
            <Time>2021-03-13T11:54:03.000Z</Time>
            <Position>
              <LatitudeDegrees>36.714506484568119049072265625</LatitudeDegrees>
              <LongitudeDegrees>-4.29915399290621280670166015625</LongitudeDegrees>
            </Position>
            <AltitudeMeters>32.200000762939453125</AltitudeMeters>
            <DistanceMeters>94305.465749926</DistanceMeters>
          </Trackpoint>
          <Trackpoint>
            <Time>2021-03-13T11:54:05.000Z</Time>
            <Position>
              <LatitudeDegrees>36.71455266885459423065185546875</LatitudeDegrees>
              <LongitudeDegrees>-4.29934459738433361053466796875</LongitudeDegrees>
            </Position>
            <AltitudeMeters>32</AltitudeMeters>
            <DistanceMeters>94323.231425592</DistanceMeters>
          </Trackpoint>
          <Trackpoint>
            <Time>2021-03-13T11:54:07.000Z</Time>
            <Position>
              <LatitudeDegrees>36.71462257392704486846923828125</LatitudeDegrees>
              <LongitudeDegrees>-4.2995064519345760345458984375</LongitudeDegrees>
            </Position>
            <AltitudeMeters>32</AltitudeMeters>
            <DistanceMeters>94339.6350294</DistanceMeters>
          </Trackpoint>
          <Trackpoint>
            <Time>2021-03-13T11:54:09.000Z</Time>
            <Position>
              <LatitudeDegrees>36.71474444679915904998779296875</LatitudeDegrees>
              <LongitudeDegrees>-4.29967224597930908203125</LongitudeDegrees>
            </Position>
            <AltitudeMeters>31.6000003814697265625</AltitudeMeters>
            <DistanceMeters>94359.705247386</DistanceMeters>
          </Trackpoint>
          <Trackpoint>
            <Time>2021-03-13T11:54:10.000Z</Time>
            <Position>
              <LatitudeDegrees>36.71481032855808734893798828125</LatitudeDegrees>
              <LongitudeDegrees>-4.2997379601001739501953125</LongitudeDegrees>
            </Position>
            <AltitudeMeters>31.3999996185302734375</AltitudeMeters>
            <DistanceMeters>94369.093675165</DistanceMeters>
          </Trackpoint>
          <Trackpoint>
            <Time>2021-03-13T11:54:11.000Z</Time>
            <Position>
              <LatitudeDegrees>36.71486866660416126251220703125</LatitudeDegrees>
              <LongitudeDegrees>-4.29978431202471256256103515625</LongitudeDegrees>
            </Position>
            <AltitudeMeters>31.3999996185302734375</AltitudeMeters>
            <DistanceMeters>94376.791425592</DistanceMeters>
          </Trackpoint>
          <Trackpoint>
            <Time>2021-03-13T11:54:12.000Z</Time>
            <Position>
              <LatitudeDegrees>36.71494460664689540863037109375</LatitudeDegrees>
              <LongitudeDegrees>-4.29983745329082012176513671875</LongitudeDegrees>
            </Position>
            <AltitudeMeters>31</AltitudeMeters>
            <DistanceMeters>94386.482287009</DistanceMeters>
          </Trackpoint>
          <Trackpoint>
            <Time>2021-03-13T11:54:15.000Z</Time>
            <Position>
              <LatitudeDegrees>36.715184748172760009765625</LatitudeDegrees>
              <LongitudeDegrees>-4.29998405277729034423828125</LongitudeDegrees>
            </Position>
            <AltitudeMeters>30.799999237060546875</AltitudeMeters>
            <DistanceMeters>94416.239307459</DistanceMeters>
          </Trackpoint>
          <Trackpoint>
            <Time>2021-03-13T11:54:19.000Z</Time>
            <Position>
              <LatitudeDegrees>36.7155215330421924591064453125</LatitudeDegrees>
              <LongitudeDegrees>-4.3002078495919704437255859375</LongitudeDegrees>
            </Position>
            <AltitudeMeters>30</AltitudeMeters>
            <DistanceMeters>94458.710614834</DistanceMeters>
          </Trackpoint>
          <Trackpoint>
            <Time>2021-03-13T11:54:21.000Z</Time>
            <Position>
              <LatitudeDegrees>36.715671233832836151123046875</LatitudeDegrees>
              <LongitudeDegrees>-4.3003070913255214691162109375</LongitudeDegrees>
            </Position>
            <AltitudeMeters>28.799999237060546875</AltitudeMeters>
            <DistanceMeters>94477.579101627</DistanceMeters>
          </Trackpoint>
          <Trackpoint>
            <Time>2021-03-13T11:54:23.000Z</Time>
            <Position>
              <LatitudeDegrees>36.715852282941341400146484375</LatitudeDegrees>
              <LongitudeDegrees>-4.30043776519596576690673828125</LongitudeDegrees>
            </Position>
            <AltitudeMeters>28</AltitudeMeters>
            <DistanceMeters>94500.860064844</DistanceMeters>
          </Trackpoint>
          <Trackpoint>
            <Time>2021-03-13T11:54:24.000Z</Time>
            <Position>
              <LatitudeDegrees>36.715930402278900146484375</LatitudeDegrees>
              <LongitudeDegrees>-4.30051110684871673583984375</LongitudeDegrees>
            </Position>
            <AltitudeMeters>27.799999237060546875</AltitudeMeters>
            <DistanceMeters>94511.742179643</DistanceMeters>
          </Trackpoint>
          <Trackpoint>
            <Time>2021-03-13T11:54:25.000Z</Time>
            <Position>
              <LatitudeDegrees>36.71600324101746082305908203125</LatitudeDegrees>
              <LongitudeDegrees>-4.3005964346230030059814453125</LongitudeDegrees>
            </Position>
            <AltitudeMeters>27.3999996185302734375</AltitudeMeters>
            <DistanceMeters>94522.86314754</DistanceMeters>
          </Trackpoint>
          <Trackpoint>
            <Time>2021-03-13T11:54:26.000Z</Time>
            <Position>
              <LatitudeDegrees>36.71606719493865966796875</LatitudeDegrees>
              <LongitudeDegrees>-4.3006939999759197235107421875</LongitudeDegrees>
            </Position>
            <AltitudeMeters>27.200000762939453125</AltitudeMeters>
            <DistanceMeters>94534.107663109</DistanceMeters>
          </Trackpoint>
          <Trackpoint>
            <Time>2021-03-13T11:54:27.000Z</Time>
            <Position>
              <LatitudeDegrees>36.7161273770034313201904296875</LatitudeDegrees>
              <LongitudeDegrees>-4.30079919286072254180908203125</LongitudeDegrees>
            </Position>
            <AltitudeMeters>26.200000762939453125</AltitudeMeters>
            <DistanceMeters>94545.638832851</DistanceMeters>
          </Trackpoint>
          <Trackpoint>
            <Time>2021-03-13T11:54:28.000Z</Time>
            <Position>
              <LatitudeDegrees>36.7161870561540126800537109375</LatitudeDegrees>
              <LongitudeDegrees>-4.300905726850032806396484375</LongitudeDegrees>
            </Position>
            <AltitudeMeters>25</AltitudeMeters>
            <DistanceMeters>94557.235207216</DistanceMeters>
          </Trackpoint>
          <Trackpoint>
            <Time>2021-03-13T11:54:30.000Z</Time>
            <Position>
              <LatitudeDegrees>36.71630951575934886932373046875</LatitudeDegrees>
              <LongitudeDegrees>-4.3011251650750637054443359375</LongitudeDegrees>
            </Position>
            <AltitudeMeters>23.799999237060546875</AltitudeMeters>
            <DistanceMeters>94581.090698147</DistanceMeters>
          </Trackpoint>
          <Trackpoint>
            <Time>2021-03-13T11:54:32.000Z</Time>
            <Position>
              <LatitudeDegrees>36.7164324782788753509521484375</LatitudeDegrees>
              <LongitudeDegrees>-4.301340244710445404052734375</LongitudeDegrees>
            </Position>
            <AltitudeMeters>22.6000003814697265625</AltitudeMeters>
            <DistanceMeters>94604.660771609</DistanceMeters>
          </Trackpoint>
          <Trackpoint>
            <Time>2021-03-13T11:54:34.000Z</Time>
            <Position>
              <LatitudeDegrees>36.7165407724678516387939453125</LatitudeDegrees>
              <LongitudeDegrees>-4.30154283531010150909423828125</LongitudeDegrees>
            </Position>
            <AltitudeMeters>20.799999237060546875</AltitudeMeters>
            <DistanceMeters>94626.386380823</DistanceMeters>
          </Trackpoint>
          <Trackpoint>
            <Time>2021-03-13T11:54:36.000Z</Time>
            <Position>
              <LatitudeDegrees>36.71661528758704662322998046875</LatitudeDegrees>
              <LongitudeDegrees>-4.30171147920191287994384765625</LongitudeDegrees>
            </Position>
            <AltitudeMeters>19.799999237060546875</AltitudeMeters>
            <DistanceMeters>94643.567042592</DistanceMeters>
          </Trackpoint>
          <Trackpoint>
            <Time>2021-03-13T11:54:38.000Z</Time>
            <Position>
              <LatitudeDegrees>36.71667111106216907501220703125</LatitudeDegrees>
              <LongitudeDegrees>-4.301852546632289886474609375</LongitudeDegrees>
            </Position>
            <AltitudeMeters>18.3999996185302734375</AltitudeMeters>
            <DistanceMeters>94657.60303838</DistanceMeters>
          </Trackpoint>
          <Trackpoint>
            <Time>2021-03-13T11:54:39.000Z</Time>
            <Position>
              <LatitudeDegrees>36.71669206582009792327880859375</LatitudeDegrees>
              <LongitudeDegrees>-4.30191130377352237701416015625</LongitudeDegrees>
            </Position>
            <AltitudeMeters>17.799999237060546875</AltitudeMeters>
            <DistanceMeters>94663.340952523</DistanceMeters>
          </Trackpoint>
          <Trackpoint>
            <Time>2021-03-13T11:54:40.000Z</Time>
            <Position>
              <LatitudeDegrees>36.71669860370457172393798828125</LatitudeDegrees>
              <LongitudeDegrees>-4.30194231681525707244873046875</LongitudeDegrees>
            </Position>
            <AltitudeMeters>17.3999996185302734375</AltitudeMeters>
            <DistanceMeters>94666.201240841</DistanceMeters>
          </Trackpoint>
          <Trackpoint>
            <Time>2021-03-13T11:54:42.000Z</Time>
            <Position>
              <LatitudeDegrees>36.71670363284647464752197265625</LatitudeDegrees>
              <LongitudeDegrees>-4.30197500623762607574462890625</LongitudeDegrees>
            </Position>
            <AltitudeMeters>17</AltitudeMeters>
            <DistanceMeters>94669.169970301</DistanceMeters>
          </Trackpoint>
          <Trackpoint>
            <Time>2021-03-13T11:54:45.000Z</Time>
            <Position>
              <LatitudeDegrees>36.71670296229422092437744140625</LatitudeDegrees>
              <LongitudeDegrees>-4.3020461685955524444580078125</LongitudeDegrees>
            </Position>
            <AltitudeMeters>16.200000762939453125</AltitudeMeters>
            <DistanceMeters>94675.519717644</DistanceMeters>
          </Trackpoint>
          <Trackpoint>
            <Time>2021-03-13T11:54:47.000Z</Time>
            <Position>
              <LatitudeDegrees>36.71670497395098209381103515625</LatitudeDegrees>
              <LongitudeDegrees>-4.30212755687534809112548828125</LongitudeDegrees>
            </Position>
            <AltitudeMeters>15.80000019073486328125</AltitudeMeters>
            <DistanceMeters>94682.784756998</DistanceMeters>
          </Trackpoint>
          <Trackpoint>
            <Time>2021-03-13T11:54:49.000Z</Time>
            <Position>
              <LatitudeDegrees>36.7166966758668422698974609375</LatitudeDegrees>
              <LongitudeDegrees>-4.30226149968802928924560546875</LongitudeDegrees>
            </Position>
            <AltitudeMeters>15.3999996185302734375</AltitudeMeters>
            <DistanceMeters>94694.770560524</DistanceMeters>
          </Trackpoint>
          <Trackpoint>
            <Time>2021-03-13T11:54:50.000Z</Time>
            <Position>
              <LatitudeDegrees>36.7166799120604991912841796875</LatitudeDegrees>
              <LongitudeDegrees>-4.30233609862625598907470703125</LongitudeDegrees>
            </Position>
            <AltitudeMeters>15</AltitudeMeters>
            <DistanceMeters>94701.682080211</DistanceMeters>
          </Trackpoint>
          <Trackpoint>
            <Time>2021-03-13T11:54:51.000Z</Time>
            <Position>
              <LatitudeDegrees>36.7166561074554920196533203125</LatitudeDegrees>
              <LongitudeDegrees>-4.3024166487157344818115234375</LongitudeDegrees>
            </Position>
            <AltitudeMeters>14.80000019073486328125</AltitudeMeters>
            <DistanceMeters>94709.341021168</DistanceMeters>
          </Trackpoint>
          <Trackpoint>
            <Time>2021-03-13T11:54:55.000Z</Time>
            <Position>
              <LatitudeDegrees>36.71653096564114093780517578125</LatitudeDegrees>
              <LongitudeDegrees>-4.3027948401868343353271484375</LongitudeDegrees>
            </Position>
            <AltitudeMeters>13.80000019073486328125</AltitudeMeters>
            <DistanceMeters>94745.845134918</DistanceMeters>
          </Trackpoint>
          <Trackpoint>
            <Time>2021-03-13T11:54:57.000Z</Time>
            <Position>
              <LatitudeDegrees>36.71645770780742168426513671875</LatitudeDegrees>
              <LongitudeDegrees>-4.30300866253674030303955078125</LongitudeDegrees>
            </Position>
            <AltitudeMeters>12.6000003814697265625</AltitudeMeters>
            <DistanceMeters>94766.591667006</DistanceMeters>
          </Trackpoint>
          <Trackpoint>
            <Time>2021-03-13T11:54:59.000Z</Time>
            <Position>
              <LatitudeDegrees>36.7163808457553386688232421875</LatitudeDegrees>
              <LongitudeDegrees>-4.303236901760101318359375</LongitudeDegrees>
            </Position>
            <AltitudeMeters>11.3999996185302734375</AltitudeMeters>
            <DistanceMeters>94788.679195387</DistanceMeters>
          </Trackpoint>
          <Trackpoint>
            <Time>2021-03-13T11:55:01.000Z</Time>
            <Position>
              <LatitudeDegrees>36.71630532480776309967041015625</LatitudeDegrees>
              <LongitudeDegrees>-4.303473271429538726806640625</LongitudeDegrees>
            </Position>
            <AltitudeMeters>10.19999980926513671875</AltitudeMeters>
            <DistanceMeters>94811.381632329</DistanceMeters>
          </Trackpoint>
          <Trackpoint>
            <Time>2021-03-13T11:55:04.000Z</Time>
            <Position>
              <LatitudeDegrees>36.716203987598419189453125</LatitudeDegrees>
              <LongitudeDegrees>-4.3038310110569000244140625</LongitudeDegrees>
            </Position>
            <AltitudeMeters>9.19999980926513671875</AltitudeMeters>
            <DistanceMeters>94845.233557253</DistanceMeters>
          </Trackpoint>
          <Trackpoint>
            <Time>2021-03-13T11:55:07.000Z</Time>
            <Position>
              <LatitudeDegrees>36.71612377278506755828857421875</LatitudeDegrees>
              <LongitudeDegrees>-4.30414726026356220245361328125</LongitudeDegrees>
            </Position>
            <AltitudeMeters>8.6000003814697265625</AltitudeMeters>
            <DistanceMeters>94874.828238776</DistanceMeters>
          </Trackpoint>
          <Trackpoint>
            <Time>2021-03-13T11:55:10.000Z</Time>
            <Position>
              <LatitudeDegrees>36.71609058044850826263427734375</LatitudeDegrees>
              <LongitudeDegrees>-4.30429696105420589447021484375</LongitudeDegrees>
            </Position>
            <AltitudeMeters>8.19999980926513671875</AltitudeMeters>
            <DistanceMeters>94888.685857823</DistanceMeters>
          </Trackpoint>
          <Trackpoint>
            <Time>2021-03-13T11:55:14.000Z</Time>
            <Position>
              <LatitudeDegrees>36.71608236618340015411376953125</LatitudeDegrees>
              <LongitudeDegrees>-4.30436502210795879364013671875</LongitudeDegrees>
            </Position>
            <AltitudeMeters>8.19999980926513671875</AltitudeMeters>
            <DistanceMeters>94894.826672039</DistanceMeters>
          </Trackpoint>
          <Trackpoint>
            <Time>2021-03-13T11:55:19.000Z</Time>
            <Position>
              <LatitudeDegrees>36.71605445444583892822265625</LatitudeDegrees>
              <LongitudeDegrees>-4.30452779866755008697509765625</LongitudeDegrees>
            </Position>
            <AltitudeMeters>8</AltitudeMeters>
            <DistanceMeters>94909.678225736</DistanceMeters>
          </Trackpoint>
          <Trackpoint>
            <Time>2021-03-13T11:55:24.000Z</Time>
            <Position>
              <LatitudeDegrees>36.715990416705608367919921875</LatitudeDegrees>
              <LongitudeDegrees>-4.3048098497092723846435546875</LongitudeDegrees>
            </Position>
            <AltitudeMeters>7.599999904632568359375</AltitudeMeters>
            <DistanceMeters>94935.833023403</DistanceMeters>
          </Trackpoint>
          <Trackpoint>
            <Time>2021-03-13T11:55:29.000Z</Time>
            <Position>
              <LatitudeDegrees>36.71591020189225673675537109375</LatitudeDegrees>
              <LongitudeDegrees>-4.30524042807519435882568359375</LongitudeDegrees>
            </Position>
            <AltitudeMeters>7.19999980926513671875</AltitudeMeters>
            <DistanceMeters>94975.27334577</DistanceMeters>
          </Trackpoint>
          <Trackpoint>
            <Time>2021-03-13T11:55:30.000Z</Time>
            <Position>
              <LatitudeDegrees>36.71589042060077190399169921875</LatitudeDegrees>
              <LongitudeDegrees>-4.3053369037806987762451171875</LongitudeDegrees>
            </Position>
            <AltitudeMeters>7</AltitudeMeters>
            <DistanceMeters>94984.158216522</DistanceMeters>
          </Trackpoint>
          <Trackpoint>
            <Time>2021-03-13T11:55:35.000Z</Time>
            <Position>
              <LatitudeDegrees>36.71578162349760532379150390625</LatitudeDegrees>
              <LongitudeDegrees>-4.305844344198703765869140625</LongitudeDegrees>
            </Position>
            <AltitudeMeters>6.400000095367431640625</AltitudeMeters>
            <DistanceMeters>95031.024020191</DistanceMeters>
          </Trackpoint>
          <Trackpoint>
            <Time>2021-03-13T11:55:39.000Z</Time>
            <Position>
              <LatitudeDegrees>36.71569629572331905364990234375</LatitudeDegrees>
              <LongitudeDegrees>-4.30626939050853252410888671875</LongitudeDegrees>
            </Position>
            <AltitudeMeters>6</AltitudeMeters>
            <DistanceMeters>95070.118246086</DistanceMeters>
          </Trackpoint>
          <Trackpoint>
            <Time>2021-03-13T11:55:43.000Z</Time>
            <Position>
              <LatitudeDegrees>36.7156211100518703460693359375</LatitudeDegrees>
              <LongitudeDegrees>-4.306686222553253173828125</LongitudeDegrees>
            </Position>
            <AltitudeMeters>5.80000019073486328125</AltitudeMeters>
            <DistanceMeters>95108.238292801</DistanceMeters>
          </Trackpoint>
          <Trackpoint>
            <Time>2021-03-13T11:55:46.000Z</Time>
            <Position>
              <LatitudeDegrees>36.715563274919986724853515625</LatitudeDegrees>
              <LongitudeDegrees>-4.30704186670482158660888671875</LongitudeDegrees>
            </Position>
            <AltitudeMeters>5.599999904632568359375</AltitudeMeters>
            <DistanceMeters>95140.615499509</DistanceMeters>
          </Trackpoint>
          <Trackpoint>
            <Time>2021-03-13T11:55:48.000Z</Time>
            <Position>
              <LatitudeDegrees>36.71554215252399444580078125</LatitudeDegrees>
              <LongitudeDegrees>-4.30726717226207256317138671875</LongitudeDegrees>
            </Position>
            <AltitudeMeters>5.599999904632568359375</AltitudeMeters>
            <DistanceMeters>95160.854628138</DistanceMeters>
          </Trackpoint>
          <Trackpoint>
            <Time>2021-03-13T11:55:55.000Z</Time>
            <Position>
              <LatitudeDegrees>36.71549647115170955657958984375</LatitudeDegrees>
              <LongitudeDegrees>-4.30802271701395511627197265625</LongitudeDegrees>
            </Position>
            <AltitudeMeters>6.19999980926513671875</AltitudeMeters>
            <DistanceMeters>95228.456768989</DistanceMeters>
          </Trackpoint>
          <Trackpoint>
            <Time>2021-03-13T11:55:56.000Z</Time>
            <Position>
              <LatitudeDegrees>36.71549513004720211029052734375</LatitudeDegrees>
              <LongitudeDegrees>-4.3081119842827320098876953125</LongitudeDegrees>
            </Position>
            <AltitudeMeters>6.19999980926513671875</AltitudeMeters>
            <DistanceMeters>95236.423159467</DistanceMeters>
          </Trackpoint>
          <Trackpoint>
            <Time>2021-03-13T11:55:59.000Z</Time>
            <Position>
              <LatitudeDegrees>36.7155094631016254425048828125</LatitudeDegrees>
              <LongitudeDegrees>-4.30826663039624691009521484375</LongitudeDegrees>
            </Position>
            <AltitudeMeters>6.80000019073486328125</AltitudeMeters>
            <DistanceMeters>95250.312671811</DistanceMeters>
          </Trackpoint>
          <Trackpoint>
            <Time>2021-03-13T11:56:01.000Z</Time>
            <Position>
              <LatitudeDegrees>36.7155228741466999053955078125</LatitudeDegrees>
              <LongitudeDegrees>-4.30837810970842838287353515625</LongitudeDegrees>
            </Position>
            <AltitudeMeters>7.19999980926513671875</AltitudeMeters>
            <DistanceMeters>95260.370251854</DistanceMeters>
          </Trackpoint>
          <Trackpoint>
            <Time>2021-03-13T11:56:03.000Z</Time>
            <Position>
              <LatitudeDegrees>36.71549781225621700286865234375</LatitudeDegrees>
              <LongitudeDegrees>-4.30849227122962474822998046875</LongitudeDegrees>
            </Position>
            <AltitudeMeters>7.400000095367431640625</AltitudeMeters>
            <DistanceMeters>95270.931478309</DistanceMeters>
          </Trackpoint>
          <Trackpoint>
            <Time>2021-03-13T11:56:05.000Z</Time>
            <Position>
              <LatitudeDegrees>36.71545841731131076812744140625</LatitudeDegrees>
              <LongitudeDegrees>-4.30861003696918487548828125</LongitudeDegrees>
            </Position>
            <AltitudeMeters>7.80000019073486328125</AltitudeMeters>
            <DistanceMeters>95282.316852583</DistanceMeters>
          </Trackpoint>
          <Trackpoint>
            <Time>2021-03-13T11:56:08.000Z</Time>
            <Position>
              <LatitudeDegrees>36.71543712727725505828857421875</LatitudeDegrees>
              <LongitudeDegrees>-4.30873484350740909576416015625</LongitudeDegrees>
            </Position>
            <AltitudeMeters>8</AltitudeMeters>
            <DistanceMeters>95293.701830285</DistanceMeters>
          </Trackpoint>
          <Trackpoint>
            <Time>2021-03-13T11:56:11.000Z</Time>
            <Position>
              <LatitudeDegrees>36.715423800051212310791015625</LatitudeDegrees>
              <LongitudeDegrees>-4.3088502623140811920166015625</LongitudeDegrees>
            </Position>
            <AltitudeMeters>8.6000003814697265625</AltitudeMeters>
            <DistanceMeters>95304.105845199</DistanceMeters>
          </Trackpoint>
          <Trackpoint>
            <Time>2021-03-13T11:56:15.000Z</Time>
            <Position>
              <LatitudeDegrees>36.71541608870029449462890625</LatitudeDegrees>
              <LongitudeDegrees>-4.3089816905558109283447265625</LongitudeDegrees>
            </Position>
            <AltitudeMeters>8.80000019073486328125</AltitudeMeters>
            <DistanceMeters>95315.863841217</DistanceMeters>
          </Trackpoint>
          <Trackpoint>
            <Time>2021-03-13T11:56:19.000Z</Time>
            <Position>
              <LatitudeDegrees>36.71541818417608737945556640625</LatitudeDegrees>
              <LongitudeDegrees>-4.30907799862325191497802734375</LongitudeDegrees>
            </Position>
            <AltitudeMeters>9</AltitudeMeters>
            <DistanceMeters>95324.459426448</DistanceMeters>
          </Trackpoint>
          <Trackpoint>
            <Time>2021-03-13T11:56:20.000Z</Time>
            <Position>
              <LatitudeDegrees>36.7154199443757534027099609375</LatitudeDegrees>
              <LongitudeDegrees>-4.30910314433276653289794921875</LongitudeDegrees>
            </Position>
            <AltitudeMeters>9.19999980926513671875</AltitudeMeters>
            <DistanceMeters>95326.708168943</DistanceMeters>
          </Trackpoint>
          <Trackpoint>
            <Time>2021-03-13T11:56:23.000Z</Time>
            <Position>
              <LatitudeDegrees>36.71541298739612102508544921875</LatitudeDegrees>
              <LongitudeDegrees>-4.30916768498718738555908203125</LongitudeDegrees>
            </Position>
            <AltitudeMeters>9.19999980926513671875</AltitudeMeters>
            <DistanceMeters>95332.518024858</DistanceMeters>
          </Trackpoint>
          <Trackpoint>
            <Time>2021-03-13T11:56:25.000Z</Time>
            <Position>
              <LatitudeDegrees>36.7154092155396938323974609375</LatitudeDegrees>
              <LongitudeDegrees>-4.30920138023793697357177734375</LongitudeDegrees>
            </Position>
            <AltitudeMeters>9.19999980926513671875</AltitudeMeters>
            <DistanceMeters>95335.554422073</DistanceMeters>
          </Trackpoint>
          <Trackpoint>
            <Time>2021-03-13T11:56:26.000Z</Time>
            <Position>
              <LatitudeDegrees>36.71540628187358379364013671875</LatitudeDegrees>
              <LongitudeDegrees>-4.30921881459653377532958984375</LongitudeDegrees>
            </Position>
            <AltitudeMeters>9.3999996185302734375</AltitudeMeters>
            <DistanceMeters>95337.14452314</DistanceMeters>
          </Trackpoint>
          <Trackpoint>
            <Time>2021-03-13T11:56:27.000Z</Time>
            <Position>
              <LatitudeDegrees>36.7154025100171566009521484375</LatitudeDegrees>
              <LongitudeDegrees>-4.30922937579452991485595703125</LongitudeDegrees>
            </Position>
            <AltitudeMeters>9.3999996185302734375</AltitudeMeters>
            <DistanceMeters>95338.167992176</DistanceMeters>
          </Trackpoint>
          <Trackpoint>
            <Time>2021-03-13T11:56:30.000Z</Time>
            <Position>
              <LatitudeDegrees>36.71539806760847568511962890625</LatitudeDegrees>
              <LongitudeDegrees>-4.30924027226865291595458984375</LongitudeDegrees>
            </Position>
            <AltitudeMeters>9.3999996185302734375</AltitudeMeters>
            <DistanceMeters>95339.259766004</DistanceMeters>
          </Trackpoint>
          <Trackpoint>
            <Time>2021-03-13T11:56:34.000Z</Time>
            <Position>
              <LatitudeDegrees>36.71539052389562129974365234375</LatitudeDegrees>
              <LongitudeDegrees>-4.30928452871739864349365234375</LongitudeDegrees>
            </Position>
            <AltitudeMeters>9.3999996185302734375</AltitudeMeters>
            <DistanceMeters>95343.298121865</DistanceMeters>
          </Trackpoint>
          <Trackpoint>
            <Time>2021-03-13T11:56:36.000Z</Time>
            <Position>
              <LatitudeDegrees>36.7153844051063060760498046875</LatitudeDegrees>
              <LongitudeDegrees>-4.309318475425243377685546875</LongitudeDegrees>
            </Position>
            <AltitudeMeters>9.3999996185302734375</AltitudeMeters>
            <DistanceMeters>95346.403620479</DistanceMeters>
          </Trackpoint>
          <Trackpoint>
            <Time>2021-03-13T11:56:40.000Z</Time>
            <Position>
              <LatitudeDegrees>36.715376190841197967529296875</LatitudeDegrees>
              <LongitudeDegrees>-4.30936834774911403656005859375</LongitudeDegrees>
            </Position>
            <AltitudeMeters>9.19999980926513671875</AltitudeMeters>
            <DistanceMeters>95350.946056463</DistanceMeters>
          </Trackpoint>
          <Trackpoint>
            <Time>2021-03-13T11:56:42.000Z</Time>
            <Position>
              <LatitudeDegrees>36.71535599045455455780029296875</LatitudeDegrees>
              <LongitudeDegrees>-4.309437163174152374267578125</LongitudeDegrees>
            </Position>
            <AltitudeMeters>9.19999980926513671875</AltitudeMeters>
            <DistanceMeters>95357.484971661</DistanceMeters>
          </Trackpoint>
          <Trackpoint>
            <Time>2021-03-13T11:56:45.000Z</Time>
            <Position>
              <LatitudeDegrees>36.715329587459564208984375</LatitudeDegrees>
              <LongitudeDegrees>-4.3096193857491016387939453125</LongitudeDegrees>
            </Position>
            <AltitudeMeters>8.80000019073486328125</AltitudeMeters>
            <DistanceMeters>95374.006780909</DistanceMeters>
          </Trackpoint>
          <Trackpoint>
            <Time>2021-03-13T11:56:48.000Z</Time>
            <Position>
              <LatitudeDegrees>36.71532346867024898529052734375</LatitudeDegrees>
              <LongitudeDegrees>-4.30984460748732089996337890625</LongitudeDegrees>
            </Position>
            <AltitudeMeters>8.3999996185302734375</AltitudeMeters>
            <DistanceMeters>95394.112736051</DistanceMeters>
          </Trackpoint>
          <Trackpoint>
            <Time>2021-03-13T11:56:52.000Z</Time>
            <Position>
              <LatitudeDegrees>36.7153099738061428070068359375</LatitudeDegrees>
              <LongitudeDegrees>-4.31008935905992984771728515625</LongitudeDegrees>
            </Position>
            <AltitudeMeters>8</AltitudeMeters>
            <DistanceMeters>95416.001495631</DistanceMeters>
          </Trackpoint>
          <Trackpoint>
            <Time>2021-03-13T11:56:53.000Z</Time>
            <Position>
              <LatitudeDegrees>36.7153049446642398834228515625</LatitudeDegrees>
              <LongitudeDegrees>-4.31015004403889179229736328125</LongitudeDegrees>
            </Position>
            <AltitudeMeters>7.80000019073486328125</AltitudeMeters>
            <DistanceMeters>95421.444627157</DistanceMeters>
          </Trackpoint>
          <Trackpoint>
            <Time>2021-03-13T11:56:55.000Z</Time>
            <Position>
              <LatitudeDegrees>36.715297400951385498046875</LatitudeDegrees>
              <LongitudeDegrees>-4.3102731741964817047119140625</LongitudeDegrees>
            </Position>
            <AltitudeMeters>7.80000019073486328125</AltitudeMeters>
            <DistanceMeters>95432.462399965</DistanceMeters>
          </Trackpoint>
          <Trackpoint>
            <Time>2021-03-13T11:56:58.000Z</Time>
            <Position>
              <LatitudeDegrees>36.71528088860213756561279296875</LatitudeDegrees>
              <LongitudeDegrees>-4.31050308980047702789306640625</LongitudeDegrees>
            </Position>
            <AltitudeMeters>7.80000019073486328125</AltitudeMeters>
            <DistanceMeters>95453.058001701</DistanceMeters>
          </Trackpoint>
          <Trackpoint>
            <Time>2021-03-13T11:57:02.000Z</Time>
            <Position>
              <LatitudeDegrees>36.7152593471109867095947265625</LatitudeDegrees>
              <LongitudeDegrees>-4.31066326797008514404296875</LongitudeDegrees>
            </Position>
            <AltitudeMeters>7.80000019073486328125</AltitudeMeters>
            <DistanceMeters>95467.548874609</DistanceMeters>
          </Trackpoint>
          <Trackpoint>
            <Time>2021-03-13T11:57:03.000Z</Time>
            <Position>
              <LatitudeDegrees>36.71526697464287281036376953125</LatitudeDegrees>
              <LongitudeDegrees>-4.31069352664053440093994140625</LongitudeDegrees>
            </Position>
            <AltitudeMeters>7.80000019073486328125</AltitudeMeters>
            <DistanceMeters>95470.377416235</DistanceMeters>
          </Trackpoint>
          <Trackpoint>
            <Time>2021-03-13T11:57:06.000Z</Time>
            <Position>
              <LatitudeDegrees>36.71528038568794727325439453125</LatitudeDegrees>
              <LongitudeDegrees>-4.3107371963560581207275390625</LongitudeDegrees>
            </Position>
            <AltitudeMeters>7.599999904632568359375</AltitudeMeters>
            <DistanceMeters>95474.549943932</DistanceMeters>
          </Trackpoint>
          <Trackpoint>
            <Time>2021-03-13T11:57:12.000Z</Time>
            <Position>
              <LatitudeDegrees>36.71528038568794727325439453125</LatitudeDegrees>
              <LongitudeDegrees>-4.3107371963560581207275390625</LongitudeDegrees>
            </Position>
            <AltitudeMeters>7.599999904632568359375</AltitudeMeters>
            <DistanceMeters>95474.549943932</DistanceMeters>
          </Trackpoint>
          <Trackpoint>
            <Time>2021-03-13T11:57:13.000Z</Time>
            <Position>
              <LatitudeDegrees>36.71528038568794727325439453125</LatitudeDegrees>
              <LongitudeDegrees>-4.3107371963560581207275390625</LongitudeDegrees>
            </Position>
            <AltitudeMeters>7.599999904632568359375</AltitudeMeters>
            <DistanceMeters>95474.549943932</DistanceMeters>
          </Trackpoint>
          <Trackpoint>
            <Time>2021-03-13T11:57:28.000Z</Time>
            <Position>
              <LatitudeDegrees>36.71528038568794727325439453125</LatitudeDegrees>
              <LongitudeDegrees>-4.3107371963560581207275390625</LongitudeDegrees>
            </Position>
            <AltitudeMeters>7.19999980926513671875</AltitudeMeters>
            <DistanceMeters>95474.549943932</DistanceMeters>
          </Trackpoint>
          <Trackpoint>
            <Time>2021-03-13T11:57:31.000Z</Time>
            <Position>
              <LatitudeDegrees>36.71528038568794727325439453125</LatitudeDegrees>
              <LongitudeDegrees>-4.3107371963560581207275390625</LongitudeDegrees>
            </Position>
            <AltitudeMeters>7.19999980926513671875</AltitudeMeters>
            <DistanceMeters>95474.549943932</DistanceMeters>
          </Trackpoint>
          <Trackpoint>
            <Time>2021-03-13T11:57:39.000Z</Time>
            <Position>
              <LatitudeDegrees>36.71528038568794727325439453125</LatitudeDegrees>
              <LongitudeDegrees>-4.3107371963560581207275390625</LongitudeDegrees>
            </Position>
            <AltitudeMeters>7.19999980926513671875</AltitudeMeters>
            <DistanceMeters>95474.549943932</DistanceMeters>
          </Trackpoint>
          <Trackpoint>
            <Time>2021-03-13T11:57:40.000Z</Time>
            <Position>
              <LatitudeDegrees>36.7152804695069789886474609375</LatitudeDegrees>
              <LongitudeDegrees>-4.31073878891766071319580078125</LongitudeDegrees>
            </Position>
            <AltitudeMeters>7.19999980926513671875</AltitudeMeters>
            <DistanceMeters>95474.684332</DistanceMeters>
          </Trackpoint>
          <Trackpoint>
            <Time>2021-03-13T11:57:43.000Z</Time>
            <Position>
              <LatitudeDegrees>36.71527334488928318023681640625</LatitudeDegrees>
              <LongitudeDegrees>-4.31084222160279750823974609375</LongitudeDegrees>
            </Position>
            <AltitudeMeters>7.19999980926513671875</AltitudeMeters>
            <DistanceMeters>95483.946390422</DistanceMeters>
          </Trackpoint>
          <Trackpoint>
            <Time>2021-03-13T11:57:46.000Z</Time>
            <Position>
              <LatitudeDegrees>36.7152573354542255401611328125</LatitudeDegrees>
              <LongitudeDegrees>-4.3109764158725738525390625</LongitudeDegrees>
            </Position>
            <AltitudeMeters>7.19999980926513671875</AltitudeMeters>
            <DistanceMeters>95496.051018479</DistanceMeters>
          </Trackpoint>
          <Trackpoint>
            <Time>2021-03-13T11:57:48.000Z</Time>
            <Position>
              <LatitudeDegrees>36.7152529768645763397216796875</LatitudeDegrees>
              <LongitudeDegrees>-4.31110993959009647369384765625</LongitudeDegrees>
            </Position>
            <AltitudeMeters>7.19999980926513671875</AltitudeMeters>
            <DistanceMeters>95507.974126021</DistanceMeters>
          </Trackpoint>
          <Trackpoint>
            <Time>2021-03-13T11:57:53.000Z</Time>
            <Position>
              <LatitudeDegrees>36.7152700759470462799072265625</LatitudeDegrees>
              <LongitudeDegrees>-4.311485700309276580810546875</LongitudeDegrees>
            </Position>
            <AltitudeMeters>7.400000095367431640625</AltitudeMeters>
            <DistanceMeters>95541.553937004</DistanceMeters>
          </Trackpoint>
          <Trackpoint>
            <Time>2021-03-13T11:57:54.000Z</Time>
            <Position>
              <LatitudeDegrees>36.715273596346378326416015625</LatitudeDegrees>
              <LongitudeDegrees>-4.31157345883548259735107421875</LongitudeDegrees>
            </Position>
            <AltitudeMeters>7.400000095367431640625</AltitudeMeters>
            <DistanceMeters>95549.393496959</DistanceMeters>
          </Trackpoint>
          <Trackpoint>
            <Time>2021-03-13T11:57:57.000Z</Time>
            <Position>
              <LatitudeDegrees>36.71525943093001842498779296875</LatitudeDegrees>
              <LongitudeDegrees>-4.3118332140147686004638671875</LongitudeDegrees>
            </Position>
            <AltitudeMeters>7.400000095367431640625</AltitudeMeters>
            <DistanceMeters>95572.622815674</DistanceMeters>
          </Trackpoint>
          <Trackpoint>
            <Time>2021-03-13T11:57:59.000Z</Time>
            <Position>
              <LatitudeDegrees>36.7152439244091510772705078125</LatitudeDegrees>
              <LongitudeDegrees>-4.3120424263179302215576171875</LongitudeDegrees>
            </Position>
            <AltitudeMeters>7.400000095367431640625</AltitudeMeters>
            <DistanceMeters>95591.368867389</DistanceMeters>
          </Trackpoint>
          <Trackpoint>
            <Time>2021-03-13T11:58:01.000Z</Time>
            <Position>
              <LatitudeDegrees>36.71523042954504489898681640625</LatitudeDegrees>
              <LongitudeDegrees>-4.31222833693027496337890625</LongitudeDegrees>
            </Position>
            <AltitudeMeters>7.400000095367431640625</AltitudeMeters>
            <DistanceMeters>95608.02404431</DistanceMeters>
          </Trackpoint>
          <Trackpoint>
            <Time>2021-03-13T11:58:09.000Z</Time>
            <Position>
              <LatitudeDegrees>36.7151995003223419189453125</LatitudeDegrees>
              <LongitudeDegrees>-4.31296502240002155303955078125</LongitudeDegrees>
            </Position>
            <AltitudeMeters>7.19999980926513671875</AltitudeMeters>
            <DistanceMeters>95673.842375746</DistanceMeters>
          </Trackpoint>
          <Trackpoint>
            <Time>2021-03-13T11:58:10.000Z</Time>
            <Position>
              <LatitudeDegrees>36.71519237570464611053466796875</LatitudeDegrees>
              <LongitudeDegrees>-4.31305169127881526947021484375</LongitudeDegrees>
            </Position>
            <AltitudeMeters>7.19999980926513671875</AltitudeMeters>
            <DistanceMeters>95681.616002413</DistanceMeters>
          </Trackpoint>
          <Trackpoint>
            <Time>2021-03-13T11:58:12.000Z</Time>
            <Position>
              <LatitudeDegrees>36.7151768691837787628173828125</LatitudeDegrees>
              <LongitudeDegrees>-4.31320256553590297698974609375</LongitudeDegrees>
            </Position>
            <AltitudeMeters>7.19999980926513671875</AltitudeMeters>
            <DistanceMeters>95695.187866666</DistanceMeters>
          </Trackpoint>
          <Trackpoint>
            <Time>2021-03-13T11:58:15.000Z</Time>
            <Position>
              <LatitudeDegrees>36.71515415422618389129638671875</LatitudeDegrees>
              <LongitudeDegrees>-4.3134438805282115936279296875</LongitudeDegrees>
            </Position>
            <AltitudeMeters>7.19999980926513671875</AltitudeMeters>
            <DistanceMeters>95716.866249179</DistanceMeters>
          </Trackpoint>
          <Trackpoint>
            <Time>2021-03-13T11:58:18.000Z</Time>
            <Position>
              <LatitudeDegrees>36.71513671986758708953857421875</LatitudeDegrees>
              <LongitudeDegrees>-4.31370564736425876617431640625</LongitudeDegrees>
            </Position>
            <AltitudeMeters>7.400000095367431640625</AltitudeMeters>
            <DistanceMeters>95740.301848371</DistanceMeters>
          </Trackpoint>
          <Trackpoint>
            <Time>2021-03-13T11:58:20.000Z</Time>
            <Position>
              <LatitudeDegrees>36.7151269130408763885498046875</LatitudeDegrees>
              <LongitudeDegrees>-4.3138559348881244659423828125</LongitudeDegrees>
            </Position>
            <AltitudeMeters>7.599999904632568359375</AltitudeMeters>
            <DistanceMeters>95753.755094156</DistanceMeters>
          </Trackpoint>
          <Trackpoint>
            <Time>2021-03-13T11:58:22.000Z</Time>
            <Position>
              <LatitudeDegrees>36.71511744149029254913330078125</LatitudeDegrees>
              <LongitudeDegrees>-4.31398593820631504058837890625</LongitudeDegrees>
            </Position>
            <AltitudeMeters>7.80000019073486328125</AltitudeMeters>
            <DistanceMeters>95765.401973925</DistanceMeters>
          </Trackpoint>
          <Trackpoint>
            <Time>2021-03-13T11:58:25.000Z</Time>
            <Position>
              <LatitudeDegrees>36.71511408872902393341064453125</LatitudeDegrees>
              <LongitudeDegrees>-4.3141989223659038543701171875</LongitudeDegrees>
            </Position>
            <AltitudeMeters>8.3999996185302734375</AltitudeMeters>
            <DistanceMeters>95784.408504596</DistanceMeters>
          </Trackpoint>
          <Trackpoint>
            <Time>2021-03-13T11:58:26.000Z</Time>
            <Position>
              <LatitudeDegrees>36.7151235602796077728271484375</LatitudeDegrees>
              <LongitudeDegrees>-4.31427444331347942352294921875</LongitudeDegrees>
            </Position>
            <AltitudeMeters>8.6000003814697265625</AltitudeMeters>
            <DistanceMeters>95791.229278294</DistanceMeters>
          </Trackpoint>
          <Trackpoint>
            <Time>2021-03-13T11:58:27.000Z</Time>
            <Position>
              <LatitudeDegrees>36.7151378095149993896484375</LatitudeDegrees>
              <LongitudeDegrees>-4.3143508024513721466064453125</LongitudeDegrees>
            </Position>
            <AltitudeMeters>8.80000019073486328125</AltitudeMeters>
            <DistanceMeters>95798.223915823</DistanceMeters>
          </Trackpoint>
          <Trackpoint>
            <Time>2021-03-13T11:58:29.000Z</Time>
            <Position>
              <LatitudeDegrees>36.715173013508319854736328125</LatitudeDegrees>
              <LongitudeDegrees>-4.31452254764735698699951171875</LongitudeDegrees>
            </Position>
            <AltitudeMeters>9.19999980926513671875</AltitudeMeters>
            <DistanceMeters>95814.040084059</DistanceMeters>
          </Trackpoint>
          <Trackpoint>
            <Time>2021-03-13T11:58:30.000Z</Time>
            <Position>
              <LatitudeDegrees>36.71519304625689983367919921875</LatitudeDegrees>
              <LongitudeDegrees>-4.31460049934685230255126953125</LongitudeDegrees>
            </Position>
            <AltitudeMeters>9.3999996185302734375</AltitudeMeters>
            <DistanceMeters>95821.344171382</DistanceMeters>
          </Trackpoint>
          <Trackpoint>
            <Time>2021-03-13T11:58:32.000Z</Time>
            <Position>
              <LatitudeDegrees>36.715230010449886322021484375</LatitudeDegrees>
              <LongitudeDegrees>-4.3147336877882480621337890625</LongitudeDegrees>
            </Position>
            <AltitudeMeters>9.6000003814697265625</AltitudeMeters>
            <DistanceMeters>95833.919333357</DistanceMeters>
          </Trackpoint>
          <Trackpoint>
            <Time>2021-03-13T11:58:34.000Z</Time>
            <Position>
              <LatitudeDegrees>36.71526722609996795654296875</LatitudeDegrees>
              <LongitudeDegrees>-4.31487207300961017608642578125</LongitudeDegrees>
            </Position>
            <AltitudeMeters>10.19999980926513671875</AltitudeMeters>
            <DistanceMeters>95846.942501012</DistanceMeters>
          </Trackpoint>
          <Trackpoint>
            <Time>2021-03-13T11:58:37.000Z</Time>
            <Position>
              <LatitudeDegrees>36.7153079621493816375732421875</LatitudeDegrees>
              <LongitudeDegrees>-4.31506854481995105743408203125</LongitudeDegrees>
            </Position>
            <AltitudeMeters>12</AltitudeMeters>
            <DistanceMeters>95865.049017943</DistanceMeters>
          </Trackpoint>
          <Trackpoint>
            <Time>2021-03-13T11:58:38.000Z</Time>
            <Position>
              <LatitudeDegrees>36.7153123207390308380126953125</LatitudeDegrees>
              <LongitudeDegrees>-4.3151400424540042877197265625</LongitudeDegrees>
            </Position>
            <AltitudeMeters>12.3999996185302734375</AltitudeMeters>
            <DistanceMeters>95871.446228776</DistanceMeters>
          </Trackpoint>
          <Trackpoint>
            <Time>2021-03-13T11:58:39.000Z</Time>
            <Position>
              <LatitudeDegrees>36.7153103090822696685791015625</LatitudeDegrees>
              <LongitudeDegrees>-4.31521221064031124114990234375</LongitudeDegrees>
            </Position>
            <AltitudeMeters>13</AltitudeMeters>
            <DistanceMeters>95877.888451323</DistanceMeters>
          </Trackpoint>
          <Trackpoint>
            <Time>2021-03-13T11:58:40.000Z</Time>
            <Position>
              <LatitudeDegrees>36.71530452556908130645751953125</LatitudeDegrees>
              <LongitudeDegrees>-4.3152845464646816253662109375</LongitudeDegrees>
            </Position>
            <AltitudeMeters>13.19999980926513671875</AltitudeMeters>
            <DistanceMeters>95884.373981068</DistanceMeters>
          </Trackpoint>
          <Trackpoint>
            <Time>2021-03-13T11:58:44.000Z</Time>
            <Position>
              <LatitudeDegrees>36.7152248136699199676513671875</LatitudeDegrees>
              <LongitudeDegrees>-4.3155896477401256561279296875</LongitudeDegrees>
            </Position>
            <AltitudeMeters>14</AltitudeMeters>
            <DistanceMeters>95913.004948209</DistanceMeters>
          </Trackpoint>
          <Trackpoint>
            <Time>2021-03-13T11:58:45.000Z</Time>
            <Position>
              <LatitudeDegrees>36.715195141732692718505859375</LatitudeDegrees>
              <LongitudeDegrees>-4.31566114537417888641357421875</LongitudeDegrees>
            </Position>
            <AltitudeMeters>14.19999980926513671875</AltitudeMeters>
            <DistanceMeters>95920.188113027</DistanceMeters>
          </Trackpoint>
          <Trackpoint>
            <Time>2021-03-13T11:58:50.000Z</Time>
            <Position>
              <LatitudeDegrees>36.71500897966325283050537109375</LatitudeDegrees>
              <LongitudeDegrees>-4.31601871736347675323486328125</LongitudeDegrees>
            </Position>
            <AltitudeMeters>14.3999996185302734375</AltitudeMeters>
            <DistanceMeters>95958.229432546</DistanceMeters>
          </Trackpoint>
          <Trackpoint>
            <Time>2021-03-13T11:58:55.000Z</Time>
            <Position>
              <LatitudeDegrees>36.71482910402119159698486328125</LatitudeDegrees>
              <LongitudeDegrees>-4.3163869343698024749755859375</LongitudeDegrees>
            </Position>
            <AltitudeMeters>14.19999980926513671875</AltitudeMeters>
            <DistanceMeters>95996.701992768</DistanceMeters>
          </Trackpoint>
          <Trackpoint>
            <Time>2021-03-13T11:58:56.000Z</Time>
            <Position>
              <LatitudeDegrees>36.71480596996843814849853515625</LatitudeDegrees>
              <LongitudeDegrees>-4.31647201068699359893798828125</LongitudeDegrees>
            </Position>
            <AltitudeMeters>14.19999980926513671875</AltitudeMeters>
            <DistanceMeters>96004.71753978</DistanceMeters>
          </Trackpoint>
          <Trackpoint>
            <Time>2021-03-13T11:58:59.000Z</Time>
            <Position>
              <LatitudeDegrees>36.7147845961153507232666015625</LatitudeDegrees>
              <LongitudeDegrees>-4.3167322687804698944091796875</LongitudeDegrees>
            </Position>
            <AltitudeMeters>14.3999996185302734375</AltitudeMeters>
            <DistanceMeters>96028.059706614</DistanceMeters>
          </Trackpoint>
          <Trackpoint>
            <Time>2021-03-13T11:59:00.000Z</Time>
            <Position>
              <LatitudeDegrees>36.7147936485707759857177734375</LatitudeDegrees>
              <LongitudeDegrees>-4.3168129026889801025390625</LongitudeDegrees>
            </Position>
            <AltitudeMeters>14.3999996185302734375</AltitudeMeters>
            <DistanceMeters>96035.324124466</DistanceMeters>
          </Trackpoint>
          <Trackpoint>
            <Time>2021-03-13T11:59:01.000Z</Time>
            <Position>
              <LatitudeDegrees>36.71480680815875530242919921875</LatitudeDegrees>
              <LongitudeDegrees>-4.3168918602168560028076171875</LongitudeDegrees>
            </Position>
            <AltitudeMeters>14.6000003814697265625</AltitudeMeters>
            <DistanceMeters>96042.519221982</DistanceMeters>
          </Trackpoint>
          <Trackpoint>
            <Time>2021-03-13T11:59:05.000Z</Time>
            <Position>
              <LatitudeDegrees>36.714873276650905609130859375</LatitudeDegrees>
              <LongitudeDegrees>-4.31719687767326831817626953125</LongitudeDegrees>
            </Position>
            <AltitudeMeters>15.19999980926513671875</AltitudeMeters>
            <DistanceMeters>96070.721031196</DistanceMeters>
          </Trackpoint>
          <Trackpoint>
            <Time>2021-03-13T11:59:06.000Z</Time>
            <Position>
              <LatitudeDegrees>36.71489448286592960357666015625</LatitudeDegrees>
              <LongitudeDegrees>-4.317272566258907318115234375</LongitudeDegrees>
            </Position>
            <AltitudeMeters>15.3999996185302734375</AltitudeMeters>
            <DistanceMeters>96077.875223902</DistanceMeters>
          </Trackpoint>
          <Trackpoint>
            <Time>2021-03-13T11:59:08.000Z</Time>
            <Position>
              <LatitudeDegrees>36.71497578732669353485107421875</LatitudeDegrees>
              <LongitudeDegrees>-4.317391924560070037841796875</LongitudeDegrees>
            </Position>
            <AltitudeMeters>15.80000019073486328125</AltitudeMeters>
            <DistanceMeters>96091.850290748</DistanceMeters>
          </Trackpoint>
          <Trackpoint>
            <Time>2021-03-13T11:59:10.000Z</Time>
            <Position>
              <LatitudeDegrees>36.7151004262268543243408203125</LatitudeDegrees>
              <LongitudeDegrees>-4.317459650337696075439453125</LongitudeDegrees>
            </Position>
            <AltitudeMeters>16</AltitudeMeters>
            <DistanceMeters>96106.981336916</DistanceMeters>
          </Trackpoint>
          <Trackpoint>
            <Time>2021-03-13T11:59:12.000Z</Time>
            <Position>
              <LatitudeDegrees>36.7152370512485504150390625</LatitudeDegrees>
              <LongitudeDegrees>-4.31749812327325344085693359375</LongitudeDegrees>
            </Position>
            <AltitudeMeters>16</AltitudeMeters>
            <DistanceMeters>96122.57064246</DistanceMeters>
          </Trackpoint>
          <Trackpoint>
            <Time>2021-03-13T11:59:15.000Z</Time>
            <Position>
              <LatitudeDegrees>36.715472079813480377197265625</LatitudeDegrees>
              <LongitudeDegrees>-4.3175201676785945892333984375</LongitudeDegrees>
            </Position>
            <AltitudeMeters>16</AltitudeMeters>
            <DistanceMeters>96148.803868068</DistanceMeters>
          </Trackpoint>
          <Trackpoint>
            <Time>2021-03-13T11:59:16.000Z</Time>
            <Position>
              <LatitudeDegrees>36.7155409790575504302978515625</LatitudeDegrees>
              <LongitudeDegrees>-4.31749409995973110198974609375</LongitudeDegrees>
            </Position>
            <AltitudeMeters>16</AltitudeMeters>
            <DistanceMeters>96156.817725046</DistanceMeters>
          </Trackpoint>
          <Trackpoint>
            <Time>2021-03-13T11:59:17.000Z</Time>
            <Position>
              <LatitudeDegrees>36.7155875824391841888427734375</LatitudeDegrees>
              <LongitudeDegrees>-4.3174511007964611053466796875</LongitudeDegrees>
            </Position>
            <AltitudeMeters>15.80000019073486328125</AltitudeMeters>
            <DistanceMeters>96163.269752046</DistanceMeters>
          </Trackpoint>
          <Trackpoint>
            <Time>2021-03-13T11:59:18.000Z</Time>
            <Position>
              <LatitudeDegrees>36.71562840230762958526611328125</LatitudeDegrees>
              <LongitudeDegrees>-4.3173773400485515594482421875</LongitudeDegrees>
            </Position>
            <AltitudeMeters>15.80000019073486328125</AltitudeMeters>
            <DistanceMeters>96171.266689046</DistanceMeters>
          </Trackpoint>
          <Trackpoint>
            <Time>2021-03-13T11:59:19.000Z</Time>
            <Position>
              <LatitudeDegrees>36.7156393826007843017578125</LatitudeDegrees>
              <LongitudeDegrees>-4.31729259900748729705810546875</LongitudeDegrees>
            </Position>
            <AltitudeMeters>15.3999996185302734375</AltitudeMeters>
            <DistanceMeters>96178.925630003</DistanceMeters>
          </Trackpoint>
          <Trackpoint>
            <Time>2021-03-13T11:59:20.000Z</Time>
            <Position>
              <LatitudeDegrees>36.71562069095671176910400390625</LatitudeDegrees>
              <LongitudeDegrees>-4.3171946145594120025634765625</LongitudeDegrees>
            </Position>
            <AltitudeMeters>15.19999980926513671875</AltitudeMeters>
            <DistanceMeters>96187.911560314</DistanceMeters>
          </Trackpoint>
          <Trackpoint>
            <Time>2021-03-13T11:59:21.000Z</Time>
            <Position>
              <LatitudeDegrees>36.7155721597373485565185546875</LatitudeDegrees>
              <LongitudeDegrees>-4.31713468395173549652099609375</LongitudeDegrees>
            </Position>
            <AltitudeMeters>14.80000019073486328125</AltitudeMeters>
            <DistanceMeters>96195.512509537</DistanceMeters>
          </Trackpoint>
          <Trackpoint>
            <Time>2021-03-13T11:59:22.000Z</Time>
            <Position>
              <LatitudeDegrees>36.71550460159778594970703125</LatitudeDegrees>
              <LongitudeDegrees>-4.3171004019677639007568359375</LongitudeDegrees>
            </Position>
            <AltitudeMeters>14.6000003814697265625</AltitudeMeters>
            <DistanceMeters>96203.629927095</DistanceMeters>
          </Trackpoint>
          <Trackpoint>
            <Time>2021-03-13T11:59:23.000Z</Time>
            <Position>
              <LatitudeDegrees>36.7154259793460369110107421875</LatitudeDegrees>
              <LongitudeDegrees>-4.31708514690399169921875</LongitudeDegrees>
            </Position>
            <AltitudeMeters>14</AltitudeMeters>
            <DistanceMeters>96212.4857847</DistanceMeters>
          </Trackpoint>
          <Trackpoint>
            <Time>2021-03-13T11:59:25.000Z</Time>
            <Position>
              <LatitudeDegrees>36.7152358777821063995361328125</LatitudeDegrees>
              <LongitudeDegrees>-4.31709512136876583099365234375</LongitudeDegrees>
            </Position>
            <AltitudeMeters>12.6000003814697265625</AltitudeMeters>
            <DistanceMeters>96233.662888291</DistanceMeters>
          </Trackpoint>
          <Trackpoint>
            <Time>2021-03-13T11:59:27.000Z</Time>
            <Position>
              <LatitudeDegrees>36.71502725221216678619384765625</LatitudeDegrees>
              <LongitudeDegrees>-4.31712529622018337249755859375</LongitudeDegrees>
            </Position>
            <AltitudeMeters>11.6000003814697265625</AltitudeMeters>
            <DistanceMeters>96257.039073735</DistanceMeters>
          </Trackpoint>
          <Trackpoint>
            <Time>2021-03-13T11:59:29.000Z</Time>
            <Position>
              <LatitudeDegrees>36.7148298583924770355224609375</LatitudeDegrees>
              <LongitudeDegrees>-4.3171620927751064300537109375</LongitudeDegrees>
            </Position>
            <AltitudeMeters>10.6000003814697265625</AltitudeMeters>
            <DistanceMeters>96279.253384832</DistanceMeters>
          </Trackpoint>
          <Trackpoint>
            <Time>2021-03-13T11:59:32.000Z</Time>
            <Position>
              <LatitudeDegrees>36.71446080319583415985107421875</LatitudeDegrees>
              <LongitudeDegrees>-4.31727767921984195709228515625</LongitudeDegrees>
            </Position>
            <AltitudeMeters>9.19999980926513671875</AltitudeMeters>
            <DistanceMeters>96321.604820275</DistanceMeters>
          </Trackpoint>
          <Trackpoint>
            <Time>2021-03-13T11:59:35.000Z</Time>
            <Position>
              <LatitudeDegrees>36.7141257785260677337646484375</LatitudeDegrees>
              <LongitudeDegrees>-4.3174319900572299957275390625</LongitudeDegrees>
            </Position>
            <AltitudeMeters>8</AltitudeMeters>
            <DistanceMeters>96361.354393804</DistanceMeters>
          </Trackpoint>
          <Trackpoint>
            <Time>2021-03-13T11:59:38.000Z</Time>
            <Position>
              <LatitudeDegrees>36.71380902640521526336669921875</LatitudeDegrees>
              <LongitudeDegrees>-4.3176036514341831207275390625</LongitudeDegrees>
            </Position>
            <AltitudeMeters>7.599999904632568359375</AltitudeMeters>
            <DistanceMeters>96399.792787863</DistanceMeters>
          </Trackpoint>
          <Trackpoint>
            <Time>2021-03-13T11:59:43.000Z</Time>
            <Position>
              <LatitudeDegrees>36.71333109028637409210205078125</LatitudeDegrees>
              <LongitudeDegrees>-4.31795175187289714813232421875</LongitudeDegrees>
            </Position>
            <AltitudeMeters>7.19999980926513671875</AltitudeMeters>
            <DistanceMeters>96461.391285501</DistanceMeters>
          </Trackpoint>
          <Trackpoint>
            <Time>2021-03-13T11:59:44.000Z</Time>
            <Position>
              <LatitudeDegrees>36.7132468521595001220703125</LatitudeDegrees>
              <LongitudeDegrees>-4.31803154759109020233154296875</LongitudeDegrees>
            </Position>
            <AltitudeMeters>7.19999980926513671875</AltitudeMeters>
            <DistanceMeters>96473.163864371</DistanceMeters>
          </Trackpoint>
          <Trackpoint>
            <Time>2021-03-13T11:59:45.000Z</Time>
            <Position>
              <LatitudeDegrees>36.7131668888032436370849609375</LatitudeDegrees>
              <LongitudeDegrees>-4.31812073104083538055419921875</LongitudeDegrees>
            </Position>
            <AltitudeMeters>7.19999980926513671875</AltitudeMeters>
            <DistanceMeters>96485.10210949</DistanceMeters>
          </Trackpoint>
          <Trackpoint>
            <Time>2021-03-13T11:59:47.000Z</Time>
            <Position>
              <LatitudeDegrees>36.71303621493279933929443359375</LatitudeDegrees>
              <LongitudeDegrees>-4.31832726113498210906982421875</LongitudeDegrees>
            </Position>
            <AltitudeMeters>7</AltitudeMeters>
            <DistanceMeters>96508.577747189</DistanceMeters>
          </Trackpoint>
          <Trackpoint>
            <Time>2021-03-13T11:59:50.000Z</Time>
            <Position>
              <LatitudeDegrees>36.7129003442823886871337890625</LatitudeDegrees>
              <LongitudeDegrees>-4.3186718411743640899658203125</LongitudeDegrees>
            </Position>
            <AltitudeMeters>6.80000019073486328125</AltitudeMeters>
            <DistanceMeters>96542.840511642</DistanceMeters>
          </Trackpoint>
          <Trackpoint>
            <Time>2021-03-13T11:59:51.000Z</Time>
            <Position>
              <LatitudeDegrees>36.71287461183965206146240234375</LatitudeDegrees>
              <LongitudeDegrees>-4.31879446841776371002197265625</LongitudeDegrees>
            </Position>
            <AltitudeMeters>6.80000019073486328125</AltitudeMeters>
            <DistanceMeters>96554.150287627</DistanceMeters>
          </Trackpoint>
          <Trackpoint>
            <Time>2021-03-13T11:59:57.000Z</Time>
            <Position>
              <LatitudeDegrees>36.7128044553101062774658203125</LatitudeDegrees>
              <LongitudeDegrees>-4.319552443921566009521484375</LongitudeDegrees>
            </Position>
            <AltitudeMeters>7.19999980926513671875</AltitudeMeters>
            <DistanceMeters>96622.229484417</DistanceMeters>
          </Trackpoint>
          <Trackpoint>
            <Time>2021-03-13T12:00:03.000Z</Time>
            <Position>
              <LatitudeDegrees>36.71275374479591846466064453125</LatitudeDegrees>
              <LongitudeDegrees>-4.32032818906009197235107421875</LongitudeDegrees>
            </Position>
            <AltitudeMeters>7.400000095367431640625</AltitudeMeters>
            <DistanceMeters>96691.674705607</DistanceMeters>
          </Trackpoint>
          <Trackpoint>
            <Time>2021-03-13T12:00:06.000Z</Time>
            <Position>
              <LatitudeDegrees>36.71272960491478443145751953125</LatitudeDegrees>
              <LongitudeDegrees>-4.32069146074354648590087890625</LongitudeDegrees>
            </Position>
            <AltitudeMeters>7.599999904632568359375</AltitudeMeters>
            <DistanceMeters>96724.198839338</DistanceMeters>
          </Trackpoint>
          <Trackpoint>
            <Time>2021-03-13T12:00:12.000Z</Time>
            <Position>
              <LatitudeDegrees>36.7126740328967571258544921875</LatitudeDegrees>
              <LongitudeDegrees>-4.32142236270010471343994140625</LongitudeDegrees>
            </Position>
            <AltitudeMeters>7.599999904632568359375</AltitudeMeters>
            <DistanceMeters>96789.705820392</DistanceMeters>
          </Trackpoint>
          <Trackpoint>
            <Time>2021-03-13T12:00:14.000Z</Time>
            <Position>
              <LatitudeDegrees>36.71265852637588977813720703125</LatitudeDegrees>
              <LongitudeDegrees>-4.32167717255651950836181640625</LongitudeDegrees>
            </Position>
            <AltitudeMeters>7.80000019073486328125</AltitudeMeters>
            <DistanceMeters>96812.506291897</DistanceMeters>
          </Trackpoint>
          <Trackpoint>
            <Time>2021-03-13T12:00:17.000Z</Time>
            <Position>
              <LatitudeDegrees>36.7126683332026004791259765625</LatitudeDegrees>
              <LongitudeDegrees>-4.3220460601150989532470703125</LongitudeDegrees>
            </Position>
            <AltitudeMeters>8</AltitudeMeters>
            <DistanceMeters>96845.438224439</DistanceMeters>
          </Trackpoint>
          <Trackpoint>
            <Time>2021-03-13T12:00:18.000Z</Time>
            <Position>
              <LatitudeDegrees>36.71268761157989501953125</LatitudeDegrees>
              <LongitudeDegrees>-4.3221707828342914581298828125</LongitudeDegrees>
            </Position>
            <AltitudeMeters>8</AltitudeMeters>
            <DistanceMeters>96856.771928044</DistanceMeters>
          </Trackpoint>
          <Trackpoint>
            <Time>2021-03-13T12:00:19.000Z</Time>
            <Position>
              <LatitudeDegrees>36.7127146013081073760986328125</LatitudeDegrees>
              <LongitudeDegrees>-4.32229441590607166290283203125</LongitudeDegrees>
            </Position>
            <AltitudeMeters>8.19999980926513671875</AltitudeMeters>
            <DistanceMeters>96868.204396126</DistanceMeters>
          </Trackpoint>
          <Trackpoint>
            <Time>2021-03-13T12:00:24.000Z</Time>
            <Position>
              <LatitudeDegrees>36.7129214666783809661865234375</LatitudeDegrees>
              <LongitudeDegrees>-4.322900511324405670166015625</LongitudeDegrees>
            </Position>
            <AltitudeMeters>8.6000003814697265625</AltitudeMeters>
            <DistanceMeters>96926.980243418</DistanceMeters>
          </Trackpoint>
          <Trackpoint>
            <Time>2021-03-13T12:00:30.000Z</Time>
            <Position>
              <LatitudeDegrees>36.71317568980157375335693359375</LatitudeDegrees>
              <LongitudeDegrees>-4.32362026534974575042724609375</LongitudeDegrees>
            </Position>
            <AltitudeMeters>8</AltitudeMeters>
            <DistanceMeters>96997.156876855</DistanceMeters>
          </Trackpoint>
          <Trackpoint>
            <Time>2021-03-13T12:00:31.000Z</Time>
            <Position>
              <LatitudeDegrees>36.7132087983191013336181640625</LatitudeDegrees>
              <LongitudeDegrees>-4.32374440133571624755859375</LongitudeDegrees>
            </Position>
            <AltitudeMeters>8</AltitudeMeters>
            <DistanceMeters>97008.83008779</DistanceMeters>
          </Trackpoint>
          <Trackpoint>
            <Time>2021-03-13T12:00:36.000Z</Time>
            <Position>
              <LatitudeDegrees>36.713300831615924835205078125</LatitudeDegrees>
              <LongitudeDegrees>-4.3244007043540477752685546875</LongitudeDegrees>
            </Position>
            <AltitudeMeters>7.80000019073486328125</AltitudeMeters>
            <DistanceMeters>97068.277178019</DistanceMeters>
          </Trackpoint>
          <Trackpoint>
            <Time>2021-03-13T12:00:42.000Z</Time>
            <Position>
              <LatitudeDegrees>36.71335808001458644866943359375</LatitudeDegrees>
              <LongitudeDegrees>-4.32521232403814792633056640625</LongitudeDegrees>
            </Position>
            <AltitudeMeters>7.599999904632568359375</AltitudeMeters>
            <DistanceMeters>97140.972676622</DistanceMeters>
          </Trackpoint>
          <Trackpoint>
            <Time>2021-03-13T12:00:43.000Z</Time>
            <Position>
              <LatitudeDegrees>36.71336394734680652618408203125</LatitudeDegrees>
              <LongitudeDegrees>-4.32533956132829189300537109375</LongitudeDegrees>
            </Position>
            <AltitudeMeters>7.599999904632568359375</AltitudeMeters>
            <DistanceMeters>97152.344162658</DistanceMeters>
          </Trackpoint>
          <Trackpoint>
            <Time>2021-03-13T12:00:49.000Z</Time>
            <Position>
              <LatitudeDegrees>36.7134104669094085693359375</LatitudeDegrees>
              <LongitudeDegrees>-4.3260804377496242523193359375</LongitudeDegrees>
            </Position>
            <AltitudeMeters>7.599999904632568359375</AltitudeMeters>
            <DistanceMeters>97218.650342148</DistanceMeters>
          </Trackpoint>
          <Trackpoint>
            <Time>2021-03-13T12:00:51.000Z</Time>
            <Position>
              <LatitudeDegrees>36.7134253866970539093017578125</LatitudeDegrees>
              <LongitudeDegrees>-4.32633616961538791656494140625</LongitudeDegrees>
            </Position>
            <AltitudeMeters>7.80000019073486328125</AltitudeMeters>
            <DistanceMeters>97241.52830733</DistanceMeters>
          </Trackpoint>
          <Trackpoint>
            <Time>2021-03-13T12:00:57.000Z</Time>
            <Position>
              <LatitudeDegrees>36.71347324736416339874267578125</LatitudeDegrees>
              <LongitudeDegrees>-4.32709582149982452392578125</LongitudeDegrees>
            </Position>
            <AltitudeMeters>7.80000019073486328125</AltitudeMeters>
            <DistanceMeters>97309.516318851</DistanceMeters>
          </Trackpoint>
          <Trackpoint>
            <Time>2021-03-13T12:01:01.000Z</Time>
            <Position>
              <LatitudeDegrees>36.71349906362593173980712890625</LatitudeDegrees>
              <LongitudeDegrees>-4.3276129849255084991455078125</LongitudeDegrees>
            </Position>
            <AltitudeMeters>8</AltitudeMeters>
            <DistanceMeters>97355.748939528</DistanceMeters>
          </Trackpoint>
          <Trackpoint>
            <Time>2021-03-13T12:01:06.000Z</Time>
            <Position>
              <LatitudeDegrees>36.7135387100279331207275390625</LatitudeDegrees>
              <LongitudeDegrees>-4.32832335121929645538330078125</LongitudeDegrees>
            </Position>
            <AltitudeMeters>8.19999980926513671875</AltitudeMeters>
            <DistanceMeters>97419.283803598</DistanceMeters>
          </Trackpoint>
          <Trackpoint>
            <Time>2021-03-13T12:01:09.000Z</Time>
            <Position>
              <LatitudeDegrees>36.71356896869838237762451171875</LatitudeDegrees>
              <LongitudeDegrees>-4.328741021454334259033203125</LongitudeDegrees>
            </Position>
            <AltitudeMeters>8.19999980926513671875</AltitudeMeters>
            <DistanceMeters>97456.701650844</DistanceMeters>
          </Trackpoint>
          <Trackpoint>
            <Time>2021-03-13T12:01:14.000Z</Time>
            <Position>
              <LatitudeDegrees>36.71361171640455722808837890625</LatitudeDegrees>
              <LongitudeDegrees>-4.32945524342358112335205078125</LongitudeDegrees>
            </Position>
            <AltitudeMeters>7.80000019073486328125</AltitudeMeters>
            <DistanceMeters>97520.604343113</DistanceMeters>
          </Trackpoint>
          <Trackpoint>
            <Time>2021-03-13T12:01:17.000Z</Time>
            <Position>
              <LatitudeDegrees>36.71363702975213527679443359375</LatitudeDegrees>
              <LongitudeDegrees>-4.329848103225231170654296875</LongitudeDegrees>
            </Position>
            <AltitudeMeters>7.400000095367431640625</AltitudeMeters>
            <DistanceMeters>97555.769620425</DistanceMeters>
          </Trackpoint>
          <Trackpoint>
            <Time>2021-03-13T12:01:22.000Z</Time>
            <Position>
              <LatitudeDegrees>36.71368799172341823577880859375</LatitudeDegrees>
              <LongitudeDegrees>-4.33057154528796672821044921875</LongitudeDegrees>
            </Position>
            <AltitudeMeters>7.19999980926513671875</AltitudeMeters>
            <DistanceMeters>97620.566343438</DistanceMeters>
          </Trackpoint>
          <Trackpoint>
            <Time>2021-03-13T12:01:26.000Z</Time>
            <Position>
              <LatitudeDegrees>36.71372554264962673187255859375</LatitudeDegrees>
              <LongitudeDegrees>-4.33110748417675495147705078125</LongitudeDegrees>
            </Position>
            <AltitudeMeters>7.19999980926513671875</AltitudeMeters>
            <DistanceMeters>97668.566969736</DistanceMeters>
          </Trackpoint>
          <Trackpoint>
            <Time>2021-03-13T12:01:32.000Z</Time>
            <Position>
              <LatitudeDegrees>36.71378438360989093780517578125</LatitudeDegrees>
              <LongitudeDegrees>-4.33187224902212619781494140625</LongitudeDegrees>
            </Position>
            <AltitudeMeters>7.599999904632568359375</AltitudeMeters>
            <DistanceMeters>97737.115358108</DistanceMeters>
          </Trackpoint>
          <Trackpoint>
            <Time>2021-03-13T12:01:33.000Z</Time>
            <Position>
              <LatitudeDegrees>36.7138015665113925933837890625</LatitudeDegrees>
              <LongitudeDegrees>-4.33199889957904815673828125</LongitudeDegrees>
            </Position>
            <AltitudeMeters>7.80000019073486328125</AltitudeMeters>
            <DistanceMeters>97748.576619907</DistanceMeters>
          </Trackpoint>
          <Trackpoint>
            <Time>2021-03-13T12:01:39.000Z</Time>
            <Position>
              <LatitudeDegrees>36.71396543271839618682861328125</LatitudeDegrees>
              <LongitudeDegrees>-4.3327189050614833831787109375</LongitudeDegrees>
            </Position>
            <AltitudeMeters>9</AltitudeMeters>
            <DistanceMeters>97815.356673011</DistanceMeters>
          </Trackpoint>
          <Trackpoint>
            <Time>2021-03-13T12:01:42.000Z</Time>
            <Position>
              <LatitudeDegrees>36.71407137997448444366455078125</LatitudeDegrees>
              <LongitudeDegrees>-4.33306616730988025665283203125</LongitudeDegrees>
            </Position>
            <AltitudeMeters>10</AltitudeMeters>
            <DistanceMeters>97848.508605141</DistanceMeters>
          </Trackpoint>
          <Trackpoint>
            <Time>2021-03-13T12:01:44.000Z</Time>
            <Position>
              <LatitudeDegrees>36.71414547599852085113525390625</LatitudeDegrees>
              <LongitudeDegrees>-4.33327655307948589324951171875</LongitudeDegrees>
            </Position>
            <AltitudeMeters>10.80000019073486328125</AltitudeMeters>
            <DistanceMeters>97869.011485881</DistanceMeters>
          </Trackpoint>
          <Trackpoint>
            <Time>2021-03-13T12:01:46.000Z</Time>
            <Position>
              <LatitudeDegrees>36.7142204940319061279296875</LatitudeDegrees>
              <LongitudeDegrees>-4.33348350226879119873046875</LongitudeDegrees>
            </Position>
            <AltitudeMeters>11.19999980926513671875</AltitudeMeters>
            <DistanceMeters>97889.276030198</DistanceMeters>
          </Trackpoint>
          <Trackpoint>
            <Time>2021-03-13T12:01:50.000Z</Time>
            <Position>
              <LatitudeDegrees>36.71437128446996212005615234375</LatitudeDegrees>
              <LongitudeDegrees>-4.3338932096958160400390625</LongitudeDegrees>
            </Position>
            <AltitudeMeters>12.6000003814697265625</AltitudeMeters>
            <DistanceMeters>97929.499840519</DistanceMeters>
          </Trackpoint>
          <Trackpoint>
            <Time>2021-03-13T12:01:53.000Z</Time>
            <Position>
              <LatitudeDegrees>36.71450975351035594940185546875</LatitudeDegrees>
              <LongitudeDegrees>-4.33418280445039272308349609375</LongitudeDegrees>
            </Position>
            <AltitudeMeters>13.19999980926513671875</AltitudeMeters>
            <DistanceMeters>97959.585514394</DistanceMeters>
          </Trackpoint>
          <Trackpoint>
            <Time>2021-03-13T12:01:55.000Z</Time>
            <Position>
              <LatitudeDegrees>36.71463288366794586181640625</LatitudeDegrees>
              <LongitudeDegrees>-4.33435413055121898651123046875</LongitudeDegrees>
            </Position>
            <AltitudeMeters>13.80000019073486328125</AltitudeMeters>
            <DistanceMeters>97980.115463688</DistanceMeters>
          </Trackpoint>
          <Trackpoint>
            <Time>2021-03-13T12:01:56.000Z</Time>
            <Position>
              <LatitudeDegrees>36.7146991007030010223388671875</LatitudeDegrees>
              <LongitudeDegrees>-4.3344296514987945556640625</LongitudeDegrees>
            </Position>
            <AltitudeMeters>14</AltitudeMeters>
            <DistanceMeters>97990.101410522</DistanceMeters>
          </Trackpoint>
          <Trackpoint>
            <Time>2021-03-13T12:01:57.000Z</Time>
            <Position>
              <LatitudeDegrees>36.71476900577545166015625</LatitudeDegrees>
              <LongitudeDegrees>-4.334496371448040008544921875</LongitudeDegrees>
            </Position>
            <AltitudeMeters>14.19999980926513671875</AltitudeMeters>
            <DistanceMeters>97999.897922781</DistanceMeters>
          </Trackpoint>
          <Trackpoint>
            <Time>2021-03-13T12:01:58.000Z</Time>
            <Position>
              <LatitudeDegrees>36.71484670601785182952880859375</LatitudeDegrees>
              <LongitudeDegrees>-4.334553368389606475830078125</LongitudeDegrees>
            </Position>
            <AltitudeMeters>14.19999980926513671875</AltitudeMeters>
            <DistanceMeters>98009.930331866</DistanceMeters>
          </Trackpoint>
          <Trackpoint>
            <Time>2021-03-13T12:02:01.000Z</Time>
            <Position>
              <LatitudeDegrees>36.715097911655902862548828125</LatitudeDegrees>
              <LongitudeDegrees>-4.33470793068408966064453125</LongitudeDegrees>
            </Position>
            <AltitudeMeters>14.3999996185302734375</AltitudeMeters>
            <DistanceMeters>98041.105756926</DistanceMeters>
          </Trackpoint>
          <Trackpoint>
            <Time>2021-03-13T12:02:03.000Z</Time>
            <Position>
              <LatitudeDegrees>36.7152450978755950927734375</LatitudeDegrees>
              <LongitudeDegrees>-4.33486207388341426849365234375</LongitudeDegrees>
            </Position>
            <AltitudeMeters>14.3999996185302734375</AltitudeMeters>
            <DistanceMeters>98062.495423897</DistanceMeters>
          </Trackpoint>
          <Trackpoint>
            <Time>2021-03-13T12:02:04.000Z</Time>
            <Position>
              <LatitudeDegrees>36.7152987420558929443359375</LatitudeDegrees>
              <LongitudeDegrees>-4.33496399782598018646240234375</LongitudeDegrees>
            </Position>
            <AltitudeMeters>14.3999996185302734375</AltitudeMeters>
            <DistanceMeters>98073.374218953</DistanceMeters>
          </Trackpoint>
          <Trackpoint>
            <Time>2021-03-13T12:02:05.000Z</Time>
            <Position>
              <LatitudeDegrees>36.7153314314782619476318359375</LatitudeDegrees>
              <LongitudeDegrees>-4.33507941663265228271484375</LongitudeDegrees>
            </Position>
            <AltitudeMeters>14.3999996185302734375</AltitudeMeters>
            <DistanceMeters>98084.295265133</DistanceMeters>
          </Trackpoint>
          <Trackpoint>
            <Time>2021-03-13T12:02:06.000Z</Time>
            <Position>
              <LatitudeDegrees>36.71534190885722637176513671875</LatitudeDegrees>
              <LongitudeDegrees>-4.3352016247808933258056640625</LongitudeDegrees>
            </Position>
            <AltitudeMeters>14.19999980926513671875</AltitudeMeters>
            <DistanceMeters>98095.260870357</DistanceMeters>
          </Trackpoint>
          <Trackpoint>
            <Time>2021-03-13T12:02:07.000Z</Time>
            <Position>
              <LatitudeDegrees>36.71533889137208461761474609375</LatitudeDegrees>
              <LongitudeDegrees>-4.33532760478556156158447265625</LongitudeDegrees>
            </Position>
            <AltitudeMeters>14</AltitudeMeters>
            <DistanceMeters>98106.505787451</DistanceMeters>
          </Trackpoint>
          <Trackpoint>
            <Time>2021-03-13T12:02:09.000Z</Time>
            <Position>
              <LatitudeDegrees>36.7152744345366954803466796875</LatitudeDegrees>
              <LongitudeDegrees>-4.3355700932443141937255859375</LongitudeDegrees>
            </Position>
            <AltitudeMeters>13.80000019073486328125</AltitudeMeters>
            <DistanceMeters>98129.29952515</DistanceMeters>
          </Trackpoint>
          <Trackpoint>
            <Time>2021-03-13T12:02:11.000Z</Time>
            <Position>
              <LatitudeDegrees>36.715160943567752838134765625</LatitudeDegrees>
              <LongitudeDegrees>-4.3357759527862071990966796875</LongitudeDegrees>
            </Position>
            <AltitudeMeters>13.6000003814697265625</AltitudeMeters>
            <DistanceMeters>98151.590937096</DistanceMeters>
          </Trackpoint>
          <Trackpoint>
            <Time>2021-03-13T12:02:12.000Z</Time>
            <Position>
              <LatitudeDegrees>36.7150923795998096466064453125</LatitudeDegrees>
              <LongitudeDegrees>-4.3358688242733478546142578125</LongitudeDegrees>
            </Position>
            <AltitudeMeters>13.6000003814697265625</AltitudeMeters>
            <DistanceMeters>98162.855912207</DistanceMeters>
          </Trackpoint>
          <Trackpoint>
            <Time>2021-03-13T12:02:14.000Z</Time>
            <Position>
              <LatitudeDegrees>36.71496388502418994903564453125</LatitudeDegrees>
              <LongitudeDegrees>-4.3360401503741741180419921875</LongitudeDegrees>
            </Position>
            <AltitudeMeters>13.6000003814697265625</AltitudeMeters>
            <DistanceMeters>98183.788983877</DistanceMeters>
          </Trackpoint>
          <Trackpoint>
            <Time>2021-03-13T12:02:17.000Z</Time>
            <Position>
              <LatitudeDegrees>36.71475752256810665130615234375</LatitudeDegrees>
              <LongitudeDegrees>-4.33627031743526458740234375</LongitudeDegrees>
            </Position>
            <AltitudeMeters>13.80000019073486328125</AltitudeMeters>
            <DistanceMeters>98214.599335321</DistanceMeters>
          </Trackpoint>
          <Trackpoint>
            <Time>2021-03-13T12:02:21.000Z</Time>
            <Position>
              <LatitudeDegrees>36.71454613097012042999267578125</LatitudeDegrees>
              <LongitudeDegrees>-4.33661540038883686065673828125</LongitudeDegrees>
            </Position>
            <AltitudeMeters>15.3999996185302734375</AltitudeMeters>
            <DistanceMeters>98253.349267339</DistanceMeters>
          </Trackpoint>
          <Trackpoint>
            <Time>2021-03-13T12:02:22.000Z</Time>
            <Position>
              <LatitudeDegrees>36.7145076580345630645751953125</LatitudeDegrees>
              <LongitudeDegrees>-4.33670978061854839324951171875</LongitudeDegrees>
            </Position>
            <AltitudeMeters>15.80000019073486328125</AltitudeMeters>
            <DistanceMeters>98262.797140414</DistanceMeters>
          </Trackpoint>
          <Trackpoint>
            <Time>2021-03-13T12:02:24.000Z</Time>
            <Position>
              <LatitudeDegrees>36.71444219537079334259033203125</LatitudeDegrees>
              <LongitudeDegrees>-4.33690600097179412841796875</LongitudeDegrees>
            </Position>
            <AltitudeMeters>16.200000762939453125</AltitudeMeters>
            <DistanceMeters>98281.759911153</DistanceMeters>
          </Trackpoint>
          <Trackpoint>
            <Time>2021-03-13T12:02:28.000Z</Time>
            <Position>
              <LatitudeDegrees>36.714294254779815673828125</LatitudeDegrees>
              <LongitudeDegrees>-4.337300620973110198974609375</LongitudeDegrees>
            </Position>
            <AltitudeMeters>17</AltitudeMeters>
            <DistanceMeters>98320.628973782</DistanceMeters>
          </Trackpoint>
          <Trackpoint>
            <Time>2021-03-13T12:02:32.000Z</Time>
            <Position>
              <LatitudeDegrees>36.71413860283792018890380859375</LatitudeDegrees>
              <LongitudeDegrees>-4.33771158568561077117919921875</LongitudeDegrees>
            </Position>
            <AltitudeMeters>17.3999996185302734375</AltitudeMeters>
            <DistanceMeters>98361.183008878</DistanceMeters>
          </Trackpoint>
          <Trackpoint>
            <Time>2021-03-13T12:02:36.000Z</Time>
            <Position>
              <LatitudeDegrees>36.7139681987464427947998046875</LatitudeDegrees>
              <LongitudeDegrees>-4.338148869574069976806640625</LongitudeDegrees>
            </Position>
            <AltitudeMeters>17.200000762939453125</AltitudeMeters>
            <DistanceMeters>98404.564447324</DistanceMeters>
          </Trackpoint>
          <Trackpoint>
            <Time>2021-03-13T12:02:42.000Z</Time>
            <Position>
              <LatitudeDegrees>36.7137190885841846466064453125</LatitudeDegrees>
              <LongitudeDegrees>-4.33885596692562103271484375</LongitudeDegrees>
            </Position>
            <AltitudeMeters>16.200000762939453125</AltitudeMeters>
            <DistanceMeters>98473.47768693</DistanceMeters>
          </Trackpoint>
          <Trackpoint>
            <Time>2021-03-13T12:02:47.000Z</Time>
            <Position>
              <LatitudeDegrees>36.71359076164662837982177734375</LatitudeDegrees>
              <LongitudeDegrees>-4.33952727355062961578369140625</LongitudeDegrees>
            </Position>
            <AltitudeMeters>15.3999996185302734375</AltitudeMeters>
            <DistanceMeters>98535.053384713</DistanceMeters>
          </Trackpoint>
          <Trackpoint>
            <Time>2021-03-13T12:02:48.000Z</Time>
            <Position>
              <LatitudeDegrees>36.71357349492609500885009765625</LatitudeDegrees>
              <LongitudeDegrees>-4.33966943062841892242431640625</LongitudeDegrees>
            </Position>
            <AltitudeMeters>14.80000019073486328125</AltitudeMeters>
            <DistanceMeters>98547.881639197</DistanceMeters>
          </Trackpoint>
          <Trackpoint>
            <Time>2021-03-13T12:02:51.000Z</Time>
            <Position>
              <LatitudeDegrees>36.71354097314178943634033203125</LatitudeDegrees>
              <LongitudeDegrees>-4.3401117436587810516357421875</LongitudeDegrees>
            </Position>
            <AltitudeMeters>13.19999980926513671875</AltitudeMeters>
            <DistanceMeters>98587.511994679</DistanceMeters>
          </Trackpoint>
          <Trackpoint>
            <Time>2021-03-13T12:02:52.000Z</Time>
            <Position>
              <LatitudeDegrees>36.7135366983711719512939453125</LatitudeDegrees>
              <LongitudeDegrees>-4.340232945978641510009765625</LongitudeDegrees>
            </Position>
            <AltitudeMeters>12.80000019073486328125</AltitudeMeters>
            <DistanceMeters>98598.336701231</DistanceMeters>
          </Trackpoint>
          <Trackpoint>
            <Time>2021-03-13T12:02:54.000Z</Time>
            <Position>
              <LatitudeDegrees>36.713543571531772613525390625</LatitudeDegrees>
              <LongitudeDegrees>-4.34057199396193027496337890625</LongitudeDegrees>
            </Position>
            <AltitudeMeters>12</AltitudeMeters>
            <DistanceMeters>98628.597450758</DistanceMeters>
          </Trackpoint>
          <Trackpoint>
            <Time>2021-03-13T12:02:56.000Z</Time>
            <Position>
              <LatitudeDegrees>36.713571064174175262451171875</LatitudeDegrees>
              <LongitudeDegrees>-4.34088396839797496795654296875</LongitudeDegrees>
            </Position>
            <AltitudeMeters>10.80000019073486328125</AltitudeMeters>
            <DistanceMeters>98656.600841598</DistanceMeters>
          </Trackpoint>
          <Trackpoint>
            <Time>2021-03-13T12:02:59.000Z</Time>
            <Position>
              <LatitudeDegrees>36.7136436514556407928466796875</LatitudeDegrees>
              <LongitudeDegrees>-4.341352768242359161376953125</LongitudeDegrees>
            </Position>
            <AltitudeMeters>9.19999980926513671875</AltitudeMeters>
            <DistanceMeters>98699.201859233</DistanceMeters>
          </Trackpoint>
          <Trackpoint>
            <Time>2021-03-13T12:03:01.000Z</Time>
            <Position>
              <LatitudeDegrees>36.713714562356472015380859375</LatitudeDegrees>
              <LongitudeDegrees>-4.34165946207940578460693359375</LongitudeDegrees>
            </Position>
            <AltitudeMeters>8.19999980926513671875</AltitudeMeters>
            <DistanceMeters>98727.681509798</DistanceMeters>
          </Trackpoint>
          <Trackpoint>
            <Time>2021-03-13T12:03:02.000Z</Time>
            <Position>
              <LatitudeDegrees>36.7137563042342662811279296875</LatitudeDegrees>
              <LongitudeDegrees>-4.34180849231779575347900390625</LongitudeDegrees>
            </Position>
            <AltitudeMeters>7.80000019073486328125</AltitudeMeters>
            <DistanceMeters>98741.766635977</DistanceMeters>
          </Trackpoint>
          <Trackpoint>
            <Time>2021-03-13T12:03:06.000Z</Time>
            <Position>
              <LatitudeDegrees>36.71396794728934764862060546875</LatitudeDegrees>
              <LongitudeDegrees>-4.34237100183963775634765625</LongitudeDegrees>
            </Position>
            <AltitudeMeters>7.19999980926513671875</AltitudeMeters>
            <DistanceMeters>98797.208677438</DistanceMeters>
          </Trackpoint>
          <Trackpoint>
            <Time>2021-03-13T12:03:11.000Z</Time>
            <Position>
              <LatitudeDegrees>36.7143251001834869384765625</LatitudeDegrees>
              <LongitudeDegrees>-4.3429617583751678466796875</LongitudeDegrees>
            </Position>
            <AltitudeMeters>7.19999980926513671875</AltitudeMeters>
            <DistanceMeters>98863.22714937</DistanceMeters>
          </Trackpoint>
          <Trackpoint>
            <Time>2021-03-13T12:03:16.000Z</Time>
            <Position>
              <LatitudeDegrees>36.7147400043904781341552734375</LatitudeDegrees>
              <LongitudeDegrees>-4.34345587156713008880615234375</LongitudeDegrees>
            </Position>
            <AltitudeMeters>7.19999980926513671875</AltitudeMeters>
            <DistanceMeters>98927.071736897</DistanceMeters>
          </Trackpoint>
          <Trackpoint>
            <Time>2021-03-13T12:03:19.000Z</Time>
            <Position>
              <LatitudeDegrees>36.71496438793838024139404296875</LatitudeDegrees>
              <LongitudeDegrees>-4.34375728480517864227294921875</LongitudeDegrees>
            </Position>
            <AltitudeMeters>7.400000095367431640625</AltitudeMeters>
            <DistanceMeters>98963.772476161</DistanceMeters>
          </Trackpoint>
          <Trackpoint>
            <Time>2021-03-13T12:03:21.000Z</Time>
            <Position>
              <LatitudeDegrees>36.715083830058574676513671875</LatitudeDegrees>
              <LongitudeDegrees>-4.34398041106760501861572265625</LongitudeDegrees>
            </Position>
            <AltitudeMeters>7.400000095367431640625</AltitudeMeters>
            <DistanceMeters>98987.710910762</DistanceMeters>
          </Trackpoint>
          <Trackpoint>
            <Time>2021-03-13T12:03:25.000Z</Time>
            <Position>
              <LatitudeDegrees>36.7152477800846099853515625</LatitudeDegrees>
              <LongitudeDegrees>-4.344453401863574981689453125</LongitudeDegrees>
            </Position>
            <AltitudeMeters>7.400000095367431640625</AltitudeMeters>
            <DistanceMeters>99033.688130939</DistanceMeters>
          </Trackpoint>
          <Trackpoint>
            <Time>2021-03-13T12:03:28.000Z</Time>
            <Position>
              <LatitudeDegrees>36.71530544757843017578125</LatitudeDegrees>
              <LongitudeDegrees>-4.344795383512973785400390625</LongitudeDegrees>
            </Position>
            <AltitudeMeters>7.400000095367431640625</AltitudeMeters>
            <DistanceMeters>99064.868045308</DistanceMeters>
          </Trackpoint>
          <Trackpoint>
            <Time>2021-03-13T12:03:29.000Z</Time>
            <Position>
              <LatitudeDegrees>36.71531575731933116912841796875</LatitudeDegrees>
              <LongitudeDegrees>-4.344942569732666015625</LongitudeDegrees>
            </Position>
            <AltitudeMeters>7.400000095367431640625</AltitudeMeters>
            <DistanceMeters>99078.05041198</DistanceMeters>
          </Trackpoint>
          <Trackpoint>
            <Time>2021-03-13T12:03:34.000Z</Time>
            <Position>
              <LatitudeDegrees>36.71535951085388660430908203125</LatitudeDegrees>
              <LongitudeDegrees>-4.3455541133880615234375</LongitudeDegrees>
            </Position>
            <AltitudeMeters>7.599999904632568359375</AltitudeMeters>
            <DistanceMeters>99132.830160277</DistanceMeters>
          </Trackpoint>
          <Trackpoint>
            <Time>2021-03-13T12:03:35.000Z</Time>
            <Position>
              <LatitudeDegrees>36.71538063324987888336181640625</LatitudeDegrees>
              <LongitudeDegrees>-4.34567305259406566619873046875</LongitudeDegrees>
            </Position>
            <AltitudeMeters>7.599999904632568359375</AltitudeMeters>
            <DistanceMeters>99143.699820814</DistanceMeters>
          </Trackpoint>
          <Trackpoint>
            <Time>2021-03-13T12:03:37.000Z</Time>
            <Position>
              <LatitudeDegrees>36.71545766294002532958984375</LatitudeDegrees>
              <LongitudeDegrees>-4.34590456075966358184814453125</LongitudeDegrees>
            </Position>
            <AltitudeMeters>7.599999904632568359375</AltitudeMeters>
            <DistanceMeters>99166.063626705</DistanceMeters>
          </Trackpoint>
          <Trackpoint>
            <Time>2021-03-13T12:03:39.000Z</Time>
            <Position>
              <LatitudeDegrees>36.7155745066702365875244140625</LatitudeDegrees>
              <LongitudeDegrees>-4.34610270895063877105712890625</LongitudeDegrees>
            </Position>
            <AltitudeMeters>7.80000019073486328125</AltitudeMeters>
            <DistanceMeters>99188.010889351</DistanceMeters>
          </Trackpoint>
          <Trackpoint>
            <Time>2021-03-13T12:03:41.000Z</Time>
            <Position>
              <LatitudeDegrees>36.715720184147357940673828125</LatitudeDegrees>
              <LongitudeDegrees>-4.34625961817800998687744140625</LongitudeDegrees>
            </Position>
            <AltitudeMeters>7.80000019073486328125</AltitudeMeters>
            <DistanceMeters>99209.432617217</DistanceMeters>
          </Trackpoint>
          <Trackpoint>
            <Time>2021-03-13T12:03:45.000Z</Time>
            <Position>
              <LatitudeDegrees>36.7160505987703800201416015625</LatitudeDegrees>
              <LongitudeDegrees>-4.3464658968150615692138671875</LongitudeDegrees>
            </Position>
            <AltitudeMeters>8.19999980926513671875</AltitudeMeters>
            <DistanceMeters>99250.556573819</DistanceMeters>
          </Trackpoint>
          <Trackpoint>
            <Time>2021-03-13T12:03:49.000Z</Time>
            <Position>
              <LatitudeDegrees>36.7163640819489955902099609375</LatitudeDegrees>
              <LongitudeDegrees>-4.34664183296263217926025390625</LongitudeDegrees>
            </Position>
            <AltitudeMeters>9</AltitudeMeters>
            <DistanceMeters>99288.816127551</DistanceMeters>
          </Trackpoint>
          <Trackpoint>
            <Time>2021-03-13T12:03:52.000Z</Time>
            <Position>
              <LatitudeDegrees>36.7165880464017391204833984375</LatitudeDegrees>
              <LongitudeDegrees>-4.3467659689486026763916015625</LongitudeDegrees>
            </Position>
            <AltitudeMeters>9.3999996185302734375</AltitudeMeters>
            <DistanceMeters>99316.093264106</DistanceMeters>
          </Trackpoint>
          <Trackpoint>
            <Time>2021-03-13T12:03:55.000Z</Time>
            <Position>
              <LatitudeDegrees>36.71680756844580173492431640625</LatitudeDegrees>
              <LongitudeDegrees>-4.3468782864511013031005859375</LongitudeDegrees>
            </Position>
            <AltitudeMeters>10.19999980926513671875</AltitudeMeters>
            <DistanceMeters>99342.501459875</DistanceMeters>
          </Trackpoint>
          <Trackpoint>
            <Time>2021-03-13T12:03:58.000Z</Time>
            <Position>
              <LatitudeDegrees>36.71703086234629154205322265625</LatitudeDegrees>
              <LongitudeDegrees>-4.34695799835026264190673828125</LongitudeDegrees>
            </Position>
            <AltitudeMeters>11</AltitudeMeters>
            <DistanceMeters>99368.352044918</DistanceMeters>
          </Trackpoint>
          <Trackpoint>
            <Time>2021-03-13T12:04:00.000Z</Time>
            <Position>
              <LatitudeDegrees>36.71716220676898956298828125</LatitudeDegrees>
              <LongitudeDegrees>-4.34698783792555332183837890625</LongitudeDegrees>
            </Position>
            <AltitudeMeters>11.3999996185302734375</AltitudeMeters>
            <DistanceMeters>99383.211500804</DistanceMeters>
          </Trackpoint>
          <Trackpoint>
            <Time>2021-03-13T12:04:05.000Z</Time>
            <Position>
              <LatitudeDegrees>36.71753369271755218505859375</LatitudeDegrees>
              <LongitudeDegrees>-4.34704902581870555877685546875</LongitudeDegrees>
            </Position>
            <AltitudeMeters>12.3999996185302734375</AltitudeMeters>
            <DistanceMeters>99424.917512179</DistanceMeters>
          </Trackpoint>
          <Trackpoint>
            <Time>2021-03-13T12:04:06.000Z</Time>
            <Position>
              <LatitudeDegrees>36.7176054418087005615234375</LatitudeDegrees>
              <LongitudeDegrees>-4.3470730818808078765869140625</LongitudeDegrees>
            </Position>
            <AltitudeMeters>12.6000003814697265625</AltitudeMeters>
            <DistanceMeters>99433.187020562</DistanceMeters>
          </Trackpoint>
          <Trackpoint>
            <Time>2021-03-13T12:04:07.000Z</Time>
            <Position>
              <LatitudeDegrees>36.717675514519214630126953125</LatitudeDegrees>
              <LongitudeDegrees>-4.34710434637963771820068359375</LongitudeDegrees>
            </Position>
            <AltitudeMeters>12.80000019073486328125</AltitudeMeters>
            <DistanceMeters>99441.470167357</DistanceMeters>
          </Trackpoint>
          <Trackpoint>
            <Time>2021-03-13T12:04:09.000Z</Time>
            <Position>
              <LatitudeDegrees>36.71780132688581943511962890625</LatitudeDegrees>
              <LongitudeDegrees>-4.34721414931118488311767578125</LongitudeDegrees>
            </Position>
            <AltitudeMeters>13</AltitudeMeters>
            <DistanceMeters>99458.560187617</DistanceMeters>
          </Trackpoint>
          <Trackpoint>
            <Time>2021-03-13T12:04:11.000Z</Time>
            <Position>
              <LatitudeDegrees>36.717899478971958160400390625</LatitudeDegrees>
              <LongitudeDegrees>-4.3473698012530803680419921875</LongitudeDegrees>
            </Position>
            <AltitudeMeters>13.19999980926513671875</AltitudeMeters>
            <DistanceMeters>99476.229024671</DistanceMeters>
          </Trackpoint>
          <Trackpoint>
            <Time>2021-03-13T12:04:12.000Z</Time>
            <Position>
              <LatitudeDegrees>36.71793493442237377166748046875</LatitudeDegrees>
              <LongitudeDegrees>-4.3474613316357135772705078125</LongitudeDegrees>
            </Position>
            <AltitudeMeters>13.19999980926513671875</AltitudeMeters>
            <DistanceMeters>99485.298974858</DistanceMeters>
          </Trackpoint>
          <Trackpoint>
            <Time>2021-03-13T12:04:17.000Z</Time>
            <Position>
              <LatitudeDegrees>36.718061082065105438232421875</LatitudeDegrees>
              <LongitudeDegrees>-4.3479801714420318603515625</LongitudeDegrees>
            </Position>
            <AltitudeMeters>12.3999996185302734375</AltitudeMeters>
            <DistanceMeters>99533.671586205</DistanceMeters>
          </Trackpoint>
          <Trackpoint>
            <Time>2021-03-13T12:04:20.000Z</Time>
            <Position>
              <LatitudeDegrees>36.7181432247161865234375</LatitudeDegrees>
              <LongitudeDegrees>-4.34832324273884296417236328125</LongitudeDegrees>
            </Position>
            <AltitudeMeters>11.6000003814697265625</AltitudeMeters>
            <DistanceMeters>99565.616113414</DistanceMeters>
          </Trackpoint>
          <Trackpoint>
            <Time>2021-03-13T12:04:23.000Z</Time>
            <Position>
              <LatitudeDegrees>36.718228049576282501220703125</LatitudeDegrees>
              <LongitudeDegrees>-4.3486787192523479461669921875</LongitudeDegrees>
            </Position>
            <AltitudeMeters>10.6000003814697265625</AltitudeMeters>
            <DistanceMeters>99598.706702251</DistanceMeters>
          </Trackpoint>
          <Trackpoint>
            <Time>2021-03-13T12:04:24.000Z</Time>
            <Position>
              <LatitudeDegrees>36.71825981698930263519287109375</LatitudeDegrees>
              <LongitudeDegrees>-4.348797909915447235107421875</LongitudeDegrees>
            </Position>
            <AltitudeMeters>10</AltitudeMeters>
            <DistanceMeters>99609.912604403</DistanceMeters>
          </Trackpoint>
          <Trackpoint>
            <Time>2021-03-13T12:04:27.000Z</Time>
            <Position>
              <LatitudeDegrees>36.71833793632686138153076171875</LatitudeDegrees>
              <LongitudeDegrees>-4.3491460941731929779052734375</LongitudeDegrees>
            </Position>
            <AltitudeMeters>8.80000019073486328125</AltitudeMeters>
            <DistanceMeters>99642.170779942</DistanceMeters>
          </Trackpoint>
          <Trackpoint>
            <Time>2021-03-13T12:04:29.000Z</Time>
            <Position>
              <LatitudeDegrees>36.71839199960231781005859375</LatitudeDegrees>
              <LongitudeDegrees>-4.3493553064763545989990234375</LongitudeDegrees>
            </Position>
            <AltitudeMeters>8.6000003814697265625</AltitudeMeters>
            <DistanceMeters>99661.782231084</DistanceMeters>
          </Trackpoint>
          <Trackpoint>
            <Time>2021-03-13T12:04:35.000Z</Time>
            <Position>
              <LatitudeDegrees>36.71855217777192592620849609375</LatitudeDegrees>
              <LongitudeDegrees>-4.34996659867465496063232421875</LongitudeDegrees>
            </Position>
            <AltitudeMeters>8.3999996185302734375</AltitudeMeters>
            <DistanceMeters>99719.160428255</DistanceMeters>
          </Trackpoint>
          <Trackpoint>
            <Time>2021-03-13T12:04:36.000Z</Time>
            <Position>
              <LatitudeDegrees>36.718581430613994598388671875</LatitudeDegrees>
              <LongitudeDegrees>-4.35005578212440013885498046875</LongitudeDegrees>
            </Position>
            <AltitudeMeters>8.6000003814697265625</AltitudeMeters>
            <DistanceMeters>99727.758114326</DistanceMeters>
          </Trackpoint>
          <Trackpoint>
            <Time>2021-03-13T12:04:38.000Z</Time>
            <Position>
              <LatitudeDegrees>36.71866332180798053741455078125</LatitudeDegrees>
              <LongitudeDegrees>-4.35021378099918365478515625</LongitudeDegrees>
            </Position>
            <AltitudeMeters>8.80000019073486328125</AltitudeMeters>
            <DistanceMeters>99744.544523573</DistanceMeters>
          </Trackpoint>
          <Trackpoint>
            <Time>2021-03-13T12:04:40.000Z</Time>
            <Position>
              <LatitudeDegrees>36.7187606357038021087646484375</LatitudeDegrees>
              <LongitudeDegrees>-4.3503259308636188507080078125</LongitudeDegrees>
            </Position>
            <AltitudeMeters>8.80000019073486328125</AltitudeMeters>
            <DistanceMeters>99759.289901853</DistanceMeters>
          </Trackpoint>
          <Trackpoint>
            <Time>2021-03-13T12:04:42.000Z</Time>
            <Position>
              <LatitudeDegrees>36.7188853584229946136474609375</LatitudeDegrees>
              <LongitudeDegrees>-4.350431375205516815185546875</LongitudeDegrees>
            </Position>
            <AltitudeMeters>9.19999980926513671875</AltitudeMeters>
            <DistanceMeters>99776.059088194</DistanceMeters>
          </Trackpoint>
          <Trackpoint>
            <Time>2021-03-13T12:04:45.000Z</Time>
            <Position>
              <LatitudeDegrees>36.71904033981263637542724609375</LatitudeDegrees>
              <LongitudeDegrees>-4.35054302215576171875</LongitudeDegrees>
            </Position>
            <AltitudeMeters>10</AltitudeMeters>
            <DistanceMeters>99795.978011328</DistanceMeters>
          </Trackpoint>
          <Trackpoint>
            <Time>2021-03-13T12:04:46.000Z</Time>
            <Position>
              <LatitudeDegrees>36.7190752923488616943359375</LatitudeDegrees>
              <LongitudeDegrees>-4.3505676649510860443115234375</LongitudeDegrees>
            </Position>
            <AltitudeMeters>10.19999980926513671875</AltitudeMeters>
            <DistanceMeters>99800.445277711</DistanceMeters>
          </Trackpoint>
          <Trackpoint>
            <Time>2021-03-13T12:04:47.000Z</Time>
            <Position>
              <LatitudeDegrees>36.71912583522498607635498046875</LatitudeDegrees>
              <LongitudeDegrees>-4.35060177929699420928955078125</LongitudeDegrees>
            </Position>
            <AltitudeMeters>10.80000019073486328125</AltitudeMeters>
            <DistanceMeters>99806.841076824</DistanceMeters>
          </Trackpoint>
          <Trackpoint>
            <Time>2021-03-13T12:04:48.000Z</Time>
            <Position>
              <LatitudeDegrees>36.71916321851313114166259765625</LatitudeDegrees>
              <LongitudeDegrees>-4.3506273441016674041748046875</LongitudeDegrees>
            </Position>
            <AltitudeMeters>11</AltitudeMeters>
            <DistanceMeters>99811.58575601</DistanceMeters>
          </Trackpoint>
          <Trackpoint>
            <Time>2021-03-13T12:04:52.000Z</Time>
            <Position>
              <LatitudeDegrees>36.719264052808284759521484375</LatitudeDegrees>
              <LongitudeDegrees>-4.35071057640016078948974609375</LongitudeDegrees>
            </Position>
            <AltitudeMeters>12</AltitudeMeters>
            <DistanceMeters>99825.043364013</DistanceMeters>
          </Trackpoint>
          <Trackpoint>
            <Time>2021-03-13T12:04:54.000Z</Time>
            <Position>
              <LatitudeDegrees>36.71929783187806606292724609375</LatitudeDegrees>
              <LongitudeDegrees>-4.35073723085224628448486328125</LongitudeDegrees>
            </Position>
            <AltitudeMeters>12.19999980926513671875</AltitudeMeters>
            <DistanceMeters>99829.492400713</DistanceMeters>
          </Trackpoint>
          <Trackpoint>
            <Time>2021-03-13T12:04:59.000Z</Time>
            <Position>
              <LatitudeDegrees>36.719352900981903076171875</LatitudeDegrees>
              <LongitudeDegrees>-4.35078643262386322021484375</LongitudeDegrees>
            </Position>
            <AltitudeMeters>12.3999996185302734375</AltitudeMeters>
            <DistanceMeters>99837.031918683</DistanceMeters>
          </Trackpoint>
          <Trackpoint>
            <Time>2021-03-13T12:05:09.000Z</Time>
            <Position>
              <LatitudeDegrees>36.719381399452686309814453125</LatitudeDegrees>
              <LongitudeDegrees>-4.3508244864642620086669921875</LongitudeDegrees>
            </Position>
            <AltitudeMeters>12.6000003814697265625</AltitudeMeters>
            <DistanceMeters>99841.67949255</DistanceMeters>
          </Trackpoint>
          <Trackpoint>
            <Time>2021-03-13T12:05:13.000Z</Time>
            <Position>
              <LatitudeDegrees>36.719470918178558349609375</LatitudeDegrees>
              <LongitudeDegrees>-4.35098248533904552459716796875</LongitudeDegrees>
            </Position>
            <AltitudeMeters>12.6000003814697265625</AltitudeMeters>
            <DistanceMeters>99858.941429362</DistanceMeters>
          </Trackpoint>
          <Trackpoint>
            <Time>2021-03-13T12:05:17.000Z</Time>
            <Position>
              <LatitudeDegrees>36.71957292594015598297119140625</LatitudeDegrees>
              <LongitudeDegrees>-4.35122002847492694854736328125</LongitudeDegrees>
            </Position>
            <AltitudeMeters>12.6000003814697265625</AltitudeMeters>
            <DistanceMeters>99882.983751491</DistanceMeters>
          </Trackpoint>
          <Trackpoint>
            <Time>2021-03-13T12:05:18.000Z</Time>
            <Position>
              <LatitudeDegrees>36.7196072079241275787353515625</LatitudeDegrees>
              <LongitudeDegrees>-4.35130334459245204925537109375</LongitudeDegrees>
            </Position>
            <AltitudeMeters>12.80000019073486328125</AltitudeMeters>
            <DistanceMeters>99891.339080389</DistanceMeters>
          </Trackpoint>
          <Trackpoint>
            <Time>2021-03-13T12:05:23.000Z</Time>
            <Position>
              <LatitudeDegrees>36.71977727673947811126708984375</LatitudeDegrees>
              <LongitudeDegrees>-4.3516827933490276336669921875</LongitudeDegrees>
            </Position>
            <AltitudeMeters>12.80000019073486328125</AltitudeMeters>
            <DistanceMeters>99930.124650319</DistanceMeters>
          </Trackpoint>
          <Trackpoint>
            <Time>2021-03-13T12:05:28.000Z</Time>
            <Position>
              <LatitudeDegrees>36.71997223980724811553955078125</LatitudeDegrees>
              <LongitudeDegrees>-4.352093674242496490478515625</LongitudeDegrees>
            </Position>
            <AltitudeMeters>12.80000019073486328125</AltitudeMeters>
            <DistanceMeters>99972.723124255</DistanceMeters>
          </Trackpoint>
          <Trackpoint>
            <Time>2021-03-13T12:05:34.000Z</Time>
            <Position>
              <LatitudeDegrees>36.72017055563628673553466796875</LatitudeDegrees>
              <LongitudeDegrees>-4.3526748754084110260009765625</LongitudeDegrees>
            </Position>
            <AltitudeMeters>12.19999980926513671875</AltitudeMeters>
            <DistanceMeters>100029.07813216</DistanceMeters>
          </Trackpoint>
          <Trackpoint>
            <Time>2021-03-13T12:05:39.000Z</Time>
            <Position>
              <LatitudeDegrees>36.72021187841892242431640625</LatitudeDegrees>
              <LongitudeDegrees>-4.353269822895526885986328125</LongitudeDegrees>
            </Position>
            <AltitudeMeters>12</AltitudeMeters>
            <DistanceMeters>100082.35584072</DistanceMeters>
          </Trackpoint>
          <Trackpoint>
            <Time>2021-03-13T12:05:40.000Z</Time>
            <Position>
              <LatitudeDegrees>36.72022084705531597137451171875</LatitudeDegrees>
              <LongitudeDegrees>-4.3533853255212306976318359375</LongitudeDegrees>
            </Position>
            <AltitudeMeters>12</AltitudeMeters>
            <DistanceMeters>100092.70895655</DistanceMeters>
          </Trackpoint>
          <Trackpoint>
            <Time>2021-03-13T12:05:44.000Z</Time>
            <Position>
              <LatitudeDegrees>36.72027583234012126922607421875</LatitudeDegrees>
              <LongitudeDegrees>-4.35384222306311130523681640625</LongitudeDegrees>
            </Position>
            <AltitudeMeters>11.3999996185302734375</AltitudeMeters>
            <DistanceMeters>100133.9283206</DistanceMeters>
          </Trackpoint>
          <Trackpoint>
            <Time>2021-03-13T12:05:45.000Z</Time>
            <Position>
              <LatitudeDegrees>36.72028991393744945526123046875</LatitudeDegrees>
              <LongitudeDegrees>-4.35394884087145328521728515625</LongitudeDegrees>
            </Position>
            <AltitudeMeters>11</AltitudeMeters>
            <DistanceMeters>100143.5692011</DistanceMeters>
          </Trackpoint>
          <Trackpoint>
            <Time>2021-03-13T12:05:49.000Z</Time>
            <Position>
              <LatitudeDegrees>36.72033819369971752166748046875</LatitudeDegrees>
              <LongitudeDegrees>-4.35436340980231761932373046875</LongitudeDegrees>
            </Position>
            <AltitudeMeters>9.6000003814697265625</AltitudeMeters>
            <DistanceMeters>100180.94358357</DistanceMeters>
          </Trackpoint>
          <Trackpoint>
            <Time>2021-03-13T12:05:50.000Z</Time>
            <Position>
              <LatitudeDegrees>36.72035244293510913848876953125</LatitudeDegrees>
              <LongitudeDegrees>-4.35446835123002529144287109375</LongitudeDegrees>
            </Position>
            <AltitudeMeters>9.3999996185302734375</AltitudeMeters>
            <DistanceMeters>100190.43864983</DistanceMeters>
          </Trackpoint>
          <Trackpoint>
            <Time>2021-03-13T12:05:56.000Z</Time>
            <Position>
              <LatitudeDegrees>36.7204619944095611572265625</LatitudeDegrees>
              <LongitudeDegrees>-4.35515105724334716796875</LongitudeDegrees>
            </Position>
            <AltitudeMeters>9</AltitudeMeters>
            <DistanceMeters>100252.55516425</DistanceMeters>
          </Trackpoint>
          <Trackpoint>
            <Time>2021-03-13T12:05:58.000Z</Time>
            <Position>
              <LatitudeDegrees>36.7204968631267547607421875</LatitudeDegrees>
              <LongitudeDegrees>-4.35539404861629009246826171875</LongitudeDegrees>
            </Position>
            <AltitudeMeters>8.6000003814697265625</AltitudeMeters>
            <DistanceMeters>100274.57841256</DistanceMeters>
          </Trackpoint>
          <Trackpoint>
            <Time>2021-03-13T12:06:02.000Z</Time>
            <Position>
              <LatitudeDegrees>36.7205701209604740142822265625</LatitudeDegrees>
              <LongitudeDegrees>-4.355846755206584930419921875</LongitudeDegrees>
            </Position>
            <AltitudeMeters>8</AltitudeMeters>
            <DistanceMeters>100315.78167155</DistanceMeters>
          </Trackpoint>
          <Trackpoint>
            <Time>2021-03-13T12:06:08.000Z</Time>
            <Position>
              <LatitudeDegrees>36.72070800326764583587646484375</LatitudeDegrees>
              <LongitudeDegrees>-4.356510601937770843505859375</LongitudeDegrees>
            </Position>
            <AltitudeMeters>7.80000019073486328125</AltitudeMeters>
            <DistanceMeters>100376.96301117</DistanceMeters>
          </Trackpoint>
          <Trackpoint>
            <Time>2021-03-13T12:06:09.000Z</Time>
            <Position>
              <LatitudeDegrees>36.72073080204427242279052734375</LatitudeDegrees>
              <LongitudeDegrees>-4.35664529912173748016357421875</LongitudeDegrees>
            </Position>
            <AltitudeMeters>7.80000019073486328125</AltitudeMeters>
            <DistanceMeters>100389.2446396</DistanceMeters>
          </Trackpoint>
          <Trackpoint>
            <Time>2021-03-13T12:06:15.000Z</Time>
            <Position>
              <LatitudeDegrees>36.72085217200219631195068359375</LatitudeDegrees>
              <LongitudeDegrees>-4.35730160214006900787353515625</LongitudeDegrees>
            </Position>
            <AltitudeMeters>8.19999980926513671875</AltitudeMeters>
            <DistanceMeters>100449.33489345</DistanceMeters>
          </Trackpoint>
          <Trackpoint>
            <Time>2021-03-13T12:06:18.000Z</Time>
            <Position>
              <LatitudeDegrees>36.72088167630136013031005859375</LatitudeDegrees>
              <LongitudeDegrees>-4.3576218746602535247802734375</LongitudeDegrees>
            </Position>
            <AltitudeMeters>8.19999980926513671875</AltitudeMeters>
            <DistanceMeters>100478.09613791</DistanceMeters>
          </Trackpoint>
          <Trackpoint>
            <Time>2021-03-13T12:06:20.000Z</Time>
            <Position>
              <LatitudeDegrees>36.7208965122699737548828125</LatitudeDegrees>
              <LongitudeDegrees>-4.3578374572098255157470703125</LongitudeDegrees>
            </Position>
            <AltitudeMeters>8.19999980926513671875</AltitudeMeters>
            <DistanceMeters>100497.4001314</DistanceMeters>
          </Trackpoint>
          <Trackpoint>
            <Time>2021-03-13T12:06:23.000Z</Time>
            <Position>
              <LatitudeDegrees>36.720920987427234649658203125</LatitudeDegrees>
              <LongitudeDegrees>-4.3581666983664035797119140625</LongitudeDegrees>
            </Position>
            <AltitudeMeters>8</AltitudeMeters>
            <DistanceMeters>100526.89946032</DistanceMeters>
          </Trackpoint>
          <Trackpoint>
            <Time>2021-03-13T12:06:24.000Z</Time>
            <Position>
              <LatitudeDegrees>36.72093205153942108154296875</LatitudeDegrees>
              <LongitudeDegrees>-4.35827490873634815216064453125</LongitudeDegrees>
            </Position>
            <AltitudeMeters>8</AltitudeMeters>
            <DistanceMeters>100536.6316991</DistanceMeters>
          </Trackpoint>
          <Trackpoint>
            <Time>2021-03-13T12:06:31.000Z</Time>
            <Position>
              <LatitudeDegrees>36.7210123501718044281005859375</LatitudeDegrees>
              <LongitudeDegrees>-4.35904889367520809173583984375</LongitudeDegrees>
            </Position>
            <AltitudeMeters>8.19999980926513671875</AltitudeMeters>
            <DistanceMeters>100606.25872662</DistanceMeters>
          </Trackpoint>
          <Trackpoint>
            <Time>2021-03-13T12:06:38.000Z</Time>
            <Position>
              <LatitudeDegrees>36.72111519612371921539306640625</LatitudeDegrees>
              <LongitudeDegrees>-4.359775520861148834228515625</LongitudeDegrees>
            </Position>
            <AltitudeMeters>8.19999980926513671875</AltitudeMeters>
            <DistanceMeters>100672.08741561</DistanceMeters>
          </Trackpoint>
          <Trackpoint>
            <Time>2021-03-13T12:06:39.000Z</Time>
            <Position>
              <LatitudeDegrees>36.72112290747463703155517578125</LatitudeDegrees>
              <LongitudeDegrees>-4.359878115355968475341796875</LongitudeDegrees>
            </Position>
            <AltitudeMeters>8.19999980926513671875</AltitudeMeters>
            <DistanceMeters>100681.28048286</DistanceMeters>
          </Trackpoint>
          <Trackpoint>
            <Time>2021-03-13T12:06:44.000Z</Time>
            <Position>
              <LatitudeDegrees>36.72117588110268115997314453125</LatitudeDegrees>
              <LongitudeDegrees>-4.3603905849158763885498046875</LongitudeDegrees>
            </Position>
            <AltitudeMeters>8.3999996185302734375</AltitudeMeters>
            <DistanceMeters>100727.37892046</DistanceMeters>
          </Trackpoint>
          <Trackpoint>
            <Time>2021-03-13T12:06:50.000Z</Time>
            <Position>
              <LatitudeDegrees>36.721184514462947845458984375</LatitudeDegrees>
              <LongitudeDegrees>-4.36100338585674762725830078125</LongitudeDegrees>
            </Position>
            <AltitudeMeters>8.6000003814697265625</AltitudeMeters>
            <DistanceMeters>100782.05810444</DistanceMeters>
          </Trackpoint>
          <Trackpoint>
            <Time>2021-03-13T12:06:53.000Z</Time>
            <Position>
              <LatitudeDegrees>36.72120102681219577789306640625</LatitudeDegrees>
              <LongitudeDegrees>-4.36131066642701625823974609375</LongitudeDegrees>
            </Position>
            <AltitudeMeters>8.6000003814697265625</AltitudeMeters>
            <DistanceMeters>100809.53348124</DistanceMeters>
          </Trackpoint>
          <Trackpoint>
            <Time>2021-03-13T12:06:54.000Z</Time>
            <Position>
              <LatitudeDegrees>36.72120873816311359405517578125</LatitudeDegrees>
              <LongitudeDegrees>-4.36141141690313816070556640625</LongitudeDegrees>
            </Position>
            <AltitudeMeters>8.6000003814697265625</AltitudeMeters>
            <DistanceMeters>100818.56351947</DistanceMeters>
          </Trackpoint>
          <Trackpoint>
            <Time>2021-03-13T12:06:55.000Z</Time>
            <Position>
              <LatitudeDegrees>36.7212239094078540802001953125</LatitudeDegrees>
              <LongitudeDegrees>-4.36148710548877716064453125</LongitudeDegrees>
            </Position>
            <AltitudeMeters>8.6000003814697265625</AltitudeMeters>
            <DistanceMeters>100825.52386142</DistanceMeters>
          </Trackpoint>
          <Trackpoint>
            <Time>2021-03-13T12:06:56.000Z</Time>
            <Position>
              <LatitudeDegrees>36.7212446965277194976806640625</LatitudeDegrees>
              <LongitudeDegrees>-4.361612163484096527099609375</LongitudeDegrees>
            </Position>
            <AltitudeMeters>8.80000019073486328125</AltitudeMeters>
            <DistanceMeters>100836.91835303</DistanceMeters>
          </Trackpoint>
          <Trackpoint>
            <Time>2021-03-13T12:07:00.000Z</Time>
            <Position>
              <LatitudeDegrees>36.72130613587796688079833984375</LatitudeDegrees>
              <LongitudeDegrees>-4.36204106546938419342041015625</LongitudeDegrees>
            </Position>
            <AltitudeMeters>9</AltitudeMeters>
            <DistanceMeters>100875.78880956</DistanceMeters>
          </Trackpoint>
          <Trackpoint>
            <Time>2021-03-13T12:07:06.000Z</Time>
            <Position>
              <LatitudeDegrees>36.72145114280283451080322265625</LatitudeDegrees>
              <LongitudeDegrees>-4.36265478841960430145263671875</LongitudeDegrees>
            </Position>
            <AltitudeMeters>9.3999996185302734375</AltitudeMeters>
            <DistanceMeters>100932.87092264</DistanceMeters>
          </Trackpoint>
          <Trackpoint>
            <Time>2021-03-13T12:07:10.000Z</Time>
            <Position>
              <LatitudeDegrees>36.72158340923488140106201171875</LatitudeDegrees>
              <LongitudeDegrees>-4.36304437927901744842529296875</LongitudeDegrees>
            </Position>
            <AltitudeMeters>9.3999996185302734375</AltitudeMeters>
            <DistanceMeters>100970.61722738</DistanceMeters>
          </Trackpoint>
          <Trackpoint>
            <Time>2021-03-13T12:07:12.000Z</Time>
            <Position>
              <LatitudeDegrees>36.72164124436676502227783203125</LatitudeDegrees>
              <LongitudeDegrees>-4.36323230154812335968017578125</LongitudeDegrees>
            </Position>
            <AltitudeMeters>9.6000003814697265625</AltitudeMeters>
            <DistanceMeters>100988.57551655</DistanceMeters>
          </Trackpoint>
          <Trackpoint>
            <Time>2021-03-13T12:07:17.000Z</Time>
            <Position>
              <LatitudeDegrees>36.7218005843460559844970703125</LatitudeDegrees>
              <LongitudeDegrees>-4.363715685904026031494140625</LongitudeDegrees>
            </Position>
            <AltitudeMeters>9.80000019073486328125</AltitudeMeters>
            <DistanceMeters>101035.20449688</DistanceMeters>
          </Trackpoint>
          <Trackpoint>
            <Time>2021-03-13T12:07:23.000Z</Time>
            <Position>
              <LatitudeDegrees>36.72195204533636569976806640625</LatitudeDegrees>
              <LongitudeDegrees>-4.3643072806298732757568359375</LongitudeDegrees>
            </Position>
            <AltitudeMeters>10.6000003814697265625</AltitudeMeters>
            <DistanceMeters>101090.60979804</DistanceMeters>
          </Trackpoint>
          <Trackpoint>
            <Time>2021-03-13T12:07:25.000Z</Time>
            <Position>
              <LatitudeDegrees>36.7219983972609043121337890625</LatitudeDegrees>
              <LongitudeDegrees>-4.36450165696442127227783203125</LongitudeDegrees>
            </Position>
            <AltitudeMeters>10.80000019073486328125</AltitudeMeters>
            <DistanceMeters>101108.70184632</DistanceMeters>
          </Trackpoint>
          <Trackpoint>
            <Time>2021-03-13T12:07:30.000Z</Time>
            <Position>
              <LatitudeDegrees>36.72209554351866245269775390625</LatitudeDegrees>
              <LongitudeDegrees>-4.36496953479945659637451171875</LongitudeDegrees>
            </Position>
            <AltitudeMeters>11.80000019073486328125</AltitudeMeters>
            <DistanceMeters>101151.82063027</DistanceMeters>
          </Trackpoint>
          <Trackpoint>
            <Time>2021-03-13T12:07:32.000Z</Time>
            <Position>
              <LatitudeDegrees>36.722127981483936309814453125</LatitudeDegrees>
              <LongitudeDegrees>-4.3651865422725677490234375</LongitudeDegrees>
            </Position>
            <AltitudeMeters>12.19999980926513671875</AltitudeMeters>
            <DistanceMeters>101171.51432935</DistanceMeters>
          </Trackpoint>
          <Trackpoint>
            <Time>2021-03-13T12:07:35.000Z</Time>
            <Position>
              <LatitudeDegrees>36.7221610061824321746826171875</LatitudeDegrees>
              <LongitudeDegrees>-4.365449734032154083251953125</LongitudeDegrees>
            </Position>
            <AltitudeMeters>13</AltitudeMeters>
            <DistanceMeters>101195.28050871</DistanceMeters>
          </Trackpoint>
          <Trackpoint>
            <Time>2021-03-13T12:07:37.000Z</Time>
            <Position>
              <LatitudeDegrees>36.72218439169228076934814453125</LatitudeDegrees>
              <LongitudeDegrees>-4.3656366504728794097900390625</LongitudeDegrees>
            </Position>
            <AltitudeMeters>13.19999980926513671875</AltitudeMeters>
            <DistanceMeters>101212.15811996</DistanceMeters>
          </Trackpoint>
          <Trackpoint>
            <Time>2021-03-13T12:07:40.000Z</Time>
            <Position>
              <LatitudeDegrees>36.7222226969897747039794921875</LatitudeDegrees>
              <LongitudeDegrees>-4.36583002097904682159423828125</LongitudeDegrees>
            </Position>
            <AltitudeMeters>13.6000003814697265625</AltitudeMeters>
            <DistanceMeters>101229.92836963</DistanceMeters>
          </Trackpoint>
          <Trackpoint>
            <Time>2021-03-13T12:07:41.000Z</Time>
            <Position>
              <LatitudeDegrees>36.7222349345684051513671875</LatitudeDegrees>
              <LongitudeDegrees>-4.3658736906945705413818359375</LongitudeDegrees>
            </Position>
            <AltitudeMeters>13.80000019073486328125</AltitudeMeters>
            <DistanceMeters>101234.05629335</DistanceMeters>
          </Trackpoint>
          <Trackpoint>
            <Time>2021-03-13T12:07:42.000Z</Time>
            <Position>
              <LatitudeDegrees>36.72224658541381359100341796875</LatitudeDegrees>
              <LongitudeDegrees>-4.36593613587319850921630859375</LongitudeDegrees>
            </Position>
            <AltitudeMeters>14</AltitudeMeters>
            <DistanceMeters>101239.77686998</DistanceMeters>
          </Trackpoint>
          <Trackpoint>
            <Time>2021-03-13T12:07:46.000Z</Time>
            <Position>
              <LatitudeDegrees>36.722276844084262847900390625</LatitudeDegrees>
              <LongitudeDegrees>-4.366092793643474578857421875</LongitudeDegrees>
            </Position>
            <AltitudeMeters>14.6000003814697265625</AltitudeMeters>
            <DistanceMeters>101254.15325303</DistanceMeters>
          </Trackpoint>
          <Trackpoint>
            <Time>2021-03-13T12:07:48.000Z</Time>
            <Position>
              <LatitudeDegrees>36.722284890711307525634765625</LatitudeDegrees>
              <LongitudeDegrees>-4.36614786274731159210205078125</LongitudeDegrees>
            </Position>
            <AltitudeMeters>14.80000019073486328125</AltitudeMeters>
            <DistanceMeters>101259.14826066</DistanceMeters>
          </Trackpoint>
          <Trackpoint>
            <Time>2021-03-13T12:07:51.000Z</Time>
            <Position>
              <LatitudeDegrees>36.72229553572833538055419921875</LatitudeDegrees>
              <LongitudeDegrees>-4.36619949527084827423095703125</LongitudeDegrees>
            </Position>
            <AltitudeMeters>14.80000019073486328125</AltitudeMeters>
            <DistanceMeters>101263.90529457</DistanceMeters>
          </Trackpoint>
          <Trackpoint>
            <Time>2021-03-13T12:07:52.000Z</Time>
            <Position>
              <LatitudeDegrees>36.72229553572833538055419921875</LatitudeDegrees>
              <LongitudeDegrees>-4.36619949527084827423095703125</LongitudeDegrees>
            </Position>
            <AltitudeMeters>14.80000019073486328125</AltitudeMeters>
            <DistanceMeters>101263.90529457</DistanceMeters>
          </Trackpoint>
          <Trackpoint>
            <Time>2021-03-13T12:07:55.000Z</Time>
            <Position>
              <LatitudeDegrees>36.72229553572833538055419921875</LatitudeDegrees>
              <LongitudeDegrees>-4.36619949527084827423095703125</LongitudeDegrees>
            </Position>
            <AltitudeMeters>14.80000019073486328125</AltitudeMeters>
            <DistanceMeters>101263.90529457</DistanceMeters>
          </Trackpoint>
          <Trackpoint>
            <Time>2021-03-13T12:08:10.000Z</Time>
            <Position>
              <LatitudeDegrees>36.722298972308635711669921875</LatitudeDegrees>
              <LongitudeDegrees>-4.3662253953516483306884765625</LongitudeDegrees>
            </Position>
            <AltitudeMeters>14.6000003814697265625</AltitudeMeters>
            <DistanceMeters>101266.2484306</DistanceMeters>
          </Trackpoint>
          <Trackpoint>
            <Time>2021-03-13T12:08:14.000Z</Time>
            <Position>
              <LatitudeDegrees>36.72232034616172313690185546875</LatitudeDegrees>
              <LongitudeDegrees>-4.3664158321917057037353515625</LongitudeDegrees>
            </Position>
            <AltitudeMeters>14.3999996185302734375</AltitudeMeters>
            <DistanceMeters>101283.40384524</DistanceMeters>
          </Trackpoint>
          <Trackpoint>
            <Time>2021-03-13T12:08:17.000Z</Time>
            <Position>
              <LatitudeDegrees>36.72235362231731414794921875</LatitudeDegrees>
              <LongitudeDegrees>-4.366644322872161865234375</LongitudeDegrees>
            </Position>
            <AltitudeMeters>14.3999996185302734375</AltitudeMeters>
            <DistanceMeters>101304.1220663</DistanceMeters>
          </Trackpoint>
          <Trackpoint>
            <Time>2021-03-13T12:08:18.000Z</Time>
            <Position>
              <LatitudeDegrees>36.722363345324993133544921875</LatitudeDegrees>
              <LongitudeDegrees>-4.3667085282504558563232421875</LongitudeDegrees>
            </Position>
            <AltitudeMeters>14.3999996185302734375</AltitudeMeters>
            <DistanceMeters>101309.95054359</DistanceMeters>
          </Trackpoint>
          <Trackpoint>
            <Time>2021-03-13T12:08:24.000Z</Time>
            <Position>
              <LatitudeDegrees>36.722431071102619171142578125</LatitudeDegrees>
              <LongitudeDegrees>-4.36719979159533977508544921875</LongitudeDegrees>
            </Position>
            <AltitudeMeters>13.6000003814697265625</AltitudeMeters>
            <DistanceMeters>101354.42121844</DistanceMeters>
          </Trackpoint>
          <Trackpoint>
            <Time>2021-03-13T12:08:26.000Z</Time>
            <Position>
              <LatitudeDegrees>36.72244356013834476470947265625</LatitudeDegrees>
              <LongitudeDegrees>-4.36735846102237701416015625</LongitudeDegrees>
            </Position>
            <AltitudeMeters>13.3999996185302734375</AltitudeMeters>
            <DistanceMeters>101368.64478455</DistanceMeters>
          </Trackpoint>
          <Trackpoint>
            <Time>2021-03-13T12:08:29.000Z</Time>
            <Position>
              <LatitudeDegrees>36.7224537022411823272705078125</LatitudeDegrees>
              <LongitudeDegrees>-4.367588460445404052734375</LongitudeDegrees>
            </Position>
            <AltitudeMeters>12.80000019073486328125</AltitudeMeters>
            <DistanceMeters>101389.19473722</DistanceMeters>
          </Trackpoint>
          <Trackpoint>
            <Time>2021-03-13T12:08:32.000Z</Time>
            <Position>
              <LatitudeDegrees>36.72245420515537261962890625</LatitudeDegrees>
              <LongitudeDegrees>-4.36782139353454113006591796875</LongitudeDegrees>
            </Position>
            <AltitudeMeters>12.3999996185302734375</AltitudeMeters>
            <DistanceMeters>101409.97540891</DistanceMeters>
          </Trackpoint>
          <Trackpoint>
            <Time>2021-03-13T12:08:33.000Z</Time>
            <Position>
              <LatitudeDegrees>36.722453199326992034912109375</LatitudeDegrees>
              <LongitudeDegrees>-4.36791904270648956298828125</LongitudeDegrees>
            </Position>
            <AltitudeMeters>12.19999980926513671875</AltitudeMeters>
            <DistanceMeters>101418.68682455</DistanceMeters>
          </Trackpoint>
          <Trackpoint>
            <Time>2021-03-13T12:08:35.000Z</Time>
            <Position>
              <LatitudeDegrees>36.72244775108993053436279296875</LatitudeDegrees>
              <LongitudeDegrees>-4.36809347011148929595947265625</LongitudeDegrees>
            </Position>
            <AltitudeMeters>12</AltitudeMeters>
            <DistanceMeters>101434.25961277</DistanceMeters>
          </Trackpoint>
          <Trackpoint>
            <Time>2021-03-13T12:08:37.000Z</Time>
            <Position>
              <LatitudeDegrees>36.7224473319947719573974609375</LatitudeDegrees>
              <LongitudeDegrees>-4.3682818114757537841796875</LongitudeDegrees>
            </Position>
            <AltitudeMeters>11.80000019073486328125</AltitudeMeters>
            <DistanceMeters>101451.06242117</DistanceMeters>
          </Trackpoint>
          <Trackpoint>
            <Time>2021-03-13T12:08:44.000Z</Time>
            <Position>
              <LatitudeDegrees>36.72244674526154994964599609375</LatitudeDegrees>
              <LongitudeDegrees>-4.36898396350443363189697265625</LongitudeDegrees>
            </Position>
            <AltitudeMeters>10.6000003814697265625</AltitudeMeters>
            <DistanceMeters>101513.70369684</DistanceMeters>
          </Trackpoint>
          <Trackpoint>
            <Time>2021-03-13T12:08:45.000Z</Time>
            <Position>
              <LatitudeDegrees>36.72244708053767681121826171875</LatitudeDegrees>
              <LongitudeDegrees>-4.3690910004079341888427734375</LongitudeDegrees>
            </Position>
            <AltitudeMeters>10.6000003814697265625</AltitudeMeters>
            <DistanceMeters>101523.25329065</DistanceMeters>
          </Trackpoint>
          <Trackpoint>
            <Time>2021-03-13T12:08:49.000Z</Time>
            <Position>
              <LatitudeDegrees>36.72244548797607421875</LatitudeDegrees>
              <LongitudeDegrees>-4.369540773332118988037109375</LongitudeDegrees>
            </Position>
            <AltitudeMeters>10</AltitudeMeters>
            <DistanceMeters>101563.37955151</DistanceMeters>
          </Trackpoint>
          <Trackpoint>
            <Time>2021-03-13T12:08:51.000Z</Time>
            <Position>
              <LatitudeDegrees>36.72244942747056484222412109375</LatitudeDegrees>
              <LongitudeDegrees>-4.36976867727935314178466796875</LongitudeDegrees>
            </Position>
            <AltitudeMeters>9.6000003814697265625</AltitudeMeters>
            <DistanceMeters>101583.71615647</DistanceMeters>
          </Trackpoint>
          <Trackpoint>
            <Time>2021-03-13T12:08:52.000Z</Time>
            <Position>
              <LatitudeDegrees>36.72244976274669170379638671875</LatitudeDegrees>
              <LongitudeDegrees>-4.36986288987100124359130859375</LongitudeDegrees>
            </Position>
            <AltitudeMeters>9.6000003814697265625</AltitudeMeters>
            <DistanceMeters>101592.12159031</DistanceMeters>
          </Trackpoint>
          <Trackpoint>
            <Time>2021-03-13T12:08:56.000Z</Time>
            <Position>
              <LatitudeDegrees>36.7224513553082942962646484375</LatitudeDegrees>
              <LongitudeDegrees>-4.37036446295678615570068359375</LongitudeDegrees>
            </Position>
            <AltitudeMeters>8.6000003814697265625</AltitudeMeters>
            <DistanceMeters>101636.86878118</DistanceMeters>
          </Trackpoint>
          <Trackpoint>
            <Time>2021-03-13T12:08:58.000Z</Time>
            <Position>
              <LatitudeDegrees>36.72245420515537261962890625</LatitudeDegrees>
              <LongitudeDegrees>-4.370596893131732940673828125</LongitudeDegrees>
            </Position>
            <AltitudeMeters>8.19999980926513671875</AltitudeMeters>
            <DistanceMeters>101657.60725945</DistanceMeters>
          </Trackpoint>
          <Trackpoint>
            <Time>2021-03-13T12:09:04.000Z</Time>
            <Position>
              <LatitudeDegrees>36.72245361842215061187744140625</LatitudeDegrees>
              <LongitudeDegrees>-4.37132134102284908294677734375</LongitudeDegrees>
            </Position>
            <AltitudeMeters>8</AltitudeMeters>
            <DistanceMeters>101722.2375819</DistanceMeters>
          </Trackpoint>
          <Trackpoint>
            <Time>2021-03-13T12:09:06.000Z</Time>
            <Position>
              <LatitudeDegrees>36.72245093621313571929931640625</LatitudeDegrees>
              <LongitudeDegrees>-4.371559135615825653076171875</LongitudeDegrees>
            </Position>
            <AltitudeMeters>7.80000019073486328125</AltitudeMeters>
            <DistanceMeters>101743.45387872</DistanceMeters>
          </Trackpoint>
          <Trackpoint>
            <Time>2021-03-13T12:09:10.000Z</Time>
            <Position>
              <LatitudeDegrees>36.72245529480278491973876953125</LatitudeDegrees>
              <LongitudeDegrees>-4.3720243312418460845947265625</LongitudeDegrees>
            </Position>
            <AltitudeMeters>7.599999904632568359375</AltitudeMeters>
            <DistanceMeters>101784.95825804</DistanceMeters>
          </Trackpoint>
          <Trackpoint>
            <Time>2021-03-13T12:09:11.000Z</Time>
            <Position>
              <LatitudeDegrees>36.7224548757076263427734375</LatitudeDegrees>
              <LongitudeDegrees>-4.3721175380051136016845703125</LongitudeDegrees>
            </Position>
            <AltitudeMeters>7.599999904632568359375</AltitudeMeters>
            <DistanceMeters>101793.27404576</DistanceMeters>
          </Trackpoint>
          <Trackpoint>
            <Time>2021-03-13T12:09:17.000Z</Time>
            <Position>
              <LatitudeDegrees>36.7224533669650554656982421875</LatitudeDegrees>
              <LongitudeDegrees>-4.37283678911626338958740234375</LongitudeDegrees>
            </Position>
            <AltitudeMeters>7.80000019073486328125</AltitudeMeters>
            <DistanceMeters>101857.44100615</DistanceMeters>
          </Trackpoint>
          <Trackpoint>
            <Time>2021-03-13T12:09:20.000Z</Time>
            <Position>
              <LatitudeDegrees>36.72245076857507228851318359375</LatitudeDegrees>
              <LongitudeDegrees>-4.37318363226950168609619140625</LongitudeDegrees>
            </Position>
            <AltitudeMeters>8</AltitudeMeters>
            <DistanceMeters>101888.38529975</DistanceMeters>
          </Trackpoint>
          <Trackpoint>
            <Time>2021-03-13T12:09:27.000Z</Time>
            <Position>
              <LatitudeDegrees>36.72245378606021404266357421875</LatitudeDegrees>
              <LongitudeDegrees>-4.37393884174525737762451171875</LongitudeDegrees>
            </Position>
            <AltitudeMeters>8</AltitudeMeters>
            <DistanceMeters>101955.76078155</DistanceMeters>
          </Trackpoint>
          <Trackpoint>
            <Time>2021-03-13T12:09:33.000Z</Time>
            <Position>
              <LatitudeDegrees>36.722456552088260650634765625</LatitudeDegrees>
              <LongitudeDegrees>-4.37452674843370914459228515625</LongitudeDegrees>
            </Position>
            <AltitudeMeters>8</AltitudeMeters>
            <DistanceMeters>102008.21070747</DistanceMeters>
          </Trackpoint>
          <Trackpoint>
            <Time>2021-03-13T12:09:39.000Z</Time>
            <Position>
              <LatitudeDegrees>36.72243333421647548675537109375</LatitudeDegrees>
              <LongitudeDegrees>-4.3751279823482036590576171875</LongitudeDegrees>
            </Position>
            <AltitudeMeters>8.3999996185302734375</AltitudeMeters>
            <DistanceMeters>102061.91080739</DistanceMeters>
          </Trackpoint>
          <Trackpoint>
            <Time>2021-03-13T12:09:46.000Z</Time>
            <Position>
              <LatitudeDegrees>36.72240458428859710693359375</LatitudeDegrees>
              <LongitudeDegrees>-4.3759021349251270294189453125</LongitudeDegrees>
            </Position>
            <AltitudeMeters>7.599999904632568359375</AltitudeMeters>
            <DistanceMeters>102131.04951773</DistanceMeters>
          </Trackpoint>
          <Trackpoint>
            <Time>2021-03-13T12:09:47.000Z</Time>
            <Position>
              <LatitudeDegrees>36.722401566803455352783203125</LatitudeDegrees>
              <LongitudeDegrees>-4.3760157935321331024169921875</LongitudeDegrees>
            </Position>
            <AltitudeMeters>7.19999980926513671875</AltitudeMeters>
            <DistanceMeters>102141.19470433</DistanceMeters>
          </Trackpoint>
          <Trackpoint>
            <Time>2021-03-13T12:09:54.000Z</Time>
            <Position>
              <LatitudeDegrees>36.7223759181797504425048828125</LatitudeDegrees>
              <LongitudeDegrees>-4.37679581344127655029296875</LongitudeDegrees>
            </Position>
            <AltitudeMeters>6.599999904632568359375</AltitudeMeters>
            <DistanceMeters>102210.8413126</DistanceMeters>
          </Trackpoint>
          <Trackpoint>
            <Time>2021-03-13T12:10:01.000Z</Time>
            <Position>
              <LatitudeDegrees>36.72231070697307586669921875</LatitudeDegrees>
              <LongitudeDegrees>-4.377573318779468536376953125</LongitudeDegrees>
            </Position>
            <AltitudeMeters>6.599999904632568359375</AltitudeMeters>
            <DistanceMeters>102280.58380006</DistanceMeters>
          </Trackpoint>
          <Trackpoint>
            <Time>2021-03-13T12:10:02.000Z</Time>
            <Position>
              <LatitudeDegrees>36.722298301756381988525390625</LatitudeDegrees>
              <LongitudeDegrees>-4.37768320553004741668701171875</LongitudeDegrees>
            </Position>
            <AltitudeMeters>6.599999904632568359375</AltitudeMeters>
            <DistanceMeters>102290.48392378</DistanceMeters>
          </Trackpoint>
          <Trackpoint>
            <Time>2021-03-13T12:10:09.000Z</Time>
            <Position>
              <LatitudeDegrees>36.7222059331834316253662109375</LatitudeDegrees>
              <LongitudeDegrees>-4.37842232175171375274658203125</LongitudeDegrees>
            </Position>
            <AltitudeMeters>7</AltitudeMeters>
            <DistanceMeters>102357.21954195</DistanceMeters>
          </Trackpoint>
          <Trackpoint>
            <Time>2021-03-13T12:10:12.000Z</Time>
            <Position>
              <LatitudeDegrees>36.722158826887607574462890625</LatitudeDegrees>
              <LongitudeDegrees>-4.37873781658709049224853515625</LongitudeDegrees>
            </Position>
            <AltitudeMeters>7.400000095367431640625</AltitudeMeters>
            <DistanceMeters>102385.85019369</DistanceMeters>
          </Trackpoint>
          <Trackpoint>
            <Time>2021-03-13T12:10:19.000Z</Time>
            <Position>
              <LatitudeDegrees>36.72204810194671154022216796875</LatitudeDegrees>
              <LongitudeDegrees>-4.3794976361095905303955078125</LongitudeDegrees>
            </Position>
            <AltitudeMeters>7.400000095367431640625</AltitudeMeters>
            <DistanceMeters>102454.74751065</DistanceMeters>
          </Trackpoint>
          <Trackpoint>
            <Time>2021-03-13T12:10:20.000Z</Time>
            <Position>
              <LatitudeDegrees>36.7220295779407024383544921875</LatitudeDegrees>
              <LongitudeDegrees>-4.3796055950224399566650390625</LongitudeDegrees>
            </Position>
            <AltitudeMeters>7.400000095367431640625</AltitudeMeters>
            <DistanceMeters>102464.59734016</DistanceMeters>
          </Trackpoint>
          <Trackpoint>
            <Time>2021-03-13T12:10:26.000Z</Time>
            <Position>
              <LatitudeDegrees>36.7219279892742633819580078125</LatitudeDegrees>
              <LongitudeDegrees>-4.380236752331256866455078125</LongitudeDegrees>
            </Position>
            <AltitudeMeters>7</AltitudeMeters>
            <DistanceMeters>102522.02933545</DistanceMeters>
          </Trackpoint>
          <Trackpoint>
            <Time>2021-03-13T12:10:31.000Z</Time>
            <Position>
              <LatitudeDegrees>36.72186235897243022918701171875</LatitudeDegrees>
              <LongitudeDegrees>-4.380763806402683258056640625</LongitudeDegrees>
            </Position>
            <AltitudeMeters>7.19999980926513671875</AltitudeMeters>
            <DistanceMeters>102569.6139093</DistanceMeters>
          </Trackpoint>
          <Trackpoint>
            <Time>2021-03-13T12:10:35.000Z</Time>
            <Position>
              <LatitudeDegrees>36.72185079194605350494384765625</LatitudeDegrees>
              <LongitudeDegrees>-4.38121265731751918792724609375</LongitudeDegrees>
            </Position>
            <AltitudeMeters>7.599999904632568359375</AltitudeMeters>
            <DistanceMeters>102609.67823593</DistanceMeters>
          </Trackpoint>
          <Trackpoint>
            <Time>2021-03-13T12:10:36.000Z</Time>
            <Position>
              <LatitudeDegrees>36.721859090030193328857421875</LatitudeDegrees>
              <LongitudeDegrees>-4.38132313080132007598876953125</LongitudeDegrees>
            </Position>
            <AltitudeMeters>7.599999904632568359375</AltitudeMeters>
            <DistanceMeters>102619.57699138</DistanceMeters>
          </Trackpoint>
          <Trackpoint>
            <Time>2021-03-13T12:10:41.000Z</Time>
            <Position>
              <LatitudeDegrees>36.72192304395139217376708984375</LatitudeDegrees>
              <LongitudeDegrees>-4.38187323510646820068359375</LongitudeDegrees>
            </Position>
            <AltitudeMeters>8.19999980926513671875</AltitudeMeters>
            <DistanceMeters>102669.16728114</DistanceMeters>
          </Trackpoint>
          <Trackpoint>
            <Time>2021-03-13T12:10:44.000Z</Time>
            <Position>
              <LatitudeDegrees>36.7219648696482181549072265625</LatitudeDegrees>
              <LongitudeDegrees>-4.38220985233783721923828125</LongitudeDegrees>
            </Position>
            <AltitudeMeters>8</AltitudeMeters>
            <DistanceMeters>102699.55681845</DistanceMeters>
          </Trackpoint>
          <Trackpoint>
            <Time>2021-03-13T12:10:46.000Z</Time>
            <Position>
              <LatitudeDegrees>36.721991188824176788330078125</LatitudeDegrees>
              <LongitudeDegrees>-4.38243641518056392669677734375</LongitudeDegrees>
            </Position>
            <AltitudeMeters>8.19999980926513671875</AltitudeMeters>
            <DistanceMeters>102719.98026799</DistanceMeters>
          </Trackpoint>
          <Trackpoint>
            <Time>2021-03-13T12:10:50.000Z</Time>
            <Position>
              <LatitudeDegrees>36.722035445272922515869140625</LatitudeDegrees>
              <LongitudeDegrees>-4.38287210650742053985595703125</LongitudeDegrees>
            </Position>
            <AltitudeMeters>8.3999996185302734375</AltitudeMeters>
            <DistanceMeters>102759.16078605</DistanceMeters>
          </Trackpoint>
          <Trackpoint>
            <Time>2021-03-13T12:10:51.000Z</Time>
            <Position>
              <LatitudeDegrees>36.7220366187393665313720703125</LatitudeDegrees>
              <LongitudeDegrees>-4.3829875253140926361083984375</LongitudeDegrees>
            </Position>
            <AltitudeMeters>8.6000003814697265625</AltitudeMeters>
            <DistanceMeters>102769.45792923</DistanceMeters>
          </Trackpoint>
          <Trackpoint>
            <Time>2021-03-13T12:10:55.000Z</Time>
            <Position>
              <LatitudeDegrees>36.72202639281749725341796875</LatitudeDegrees>
              <LongitudeDegrees>-4.38341860659420490264892578125</LongitudeDegrees>
            </Position>
            <AltitudeMeters>8.80000019073486328125</AltitudeMeters>
            <DistanceMeters>102807.93307122</DistanceMeters>
          </Trackpoint>
          <Trackpoint>
            <Time>2021-03-13T12:10:57.000Z</Time>
            <Position>
              <LatitudeDegrees>36.7220004089176654815673828125</LatitudeDegrees>
              <LongitudeDegrees>-4.38362966291606426239013671875</LongitudeDegrees>
            </Position>
            <AltitudeMeters>8.80000019073486328125</AltitudeMeters>
            <DistanceMeters>102826.98326131</DistanceMeters>
          </Trackpoint>
          <Trackpoint>
            <Time>2021-03-13T12:10:58.000Z</Time>
            <Position>
              <LatitudeDegrees>36.7219828069210052490234375</LatitudeDegrees>
              <LongitudeDegrees>-4.3837298266589641571044921875</LongitudeDegrees>
            </Position>
            <AltitudeMeters>8.6000003814697265625</AltitudeMeters>
            <DistanceMeters>102836.13152609</DistanceMeters>
          </Trackpoint>
          <Trackpoint>
            <Time>2021-03-13T12:11:01.000Z</Time>
            <Position>
              <LatitudeDegrees>36.72189588658511638641357421875</LatitudeDegrees>
              <LongitudeDegrees>-4.38403417356312274932861328125</LongitudeDegrees>
            </Position>
            <AltitudeMeters>8.3999996185302734375</AltitudeMeters>
            <DistanceMeters>102864.95565215</DistanceMeters>
          </Trackpoint>
          <Trackpoint>
            <Time>2021-03-13T12:11:07.000Z</Time>
            <Position>
              <LatitudeDegrees>36.7216892726719379425048828125</LatitudeDegrees>
              <LongitudeDegrees>-4.38465602695941925048828125</LongitudeDegrees>
            </Position>
            <AltitudeMeters>8.19999980926513671875</AltitudeMeters>
            <DistanceMeters>102925.01103203</DistanceMeters>
          </Trackpoint>
          <Trackpoint>
            <Time>2021-03-13T12:11:12.000Z</Time>
            <Position>
              <LatitudeDegrees>36.7215461097657680511474609375</LatitudeDegrees>
              <LongitudeDegrees>-4.38519707880914211273193359375</LongitudeDegrees>
            </Position>
            <AltitudeMeters>8.19999980926513671875</AltitudeMeters>
            <DistanceMeters>102975.84259716</DistanceMeters>
          </Trackpoint>
          <Trackpoint>
            <Time>2021-03-13T12:11:13.000Z</Time>
            <Position>
              <LatitudeDegrees>36.7215370573103427886962890625</LatitudeDegrees>
              <LongitudeDegrees>-4.385312162339687347412109375</LongitudeDegrees>
            </Position>
            <AltitudeMeters>8.19999980926513671875</AltitudeMeters>
            <DistanceMeters>102986.15901519</DistanceMeters>
          </Trackpoint>
          <Trackpoint>
            <Time>2021-03-13T12:11:18.000Z</Time>
            <Position>
              <LatitudeDegrees>36.72155826352536678314208984375</LatitudeDegrees>
              <LongitudeDegrees>-4.3858923576772212982177734375</LongitudeDegrees>
            </Position>
            <AltitudeMeters>8.3999996185302734375</AltitudeMeters>
            <DistanceMeters>103037.97446065</DistanceMeters>
          </Trackpoint>
          <Trackpoint>
            <Time>2021-03-13T12:11:23.000Z</Time>
            <Position>
              <LatitudeDegrees>36.72171232290565967559814453125</LatitudeDegrees>
              <LongitudeDegrees>-4.3864376842975616455078125</LongitudeDegrees>
            </Position>
            <AltitudeMeters>8.3999996185302734375</AltitudeMeters>
            <DistanceMeters>103089.55873903</DistanceMeters>
          </Trackpoint>
          <Trackpoint>
            <Time>2021-03-13T12:11:29.000Z</Time>
            <Position>
              <LatitudeDegrees>36.72197408974170684814453125</LatitudeDegrees>
              <LongitudeDegrees>-4.3870376609265804290771484375</LongitudeDegrees>
            </Position>
            <AltitudeMeters>8.6000003814697265625</AltitudeMeters>
            <DistanceMeters>103150.50065343</DistanceMeters>
          </Trackpoint>
          <Trackpoint>
            <Time>2021-03-13T12:11:30.000Z</Time>
            <Position>
              <LatitudeDegrees>36.7220198549330234527587890625</LatitudeDegrees>
              <LongitudeDegrees>-4.387141764163970947265625</LongitudeDegrees>
            </Position>
            <AltitudeMeters>8.6000003814697265625</AltitudeMeters>
            <DistanceMeters>103161.09346844</DistanceMeters>
          </Trackpoint>
          <Trackpoint>
            <Time>2021-03-13T12:11:36.000Z</Time>
            <Position>
              <LatitudeDegrees>36.72228078357875347137451171875</LatitudeDegrees>
              <LongitudeDegrees>-4.3877538107335567474365234375</LongitudeDegrees>
            </Position>
            <AltitudeMeters>8.6000003814697265625</AltitudeMeters>
            <DistanceMeters>103222.93928964</DistanceMeters>
          </Trackpoint>
          <Trackpoint>
            <Time>2021-03-13T12:11:40.000Z</Time>
            <Position>
              <LatitudeDegrees>36.72234959900379180908203125</LatitudeDegrees>
              <LongitudeDegrees>-4.3880337662994861602783203125</LongitudeDegrees>
            </Position>
            <AltitudeMeters>8.19999980926513671875</AltitudeMeters>
            <DistanceMeters>103249.0631687</DistanceMeters>
          </Trackpoint>
          <Trackpoint>
            <Time>2021-03-13T12:11:44.000Z</Time>
            <Position>
              <LatitudeDegrees>36.722368709743022918701171875</LatitudeDegrees>
              <LongitudeDegrees>-4.38813845627009868621826171875</LongitudeDegrees>
            </Position>
            <AltitudeMeters>8.19999980926513671875</AltitudeMeters>
            <DistanceMeters>103258.6420312</DistanceMeters>
          </Trackpoint>
          <Trackpoint>
            <Time>2021-03-13T12:11:48.000Z</Time>
            <Position>
              <LatitudeDegrees>36.722368709743022918701171875</LatitudeDegrees>
              <LongitudeDegrees>-4.38813845627009868621826171875</LongitudeDegrees>
            </Position>
            <AltitudeMeters>8.19999980926513671875</AltitudeMeters>
            <DistanceMeters>103258.6420312</DistanceMeters>
          </Trackpoint>
          <Trackpoint>
            <Time>2021-03-13T12:11:58.000Z</Time>
            <Position>
              <LatitudeDegrees>36.722368709743022918701171875</LatitudeDegrees>
              <LongitudeDegrees>-4.38813845627009868621826171875</LongitudeDegrees>
            </Position>
            <AltitudeMeters>8.19999980926513671875</AltitudeMeters>
            <DistanceMeters>103258.6420312</DistanceMeters>
          </Trackpoint>
          <Trackpoint>
            <Time>2021-03-13T12:12:01.000Z</Time>
            <Position>
              <LatitudeDegrees>36.722368709743022918701171875</LatitudeDegrees>
              <LongitudeDegrees>-4.38813845627009868621826171875</LongitudeDegrees>
            </Position>
            <AltitudeMeters>8.3999996185302734375</AltitudeMeters>
            <DistanceMeters>103258.6420312</DistanceMeters>
          </Trackpoint>
          <Trackpoint>
            <Time>2021-03-13T12:12:11.000Z</Time>
            <Position>
              <LatitudeDegrees>36.722368709743022918701171875</LatitudeDegrees>
              <LongitudeDegrees>-4.38813845627009868621826171875</LongitudeDegrees>
            </Position>
            <AltitudeMeters>8.3999996185302734375</AltitudeMeters>
            <DistanceMeters>103258.6420312</DistanceMeters>
          </Trackpoint>
          <Trackpoint>
            <Time>2021-03-13T12:12:18.000Z</Time>
            <Position>
              <LatitudeDegrees>36.722378097474575042724609375</LatitudeDegrees>
              <LongitudeDegrees>-4.3882077746093273162841796875</LongitudeDegrees>
            </Position>
            <AltitudeMeters>8.19999980926513671875</AltitudeMeters>
            <DistanceMeters>103264.91379435</DistanceMeters>
          </Trackpoint>
          <Trackpoint>
            <Time>2021-03-13T12:12:20.000Z</Time>
            <Position>
              <LatitudeDegrees>36.72238941304385662078857421875</LatitudeDegrees>
              <LongitudeDegrees>-4.3882657773792743682861328125</LongitudeDegrees>
            </Position>
            <AltitudeMeters>8.19999980926513671875</AltitudeMeters>
            <DistanceMeters>103270.24037864</DistanceMeters>
          </Trackpoint>
          <Trackpoint>
            <Time>2021-03-13T12:12:23.000Z</Time>
            <Position>
              <LatitudeDegrees>36.72239243052899837493896484375</LatitudeDegrees>
              <LongitudeDegrees>-4.38837432302534580230712890625</LongitudeDegrees>
            </Position>
            <AltitudeMeters>8.19999980926513671875</AltitudeMeters>
            <DistanceMeters>103279.93030819</DistanceMeters>
          </Trackpoint>
          <Trackpoint>
            <Time>2021-03-13T12:12:25.000Z</Time>
            <Position>
              <LatitudeDegrees>36.72240064479410648345947265625</LatitudeDegrees>
              <LongitudeDegrees>-4.38848312012851238250732421875</LongitudeDegrees>
            </Position>
            <AltitudeMeters>8.19999980926513671875</AltitudeMeters>
            <DistanceMeters>103289.67969713</DistanceMeters>
          </Trackpoint>
          <Trackpoint>
            <Time>2021-03-13T12:12:27.000Z</Time>
            <Position>
              <LatitudeDegrees>36.7224141396582126617431640625</LatitudeDegrees>
              <LongitudeDegrees>-4.38863131217658519744873046875</LongitudeDegrees>
            </Position>
            <AltitudeMeters>7.80000019073486328125</AltitudeMeters>
            <DistanceMeters>103302.98547327</DistanceMeters>
          </Trackpoint>
          <Trackpoint>
            <Time>2021-03-13T12:12:29.000Z</Time>
            <Position>
              <LatitudeDegrees>36.72242864035069942474365234375</LatitudeDegrees>
              <LongitudeDegrees>-4.388819150626659393310546875</LongitudeDegrees>
            </Position>
            <AltitudeMeters>7.80000019073486328125</AltitudeMeters>
            <DistanceMeters>103319.82076387</DistanceMeters>
          </Trackpoint>
          <Trackpoint>
            <Time>2021-03-13T12:12:30.000Z</Time>
            <Position>
              <LatitudeDegrees>36.72243517823517322540283203125</LatitudeDegrees>
              <LongitudeDegrees>-4.38892032019793987274169921875</LongitudeDegrees>
            </Position>
            <AltitudeMeters>7.80000019073486328125</AltitudeMeters>
            <DistanceMeters>103328.87576768</DistanceMeters>
          </Trackpoint>
          <Trackpoint>
            <Time>2021-03-13T12:12:31.000Z</Time>
            <Position>
              <LatitudeDegrees>36.7224414646625518798828125</LatitudeDegrees>
              <LongitudeDegrees>-4.38902241177856922149658203125</LongitudeDegrees>
            </Position>
            <AltitudeMeters>7.80000019073486328125</AltitudeMeters>
            <DistanceMeters>103338.0111914</DistanceMeters>
          </Trackpoint>
          <Trackpoint>
            <Time>2021-03-13T12:12:33.000Z</Time>
            <Position>
              <LatitudeDegrees>36.722453199326992034912109375</LatitudeDegrees>
              <LongitudeDegrees>-4.38923656940460205078125</LongitudeDegrees>
            </Position>
            <AltitudeMeters>7.80000019073486328125</AltitudeMeters>
            <DistanceMeters>103357.16137324</DistanceMeters>
          </Trackpoint>
          <Trackpoint>
            <Time>2021-03-13T12:12:35.000Z</Time>
            <Position>
              <LatitudeDegrees>36.72246065922081470489501953125</LatitudeDegrees>
              <LongitudeDegrees>-4.3894603662192821502685546875</LongitudeDegrees>
            </Position>
            <AltitudeMeters>7.599999904632568359375</AltitudeMeters>
            <DistanceMeters>103377.1441153</DistanceMeters>
          </Trackpoint>
          <Trackpoint>
            <Time>2021-03-13T12:12:37.000Z</Time>
            <Position>
              <LatitudeDegrees>36.7224775068461894989013671875</LatitudeDegrees>
              <LongitudeDegrees>-4.38968977890908718109130859375</LongitudeDegrees>
            </Position>
            <AltitudeMeters>7.599999904632568359375</AltitudeMeters>
            <DistanceMeters>103397.69648465</DistanceMeters>
          </Trackpoint>
          <Trackpoint>
            <Time>2021-03-13T12:12:44.000Z</Time>
            <Position>
              <LatitudeDegrees>36.72253710217773914337158203125</LatitudeDegrees>
              <LongitudeDegrees>-4.3904755823314189910888671875</LongitudeDegrees>
            </Position>
            <AltitudeMeters>7.599999904632568359375</AltitudeMeters>
            <DistanceMeters>103468.11352419</DistanceMeters>
          </Trackpoint>
          <Trackpoint>
            <Time>2021-03-13T12:12:46.000Z</Time>
            <Position>
              <LatitudeDegrees>36.72255252487957477569580078125</LatitudeDegrees>
              <LongitudeDegrees>-4.39068973995745182037353515625</LongitudeDegrees>
            </Position>
            <AltitudeMeters>7.599999904632568359375</AltitudeMeters>
            <DistanceMeters>103487.29621469</DistanceMeters>
          </Trackpoint>
          <Trackpoint>
            <Time>2021-03-13T12:12:53.000Z</Time>
            <Position>
              <LatitudeDegrees>36.7226039059460163116455078125</LatitudeDegrees>
              <LongitudeDegrees>-4.39139901660382747650146484375</LongitudeDegrees>
            </Position>
            <AltitudeMeters>8.3999996185302734375</AltitudeMeters>
            <DistanceMeters>103550.83086557</DistanceMeters>
          </Trackpoint>
          <Trackpoint>
            <Time>2021-03-13T12:12:54.000Z</Time>
            <Position>
              <LatitudeDegrees>36.72261555679142475128173828125</LatitudeDegrees>
              <LongitudeDegrees>-4.39149859361350536346435546875</LongitudeDegrees>
            </Position>
            <AltitudeMeters>8.3999996185302734375</AltitudeMeters>
            <DistanceMeters>103559.80875298</DistanceMeters>
          </Trackpoint>
          <Trackpoint>
            <Time>2021-03-13T12:12:59.000Z</Time>
            <Position>
              <LatitudeDegrees>36.7227276228368282318115234375</LatitudeDegrees>
              <LongitudeDegrees>-4.39194132573902606964111328125</LongitudeDegrees>
            </Position>
            <AltitudeMeters>8.6000003814697265625</AltitudeMeters>
            <DistanceMeters>103601.22895643</DistanceMeters>
          </Trackpoint>
          <Trackpoint>
            <Time>2021-03-13T12:13:05.000Z</Time>
            <Position>
              <LatitudeDegrees>36.7229183949530124664306640625</LatitudeDegrees>
              <LongitudeDegrees>-4.39237651415169239044189453125</LongitudeDegrees>
            </Position>
            <AltitudeMeters>8.3999996185302734375</AltitudeMeters>
            <DistanceMeters>103645.4802966</DistanceMeters>
          </Trackpoint>
          <Trackpoint>
            <Time>2021-03-13T12:13:06.000Z</Time>
            <Position>
              <LatitudeDegrees>36.7229515872895717620849609375</LatitudeDegrees>
              <LongitudeDegrees>-4.3924516998231410980224609375</LongitudeDegrees>
            </Position>
            <AltitudeMeters>8.3999996185302734375</AltitudeMeters>
            <DistanceMeters>103653.13746882</DistanceMeters>
          </Trackpoint>
          <Trackpoint>
            <Time>2021-03-13T12:13:12.000Z</Time>
            <Position>
              <LatitudeDegrees>36.7231282778084278106689453125</LatitudeDegrees>
              <LongitudeDegrees>-4.392977915704250335693359375</LongitudeDegrees>
            </Position>
            <AltitudeMeters>8.19999980926513671875</AltitudeMeters>
            <DistanceMeters>103704.03525316</DistanceMeters>
          </Trackpoint>
          <Trackpoint>
            <Time>2021-03-13T12:13:16.000Z</Time>
            <Position>
              <LatitudeDegrees>36.7231661640107631683349609375</LatitudeDegrees>
              <LongitudeDegrees>-4.3933884613215923309326171875</LongitudeDegrees>
            </Position>
            <AltitudeMeters>8</AltitudeMeters>
            <DistanceMeters>103740.90292418</DistanceMeters>
          </Trackpoint>
          <Trackpoint>
            <Time>2021-03-13T12:13:17.000Z</Time>
            <Position>
              <LatitudeDegrees>36.72316825948655605316162109375</LatitudeDegrees>
              <LongitudeDegrees>-4.39349030144512653350830078125</LongitudeDegrees>
            </Position>
            <AltitudeMeters>7.599999904632568359375</AltitudeMeters>
            <DistanceMeters>103749.99177115</DistanceMeters>
          </Trackpoint>
          <Trackpoint>
            <Time>2021-03-13T12:13:24.000Z</Time>
            <Position>
              <LatitudeDegrees>36.72316490672528743743896484375</LatitudeDegrees>
              <LongitudeDegrees>-4.39421516843140125274658203125</LongitudeDegrees>
            </Position>
            <AltitudeMeters>7</AltitudeMeters>
            <DistanceMeters>103814.65994634</DistanceMeters>
          </Trackpoint>
          <Trackpoint>
            <Time>2021-03-13T12:13:31.000Z</Time>
            <Position>
              <LatitudeDegrees>36.7231066524982452392578125</LatitudeDegrees>
              <LongitudeDegrees>-4.394966103136539459228515625</LongitudeDegrees>
            </Position>
            <AltitudeMeters>6.599999904632568359375</AltitudeMeters>
            <DistanceMeters>103881.96569847</DistanceMeters>
          </Trackpoint>
          <Trackpoint>
            <Time>2021-03-13T12:13:32.000Z</Time>
            <Position>
              <LatitudeDegrees>36.723087541759014129638671875</LatitudeDegrees>
              <LongitudeDegrees>-4.395069368183612823486328125</LongitudeDegrees>
            </Position>
            <AltitudeMeters>6.599999904632568359375</AltitudeMeters>
            <DistanceMeters>103891.42073716</DistanceMeters>
          </Trackpoint>
          <Trackpoint>
            <Time>2021-03-13T12:13:37.000Z</Time>
            <Position>
              <LatitudeDegrees>36.72294865362346172332763671875</LatitudeDegrees>
              <LongitudeDegrees>-4.39556834287941455841064453125</LongitudeDegrees>
            </Position>
            <AltitudeMeters>6.400000095367431640625</AltitudeMeters>
            <DistanceMeters>103938.54316163</DistanceMeters>
          </Trackpoint>
          <Trackpoint>
            <Time>2021-03-13T12:13:44.000Z</Time>
            <Position>
              <LatitudeDegrees>36.7226826958358287811279296875</LatitudeDegrees>
              <LongitudeDegrees>-4.39624241553246974945068359375</LongitudeDegrees>
            </Position>
            <AltitudeMeters>6.400000095367431640625</AltitudeMeters>
            <DistanceMeters>104005.56987587</DistanceMeters>
          </Trackpoint>
          <Trackpoint>
            <Time>2021-03-13T12:13:45.000Z</Time>
            <Position>
              <LatitudeDegrees>36.7226484976708889007568359375</LatitudeDegrees>
              <LongitudeDegrees>-4.3963412381708621978759765625</LongitudeDegrees>
            </Position>
            <AltitudeMeters>6.19999980926513671875</AltitudeMeters>
            <DistanceMeters>104015.17368766</DistanceMeters>
          </Trackpoint>
          <Trackpoint>
            <Time>2021-03-13T12:13:48.000Z</Time>
            <Position>
              <LatitudeDegrees>36.72253475524485111236572265625</LatitudeDegrees>
              <LongitudeDegrees>-4.3966496922075748443603515625</LongitudeDegrees>
            </Position>
            <AltitudeMeters>6.19999980926513671875</AltitudeMeters>
            <DistanceMeters>104045.46411432</DistanceMeters>
          </Trackpoint>
          <Trackpoint>
            <Time>2021-03-13T12:13:52.000Z</Time>
            <Position>
              <LatitudeDegrees>36.72238807193934917449951171875</LatitudeDegrees>
              <LongitudeDegrees>-4.397067613899707794189453125</LongitudeDegrees>
            </Position>
            <AltitudeMeters>6.19999980926513671875</AltitudeMeters>
            <DistanceMeters>104086.16617599</DistanceMeters>
          </Trackpoint>
          <Trackpoint>
            <Time>2021-03-13T12:13:53.000Z</Time>
            <Position>
              <LatitudeDegrees>36.72235622070729732513427734375</LatitudeDegrees>
              <LongitudeDegrees>-4.39716978929936885833740234375</LongitudeDegrees>
            </Position>
            <AltitudeMeters>6.19999980926513671875</AltitudeMeters>
            <DistanceMeters>104095.94562074</DistanceMeters>
          </Trackpoint>
          <Trackpoint>
            <Time>2021-03-13T12:13:56.000Z</Time>
            <Position>
              <LatitudeDegrees>36.7222644388675689697265625</LatitudeDegrees>
              <LongitudeDegrees>-4.3974898941814899444580078125</LongitudeDegrees>
            </Position>
            <AltitudeMeters>6.19999980926513671875</AltitudeMeters>
            <DistanceMeters>104126.27537325</DistanceMeters>
          </Trackpoint>
          <Trackpoint>
            <Time>2021-03-13T12:14:02.000Z</Time>
            <Position>
              <LatitudeDegrees>36.7220927774906158447265625</LatitudeDegrees>
              <LongitudeDegrees>-4.3981389887630939483642578125</LongitudeDegrees>
            </Position>
            <AltitudeMeters>6.599999904632568359375</AltitudeMeters>
            <DistanceMeters>104187.25380188</DistanceMeters>
          </Trackpoint>
          <Trackpoint>
            <Time>2021-03-13T12:14:03.000Z</Time>
            <Position>
              <LatitudeDegrees>36.7220654524862766265869140625</LatitudeDegrees>
              <LongitudeDegrees>-4.39824854023754596710205078125</LongitudeDegrees>
            </Position>
            <AltitudeMeters>6.599999904632568359375</AltitudeMeters>
            <DistanceMeters>104197.4893745</DistanceMeters>
          </Trackpoint>
          <Trackpoint>
            <Time>2021-03-13T12:14:09.000Z</Time>
            <Position>
              <LatitudeDegrees>36.72190745361149311065673828125</LatitudeDegrees>
              <LongitudeDegrees>-4.3989019095897674560546875</LongitudeDegrees>
            </Position>
            <AltitudeMeters>6.599999904632568359375</AltitudeMeters>
            <DistanceMeters>104258.37384396</DistanceMeters>
          </Trackpoint>
          <Trackpoint>
            <Time>2021-03-13T12:14:11.000Z</Time>
            <Position>
              <LatitudeDegrees>36.72185339033603668212890625</LatitudeDegrees>
              <LongitudeDegrees>-4.399118833243846893310546875</LongitudeDegrees>
            </Position>
            <AltitudeMeters>6.599999904632568359375</AltitudeMeters>
            <DistanceMeters>104278.64039342</DistanceMeters>
          </Trackpoint>
          <Trackpoint>
            <Time>2021-03-13T12:14:17.000Z</Time>
            <Position>
              <LatitudeDegrees>36.72167577780783176422119140625</LatitudeDegrees>
              <LongitudeDegrees>-4.39976499415934085845947265625</LongitudeDegrees>
            </Position>
            <AltitudeMeters>6.599999904632568359375</AltitudeMeters>
            <DistanceMeters>104339.58230781</DistanceMeters>
          </Trackpoint>
          <Trackpoint>
            <Time>2021-03-13T12:14:19.000Z</Time>
            <Position>
              <LatitudeDegrees>36.72160972841084003448486328125</LatitudeDegrees>
              <LongitudeDegrees>-4.3999799899756908416748046875</LongitudeDegrees>
            </Position>
            <AltitudeMeters>6.80000019073486328125</AltitudeMeters>
            <DistanceMeters>104360.12347019</DistanceMeters>
          </Trackpoint>
          <Trackpoint>
            <Time>2021-03-13T12:14:25.000Z</Time>
            <Position>
              <LatitudeDegrees>36.721401773393154144287109375</LatitudeDegrees>
              <LongitudeDegrees>-4.40063285641372203826904296875</LongitudeDegrees>
            </Position>
            <AltitudeMeters>6.599999904632568359375</AltitudeMeters>
            <DistanceMeters>104422.7987573</DistanceMeters>
          </Trackpoint>
          <Trackpoint>
            <Time>2021-03-13T12:14:28.000Z</Time>
            <Position>
              <LatitudeDegrees>36.721297837793827056884765625</LatitudeDegrees>
              <LongitudeDegrees>-4.40095757134258747100830078125</LongitudeDegrees>
            </Position>
            <AltitudeMeters>6.599999904632568359375</AltitudeMeters>
            <DistanceMeters>104453.9924252</DistanceMeters>
          </Trackpoint>
          <Trackpoint>
            <Time>2021-03-13T12:14:34.000Z</Time>
            <Position>
              <LatitudeDegrees>36.7210720293223857879638671875</LatitudeDegrees>
              <LongitudeDegrees>-4.401599206030368804931640625</LongitudeDegrees>
            </Position>
            <AltitudeMeters>6.400000095367431640625</AltitudeMeters>
            <DistanceMeters>104516.50996544</DistanceMeters>
          </Trackpoint>
          <Trackpoint>
            <Time>2021-03-13T12:14:35.000Z</Time>
            <Position>
              <LatitudeDegrees>36.72103573568165302276611328125</LatitudeDegrees>
              <LongitudeDegrees>-4.4017056562006473541259765625</LongitudeDegrees>
            </Position>
            <AltitudeMeters>6.400000095367431640625</AltitudeMeters>
            <DistanceMeters>104526.83075909</DistanceMeters>
          </Trackpoint>
          <Trackpoint>
            <Time>2021-03-13T12:14:41.000Z</Time>
            <Position>
              <LatitudeDegrees>36.7208235897123813629150390625</LatitudeDegrees>
              <LongitudeDegrees>-4.402330107986927032470703125</LongitudeDegrees>
            </Position>
            <AltitudeMeters>6.19999980926513671875</AltitudeMeters>
            <DistanceMeters>104587.33867902</DistanceMeters>
          </Trackpoint>
          <Trackpoint>
            <Time>2021-03-13T12:14:47.000Z</Time>
            <Position>
              <LatitudeDegrees>36.72061831690371036529541015625</LatitudeDegrees>
              <LongitudeDegrees>-4.40295648761093616485595703125</LongitudeDegrees>
            </Position>
            <AltitudeMeters>6.19999980926513671875</AltitudeMeters>
            <DistanceMeters>104647.71138755</DistanceMeters>
          </Trackpoint>
          <Trackpoint>
            <Time>2021-03-13T12:14:49.000Z</Time>
            <Position>
              <LatitudeDegrees>36.720579676330089569091796875</LatitudeDegrees>
              <LongitudeDegrees>-4.40317760221660137176513671875</LongitudeDegrees>
            </Position>
            <AltitudeMeters>6.400000095367431640625</AltitudeMeters>
            <DistanceMeters>104667.90137792</DistanceMeters>
          </Trackpoint>
          <Trackpoint>
            <Time>2021-03-13T12:14:54.000Z</Time>
            <Position>
              <LatitudeDegrees>36.72055226750671863555908203125</LatitudeDegrees>
              <LongitudeDegrees>-4.40369828604161739349365234375</LongitudeDegrees>
            </Position>
            <AltitudeMeters>6.400000095367431640625</AltitudeMeters>
            <DistanceMeters>104714.4543824</DistanceMeters>
          </Trackpoint>
          <Trackpoint>
            <Time>2021-03-13T12:15:00.000Z</Time>
            <Position>
              <LatitudeDegrees>36.72051169909536838531494140625</LatitudeDegrees>
              <LongitudeDegrees>-4.40427839756011962890625</LongitudeDegrees>
            </Position>
            <AltitudeMeters>6.19999980926513671875</AltitudeMeters>
            <DistanceMeters>104766.40575743</DistanceMeters>
          </Trackpoint>
          <Trackpoint>
            <Time>2021-03-13T12:15:02.000Z</Time>
            <Position>
              <LatitudeDegrees>36.72048739157617092132568359375</LatitudeDegrees>
              <LongitudeDegrees>-4.40446690656244754791259765625</LongitudeDegrees>
            </Position>
            <AltitudeMeters>6</AltitudeMeters>
            <DistanceMeters>104783.43994207</DistanceMeters>
          </Trackpoint>
          <Trackpoint>
            <Time>2021-03-13T12:15:04.000Z</Time>
            <Position>
              <LatitudeDegrees>36.7204517684876918792724609375</LatitudeDegrees>
              <LongitudeDegrees>-4.404649548232555389404296875</LongitudeDegrees>
            </Position>
            <AltitudeMeters>6</AltitudeMeters>
            <DistanceMeters>104800.20993613</DistanceMeters>
          </Trackpoint>
          <Trackpoint>
            <Time>2021-03-13T12:15:06.000Z</Time>
            <Position>
              <LatitudeDegrees>36.720418073236942291259765625</LatitudeDegrees>
              <LongitudeDegrees>-4.4048242270946502685546875</LongitudeDegrees>
            </Position>
            <AltitudeMeters>6</AltitudeMeters>
            <DistanceMeters>104816.23877686</DistanceMeters>
          </Trackpoint>
          <Trackpoint>
            <Time>2021-03-13T12:15:09.000Z</Time>
            <Position>
              <LatitudeDegrees>36.72034942544996738433837890625</LatitudeDegrees>
              <LongitudeDegrees>-4.40511466003954410552978515625</LongitudeDegrees>
            </Position>
            <AltitudeMeters>6</AltitudeMeters>
            <DistanceMeters>104843.25278429</DistanceMeters>
          </Trackpoint>
          <Trackpoint>
            <Time>2021-03-13T12:15:12.000Z</Time>
            <Position>
              <LatitudeDegrees>36.720263175666332244873046875</LatitudeDegrees>
              <LongitudeDegrees>-4.40539595670998096466064453125</LongitudeDegrees>
            </Position>
            <AltitudeMeters>6</AltitudeMeters>
            <DistanceMeters>104870.12233345</DistanceMeters>
          </Trackpoint>
          <Trackpoint>
            <Time>2021-03-13T12:15:13.000Z</Time>
            <Position>
              <LatitudeDegrees>36.7202393710613250732421875</LatitudeDegrees>
              <LongitudeDegrees>-4.4054731540381908416748046875</LongitudeDegrees>
            </Position>
            <AltitudeMeters>6.19999980926513671875</AltitudeMeters>
            <DistanceMeters>104877.50144999</DistanceMeters>
          </Trackpoint>
          <Trackpoint>
            <Time>2021-03-13T12:15:18.000Z</Time>
            <Position>
              <LatitudeDegrees>36.7200678773224353790283203125</LatitudeDegrees>
              <LongitudeDegrees>-4.4059552811086177825927734375</LongitudeDegrees>
            </Position>
            <AltitudeMeters>6.19999980926513671875</AltitudeMeters>
            <DistanceMeters>104924.55973053</DistanceMeters>
          </Trackpoint>
          <Trackpoint>
            <Time>2021-03-13T12:15:19.000Z</Time>
            <Position>
              <LatitudeDegrees>36.72004365362226963043212890625</LatitudeDegrees>
              <LongitudeDegrees>-4.4060312211513519287109375</LongitudeDegrees>
            </Position>
            <AltitudeMeters>6.19999980926513671875</AltitudeMeters>
            <DistanceMeters>104931.85144432</DistanceMeters>
          </Trackpoint>
          <Trackpoint>
            <Time>2021-03-13T12:15:20.000Z</Time>
            <Position>
              <LatitudeDegrees>36.72000023536384105682373046875</LatitudeDegrees>
              <LongitudeDegrees>-4.40614965744316577911376953125</LongitudeDegrees>
            </Position>
            <AltitudeMeters>6.19999980926513671875</AltitudeMeters>
            <DistanceMeters>104943.47037899</DistanceMeters>
          </Trackpoint>
          <Trackpoint>
            <Time>2021-03-13T12:15:24.000Z</Time>
            <Position>
              <LatitudeDegrees>36.719846092164516448974609375</LatitudeDegrees>
              <LongitudeDegrees>-4.40651091746985912322998046875</LongitudeDegrees>
            </Position>
            <AltitudeMeters>6.19999980926513671875</AltitudeMeters>
            <DistanceMeters>104979.98240777</DistanceMeters>
          </Trackpoint>
          <Trackpoint>
            <Time>2021-03-13T12:15:30.000Z</Time>
            <Position>
              <LatitudeDegrees>36.71955767087638378143310546875</LatitudeDegrees>
              <LongitudeDegrees>-4.4071139954030513763427734375</LongitudeDegrees>
            </Position>
            <AltitudeMeters>6.19999980926513671875</AltitudeMeters>
            <DistanceMeters>105042.63579133</DistanceMeters>
          </Trackpoint>
          <Trackpoint>
            <Time>2021-03-13T12:15:35.000Z</Time>
            <Position>
              <LatitudeDegrees>36.71930604614317417144775390625</LatitudeDegrees>
              <LongitudeDegrees>-4.407586567103862762451171875</LongitudeDegrees>
            </Position>
            <AltitudeMeters>6.19999980926513671875</AltitudeMeters>
            <DistanceMeters>105093.25123351</DistanceMeters>
          </Trackpoint>
          <Trackpoint>
            <Time>2021-03-13T12:15:38.000Z</Time>
            <Position>
              <LatitudeDegrees>36.719153411686420440673828125</LatitudeDegrees>
              <LongitudeDegrees>-4.40782989375293254852294921875</LongitudeDegrees>
            </Position>
            <AltitudeMeters>6.19999980926513671875</AltitudeMeters>
            <DistanceMeters>105120.81717142</DistanceMeters>
          </Trackpoint>
          <Trackpoint>
            <Time>2021-03-13T12:15:39.000Z</Time>
            <Position>
              <LatitudeDegrees>36.7190935648977756500244140625</LatitudeDegrees>
              <LongitudeDegrees>-4.407935254275798797607421875</LongitudeDegrees>
            </Position>
            <AltitudeMeters>6.400000095367431640625</AltitudeMeters>
            <DistanceMeters>105132.33776444</DistanceMeters>
          </Trackpoint>
          <Trackpoint>
            <Time>2021-03-13T12:15:40.000Z</Time>
            <Position>
              <LatitudeDegrees>36.71903849579393863677978515625</LatitudeDegrees>
              <LongitudeDegrees>-4.4080066680908203125</LongitudeDegrees>
            </Position>
            <AltitudeMeters>6.400000095367431640625</AltitudeMeters>
            <DistanceMeters>105141.17882443</DistanceMeters>
          </Trackpoint>
          <Trackpoint>
            <Time>2021-03-13T12:15:41.000Z</Time>
            <Position>
              <LatitudeDegrees>36.7189869470894336700439453125</LatitudeDegrees>
              <LongitudeDegrees>-4.40804866142570972442626953125</LongitudeDegrees>
            </Position>
            <AltitudeMeters>6.400000095367431640625</AltitudeMeters>
            <DistanceMeters>105148.03063933</DistanceMeters>
          </Trackpoint>
          <Trackpoint>
            <Time>2021-03-13T12:15:42.000Z</Time>
            <Position>
              <LatitudeDegrees>36.71892651356756687164306640625</LatitudeDegrees>
              <LongitudeDegrees>-4.4081168062984943389892578125</LongitudeDegrees>
            </Position>
            <AltitudeMeters>6.400000095367431640625</AltitudeMeters>
            <DistanceMeters>105157.09810017</DistanceMeters>
          </Trackpoint>
          <Trackpoint>
            <Time>2021-03-13T12:15:44.000Z</Time>
            <Position>
              <LatitudeDegrees>36.71880296431481838226318359375</LatitudeDegrees>
              <LongitudeDegrees>-4.40830171108245849609375</LongitudeDegrees>
            </Position>
            <AltitudeMeters>6.400000095367431640625</AltitudeMeters>
            <DistanceMeters>105178.57455808</DistanceMeters>
          </Trackpoint>
          <Trackpoint>
            <Time>2021-03-13T12:15:46.000Z</Time>
            <Position>
              <LatitudeDegrees>36.71870288439095020294189453125</LatitudeDegrees>
              <LongitudeDegrees>-4.40845333971083164215087890625</LongitudeDegrees>
            </Position>
            <AltitudeMeters>6.400000095367431640625</AltitudeMeters>
            <DistanceMeters>105196.09816443</DistanceMeters>
          </Trackpoint>
          <Trackpoint>
            <Time>2021-03-13T12:15:48.000Z</Time>
            <Position>
              <LatitudeDegrees>36.7185866273939609527587890625</LatitudeDegrees>
              <LongitudeDegrees>-4.408629946410655975341796875</LongitudeDegrees>
            </Position>
            <AltitudeMeters>6.400000095367431640625</AltitudeMeters>
            <DistanceMeters>105216.48687624</DistanceMeters>
          </Trackpoint>
          <Trackpoint>
            <Time>2021-03-13T12:15:53.000Z</Time>
            <Position>
              <LatitudeDegrees>36.7183626629412174224853515625</LatitudeDegrees>
              <LongitudeDegrees>-4.4090941362082958221435546875</LongitudeDegrees>
            </Position>
            <AltitudeMeters>6.400000095367431640625</AltitudeMeters>
            <DistanceMeters>105264.82428608</DistanceMeters>
          </Trackpoint>
          <Trackpoint>
            <Time>2021-03-13T12:15:56.000Z</Time>
            <Position>
              <LatitudeDegrees>36.71832150779664516448974609375</LatitudeDegrees>
              <LongitudeDegrees>-4.40943134017288684844970703125</LongitudeDegrees>
            </Position>
            <AltitudeMeters>6.19999980926513671875</AltitudeMeters>
            <DistanceMeters>105295.25569189</DistanceMeters>
          </Trackpoint>
          <Trackpoint>
            <Time>2021-03-13T12:15:57.000Z</Time>
            <Position>
              <LatitudeDegrees>36.71834531240165233612060546875</LatitudeDegrees>
              <LongitudeDegrees>-4.409570395946502685546875</LongitudeDegrees>
            </Position>
            <AltitudeMeters>6</AltitudeMeters>
            <DistanceMeters>105307.94166928</DistanceMeters>
          </Trackpoint>
          <Trackpoint>
            <Time>2021-03-13T12:15:59.000Z</Time>
            <Position>
              <LatitudeDegrees>36.7184032313525676727294921875</LatitudeDegrees>
              <LongitudeDegrees>-4.409771896898746490478515625</LongitudeDegrees>
            </Position>
            <AltitudeMeters>6.19999980926513671875</AltitudeMeters>
            <DistanceMeters>105327.03991129</DistanceMeters>
          </Trackpoint>
          <Trackpoint>
            <Time>2021-03-13T12:16:01.000Z</Time>
            <Position>
              <LatitudeDegrees>36.71846768818795680999755859375</LatitudeDegrees>
              <LongitudeDegrees>-4.40998655743896961212158203125</LongitudeDegrees>
            </Position>
            <AltitudeMeters>6.400000095367431640625</AltitudeMeters>
            <DistanceMeters>105347.49119684</DistanceMeters>
          </Trackpoint>
          <Trackpoint>
            <Time>2021-03-13T12:16:03.000Z</Time>
            <Position>
              <LatitudeDegrees>36.7185929976403713226318359375</LatitudeDegrees>
              <LongitudeDegrees>-4.4101804308593273162841796875</LongitudeDegrees>
            </Position>
            <AltitudeMeters>6.599999904632568359375</AltitudeMeters>
            <DistanceMeters>105369.71058858</DistanceMeters>
          </Trackpoint>
          <Trackpoint>
            <Time>2021-03-13T12:16:06.000Z</Time>
            <Position>
              <LatitudeDegrees>36.71877094544470310211181640625</LatitudeDegrees>
              <LongitudeDegrees>-4.4104255177080631256103515625</LongitudeDegrees>
            </Position>
            <AltitudeMeters>6.80000019073486328125</AltitudeMeters>
            <DistanceMeters>105399.21328453</DistanceMeters>
          </Trackpoint>
          <Trackpoint>
            <Time>2021-03-13T12:16:07.000Z</Time>
            <Position>
              <LatitudeDegrees>36.718788631260395050048828125</LatitudeDegrees>
              <LongitudeDegrees>-4.41051964648067951202392578125</LongitudeDegrees>
            </Position>
            <AltitudeMeters>6.80000019073486328125</AltitudeMeters>
            <DistanceMeters>105407.83928186</DistanceMeters>
          </Trackpoint>
          <Trackpoint>
            <Time>2021-03-13T12:16:08.000Z</Time>
            <Position>
              <LatitudeDegrees>36.71880531124770641326904296875</LatitudeDegrees>
              <LongitudeDegrees>-4.41064856015145778656005859375</LongitudeDegrees>
            </Position>
            <AltitudeMeters>6.80000019073486328125</AltitudeMeters>
            <DistanceMeters>105419.48965005</DistanceMeters>
          </Trackpoint>
          <Trackpoint>
            <Time>2021-03-13T12:16:09.000Z</Time>
            <Position>
              <LatitudeDegrees>36.71885870397090911865234375</LatitudeDegrees>
              <LongitudeDegrees>-4.41071092151105403900146484375</LongitudeDegrees>
            </Position>
            <AltitudeMeters>7</AltitudeMeters>
            <DistanceMeters>105427.63039517</DistanceMeters>
          </Trackpoint>
          <Trackpoint>
            <Time>2021-03-13T12:16:12.000Z</Time>
            <Position>
              <LatitudeDegrees>36.71900597400963306427001953125</LatitudeDegrees>
              <LongitudeDegrees>-4.4110394082963466644287109375</LongitudeDegrees>
            </Position>
            <AltitudeMeters>7.19999980926513671875</AltitudeMeters>
            <DistanceMeters>105461.20966832</DistanceMeters>
          </Trackpoint>
          <Trackpoint>
            <Time>2021-03-13T12:16:16.000Z</Time>
            <Position>
              <LatitudeDegrees>36.71925206668674945831298828125</LatitudeDegrees>
              <LongitudeDegrees>-4.41129346378147602081298828125</LongitudeDegrees>
            </Position>
            <AltitudeMeters>7.599999904632568359375</AltitudeMeters>
            <DistanceMeters>105496.76248833</DistanceMeters>
          </Trackpoint>
          <Trackpoint>
            <Time>2021-03-13T12:16:19.000Z</Time>
            <Position>
              <LatitudeDegrees>36.71933487989008426666259765625</LatitudeDegrees>
              <LongitudeDegrees>-4.41142941825091838836669921875</LongitudeDegrees>
            </Position>
            <AltitudeMeters>8</AltitudeMeters>
            <DistanceMeters>105511.99642953</DistanceMeters>
          </Trackpoint>
          <Trackpoint>
            <Time>2021-03-13T12:16:22.000Z</Time>
            <Position>
              <LatitudeDegrees>36.7193433456122875213623046875</LatitudeDegrees>
              <LongitudeDegrees>-4.41146495752036571502685546875</LongitudeDegrees>
            </Position>
            <AltitudeMeters>8.80000019073486328125</AltitudeMeters>
            <DistanceMeters>105515.30466964</DistanceMeters>
          </Trackpoint>
          <Trackpoint>
            <Time>2021-03-13T12:16:23.000Z</Time>
            <Position>
              <LatitudeDegrees>36.7193433456122875213623046875</LatitudeDegrees>
              <LongitudeDegrees>-4.41146495752036571502685546875</LongitudeDegrees>
            </Position>
            <AltitudeMeters>8.80000019073486328125</AltitudeMeters>
            <DistanceMeters>105515.30466964</DistanceMeters>
          </Trackpoint>
          <Trackpoint>
            <Time>2021-03-13T12:16:28.000Z</Time>
            <Position>
              <LatitudeDegrees>36.7193433456122875213623046875</LatitudeDegrees>
              <LongitudeDegrees>-4.41146495752036571502685546875</LongitudeDegrees>
            </Position>
            <AltitudeMeters>9</AltitudeMeters>
            <DistanceMeters>105515.30466964</DistanceMeters>
          </Trackpoint>
          <Trackpoint>
            <Time>2021-03-13T12:16:31.000Z</Time>
            <Position>
              <LatitudeDegrees>36.7193433456122875213623046875</LatitudeDegrees>
              <LongitudeDegrees>-4.41146495752036571502685546875</LongitudeDegrees>
            </Position>
            <AltitudeMeters>9.19999980926513671875</AltitudeMeters>
            <DistanceMeters>105515.30466964</DistanceMeters>
          </Trackpoint>
          <Trackpoint>
            <Time>2021-03-13T12:16:39.000Z</Time>
            <Position>
              <LatitudeDegrees>36.7193433456122875213623046875</LatitudeDegrees>
              <LongitudeDegrees>-4.41146495752036571502685546875</LongitudeDegrees>
            </Position>
            <AltitudeMeters>9.19999980926513671875</AltitudeMeters>
            <DistanceMeters>105515.30466964</DistanceMeters>
          </Trackpoint>
          <Trackpoint>
            <Time>2021-03-13T12:16:45.000Z</Time>
            <Position>
              <LatitudeDegrees>36.71934694983065128326416015625</LatitudeDegrees>
              <LongitudeDegrees>-4.41147015430033206939697265625</LongitudeDegrees>
            </Position>
            <AltitudeMeters>9.19999980926513671875</AltitudeMeters>
            <DistanceMeters>105515.92051314</DistanceMeters>
          </Trackpoint>
          <Trackpoint>
            <Time>2021-03-13T12:16:46.000Z</Time>
            <Position>
              <LatitudeDegrees>36.71935516409575939178466796875</LatitudeDegrees>
              <LongitudeDegrees>-4.411504268646240234375</LongitudeDegrees>
            </Position>
            <AltitudeMeters>9.19999980926513671875</AltitudeMeters>
            <DistanceMeters>105519.09787454</DistanceMeters>
          </Trackpoint>
          <Trackpoint>
            <Time>2021-03-13T12:16:47.000Z</Time>
            <Position>
              <LatitudeDegrees>36.719372682273387908935546875</LatitudeDegrees>
              <LongitudeDegrees>-4.4115429930388927459716796875</LongitudeDegrees>
            </Position>
            <AltitudeMeters>9.19999980926513671875</AltitudeMeters>
            <DistanceMeters>105523.06516874</DistanceMeters>
          </Trackpoint>
          <Trackpoint>
            <Time>2021-03-13T12:16:49.000Z</Time>
            <Position>
              <LatitudeDegrees>36.7194908671081066131591796875</LatitudeDegrees>
              <LongitudeDegrees>-4.41163376905024051666259765625</LongitudeDegrees>
            </Position>
            <AltitudeMeters>9.19999980926513671875</AltitudeMeters>
            <DistanceMeters>105538.51278344</DistanceMeters>
          </Trackpoint>
          <Trackpoint>
            <Time>2021-03-13T12:16:50.000Z</Time>
            <Position>
              <LatitudeDegrees>36.719553731381893157958984375</LatitudeDegrees>
              <LongitudeDegrees>-4.4116879999637603759765625</LongitudeDegrees>
            </Position>
            <AltitudeMeters>9.19999980926513671875</AltitudeMeters>
            <DistanceMeters>105547.01966493</DistanceMeters>
          </Trackpoint>
          <Trackpoint>
            <Time>2021-03-13T12:16:51.000Z</Time>
            <Position>
              <LatitudeDegrees>36.7196340300142765045166015625</LatitudeDegrees>
              <LongitudeDegrees>-4.41174541600048542022705078125</LongitudeDegrees>
            </Position>
            <AltitudeMeters>9.19999980926513671875</AltitudeMeters>
            <DistanceMeters>105557.32119192</DistanceMeters>
          </Trackpoint>
          <Trackpoint>
            <Time>2021-03-13T12:16:53.000Z</Time>
            <Position>
              <LatitudeDegrees>36.719717346131801605224609375</LatitudeDegrees>
              <LongitudeDegrees>-4.41184348426759243011474609375</LongitudeDegrees>
            </Position>
            <AltitudeMeters>9.19999980926513671875</AltitudeMeters>
            <DistanceMeters>105570.0703635</DistanceMeters>
          </Trackpoint>
          <Trackpoint>
            <Time>2021-03-13T12:16:56.000Z</Time>
            <Position>
              <LatitudeDegrees>36.71974894590675830841064453125</LatitudeDegrees>
              <LongitudeDegrees>-4.412008859217166900634765625</LongitudeDegrees>
            </Position>
            <AltitudeMeters>9.6000003814697265625</AltitudeMeters>
            <DistanceMeters>105585.23777025</DistanceMeters>
          </Trackpoint>
          <Trackpoint>
            <Time>2021-03-13T12:16:59.000Z</Time>
            <Position>
              <LatitudeDegrees>36.71971164643764495849609375</LatitudeDegrees>
              <LongitudeDegrees>-4.4121364317834377288818359375</LongitudeDegrees>
            </Position>
            <AltitudeMeters>9.80000019073486328125</AltitudeMeters>
            <DistanceMeters>105597.35283783</DistanceMeters>
          </Trackpoint>
          <Trackpoint>
            <Time>2021-03-13T12:17:01.000Z</Time>
            <Position>
              <LatitudeDegrees>36.7196900211274623870849609375</LatitudeDegrees>
              <LongitudeDegrees>-4.4122745655477046966552734375</LongitudeDegrees>
            </Position>
            <AltitudeMeters>9.80000019073486328125</AltitudeMeters>
            <DistanceMeters>105609.91003477</DistanceMeters>
          </Trackpoint>
          <Trackpoint>
            <Time>2021-03-13T12:17:02.000Z</Time>
            <Position>
              <LatitudeDegrees>36.7196709103882312774658203125</LatitudeDegrees>
              <LongitudeDegrees>-4.41236165352165699005126953125</LongitudeDegrees>
            </Position>
            <AltitudeMeters>9.80000019073486328125</AltitudeMeters>
            <DistanceMeters>105617.96603622</DistanceMeters>
          </Trackpoint>
          <Trackpoint>
            <Time>2021-03-13T12:17:05.000Z</Time>
            <Position>
              <LatitudeDegrees>36.719626821577548980712890625</LatitudeDegrees>
              <LongitudeDegrees>-4.4126577861607074737548828125</LongitudeDegrees>
            </Position>
            <AltitudeMeters>9.3999996185302734375</AltitudeMeters>
            <DistanceMeters>105644.83793777</DistanceMeters>
          </Trackpoint>
          <Trackpoint>
            <Time>2021-03-13T12:17:06.000Z</Time>
            <Position>
              <LatitudeDegrees>36.71961114741861820220947265625</LatitudeDegrees>
              <LongitudeDegrees>-4.4127503223717212677001953125</LongitudeDegrees>
            </Position>
            <AltitudeMeters>9.19999980926513671875</AltitudeMeters>
            <DistanceMeters>105653.27607458</DistanceMeters>
          </Trackpoint>
          <Trackpoint>
            <Time>2021-03-13T12:17:08.000Z</Time>
            <Position>
              <LatitudeDegrees>36.7195736803114414215087890625</LatitudeDegrees>
              <LongitudeDegrees>-4.41293430514633655548095703125</LongitudeDegrees>
            </Position>
            <AltitudeMeters>8.3999996185302734375</AltitudeMeters>
            <DistanceMeters>105670.21163739</DistanceMeters>
          </Trackpoint>
          <Trackpoint>
            <Time>2021-03-13T12:17:10.000Z</Time>
            <Position>
              <LatitudeDegrees>36.7195311002433300018310546875</LatitudeDegrees>
              <LongitudeDegrees>-4.413129352033138275146484375</LongitudeDegrees>
            </Position>
            <AltitudeMeters>7.400000095367431640625</AltitudeMeters>
            <DistanceMeters>105688.24719709</DistanceMeters>
          </Trackpoint>
          <Trackpoint>
            <Time>2021-03-13T12:17:12.000Z</Time>
            <Position>
              <LatitudeDegrees>36.71949841082096099853515625</LatitudeDegrees>
              <LongitudeDegrees>-4.41329740919172763824462890625</LongitudeDegrees>
            </Position>
            <AltitudeMeters>6.599999904632568359375</AltitudeMeters>
            <DistanceMeters>105703.6760945</DistanceMeters>
          </Trackpoint>
          <Trackpoint>
            <Time>2021-03-13T12:17:14.000Z</Time>
            <Position>
              <LatitudeDegrees>36.719458512961864471435546875</LatitudeDegrees>
              <LongitudeDegrees>-4.41349941305816173553466796875</LongitudeDegrees>
            </Position>
            <AltitudeMeters>6</AltitudeMeters>
            <DistanceMeters>105722.23722261</DistanceMeters>
          </Trackpoint>
          <Trackpoint>
            <Time>2021-03-13T12:17:16.000Z</Time>
            <Position>
              <LatitudeDegrees>36.71941299922764301300048828125</LatitudeDegrees>
              <LongitudeDegrees>-4.41367643885314464569091796875</LongitudeDegrees>
            </Position>
            <AltitudeMeters>5.80000019073486328125</AltitudeMeters>
            <DistanceMeters>105738.82312773</DistanceMeters>
          </Trackpoint>
          <Trackpoint>
            <Time>2021-03-13T12:17:19.000Z</Time>
            <Position>
              <LatitudeDegrees>36.7193409986793994903564453125</LatitudeDegrees>
              <LongitudeDegrees>-4.41397835500538349151611328125</LongitudeDegrees>
            </Position>
            <AltitudeMeters>5.599999904632568359375</AltitudeMeters>
            <DistanceMeters>105766.9259832</DistanceMeters>
          </Trackpoint>
          <Trackpoint>
            <Time>2021-03-13T12:17:21.000Z</Time>
            <Position>
              <LatitudeDegrees>36.7192964069545269012451171875</LatitudeDegrees>
              <LongitudeDegrees>-4.414139874279499053955078125</LongitudeDegrees>
            </Position>
            <AltitudeMeters>5.599999904632568359375</AltitudeMeters>
            <DistanceMeters>105782.16703587</DistanceMeters>
          </Trackpoint>
          <Trackpoint>
            <Time>2021-03-13T12:17:22.000Z</Time>
            <Position>
              <LatitudeDegrees>36.71926782466471195220947265625</LatitudeDegrees>
              <LongitudeDegrees>-4.41425529308617115020751953125</LongitudeDegrees>
            </Position>
            <AltitudeMeters>5.599999904632568359375</AltitudeMeters>
            <DistanceMeters>105792.94450651</DistanceMeters>
          </Trackpoint>
          <Trackpoint>
            <Time>2021-03-13T12:17:25.000Z</Time>
            <Position>
              <LatitudeDegrees>36.71917662955820560455322265625</LatitudeDegrees>
              <LongitudeDegrees>-4.41452066414058208465576171875</LongitudeDegrees>
            </Position>
            <AltitudeMeters>5.80000019073486328125</AltitudeMeters>
            <DistanceMeters>105818.70410874</DistanceMeters>
          </Trackpoint>
          <Trackpoint>
            <Time>2021-03-13T12:17:28.000Z</Time>
            <Position>
              <LatitudeDegrees>36.71910638920962810516357421875</LatitudeDegrees>
              <LongitudeDegrees>-4.4147901423275470733642578125</LongitudeDegrees>
            </Position>
            <AltitudeMeters>5.80000019073486328125</AltitudeMeters>
            <DistanceMeters>105843.98514414</DistanceMeters>
          </Trackpoint>
          <Trackpoint>
            <Time>2021-03-13T12:17:30.000Z</Time>
            <Position>
              <LatitudeDegrees>36.719056852161884307861328125</LatitudeDegrees>
              <LongitudeDegrees>-4.41500463522970676422119140625</LongitudeDegrees>
            </Position>
            <AltitudeMeters>5.599999904632568359375</AltitudeMeters>
            <DistanceMeters>105863.89998678</DistanceMeters>
          </Trackpoint>
          <Trackpoint>
            <Time>2021-03-13T12:17:33.000Z</Time>
            <Position>
              <LatitudeDegrees>36.71896490268409252166748046875</LatitudeDegrees>
              <LongitudeDegrees>-4.41529951058328151702880859375</LongitudeDegrees>
            </Position>
            <AltitudeMeters>5.599999904632568359375</AltitudeMeters>
            <DistanceMeters>105892.12851961</DistanceMeters>
          </Trackpoint>
          <Trackpoint>
            <Time>2021-03-13T12:17:34.000Z</Time>
            <Position>
              <LatitudeDegrees>36.71894445084035396575927734375</LatitudeDegrees>
              <LongitudeDegrees>-4.4153919629752635955810546875</LongitudeDegrees>
            </Position>
            <AltitudeMeters>5.599999904632568359375</AltitudeMeters>
            <DistanceMeters>105900.68567392</DistanceMeters>
          </Trackpoint>
          <Trackpoint>
            <Time>2021-03-13T12:17:36.000Z</Time>
            <Position>
              <LatitudeDegrees>36.718905977904796600341796875</LatitudeDegrees>
              <LongitudeDegrees>-4.41557125188410282135009765625</LongitudeDegrees>
            </Position>
            <AltitudeMeters>5.599999904632568359375</AltitudeMeters>
            <DistanceMeters>105917.24487985</DistanceMeters>
          </Trackpoint>
          <Trackpoint>
            <Time>2021-03-13T12:17:38.000Z</Time>
            <Position>
              <LatitudeDegrees>36.71883112750947475433349609375</LatitudeDegrees>
              <LongitudeDegrees>-4.41581013612449169158935546875</LongitudeDegrees>
            </Position>
            <AltitudeMeters>5.599999904632568359375</AltitudeMeters>
            <DistanceMeters>105940.12797564</DistanceMeters>
          </Trackpoint>
          <Trackpoint>
            <Time>2021-03-13T12:17:40.000Z</Time>
            <Position>
              <LatitudeDegrees>36.7187480628490447998046875</LatitudeDegrees>
              <LongitudeDegrees>-4.41603158600628376007080078125</LongitudeDegrees>
            </Position>
            <AltitudeMeters>5.599999904632568359375</AltitudeMeters>
            <DistanceMeters>105961.94110903</DistanceMeters>
          </Trackpoint>
          <Trackpoint>
            <Time>2021-03-13T12:17:41.000Z</Time>
            <Position>
              <LatitudeDegrees>36.7187234200537204742431640625</LatitudeDegrees>
              <LongitudeDegrees>-4.416137449443340301513671875</LongitudeDegrees>
            </Position>
            <AltitudeMeters>5.599999904632568359375</AltitudeMeters>
            <DistanceMeters>105971.7762592</DistanceMeters>
          </Trackpoint>
          <Trackpoint>
            <Time>2021-03-13T12:17:44.000Z</Time>
            <Position>
              <LatitudeDegrees>36.7186587117612361907958984375</LatitudeDegrees>
              <LongitudeDegrees>-4.4164346717298030853271484375</LongitudeDegrees>
            </Position>
            <AltitudeMeters>5.599999904632568359375</AltitudeMeters>
            <DistanceMeters>105999.25426516</DistanceMeters>
          </Trackpoint>
          <Trackpoint>
            <Time>2021-03-13T12:17:48.000Z</Time>
            <Position>
              <LatitudeDegrees>36.71854798682034015655517578125</LatitudeDegrees>
              <LongitudeDegrees>-4.41678914241492748260498046875</LongitudeDegrees>
            </Position>
            <AltitudeMeters>5.599999904632568359375</AltitudeMeters>
            <DistanceMeters>106033.19570049</DistanceMeters>
          </Trackpoint>
          <Trackpoint>
            <Time>2021-03-13T12:17:49.000Z</Time>
            <Position>
              <LatitudeDegrees>36.71853323467075824737548828125</LatitudeDegrees>
              <LongitudeDegrees>-4.41688922233879566192626953125</LongitudeDegrees>
            </Position>
            <AltitudeMeters>5.599999904632568359375</AltitudeMeters>
            <DistanceMeters>106042.27460669</DistanceMeters>
          </Trackpoint>
          <Trackpoint>
            <Time>2021-03-13T12:17:53.000Z</Time>
            <Position>
              <LatitudeDegrees>36.71843248419463634490966796875</LatitudeDegrees>
              <LongitudeDegrees>-4.41728149540722370147705078125</LongitudeDegrees>
            </Position>
            <AltitudeMeters>5.599999904632568359375</AltitudeMeters>
            <DistanceMeters>106079.02489082</DistanceMeters>
          </Trackpoint>
          <Trackpoint>
            <Time>2021-03-13T12:17:59.000Z</Time>
            <Position>
              <LatitudeDegrees>36.7182808555662631988525390625</LatitudeDegrees>
              <LongitudeDegrees>-4.417842663824558258056640625</LongitudeDegrees>
            </Position>
            <AltitudeMeters>5.80000019073486328125</AltitudeMeters>
            <DistanceMeters>106131.85906036</DistanceMeters>
          </Trackpoint>
          <Trackpoint>
            <Time>2021-03-13T12:18:00.000Z</Time>
            <Position>
              <LatitudeDegrees>36.7182583920657634735107421875</LatitudeDegrees>
              <LongitudeDegrees>-4.41793679259717464447021484375</LongitudeDegrees>
            </Position>
            <AltitudeMeters>5.599999904632568359375</AltitudeMeters>
            <DistanceMeters>106140.62112118</DistanceMeters>
          </Trackpoint>
          <Trackpoint>
            <Time>2021-03-13T12:18:07.000Z</Time>
            <Position>
              <LatitudeDegrees>36.718073152005672454833984375</LatitudeDegrees>
              <LongitudeDegrees>-4.41860751248896121978759765625</LongitudeDegrees>
            </Position>
            <AltitudeMeters>5.80000019073486328125</AltitudeMeters>
            <DistanceMeters>106203.91383532</DistanceMeters>
          </Trackpoint>
          <Trackpoint>
            <Time>2021-03-13T12:18:10.000Z</Time>
            <Position>
              <LatitudeDegrees>36.71801372431218624114990234375</LatitudeDegrees>
              <LongitudeDegrees>-4.418808929622173309326171875</LongitudeDegrees>
            </Position>
            <AltitudeMeters>6.19999980926513671875</AltitudeMeters>
            <DistanceMeters>106223.06260249</DistanceMeters>
          </Trackpoint>
          <Trackpoint>
            <Time>2021-03-13T12:18:12.000Z</Time>
            <Position>
              <LatitudeDegrees>36.717974580824375152587890625</LatitudeDegrees>
              <LongitudeDegrees>-4.4189224205911159515380859375</LongitudeDegrees>
            </Position>
            <AltitudeMeters>6.599999904632568359375</AltitudeMeters>
            <DistanceMeters>106234.08570135</DistanceMeters>
          </Trackpoint>
          <Trackpoint>
            <Time>2021-03-13T12:18:16.000Z</Time>
            <Position>
              <LatitudeDegrees>36.71793359331786632537841796875</LatitudeDegrees>
              <LongitudeDegrees>-4.4190907292068004608154296875</LongitudeDegrees>
            </Position>
            <AltitudeMeters>6.599999904632568359375</AltitudeMeters>
            <DistanceMeters>106249.7797883</DistanceMeters>
          </Trackpoint>
          <Trackpoint>
            <Time>2021-03-13T12:18:19.000Z</Time>
            <Position>
              <LatitudeDegrees>36.71790786087512969970703125</LatitudeDegrees>
              <LongitudeDegrees>-4.419161975383758544921875</LongitudeDegrees>
            </Position>
            <AltitudeMeters>6.19999980926513671875</AltitudeMeters>
            <DistanceMeters>106256.75244429</DistanceMeters>
          </Trackpoint>
          <Trackpoint>
            <Time>2021-03-13T12:18:20.000Z</Time>
            <Position>
              <LatitudeDegrees>36.71790710650384426116943359375</LatitudeDegrees>
              <LongitudeDegrees>-4.4191874563694000244140625</LongitudeDegrees>
            </Position>
            <AltitudeMeters>6.19999980926513671875</AltitudeMeters>
            <DistanceMeters>106259.02912255</DistanceMeters>
          </Trackpoint>
          <Trackpoint>
            <Time>2021-03-13T12:18:23.000Z</Time>
            <Position>
              <LatitudeDegrees>36.71789118088781833648681640625</LatitudeDegrees>
              <LongitudeDegrees>-4.4192250072956085205078125</LongitudeDegrees>
            </Position>
            <AltitudeMeters>6</AltitudeMeters>
            <DistanceMeters>106262.81948554</DistanceMeters>
          </Trackpoint>
          <Trackpoint>
            <Time>2021-03-13T12:18:26.000Z</Time>
            <Position>
              <LatitudeDegrees>36.71788682229816913604736328125</LatitudeDegrees>
              <LongitudeDegrees>-4.41924319602549076080322265625</LongitudeDegrees>
            </Position>
            <AltitudeMeters>5.80000019073486328125</AltitudeMeters>
            <DistanceMeters>106264.5140546</DistanceMeters>
          </Trackpoint>
          <Trackpoint>
            <Time>2021-03-13T12:18:30.000Z</Time>
            <Position>
              <LatitudeDegrees>36.7178734950721263885498046875</LatitudeDegrees>
              <LongitudeDegrees>-4.419258199632167816162109375</LongitudeDegrees>
            </Position>
            <AltitudeMeters>5.80000019073486328125</AltitudeMeters>
            <DistanceMeters>106266.51187687</DistanceMeters>
          </Trackpoint>
          <Trackpoint>
            <Time>2021-03-13T12:18:33.000Z</Time>
            <Position>
              <LatitudeDegrees>36.71785010956227779388427734375</LatitudeDegrees>
              <LongitudeDegrees>-4.41933874972164630889892578125</LongitudeDegrees>
            </Position>
            <AltitudeMeters>5.80000019073486328125</AltitudeMeters>
            <DistanceMeters>106274.15547514</DistanceMeters>
          </Trackpoint>
          <Trackpoint>
            <Time>2021-03-13T12:18:34.000Z</Time>
            <Position>
              <LatitudeDegrees>36.71784189529716968536376953125</LatitudeDegrees>
              <LongitudeDegrees>-4.41938468255102634429931640625</LongitudeDegrees>
            </Position>
            <AltitudeMeters>5.80000019073486328125</AltitudeMeters>
            <DistanceMeters>106278.35389261</DistanceMeters>
          </Trackpoint>
          <Trackpoint>
            <Time>2021-03-13T12:18:36.000Z</Time>
            <Position>
              <LatitudeDegrees>36.71783133409917354583740234375</LatitudeDegrees>
              <LongitudeDegrees>-4.4194672442972660064697265625</LongitudeDegrees>
            </Position>
            <AltitudeMeters>5.599999904632568359375</AltitudeMeters>
            <DistanceMeters>106285.81333837</DistanceMeters>
          </Trackpoint>
          <Trackpoint>
            <Time>2021-03-13T12:18:38.000Z</Time>
            <Position>
              <LatitudeDegrees>36.7177799530327320098876953125</LatitudeDegrees>
              <LongitudeDegrees>-4.41960060037672519683837890625</LongitudeDegrees>
            </Position>
            <AltitudeMeters>5.599999904632568359375</AltitudeMeters>
            <DistanceMeters>106299.0141874</DistanceMeters>
          </Trackpoint>
          <Trackpoint>
            <Time>2021-03-13T12:18:41.000Z</Time>
            <Position>
              <LatitudeDegrees>36.71766646206378936767578125</LatitudeDegrees>
              <LongitudeDegrees>-4.4198001734912395477294921875</LongitudeDegrees>
            </Position>
            <AltitudeMeters>5.599999904632568359375</AltitudeMeters>
            <DistanceMeters>106320.84511442</DistanceMeters>
          </Trackpoint>
          <Trackpoint>
            <Time>2021-03-13T12:18:42.000Z</Time>
            <Position>
              <LatitudeDegrees>36.7176161706447601318359375</LatitudeDegrees>
              <LongitudeDegrees>-4.41986043937504291534423828125</LongitudeDegrees>
            </Position>
            <AltitudeMeters>5.599999904632568359375</AltitudeMeters>
            <DistanceMeters>106328.60653439</DistanceMeters>
          </Trackpoint>
          <Trackpoint>
            <Time>2021-03-13T12:18:43.000Z</Time>
            <Position>
              <LatitudeDegrees>36.71756026335060596466064453125</LatitudeDegrees>
              <LongitudeDegrees>-4.4199171848595142364501953125</LongitudeDegrees>
            </Position>
            <AltitudeMeters>5.599999904632568359375</AltitudeMeters>
            <DistanceMeters>106336.62883798</DistanceMeters>
          </Trackpoint>
          <Trackpoint>
            <Time>2021-03-13T12:18:47.000Z</Time>
            <Position>
              <LatitudeDegrees>36.7173286713659763336181640625</LatitudeDegrees>
              <LongitudeDegrees>-4.42013000138103961944580078125</LongitudeDegrees>
            </Position>
            <AltitudeMeters>5.80000019073486328125</AltitudeMeters>
            <DistanceMeters>106368.64367511</DistanceMeters>
          </Trackpoint>
          <Trackpoint>
            <Time>2021-03-13T12:18:53.000Z</Time>
            <Position>
              <LatitudeDegrees>36.71697118319571018218994140625</LatitudeDegrees>
              <LongitudeDegrees>-4.4204593263566493988037109375</LongitudeDegrees>
            </Position>
            <AltitudeMeters>5.80000019073486328125</AltitudeMeters>
            <DistanceMeters>106418.10560482</DistanceMeters>
          </Trackpoint>
          <Trackpoint>
            <Time>2021-03-13T12:19:00.000Z</Time>
            <Position>
              <LatitudeDegrees>36.7165233381092548370361328125</LatitudeDegrees>
              <LongitudeDegrees>-4.42086911760270595550537109375</LongitudeDegrees>
            </Position>
            <AltitudeMeters>5.80000019073486328125</AltitudeMeters>
            <DistanceMeters>106479.92280154</DistanceMeters>
          </Trackpoint>
          <Trackpoint>
            <Time>2021-03-13T12:19:06.000Z</Time>
            <Position>
              <LatitudeDegrees>36.7161729745566844940185546875</LatitudeDegrees>
              <LongitudeDegrees>-4.42121596075594425201416015625</LongitudeDegrees>
            </Position>
            <AltitudeMeters>5.400000095367431640625</AltitudeMeters>
            <DistanceMeters>106529.70555498</DistanceMeters>
          </Trackpoint>
          <Trackpoint>
            <Time>2021-03-13T12:19:08.000Z</Time>
            <Position>
              <LatitudeDegrees>36.716056801378726959228515625</LatitudeDegrees>
              <LongitudeDegrees>-4.4213171303272247314453125</LongitudeDegrees>
            </Position>
            <AltitudeMeters>5.400000095367431640625</AltitudeMeters>
            <DistanceMeters>106545.47483667</DistanceMeters>
          </Trackpoint>
          <Trackpoint>
            <Time>2021-03-13T12:19:11.000Z</Time>
            <Position>
              <LatitudeDegrees>36.71587030403316020965576171875</LatitudeDegrees>
              <LongitudeDegrees>-4.4215129315853118896484375</LongitudeDegrees>
            </Position>
            <AltitudeMeters>5.19999980926513671875</AltitudeMeters>
            <DistanceMeters>106572.60492202</DistanceMeters>
          </Trackpoint>
          <Trackpoint>
            <Time>2021-03-13T12:19:17.000Z</Time>
            <Position>
              <LatitudeDegrees>36.715482138097286224365234375</LatitudeDegrees>
              <LongitudeDegrees>-4.42190998233854770660400390625</LongitudeDegrees>
            </Position>
            <AltitudeMeters>5.19999980926513671875</AltitudeMeters>
            <DistanceMeters>106628.47529668</DistanceMeters>
          </Trackpoint>
          <Trackpoint>
            <Time>2021-03-13T12:19:19.000Z</Time>
            <Position>
              <LatitudeDegrees>36.715353392064571380615234375</LatitudeDegrees>
              <LongitudeDegrees>-4.4220471940934658050537109375</LongitudeDegrees>
            </Position>
            <AltitudeMeters>5.400000095367431640625</AltitudeMeters>
            <DistanceMeters>106647.32223508</DistanceMeters>
          </Trackpoint>
          <Trackpoint>
            <Time>2021-03-13T12:19:21.000Z</Time>
            <Position>
              <LatitudeDegrees>36.715234704315662384033203125</LatitudeDegrees>
              <LongitudeDegrees>-4.42216110415756702423095703125</LongitudeDegrees>
            </Position>
            <AltitudeMeters>5.400000095367431640625</AltitudeMeters>
            <DistanceMeters>106663.98960655</DistanceMeters>
          </Trackpoint>
          <Trackpoint>
            <Time>2021-03-13T12:19:24.000Z</Time>
            <Position>
              <LatitudeDegrees>36.715024150907993316650390625</LatitudeDegrees>
              <LongitudeDegrees>-4.42237727344036102294921875</LongitudeDegrees>
            </Position>
            <AltitudeMeters>5.400000095367431640625</AltitudeMeters>
            <DistanceMeters>106694.34078805</DistanceMeters>
          </Trackpoint>
          <Trackpoint>
            <Time>2021-03-13T12:19:26.000Z</Time>
            <Position>
              <LatitudeDegrees>36.7149049602448940277099609375</LatitudeDegrees>
              <LongitudeDegrees>-4.42251482047140598297119140625</LongitudeDegrees>
            </Position>
            <AltitudeMeters>5.19999980926513671875</AltitudeMeters>
            <DistanceMeters>106712.41311039</DistanceMeters>
          </Trackpoint>
          <Trackpoint>
            <Time>2021-03-13T12:19:31.000Z</Time>
            <Position>
              <LatitudeDegrees>36.714550070464611053466796875</LatitudeDegrees>
              <LongitudeDegrees>-4.42284774966537952423095703125</LongitudeDegrees>
            </Position>
            <AltitudeMeters>5.400000095367431640625</AltitudeMeters>
            <DistanceMeters>106761.83595549</DistanceMeters>
          </Trackpoint>
          <Trackpoint>
            <Time>2021-03-13T12:19:32.000Z</Time>
            <Position>
              <LatitudeDegrees>36.71446516178548336029052734375</LatitudeDegrees>
              <LongitudeDegrees>-4.42291966639459133148193359375</LongitudeDegrees>
            </Position>
            <AltitudeMeters>5.400000095367431640625</AltitudeMeters>
            <DistanceMeters>106773.2589413</DistanceMeters>
          </Trackpoint>
          <Trackpoint>
            <Time>2021-03-13T12:19:38.000Z</Time>
            <Position>
              <LatitudeDegrees>36.71409551985561847686767578125</LatitudeDegrees>
              <LongitudeDegrees>-4.423290230333805084228515625</LongitudeDegrees>
            </Position>
            <AltitudeMeters>5.599999904632568359375</AltitudeMeters>
            <DistanceMeters>106826.03967332</DistanceMeters>
          </Trackpoint>
          <Trackpoint>
            <Time>2021-03-13T12:19:42.000Z</Time>
            <Position>
              <LatitudeDegrees>36.71386778354644775390625</LatitudeDegrees>
              <LongitudeDegrees>-4.423515535891056060791015625</LongitudeDegrees>
            </Position>
            <AltitudeMeters>5.599999904632568359375</AltitudeMeters>
            <DistanceMeters>106858.39093172</DistanceMeters>
          </Trackpoint>
          <Trackpoint>
            <Time>2021-03-13T12:19:43.000Z</Time>
            <Position>
              <LatitudeDegrees>36.71381774358451366424560546875</LatitudeDegrees>
              <LongitudeDegrees>-4.4235515780746936798095703125</LongitudeDegrees>
            </Position>
            <AltitudeMeters>5.599999904632568359375</AltitudeMeters>
            <DistanceMeters>106864.82193087</DistanceMeters>
          </Trackpoint>
          <Trackpoint>
            <Time>2021-03-13T12:19:45.000Z</Time>
            <Position>
              <LatitudeDegrees>36.7137556336820125579833984375</LatitudeDegrees>
              <LongitudeDegrees>-4.42361670546233654022216796875</LongitudeDegrees>
            </Position>
            <AltitudeMeters>5.599999904632568359375</AltitudeMeters>
            <DistanceMeters>106873.85296904</DistanceMeters>
          </Trackpoint>
          <Trackpoint>
            <Time>2021-03-13T12:19:49.000Z</Time>
            <Position>
              <LatitudeDegrees>36.71368329785764217376708984375</LatitudeDegrees>
              <LongitudeDegrees>-4.42369968630373477935791015625</LongitudeDegrees>
            </Position>
            <AltitudeMeters>5.599999904632568359375</AltitudeMeters>
            <DistanceMeters>106884.79095253</DistanceMeters>
          </Trackpoint>
          <Trackpoint>
            <Time>2021-03-13T12:19:54.000Z</Time>
            <Position>
              <LatitudeDegrees>36.7136795260012149810791015625</LatitudeDegrees>
              <LongitudeDegrees>-4.42370136268436908721923828125</LongitudeDegrees>
            </Position>
            <AltitudeMeters>5.80000019073486328125</AltitudeMeters>
            <DistanceMeters>106885.24668465</DistanceMeters>
          </Trackpoint>
          <Trackpoint>
            <Time>2021-03-13T12:20:03.000Z</Time>
            <Position>
              <LatitudeDegrees>36.7136795260012149810791015625</LatitudeDegrees>
              <LongitudeDegrees>-4.42370136268436908721923828125</LongitudeDegrees>
            </Position>
            <AltitudeMeters>5.599999904632568359375</AltitudeMeters>
            <DistanceMeters>106885.24668465</DistanceMeters>
          </Trackpoint>
          <Trackpoint>
            <Time>2021-03-13T12:20:07.000Z</Time>
            <Position>
              <LatitudeDegrees>36.7136795260012149810791015625</LatitudeDegrees>
              <LongitudeDegrees>-4.42370136268436908721923828125</LongitudeDegrees>
            </Position>
            <AltitudeMeters>5.599999904632568359375</AltitudeMeters>
            <DistanceMeters>106885.24668465</DistanceMeters>
          </Trackpoint>
          <Trackpoint>
            <Time>2021-03-13T12:20:10.000Z</Time>
            <Position>
              <LatitudeDegrees>36.7136795260012149810791015625</LatitudeDegrees>
              <LongitudeDegrees>-4.42370136268436908721923828125</LongitudeDegrees>
            </Position>
            <AltitudeMeters>5.599999904632568359375</AltitudeMeters>
            <DistanceMeters>106885.24668465</DistanceMeters>
          </Trackpoint>
          <Trackpoint>
            <Time>2021-03-13T12:20:15.000Z</Time>
            <Position>
              <LatitudeDegrees>36.7136795260012149810791015625</LatitudeDegrees>
              <LongitudeDegrees>-4.42370136268436908721923828125</LongitudeDegrees>
            </Position>
            <AltitudeMeters>5.80000019073486328125</AltitudeMeters>
            <DistanceMeters>106885.24668465</DistanceMeters>
          </Trackpoint>
          <Trackpoint>
            <Time>2021-03-13T12:20:27.000Z</Time>
            <Position>
              <LatitudeDegrees>36.71367944218218326568603515625</LatitudeDegrees>
              <LongitudeDegrees>-4.42370136268436908721923828125</LongitudeDegrees>
            </Position>
            <AltitudeMeters>5.400000095367431640625</AltitudeMeters>
            <DistanceMeters>106885.24668465</DistanceMeters>
          </Trackpoint>
          <Trackpoint>
            <Time>2021-03-13T12:20:29.000Z</Time>
            <Position>
              <LatitudeDegrees>36.71367944218218326568603515625</LatitudeDegrees>
              <LongitudeDegrees>-4.42370136268436908721923828125</LongitudeDegrees>
            </Position>
            <AltitudeMeters>5.400000095367431640625</AltitudeMeters>
            <DistanceMeters>106885.24668465</DistanceMeters>
          </Trackpoint>
          <Trackpoint>
            <Time>2021-03-13T12:20:47.000Z</Time>
            <Position>
              <LatitudeDegrees>36.71367944218218326568603515625</LatitudeDegrees>
              <LongitudeDegrees>-4.42370136268436908721923828125</LongitudeDegrees>
            </Position>
            <AltitudeMeters>5.400000095367431640625</AltitudeMeters>
            <DistanceMeters>106885.24668465</DistanceMeters>
          </Trackpoint>
          <Trackpoint>
            <Time>2021-03-13T12:20:51.000Z</Time>
            <Position>
              <LatitudeDegrees>36.7136768437922000885009765625</LatitudeDegrees>
              <LongitudeDegrees>-4.42370438016951084136962890625</LongitudeDegrees>
            </Position>
            <AltitudeMeters>5.400000095367431640625</AltitudeMeters>
            <DistanceMeters>106885.64984885</DistanceMeters>
          </Trackpoint>
          <Trackpoint>
            <Time>2021-03-13T12:20:54.000Z</Time>
            <Position>
              <LatitudeDegrees>36.7135869897902011871337890625</LatitudeDegrees>
              <LongitudeDegrees>-4.4237887859344482421875</LongitudeDegrees>
            </Position>
            <AltitudeMeters>5.400000095367431640625</AltitudeMeters>
            <DistanceMeters>106898.16959593</DistanceMeters>
          </Trackpoint>
          <Trackpoint>
            <Time>2021-03-13T12:20:56.000Z</Time>
            <Position>
              <LatitudeDegrees>36.71352379024028778076171875</LatitudeDegrees>
              <LongitudeDegrees>-4.423843435943126678466796875</LongitudeDegrees>
            </Position>
            <AltitudeMeters>5.400000095367431640625</AltitudeMeters>
            <DistanceMeters>106906.72833299</DistanceMeters>
          </Trackpoint>
          <Trackpoint>
            <Time>2021-03-13T12:20:58.000Z</Time>
            <Position>
              <LatitudeDegrees>36.71343234367668628692626953125</LatitudeDegrees>
              <LongitudeDegrees>-4.423886351287364959716796875</LongitudeDegrees>
            </Position>
            <AltitudeMeters>5.400000095367431640625</AltitudeMeters>
            <DistanceMeters>106917.60297695</DistanceMeters>
          </Trackpoint>
          <Trackpoint>
            <Time>2021-03-13T12:20:59.000Z</Time>
            <Position>
              <LatitudeDegrees>36.713398396968841552734375</LatitudeDegrees>
              <LongitudeDegrees>-4.4239083118736743927001953125</LongitudeDegrees>
            </Position>
            <AltitudeMeters>5.400000095367431640625</AltitudeMeters>
            <DistanceMeters>106921.85907062</DistanceMeters>
          </Trackpoint>
          <Trackpoint>
            <Time>2021-03-13T12:21:00.000Z</Time>
            <Position>
              <LatitudeDegrees>36.71334542334079742431640625</LatitudeDegrees>
              <LongitudeDegrees>-4.423958770930767059326171875</LongitudeDegrees>
            </Position>
            <AltitudeMeters>5.400000095367431640625</AltitudeMeters>
            <DistanceMeters>106929.27724329</DistanceMeters>
          </Trackpoint>
          <Trackpoint>
            <Time>2021-03-13T12:21:02.000Z</Time>
            <Position>
              <LatitudeDegrees>36.71324727125465869903564453125</LatitudeDegrees>
              <LongitudeDegrees>-4.42405742593109607696533203125</LongitudeDegrees>
            </Position>
            <AltitudeMeters>5.400000095367431640625</AltitudeMeters>
            <DistanceMeters>106943.30648227</DistanceMeters>
          </Trackpoint>
          <Trackpoint>
            <Time>2021-03-13T12:21:05.000Z</Time>
            <Position>
              <LatitudeDegrees>36.71306789852678775787353515625</LatitudeDegrees>
              <LongitudeDegrees>-4.424197487533092498779296875</LongitudeDegrees>
            </Position>
            <AltitudeMeters>5.400000095367431640625</AltitudeMeters>
            <DistanceMeters>106966.85950089</DistanceMeters>
          </Trackpoint>
          <Trackpoint>
            <Time>2021-03-13T12:21:07.000Z</Time>
            <Position>
              <LatitudeDegrees>36.7129459418356418609619140625</LatitudeDegrees>
              <LongitudeDegrees>-4.42428675480186939239501953125</LongitudeDegrees>
            </Position>
            <AltitudeMeters>5.400000095367431640625</AltitudeMeters>
            <DistanceMeters>106982.5978298</DistanceMeters>
          </Trackpoint>
          <Trackpoint>
            <Time>2021-03-13T12:21:09.000Z</Time>
            <Position>
              <LatitudeDegrees>36.712850220501422882080078125</LatitudeDegrees>
              <LongitudeDegrees>-4.42443226464092731475830078125</LongitudeDegrees>
            </Position>
            <AltitudeMeters>5.400000095367431640625</AltitudeMeters>
            <DistanceMeters>106999.39257504</DistanceMeters>
          </Trackpoint>
          <Trackpoint>
            <Time>2021-03-13T12:21:11.000Z</Time>
            <Position>
              <LatitudeDegrees>36.712735556066036224365234375</LatitudeDegrees>
              <LongitudeDegrees>-4.4245822168886661529541015625</LongitudeDegrees>
            </Position>
            <AltitudeMeters>5.400000095367431640625</AltitudeMeters>
            <DistanceMeters>107017.88278121</DistanceMeters>
          </Trackpoint>
          <Trackpoint>
            <Time>2021-03-13T12:21:18.000Z</Time>
            <Position>
              <LatitudeDegrees>36.71232425607740879058837890625</LatitudeDegrees>
              <LongitudeDegrees>-4.42501815967261791229248046875</LongitudeDegrees>
            </Position>
            <AltitudeMeters>5.400000095367431640625</AltitudeMeters>
            <DistanceMeters>107077.95469869</DistanceMeters>
          </Trackpoint>
          <Trackpoint>
            <Time>2021-03-13T12:21:21.000Z</Time>
            <Position>
              <LatitudeDegrees>36.71215586364269256591796875</LatitudeDegrees>
              <LongitudeDegrees>-4.4251746498048305511474609375</LongitudeDegrees>
            </Position>
            <AltitudeMeters>5.599999904632568359375</AltitudeMeters>
            <DistanceMeters>107101.32644133</DistanceMeters>
          </Trackpoint>
          <Trackpoint>
            <Time>2021-03-13T12:21:23.000Z</Time>
            <Position>
              <LatitudeDegrees>36.712040863931179046630859375</LatitudeDegrees>
              <LongitudeDegrees>-4.425287805497646331787109375</LongitudeDegrees>
            </Position>
            <AltitudeMeters>5.80000019073486328125</AltitudeMeters>
            <DistanceMeters>107117.62899358</DistanceMeters>
          </Trackpoint>
          <Trackpoint>
            <Time>2021-03-13T12:21:29.000Z</Time>
            <Position>
              <LatitudeDegrees>36.71177943237125873565673828125</LatitudeDegrees>
              <LongitudeDegrees>-4.425622411072254180908203125</LongitudeDegrees>
            </Position>
            <AltitudeMeters>6.80000019073486328125</AltitudeMeters>
            <DistanceMeters>107159.31865469</DistanceMeters>
          </Trackpoint>
          <Trackpoint>
            <Time>2021-03-13T12:21:32.000Z</Time>
            <Position>
              <LatitudeDegrees>36.711631827056407928466796875</LatitudeDegrees>
              <LongitudeDegrees>-4.42577538080513477325439453125</LongitudeDegrees>
            </Position>
            <AltitudeMeters>7</AltitudeMeters>
            <DistanceMeters>107180.67748101</DistanceMeters>
          </Trackpoint>
          <Trackpoint>
            <Time>2021-03-13T12:21:36.000Z</Time>
            <Position>
              <LatitudeDegrees>36.7114417254924774169921875</LatitudeDegrees>
              <LongitudeDegrees>-4.42597805522382259368896484375</LongitudeDegrees>
            </Position>
            <AltitudeMeters>7.19999980926513671875</AltitudeMeters>
            <DistanceMeters>107208.51106357</DistanceMeters>
          </Trackpoint>
          <Trackpoint>
            <Time>2021-03-13T12:21:40.000Z</Time>
            <Position>
              <LatitudeDegrees>36.71127115376293659210205078125</LatitudeDegrees>
              <LongitudeDegrees>-4.42615189589560031890869140625</LongitudeDegrees>
            </Position>
            <AltitudeMeters>7.599999904632568359375</AltitudeMeters>
            <DistanceMeters>107233.02685089</DistanceMeters>
          </Trackpoint>
          <Trackpoint>
            <Time>2021-03-13T12:21:43.000Z</Time>
            <Position>
              <LatitudeDegrees>36.71113285236060619354248046875</LatitudeDegrees>
              <LongitudeDegrees>-4.42627527751028537750244140625</LongitudeDegrees>
            </Position>
            <AltitudeMeters>7.599999904632568359375</AltitudeMeters>
            <DistanceMeters>107251.95148727</DistanceMeters>
          </Trackpoint>
          <Trackpoint>
            <Time>2021-03-13T12:21:44.000Z</Time>
            <Position>
              <LatitudeDegrees>36.7110875062644481658935546875</LatitudeDegrees>
              <LongitudeDegrees>-4.42630377598106861114501953125</LongitudeDegrees>
            </Position>
            <AltitudeMeters>7.599999904632568359375</AltitudeMeters>
            <DistanceMeters>107257.60218194</DistanceMeters>
          </Trackpoint>
          <Trackpoint>
            <Time>2021-03-13T12:21:46.000Z</Time>
            <Position>
              <LatitudeDegrees>36.7110124044120311737060546875</LatitudeDegrees>
              <LongitudeDegrees>-4.42636043764650821685791015625</LongitudeDegrees>
            </Position>
            <AltitudeMeters>7.599999904632568359375</AltitudeMeters>
            <DistanceMeters>107267.37100213</DistanceMeters>
          </Trackpoint>
          <Trackpoint>
            <Time>2021-03-13T12:21:50.000Z</Time>
            <Position>
              <LatitudeDegrees>36.71081149019300937652587890625</LatitudeDegrees>
              <LongitudeDegrees>-4.42657358944416046142578125</LongitudeDegrees>
            </Position>
            <AltitudeMeters>7.599999904632568359375</AltitudeMeters>
            <DistanceMeters>107296.72687523</DistanceMeters>
          </Trackpoint>
          <Trackpoint>
            <Time>2021-03-13T12:21:54.000Z</Time>
            <Position>
              <LatitudeDegrees>36.71063966117799282073974609375</LatitudeDegrees>
              <LongitudeDegrees>-4.42675204016268253326416015625</LongitudeDegrees>
            </Position>
            <AltitudeMeters>7.400000095367431640625</AltitudeMeters>
            <DistanceMeters>107321.61226537</DistanceMeters>
          </Trackpoint>
          <Trackpoint>
            <Time>2021-03-13T12:21:55.000Z</Time>
            <Position>
              <LatitudeDegrees>36.71061216853559017181396484375</LatitudeDegrees>
              <LongitudeDegrees>-4.4267888367176055908203125</LongitudeDegrees>
            </Position>
            <AltitudeMeters>7.400000095367431640625</AltitudeMeters>
            <DistanceMeters>107326.0997001</DistanceMeters>
          </Trackpoint>
          <Trackpoint>
            <Time>2021-03-13T12:21:56.000Z</Time>
            <Position>
              <LatitudeDegrees>36.71058266423642635345458984375</LatitudeDegrees>
              <LongitudeDegrees>-4.4268339313566684722900390625</LongitudeDegrees>
            </Position>
            <AltitudeMeters>7.19999980926513671875</AltitudeMeters>
            <DistanceMeters>107331.29323823</DistanceMeters>
          </Trackpoint>
          <Trackpoint>
            <Time>2021-03-13T12:21:58.000Z</Time>
            <Position>
              <LatitudeDegrees>36.710511334240436553955078125</LatitudeDegrees>
              <LongitudeDegrees>-4.4269204325973987579345703125</LongitudeDegrees>
            </Position>
            <AltitudeMeters>7.19999980926513671875</AltitudeMeters>
            <DistanceMeters>107342.36578753</DistanceMeters>
          </Trackpoint>
          <Trackpoint>
            <Time>2021-03-13T12:21:59.000Z</Time>
            <Position>
              <LatitudeDegrees>36.710472442209720611572265625</LatitudeDegrees>
              <LongitudeDegrees>-4.4269593246281147003173828125</LongitudeDegrees>
            </Position>
            <AltitudeMeters>7</AltitudeMeters>
            <DistanceMeters>107347.91326448</DistanceMeters>
          </Trackpoint>
          <Trackpoint>
            <Time>2021-03-13T12:22:00.000Z</Time>
            <Position>
              <LatitudeDegrees>36.71043111942708492279052734375</LatitudeDegrees>
              <LongitudeDegrees>-4.4270069338381290435791015625</LongitudeDegrees>
            </Position>
            <AltitudeMeters>6.80000019073486328125</AltitudeMeters>
            <DistanceMeters>107354.17349864</DistanceMeters>
          </Trackpoint>
          <Trackpoint>
            <Time>2021-03-13T12:22:04.000Z</Time>
            <Position>
              <LatitudeDegrees>36.7102355696260929107666015625</LatitudeDegrees>
              <LongitudeDegrees>-4.42724573425948619842529296875</LongitudeDegrees>
            </Position>
            <AltitudeMeters>6.400000095367431640625</AltitudeMeters>
            <DistanceMeters>107384.63204364</DistanceMeters>
          </Trackpoint>
          <Trackpoint>
            <Time>2021-03-13T12:22:06.000Z</Time>
            <Position>
              <LatitudeDegrees>36.7101386748254299163818359375</LatitudeDegrees>
              <LongitudeDegrees>-4.42734329961240291595458984375</LongitudeDegrees>
            </Position>
            <AltitudeMeters>6.19999980926513671875</AltitudeMeters>
            <DistanceMeters>107398.49194322</DistanceMeters>
          </Trackpoint>
          <Trackpoint>
            <Time>2021-03-13T12:22:08.000Z</Time>
            <Position>
              <LatitudeDegrees>36.71002258546650409698486328125</LatitudeDegrees>
              <LongitudeDegrees>-4.42745276726782321929931640625</LongitudeDegrees>
            </Position>
            <AltitudeMeters>6</AltitudeMeters>
            <DistanceMeters>107414.68946898</DistanceMeters>
          </Trackpoint>
          <Trackpoint>
            <Time>2021-03-13T12:22:10.000Z</Time>
            <Position>
              <LatitudeDegrees>36.7099344916641712188720703125</LatitudeDegrees>
              <LongitudeDegrees>-4.42753851413726806640625</LongitudeDegrees>
            </Position>
            <AltitudeMeters>5.80000019073486328125</AltitudeMeters>
            <DistanceMeters>107427.12671987</DistanceMeters>
          </Trackpoint>
          <Trackpoint>
            <Time>2021-03-13T12:22:11.000Z</Time>
            <Position>
              <LatitudeDegrees>36.7098976112902164459228515625</LatitudeDegrees>
              <LongitudeDegrees>-4.42758570425212383270263671875</LongitudeDegrees>
            </Position>
            <AltitudeMeters>5.80000019073486328125</AltitudeMeters>
            <DistanceMeters>107433.00686975</DistanceMeters>
          </Trackpoint>
          <Trackpoint>
            <Time>2021-03-13T12:22:13.000Z</Time>
            <Position>
              <LatitudeDegrees>36.7098298855125904083251953125</LatitudeDegrees>
              <LongitudeDegrees>-4.42768058739602565765380859375</LongitudeDegrees>
            </Position>
            <AltitudeMeters>5.80000019073486328125</AltitudeMeters>
            <DistanceMeters>107444.34256505</DistanceMeters>
          </Trackpoint>
          <Trackpoint>
            <Time>2021-03-13T12:22:14.000Z</Time>
            <Position>
              <LatitudeDegrees>36.70979895628988742828369140625</LatitudeDegrees>
              <LongitudeDegrees>-4.42773825488984584808349609375</LongitudeDegrees>
            </Position>
            <AltitudeMeters>5.80000019073486328125</AltitudeMeters>
            <DistanceMeters>107450.53317442</DistanceMeters>
          </Trackpoint>
          <Trackpoint>
            <Time>2021-03-13T12:22:15.000Z</Time>
            <Position>
              <LatitudeDegrees>36.70977431349456310272216796875</LatitudeDegrees>
              <LongitudeDegrees>-4.42780463956296443939208984375</LongitudeDegrees>
            </Position>
            <AltitudeMeters>5.599999904632568359375</AltitudeMeters>
            <DistanceMeters>107457.06172409</DistanceMeters>
          </Trackpoint>
          <Trackpoint>
            <Time>2021-03-13T12:22:17.000Z</Time>
            <Position>
              <LatitudeDegrees>36.70977431349456310272216796875</LatitudeDegrees>
              <LongitudeDegrees>-4.42794579081237316131591796875</LongitudeDegrees>
            </Position>
            <AltitudeMeters>5.599999904632568359375</AltitudeMeters>
            <DistanceMeters>107469.65625953</DistanceMeters>
          </Trackpoint>
          <Trackpoint>
            <Time>2021-03-13T12:22:19.000Z</Time>
            <Position>
              <LatitudeDegrees>36.7098511755466461181640625</LatitudeDegrees>
              <LongitudeDegrees>-4.4280690886080265045166015625</LongitudeDegrees>
            </Position>
            <AltitudeMeters>5.599999904632568359375</AltitudeMeters>
            <DistanceMeters>107483.59282705</DistanceMeters>
          </Trackpoint>
          <Trackpoint>
            <Time>2021-03-13T12:22:21.000Z</Time>
            <Position>
              <LatitudeDegrees>36.7099629901349544525146484375</LatitudeDegrees>
              <LongitudeDegrees>-4.42818266339600086212158203125</LongitudeDegrees>
            </Position>
            <AltitudeMeters>5.599999904632568359375</AltitudeMeters>
            <DistanceMeters>107499.6422174</DistanceMeters>
          </Trackpoint>
          <Trackpoint>
            <Time>2021-03-13T12:22:24.000Z</Time>
            <Position>
              <LatitudeDegrees>36.71011202037334442138671875</LatitudeDegrees>
              <LongitudeDegrees>-4.42837209440767765045166015625</LongitudeDegrees>
            </Position>
            <AltitudeMeters>5.599999904632568359375</AltitudeMeters>
            <DistanceMeters>107523.32427786</DistanceMeters>
          </Trackpoint>
          <Trackpoint>
            <Time>2021-03-13T12:22:26.000Z</Time>
            <Position>
              <LatitudeDegrees>36.71022911556065082550048828125</LatitudeDegrees>
              <LongitudeDegrees>-4.42850419320166110992431640625</LongitudeDegrees>
            </Position>
            <AltitudeMeters>5.599999904632568359375</AltitudeMeters>
            <DistanceMeters>107540.89651346</DistanceMeters>
          </Trackpoint>
          <Trackpoint>
            <Time>2021-03-13T12:22:28.000Z</Time>
            <Position>
              <LatitudeDegrees>36.71034797094762325286865234375</LatitudeDegrees>
              <LongitudeDegrees>-4.42862740717828273773193359375</LongitudeDegrees>
            </Position>
            <AltitudeMeters>5.80000019073486328125</AltitudeMeters>
            <DistanceMeters>107558.09713626</DistanceMeters>
          </Trackpoint>
          <Trackpoint>
            <Time>2021-03-13T12:22:31.000Z</Time>
            <Position>
              <LatitudeDegrees>36.71050555072724819183349609375</LatitudeDegrees>
              <LongitudeDegrees>-4.42884081043303012847900390625</LongitudeDegrees>
            </Position>
            <AltitudeMeters>6</AltitudeMeters>
            <DistanceMeters>107583.98489694</DistanceMeters>
          </Trackpoint>
          <Trackpoint>
            <Time>2021-03-13T12:22:36.000Z</Time>
            <Position>
              <LatitudeDegrees>36.71080243773758411407470703125</LatitudeDegrees>
              <LongitudeDegrees>-4.4291949458420276641845703125</LongitudeDegrees>
            </Position>
            <AltitudeMeters>6</AltitudeMeters>
            <DistanceMeters>107629.7053887</DistanceMeters>
          </Trackpoint>
          <Trackpoint>
            <Time>2021-03-13T12:22:43.000Z</Time>
            <Position>
              <LatitudeDegrees>36.711220107972621917724609375</LatitudeDegrees>
              <LongitudeDegrees>-4.429689981043338775634765625</LongitudeDegrees>
            </Position>
            <AltitudeMeters>6.400000095367431640625</AltitudeMeters>
            <DistanceMeters>107693.83103217</DistanceMeters>
          </Trackpoint>
          <Trackpoint>
            <Time>2021-03-13T12:22:49.000Z</Time>
            <Position>
              <LatitudeDegrees>36.711548678576946258544921875</LatitudeDegrees>
              <LongitudeDegrees>-4.43005534820258617401123046875</LongitudeDegrees>
            </Position>
            <AltitudeMeters>6.400000095367431640625</AltitudeMeters>
            <DistanceMeters>107742.82271808</DistanceMeters>
          </Trackpoint>
          <Trackpoint>
            <Time>2021-03-13T12:22:52.000Z</Time>
            <Position>
              <LatitudeDegrees>36.7117060907185077667236328125</LatitudeDegrees>
              <LongitudeDegrees>-4.430258274078369140625</LongitudeDegrees>
            </Position>
            <AltitudeMeters>6.400000095367431640625</AltitudeMeters>
            <DistanceMeters>107768.01788258</DistanceMeters>
          </Trackpoint>
          <Trackpoint>
            <Time>2021-03-13T12:22:53.000Z</Time>
            <Position>
              <LatitudeDegrees>36.71176962554454803466796875</LatitudeDegrees>
              <LongitudeDegrees>-4.43031267262995243072509765625</LongitudeDegrees>
            </Position>
            <AltitudeMeters>6.400000095367431640625</AltitudeMeters>
            <DistanceMeters>107776.59453709</DistanceMeters>
          </Trackpoint>
          <Trackpoint>
            <Time>2021-03-13T12:23:00.000Z</Time>
            <Position>
              <LatitudeDegrees>36.7122596316039562225341796875</LatitudeDegrees>
              <LongitudeDegrees>-4.430646859109401702880859375</LongitudeDegrees>
            </Position>
            <AltitudeMeters>6.80000019073486328125</AltitudeMeters>
            <DistanceMeters>107838.75217852</DistanceMeters>
          </Trackpoint>
          <Trackpoint>
            <Time>2021-03-13T12:23:01.000Z</Time>
            <Position>
              <LatitudeDegrees>36.712325178086757659912109375</LatitudeDegrees>
              <LongitudeDegrees>-4.4306936301290988922119140625</LongitudeDegrees>
            </Position>
            <AltitudeMeters>6.80000019073486328125</AltitudeMeters>
            <DistanceMeters>107847.15707519</DistanceMeters>
          </Trackpoint>
          <Trackpoint>
            <Time>2021-03-13T12:23:03.000Z</Time>
            <Position>
              <LatitudeDegrees>36.71243757940828800201416015625</LatitudeDegrees>
              <LongitudeDegrees>-4.43077334202826023101806640625</LongitudeDegrees>
            </Position>
            <AltitudeMeters>6.80000019073486328125</AltitudeMeters>
            <DistanceMeters>107861.54789772</DistanceMeters>
          </Trackpoint>
          <Trackpoint>
            <Time>2021-03-13T12:23:04.000Z</Time>
            <Position>
              <LatitudeDegrees>36.71248300932347774505615234375</LatitudeDegrees>
              <LongitudeDegrees>-4.43080854602158069610595703125</LongitudeDegrees>
            </Position>
            <AltitudeMeters>6.80000019073486328125</AltitudeMeters>
            <DistanceMeters>107867.50054587</DistanceMeters>
          </Trackpoint>
          <Trackpoint>
            <Time>2021-03-13T12:23:06.000Z</Time>
            <Position>
              <LatitudeDegrees>36.71259147115051746368408203125</LatitudeDegrees>
              <LongitudeDegrees>-4.4308713264763355255126953125</LongitudeDegrees>
            </Position>
            <AltitudeMeters>7</AltitudeMeters>
            <DistanceMeters>107880.8086971</DistanceMeters>
          </Trackpoint>
          <Trackpoint>
            <Time>2021-03-13T12:23:08.000Z</Time>
            <Position>
              <LatitudeDegrees>36.71270295046269893646240234375</LatitudeDegrees>
              <LongitudeDegrees>-4.43097853101789951324462890625</LongitudeDegrees>
            </Position>
            <AltitudeMeters>7</AltitudeMeters>
            <DistanceMeters>107896.47571781</DistanceMeters>
          </Trackpoint>
          <Trackpoint>
            <Time>2021-03-13T12:23:10.000Z</Time>
            <Position>
              <LatitudeDegrees>36.71278894878923892974853515625</LatitudeDegrees>
              <LongitudeDegrees>-4.43103267811238765716552734375</LongitudeDegrees>
            </Position>
            <AltitudeMeters>7.19999980926513671875</AltitudeMeters>
            <DistanceMeters>107907.19774668</DistanceMeters>
          </Trackpoint>
          <Trackpoint>
            <Time>2021-03-13T12:23:13.000Z</Time>
            <Position>
              <LatitudeDegrees>36.71288006007671356201171875</LatitudeDegrees>
              <LongitudeDegrees>-4.431114234030246734619140625</LongitudeDegrees>
            </Position>
            <AltitudeMeters>7.400000095367431640625</AltitudeMeters>
            <DistanceMeters>107919.67920809</DistanceMeters>
          </Trackpoint>
          <Trackpoint>
            <Time>2021-03-13T12:23:18.000Z</Time>
            <Position>
              <LatitudeDegrees>36.7128847539424896240234375</LatitudeDegrees>
              <LongitudeDegrees>-4.43111850880086421966552734375</LongitudeDegrees>
            </Position>
            <AltitudeMeters>7.400000095367431640625</AltitudeMeters>
            <DistanceMeters>107920.32371062</DistanceMeters>
          </Trackpoint>
          <Trackpoint>
            <Time>2021-03-13T12:23:24.000Z</Time>
            <Position>
              <LatitudeDegrees>36.7128847539424896240234375</LatitudeDegrees>
              <LongitudeDegrees>-4.43111850880086421966552734375</LongitudeDegrees>
            </Position>
            <AltitudeMeters>7.400000095367431640625</AltitudeMeters>
            <DistanceMeters>107920.32371062</DistanceMeters>
          </Trackpoint>
          <Trackpoint>
            <Time>2021-03-13T12:23:37.000Z</Time>
            <Position>
              <LatitudeDegrees>36.7128847539424896240234375</LatitudeDegrees>
              <LongitudeDegrees>-4.43111850880086421966552734375</LongitudeDegrees>
            </Position>
            <AltitudeMeters>7</AltitudeMeters>
            <DistanceMeters>107920.32371062</DistanceMeters>
          </Trackpoint>
          <Trackpoint>
            <Time>2021-03-13T12:23:45.000Z</Time>
            <Position>
              <LatitudeDegrees>36.7128847539424896240234375</LatitudeDegrees>
              <LongitudeDegrees>-4.43111859261989593505859375</LongitudeDegrees>
            </Position>
            <AltitudeMeters>6.80000019073486328125</AltitudeMeters>
            <DistanceMeters>107920.32371062</DistanceMeters>
          </Trackpoint>
          <Trackpoint>
            <Time>2021-03-13T12:23:51.000Z</Time>
            <Position>
              <LatitudeDegrees>36.71291216276586055755615234375</LatitudeDegrees>
              <LongitudeDegrees>-4.4311395473778247833251953125</LongitudeDegrees>
            </Position>
            <AltitudeMeters>6.80000019073486328125</AltitudeMeters>
            <DistanceMeters>107923.90206896</DistanceMeters>
          </Trackpoint>
          <Trackpoint>
            <Time>2021-03-13T12:23:53.000Z</Time>
            <Position>
              <LatitudeDegrees>36.71295708976686000823974609375</LatitudeDegrees>
              <LongitudeDegrees>-4.43120802752673625946044921875</LongitudeDegrees>
            </Position>
            <AltitudeMeters>6.80000019073486328125</AltitudeMeters>
            <DistanceMeters>107931.79786834</DistanceMeters>
          </Trackpoint>
          <Trackpoint>
            <Time>2021-03-13T12:23:56.000Z</Time>
            <Position>
              <LatitudeDegrees>36.71300989575684070587158203125</LatitudeDegrees>
              <LongitudeDegrees>-4.431325457990169525146484375</LongitudeDegrees>
            </Position>
            <AltitudeMeters>6.80000019073486328125</AltitudeMeters>
            <DistanceMeters>107943.8111394</DistanceMeters>
          </Trackpoint>
          <Trackpoint>
            <Time>2021-03-13T12:23:58.000Z</Time>
            <Position>
              <LatitudeDegrees>36.71302380971610546112060546875</LatitudeDegrees>
              <LongitudeDegrees>-4.43140600807964801788330078125</LongitudeDegrees>
            </Position>
            <AltitudeMeters>7</AltitudeMeters>
            <DistanceMeters>107951.16267037</DistanceMeters>
          </Trackpoint>
          <Trackpoint>
            <Time>2021-03-13T12:24:00.000Z</Time>
            <Position>
              <LatitudeDegrees>36.71301417052745819091796875</LatitudeDegrees>
              <LongitudeDegrees>-4.43145881406962871551513671875</LongitudeDegrees>
            </Position>
            <AltitudeMeters>7</AltitudeMeters>
            <DistanceMeters>107955.99316905</DistanceMeters>
          </Trackpoint>
          <Trackpoint>
            <Time>2021-03-13T12:24:02.000Z</Time>
            <Position>
              <LatitudeDegrees>36.7130123265087604522705078125</LatitudeDegrees>
              <LongitudeDegrees>-4.4314637593924999237060546875</LongitudeDegrees>
            </Position>
            <AltitudeMeters>7.19999980926513671875</AltitudeMeters>
            <DistanceMeters>107956.47771212</DistanceMeters>
          </Trackpoint>
          <Trackpoint>
            <Time>2021-03-13T12:24:16.000Z</Time>
            <Position>
              <LatitudeDegrees>36.7130123265087604522705078125</LatitudeDegrees>
              <LongitudeDegrees>-4.4314637593924999237060546875</LongitudeDegrees>
            </Position>
            <AltitudeMeters>7.19999980926513671875</AltitudeMeters>
            <DistanceMeters>107956.47771212</DistanceMeters>
          </Trackpoint>
          <Trackpoint>
            <Time>2021-03-13T12:24:20.000Z</Time>
            <Position>
              <LatitudeDegrees>36.7130123265087604522705078125</LatitudeDegrees>
              <LongitudeDegrees>-4.4314637593924999237060546875</LongitudeDegrees>
            </Position>
            <AltitudeMeters>7.19999980926513671875</AltitudeMeters>
            <DistanceMeters>107956.47771212</DistanceMeters>
          </Trackpoint>
          <Trackpoint>
            <Time>2021-03-13T12:24:22.000Z</Time>
            <Position>
              <LatitudeDegrees>36.7130123265087604522705078125</LatitudeDegrees>
              <LongitudeDegrees>-4.4314637593924999237060546875</LongitudeDegrees>
            </Position>
            <AltitudeMeters>7.19999980926513671875</AltitudeMeters>
            <DistanceMeters>107956.47771212</DistanceMeters>
          </Trackpoint>
          <Trackpoint>
            <Time>2021-03-13T12:24:28.000Z</Time>
            <Position>
              <LatitudeDegrees>36.7130123265087604522705078125</LatitudeDegrees>
              <LongitudeDegrees>-4.4314637593924999237060546875</LongitudeDegrees>
            </Position>
            <AltitudeMeters>7.19999980926513671875</AltitudeMeters>
            <DistanceMeters>107956.47771212</DistanceMeters>
          </Trackpoint>
          <Trackpoint>
            <Time>2021-03-13T12:24:31.000Z</Time>
            <Position>
              <LatitudeDegrees>36.7130123265087604522705078125</LatitudeDegrees>
              <LongitudeDegrees>-4.4314637593924999237060546875</LongitudeDegrees>
            </Position>
            <AltitudeMeters>7.19999980926513671875</AltitudeMeters>
            <DistanceMeters>107956.47771212</DistanceMeters>
          </Trackpoint>
          <Trackpoint>
            <Time>2021-03-13T12:24:39.000Z</Time>
            <Position>
              <LatitudeDegrees>36.7130123265087604522705078125</LatitudeDegrees>
              <LongitudeDegrees>-4.4314637593924999237060546875</LongitudeDegrees>
            </Position>
            <AltitudeMeters>7.599999904632568359375</AltitudeMeters>
            <DistanceMeters>107956.47771212</DistanceMeters>
          </Trackpoint>
          <Trackpoint>
            <Time>2021-03-13T12:24:45.000Z</Time>
            <Position>
              <LatitudeDegrees>36.7130123265087604522705078125</LatitudeDegrees>
              <LongitudeDegrees>-4.4314637593924999237060546875</LongitudeDegrees>
            </Position>
            <AltitudeMeters>7.599999904632568359375</AltitudeMeters>
            <DistanceMeters>107956.47771212</DistanceMeters>
          </Trackpoint>
          <Trackpoint>
            <Time>2021-03-13T12:24:48.000Z</Time>
            <Position>
              <LatitudeDegrees>36.7130123265087604522705078125</LatitudeDegrees>
              <LongitudeDegrees>-4.4314637593924999237060546875</LongitudeDegrees>
            </Position>
            <AltitudeMeters>7.599999904632568359375</AltitudeMeters>
            <DistanceMeters>107956.47771212</DistanceMeters>
          </Trackpoint>
          <Trackpoint>
            <Time>2021-03-13T12:24:55.000Z</Time>
            <Position>
              <LatitudeDegrees>36.7130129970610141754150390625</LatitudeDegrees>
              <LongitudeDegrees>-4.43146518431603908538818359375</LongitudeDegrees>
            </Position>
            <AltitudeMeters>7.80000019073486328125</AltitudeMeters>
            <DistanceMeters>107956.61210019</DistanceMeters>
          </Trackpoint>
          <Trackpoint>
            <Time>2021-03-13T12:24:57.000Z</Time>
            <Position>
              <LatitudeDegrees>36.71299866400659084320068359375</LatitudeDegrees>
              <LongitudeDegrees>-4.43151379935443401336669921875</LongitudeDegrees>
            </Position>
            <AltitudeMeters>7.400000095367431640625</AltitudeMeters>
            <DistanceMeters>107961.23336958</DistanceMeters>
          </Trackpoint>
          <Trackpoint>
            <Time>2021-03-13T12:24:58.000Z</Time>
            <Position>
              <LatitudeDegrees>36.7129878513514995574951171875</LatitudeDegrees>
              <LongitudeDegrees>-4.43154430948197841644287109375</LongitudeDegrees>
            </Position>
            <AltitudeMeters>7.599999904632568359375</AltitudeMeters>
            <DistanceMeters>107964.20969366</DistanceMeters>
          </Trackpoint>
          <Trackpoint>
            <Time>2021-03-13T12:25:00.000Z</Time>
            <Position>
              <LatitudeDegrees>36.712951473891735076904296875</LatitudeDegrees>
              <LongitudeDegrees>-4.43162159062922000885009765625</LongitudeDegrees>
            </Position>
            <AltitudeMeters>7.599999904632568359375</AltitudeMeters>
            <DistanceMeters>107972.20550138</DistanceMeters>
          </Trackpoint>
          <Trackpoint>
            <Time>2021-03-13T12:25:02.000Z</Time>
            <Position>
              <LatitudeDegrees>36.71290713362395763397216796875</LatitudeDegrees>
              <LongitudeDegrees>-4.4317339919507503509521484375</LongitudeDegrees>
            </Position>
            <AltitudeMeters>7.400000095367431640625</AltitudeMeters>
            <DistanceMeters>107983.38235593</DistanceMeters>
          </Trackpoint>
          <Trackpoint>
            <Time>2021-03-13T12:25:04.000Z</Time>
            <Position>
              <LatitudeDegrees>36.7128701694309711456298828125</LatitudeDegrees>
              <LongitudeDegrees>-4.4318697787821292877197265625</LongitudeDegrees>
            </Position>
            <AltitudeMeters>7.19999980926513671875</AltitudeMeters>
            <DistanceMeters>107996.17713048</DistanceMeters>
          </Trackpoint>
          <Trackpoint>
            <Time>2021-03-13T12:25:06.000Z</Time>
            <Position>
              <LatitudeDegrees>36.71283840201795101165771484375</LatitudeDegrees>
              <LongitudeDegrees>-4.4320159591734409332275390625</LongitudeDegrees>
            </Position>
            <AltitudeMeters>7.19999980926513671875</AltitudeMeters>
            <DistanceMeters>108009.69065097</DistanceMeters>
          </Trackpoint>
          <Trackpoint>
            <Time>2021-03-13T12:25:07.000Z</Time>
            <Position>
              <LatitudeDegrees>36.71282105147838592529296875</LatitudeDegrees>
              <LongitudeDegrees>-4.43209852091968059539794921875</LongitudeDegrees>
            </Position>
            <AltitudeMeters>7.19999980926513671875</AltitudeMeters>
            <DistanceMeters>108017.30584308</DistanceMeters>
          </Trackpoint>
          <Trackpoint>
            <Time>2021-03-13T12:25:09.000Z</Time>
            <Position>
              <LatitudeDegrees>36.7127908766269683837890625</LatitudeDegrees>
              <LongitudeDegrees>-4.4322761334478855133056640625</LongitudeDegrees>
            </Position>
            <AltitudeMeters>7</AltitudeMeters>
            <DistanceMeters>108033.50504126</DistanceMeters>
          </Trackpoint>
          <Trackpoint>
            <Time>2021-03-13T12:25:11.000Z</Time>
            <Position>
              <LatitudeDegrees>36.7127404175698757171630859375</LatitudeDegrees>
              <LongitudeDegrees>-4.43245106376707553863525390625</LongitudeDegrees>
            </Position>
            <AltitudeMeters>7</AltitudeMeters>
            <DistanceMeters>108050.09257963</DistanceMeters>
          </Trackpoint>
          <Trackpoint>
            <Time>2021-03-13T12:25:14.000Z</Time>
            <Position>
              <LatitudeDegrees>36.71266305260360240936279296875</LatitudeDegrees>
              <LongitudeDegrees>-4.43272481672465801239013671875</LongitudeDegrees>
            </Position>
            <AltitudeMeters>7</AltitudeMeters>
            <DistanceMeters>108075.99150003</DistanceMeters>
          </Trackpoint>
          <Trackpoint>
            <Time>2021-03-13T12:25:16.000Z</Time>
            <Position>
              <LatitudeDegrees>36.71259247697889804840087890625</LatitudeDegrees>
              <LongitudeDegrees>-4.43291190080344676971435546875</LongitudeDegrees>
            </Position>
            <AltitudeMeters>7</AltitudeMeters>
            <DistanceMeters>108094.43990325</DistanceMeters>
          </Trackpoint>
          <Trackpoint>
            <Time>2021-03-13T12:25:17.000Z</Time>
            <Position>
              <LatitudeDegrees>36.7125623859465122222900390625</LatitudeDegrees>
              <LongitudeDegrees>-4.43300879560410976409912109375</LongitudeDegrees>
            </Position>
            <AltitudeMeters>7</AltitudeMeters>
            <DistanceMeters>108103.7107321</DistanceMeters>
          </Trackpoint>
          <Trackpoint>
            <Time>2021-03-13T12:25:21.000Z</Time>
            <Position>
              <LatitudeDegrees>36.7124609649181365966796875</LatitudeDegrees>
              <LongitudeDegrees>-4.43340442143380641937255859375</LongitudeDegrees>
            </Position>
            <AltitudeMeters>7.19999980926513671875</AltitudeMeters>
            <DistanceMeters>108140.7711507</DistanceMeters>
          </Trackpoint>
          <Trackpoint>
            <Time>2021-03-13T12:25:25.000Z</Time>
            <Position>
              <LatitudeDegrees>36.71236750669777393341064453125</LatitudeDegrees>
              <LongitudeDegrees>-4.4337966106832027435302734375</LongitudeDegrees>
            </Position>
            <AltitudeMeters>7.80000019073486328125</AltitudeMeters>
            <DistanceMeters>108177.27749073</DistanceMeters>
          </Trackpoint>
          <Trackpoint>
            <Time>2021-03-13T12:25:27.000Z</Time>
            <Position>
              <LatitudeDegrees>36.71232308261096477508544921875</LatitudeDegrees>
              <LongitudeDegrees>-4.4339986145496368408203125</LongitudeDegrees>
            </Position>
            <AltitudeMeters>8</AltitudeMeters>
            <DistanceMeters>108195.96709792</DistanceMeters>
          </Trackpoint>
          <Trackpoint>
            <Time>2021-03-13T12:25:32.000Z</Time>
            <Position>
              <LatitudeDegrees>36.7121994495391845703125</LatitudeDegrees>
              <LongitudeDegrees>-4.434501864016056060791015625</LongitudeDegrees>
            </Position>
            <AltitudeMeters>8.3999996185302734375</AltitudeMeters>
            <DistanceMeters>108242.93068074</DistanceMeters>
          </Trackpoint>
          <Trackpoint>
            <Time>2021-03-13T12:25:33.000Z</Time>
            <Position>
              <LatitudeDegrees>36.71216265298426151275634765625</LatitudeDegrees>
              <LongitudeDegrees>-4.43459599278867244720458984375</LongitudeDegrees>
            </Position>
            <AltitudeMeters>8.3999996185302734375</AltitudeMeters>
            <DistanceMeters>108252.27427636</DistanceMeters>
          </Trackpoint>
          <Trackpoint>
            <Time>2021-03-13T12:25:35.000Z</Time>
            <Position>
              <LatitudeDegrees>36.712103225290775299072265625</LatitudeDegrees>
              <LongitudeDegrees>-4.43477888591587543487548828125</LongitudeDegrees>
            </Position>
            <AltitudeMeters>8.3999996185302734375</AltitudeMeters>
            <DistanceMeters>108269.88219062</DistanceMeters>
          </Trackpoint>
          <Trackpoint>
            <Time>2021-03-13T12:25:38.000Z</Time>
            <Position>
              <LatitudeDegrees>36.71203005127608776092529296875</LatitudeDegrees>
              <LongitudeDegrees>-4.4350200332701206207275390625</LongitudeDegrees>
            </Position>
            <AltitudeMeters>8.6000003814697265625</AltitudeMeters>
            <DistanceMeters>108292.88807771</DistanceMeters>
          </Trackpoint>
          <Trackpoint>
            <Time>2021-03-13T12:25:40.000Z</Time>
            <Position>
              <LatitudeDegrees>36.711932905018329620361328125</LatitudeDegrees>
              <LongitudeDegrees>-4.43513645790517330169677734375</LongitudeDegrees>
            </Position>
            <AltitudeMeters>8.6000003814697265625</AltitudeMeters>
            <DistanceMeters>108307.88183585</DistanceMeters>
          </Trackpoint>
          <Trackpoint>
            <Time>2021-03-13T12:25:41.000Z</Time>
            <Position>
              <LatitudeDegrees>36.711874902248382568359375</LatitudeDegrees>
              <LongitudeDegrees>-4.4351890124380588531494140625</LongitudeDegrees>
            </Position>
            <AltitudeMeters>8.6000003814697265625</AltitudeMeters>
            <DistanceMeters>108315.86068532</DistanceMeters>
          </Trackpoint>
          <Trackpoint>
            <Time>2021-03-13T12:25:48.000Z</Time>
            <Position>
              <LatitudeDegrees>36.711413227021694183349609375</LatitudeDegrees>
              <LongitudeDegrees>-4.43556435406208038330078125</LongitudeDegrees>
            </Position>
            <AltitudeMeters>8.6000003814697265625</AltitudeMeters>
            <DistanceMeters>108377.19628891</DistanceMeters>
          </Trackpoint>
          <Trackpoint>
            <Time>2021-03-13T12:25:53.000Z</Time>
            <Position>
              <LatitudeDegrees>36.711096055805683135986328125</LatitudeDegrees>
              <LongitudeDegrees>-4.435845650732517242431640625</LongitudeDegrees>
            </Position>
            <AltitudeMeters>9</AltitudeMeters>
            <DistanceMeters>108420.51117068</DistanceMeters>
          </Trackpoint>
          <Trackpoint>
            <Time>2021-03-13T12:25:55.000Z</Time>
            <Position>
              <LatitudeDegrees>36.710978038609027862548828125</LatitudeDegrees>
              <LongitudeDegrees>-4.4359752349555492401123046875</LongitudeDegrees>
            </Position>
            <AltitudeMeters>9</AltitudeMeters>
            <DistanceMeters>108438.01079874</DistanceMeters>
          </Trackpoint>
          <Trackpoint>
            <Time>2021-03-13T12:25:59.000Z</Time>
            <Position>
              <LatitudeDegrees>36.71074342913925647735595703125</LatitudeDegrees>
              <LongitudeDegrees>-4.436297602951526641845703125</LongitudeDegrees>
            </Position>
            <AltitudeMeters>9.3999996185302734375</AltitudeMeters>
            <DistanceMeters>108476.8594118</DistanceMeters>
          </Trackpoint>
          <Trackpoint>
            <Time>2021-03-13T12:26:06.000Z</Time>
            <Position>
              <LatitudeDegrees>36.7103339731693267822265625</LatitudeDegrees>
              <LongitudeDegrees>-4.4368322007358074188232421875</LongitudeDegrees>
            </Position>
            <AltitudeMeters>9.3999996185302734375</AltitudeMeters>
            <DistanceMeters>108542.83115646</DistanceMeters>
          </Trackpoint>
          <Trackpoint>
            <Time>2021-03-13T12:26:13.000Z</Time>
            <Position>
              <LatitudeDegrees>36.70993893407285213470458984375</LatitudeDegrees>
              <LongitudeDegrees>-4.4373703189194202423095703125</LongitudeDegrees>
            </Position>
            <AltitudeMeters>9</AltitudeMeters>
            <DistanceMeters>108607.93631573</DistanceMeters>
          </Trackpoint>
          <Trackpoint>
            <Time>2021-03-13T12:26:15.000Z</Time>
            <Position>
              <LatitudeDegrees>36.7098530195653438568115234375</LatitudeDegrees>
              <LongitudeDegrees>-4.43754608742892742156982421875</LongitudeDegrees>
            </Position>
            <AltitudeMeters>8.80000019073486328125</AltitudeMeters>
            <DistanceMeters>108626.30476085</DistanceMeters>
          </Trackpoint>
          <Trackpoint>
            <Time>2021-03-13T12:26:17.000Z</Time>
            <Position>
              <LatitudeDegrees>36.709787808358669281005859375</LatitudeDegrees>
              <LongitudeDegrees>-4.4377429783344268798828125</LongitudeDegrees>
            </Position>
            <AltitudeMeters>8.80000019073486328125</AltitudeMeters>
            <DistanceMeters>108645.31319184</DistanceMeters>
          </Trackpoint>
          <Trackpoint>
            <Time>2021-03-13T12:26:22.000Z</Time>
            <Position>
              <LatitudeDegrees>36.70964271761476993560791015625</LatitudeDegrees>
              <LongitudeDegrees>-4.43822686560451984405517578125</LongitudeDegrees>
            </Position>
            <AltitudeMeters>8.6000003814697265625</AltitudeMeters>
            <DistanceMeters>108691.41065</DistanceMeters>
          </Trackpoint>
          <Trackpoint>
            <Time>2021-03-13T12:26:23.000Z</Time>
            <Position>
              <LatitudeDegrees>36.70961287803947925567626953125</LatitudeDegrees>
              <LongitudeDegrees>-4.4383151270449161529541015625</LongitudeDegrees>
            </Position>
            <AltitudeMeters>8.80000019073486328125</AltitudeMeters>
            <DistanceMeters>108699.95671683</DistanceMeters>
          </Trackpoint>
          <Trackpoint>
            <Time>2021-03-13T12:26:24.000Z</Time>
            <Position>
              <LatitudeDegrees>36.70957750640809535980224609375</LatitudeDegrees>
              <LongitudeDegrees>-4.43839701823890209197998046875</LongitudeDegrees>
            </Position>
            <AltitudeMeters>8.6000003814697265625</AltitudeMeters>
            <DistanceMeters>108708.25620014</DistanceMeters>
          </Trackpoint>
          <Trackpoint>
            <Time>2021-03-13T12:26:27.000Z</Time>
            <Position>
              <LatitudeDegrees>36.70946183614432811737060546875</LatitudeDegrees>
              <LongitudeDegrees>-4.43861000239849090576171875</LongitudeDegrees>
            </Position>
            <AltitudeMeters>8.6000003814697265625</AltitudeMeters>
            <DistanceMeters>108731.21041392</DistanceMeters>
          </Trackpoint>
          <Trackpoint>
            <Time>2021-03-13T12:26:28.000Z</Time>
            <Position>
              <LatitudeDegrees>36.70941858552396297454833984375</LatitudeDegrees>
              <LongitudeDegrees>-4.43866875953972339630126953125</LongitudeDegrees>
            </Position>
            <AltitudeMeters>8.6000003814697265625</AltitudeMeters>
            <DistanceMeters>108738.32790848</DistanceMeters>
          </Trackpoint>
          <Trackpoint>
            <Time>2021-03-13T12:26:31.000Z</Time>
            <Position>
              <LatitudeDegrees>36.7092790268361568450927734375</LatitudeDegrees>
              <LongitudeDegrees>-4.43880848586559295654296875</LongitudeDegrees>
            </Position>
            <AltitudeMeters>8.6000003814697265625</AltitudeMeters>
            <DistanceMeters>108758.24592491</DistanceMeters>
          </Trackpoint>
          <Trackpoint>
            <Time>2021-03-13T12:26:32.000Z</Time>
            <Position>
              <LatitudeDegrees>36.709237955510616302490234375</LatitudeDegrees>
              <LongitudeDegrees>-4.43880890496075153350830078125</LongitudeDegrees>
            </Position>
            <AltitudeMeters>8.6000003814697265625</AltitudeMeters>
            <DistanceMeters>108762.8170951</DistanceMeters>
          </Trackpoint>
          <Trackpoint>
            <Time>2021-03-13T12:26:33.000Z</Time>
            <Position>
              <LatitudeDegrees>36.7091908492147922515869140625</LatitudeDegrees>
              <LongitudeDegrees>-4.43881410174071788787841796875</LongitudeDegrees>
            </Position>
            <AltitudeMeters>8.6000003814697265625</AltitudeMeters>
            <DistanceMeters>108768.08058012</DistanceMeters>
          </Trackpoint>
          <Trackpoint>
            <Time>2021-03-13T12:26:35.000Z</Time>
            <Position>
              <LatitudeDegrees>36.70911499299108982086181640625</LatitudeDegrees>
              <LongitudeDegrees>-4.43887243978679180145263671875</LongitudeDegrees>
            </Position>
            <AltitudeMeters>8.6000003814697265625</AltitudeMeters>
            <DistanceMeters>108777.99938463</DistanceMeters>
          </Trackpoint>
          <Trackpoint>
            <Time>2021-03-13T12:26:37.000Z</Time>
            <Position>
              <LatitudeDegrees>36.70904844067990779876708984375</LatitudeDegrees>
              <LongitudeDegrees>-4.43895106203854084014892578125</LongitudeDegrees>
            </Position>
            <AltitudeMeters>8.80000019073486328125</AltitudeMeters>
            <DistanceMeters>108788.20137762</DistanceMeters>
          </Trackpoint>
          <Trackpoint>
            <Time>2021-03-13T12:26:39.000Z</Time>
            <Position>
              <LatitudeDegrees>36.70898658223450183868408203125</LatitudeDegrees>
              <LongitudeDegrees>-4.43902046419680118560791015625</LongitudeDegrees>
            </Position>
            <AltitudeMeters>9</AltitudeMeters>
            <DistanceMeters>108797.46148593</DistanceMeters>
          </Trackpoint>
          <Trackpoint>
            <Time>2021-03-13T12:26:41.000Z</Time>
            <Position>
              <LatitudeDegrees>36.708932183682918548583984375</LatitudeDegrees>
              <LongitudeDegrees>-4.43908584304153919219970703125</LongitudeDegrees>
            </Position>
            <AltitudeMeters>9</AltitudeMeters>
            <DistanceMeters>108805.86906813</DistanceMeters>
          </Trackpoint>
          <Trackpoint>
            <Time>2021-03-13T12:26:44.000Z</Time>
            <Position>
              <LatitudeDegrees>36.70885046012699604034423828125</LatitudeDegrees>
              <LongitudeDegrees>-4.4391804747283458709716796875</LongitudeDegrees>
            </Position>
            <AltitudeMeters>9.19999980926513671875</AltitudeMeters>
            <DistanceMeters>108818.28015366</DistanceMeters>
          </Trackpoint>
        </Track>
      </Lap>
    </Activity>
  </Activities>
</TrainingCenterDatabase>
